﻿<?xml version="1.0" encoding="UTF-8"?>
<gpx xmlns="http://www.topografix.com/GPX/1/1" creator="HOLUX ezTour Plus" version="1.1">
<metadata>
<link href="http://www.holux.com"><text>HOLUX Technology, Inc.</text></link>
<time>2012-08-01T18:48:29Z</time></metadata>
<trk>
<name><![CDATA[raw4]]></name>
<trkseg>
<trkpt lat="64.103713989" lon="-19.956935883">
<ele>146.410156</ele>
<time>2012-07-21T11:10:34Z</time>
<speed>0.040000</speed>
<extensions>
<speed>0.0</speed>
<temp>0.00</temp>
<bpm>0</bpm>
<rpm>0.00</rpm>
</extensions>
</trkpt>
<trkpt lat="64.103683472" lon="-19.956943512">
<ele>146.179688</ele>
<time>2012-07-21T11:10:39Z</time>
<extensions>
<speed>0.0</speed>
<temp>0.00</temp>
<bpm>0</bpm>
<rpm>0.00</rpm>
</extensions>
</trkpt>
<trkpt lat="64.103691101" lon="-19.956937790">
<ele>145.378906</ele>
<time>2012-07-21T11:10:44Z</time>
<extensions>
<speed>0.0</speed>
<temp>0.00</temp>
<bpm>0</bpm>
<rpm>0.00</rpm>
</extensions>
</trkpt>
<trkpt lat="64.103698730" lon="-19.956939697">
<ele>145.855469</ele>
<time>2012-07-21T11:10:49Z</time>
<extensions>
<speed>0.0</speed>
<temp>0.00</temp>
<bpm>0</bpm>
<rpm>0.00</rpm>
</extensions>
</trkpt>
<trkpt lat="64.103698730" lon="-19.956937790">
<ele>145.734375</ele>
<time>2012-07-21T11:10:54Z</time>
<speed>0.010000</speed>
<extensions>
<speed>0.0</speed>
<temp>0.00</temp>
<bpm>0</bpm>
<rpm>0.00</rpm>
</extensions>
</trkpt>
<trkpt lat="64.103698730" lon="-19.956935883">
<ele>145.535156</ele>
<time>2012-07-21T11:10:59Z</time>
<extensions>
<speed>0.0</speed>
<temp>0.00</temp>
<bpm>0</bpm>
<rpm>0.00</rpm>
</extensions>
</trkpt>
<trkpt lat="64.103691101" lon="-19.956937790">
<ele>145.343750</ele>
<time>2012-07-21T11:11:04Z</time>
<extensions>
<speed>0.0</speed>
<temp>0.00</temp>
<bpm>0</bpm>
<rpm>0.00</rpm>
</extensions>
</trkpt>
<trkpt lat="64.103691101" lon="-19.956935883">
<ele>145.246094</ele>
<time>2012-07-21T11:11:09Z</time>
<extensions>
<speed>0.0</speed>
<temp>0.00</temp>
<bpm>0</bpm>
<rpm>0.00</rpm>
</extensions>
</trkpt>
<trkpt lat="64.103691101" lon="-19.956935883">
<ele>145.214844</ele>
<time>2012-07-21T11:11:14Z</time>
<extensions>
<speed>0.0</speed>
<temp>0.00</temp>
<bpm>0</bpm>
<rpm>0.00</rpm>
</extensions>
</trkpt>
<trkpt lat="64.103691101" lon="-19.956935883">
<ele>145.187500</ele>
<time>2012-07-21T11:11:19Z</time>
<speed>0.070000</speed>
<extensions>
<speed>0.1</speed>
<temp>0.00</temp>
<bpm>0</bpm>
<rpm>0.00</rpm>
</extensions>
</trkpt>
<trkpt lat="64.103691101" lon="-19.956897736">
<ele>145.125000</ele>
<time>2012-07-21T11:11:24Z</time>
<speed>0.030000</speed>
<extensions>
<speed>0.0</speed>
<temp>0.00</temp>
<bpm>0</bpm>
<rpm>0.00</rpm>
</extensions>
</trkpt>
<trkpt lat="64.103683472" lon="-19.956895828">
<ele>144.609375</ele>
<time>2012-07-21T11:11:29Z</time>
<speed>0.060000</speed>
<extensions>
<speed>0.1</speed>
<temp>0.00</temp>
<bpm>0</bpm>
<rpm>0.00</rpm>
</extensions>
</trkpt>
<trkpt lat="64.103698730" lon="-19.956823349">
<ele>143.718750</ele>
<time>2012-07-21T11:11:34Z</time>
<speed>1.370000</speed>
<extensions>
<speed>1.4</speed>
<temp>0.00</temp>
<bpm>0</bpm>
<rpm>0.00</rpm>
</extensions>
</trkpt>
<trkpt lat="64.103744507" lon="-19.956686020">
<ele>143.164063</ele>
<time>2012-07-21T11:11:39Z</time>
<speed>2.300000</speed>
<extensions>
<speed>2.3</speed>
<temp>0.00</temp>
<bpm>0</bpm>
<rpm>0.00</rpm>
</extensions>
</trkpt>
<trkpt lat="64.103836060" lon="-19.956586838">
<ele>142.617188</ele>
<time>2012-07-21T11:11:44Z</time>
<speed>2.480000</speed>
<extensions>
<speed>2.5</speed>
<temp>0.00</temp>
<bpm>0</bpm>
<rpm>0.00</rpm>
</extensions>
</trkpt>
<trkpt lat="64.103935242" lon="-19.956539154">
<ele>142.226563</ele>
<time>2012-07-21T11:11:49Z</time>
<speed>2.030000</speed>
<extensions>
<speed>2.0</speed>
<temp>0.00</temp>
<bpm>0</bpm>
<rpm>0.00</rpm>
</extensions>
</trkpt>
<trkpt lat="64.104019165" lon="-19.956447601">
<ele>142.167969</ele>
<time>2012-07-21T11:11:54Z</time>
<speed>2.080000</speed>
<extensions>
<speed>2.1</speed>
<temp>0.00</temp>
<bpm>0</bpm>
<rpm>0.00</rpm>
</extensions>
</trkpt>
<trkpt lat="64.104110718" lon="-19.956331253">
<ele>142.281250</ele>
<time>2012-07-21T11:11:59Z</time>
<speed>2.260000</speed>
<extensions>
<speed>2.3</speed>
<temp>0.00</temp>
<bpm>0</bpm>
<rpm>0.00</rpm>
</extensions>
</trkpt>
<trkpt lat="64.104187012" lon="-19.956216812">
<ele>142.527344</ele>
<time>2012-07-21T11:12:04Z</time>
<speed>2.110000</speed>
<extensions>
<speed>2.1</speed>
<temp>0.00</temp>
<bpm>0</bpm>
<rpm>0.00</rpm>
</extensions>
</trkpt>
<trkpt lat="64.104263306" lon="-19.956110001">
<ele>142.617188</ele>
<time>2012-07-21T11:12:09Z</time>
<speed>1.940000</speed>
<extensions>
<speed>1.9</speed>
<temp>0.00</temp>
<bpm>0</bpm>
<rpm>0.00</rpm>
</extensions>
</trkpt>
<trkpt lat="64.104324341" lon="-19.956001282">
<ele>142.371094</ele>
<time>2012-07-21T11:12:14Z</time>
<speed>1.970000</speed>
<extensions>
<speed>2.0</speed>
<temp>0.00</temp>
<bpm>0</bpm>
<rpm>0.00</rpm>
</extensions>
</trkpt>
<trkpt lat="64.104377747" lon="-19.955814362">
<ele>142.914063</ele>
<time>2012-07-21T11:12:19Z</time>
<speed>2.310000</speed>
<extensions>
<speed>2.3</speed>
<temp>0.00</temp>
<bpm>0</bpm>
<rpm>0.00</rpm>
</extensions>
</trkpt>
<trkpt lat="64.104408264" lon="-19.955572128">
<ele>142.675781</ele>
<time>2012-07-21T11:12:24Z</time>
<speed>2.670000</speed>
<extensions>
<speed>2.7</speed>
<temp>0.00</temp>
<bpm>0</bpm>
<rpm>0.00</rpm>
</extensions>
</trkpt>
<trkpt lat="64.104469299" lon="-19.955352783">
<ele>142.605469</ele>
<time>2012-07-21T11:12:29Z</time>
<speed>2.520000</speed>
<extensions>
<speed>2.5</speed>
<temp>0.00</temp>
<bpm>0</bpm>
<rpm>0.00</rpm>
</extensions>
</trkpt>
<trkpt lat="64.104522705" lon="-19.955121994">
<ele>142.390625</ele>
<time>2012-07-21T11:12:34Z</time>
<speed>2.440000</speed>
<extensions>
<speed>2.4</speed>
<temp>0.00</temp>
<bpm>0</bpm>
<rpm>0.00</rpm>
</extensions>
</trkpt>
<trkpt lat="64.104583740" lon="-19.954904556">
<ele>143.109375</ele>
<time>2012-07-21T11:12:39Z</time>
<speed>2.500000</speed>
<extensions>
<speed>2.5</speed>
<temp>0.00</temp>
<bpm>0</bpm>
<rpm>0.00</rpm>
</extensions>
</trkpt>
<trkpt lat="64.104614258" lon="-19.954610825">
<ele>143.839844</ele>
<time>2012-07-21T11:12:44Z</time>
<speed>3.180000</speed>
<extensions>
<speed>3.2</speed>
<temp>0.00</temp>
<bpm>0</bpm>
<rpm>0.00</rpm>
</extensions>
</trkpt>
<trkpt lat="64.104713440" lon="-19.954347610">
<ele>144.097656</ele>
<time>2012-07-21T11:12:49Z</time>
<speed>3.330000</speed>
<extensions>
<speed>3.3</speed>
<temp>0.00</temp>
<bpm>0</bpm>
<rpm>0.00</rpm>
</extensions>
</trkpt>
<trkpt lat="64.104804993" lon="-19.954053879">
<ele>144.167969</ele>
<time>2012-07-21T11:12:54Z</time>
<speed>3.690000</speed>
<extensions>
<speed>3.7</speed>
<temp>0.00</temp>
<bpm>0</bpm>
<rpm>0.00</rpm>
</extensions>
</trkpt>
<trkpt lat="64.104873657" lon="-19.953720093">
<ele>145.421875</ele>
<time>2012-07-21T11:12:59Z</time>
<speed>3.230000</speed>
<extensions>
<speed>3.2</speed>
<temp>0.00</temp>
<bpm>0</bpm>
<rpm>0.00</rpm>
</extensions>
</trkpt>
<trkpt lat="64.104873657" lon="-19.953441620">
<ele>145.175781</ele>
<time>2012-07-21T11:13:04Z</time>
<speed>1.870000</speed>
<extensions>
<speed>1.9</speed>
<temp>0.00</temp>
<bpm>0</bpm>
<rpm>0.00</rpm>
</extensions>
</trkpt>
<trkpt lat="64.104843140" lon="-19.953332901">
<ele>144.554688</ele>
<time>2012-07-21T11:13:09Z</time>
<speed>2.200000</speed>
<extensions>
<speed>2.2</speed>
<temp>0.00</temp>
<bpm>0</bpm>
<rpm>0.00</rpm>
</extensions>
</trkpt>
<trkpt lat="64.104705811" lon="-19.953247070">
<ele>144.246094</ele>
<time>2012-07-21T11:13:14Z</time>
<speed>3.310000</speed>
<extensions>
<speed>3.3</speed>
<temp>0.00</temp>
<bpm>0</bpm>
<rpm>0.00</rpm>
</extensions>
</trkpt>
<trkpt lat="64.104568481" lon="-19.953144073">
<ele>145.582031</ele>
<time>2012-07-21T11:13:19Z</time>
<speed>3.470000</speed>
<extensions>
<speed>3.5</speed>
<temp>0.00</temp>
<bpm>0</bpm>
<rpm>0.00</rpm>
</extensions>
</trkpt>
<trkpt lat="64.104438782" lon="-19.953033447">
<ele>146.519531</ele>
<time>2012-07-21T11:13:24Z</time>
<speed>2.860000</speed>
<extensions>
<speed>2.9</speed>
<temp>0.00</temp>
<bpm>0</bpm>
<rpm>0.00</rpm>
</extensions>
</trkpt>
<trkpt lat="64.104324341" lon="-19.952901840">
<ele>147.660156</ele>
<time>2012-07-21T11:13:29Z</time>
<speed>2.980000</speed>
<extensions>
<speed>3.0</speed>
<temp>0.00</temp>
<bpm>0</bpm>
<rpm>0.00</rpm>
</extensions>
</trkpt>
<trkpt lat="64.104209900" lon="-19.952766418">
<ele>148.609375</ele>
<time>2012-07-21T11:13:34Z</time>
<speed>2.710000</speed>
<extensions>
<speed>2.7</speed>
<temp>0.00</temp>
<bpm>0</bpm>
<rpm>0.00</rpm>
</extensions>
</trkpt>
<trkpt lat="64.104118347" lon="-19.952646255">
<ele>147.542969</ele>
<time>2012-07-21T11:13:39Z</time>
<speed>2.700000</speed>
<extensions>
<speed>2.7</speed>
<temp>0.00</temp>
<bpm>0</bpm>
<rpm>0.00</rpm>
</extensions>
</trkpt>
<trkpt lat="64.103958130" lon="-19.952463150">
<ele>146.234375</ele>
<time>2012-07-21T11:13:44Z</time>
<speed>5.260000</speed>
<extensions>
<speed>5.3</speed>
<temp>0.00</temp>
<bpm>0</bpm>
<rpm>0.00</rpm>
</extensions>
</trkpt>
<trkpt lat="64.103759766" lon="-19.952213287">
<ele>145.324219</ele>
<time>2012-07-21T11:13:49Z</time>
<speed>5.050000</speed>
<extensions>
<speed>5.1</speed>
<temp>0.00</temp>
<bpm>0</bpm>
<rpm>0.00</rpm>
</extensions>
</trkpt>
<trkpt lat="64.103591919" lon="-19.951997757">
<ele>144.953125</ele>
<time>2012-07-21T11:13:54Z</time>
<speed>3.950000</speed>
<extensions>
<speed>4.0</speed>
<temp>0.00</temp>
<bpm>0</bpm>
<rpm>0.00</rpm>
</extensions>
</trkpt>
<trkpt lat="64.103446960" lon="-19.951812744">
<ele>144.835938</ele>
<time>2012-07-21T11:13:59Z</time>
<speed>3.800000</speed>
<extensions>
<speed>3.8</speed>
<temp>0.00</temp>
<bpm>0</bpm>
<rpm>0.00</rpm>
</extensions>
</trkpt>
<trkpt lat="64.103302002" lon="-19.951622009">
<ele>144.914063</ele>
<time>2012-07-21T11:14:04Z</time>
<speed>3.370000</speed>
<extensions>
<speed>3.4</speed>
<temp>0.00</temp>
<bpm>0</bpm>
<rpm>0.00</rpm>
</extensions>
</trkpt>
<trkpt lat="64.103248596" lon="-19.951517105">
<ele>145.964844</ele>
<time>2012-07-21T11:14:09Z</time>
<speed>0.150000</speed>
<extensions>
<speed>0.2</speed>
<temp>0.00</temp>
<bpm>0</bpm>
<rpm>0.00</rpm>
</extensions>
</trkpt>
<trkpt lat="64.103240967" lon="-19.951503754">
<ele>145.902344</ele>
<time>2012-07-21T11:14:14Z</time>
<speed>0.120000</speed>
<extensions>
<speed>0.1</speed>
<temp>0.00</temp>
<bpm>0</bpm>
<rpm>0.00</rpm>
</extensions>
</trkpt>
<trkpt lat="64.103240967" lon="-19.951498032">
<ele>145.816406</ele>
<time>2012-07-21T11:14:19Z</time>
<speed>0.030000</speed>
<extensions>
<speed>0.0</speed>
<temp>0.00</temp>
<bpm>0</bpm>
<rpm>0.00</rpm>
</extensions>
</trkpt>
<trkpt lat="64.103233337" lon="-19.951469421">
<ele>145.761719</ele>
<time>2012-07-21T11:14:24Z</time>
<speed>0.490000</speed>
<extensions>
<speed>0.5</speed>
<temp>0.00</temp>
<bpm>0</bpm>
<rpm>0.00</rpm>
</extensions>
</trkpt>
<trkpt lat="64.103218079" lon="-19.951417923">
<ele>145.691406</ele>
<time>2012-07-21T11:14:29Z</time>
<speed>1.210000</speed>
<extensions>
<speed>1.2</speed>
<temp>0.00</temp>
<bpm>0</bpm>
<rpm>0.00</rpm>
</extensions>
</trkpt>
<trkpt lat="64.103240967" lon="-19.951202393">
<ele>144.539063</ele>
<time>2012-07-21T11:14:34Z</time>
<speed>1.160000</speed>
<extensions>
<speed>1.2</speed>
<temp>0.00</temp>
<bpm>0</bpm>
<rpm>0.00</rpm>
</extensions>
</trkpt>
<trkpt lat="64.103240967" lon="-19.951162338">
<ele>143.898438</ele>
<time>2012-07-21T11:14:39Z</time>
<speed>0.030000</speed>
<extensions>
<speed>0.0</speed>
<temp>0.00</temp>
<bpm>0</bpm>
<rpm>0.00</rpm>
</extensions>
</trkpt>
<trkpt lat="64.103240967" lon="-19.951160431">
<ele>143.769531</ele>
<time>2012-07-21T11:14:44Z</time>
<speed>0.010000</speed>
<extensions>
<speed>0.0</speed>
<temp>0.00</temp>
<bpm>0</bpm>
<rpm>0.00</rpm>
</extensions>
</trkpt>
<trkpt lat="64.103240967" lon="-19.951160431">
<ele>143.718750</ele>
<time>2012-07-21T11:14:49Z</time>
<speed>0.010000</speed>
<extensions>
<speed>0.0</speed>
<temp>0.00</temp>
<bpm>0</bpm>
<rpm>0.00</rpm>
</extensions>
</trkpt>
<trkpt lat="64.103240967" lon="-19.951158524">
<ele>143.703125</ele>
<time>2012-07-21T11:14:54Z</time>
<extensions>
<speed>0.0</speed>
<temp>0.00</temp>
<bpm>0</bpm>
<rpm>0.00</rpm>
</extensions>
</trkpt>
<trkpt lat="64.103240967" lon="-19.951158524">
<ele>143.691406</ele>
<time>2012-07-21T11:14:59Z</time>
<extensions>
<speed>0.0</speed>
<temp>0.00</temp>
<bpm>0</bpm>
<rpm>0.00</rpm>
</extensions>
</trkpt>
<trkpt lat="64.103240967" lon="-19.951141357">
<ele>143.320313</ele>
<time>2012-07-21T11:15:04Z</time>
<speed>0.630000</speed>
<extensions>
<speed>0.6</speed>
<temp>0.00</temp>
<bpm>0</bpm>
<rpm>0.00</rpm>
</extensions>
</trkpt>
<trkpt lat="64.103286743" lon="-19.950994492">
<ele>142.523438</ele>
<time>2012-07-21T11:15:09Z</time>
<speed>1.760000</speed>
<extensions>
<speed>1.8</speed>
<temp>0.00</temp>
<bpm>0</bpm>
<rpm>0.00</rpm>
</extensions>
</trkpt>
<trkpt lat="64.103347778" lon="-19.950826645">
<ele>141.945313</ele>
<time>2012-07-21T11:15:14Z</time>
<speed>1.740000</speed>
<extensions>
<speed>1.7</speed>
<temp>0.00</temp>
<bpm>0</bpm>
<rpm>0.00</rpm>
</extensions>
</trkpt>
<trkpt lat="64.103401184" lon="-19.950702667">
<ele>141.847656</ele>
<time>2012-07-21T11:15:19Z</time>
<speed>1.190000</speed>
<extensions>
<speed>1.2</speed>
<temp>0.00</temp>
<bpm>0</bpm>
<rpm>0.00</rpm>
</extensions>
</trkpt>
<trkpt lat="64.103446960" lon="-19.950580597">
<ele>141.703125</ele>
<time>2012-07-21T11:15:24Z</time>
<speed>1.850000</speed>
<extensions>
<speed>1.8</speed>
<temp>0.00</temp>
<bpm>0</bpm>
<rpm>0.00</rpm>
</extensions>
</trkpt>
<trkpt lat="64.103515625" lon="-19.950431824">
<ele>141.652344</ele>
<time>2012-07-21T11:15:29Z</time>
<speed>2.630000</speed>
<extensions>
<speed>2.6</speed>
<temp>0.00</temp>
<bpm>0</bpm>
<rpm>0.00</rpm>
</extensions>
</trkpt>
<trkpt lat="64.103614807" lon="-19.950189590">
<ele>141.429688</ele>
<time>2012-07-21T11:15:34Z</time>
<speed>3.430000</speed>
<extensions>
<speed>3.4</speed>
<temp>0.00</temp>
<bpm>0</bpm>
<rpm>0.00</rpm>
</extensions>
</trkpt>
<trkpt lat="64.103713989" lon="-19.949922562">
<ele>141.132813</ele>
<time>2012-07-21T11:15:39Z</time>
<speed>3.280000</speed>
<extensions>
<speed>3.3</speed>
<temp>0.00</temp>
<bpm>0</bpm>
<rpm>0.00</rpm>
</extensions>
</trkpt>
<trkpt lat="64.103828430" lon="-19.949649811">
<ele>140.863281</ele>
<time>2012-07-21T11:15:44Z</time>
<speed>3.570000</speed>
<extensions>
<speed>3.6</speed>
<temp>0.00</temp>
<bpm>0</bpm>
<rpm>0.00</rpm>
</extensions>
</trkpt>
<trkpt lat="64.103935242" lon="-19.949369431">
<ele>140.652344</ele>
<time>2012-07-21T11:15:49Z</time>
<speed>3.110000</speed>
<extensions>
<speed>3.1</speed>
<temp>0.00</temp>
<bpm>0</bpm>
<rpm>0.00</rpm>
</extensions>
</trkpt>
<trkpt lat="64.104026794" lon="-19.949178696">
<ele>140.585938</ele>
<time>2012-07-21T11:15:54Z</time>
<speed>2.240000</speed>
<extensions>
<speed>2.2</speed>
<temp>0.00</temp>
<bpm>0</bpm>
<rpm>0.00</rpm>
</extensions>
</trkpt>
<trkpt lat="64.104087830" lon="-19.949031830">
<ele>140.625000</ele>
<time>2012-07-21T11:15:59Z</time>
<speed>2.450000</speed>
<extensions>
<speed>2.4</speed>
<temp>0.00</temp>
<bpm>0</bpm>
<rpm>0.00</rpm>
</extensions>
</trkpt>
<trkpt lat="64.104171753" lon="-19.948835373">
<ele>140.273438</ele>
<time>2012-07-21T11:16:04Z</time>
<speed>2.630000</speed>
<extensions>
<speed>2.6</speed>
<temp>0.00</temp>
<bpm>0</bpm>
<rpm>0.00</rpm>
</extensions>
</trkpt>
<trkpt lat="64.104248047" lon="-19.948648453">
<ele>140.214844</ele>
<time>2012-07-21T11:16:09Z</time>
<speed>2.340000</speed>
<extensions>
<speed>2.3</speed>
<temp>0.00</temp>
<bpm>0</bpm>
<rpm>0.00</rpm>
</extensions>
</trkpt>
<trkpt lat="64.104316711" lon="-19.948490143">
<ele>139.914063</ele>
<time>2012-07-21T11:16:14Z</time>
<speed>1.830000</speed>
<extensions>
<speed>1.8</speed>
<temp>0.00</temp>
<bpm>0</bpm>
<rpm>0.00</rpm>
</extensions>
</trkpt>
<trkpt lat="64.104385376" lon="-19.948310852">
<ele>139.726563</ele>
<time>2012-07-21T11:16:19Z</time>
<speed>2.960000</speed>
<extensions>
<speed>3.0</speed>
<temp>0.00</temp>
<bpm>0</bpm>
<rpm>0.00</rpm>
</extensions>
</trkpt>
<trkpt lat="64.104484558" lon="-19.948072433">
<ele>139.128906</ele>
<time>2012-07-21T11:16:24Z</time>
<speed>3.600000</speed>
<extensions>
<speed>3.6</speed>
<temp>0.00</temp>
<bpm>0</bpm>
<rpm>0.00</rpm>
</extensions>
</trkpt>
<trkpt lat="64.104591370" lon="-19.947786331">
<ele>139.097656</ele>
<time>2012-07-21T11:16:29Z</time>
<speed>3.850000</speed>
<extensions>
<speed>3.8</speed>
<temp>0.00</temp>
<bpm>0</bpm>
<rpm>0.00</rpm>
</extensions>
</trkpt>
<trkpt lat="64.104721069" lon="-19.947471619">
<ele>139.136719</ele>
<time>2012-07-21T11:16:34Z</time>
<speed>4.060000</speed>
<extensions>
<speed>4.1</speed>
<temp>0.00</temp>
<bpm>0</bpm>
<rpm>0.00</rpm>
</extensions>
</trkpt>
<trkpt lat="64.104843140" lon="-19.947154999">
<ele>139.160156</ele>
<time>2012-07-21T11:16:39Z</time>
<speed>4.330000</speed>
<extensions>
<speed>4.3</speed>
<temp>0.00</temp>
<bpm>0</bpm>
<rpm>0.00</rpm>
</extensions>
</trkpt>
<trkpt lat="64.104980469" lon="-19.946800232">
<ele>138.925781</ele>
<time>2012-07-21T11:16:44Z</time>
<speed>4.760000</speed>
<extensions>
<speed>4.8</speed>
<temp>0.00</temp>
<bpm>0</bpm>
<rpm>0.00</rpm>
</extensions>
</trkpt>
<trkpt lat="64.105125427" lon="-19.946426392">
<ele>138.613281</ele>
<time>2012-07-21T11:16:49Z</time>
<speed>4.830000</speed>
<extensions>
<speed>4.8</speed>
<temp>0.00</temp>
<bpm>0</bpm>
<rpm>0.00</rpm>
</extensions>
</trkpt>
<trkpt lat="64.105278015" lon="-19.946062088">
<ele>139.175781</ele>
<time>2012-07-21T11:16:54Z</time>
<speed>5.130000</speed>
<extensions>
<speed>5.1</speed>
<temp>0.00</temp>
<bpm>0</bpm>
<rpm>0.00</rpm>
</extensions>
</trkpt>
<trkpt lat="64.105445862" lon="-19.945676804">
<ele>139.023438</ele>
<time>2012-07-21T11:16:59Z</time>
<speed>5.060000</speed>
<extensions>
<speed>5.1</speed>
<temp>0.00</temp>
<bpm>0</bpm>
<rpm>0.00</rpm>
</extensions>
</trkpt>
<trkpt lat="64.105598450" lon="-19.945281982">
<ele>138.804688</ele>
<time>2012-07-21T11:17:04Z</time>
<speed>5.370000</speed>
<extensions>
<speed>5.4</speed>
<temp>0.00</temp>
<bpm>0</bpm>
<rpm>0.00</rpm>
</extensions>
</trkpt>
<trkpt lat="64.105766296" lon="-19.944879532">
<ele>138.734375</ele>
<time>2012-07-21T11:17:09Z</time>
<speed>5.350000</speed>
<extensions>
<speed>5.4</speed>
<temp>0.00</temp>
<bpm>0</bpm>
<rpm>0.00</rpm>
</extensions>
</trkpt>
<trkpt lat="64.105934143" lon="-19.944478989">
<ele>138.714844</ele>
<time>2012-07-21T11:17:14Z</time>
<speed>5.530000</speed>
<extensions>
<speed>5.5</speed>
<temp>0.00</temp>
<bpm>0</bpm>
<rpm>0.00</rpm>
</extensions>
</trkpt>
<trkpt lat="64.106101990" lon="-19.944065094">
<ele>138.722656</ele>
<time>2012-07-21T11:17:19Z</time>
<speed>5.600000</speed>
<extensions>
<speed>5.6</speed>
<temp>0.00</temp>
<bpm>0</bpm>
<rpm>0.00</rpm>
</extensions>
</trkpt>
<trkpt lat="64.106277466" lon="-19.943643570">
<ele>138.566406</ele>
<time>2012-07-21T11:17:24Z</time>
<speed>5.520000</speed>
<extensions>
<speed>5.5</speed>
<temp>0.00</temp>
<bpm>0</bpm>
<rpm>0.00</rpm>
</extensions>
</trkpt>
<trkpt lat="64.106452942" lon="-19.943223953">
<ele>138.675781</ele>
<time>2012-07-21T11:17:29Z</time>
<speed>5.730000</speed>
<extensions>
<speed>5.7</speed>
<temp>0.00</temp>
<bpm>0</bpm>
<rpm>0.00</rpm>
</extensions>
</trkpt>
<trkpt lat="64.106620789" lon="-19.942785263">
<ele>138.746094</ele>
<time>2012-07-21T11:17:34Z</time>
<speed>5.510000</speed>
<extensions>
<speed>5.5</speed>
<temp>0.00</temp>
<bpm>0</bpm>
<rpm>0.00</rpm>
</extensions>
</trkpt>
<trkpt lat="64.106796265" lon="-19.942369461">
<ele>138.710938</ele>
<time>2012-07-21T11:17:39Z</time>
<speed>5.750000</speed>
<extensions>
<speed>5.8</speed>
<temp>0.00</temp>
<bpm>0</bpm>
<rpm>0.00</rpm>
</extensions>
</trkpt>
<trkpt lat="64.106971741" lon="-19.941928864">
<ele>138.851563</ele>
<time>2012-07-21T11:17:44Z</time>
<speed>6.020000</speed>
<extensions>
<speed>6.0</speed>
<temp>0.00</temp>
<bpm>0</bpm>
<rpm>0.00</rpm>
</extensions>
</trkpt>
<trkpt lat="64.107162476" lon="-19.941474915">
<ele>138.636719</ele>
<time>2012-07-21T11:17:49Z</time>
<speed>6.040000</speed>
<extensions>
<speed>6.0</speed>
<temp>0.00</temp>
<bpm>0</bpm>
<rpm>0.00</rpm>
</extensions>
</trkpt>
<trkpt lat="64.107345581" lon="-19.941040039">
<ele>138.925781</ele>
<time>2012-07-21T11:17:54Z</time>
<speed>5.280000</speed>
<extensions>
<speed>5.3</speed>
<temp>0.00</temp>
<bpm>0</bpm>
<rpm>0.00</rpm>
</extensions>
</trkpt>
<trkpt lat="64.107498169" lon="-19.940645218">
<ele>138.703125</ele>
<time>2012-07-21T11:17:59Z</time>
<speed>5.530000</speed>
<extensions>
<speed>5.5</speed>
<temp>0.00</temp>
<bpm>0</bpm>
<rpm>0.00</rpm>
</extensions>
</trkpt>
<trkpt lat="64.107673645" lon="-19.940217972">
<ele>138.687500</ele>
<time>2012-07-21T11:18:04Z</time>
<speed>5.820000</speed>
<extensions>
<speed>5.8</speed>
<temp>0.00</temp>
<bpm>0</bpm>
<rpm>0.00</rpm>
</extensions>
</trkpt>
<trkpt lat="64.107841492" lon="-19.939819336">
<ele>139.046875</ele>
<time>2012-07-21T11:18:09Z</time>
<speed>5.010000</speed>
<extensions>
<speed>5.0</speed>
<temp>0.00</temp>
<bpm>0</bpm>
<rpm>0.00</rpm>
</extensions>
</trkpt>
<trkpt lat="64.108001709" lon="-19.939428329">
<ele>139.210938</ele>
<time>2012-07-21T11:18:14Z</time>
<speed>5.480000</speed>
<extensions>
<speed>5.5</speed>
<temp>0.00</temp>
<bpm>0</bpm>
<rpm>0.00</rpm>
</extensions>
</trkpt>
<trkpt lat="64.108169556" lon="-19.939002991">
<ele>139.406250</ele>
<time>2012-07-21T11:18:19Z</time>
<speed>5.720000</speed>
<extensions>
<speed>5.7</speed>
<temp>0.00</temp>
<bpm>0</bpm>
<rpm>0.00</rpm>
</extensions>
</trkpt>
<trkpt lat="64.108345032" lon="-19.938585281">
<ele>139.566406</ele>
<time>2012-07-21T11:18:24Z</time>
<speed>5.270000</speed>
<extensions>
<speed>5.3</speed>
<temp>0.00</temp>
<bpm>0</bpm>
<rpm>0.00</rpm>
</extensions>
</trkpt>
<trkpt lat="64.108505249" lon="-19.938179016">
<ele>139.593750</ele>
<time>2012-07-21T11:18:29Z</time>
<speed>5.510000</speed>
<extensions>
<speed>5.5</speed>
<temp>0.00</temp>
<bpm>0</bpm>
<rpm>0.00</rpm>
</extensions>
</trkpt>
<trkpt lat="64.108680725" lon="-19.937763214">
<ele>139.613281</ele>
<time>2012-07-21T11:18:34Z</time>
<speed>5.470000</speed>
<extensions>
<speed>5.5</speed>
<temp>0.00</temp>
<bpm>0</bpm>
<rpm>0.00</rpm>
</extensions>
</trkpt>
<trkpt lat="64.108848572" lon="-19.937355042">
<ele>140.386719</ele>
<time>2012-07-21T11:18:39Z</time>
<speed>5.480000</speed>
<extensions>
<speed>5.5</speed>
<temp>0.00</temp>
<bpm>0</bpm>
<rpm>0.00</rpm>
</extensions>
</trkpt>
<trkpt lat="64.109016418" lon="-19.936935425">
<ele>140.750000</ele>
<time>2012-07-21T11:18:44Z</time>
<speed>5.650000</speed>
<extensions>
<speed>5.7</speed>
<temp>0.00</temp>
<bpm>0</bpm>
<rpm>0.00</rpm>
</extensions>
</trkpt>
<trkpt lat="64.109184265" lon="-19.936523438">
<ele>140.718750</ele>
<time>2012-07-21T11:18:49Z</time>
<speed>4.990000</speed>
<extensions>
<speed>5.0</speed>
<temp>0.00</temp>
<bpm>0</bpm>
<rpm>0.00</rpm>
</extensions>
</trkpt>
<trkpt lat="64.109336853" lon="-19.936140060">
<ele>140.800781</ele>
<time>2012-07-21T11:18:54Z</time>
<speed>5.310000</speed>
<extensions>
<speed>5.3</speed>
<temp>0.00</temp>
<bpm>0</bpm>
<rpm>0.00</rpm>
</extensions>
</trkpt>
<trkpt lat="64.109497070" lon="-19.935726166">
<ele>141.023438</ele>
<time>2012-07-21T11:18:59Z</time>
<speed>5.440000</speed>
<extensions>
<speed>5.4</speed>
<temp>0.00</temp>
<bpm>0</bpm>
<rpm>0.00</rpm>
</extensions>
</trkpt>
<trkpt lat="64.109657288" lon="-19.935297012">
<ele>141.191406</ele>
<time>2012-07-21T11:19:04Z</time>
<speed>5.680000</speed>
<extensions>
<speed>5.7</speed>
<temp>0.00</temp>
<bpm>0</bpm>
<rpm>0.00</rpm>
</extensions>
</trkpt>
<trkpt lat="64.109817505" lon="-19.934858322">
<ele>141.242188</ele>
<time>2012-07-21T11:19:09Z</time>
<speed>5.590000</speed>
<extensions>
<speed>5.6</speed>
<temp>0.00</temp>
<bpm>0</bpm>
<rpm>0.00</rpm>
</extensions>
</trkpt>
<trkpt lat="64.109970093" lon="-19.934432983">
<ele>141.292969</ele>
<time>2012-07-21T11:19:14Z</time>
<speed>5.150000</speed>
<extensions>
<speed>5.2</speed>
<temp>0.00</temp>
<bpm>0</bpm>
<rpm>0.00</rpm>
</extensions>
</trkpt>
<trkpt lat="64.110115051" lon="-19.934001923">
<ele>141.468750</ele>
<time>2012-07-21T11:19:19Z</time>
<speed>5.370000</speed>
<extensions>
<speed>5.4</speed>
<temp>0.00</temp>
<bpm>0</bpm>
<rpm>0.00</rpm>
</extensions>
</trkpt>
<trkpt lat="64.110267639" lon="-19.933561325">
<ele>141.886719</ele>
<time>2012-07-21T11:19:24Z</time>
<speed>5.490000</speed>
<extensions>
<speed>5.5</speed>
<temp>0.00</temp>
<bpm>0</bpm>
<rpm>0.00</rpm>
</extensions>
</trkpt>
<trkpt lat="64.110412598" lon="-19.933118820">
<ele>141.953125</ele>
<time>2012-07-21T11:19:29Z</time>
<speed>5.280000</speed>
<extensions>
<speed>5.3</speed>
<temp>0.00</temp>
<bpm>0</bpm>
<rpm>0.00</rpm>
</extensions>
</trkpt>
<trkpt lat="64.110549927" lon="-19.932697296">
<ele>142.742188</ele>
<time>2012-07-21T11:19:34Z</time>
<speed>5.170000</speed>
<extensions>
<speed>5.2</speed>
<temp>0.00</temp>
<bpm>0</bpm>
<rpm>0.00</rpm>
</extensions>
</trkpt>
<trkpt lat="64.110687256" lon="-19.932275772">
<ele>142.925781</ele>
<time>2012-07-21T11:19:39Z</time>
<speed>5.200000</speed>
<extensions>
<speed>5.2</speed>
<temp>0.00</temp>
<bpm>0</bpm>
<rpm>0.00</rpm>
</extensions>
</trkpt>
<trkpt lat="64.110816956" lon="-19.931838989">
<ele>142.875000</ele>
<time>2012-07-21T11:19:44Z</time>
<speed>5.210000</speed>
<extensions>
<speed>5.2</speed>
<temp>0.00</temp>
<bpm>0</bpm>
<rpm>0.00</rpm>
</extensions>
</trkpt>
<trkpt lat="64.110954285" lon="-19.931400299">
<ele>142.972656</ele>
<time>2012-07-21T11:19:49Z</time>
<speed>5.130000</speed>
<extensions>
<speed>5.1</speed>
<temp>0.00</temp>
<bpm>0</bpm>
<rpm>0.00</rpm>
</extensions>
</trkpt>
<trkpt lat="64.111083984" lon="-19.930974960">
<ele>142.929688</ele>
<time>2012-07-21T11:19:54Z</time>
<speed>5.140000</speed>
<extensions>
<speed>5.1</speed>
<temp>0.00</temp>
<bpm>0</bpm>
<rpm>0.00</rpm>
</extensions>
</trkpt>
<trkpt lat="64.111213684" lon="-19.930538177">
<ele>142.890625</ele>
<time>2012-07-21T11:19:59Z</time>
<speed>5.060000</speed>
<extensions>
<speed>5.1</speed>
<temp>0.00</temp>
<bpm>0</bpm>
<rpm>0.00</rpm>
</extensions>
</trkpt>
<trkpt lat="64.111335754" lon="-19.930103302">
<ele>142.941406</ele>
<time>2012-07-21T11:20:04Z</time>
<speed>5.290000</speed>
<extensions>
<speed>5.3</speed>
<temp>0.00</temp>
<bpm>0</bpm>
<rpm>0.00</rpm>
</extensions>
</trkpt>
<trkpt lat="64.111473083" lon="-19.929656982">
<ele>142.812500</ele>
<time>2012-07-21T11:20:09Z</time>
<speed>5.210000</speed>
<extensions>
<speed>5.2</speed>
<temp>0.00</temp>
<bpm>0</bpm>
<rpm>0.00</rpm>
</extensions>
</trkpt>
<trkpt lat="64.111610413" lon="-19.929214478">
<ele>142.828125</ele>
<time>2012-07-21T11:20:14Z</time>
<speed>5.300000</speed>
<extensions>
<speed>5.3</speed>
<temp>0.00</temp>
<bpm>0</bpm>
<rpm>0.00</rpm>
</extensions>
</trkpt>
<trkpt lat="64.111747742" lon="-19.928775787">
<ele>143.003906</ele>
<time>2012-07-21T11:20:19Z</time>
<speed>5.250000</speed>
<extensions>
<speed>5.2</speed>
<temp>0.00</temp>
<bpm>0</bpm>
<rpm>0.00</rpm>
</extensions>
</trkpt>
<trkpt lat="64.111869812" lon="-19.928346634">
<ele>143.710938</ele>
<time>2012-07-21T11:20:24Z</time>
<speed>5.080000</speed>
<extensions>
<speed>5.1</speed>
<temp>0.00</temp>
<bpm>0</bpm>
<rpm>0.00</rpm>
</extensions>
</trkpt>
<trkpt lat="64.111999512" lon="-19.927917480">
<ele>143.984375</ele>
<time>2012-07-21T11:20:29Z</time>
<speed>5.240000</speed>
<extensions>
<speed>5.2</speed>
<temp>0.00</temp>
<bpm>0</bpm>
<rpm>0.00</rpm>
</extensions>
</trkpt>
<trkpt lat="64.112144470" lon="-19.927471161">
<ele>144.148438</ele>
<time>2012-07-21T11:20:34Z</time>
<speed>5.330000</speed>
<extensions>
<speed>5.3</speed>
<temp>0.00</temp>
<bpm>0</bpm>
<rpm>0.00</rpm>
</extensions>
</trkpt>
<trkpt lat="64.112266541" lon="-19.927022934">
<ele>144.281250</ele>
<time>2012-07-21T11:20:39Z</time>
<speed>4.960000</speed>
<extensions>
<speed>5.0</speed>
<temp>0.00</temp>
<bpm>0</bpm>
<rpm>0.00</rpm>
</extensions>
</trkpt>
<trkpt lat="64.112411499" lon="-19.926576614">
<ele>144.035156</ele>
<time>2012-07-21T11:20:44Z</time>
<speed>5.410000</speed>
<extensions>
<speed>5.4</speed>
<temp>0.00</temp>
<bpm>0</bpm>
<rpm>0.00</rpm>
</extensions>
</trkpt>
<trkpt lat="64.112548828" lon="-19.926111221">
<ele>144.324219</ele>
<time>2012-07-21T11:20:49Z</time>
<speed>5.680000</speed>
<extensions>
<speed>5.7</speed>
<temp>0.00</temp>
<bpm>0</bpm>
<rpm>0.00</rpm>
</extensions>
</trkpt>
<trkpt lat="64.112693787" lon="-19.925607681">
<ele>144.937500</ele>
<time>2012-07-21T11:20:54Z</time>
<speed>5.930000</speed>
<extensions>
<speed>5.9</speed>
<temp>0.00</temp>
<bpm>0</bpm>
<rpm>0.00</rpm>
</extensions>
</trkpt>
<trkpt lat="64.112846375" lon="-19.925102234">
<ele>145.152344</ele>
<time>2012-07-21T11:20:59Z</time>
<speed>6.060000</speed>
<extensions>
<speed>6.1</speed>
<temp>0.00</temp>
<bpm>0</bpm>
<rpm>0.00</rpm>
</extensions>
</trkpt>
<trkpt lat="64.113014221" lon="-19.924606323">
<ele>145.285156</ele>
<time>2012-07-21T11:21:04Z</time>
<speed>5.890000</speed>
<extensions>
<speed>5.9</speed>
<temp>0.00</temp>
<bpm>0</bpm>
<rpm>0.00</rpm>
</extensions>
</trkpt>
<trkpt lat="64.113151550" lon="-19.924110413">
<ele>145.410156</ele>
<time>2012-07-21T11:21:09Z</time>
<speed>5.860000</speed>
<extensions>
<speed>5.9</speed>
<temp>0.00</temp>
<bpm>0</bpm>
<rpm>0.00</rpm>
</extensions>
</trkpt>
<trkpt lat="64.113296509" lon="-19.923620224">
<ele>145.609375</ele>
<time>2012-07-21T11:21:14Z</time>
<speed>5.940000</speed>
<extensions>
<speed>5.9</speed>
<temp>0.00</temp>
<bpm>0</bpm>
<rpm>0.00</rpm>
</extensions>
</trkpt>
<trkpt lat="64.113449097" lon="-19.923122406">
<ele>145.769531</ele>
<time>2012-07-21T11:21:19Z</time>
<speed>6.030000</speed>
<extensions>
<speed>6.0</speed>
<temp>0.00</temp>
<bpm>0</bpm>
<rpm>0.00</rpm>
</extensions>
</trkpt>
<trkpt lat="64.113594055" lon="-19.922609329">
<ele>145.675781</ele>
<time>2012-07-21T11:21:24Z</time>
<speed>6.060000</speed>
<extensions>
<speed>6.1</speed>
<temp>0.00</temp>
<bpm>0</bpm>
<rpm>0.00</rpm>
</extensions>
</trkpt>
<trkpt lat="64.113754272" lon="-19.922079086">
<ele>145.507813</ele>
<time>2012-07-21T11:21:29Z</time>
<speed>6.320000</speed>
<extensions>
<speed>6.3</speed>
<temp>0.00</temp>
<bpm>0</bpm>
<rpm>0.00</rpm>
</extensions>
</trkpt>
<trkpt lat="64.113914490" lon="-19.921567917">
<ele>145.804688</ele>
<time>2012-07-21T11:21:34Z</time>
<speed>5.910000</speed>
<extensions>
<speed>5.9</speed>
<temp>0.00</temp>
<bpm>0</bpm>
<rpm>0.00</rpm>
</extensions>
</trkpt>
<trkpt lat="64.114074707" lon="-19.921077728">
<ele>145.878906</ele>
<time>2012-07-21T11:21:39Z</time>
<speed>5.840000</speed>
<extensions>
<speed>5.8</speed>
<temp>0.00</temp>
<bpm>0</bpm>
<rpm>0.00</rpm>
</extensions>
</trkpt>
<trkpt lat="64.114219666" lon="-19.920600891">
<ele>146.156250</ele>
<time>2012-07-21T11:21:44Z</time>
<speed>5.270000</speed>
<extensions>
<speed>5.3</speed>
<temp>0.00</temp>
<bpm>0</bpm>
<rpm>0.00</rpm>
</extensions>
</trkpt>
<trkpt lat="64.114341736" lon="-19.920194626">
<ele>146.070313</ele>
<time>2012-07-21T11:21:49Z</time>
<speed>4.880000</speed>
<extensions>
<speed>4.9</speed>
<temp>0.00</temp>
<bpm>0</bpm>
<rpm>0.00</rpm>
</extensions>
</trkpt>
<trkpt lat="64.114479065" lon="-19.919748306">
<ele>146.769531</ele>
<time>2012-07-21T11:21:54Z</time>
<speed>5.470000</speed>
<extensions>
<speed>5.5</speed>
<temp>0.00</temp>
<bpm>0</bpm>
<rpm>0.00</rpm>
</extensions>
</trkpt>
<trkpt lat="64.114616394" lon="-19.919263840">
<ele>146.867188</ele>
<time>2012-07-21T11:21:59Z</time>
<speed>5.770000</speed>
<extensions>
<speed>5.8</speed>
<temp>0.00</temp>
<bpm>0</bpm>
<rpm>0.00</rpm>
</extensions>
</trkpt>
<trkpt lat="64.114753723" lon="-19.918796539">
<ele>147.335938</ele>
<time>2012-07-21T11:22:04Z</time>
<speed>5.660000</speed>
<extensions>
<speed>5.7</speed>
<temp>0.00</temp>
<bpm>0</bpm>
<rpm>0.00</rpm>
</extensions>
</trkpt>
<trkpt lat="64.114883423" lon="-19.918331146">
<ele>147.097656</ele>
<time>2012-07-21T11:22:09Z</time>
<speed>5.450000</speed>
<extensions>
<speed>5.5</speed>
<temp>0.00</temp>
<bpm>0</bpm>
<rpm>0.00</rpm>
</extensions>
</trkpt>
<trkpt lat="64.115020752" lon="-19.917869568">
<ele>146.742188</ele>
<time>2012-07-21T11:22:14Z</time>
<speed>5.300000</speed>
<extensions>
<speed>5.3</speed>
<temp>0.00</temp>
<bpm>0</bpm>
<rpm>0.00</rpm>
</extensions>
</trkpt>
<trkpt lat="64.115142822" lon="-19.917406082">
<ele>147.109375</ele>
<time>2012-07-21T11:22:19Z</time>
<speed>5.480000</speed>
<extensions>
<speed>5.5</speed>
<temp>0.00</temp>
<bpm>0</bpm>
<rpm>0.00</rpm>
</extensions>
</trkpt>
<trkpt lat="64.115264893" lon="-19.916915894">
<ele>147.164063</ele>
<time>2012-07-21T11:22:24Z</time>
<speed>5.510000</speed>
<extensions>
<speed>5.5</speed>
<temp>0.00</temp>
<bpm>0</bpm>
<rpm>0.00</rpm>
</extensions>
</trkpt>
<trkpt lat="64.115379333" lon="-19.916433334">
<ele>147.011719</ele>
<time>2012-07-21T11:22:29Z</time>
<speed>5.300000</speed>
<extensions>
<speed>5.3</speed>
<temp>0.00</temp>
<bpm>0</bpm>
<rpm>0.00</rpm>
</extensions>
</trkpt>
<trkpt lat="64.115493774" lon="-19.915956497">
<ele>146.859375</ele>
<time>2012-07-21T11:22:34Z</time>
<speed>5.360000</speed>
<extensions>
<speed>5.4</speed>
<temp>0.00</temp>
<bpm>0</bpm>
<rpm>0.00</rpm>
</extensions>
</trkpt>
<trkpt lat="64.115600586" lon="-19.915481567">
<ele>147.015625</ele>
<time>2012-07-21T11:22:39Z</time>
<speed>5.180000</speed>
<extensions>
<speed>5.2</speed>
<temp>0.00</temp>
<bpm>0</bpm>
<rpm>0.00</rpm>
</extensions>
</trkpt>
<trkpt lat="64.115707397" lon="-19.915010452">
<ele>147.386719</ele>
<time>2012-07-21T11:22:44Z</time>
<speed>5.230000</speed>
<extensions>
<speed>5.2</speed>
<temp>0.00</temp>
<bpm>0</bpm>
<rpm>0.00</rpm>
</extensions>
</trkpt>
<trkpt lat="64.115814209" lon="-19.914512634">
<ele>147.566406</ele>
<time>2012-07-21T11:22:49Z</time>
<speed>5.310000</speed>
<extensions>
<speed>5.3</speed>
<temp>0.00</temp>
<bpm>0</bpm>
<rpm>0.00</rpm>
</extensions>
</trkpt>
<trkpt lat="64.115921021" lon="-19.913999557">
<ele>148.523438</ele>
<time>2012-07-21T11:22:54Z</time>
<speed>5.360000</speed>
<extensions>
<speed>5.4</speed>
<temp>0.00</temp>
<bpm>0</bpm>
<rpm>0.00</rpm>
</extensions>
</trkpt>
<trkpt lat="64.116027832" lon="-19.913480759">
<ele>148.554688</ele>
<time>2012-07-21T11:22:59Z</time>
<speed>5.460000</speed>
<extensions>
<speed>5.5</speed>
<temp>0.00</temp>
<bpm>0</bpm>
<rpm>0.00</rpm>
</extensions>
</trkpt>
<trkpt lat="64.116119385" lon="-19.912971497">
<ele>149.500000</ele>
<time>2012-07-21T11:23:04Z</time>
<speed>5.460000</speed>
<extensions>
<speed>5.5</speed>
<temp>0.00</temp>
<bpm>0</bpm>
<rpm>0.00</rpm>
</extensions>
</trkpt>
<trkpt lat="64.116226196" lon="-19.912458420">
<ele>149.906250</ele>
<time>2012-07-21T11:23:09Z</time>
<speed>5.590000</speed>
<extensions>
<speed>5.6</speed>
<temp>0.00</temp>
<bpm>0</bpm>
<rpm>0.00</rpm>
</extensions>
</trkpt>
<trkpt lat="64.116317749" lon="-19.911937714">
<ele>150.355469</ele>
<time>2012-07-21T11:23:14Z</time>
<speed>5.500000</speed>
<extensions>
<speed>5.5</speed>
<temp>0.00</temp>
<bpm>0</bpm>
<rpm>0.00</rpm>
</extensions>
</trkpt>
<trkpt lat="64.116409302" lon="-19.911411285">
<ele>150.609375</ele>
<time>2012-07-21T11:23:19Z</time>
<speed>5.550000</speed>
<extensions>
<speed>5.5</speed>
<temp>0.00</temp>
<bpm>0</bpm>
<rpm>0.00</rpm>
</extensions>
</trkpt>
<trkpt lat="64.116500854" lon="-19.910879135">
<ele>151.035156</ele>
<time>2012-07-21T11:23:24Z</time>
<speed>5.650000</speed>
<extensions>
<speed>5.7</speed>
<temp>0.00</temp>
<bpm>0</bpm>
<rpm>0.00</rpm>
</extensions>
</trkpt>
<trkpt lat="64.116600037" lon="-19.910331726">
<ele>151.660156</ele>
<time>2012-07-21T11:23:29Z</time>
<speed>5.750000</speed>
<extensions>
<speed>5.8</speed>
<temp>0.00</temp>
<bpm>0</bpm>
<rpm>0.00</rpm>
</extensions>
</trkpt>
<trkpt lat="64.116699219" lon="-19.909784317">
<ele>151.605469</ele>
<time>2012-07-21T11:23:34Z</time>
<speed>5.760000</speed>
<extensions>
<speed>5.8</speed>
<temp>0.00</temp>
<bpm>0</bpm>
<rpm>0.00</rpm>
</extensions>
</trkpt>
<trkpt lat="64.116806030" lon="-19.909229279">
<ele>151.664063</ele>
<time>2012-07-21T11:23:39Z</time>
<speed>5.990000</speed>
<extensions>
<speed>6.0</speed>
<temp>0.00</temp>
<bpm>0</bpm>
<rpm>0.00</rpm>
</extensions>
</trkpt>
<trkpt lat="64.116905212" lon="-19.908655167">
<ele>151.496094</ele>
<time>2012-07-21T11:23:44Z</time>
<speed>5.950000</speed>
<extensions>
<speed>6.0</speed>
<temp>0.00</temp>
<bpm>0</bpm>
<rpm>0.00</rpm>
</extensions>
</trkpt>
<trkpt lat="64.117004395" lon="-19.908082962">
<ele>151.027344</ele>
<time>2012-07-21T11:23:49Z</time>
<speed>5.990000</speed>
<extensions>
<speed>6.0</speed>
<temp>0.00</temp>
<bpm>0</bpm>
<rpm>0.00</rpm>
</extensions>
</trkpt>
<trkpt lat="64.117111206" lon="-19.907508850">
<ele>151.066406</ele>
<time>2012-07-21T11:23:54Z</time>
<speed>6.320000</speed>
<extensions>
<speed>6.3</speed>
<temp>0.00</temp>
<bpm>0</bpm>
<rpm>0.00</rpm>
</extensions>
</trkpt>
<trkpt lat="64.117225647" lon="-19.906902313">
<ele>151.285156</ele>
<time>2012-07-21T11:23:59Z</time>
<speed>6.370000</speed>
<extensions>
<speed>6.4</speed>
<temp>0.00</temp>
<bpm>0</bpm>
<rpm>0.00</rpm>
</extensions>
</trkpt>
<trkpt lat="64.117332458" lon="-19.906297684">
<ele>151.671875</ele>
<time>2012-07-21T11:24:04Z</time>
<speed>6.350000</speed>
<extensions>
<speed>6.4</speed>
<temp>0.00</temp>
<bpm>0</bpm>
<rpm>0.00</rpm>
</extensions>
</trkpt>
<trkpt lat="64.117439270" lon="-19.905704498">
<ele>151.792969</ele>
<time>2012-07-21T11:24:09Z</time>
<speed>6.140000</speed>
<extensions>
<speed>6.1</speed>
<temp>0.00</temp>
<bpm>0</bpm>
<rpm>0.00</rpm>
</extensions>
</trkpt>
<trkpt lat="64.117538452" lon="-19.905181885">
<ele>151.875000</ele>
<time>2012-07-21T11:24:14Z</time>
<speed>5.610000</speed>
<extensions>
<speed>5.6</speed>
<temp>0.00</temp>
<bpm>0</bpm>
<rpm>0.00</rpm>
</extensions>
</trkpt>
<trkpt lat="64.117637634" lon="-19.904615402">
<ele>152.003906</ele>
<time>2012-07-21T11:24:19Z</time>
<speed>6.020000</speed>
<extensions>
<speed>6.0</speed>
<temp>0.00</temp>
<bpm>0</bpm>
<rpm>0.00</rpm>
</extensions>
</trkpt>
<trkpt lat="64.117736816" lon="-19.904045105">
<ele>151.960938</ele>
<time>2012-07-21T11:24:24Z</time>
<speed>5.890000</speed>
<extensions>
<speed>5.9</speed>
<temp>0.00</temp>
<bpm>0</bpm>
<rpm>0.00</rpm>
</extensions>
</trkpt>
<trkpt lat="64.117835999" lon="-19.903501511">
<ele>151.570313</ele>
<time>2012-07-21T11:24:29Z</time>
<speed>5.640000</speed>
<extensions>
<speed>5.6</speed>
<temp>0.00</temp>
<bpm>0</bpm>
<rpm>0.00</rpm>
</extensions>
</trkpt>
<trkpt lat="64.117935181" lon="-19.902973175">
<ele>152.000000</ele>
<time>2012-07-21T11:24:34Z</time>
<speed>5.470000</speed>
<extensions>
<speed>5.5</speed>
<temp>0.00</temp>
<bpm>0</bpm>
<rpm>0.00</rpm>
</extensions>
</trkpt>
<trkpt lat="64.118026733" lon="-19.902450562">
<ele>152.003906</ele>
<time>2012-07-21T11:24:39Z</time>
<speed>5.650000</speed>
<extensions>
<speed>5.7</speed>
<temp>0.00</temp>
<bpm>0</bpm>
<rpm>0.00</rpm>
</extensions>
</trkpt>
<trkpt lat="64.118125916" lon="-19.901912689">
<ele>152.105469</ele>
<time>2012-07-21T11:24:44Z</time>
<speed>5.540000</speed>
<extensions>
<speed>5.5</speed>
<temp>0.00</temp>
<bpm>0</bpm>
<rpm>0.00</rpm>
</extensions>
</trkpt>
<trkpt lat="64.118217468" lon="-19.901382446">
<ele>152.226563</ele>
<time>2012-07-21T11:24:49Z</time>
<speed>5.490000</speed>
<extensions>
<speed>5.5</speed>
<temp>0.00</temp>
<bpm>0</bpm>
<rpm>0.00</rpm>
</extensions>
</trkpt>
<trkpt lat="64.118316650" lon="-19.900869370">
<ele>152.109375</ele>
<time>2012-07-21T11:24:54Z</time>
<speed>5.420000</speed>
<extensions>
<speed>5.4</speed>
<temp>0.00</temp>
<bpm>0</bpm>
<rpm>0.00</rpm>
</extensions>
</trkpt>
<trkpt lat="64.118415833" lon="-19.900344849">
<ele>151.925781</ele>
<time>2012-07-21T11:24:59Z</time>
<speed>5.560000</speed>
<extensions>
<speed>5.6</speed>
<temp>0.00</temp>
<bpm>0</bpm>
<rpm>0.00</rpm>
</extensions>
</trkpt>
<trkpt lat="64.118515015" lon="-19.899829865">
<ele>152.214844</ele>
<time>2012-07-21T11:25:04Z</time>
<speed>5.570000</speed>
<extensions>
<speed>5.6</speed>
<temp>0.00</temp>
<bpm>0</bpm>
<rpm>0.00</rpm>
</extensions>
</trkpt>
<trkpt lat="64.118606567" lon="-19.899305344">
<ele>152.183594</ele>
<time>2012-07-21T11:25:09Z</time>
<speed>5.460000</speed>
<extensions>
<speed>5.5</speed>
<temp>0.00</temp>
<bpm>0</bpm>
<rpm>0.00</rpm>
</extensions>
</trkpt>
<trkpt lat="64.118698120" lon="-19.898794174">
<ele>152.109375</ele>
<time>2012-07-21T11:25:14Z</time>
<speed>5.480000</speed>
<extensions>
<speed>5.5</speed>
<temp>0.00</temp>
<bpm>0</bpm>
<rpm>0.00</rpm>
</extensions>
</trkpt>
<trkpt lat="64.118797302" lon="-19.898273468">
<ele>152.359375</ele>
<time>2012-07-21T11:25:19Z</time>
<speed>5.550000</speed>
<extensions>
<speed>5.5</speed>
<temp>0.00</temp>
<bpm>0</bpm>
<rpm>0.00</rpm>
</extensions>
</trkpt>
<trkpt lat="64.118904114" lon="-19.897739410">
<ele>152.550781</ele>
<time>2012-07-21T11:25:24Z</time>
<speed>5.510000</speed>
<extensions>
<speed>5.5</speed>
<temp>0.00</temp>
<bpm>0</bpm>
<rpm>0.00</rpm>
</extensions>
</trkpt>
<trkpt lat="64.119010925" lon="-19.897212982">
<ele>152.476563</ele>
<time>2012-07-21T11:25:29Z</time>
<speed>5.500000</speed>
<extensions>
<speed>5.5</speed>
<temp>0.00</temp>
<bpm>0</bpm>
<rpm>0.00</rpm>
</extensions>
</trkpt>
<trkpt lat="64.119094849" lon="-19.896694183">
<ele>152.175781</ele>
<time>2012-07-21T11:25:34Z</time>
<speed>5.340000</speed>
<extensions>
<speed>5.3</speed>
<temp>0.00</temp>
<bpm>0</bpm>
<rpm>0.00</rpm>
</extensions>
</trkpt>
<trkpt lat="64.119178772" lon="-19.896179199">
<ele>152.062500</ele>
<time>2012-07-21T11:25:39Z</time>
<speed>5.320000</speed>
<extensions>
<speed>5.3</speed>
<temp>0.00</temp>
<bpm>0</bpm>
<rpm>0.00</rpm>
</extensions>
</trkpt>
<trkpt lat="64.119270325" lon="-19.895671844">
<ele>152.535156</ele>
<time>2012-07-21T11:25:44Z</time>
<speed>5.500000</speed>
<extensions>
<speed>5.5</speed>
<temp>0.00</temp>
<bpm>0</bpm>
<rpm>0.00</rpm>
</extensions>
</trkpt>
<trkpt lat="64.119369507" lon="-19.895133972">
<ele>152.640625</ele>
<time>2012-07-21T11:25:49Z</time>
<speed>5.580000</speed>
<extensions>
<speed>5.6</speed>
<temp>0.00</temp>
<bpm>0</bpm>
<rpm>0.00</rpm>
</extensions>
</trkpt>
<trkpt lat="64.119468689" lon="-19.894607544">
<ele>152.359375</ele>
<time>2012-07-21T11:25:54Z</time>
<speed>5.660000</speed>
<extensions>
<speed>5.7</speed>
<temp>0.00</temp>
<bpm>0</bpm>
<rpm>0.00</rpm>
</extensions>
</trkpt>
<trkpt lat="64.119560242" lon="-19.894081116">
<ele>152.468750</ele>
<time>2012-07-21T11:25:59Z</time>
<speed>5.750000</speed>
<extensions>
<speed>5.8</speed>
<temp>0.00</temp>
<bpm>0</bpm>
<rpm>0.00</rpm>
</extensions>
</trkpt>
<trkpt lat="64.119659424" lon="-19.893537521">
<ele>152.468750</ele>
<time>2012-07-21T11:26:04Z</time>
<speed>5.870000</speed>
<extensions>
<speed>5.9</speed>
<temp>0.00</temp>
<bpm>0</bpm>
<rpm>0.00</rpm>
</extensions>
</trkpt>
<trkpt lat="64.119750977" lon="-19.893007278">
<ele>152.402344</ele>
<time>2012-07-21T11:26:09Z</time>
<speed>5.350000</speed>
<extensions>
<speed>5.4</speed>
<temp>0.00</temp>
<bpm>0</bpm>
<rpm>0.00</rpm>
</extensions>
</trkpt>
<trkpt lat="64.119842529" lon="-19.892511368">
<ele>152.761719</ele>
<time>2012-07-21T11:26:14Z</time>
<speed>5.340000</speed>
<extensions>
<speed>5.3</speed>
<temp>0.00</temp>
<bpm>0</bpm>
<rpm>0.00</rpm>
</extensions>
</trkpt>
<trkpt lat="64.119926453" lon="-19.892005920">
<ele>153.347656</ele>
<time>2012-07-21T11:26:19Z</time>
<speed>5.150000</speed>
<extensions>
<speed>5.2</speed>
<temp>0.00</temp>
<bpm>0</bpm>
<rpm>0.00</rpm>
</extensions>
</trkpt>
<trkpt lat="64.120025635" lon="-19.891517639">
<ele>153.777344</ele>
<time>2012-07-21T11:26:24Z</time>
<speed>5.190000</speed>
<extensions>
<speed>5.2</speed>
<temp>0.00</temp>
<bpm>0</bpm>
<rpm>0.00</rpm>
</extensions>
</trkpt>
<trkpt lat="64.120109558" lon="-19.891038895">
<ele>153.683594</ele>
<time>2012-07-21T11:26:29Z</time>
<speed>5.020000</speed>
<extensions>
<speed>5.0</speed>
<temp>0.00</temp>
<bpm>0</bpm>
<rpm>0.00</rpm>
</extensions>
</trkpt>
<trkpt lat="64.120193481" lon="-19.890554428">
<ele>153.753906</ele>
<time>2012-07-21T11:26:34Z</time>
<speed>5.170000</speed>
<extensions>
<speed>5.2</speed>
<temp>0.00</temp>
<bpm>0</bpm>
<rpm>0.00</rpm>
</extensions>
</trkpt>
<trkpt lat="64.120285034" lon="-19.890060425">
<ele>153.742188</ele>
<time>2012-07-21T11:26:39Z</time>
<speed>5.430000</speed>
<extensions>
<speed>5.4</speed>
<temp>0.00</temp>
<bpm>0</bpm>
<rpm>0.00</rpm>
</extensions>
</trkpt>
<trkpt lat="64.120376587" lon="-19.889539719">
<ele>153.675781</ele>
<time>2012-07-21T11:26:44Z</time>
<speed>5.510000</speed>
<extensions>
<speed>5.5</speed>
<temp>0.00</temp>
<bpm>0</bpm>
<rpm>0.00</rpm>
</extensions>
</trkpt>
<trkpt lat="64.120475769" lon="-19.889005661">
<ele>153.714844</ele>
<time>2012-07-21T11:26:49Z</time>
<speed>5.480000</speed>
<extensions>
<speed>5.5</speed>
<temp>0.00</temp>
<bpm>0</bpm>
<rpm>0.00</rpm>
</extensions>
</trkpt>
<trkpt lat="64.120567322" lon="-19.888490677">
<ele>153.609375</ele>
<time>2012-07-21T11:26:54Z</time>
<speed>5.550000</speed>
<extensions>
<speed>5.5</speed>
<temp>0.00</temp>
<bpm>0</bpm>
<rpm>0.00</rpm>
</extensions>
</trkpt>
<trkpt lat="64.120658875" lon="-19.887958527">
<ele>153.281250</ele>
<time>2012-07-21T11:26:59Z</time>
<speed>5.570000</speed>
<extensions>
<speed>5.6</speed>
<temp>0.00</temp>
<bpm>0</bpm>
<rpm>0.00</rpm>
</extensions>
</trkpt>
<trkpt lat="64.120750427" lon="-19.887441635">
<ele>153.093750</ele>
<time>2012-07-21T11:27:04Z</time>
<speed>5.330000</speed>
<extensions>
<speed>5.3</speed>
<temp>0.00</temp>
<bpm>0</bpm>
<rpm>0.00</rpm>
</extensions>
</trkpt>
<trkpt lat="64.120841980" lon="-19.886919022">
<ele>153.648438</ele>
<time>2012-07-21T11:27:09Z</time>
<speed>5.380000</speed>
<extensions>
<speed>5.4</speed>
<temp>0.00</temp>
<bpm>0</bpm>
<rpm>0.00</rpm>
</extensions>
</trkpt>
<trkpt lat="64.120918274" lon="-19.886413574">
<ele>153.843750</ele>
<time>2012-07-21T11:27:14Z</time>
<speed>5.220000</speed>
<extensions>
<speed>5.2</speed>
<temp>0.00</temp>
<bpm>0</bpm>
<rpm>0.00</rpm>
</extensions>
</trkpt>
<trkpt lat="64.120994568" lon="-19.885919571">
<ele>154.171875</ele>
<time>2012-07-21T11:27:19Z</time>
<speed>5.040000</speed>
<extensions>
<speed>5.0</speed>
<temp>0.00</temp>
<bpm>0</bpm>
<rpm>0.00</rpm>
</extensions>
</trkpt>
<trkpt lat="64.121070862" lon="-19.885438919">
<ele>154.425781</ele>
<time>2012-07-21T11:27:24Z</time>
<speed>4.770000</speed>
<extensions>
<speed>4.8</speed>
<temp>0.00</temp>
<bpm>0</bpm>
<rpm>0.00</rpm>
</extensions>
</trkpt>
<trkpt lat="64.121124268" lon="-19.884963989">
<ele>155.238281</ele>
<time>2012-07-21T11:27:29Z</time>
<speed>4.900000</speed>
<extensions>
<speed>4.9</speed>
<temp>0.00</temp>
<bpm>0</bpm>
<rpm>0.00</rpm>
</extensions>
</trkpt>
<trkpt lat="64.121200562" lon="-19.884469986">
<ele>155.347656</ele>
<time>2012-07-21T11:27:34Z</time>
<speed>4.910000</speed>
<extensions>
<speed>4.9</speed>
<temp>0.00</temp>
<bpm>0</bpm>
<rpm>0.00</rpm>
</extensions>
</trkpt>
<trkpt lat="64.121261597" lon="-19.883987427">
<ele>155.871094</ele>
<time>2012-07-21T11:27:39Z</time>
<speed>4.810000</speed>
<extensions>
<speed>4.8</speed>
<temp>0.00</temp>
<bpm>0</bpm>
<rpm>0.00</rpm>
</extensions>
</trkpt>
<trkpt lat="64.121299744" lon="-19.883502960">
<ele>155.843750</ele>
<time>2012-07-21T11:27:44Z</time>
<speed>4.890000</speed>
<extensions>
<speed>4.9</speed>
<temp>0.00</temp>
<bpm>0</bpm>
<rpm>0.00</rpm>
</extensions>
</trkpt>
<trkpt lat="64.121353149" lon="-19.883012772">
<ele>156.453125</ele>
<time>2012-07-21T11:27:49Z</time>
<speed>4.990000</speed>
<extensions>
<speed>5.0</speed>
<temp>0.00</temp>
<bpm>0</bpm>
<rpm>0.00</rpm>
</extensions>
</trkpt>
<trkpt lat="64.121398926" lon="-19.882520676">
<ele>155.785156</ele>
<time>2012-07-21T11:27:54Z</time>
<speed>4.960000</speed>
<extensions>
<speed>5.0</speed>
<temp>0.00</temp>
<bpm>0</bpm>
<rpm>0.00</rpm>
</extensions>
</trkpt>
<trkpt lat="64.121444702" lon="-19.882009506">
<ele>155.000000</ele>
<time>2012-07-21T11:27:59Z</time>
<speed>4.990000</speed>
<extensions>
<speed>5.0</speed>
<temp>0.00</temp>
<bpm>0</bpm>
<rpm>0.00</rpm>
</extensions>
</trkpt>
<trkpt lat="64.121482849" lon="-19.881484985">
<ele>155.214844</ele>
<time>2012-07-21T11:28:04Z</time>
<speed>5.370000</speed>
<extensions>
<speed>5.4</speed>
<temp>0.00</temp>
<bpm>0</bpm>
<rpm>0.00</rpm>
</extensions>
</trkpt>
<trkpt lat="64.121513367" lon="-19.880937576">
<ele>155.015625</ele>
<time>2012-07-21T11:28:09Z</time>
<speed>5.440000</speed>
<extensions>
<speed>5.4</speed>
<temp>0.00</temp>
<bpm>0</bpm>
<rpm>0.00</rpm>
</extensions>
</trkpt>
<trkpt lat="64.121551514" lon="-19.880380630">
<ele>154.050781</ele>
<time>2012-07-21T11:28:14Z</time>
<speed>5.460000</speed>
<extensions>
<speed>5.5</speed>
<temp>0.00</temp>
<bpm>0</bpm>
<rpm>0.00</rpm>
</extensions>
</trkpt>
<trkpt lat="64.121574402" lon="-19.879825592">
<ele>153.339844</ele>
<time>2012-07-21T11:28:19Z</time>
<speed>5.420000</speed>
<extensions>
<speed>5.4</speed>
<temp>0.00</temp>
<bpm>0</bpm>
<rpm>0.00</rpm>
</extensions>
</trkpt>
<trkpt lat="64.121597290" lon="-19.879274368">
<ele>153.437500</ele>
<time>2012-07-21T11:28:24Z</time>
<speed>5.500000</speed>
<extensions>
<speed>5.5</speed>
<temp>0.00</temp>
<bpm>0</bpm>
<rpm>0.00</rpm>
</extensions>
</trkpt>
<trkpt lat="64.121612549" lon="-19.878713608">
<ele>152.988281</ele>
<time>2012-07-21T11:28:29Z</time>
<speed>5.540000</speed>
<extensions>
<speed>5.5</speed>
<temp>0.00</temp>
<bpm>0</bpm>
<rpm>0.00</rpm>
</extensions>
</trkpt>
<trkpt lat="64.121627808" lon="-19.878145218">
<ele>152.625000</ele>
<time>2012-07-21T11:28:34Z</time>
<speed>5.850000</speed>
<extensions>
<speed>5.8</speed>
<temp>0.00</temp>
<bpm>0</bpm>
<rpm>0.00</rpm>
</extensions>
</trkpt>
<trkpt lat="64.121627808" lon="-19.877517700">
<ele>152.699219</ele>
<time>2012-07-21T11:28:39Z</time>
<speed>6.210000</speed>
<extensions>
<speed>6.2</speed>
<temp>0.00</temp>
<bpm>0</bpm>
<rpm>0.00</rpm>
</extensions>
</trkpt>
<trkpt lat="64.121620178" lon="-19.876871109">
<ele>152.628906</ele>
<time>2012-07-21T11:28:44Z</time>
<speed>6.200000</speed>
<extensions>
<speed>6.2</speed>
<temp>0.00</temp>
<bpm>0</bpm>
<rpm>0.00</rpm>
</extensions>
</trkpt>
<trkpt lat="64.121612549" lon="-19.876243591">
<ele>153.531250</ele>
<time>2012-07-21T11:28:49Z</time>
<speed>6.220000</speed>
<extensions>
<speed>6.2</speed>
<temp>0.00</temp>
<bpm>0</bpm>
<rpm>0.00</rpm>
</extensions>
</trkpt>
<trkpt lat="64.121597290" lon="-19.875604630">
<ele>153.035156</ele>
<time>2012-07-21T11:28:54Z</time>
<speed>6.090000</speed>
<extensions>
<speed>6.1</speed>
<temp>0.00</temp>
<bpm>0</bpm>
<rpm>0.00</rpm>
</extensions>
</trkpt>
<trkpt lat="64.121597290" lon="-19.875040054">
<ele>153.183594</ele>
<time>2012-07-21T11:28:59Z</time>
<speed>4.950000</speed>
<extensions>
<speed>4.9</speed>
<temp>0.00</temp>
<bpm>0</bpm>
<rpm>0.00</rpm>
</extensions>
</trkpt>
<trkpt lat="64.121582031" lon="-19.874551773">
<ele>153.980469</ele>
<time>2012-07-21T11:29:04Z</time>
<speed>4.530000</speed>
<extensions>
<speed>4.5</speed>
<temp>0.00</temp>
<bpm>0</bpm>
<rpm>0.00</rpm>
</extensions>
</trkpt>
<trkpt lat="64.121582031" lon="-19.874164581">
<ele>154.203125</ele>
<time>2012-07-21T11:29:09Z</time>
<speed>3.430000</speed>
<extensions>
<speed>3.4</speed>
<temp>0.00</temp>
<bpm>0</bpm>
<rpm>0.00</rpm>
</extensions>
</trkpt>
<trkpt lat="64.121574402" lon="-19.873809814">
<ele>153.757813</ele>
<time>2012-07-21T11:29:14Z</time>
<speed>3.410000</speed>
<extensions>
<speed>3.4</speed>
<temp>0.00</temp>
<bpm>0</bpm>
<rpm>0.00</rpm>
</extensions>
</trkpt>
<trkpt lat="64.121566772" lon="-19.873453140">
<ele>152.980469</ele>
<time>2012-07-21T11:29:19Z</time>
<speed>3.020000</speed>
<extensions>
<speed>3.0</speed>
<temp>0.00</temp>
<bpm>0</bpm>
<rpm>0.00</rpm>
</extensions>
</trkpt>
<trkpt lat="64.121559143" lon="-19.873168945">
<ele>152.750000</ele>
<time>2012-07-21T11:29:24Z</time>
<speed>2.950000</speed>
<extensions>
<speed>2.9</speed>
<temp>0.00</temp>
<bpm>0</bpm>
<rpm>0.00</rpm>
</extensions>
</trkpt>
<trkpt lat="64.121551514" lon="-19.872852325">
<ele>153.183594</ele>
<time>2012-07-21T11:29:29Z</time>
<speed>3.070000</speed>
<extensions>
<speed>3.1</speed>
<temp>0.00</temp>
<bpm>0</bpm>
<rpm>0.00</rpm>
</extensions>
</trkpt>
<trkpt lat="64.121551514" lon="-19.872533798">
<ele>152.613281</ele>
<time>2012-07-21T11:29:34Z</time>
<speed>3.090000</speed>
<extensions>
<speed>3.1</speed>
<temp>0.00</temp>
<bpm>0</bpm>
<rpm>0.00</rpm>
</extensions>
</trkpt>
<trkpt lat="64.121543884" lon="-19.872234344">
<ele>152.738281</ele>
<time>2012-07-21T11:29:39Z</time>
<speed>3.040000</speed>
<extensions>
<speed>3.0</speed>
<temp>0.00</temp>
<bpm>0</bpm>
<rpm>0.00</rpm>
</extensions>
</trkpt>
<trkpt lat="64.121536255" lon="-19.871988297">
<ele>152.968750</ele>
<time>2012-07-21T11:29:44Z</time>
<speed>2.250000</speed>
<extensions>
<speed>2.3</speed>
<temp>0.00</temp>
<bpm>0</bpm>
<rpm>0.00</rpm>
</extensions>
</trkpt>
<trkpt lat="64.121528625" lon="-19.871747971">
<ele>153.144531</ele>
<time>2012-07-21T11:29:49Z</time>
<speed>2.690000</speed>
<extensions>
<speed>2.7</speed>
<temp>0.00</temp>
<bpm>0</bpm>
<rpm>0.00</rpm>
</extensions>
</trkpt>
<trkpt lat="64.121520996" lon="-19.871442795">
<ele>153.187500</ele>
<time>2012-07-21T11:29:54Z</time>
<speed>3.370000</speed>
<extensions>
<speed>3.4</speed>
<temp>0.00</temp>
<bpm>0</bpm>
<rpm>0.00</rpm>
</extensions>
</trkpt>
<trkpt lat="64.121520996" lon="-19.871074677">
<ele>153.234375</ele>
<time>2012-07-21T11:29:59Z</time>
<speed>3.930000</speed>
<extensions>
<speed>3.9</speed>
<temp>0.00</temp>
<bpm>0</bpm>
<rpm>0.00</rpm>
</extensions>
</trkpt>
<trkpt lat="64.121513367" lon="-19.870656967">
<ele>153.617188</ele>
<time>2012-07-21T11:30:04Z</time>
<speed>4.300000</speed>
<extensions>
<speed>4.3</speed>
<temp>0.00</temp>
<bpm>0</bpm>
<rpm>0.00</rpm>
</extensions>
</trkpt>
<trkpt lat="64.121520996" lon="-19.870182037">
<ele>155.007813</ele>
<time>2012-07-21T11:30:09Z</time>
<speed>4.800000</speed>
<extensions>
<speed>4.8</speed>
<temp>0.00</temp>
<bpm>0</bpm>
<rpm>0.00</rpm>
</extensions>
</trkpt>
<trkpt lat="64.121520996" lon="-19.869676590">
<ele>154.609375</ele>
<time>2012-07-21T11:30:14Z</time>
<speed>5.100000</speed>
<extensions>
<speed>5.1</speed>
<temp>0.00</temp>
<bpm>0</bpm>
<rpm>0.00</rpm>
</extensions>
</trkpt>
<trkpt lat="64.121505737" lon="-19.869146347">
<ele>154.195313</ele>
<time>2012-07-21T11:30:19Z</time>
<speed>5.230000</speed>
<extensions>
<speed>5.2</speed>
<temp>0.00</temp>
<bpm>0</bpm>
<rpm>0.00</rpm>
</extensions>
</trkpt>
<trkpt lat="64.121505737" lon="-19.868616104">
<ele>154.441406</ele>
<time>2012-07-21T11:30:24Z</time>
<speed>5.150000</speed>
<extensions>
<speed>5.2</speed>
<temp>0.00</temp>
<bpm>0</bpm>
<rpm>0.00</rpm>
</extensions>
</trkpt>
<trkpt lat="64.121498108" lon="-19.868104935">
<ele>154.429688</ele>
<time>2012-07-21T11:30:29Z</time>
<speed>5.100000</speed>
<extensions>
<speed>5.1</speed>
<temp>0.00</temp>
<bpm>0</bpm>
<rpm>0.00</rpm>
</extensions>
</trkpt>
<trkpt lat="64.121482849" lon="-19.867588043">
<ele>154.648438</ele>
<time>2012-07-21T11:30:34Z</time>
<speed>4.960000</speed>
<extensions>
<speed>5.0</speed>
<temp>0.00</temp>
<bpm>0</bpm>
<rpm>0.00</rpm>
</extensions>
</trkpt>
<trkpt lat="64.121482849" lon="-19.867059708">
<ele>155.238281</ele>
<time>2012-07-21T11:30:39Z</time>
<speed>5.350000</speed>
<extensions>
<speed>5.4</speed>
<temp>0.00</temp>
<bpm>0</bpm>
<rpm>0.00</rpm>
</extensions>
</trkpt>
<trkpt lat="64.121475220" lon="-19.866529465">
<ele>155.179688</ele>
<time>2012-07-21T11:30:44Z</time>
<speed>5.070000</speed>
<extensions>
<speed>5.1</speed>
<temp>0.00</temp>
<bpm>0</bpm>
<rpm>0.00</rpm>
</extensions>
</trkpt>
<trkpt lat="64.121459961" lon="-19.866012573">
<ele>155.132813</ele>
<time>2012-07-21T11:30:49Z</time>
<speed>5.020000</speed>
<extensions>
<speed>5.0</speed>
<temp>0.00</temp>
<bpm>0</bpm>
<rpm>0.00</rpm>
</extensions>
</trkpt>
<trkpt lat="64.121452332" lon="-19.865497589">
<ele>154.437500</ele>
<time>2012-07-21T11:30:54Z</time>
<speed>5.060000</speed>
<extensions>
<speed>5.1</speed>
<temp>0.00</temp>
<bpm>0</bpm>
<rpm>0.00</rpm>
</extensions>
</trkpt>
<trkpt lat="64.121444702" lon="-19.865013123">
<ele>155.101563</ele>
<time>2012-07-21T11:30:59Z</time>
<speed>4.450000</speed>
<extensions>
<speed>4.5</speed>
<temp>0.00</temp>
<bpm>0</bpm>
<rpm>0.00</rpm>
</extensions>
</trkpt>
<trkpt lat="64.121444702" lon="-19.864557266">
<ele>158.359375</ele>
<time>2012-07-21T11:31:04Z</time>
<speed>4.490000</speed>
<extensions>
<speed>4.5</speed>
<temp>0.00</temp>
<bpm>0</bpm>
<rpm>0.00</rpm>
</extensions>
</trkpt>
<trkpt lat="64.121437073" lon="-19.864097595">
<ele>157.972656</ele>
<time>2012-07-21T11:31:09Z</time>
<speed>4.440000</speed>
<extensions>
<speed>4.4</speed>
<temp>0.00</temp>
<bpm>0</bpm>
<rpm>0.00</rpm>
</extensions>
</trkpt>
<trkpt lat="64.121429443" lon="-19.863624573">
<ele>157.406250</ele>
<time>2012-07-21T11:31:14Z</time>
<speed>4.690000</speed>
<extensions>
<speed>4.7</speed>
<temp>0.00</temp>
<bpm>0</bpm>
<rpm>0.00</rpm>
</extensions>
</trkpt>
<trkpt lat="64.121429443" lon="-19.863138199">
<ele>157.343750</ele>
<time>2012-07-21T11:31:19Z</time>
<speed>4.800000</speed>
<extensions>
<speed>4.8</speed>
<temp>0.00</temp>
<bpm>0</bpm>
<rpm>0.00</rpm>
</extensions>
</trkpt>
<trkpt lat="64.121421814" lon="-19.862646103">
<ele>157.714844</ele>
<time>2012-07-21T11:31:24Z</time>
<speed>4.750000</speed>
<extensions>
<speed>4.8</speed>
<temp>0.00</temp>
<bpm>0</bpm>
<rpm>0.00</rpm>
</extensions>
</trkpt>
<trkpt lat="64.121414185" lon="-19.862165451">
<ele>157.714844</ele>
<time>2012-07-21T11:31:29Z</time>
<speed>4.720000</speed>
<extensions>
<speed>4.7</speed>
<temp>0.00</temp>
<bpm>0</bpm>
<rpm>0.00</rpm>
</extensions>
</trkpt>
<trkpt lat="64.121414185" lon="-19.861621857">
<ele>157.203125</ele>
<time>2012-07-21T11:31:34Z</time>
<speed>5.810000</speed>
<extensions>
<speed>5.8</speed>
<temp>0.00</temp>
<bpm>0</bpm>
<rpm>0.00</rpm>
</extensions>
</trkpt>
<trkpt lat="64.121406555" lon="-19.860954285">
<ele>155.335938</ele>
<time>2012-07-21T11:31:39Z</time>
<speed>6.870000</speed>
<extensions>
<speed>6.9</speed>
<temp>0.00</temp>
<bpm>0</bpm>
<rpm>0.00</rpm>
</extensions>
</trkpt>
<trkpt lat="64.121398926" lon="-19.860239029">
<ele>154.062500</ele>
<time>2012-07-21T11:31:44Z</time>
<speed>6.880000</speed>
<extensions>
<speed>6.9</speed>
<temp>0.00</temp>
<bpm>0</bpm>
<rpm>0.00</rpm>
</extensions>
</trkpt>
<trkpt lat="64.121383667" lon="-19.859535217">
<ele>153.871094</ele>
<time>2012-07-21T11:31:49Z</time>
<speed>6.750000</speed>
<extensions>
<speed>6.7</speed>
<temp>0.00</temp>
<bpm>0</bpm>
<rpm>0.00</rpm>
</extensions>
</trkpt>
<trkpt lat="64.121376038" lon="-19.858850479">
<ele>153.753906</ele>
<time>2012-07-21T11:31:54Z</time>
<speed>6.350000</speed>
<extensions>
<speed>6.4</speed>
<temp>0.00</temp>
<bpm>0</bpm>
<rpm>0.00</rpm>
</extensions>
</trkpt>
<trkpt lat="64.121360779" lon="-19.858234406">
<ele>153.804688</ele>
<time>2012-07-21T11:31:59Z</time>
<speed>5.730000</speed>
<extensions>
<speed>5.7</speed>
<temp>0.00</temp>
<bpm>0</bpm>
<rpm>0.00</rpm>
</extensions>
</trkpt>
<trkpt lat="64.121353149" lon="-19.857631683">
<ele>153.398438</ele>
<time>2012-07-21T11:32:04Z</time>
<speed>5.920000</speed>
<extensions>
<speed>5.9</speed>
<temp>0.00</temp>
<bpm>0</bpm>
<rpm>0.00</rpm>
</extensions>
</trkpt>
<trkpt lat="64.121345520" lon="-19.857009888">
<ele>153.300781</ele>
<time>2012-07-21T11:32:09Z</time>
<speed>6.020000</speed>
<extensions>
<speed>6.0</speed>
<temp>0.00</temp>
<bpm>0</bpm>
<rpm>0.00</rpm>
</extensions>
</trkpt>
<trkpt lat="64.121337891" lon="-19.856397629">
<ele>153.468750</ele>
<time>2012-07-21T11:32:14Z</time>
<speed>5.920000</speed>
<extensions>
<speed>5.9</speed>
<temp>0.00</temp>
<bpm>0</bpm>
<rpm>0.00</rpm>
</extensions>
</trkpt>
<trkpt lat="64.121322632" lon="-19.855792999">
<ele>153.476563</ele>
<time>2012-07-21T11:32:19Z</time>
<speed>5.740000</speed>
<extensions>
<speed>5.7</speed>
<temp>0.00</temp>
<bpm>0</bpm>
<rpm>0.00</rpm>
</extensions>
</trkpt>
<trkpt lat="64.121315002" lon="-19.855234146">
<ele>154.050781</ele>
<time>2012-07-21T11:32:24Z</time>
<speed>5.440000</speed>
<extensions>
<speed>5.4</speed>
<temp>0.00</temp>
<bpm>0</bpm>
<rpm>0.00</rpm>
</extensions>
</trkpt>
<trkpt lat="64.121307373" lon="-19.854660034">
<ele>153.851563</ele>
<time>2012-07-21T11:32:29Z</time>
<speed>5.530000</speed>
<extensions>
<speed>5.5</speed>
<temp>0.00</temp>
<bpm>0</bpm>
<rpm>0.00</rpm>
</extensions>
</trkpt>
<trkpt lat="64.121299744" lon="-19.854108810">
<ele>153.843750</ele>
<time>2012-07-21T11:32:34Z</time>
<speed>5.210000</speed>
<extensions>
<speed>5.2</speed>
<temp>0.00</temp>
<bpm>0</bpm>
<rpm>0.00</rpm>
</extensions>
</trkpt>
<trkpt lat="64.121292114" lon="-19.853601456">
<ele>153.246094</ele>
<time>2012-07-21T11:32:39Z</time>
<speed>4.890000</speed>
<extensions>
<speed>4.9</speed>
<temp>0.00</temp>
<bpm>0</bpm>
<rpm>0.00</rpm>
</extensions>
</trkpt>
<trkpt lat="64.121284485" lon="-19.853103638">
<ele>152.867188</ele>
<time>2012-07-21T11:32:44Z</time>
<speed>4.710000</speed>
<extensions>
<speed>4.7</speed>
<temp>0.00</temp>
<bpm>0</bpm>
<rpm>0.00</rpm>
</extensions>
</trkpt>
<trkpt lat="64.121276855" lon="-19.852619171">
<ele>153.363281</ele>
<time>2012-07-21T11:32:49Z</time>
<speed>4.640000</speed>
<extensions>
<speed>4.6</speed>
<temp>0.00</temp>
<bpm>0</bpm>
<rpm>0.00</rpm>
</extensions>
</trkpt>
<trkpt lat="64.121261597" lon="-19.852151871">
<ele>152.726563</ele>
<time>2012-07-21T11:32:54Z</time>
<speed>4.700000</speed>
<extensions>
<speed>4.7</speed>
<temp>0.00</temp>
<bpm>0</bpm>
<rpm>0.00</rpm>
</extensions>
</trkpt>
<trkpt lat="64.121253967" lon="-19.851678848">
<ele>152.914063</ele>
<time>2012-07-21T11:32:59Z</time>
<speed>4.700000</speed>
<extensions>
<speed>4.7</speed>
<temp>0.00</temp>
<bpm>0</bpm>
<rpm>0.00</rpm>
</extensions>
</trkpt>
<trkpt lat="64.121231079" lon="-19.851207733">
<ele>152.996094</ele>
<time>2012-07-21T11:33:04Z</time>
<speed>4.660000</speed>
<extensions>
<speed>4.7</speed>
<temp>0.00</temp>
<bpm>0</bpm>
<rpm>0.00</rpm>
</extensions>
</trkpt>
<trkpt lat="64.121208191" lon="-19.850709915">
<ele>152.671875</ele>
<time>2012-07-21T11:33:09Z</time>
<speed>4.760000</speed>
<extensions>
<speed>4.8</speed>
<temp>0.00</temp>
<bpm>0</bpm>
<rpm>0.00</rpm>
</extensions>
</trkpt>
<trkpt lat="64.121177673" lon="-19.850240707">
<ele>152.531250</ele>
<time>2012-07-21T11:33:14Z</time>
<speed>4.610000</speed>
<extensions>
<speed>4.6</speed>
<temp>0.00</temp>
<bpm>0</bpm>
<rpm>0.00</rpm>
</extensions>
</trkpt>
<trkpt lat="64.121154785" lon="-19.849779129">
<ele>151.750000</ele>
<time>2012-07-21T11:33:19Z</time>
<speed>4.240000</speed>
<extensions>
<speed>4.2</speed>
<temp>0.00</temp>
<bpm>0</bpm>
<rpm>0.00</rpm>
</extensions>
</trkpt>
<trkpt lat="64.121131897" lon="-19.849359512">
<ele>151.582031</ele>
<time>2012-07-21T11:33:24Z</time>
<speed>4.170000</speed>
<extensions>
<speed>4.2</speed>
<temp>0.00</temp>
<bpm>0</bpm>
<rpm>0.00</rpm>
</extensions>
</trkpt>
<trkpt lat="64.121109009" lon="-19.848962784">
<ele>151.230469</ele>
<time>2012-07-21T11:33:29Z</time>
<speed>3.510000</speed>
<extensions>
<speed>3.5</speed>
<temp>0.00</temp>
<bpm>0</bpm>
<rpm>0.00</rpm>
</extensions>
</trkpt>
<trkpt lat="64.121086121" lon="-19.848590851">
<ele>151.308594</ele>
<time>2012-07-21T11:33:34Z</time>
<speed>3.690000</speed>
<extensions>
<speed>3.7</speed>
<temp>0.00</temp>
<bpm>0</bpm>
<rpm>0.00</rpm>
</extensions>
</trkpt>
<trkpt lat="64.121055603" lon="-19.848215103">
<ele>151.359375</ele>
<time>2012-07-21T11:33:39Z</time>
<speed>3.690000</speed>
<extensions>
<speed>3.7</speed>
<temp>0.00</temp>
<bpm>0</bpm>
<rpm>0.00</rpm>
</extensions>
</trkpt>
<trkpt lat="64.121032715" lon="-19.847829819">
<ele>150.765625</ele>
<time>2012-07-21T11:33:44Z</time>
<speed>3.730000</speed>
<extensions>
<speed>3.7</speed>
<temp>0.00</temp>
<bpm>0</bpm>
<rpm>0.00</rpm>
</extensions>
</trkpt>
<trkpt lat="64.120994568" lon="-19.847438812">
<ele>150.496094</ele>
<time>2012-07-21T11:33:49Z</time>
<speed>3.990000</speed>
<extensions>
<speed>4.0</speed>
<temp>0.00</temp>
<bpm>0</bpm>
<rpm>0.00</rpm>
</extensions>
</trkpt>
<trkpt lat="64.120971680" lon="-19.847028732">
<ele>149.871094</ele>
<time>2012-07-21T11:33:54Z</time>
<speed>4.010000</speed>
<extensions>
<speed>4.0</speed>
<temp>0.00</temp>
<bpm>0</bpm>
<rpm>0.00</rpm>
</extensions>
</trkpt>
<trkpt lat="64.120933533" lon="-19.846612930">
<ele>148.988281</ele>
<time>2012-07-21T11:33:59Z</time>
<speed>4.110000</speed>
<extensions>
<speed>4.1</speed>
<temp>0.00</temp>
<bpm>0</bpm>
<rpm>0.00</rpm>
</extensions>
</trkpt>
<trkpt lat="64.120895386" lon="-19.846216202">
<ele>149.105469</ele>
<time>2012-07-21T11:34:04Z</time>
<speed>4.050000</speed>
<extensions>
<speed>4.0</speed>
<temp>0.00</temp>
<bpm>0</bpm>
<rpm>0.00</rpm>
</extensions>
</trkpt>
<trkpt lat="64.120864868" lon="-19.845823288">
<ele>148.335938</ele>
<time>2012-07-21T11:34:09Z</time>
<speed>3.830000</speed>
<extensions>
<speed>3.8</speed>
<temp>0.00</temp>
<bpm>0</bpm>
<rpm>0.00</rpm>
</extensions>
</trkpt>
<trkpt lat="64.120826721" lon="-19.845445633">
<ele>148.019531</ele>
<time>2012-07-21T11:34:14Z</time>
<speed>3.760000</speed>
<extensions>
<speed>3.8</speed>
<temp>0.00</temp>
<bpm>0</bpm>
<rpm>0.00</rpm>
</extensions>
</trkpt>
<trkpt lat="64.120788574" lon="-19.845041275">
<ele>147.695313</ele>
<time>2012-07-21T11:34:19Z</time>
<speed>3.840000</speed>
<extensions>
<speed>3.8</speed>
<temp>0.00</temp>
<bpm>0</bpm>
<rpm>0.00</rpm>
</extensions>
</trkpt>
<trkpt lat="64.120750427" lon="-19.844646454">
<ele>147.210938</ele>
<time>2012-07-21T11:34:24Z</time>
<speed>3.810000</speed>
<extensions>
<speed>3.8</speed>
<temp>0.00</temp>
<bpm>0</bpm>
<rpm>0.00</rpm>
</extensions>
</trkpt>
<trkpt lat="64.120712280" lon="-19.844289780">
<ele>147.238281</ele>
<time>2012-07-21T11:34:29Z</time>
<speed>3.140000</speed>
<extensions>
<speed>3.1</speed>
<temp>0.00</temp>
<bpm>0</bpm>
<rpm>0.00</rpm>
</extensions>
</trkpt>
<trkpt lat="64.120689392" lon="-19.844100952">
<ele>147.437500</ele>
<time>2012-07-21T11:34:34Z</time>
<speed>1.380000</speed>
<extensions>
<speed>1.4</speed>
<temp>0.00</temp>
<bpm>0</bpm>
<rpm>0.00</rpm>
</extensions>
</trkpt>
<trkpt lat="64.120674133" lon="-19.843982697">
<ele>147.441406</ele>
<time>2012-07-21T11:34:39Z</time>
<speed>2.090000</speed>
<extensions>
<speed>2.1</speed>
<temp>0.00</temp>
<bpm>0</bpm>
<rpm>0.00</rpm>
</extensions>
</trkpt>
<trkpt lat="64.120658875" lon="-19.843692780">
<ele>147.542969</ele>
<time>2012-07-21T11:34:44Z</time>
<speed>3.380000</speed>
<extensions>
<speed>3.4</speed>
<temp>0.00</temp>
<bpm>0</bpm>
<rpm>0.00</rpm>
</extensions>
</trkpt>
<trkpt lat="64.120620728" lon="-19.843341827">
<ele>147.175781</ele>
<time>2012-07-21T11:34:49Z</time>
<speed>3.400000</speed>
<extensions>
<speed>3.4</speed>
<temp>0.00</temp>
<bpm>0</bpm>
<rpm>0.00</rpm>
</extensions>
</trkpt>
<trkpt lat="64.120605469" lon="-19.843065262">
<ele>147.500000</ele>
<time>2012-07-21T11:34:54Z</time>
<speed>2.450000</speed>
<extensions>
<speed>2.4</speed>
<temp>0.00</temp>
<bpm>0</bpm>
<rpm>0.00</rpm>
</extensions>
</trkpt>
<trkpt lat="64.120582581" lon="-19.842870712">
<ele>147.472656</ele>
<time>2012-07-21T11:34:59Z</time>
<speed>1.270000</speed>
<extensions>
<speed>1.3</speed>
<temp>0.00</temp>
<bpm>0</bpm>
<rpm>0.00</rpm>
</extensions>
</trkpt>
<trkpt lat="64.120582581" lon="-19.842863083">
<ele>147.679688</ele>
<time>2012-07-21T11:35:04Z</time>
<speed>0.010000</speed>
<extensions>
<speed>0.0</speed>
<temp>0.00</temp>
<bpm>0</bpm>
<rpm>0.00</rpm>
</extensions>
</trkpt>
<trkpt lat="64.120582581" lon="-19.842863083">
<ele>147.707031</ele>
<time>2012-07-21T11:35:09Z</time>
<speed>0.010000</speed>
<extensions>
<speed>0.0</speed>
<temp>0.00</temp>
<bpm>0</bpm>
<rpm>0.00</rpm>
</extensions>
</trkpt>
<trkpt lat="64.120582581" lon="-19.842863083">
<ele>147.734375</ele>
<time>2012-07-21T11:35:14Z</time>
<speed>0.020000</speed>
<extensions>
<speed>0.0</speed>
<temp>0.00</temp>
<bpm>0</bpm>
<rpm>0.00</rpm>
</extensions>
</trkpt>
<trkpt lat="64.120582581" lon="-19.842863083">
<ele>147.730469</ele>
<time>2012-07-21T11:35:19Z</time>
<speed>0.010000</speed>
<extensions>
<speed>0.0</speed>
<temp>0.00</temp>
<bpm>0</bpm>
<rpm>0.00</rpm>
</extensions>
</trkpt>
<trkpt lat="64.120582581" lon="-19.842863083">
<ele>147.722656</ele>
<time>2012-07-21T11:35:24Z</time>
<speed>0.010000</speed>
<extensions>
<speed>0.0</speed>
<temp>0.00</temp>
<bpm>0</bpm>
<rpm>0.00</rpm>
</extensions>
</trkpt>
<trkpt lat="64.120582581" lon="-19.842863083">
<ele>147.734375</ele>
<time>2012-07-21T11:35:29Z</time>
<extensions>
<speed>0.0</speed>
<temp>0.00</temp>
<bpm>0</bpm>
<rpm>0.00</rpm>
</extensions>
</trkpt>
<trkpt lat="64.120582581" lon="-19.842853546">
<ele>147.796875</ele>
<time>2012-07-21T11:35:34Z</time>
<speed>0.950000</speed>
<extensions>
<speed>1.0</speed>
<temp>0.00</temp>
<bpm>0</bpm>
<rpm>0.00</rpm>
</extensions>
</trkpt>
<trkpt lat="64.120567322" lon="-19.842823029">
<ele>148.406250</ele>
<time>2012-07-21T11:35:39Z</time>
<extensions>
<speed>0.0</speed>
<temp>0.00</temp>
<bpm>0</bpm>
<rpm>0.00</rpm>
</extensions>
</trkpt>
<trkpt lat="64.120567322" lon="-19.842784882">
<ele>148.589844</ele>
<time>2012-07-21T11:35:44Z</time>
<speed>1.470000</speed>
<extensions>
<speed>1.5</speed>
<temp>0.00</temp>
<bpm>0</bpm>
<rpm>0.00</rpm>
</extensions>
</trkpt>
<trkpt lat="64.120536804" lon="-19.842498779">
<ele>148.890625</ele>
<time>2012-07-21T11:35:49Z</time>
<speed>3.630000</speed>
<extensions>
<speed>3.6</speed>
<temp>0.00</temp>
<bpm>0</bpm>
<rpm>0.00</rpm>
</extensions>
</trkpt>
<trkpt lat="64.120498657" lon="-19.842109680">
<ele>148.714844</ele>
<time>2012-07-21T11:35:54Z</time>
<speed>4.040000</speed>
<extensions>
<speed>4.0</speed>
<temp>0.00</temp>
<bpm>0</bpm>
<rpm>0.00</rpm>
</extensions>
</trkpt>
<trkpt lat="64.120460510" lon="-19.841697693">
<ele>148.699219</ele>
<time>2012-07-21T11:35:59Z</time>
<speed>3.830000</speed>
<extensions>
<speed>3.8</speed>
<temp>0.00</temp>
<bpm>0</bpm>
<rpm>0.00</rpm>
</extensions>
</trkpt>
<trkpt lat="64.120422363" lon="-19.841323853">
<ele>148.808594</ele>
<time>2012-07-21T11:36:04Z</time>
<speed>3.640000</speed>
<extensions>
<speed>3.6</speed>
<temp>0.00</temp>
<bpm>0</bpm>
<rpm>0.00</rpm>
</extensions>
</trkpt>
<trkpt lat="64.120376587" lon="-19.840957642">
<ele>149.203125</ele>
<time>2012-07-21T11:36:09Z</time>
<speed>3.610000</speed>
<extensions>
<speed>3.6</speed>
<temp>0.00</temp>
<bpm>0</bpm>
<rpm>0.00</rpm>
</extensions>
</trkpt>
<trkpt lat="64.120338440" lon="-19.840585709">
<ele>149.289063</ele>
<time>2012-07-21T11:36:14Z</time>
<speed>3.870000</speed>
<extensions>
<speed>3.9</speed>
<temp>0.00</temp>
<bpm>0</bpm>
<rpm>0.00</rpm>
</extensions>
</trkpt>
<trkpt lat="64.120292664" lon="-19.840188980">
<ele>149.406250</ele>
<time>2012-07-21T11:36:19Z</time>
<speed>3.840000</speed>
<extensions>
<speed>3.8</speed>
<temp>0.00</temp>
<bpm>0</bpm>
<rpm>0.00</rpm>
</extensions>
</trkpt>
<trkpt lat="64.120239258" lon="-19.839841843">
<ele>149.179688</ele>
<time>2012-07-21T11:36:24Z</time>
<speed>3.130000</speed>
<extensions>
<speed>3.1</speed>
<temp>0.00</temp>
<bpm>0</bpm>
<rpm>0.00</rpm>
</extensions>
</trkpt>
<trkpt lat="64.120193481" lon="-19.839517593">
<ele>148.953125</ele>
<time>2012-07-21T11:36:29Z</time>
<speed>3.260000</speed>
<extensions>
<speed>3.3</speed>
<temp>0.00</temp>
<bpm>0</bpm>
<rpm>0.00</rpm>
</extensions>
</trkpt>
<trkpt lat="64.120147705" lon="-19.839231491">
<ele>149.074219</ele>
<time>2012-07-21T11:36:34Z</time>
<speed>2.900000</speed>
<extensions>
<speed>2.9</speed>
<temp>0.00</temp>
<bpm>0</bpm>
<rpm>0.00</rpm>
</extensions>
</trkpt>
<trkpt lat="64.120101929" lon="-19.838956833">
<ele>148.863281</ele>
<time>2012-07-21T11:36:39Z</time>
<speed>2.830000</speed>
<extensions>
<speed>2.8</speed>
<temp>0.00</temp>
<bpm>0</bpm>
<rpm>0.00</rpm>
</extensions>
</trkpt>
<trkpt lat="64.120056152" lon="-19.838661194">
<ele>148.648438</ele>
<time>2012-07-21T11:36:44Z</time>
<speed>2.910000</speed>
<extensions>
<speed>2.9</speed>
<temp>0.00</temp>
<bpm>0</bpm>
<rpm>0.00</rpm>
</extensions>
</trkpt>
<trkpt lat="64.120002747" lon="-19.838388443">
<ele>148.882813</ele>
<time>2012-07-21T11:36:49Z</time>
<speed>2.840000</speed>
<extensions>
<speed>2.8</speed>
<temp>0.00</temp>
<bpm>0</bpm>
<rpm>0.00</rpm>
</extensions>
</trkpt>
<trkpt lat="64.119964600" lon="-19.838123322">
<ele>148.886719</ele>
<time>2012-07-21T11:36:54Z</time>
<speed>2.850000</speed>
<extensions>
<speed>2.9</speed>
<temp>0.00</temp>
<bpm>0</bpm>
<rpm>0.00</rpm>
</extensions>
</trkpt>
<trkpt lat="64.119903564" lon="-19.837852478">
<ele>149.453125</ele>
<time>2012-07-21T11:36:59Z</time>
<speed>2.970000</speed>
<extensions>
<speed>3.0</speed>
<temp>0.00</temp>
<bpm>0</bpm>
<rpm>0.00</rpm>
</extensions>
</trkpt>
<trkpt lat="64.119850159" lon="-19.837572098">
<ele>149.882813</ele>
<time>2012-07-21T11:37:04Z</time>
<speed>3.110000</speed>
<extensions>
<speed>3.1</speed>
<temp>0.00</temp>
<bpm>0</bpm>
<rpm>0.00</rpm>
</extensions>
</trkpt>
<trkpt lat="64.119789124" lon="-19.837289810">
<ele>150.617188</ele>
<time>2012-07-21T11:37:09Z</time>
<speed>3.010000</speed>
<extensions>
<speed>3.0</speed>
<temp>0.00</temp>
<bpm>0</bpm>
<rpm>0.00</rpm>
</extensions>
</trkpt>
<trkpt lat="64.119735718" lon="-19.837007523">
<ele>151.031250</ele>
<time>2012-07-21T11:37:14Z</time>
<speed>3.150000</speed>
<extensions>
<speed>3.2</speed>
<temp>0.00</temp>
<bpm>0</bpm>
<rpm>0.00</rpm>
</extensions>
</trkpt>
<trkpt lat="64.119682312" lon="-19.836715698">
<ele>151.300781</ele>
<time>2012-07-21T11:37:19Z</time>
<speed>2.960000</speed>
<extensions>
<speed>3.0</speed>
<temp>0.00</temp>
<bpm>0</bpm>
<rpm>0.00</rpm>
</extensions>
</trkpt>
<trkpt lat="64.119636536" lon="-19.836429596">
<ele>151.515625</ele>
<time>2012-07-21T11:37:24Z</time>
<speed>2.910000</speed>
<extensions>
<speed>2.9</speed>
<temp>0.00</temp>
<bpm>0</bpm>
<rpm>0.00</rpm>
</extensions>
</trkpt>
<trkpt lat="64.119583130" lon="-19.836137772">
<ele>151.179688</ele>
<time>2012-07-21T11:37:29Z</time>
<speed>3.070000</speed>
<extensions>
<speed>3.1</speed>
<temp>0.00</temp>
<bpm>0</bpm>
<rpm>0.00</rpm>
</extensions>
</trkpt>
<trkpt lat="64.119529724" lon="-19.835866928">
<ele>151.671875</ele>
<time>2012-07-21T11:37:34Z</time>
<speed>2.910000</speed>
<extensions>
<speed>2.9</speed>
<temp>0.00</temp>
<bpm>0</bpm>
<rpm>0.00</rpm>
</extensions>
</trkpt>
<trkpt lat="64.119483948" lon="-19.835615158">
<ele>152.011719</ele>
<time>2012-07-21T11:37:39Z</time>
<speed>2.370000</speed>
<extensions>
<speed>2.4</speed>
<temp>0.00</temp>
<bpm>0</bpm>
<rpm>0.00</rpm>
</extensions>
</trkpt>
<trkpt lat="64.119445801" lon="-19.835405350">
<ele>152.195313</ele>
<time>2012-07-21T11:37:44Z</time>
<speed>2.220000</speed>
<extensions>
<speed>2.2</speed>
<temp>0.00</temp>
<bpm>0</bpm>
<rpm>0.00</rpm>
</extensions>
</trkpt>
<trkpt lat="64.119400024" lon="-19.835166931">
<ele>152.796875</ele>
<time>2012-07-21T11:37:49Z</time>
<speed>2.750000</speed>
<extensions>
<speed>2.7</speed>
<temp>0.00</temp>
<bpm>0</bpm>
<rpm>0.00</rpm>
</extensions>
</trkpt>
<trkpt lat="64.119354248" lon="-19.834896088">
<ele>153.152344</ele>
<time>2012-07-21T11:37:54Z</time>
<speed>2.870000</speed>
<extensions>
<speed>2.9</speed>
<temp>0.00</temp>
<bpm>0</bpm>
<rpm>0.00</rpm>
</extensions>
</trkpt>
<trkpt lat="64.119308472" lon="-19.834625244">
<ele>153.816406</ele>
<time>2012-07-21T11:37:59Z</time>
<speed>2.820000</speed>
<extensions>
<speed>2.8</speed>
<temp>0.00</temp>
<bpm>0</bpm>
<rpm>0.00</rpm>
</extensions>
</trkpt>
<trkpt lat="64.119255066" lon="-19.834346771">
<ele>154.292969</ele>
<time>2012-07-21T11:38:04Z</time>
<speed>2.870000</speed>
<extensions>
<speed>2.9</speed>
<temp>0.00</temp>
<bpm>0</bpm>
<rpm>0.00</rpm>
</extensions>
</trkpt>
<trkpt lat="64.119224548" lon="-19.834058762">
<ele>154.554688</ele>
<time>2012-07-21T11:38:09Z</time>
<speed>2.930000</speed>
<extensions>
<speed>2.9</speed>
<temp>0.00</temp>
<bpm>0</bpm>
<rpm>0.00</rpm>
</extensions>
</trkpt>
<trkpt lat="64.119194031" lon="-19.833766937">
<ele>154.664063</ele>
<time>2012-07-21T11:38:14Z</time>
<speed>2.860000</speed>
<extensions>
<speed>2.9</speed>
<temp>0.00</temp>
<bpm>0</bpm>
<rpm>0.00</rpm>
</extensions>
</trkpt>
<trkpt lat="64.119163513" lon="-19.833488464">
<ele>154.609375</ele>
<time>2012-07-21T11:38:19Z</time>
<speed>2.790000</speed>
<extensions>
<speed>2.8</speed>
<temp>0.00</temp>
<bpm>0</bpm>
<rpm>0.00</rpm>
</extensions>
</trkpt>
<trkpt lat="64.119148254" lon="-19.833206177">
<ele>154.601563</ele>
<time>2012-07-21T11:38:24Z</time>
<speed>2.790000</speed>
<extensions>
<speed>2.8</speed>
<temp>0.00</temp>
<bpm>0</bpm>
<rpm>0.00</rpm>
</extensions>
</trkpt>
<trkpt lat="64.119117737" lon="-19.832918167">
<ele>154.816406</ele>
<time>2012-07-21T11:38:29Z</time>
<speed>2.840000</speed>
<extensions>
<speed>2.8</speed>
<temp>0.00</temp>
<bpm>0</bpm>
<rpm>0.00</rpm>
</extensions>
</trkpt>
<trkpt lat="64.119110107" lon="-19.832624435">
<ele>154.691406</ele>
<time>2012-07-21T11:38:34Z</time>
<speed>2.600000</speed>
<extensions>
<speed>2.6</speed>
<temp>0.00</temp>
<bpm>0</bpm>
<rpm>0.00</rpm>
</extensions>
</trkpt>
<trkpt lat="64.119102478" lon="-19.832332611">
<ele>154.500000</ele>
<time>2012-07-21T11:38:39Z</time>
<speed>2.920000</speed>
<extensions>
<speed>2.9</speed>
<temp>0.00</temp>
<bpm>0</bpm>
<rpm>0.00</rpm>
</extensions>
</trkpt>
<trkpt lat="64.119094849" lon="-19.832036972">
<ele>154.589844</ele>
<time>2012-07-21T11:38:44Z</time>
<speed>2.760000</speed>
<extensions>
<speed>2.8</speed>
<temp>0.00</temp>
<bpm>0</bpm>
<rpm>0.00</rpm>
</extensions>
</trkpt>
<trkpt lat="64.119087219" lon="-19.831806183">
<ele>154.425781</ele>
<time>2012-07-21T11:38:49Z</time>
<speed>1.810000</speed>
<extensions>
<speed>1.8</speed>
<temp>0.00</temp>
<bpm>0</bpm>
<rpm>0.00</rpm>
</extensions>
</trkpt>
<trkpt lat="64.119079590" lon="-19.831712723">
<ele>154.550781</ele>
<time>2012-07-21T11:38:54Z</time>
<speed>0.010000</speed>
<extensions>
<speed>0.0</speed>
<temp>0.00</temp>
<bpm>0</bpm>
<rpm>0.00</rpm>
</extensions>
</trkpt>
<trkpt lat="64.119079590" lon="-19.831714630">
<ele>154.703125</ele>
<time>2012-07-21T11:38:59Z</time>
<extensions>
<speed>0.0</speed>
<temp>0.00</temp>
<bpm>0</bpm>
<rpm>0.00</rpm>
</extensions>
</trkpt>
<trkpt lat="64.119079590" lon="-19.831714630">
<ele>154.707031</ele>
<time>2012-07-21T11:39:04Z</time>
<speed>0.040000</speed>
<extensions>
<speed>0.0</speed>
<temp>0.00</temp>
<bpm>0</bpm>
<rpm>0.00</rpm>
</extensions>
</trkpt>
<trkpt lat="64.119071960" lon="-19.831712723">
<ele>154.667969</ele>
<time>2012-07-21T11:39:09Z</time>
<speed>0.120000</speed>
<extensions>
<speed>0.1</speed>
<temp>0.00</temp>
<bpm>0</bpm>
<rpm>0.00</rpm>
</extensions>
</trkpt>
<trkpt lat="64.119071960" lon="-19.831710815">
<ele>154.652344</ele>
<time>2012-07-21T11:39:14Z</time>
<extensions>
<speed>0.0</speed>
<temp>0.00</temp>
<bpm>0</bpm>
<rpm>0.00</rpm>
</extensions>
</trkpt>
<trkpt lat="64.119071960" lon="-19.831708908">
<ele>154.636719</ele>
<time>2012-07-21T11:39:19Z</time>
<speed>0.110000</speed>
<extensions>
<speed>0.1</speed>
<temp>0.00</temp>
<bpm>0</bpm>
<rpm>0.00</rpm>
</extensions>
</trkpt>
<trkpt lat="64.119071960" lon="-19.831703186">
<ele>154.660156</ele>
<time>2012-07-21T11:39:24Z</time>
<speed>0.010000</speed>
<extensions>
<speed>0.0</speed>
<temp>0.00</temp>
<bpm>0</bpm>
<rpm>0.00</rpm>
</extensions>
</trkpt>
<trkpt lat="64.119071960" lon="-19.831703186">
<ele>154.636719</ele>
<time>2012-07-21T11:39:29Z</time>
<speed>0.010000</speed>
<extensions>
<speed>0.0</speed>
<temp>0.00</temp>
<bpm>0</bpm>
<rpm>0.00</rpm>
</extensions>
</trkpt>
<trkpt lat="64.119071960" lon="-19.831686020">
<ele>154.597656</ele>
<time>2012-07-21T11:39:34Z</time>
<speed>0.050000</speed>
<extensions>
<speed>0.1</speed>
<temp>0.00</temp>
<bpm>0</bpm>
<rpm>0.00</rpm>
</extensions>
</trkpt>
<trkpt lat="64.119071960" lon="-19.831687927">
<ele>154.531250</ele>
<time>2012-07-21T11:39:39Z</time>
<speed>0.010000</speed>
<extensions>
<speed>0.0</speed>
<temp>0.00</temp>
<bpm>0</bpm>
<rpm>0.00</rpm>
</extensions>
</trkpt>
<trkpt lat="64.119071960" lon="-19.831687927">
<ele>154.511719</ele>
<time>2012-07-21T11:39:44Z</time>
<extensions>
<speed>0.0</speed>
<temp>0.00</temp>
<bpm>0</bpm>
<rpm>0.00</rpm>
</extensions>
</trkpt>
<trkpt lat="64.119071960" lon="-19.831687927">
<ele>154.515625</ele>
<time>2012-07-21T11:39:49Z</time>
<speed>0.040000</speed>
<extensions>
<speed>0.0</speed>
<temp>0.00</temp>
<bpm>0</bpm>
<rpm>0.00</rpm>
</extensions>
</trkpt>
<trkpt lat="64.119071960" lon="-19.831687927">
<ele>154.535156</ele>
<time>2012-07-21T11:39:54Z</time>
<speed>0.010000</speed>
<extensions>
<speed>0.0</speed>
<temp>0.00</temp>
<bpm>0</bpm>
<rpm>0.00</rpm>
</extensions>
</trkpt>
<trkpt lat="64.119071960" lon="-19.831687927">
<ele>154.535156</ele>
<time>2012-07-21T11:39:59Z</time>
<extensions>
<speed>0.0</speed>
<temp>0.00</temp>
<bpm>0</bpm>
<rpm>0.00</rpm>
</extensions>
</trkpt>
<trkpt lat="64.119071960" lon="-19.831687927">
<ele>154.542969</ele>
<time>2012-07-21T11:40:04Z</time>
<speed>0.040000</speed>
<extensions>
<speed>0.0</speed>
<temp>0.00</temp>
<bpm>0</bpm>
<rpm>0.00</rpm>
</extensions>
</trkpt>
<trkpt lat="64.119064331" lon="-19.831682205">
<ele>154.460938</ele>
<time>2012-07-21T11:40:09Z</time>
<speed>0.060000</speed>
<extensions>
<speed>0.1</speed>
<temp>0.00</temp>
<bpm>0</bpm>
<rpm>0.00</rpm>
</extensions>
</trkpt>
<trkpt lat="64.119064331" lon="-19.831674576">
<ele>154.437500</ele>
<time>2012-07-21T11:40:14Z</time>
<speed>0.030000</speed>
<extensions>
<speed>0.0</speed>
<temp>0.00</temp>
<bpm>0</bpm>
<rpm>0.00</rpm>
</extensions>
</trkpt>
<trkpt lat="64.119064331" lon="-19.831674576">
<ele>154.441406</ele>
<time>2012-07-21T11:40:19Z</time>
<speed>0.110000</speed>
<extensions>
<speed>0.1</speed>
<temp>0.00</temp>
<bpm>0</bpm>
<rpm>0.00</rpm>
</extensions>
</trkpt>
<trkpt lat="64.119064331" lon="-19.831670761">
<ele>154.425781</ele>
<time>2012-07-21T11:40:24Z</time>
<speed>0.050000</speed>
<extensions>
<speed>0.1</speed>
<temp>0.00</temp>
<bpm>0</bpm>
<rpm>0.00</rpm>
</extensions>
</trkpt>
<trkpt lat="64.119064331" lon="-19.831670761">
<ele>154.464844</ele>
<time>2012-07-21T11:40:29Z</time>
<extensions>
<speed>0.0</speed>
<temp>0.00</temp>
<bpm>0</bpm>
<rpm>0.00</rpm>
</extensions>
</trkpt>
<trkpt lat="64.119064331" lon="-19.831649780">
<ele>154.542969</ele>
<time>2012-07-21T11:40:34Z</time>
<speed>0.010000</speed>
<extensions>
<speed>0.0</speed>
<temp>0.00</temp>
<bpm>0</bpm>
<rpm>0.00</rpm>
</extensions>
</trkpt>
<trkpt lat="64.119064331" lon="-19.831649780">
<ele>154.566406</ele>
<time>2012-07-21T11:40:39Z</time>
<speed>0.020000</speed>
<extensions>
<speed>0.0</speed>
<temp>0.00</temp>
<bpm>0</bpm>
<rpm>0.00</rpm>
</extensions>
</trkpt>
<trkpt lat="64.119041443" lon="-19.831613541">
<ele>154.386719</ele>
<time>2012-07-21T11:40:44Z</time>
<speed>2.020000</speed>
<extensions>
<speed>2.0</speed>
<temp>0.00</temp>
<bpm>0</bpm>
<rpm>0.00</rpm>
</extensions>
</trkpt>
<trkpt lat="64.118919373" lon="-19.831436157">
<ele>154.152344</ele>
<time>2012-07-21T11:40:49Z</time>
<speed>3.800000</speed>
<extensions>
<speed>3.8</speed>
<temp>0.00</temp>
<bpm>0</bpm>
<rpm>0.00</rpm>
</extensions>
</trkpt>
<trkpt lat="64.118759155" lon="-19.831220627">
<ele>153.953125</ele>
<time>2012-07-21T11:40:54Z</time>
<speed>4.200000</speed>
<extensions>
<speed>4.2</speed>
<temp>0.00</temp>
<bpm>0</bpm>
<rpm>0.00</rpm>
</extensions>
</trkpt>
<trkpt lat="64.118598938" lon="-19.830966949">
<ele>154.160156</ele>
<time>2012-07-21T11:40:59Z</time>
<speed>4.310000</speed>
<extensions>
<speed>4.3</speed>
<temp>0.00</temp>
<bpm>0</bpm>
<rpm>0.00</rpm>
</extensions>
</trkpt>
<trkpt lat="64.118446350" lon="-19.830690384">
<ele>154.238281</ele>
<time>2012-07-21T11:41:04Z</time>
<speed>4.340000</speed>
<extensions>
<speed>4.3</speed>
<temp>0.00</temp>
<bpm>0</bpm>
<rpm>0.00</rpm>
</extensions>
</trkpt>
<trkpt lat="64.118301392" lon="-19.830369949">
<ele>154.164063</ele>
<time>2012-07-21T11:41:09Z</time>
<speed>4.050000</speed>
<extensions>
<speed>4.0</speed>
<temp>0.00</temp>
<bpm>0</bpm>
<rpm>0.00</rpm>
</extensions>
</trkpt>
<trkpt lat="64.118171692" lon="-19.830112457">
<ele>154.082031</ele>
<time>2012-07-21T11:41:14Z</time>
<speed>4.070000</speed>
<extensions>
<speed>4.1</speed>
<temp>0.00</temp>
<bpm>0</bpm>
<rpm>0.00</rpm>
</extensions>
</trkpt>
<trkpt lat="64.118026733" lon="-19.829853058">
<ele>154.308594</ele>
<time>2012-07-21T11:41:19Z</time>
<speed>4.190000</speed>
<extensions>
<speed>4.2</speed>
<temp>0.00</temp>
<bpm>0</bpm>
<rpm>0.00</rpm>
</extensions>
</trkpt>
<trkpt lat="64.117866516" lon="-19.829610825">
<ele>154.714844</ele>
<time>2012-07-21T11:41:24Z</time>
<speed>4.190000</speed>
<extensions>
<speed>4.2</speed>
<temp>0.00</temp>
<bpm>0</bpm>
<rpm>0.00</rpm>
</extensions>
</trkpt>
<trkpt lat="64.117691040" lon="-19.829425812">
<ele>154.613281</ele>
<time>2012-07-21T11:41:29Z</time>
<speed>4.140000</speed>
<extensions>
<speed>4.1</speed>
<temp>0.00</temp>
<bpm>0</bpm>
<rpm>0.00</rpm>
</extensions>
</trkpt>
<trkpt lat="64.117515564" lon="-19.829271317">
<ele>153.500000</ele>
<time>2012-07-21T11:41:34Z</time>
<speed>4.360000</speed>
<extensions>
<speed>4.4</speed>
<temp>0.00</temp>
<bpm>0</bpm>
<rpm>0.00</rpm>
</extensions>
</trkpt>
<trkpt lat="64.117317200" lon="-19.829130173">
<ele>152.210938</ele>
<time>2012-07-21T11:41:39Z</time>
<speed>4.830000</speed>
<extensions>
<speed>4.8</speed>
<temp>0.00</temp>
<bpm>0</bpm>
<rpm>0.00</rpm>
</extensions>
</trkpt>
<trkpt lat="64.117088318" lon="-19.829032898">
<ele>150.722656</ele>
<time>2012-07-21T11:41:44Z</time>
<speed>5.420000</speed>
<extensions>
<speed>5.4</speed>
<temp>0.00</temp>
<bpm>0</bpm>
<rpm>0.00</rpm>
</extensions>
</trkpt>
<trkpt lat="64.116836548" lon="-19.828979492">
<ele>149.054688</ele>
<time>2012-07-21T11:41:49Z</time>
<speed>6.040000</speed>
<extensions>
<speed>6.0</speed>
<temp>0.00</temp>
<bpm>0</bpm>
<rpm>0.00</rpm>
</extensions>
</trkpt>
<trkpt lat="64.116546631" lon="-19.828985214">
<ele>147.160156</ele>
<time>2012-07-21T11:41:54Z</time>
<speed>6.710000</speed>
<extensions>
<speed>6.7</speed>
<temp>0.00</temp>
<bpm>0</bpm>
<rpm>0.00</rpm>
</extensions>
</trkpt>
<trkpt lat="64.116249084" lon="-19.829107285">
<ele>145.632813</ele>
<time>2012-07-21T11:41:59Z</time>
<speed>6.420000</speed>
<extensions>
<speed>6.4</speed>
<temp>0.00</temp>
<bpm>0</bpm>
<rpm>0.00</rpm>
</extensions>
</trkpt>
<trkpt lat="64.115974426" lon="-19.829252243">
<ele>144.589844</ele>
<time>2012-07-21T11:42:04Z</time>
<speed>5.790000</speed>
<extensions>
<speed>5.8</speed>
<temp>0.00</temp>
<bpm>0</bpm>
<rpm>0.00</rpm>
</extensions>
</trkpt>
<trkpt lat="64.115814209" lon="-19.829025269">
<ele>143.695313</ele>
<time>2012-07-21T11:42:09Z</time>
<speed>3.820000</speed>
<extensions>
<speed>3.8</speed>
<temp>0.00</temp>
<bpm>0</bpm>
<rpm>0.00</rpm>
</extensions>
</trkpt>
<trkpt lat="64.115760803" lon="-19.828765869">
<ele>143.406250</ele>
<time>2012-07-21T11:42:14Z</time>
<speed>1.820000</speed>
<extensions>
<speed>1.8</speed>
<temp>0.00</temp>
<bpm>0</bpm>
<rpm>0.00</rpm>
</extensions>
</trkpt>
<trkpt lat="64.115753174" lon="-19.828649521">
<ele>143.378906</ele>
<time>2012-07-21T11:42:19Z</time>
<speed>0.740000</speed>
<extensions>
<speed>0.7</speed>
<temp>0.00</temp>
<bpm>0</bpm>
<rpm>0.00</rpm>
</extensions>
</trkpt>
<trkpt lat="64.115745544" lon="-19.828603745">
<ele>143.367188</ele>
<time>2012-07-21T11:42:24Z</time>
<speed>1.100000</speed>
<extensions>
<speed>1.1</speed>
<temp>0.00</temp>
<bpm>0</bpm>
<rpm>0.00</rpm>
</extensions>
</trkpt>
<trkpt lat="64.115745544" lon="-19.828456879">
<ele>143.136719</ele>
<time>2012-07-21T11:42:29Z</time>
<speed>2.360000</speed>
<extensions>
<speed>2.4</speed>
<temp>0.00</temp>
<bpm>0</bpm>
<rpm>0.00</rpm>
</extensions>
</trkpt>
<trkpt lat="64.115722656" lon="-19.828208923">
<ele>143.253906</ele>
<time>2012-07-21T11:42:34Z</time>
<speed>2.980000</speed>
<extensions>
<speed>3.0</speed>
<temp>0.00</temp>
<bpm>0</bpm>
<rpm>0.00</rpm>
</extensions>
</trkpt>
<trkpt lat="64.115699768" lon="-19.827854156">
<ele>141.777344</ele>
<time>2012-07-21T11:42:39Z</time>
<speed>3.710000</speed>
<extensions>
<speed>3.7</speed>
<temp>0.00</temp>
<bpm>0</bpm>
<rpm>0.00</rpm>
</extensions>
</trkpt>
<trkpt lat="64.115661621" lon="-19.827472687">
<ele>141.179688</ele>
<time>2012-07-21T11:42:44Z</time>
<speed>3.830000</speed>
<extensions>
<speed>3.8</speed>
<temp>0.00</temp>
<bpm>0</bpm>
<rpm>0.00</rpm>
</extensions>
</trkpt>
<trkpt lat="64.115631104" lon="-19.827091217">
<ele>141.242188</ele>
<time>2012-07-21T11:42:49Z</time>
<speed>3.550000</speed>
<extensions>
<speed>3.5</speed>
<temp>0.00</temp>
<bpm>0</bpm>
<rpm>0.00</rpm>
</extensions>
</trkpt>
<trkpt lat="64.115600586" lon="-19.826757431">
<ele>142.425781</ele>
<time>2012-07-21T11:42:54Z</time>
<speed>3.560000</speed>
<extensions>
<speed>3.6</speed>
<temp>0.00</temp>
<bpm>0</bpm>
<rpm>0.00</rpm>
</extensions>
</trkpt>
<trkpt lat="64.115554810" lon="-19.826404572">
<ele>142.527344</ele>
<time>2012-07-21T11:42:59Z</time>
<speed>3.500000</speed>
<extensions>
<speed>3.5</speed>
<temp>0.00</temp>
<bpm>0</bpm>
<rpm>0.00</rpm>
</extensions>
</trkpt>
<trkpt lat="64.115493774" lon="-19.826057434">
<ele>142.085938</ele>
<time>2012-07-21T11:43:04Z</time>
<speed>3.700000</speed>
<extensions>
<speed>3.7</speed>
<temp>0.00</temp>
<bpm>0</bpm>
<rpm>0.00</rpm>
</extensions>
</trkpt>
<trkpt lat="64.115440369" lon="-19.825702667">
<ele>141.957031</ele>
<time>2012-07-21T11:43:09Z</time>
<speed>3.510000</speed>
<extensions>
<speed>3.5</speed>
<temp>0.00</temp>
<bpm>0</bpm>
<rpm>0.00</rpm>
</extensions>
</trkpt>
<trkpt lat="64.115440369" lon="-19.825334549">
<ele>141.945313</ele>
<time>2012-07-21T11:43:14Z</time>
<speed>4.030000</speed>
<extensions>
<speed>4.0</speed>
<temp>0.00</temp>
<bpm>0</bpm>
<rpm>0.00</rpm>
</extensions>
</trkpt>
<trkpt lat="64.115493774" lon="-19.824892044">
<ele>141.546875</ele>
<time>2012-07-21T11:43:19Z</time>
<speed>4.510000</speed>
<extensions>
<speed>4.5</speed>
<temp>0.00</temp>
<bpm>0</bpm>
<rpm>0.00</rpm>
</extensions>
</trkpt>
<trkpt lat="64.115592957" lon="-19.824472427">
<ele>141.332031</ele>
<time>2012-07-21T11:43:24Z</time>
<speed>4.810000</speed>
<extensions>
<speed>4.8</speed>
<temp>0.00</temp>
<bpm>0</bpm>
<rpm>0.00</rpm>
</extensions>
</trkpt>
<trkpt lat="64.115730286" lon="-19.824096680">
<ele>140.921875</ele>
<time>2012-07-21T11:43:29Z</time>
<speed>4.620000</speed>
<extensions>
<speed>4.6</speed>
<temp>0.00</temp>
<bpm>0</bpm>
<rpm>0.00</rpm>
</extensions>
</trkpt>
<trkpt lat="64.115875244" lon="-19.823877335">
<ele>141.734375</ele>
<time>2012-07-21T11:43:34Z</time>
<speed>2.870000</speed>
<extensions>
<speed>2.9</speed>
<temp>0.00</temp>
<bpm>0</bpm>
<rpm>0.00</rpm>
</extensions>
</trkpt>
<trkpt lat="64.115974426" lon="-19.823778152">
<ele>142.035156</ele>
<time>2012-07-21T11:43:39Z</time>
<speed>2.970000</speed>
<extensions>
<speed>3.0</speed>
<temp>0.00</temp>
<bpm>0</bpm>
<rpm>0.00</rpm>
</extensions>
</trkpt>
<trkpt lat="64.116111755" lon="-19.823680878">
<ele>142.203125</ele>
<time>2012-07-21T11:43:44Z</time>
<speed>3.060000</speed>
<extensions>
<speed>3.1</speed>
<temp>0.00</temp>
<bpm>0</bpm>
<rpm>0.00</rpm>
</extensions>
</trkpt>
<trkpt lat="64.116249084" lon="-19.823598862">
<ele>142.792969</ele>
<time>2012-07-21T11:43:49Z</time>
<speed>3.310000</speed>
<extensions>
<speed>3.3</speed>
<temp>0.00</temp>
<bpm>0</bpm>
<rpm>0.00</rpm>
</extensions>
</trkpt>
<trkpt lat="64.116401672" lon="-19.823545456">
<ele>143.027344</ele>
<time>2012-07-21T11:43:54Z</time>
<speed>3.040000</speed>
<extensions>
<speed>3.0</speed>
<temp>0.00</temp>
<bpm>0</bpm>
<rpm>0.00</rpm>
</extensions>
</trkpt>
<trkpt lat="64.116523743" lon="-19.823486328">
<ele>143.605469</ele>
<time>2012-07-21T11:43:59Z</time>
<speed>2.780000</speed>
<extensions>
<speed>2.8</speed>
<temp>0.00</temp>
<bpm>0</bpm>
<rpm>0.00</rpm>
</extensions>
</trkpt>
<trkpt lat="64.116638184" lon="-19.823432922">
<ele>144.238281</ele>
<time>2012-07-21T11:44:04Z</time>
<speed>2.620000</speed>
<extensions>
<speed>2.6</speed>
<temp>0.00</temp>
<bpm>0</bpm>
<rpm>0.00</rpm>
</extensions>
</trkpt>
<trkpt lat="64.116729736" lon="-19.823400497">
<ele>144.921875</ele>
<time>2012-07-21T11:44:09Z</time>
<speed>1.840000</speed>
<extensions>
<speed>1.8</speed>
<temp>0.00</temp>
<bpm>0</bpm>
<rpm>0.00</rpm>
</extensions>
</trkpt>
<trkpt lat="64.116798401" lon="-19.823396683">
<ele>145.265625</ele>
<time>2012-07-21T11:44:14Z</time>
<speed>2.010000</speed>
<extensions>
<speed>2.0</speed>
<temp>0.00</temp>
<bpm>0</bpm>
<rpm>0.00</rpm>
</extensions>
</trkpt>
<trkpt lat="64.116874695" lon="-19.823347092">
<ele>145.750000</ele>
<time>2012-07-21T11:44:19Z</time>
<speed>1.850000</speed>
<extensions>
<speed>1.8</speed>
<temp>0.00</temp>
<bpm>0</bpm>
<rpm>0.00</rpm>
</extensions>
</trkpt>
<trkpt lat="64.116966248" lon="-19.823328018">
<ele>146.207031</ele>
<time>2012-07-21T11:44:24Z</time>
<speed>2.260000</speed>
<extensions>
<speed>2.3</speed>
<temp>0.00</temp>
<bpm>0</bpm>
<rpm>0.00</rpm>
</extensions>
</trkpt>
<trkpt lat="64.117065430" lon="-19.823308945">
<ele>146.875000</ele>
<time>2012-07-21T11:44:29Z</time>
<speed>2.370000</speed>
<extensions>
<speed>2.4</speed>
<temp>0.00</temp>
<bpm>0</bpm>
<rpm>0.00</rpm>
</extensions>
</trkpt>
<trkpt lat="64.117172241" lon="-19.823270798">
<ele>147.500000</ele>
<time>2012-07-21T11:44:34Z</time>
<speed>2.340000</speed>
<extensions>
<speed>2.3</speed>
<temp>0.00</temp>
<bpm>0</bpm>
<rpm>0.00</rpm>
</extensions>
</trkpt>
<trkpt lat="64.117301941" lon="-19.823217392">
<ele>147.710938</ele>
<time>2012-07-21T11:44:39Z</time>
<speed>3.050000</speed>
<extensions>
<speed>3.0</speed>
<temp>0.00</temp>
<bpm>0</bpm>
<rpm>0.00</rpm>
</extensions>
</trkpt>
<trkpt lat="64.117431641" lon="-19.823171616">
<ele>147.660156</ele>
<time>2012-07-21T11:44:44Z</time>
<speed>3.430000</speed>
<extensions>
<speed>3.4</speed>
<temp>0.00</temp>
<bpm>0</bpm>
<rpm>0.00</rpm>
</extensions>
</trkpt>
<trkpt lat="64.117599487" lon="-19.823066711">
<ele>147.925781</ele>
<time>2012-07-21T11:44:49Z</time>
<speed>4.200000</speed>
<extensions>
<speed>4.2</speed>
<temp>0.00</temp>
<bpm>0</bpm>
<rpm>0.00</rpm>
</extensions>
</trkpt>
<trkpt lat="64.117759705" lon="-19.822904587">
<ele>148.031250</ele>
<time>2012-07-21T11:44:54Z</time>
<speed>4.230000</speed>
<extensions>
<speed>4.2</speed>
<temp>0.00</temp>
<bpm>0</bpm>
<rpm>0.00</rpm>
</extensions>
</trkpt>
<trkpt lat="64.117927551" lon="-19.822740555">
<ele>148.414063</ele>
<time>2012-07-21T11:44:59Z</time>
<speed>3.840000</speed>
<extensions>
<speed>3.8</speed>
<temp>0.00</temp>
<bpm>0</bpm>
<rpm>0.00</rpm>
</extensions>
</trkpt>
<trkpt lat="64.118080139" lon="-19.822578430">
<ele>148.570313</ele>
<time>2012-07-21T11:45:04Z</time>
<speed>3.430000</speed>
<extensions>
<speed>3.4</speed>
<temp>0.00</temp>
<bpm>0</bpm>
<rpm>0.00</rpm>
</extensions>
</trkpt>
<trkpt lat="64.118240356" lon="-19.822429657">
<ele>149.445313</ele>
<time>2012-07-21T11:45:09Z</time>
<speed>3.000000</speed>
<extensions>
<speed>3.0</speed>
<temp>0.00</temp>
<bpm>0</bpm>
<rpm>0.00</rpm>
</extensions>
</trkpt>
<trkpt lat="64.118347168" lon="-19.822315216">
<ele>149.765625</ele>
<time>2012-07-21T11:45:14Z</time>
<speed>2.940000</speed>
<extensions>
<speed>2.9</speed>
<temp>0.00</temp>
<bpm>0</bpm>
<rpm>0.00</rpm>
</extensions>
</trkpt>
<trkpt lat="64.118461609" lon="-19.822193146">
<ele>149.617188</ele>
<time>2012-07-21T11:45:19Z</time>
<speed>2.980000</speed>
<extensions>
<speed>3.0</speed>
<temp>0.00</temp>
<bpm>0</bpm>
<rpm>0.00</rpm>
</extensions>
</trkpt>
<trkpt lat="64.118545532" lon="-19.822065353">
<ele>149.222656</ele>
<time>2012-07-21T11:45:24Z</time>
<speed>2.130000</speed>
<extensions>
<speed>2.1</speed>
<temp>0.00</temp>
<bpm>0</bpm>
<rpm>0.00</rpm>
</extensions>
</trkpt>
<trkpt lat="64.118621826" lon="-19.822002411">
<ele>149.507813</ele>
<time>2012-07-21T11:45:29Z</time>
<speed>1.350000</speed>
<extensions>
<speed>1.4</speed>
<temp>0.00</temp>
<bpm>0</bpm>
<rpm>0.00</rpm>
</extensions>
</trkpt>
<trkpt lat="64.118652344" lon="-19.821933746">
<ele>150.625000</ele>
<time>2012-07-21T11:45:34Z</time>
<speed>0.040000</speed>
<extensions>
<speed>0.0</speed>
<temp>0.00</temp>
<bpm>0</bpm>
<rpm>0.00</rpm>
</extensions>
</trkpt>
<trkpt lat="64.118652344" lon="-19.821916580">
<ele>151.265625</ele>
<time>2012-07-21T11:45:39Z</time>
<speed>0.120000</speed>
<extensions>
<speed>0.1</speed>
<temp>0.00</temp>
<bpm>0</bpm>
<rpm>0.00</rpm>
</extensions>
</trkpt>
<trkpt lat="64.118644714" lon="-19.821891785">
<ele>150.031250</ele>
<time>2012-07-21T11:45:44Z</time>
<speed>0.010000</speed>
<extensions>
<speed>0.0</speed>
<temp>0.00</temp>
<bpm>0</bpm>
<rpm>0.00</rpm>
</extensions>
</trkpt>
<trkpt lat="64.118644714" lon="-19.821891785">
<ele>149.953125</ele>
<time>2012-07-21T11:45:49Z</time>
<extensions>
<speed>0.0</speed>
<temp>0.00</temp>
<bpm>0</bpm>
<rpm>0.00</rpm>
</extensions>
</trkpt>
<trkpt lat="64.118644714" lon="-19.821891785">
<ele>149.921875</ele>
<time>2012-07-21T11:45:54Z</time>
<extensions>
<speed>0.0</speed>
<temp>0.00</temp>
<bpm>0</bpm>
<rpm>0.00</rpm>
</extensions>
</trkpt>
<trkpt lat="64.118644714" lon="-19.821891785">
<ele>149.917969</ele>
<time>2012-07-21T11:45:59Z</time>
<extensions>
<speed>0.0</speed>
<temp>0.00</temp>
<bpm>0</bpm>
<rpm>0.00</rpm>
</extensions>
</trkpt>
<trkpt lat="64.118644714" lon="-19.821891785">
<ele>149.925781</ele>
<time>2012-07-21T11:46:04Z</time>
<extensions>
<speed>0.0</speed>
<temp>0.00</temp>
<bpm>0</bpm>
<rpm>0.00</rpm>
</extensions>
</trkpt>
<trkpt lat="64.118644714" lon="-19.821891785">
<ele>149.929688</ele>
<time>2012-07-21T11:46:09Z</time>
<extensions>
<speed>0.0</speed>
<temp>0.00</temp>
<bpm>0</bpm>
<rpm>0.00</rpm>
</extensions>
</trkpt>
<trkpt lat="64.118644714" lon="-19.821891785">
<ele>149.929688</ele>
<time>2012-07-21T11:46:14Z</time>
<extensions>
<speed>0.0</speed>
<temp>0.00</temp>
<bpm>0</bpm>
<rpm>0.00</rpm>
</extensions>
</trkpt>
<trkpt lat="64.118644714" lon="-19.821891785">
<ele>149.937500</ele>
<time>2012-07-21T11:46:19Z</time>
<extensions>
<speed>0.0</speed>
<temp>0.00</temp>
<bpm>0</bpm>
<rpm>0.00</rpm>
</extensions>
</trkpt>
<trkpt lat="64.118644714" lon="-19.821891785">
<ele>149.945313</ele>
<time>2012-07-21T11:46:24Z</time>
<extensions>
<speed>0.0</speed>
<temp>0.00</temp>
<bpm>0</bpm>
<rpm>0.00</rpm>
</extensions>
</trkpt>
<trkpt lat="64.118644714" lon="-19.821891785">
<ele>149.945313</ele>
<time>2012-07-21T11:46:29Z</time>
<extensions>
<speed>0.0</speed>
<temp>0.00</temp>
<bpm>0</bpm>
<rpm>0.00</rpm>
</extensions>
</trkpt>
<trkpt lat="64.118644714" lon="-19.821891785">
<ele>149.945313</ele>
<time>2012-07-21T11:46:34Z</time>
<extensions>
<speed>0.0</speed>
<temp>0.00</temp>
<bpm>0</bpm>
<rpm>0.00</rpm>
</extensions>
</trkpt>
<trkpt lat="64.118644714" lon="-19.821891785">
<ele>149.949219</ele>
<time>2012-07-21T11:46:39Z</time>
<extensions>
<speed>0.0</speed>
<temp>0.00</temp>
<bpm>0</bpm>
<rpm>0.00</rpm>
</extensions>
</trkpt>
<trkpt lat="64.118644714" lon="-19.821891785">
<ele>149.953125</ele>
<time>2012-07-21T11:46:44Z</time>
<extensions>
<speed>0.0</speed>
<temp>0.00</temp>
<bpm>0</bpm>
<rpm>0.00</rpm>
</extensions>
</trkpt>
<trkpt lat="64.118644714" lon="-19.821891785">
<ele>149.953125</ele>
<time>2012-07-21T11:46:49Z</time>
<extensions>
<speed>0.0</speed>
<temp>0.00</temp>
<bpm>0</bpm>
<rpm>0.00</rpm>
</extensions>
</trkpt>
<trkpt lat="64.118644714" lon="-19.821891785">
<ele>149.960938</ele>
<time>2012-07-21T11:46:54Z</time>
<extensions>
<speed>0.0</speed>
<temp>0.00</temp>
<bpm>0</bpm>
<rpm>0.00</rpm>
</extensions>
</trkpt>
<trkpt lat="64.118644714" lon="-19.821891785">
<ele>149.972656</ele>
<time>2012-07-21T11:46:59Z</time>
<extensions>
<speed>0.0</speed>
<temp>0.00</temp>
<bpm>0</bpm>
<rpm>0.00</rpm>
</extensions>
</trkpt>
<trkpt lat="64.118644714" lon="-19.821891785">
<ele>149.976563</ele>
<time>2012-07-21T11:47:04Z</time>
<extensions>
<speed>0.0</speed>
<temp>0.00</temp>
<bpm>0</bpm>
<rpm>0.00</rpm>
</extensions>
</trkpt>
<trkpt lat="64.118644714" lon="-19.821891785">
<ele>149.976563</ele>
<time>2012-07-21T11:47:09Z</time>
<extensions>
<speed>0.0</speed>
<temp>0.00</temp>
<bpm>0</bpm>
<rpm>0.00</rpm>
</extensions>
</trkpt>
<trkpt lat="64.118644714" lon="-19.821891785">
<ele>149.980469</ele>
<time>2012-07-21T11:47:14Z</time>
<extensions>
<speed>0.0</speed>
<temp>0.00</temp>
<bpm>0</bpm>
<rpm>0.00</rpm>
</extensions>
</trkpt>
<trkpt lat="64.118644714" lon="-19.821891785">
<ele>149.988281</ele>
<time>2012-07-21T11:47:19Z</time>
<extensions>
<speed>0.0</speed>
<temp>0.00</temp>
<bpm>0</bpm>
<rpm>0.00</rpm>
</extensions>
</trkpt>
<trkpt lat="64.118644714" lon="-19.821891785">
<ele>149.992188</ele>
<time>2012-07-21T11:47:24Z</time>
<extensions>
<speed>0.0</speed>
<temp>0.00</temp>
<bpm>0</bpm>
<rpm>0.00</rpm>
</extensions>
</trkpt>
<trkpt lat="64.118644714" lon="-19.821891785">
<ele>150.003906</ele>
<time>2012-07-21T11:47:29Z</time>
<extensions>
<speed>0.0</speed>
<temp>0.00</temp>
<bpm>0</bpm>
<rpm>0.00</rpm>
</extensions>
</trkpt>
<trkpt lat="64.118644714" lon="-19.821891785">
<ele>150.003906</ele>
<time>2012-07-21T11:47:34Z</time>
<extensions>
<speed>0.0</speed>
<temp>0.00</temp>
<bpm>0</bpm>
<rpm>0.00</rpm>
</extensions>
</trkpt>
<trkpt lat="64.118644714" lon="-19.821891785">
<ele>150.003906</ele>
<time>2012-07-21T11:47:39Z</time>
<extensions>
<speed>0.0</speed>
<temp>0.00</temp>
<bpm>0</bpm>
<rpm>0.00</rpm>
</extensions>
</trkpt>
<trkpt lat="64.118644714" lon="-19.821891785">
<ele>150.015625</ele>
<time>2012-07-21T11:47:44Z</time>
<extensions>
<speed>0.0</speed>
<temp>0.00</temp>
<bpm>0</bpm>
<rpm>0.00</rpm>
</extensions>
</trkpt>
<trkpt lat="64.118644714" lon="-19.821891785">
<ele>150.027344</ele>
<time>2012-07-21T11:47:49Z</time>
<extensions>
<speed>0.0</speed>
<temp>0.00</temp>
<bpm>0</bpm>
<rpm>0.00</rpm>
</extensions>
</trkpt>
<trkpt lat="64.118644714" lon="-19.821891785">
<ele>150.023438</ele>
<time>2012-07-21T11:47:54Z</time>
<extensions>
<speed>0.0</speed>
<temp>0.00</temp>
<bpm>0</bpm>
<rpm>0.00</rpm>
</extensions>
</trkpt>
<trkpt lat="64.118644714" lon="-19.821891785">
<ele>150.031250</ele>
<time>2012-07-21T11:47:59Z</time>
<extensions>
<speed>0.0</speed>
<temp>0.00</temp>
<bpm>0</bpm>
<rpm>0.00</rpm>
</extensions>
</trkpt>
<trkpt lat="64.118644714" lon="-19.821891785">
<ele>150.039063</ele>
<time>2012-07-21T11:48:04Z</time>
<extensions>
<speed>0.0</speed>
<temp>0.00</temp>
<bpm>0</bpm>
<rpm>0.00</rpm>
</extensions>
</trkpt>
<trkpt lat="64.118644714" lon="-19.821891785">
<ele>150.046875</ele>
<time>2012-07-21T11:48:09Z</time>
<extensions>
<speed>0.0</speed>
<temp>0.00</temp>
<bpm>0</bpm>
<rpm>0.00</rpm>
</extensions>
</trkpt>
<trkpt lat="64.118644714" lon="-19.821891785">
<ele>150.054688</ele>
<time>2012-07-21T11:48:14Z</time>
<extensions>
<speed>0.0</speed>
<temp>0.00</temp>
<bpm>0</bpm>
<rpm>0.00</rpm>
</extensions>
</trkpt>
<trkpt lat="64.118644714" lon="-19.821891785">
<ele>150.062500</ele>
<time>2012-07-21T11:48:19Z</time>
<extensions>
<speed>0.0</speed>
<temp>0.00</temp>
<bpm>0</bpm>
<rpm>0.00</rpm>
</extensions>
</trkpt>
<trkpt lat="64.118644714" lon="-19.821891785">
<ele>150.062500</ele>
<time>2012-07-21T11:48:24Z</time>
<extensions>
<speed>0.0</speed>
<temp>0.00</temp>
<bpm>0</bpm>
<rpm>0.00</rpm>
</extensions>
</trkpt>
<trkpt lat="64.118644714" lon="-19.821891785">
<ele>150.070313</ele>
<time>2012-07-21T11:48:29Z</time>
<extensions>
<speed>0.0</speed>
<temp>0.00</temp>
<bpm>0</bpm>
<rpm>0.00</rpm>
</extensions>
</trkpt>
<trkpt lat="64.118644714" lon="-19.821891785">
<ele>150.078125</ele>
<time>2012-07-21T11:48:34Z</time>
<extensions>
<speed>0.0</speed>
<temp>0.00</temp>
<bpm>0</bpm>
<rpm>0.00</rpm>
</extensions>
</trkpt>
<trkpt lat="64.118644714" lon="-19.821891785">
<ele>150.085938</ele>
<time>2012-07-21T11:48:39Z</time>
<extensions>
<speed>0.0</speed>
<temp>0.00</temp>
<bpm>0</bpm>
<rpm>0.00</rpm>
</extensions>
</trkpt>
<trkpt lat="64.118644714" lon="-19.821891785">
<ele>150.097656</ele>
<time>2012-07-21T11:48:44Z</time>
<extensions>
<speed>0.0</speed>
<temp>0.00</temp>
<bpm>0</bpm>
<rpm>0.00</rpm>
</extensions>
</trkpt>
<trkpt lat="64.118644714" lon="-19.821891785">
<ele>150.101563</ele>
<time>2012-07-21T11:48:49Z</time>
<extensions>
<speed>0.0</speed>
<temp>0.00</temp>
<bpm>0</bpm>
<rpm>0.00</rpm>
</extensions>
</trkpt>
<trkpt lat="64.118644714" lon="-19.821891785">
<ele>150.101563</ele>
<time>2012-07-21T11:48:54Z</time>
<extensions>
<speed>0.0</speed>
<temp>0.00</temp>
<bpm>0</bpm>
<rpm>0.00</rpm>
</extensions>
</trkpt>
<trkpt lat="64.118644714" lon="-19.821891785">
<ele>150.105469</ele>
<time>2012-07-21T11:48:59Z</time>
<extensions>
<speed>0.0</speed>
<temp>0.00</temp>
<bpm>0</bpm>
<rpm>0.00</rpm>
</extensions>
</trkpt>
<trkpt lat="64.118644714" lon="-19.821891785">
<ele>150.117188</ele>
<time>2012-07-21T11:49:04Z</time>
<extensions>
<speed>0.0</speed>
<temp>0.00</temp>
<bpm>0</bpm>
<rpm>0.00</rpm>
</extensions>
</trkpt>
<trkpt lat="64.118644714" lon="-19.821891785">
<ele>150.121094</ele>
<time>2012-07-21T11:49:09Z</time>
<extensions>
<speed>0.0</speed>
<temp>0.00</temp>
<bpm>0</bpm>
<rpm>0.00</rpm>
</extensions>
</trkpt>
<trkpt lat="64.118644714" lon="-19.821891785">
<ele>150.121094</ele>
<time>2012-07-21T11:49:14Z</time>
<extensions>
<speed>0.0</speed>
<temp>0.00</temp>
<bpm>0</bpm>
<rpm>0.00</rpm>
</extensions>
</trkpt>
<trkpt lat="64.118644714" lon="-19.821891785">
<ele>150.128906</ele>
<time>2012-07-21T11:49:19Z</time>
<extensions>
<speed>0.0</speed>
<temp>0.00</temp>
<bpm>0</bpm>
<rpm>0.00</rpm>
</extensions>
</trkpt>
<trkpt lat="64.118644714" lon="-19.821891785">
<ele>150.136719</ele>
<time>2012-07-21T11:49:24Z</time>
<extensions>
<speed>0.0</speed>
<temp>0.00</temp>
<bpm>0</bpm>
<rpm>0.00</rpm>
</extensions>
</trkpt>
<trkpt lat="64.118644714" lon="-19.821891785">
<ele>150.140625</ele>
<time>2012-07-21T11:49:29Z</time>
<extensions>
<speed>0.0</speed>
<temp>0.00</temp>
<bpm>0</bpm>
<rpm>0.00</rpm>
</extensions>
</trkpt>
<trkpt lat="64.118644714" lon="-19.821891785">
<ele>150.140625</ele>
<time>2012-07-21T11:49:34Z</time>
<extensions>
<speed>0.0</speed>
<temp>0.00</temp>
<bpm>0</bpm>
<rpm>0.00</rpm>
</extensions>
</trkpt>
<trkpt lat="64.118644714" lon="-19.821891785">
<ele>150.140625</ele>
<time>2012-07-21T11:49:39Z</time>
<extensions>
<speed>0.0</speed>
<temp>0.00</temp>
<bpm>0</bpm>
<rpm>0.00</rpm>
</extensions>
</trkpt>
<trkpt lat="64.118644714" lon="-19.821891785">
<ele>150.148438</ele>
<time>2012-07-21T11:49:44Z</time>
<extensions>
<speed>0.0</speed>
<temp>0.00</temp>
<bpm>0</bpm>
<rpm>0.00</rpm>
</extensions>
</trkpt>
<trkpt lat="64.118644714" lon="-19.821891785">
<ele>150.152344</ele>
<time>2012-07-21T11:49:49Z</time>
<extensions>
<speed>0.0</speed>
<temp>0.00</temp>
<bpm>0</bpm>
<rpm>0.00</rpm>
</extensions>
</trkpt>
<trkpt lat="64.118644714" lon="-19.821891785">
<ele>150.156250</ele>
<time>2012-07-21T11:49:54Z</time>
<extensions>
<speed>0.0</speed>
<temp>0.00</temp>
<bpm>0</bpm>
<rpm>0.00</rpm>
</extensions>
</trkpt>
<trkpt lat="64.118644714" lon="-19.821891785">
<ele>150.156250</ele>
<time>2012-07-21T11:49:59Z</time>
<extensions>
<speed>0.0</speed>
<temp>0.00</temp>
<bpm>0</bpm>
<rpm>0.00</rpm>
</extensions>
</trkpt>
<trkpt lat="64.118644714" lon="-19.821891785">
<ele>150.164063</ele>
<time>2012-07-21T11:50:04Z</time>
<extensions>
<speed>0.0</speed>
<temp>0.00</temp>
<bpm>0</bpm>
<rpm>0.00</rpm>
</extensions>
</trkpt>
<trkpt lat="64.118644714" lon="-19.821891785">
<ele>150.167969</ele>
<time>2012-07-21T11:50:09Z</time>
<extensions>
<speed>0.0</speed>
<temp>0.00</temp>
<bpm>0</bpm>
<rpm>0.00</rpm>
</extensions>
</trkpt>
<trkpt lat="64.118644714" lon="-19.821891785">
<ele>150.171875</ele>
<time>2012-07-21T11:50:14Z</time>
<extensions>
<speed>0.0</speed>
<temp>0.00</temp>
<bpm>0</bpm>
<rpm>0.00</rpm>
</extensions>
</trkpt>
<trkpt lat="64.118644714" lon="-19.821891785">
<ele>150.175781</ele>
<time>2012-07-21T11:50:19Z</time>
<extensions>
<speed>0.0</speed>
<temp>0.00</temp>
<bpm>0</bpm>
<rpm>0.00</rpm>
</extensions>
</trkpt>
<trkpt lat="64.118644714" lon="-19.821891785">
<ele>150.187500</ele>
<time>2012-07-21T11:50:24Z</time>
<extensions>
<speed>0.0</speed>
<temp>0.00</temp>
<bpm>0</bpm>
<rpm>0.00</rpm>
</extensions>
</trkpt>
<trkpt lat="64.118644714" lon="-19.821891785">
<ele>150.191406</ele>
<time>2012-07-21T11:50:29Z</time>
<extensions>
<speed>0.0</speed>
<temp>0.00</temp>
<bpm>0</bpm>
<rpm>0.00</rpm>
</extensions>
</trkpt>
<trkpt lat="64.118644714" lon="-19.821891785">
<ele>150.195313</ele>
<time>2012-07-21T11:50:34Z</time>
<extensions>
<speed>0.0</speed>
<temp>0.00</temp>
<bpm>0</bpm>
<rpm>0.00</rpm>
</extensions>
</trkpt>
<trkpt lat="64.118644714" lon="-19.821891785">
<ele>150.199219</ele>
<time>2012-07-21T11:50:39Z</time>
<extensions>
<speed>0.0</speed>
<temp>0.00</temp>
<bpm>0</bpm>
<rpm>0.00</rpm>
</extensions>
</trkpt>
<trkpt lat="64.118644714" lon="-19.821891785">
<ele>150.207031</ele>
<time>2012-07-21T11:50:44Z</time>
<extensions>
<speed>0.0</speed>
<temp>0.00</temp>
<bpm>0</bpm>
<rpm>0.00</rpm>
</extensions>
</trkpt>
<trkpt lat="64.118644714" lon="-19.821891785">
<ele>150.218750</ele>
<time>2012-07-21T11:50:49Z</time>
<extensions>
<speed>0.0</speed>
<temp>0.00</temp>
<bpm>0</bpm>
<rpm>0.00</rpm>
</extensions>
</trkpt>
<trkpt lat="64.118644714" lon="-19.821891785">
<ele>150.230469</ele>
<time>2012-07-21T11:50:54Z</time>
<extensions>
<speed>0.0</speed>
<temp>0.00</temp>
<bpm>0</bpm>
<rpm>0.00</rpm>
</extensions>
</trkpt>
<trkpt lat="64.118644714" lon="-19.821891785">
<ele>150.234375</ele>
<time>2012-07-21T11:50:59Z</time>
<extensions>
<speed>0.0</speed>
<temp>0.00</temp>
<bpm>0</bpm>
<rpm>0.00</rpm>
</extensions>
</trkpt>
<trkpt lat="64.118644714" lon="-19.821891785">
<ele>150.242188</ele>
<time>2012-07-21T11:51:04Z</time>
<extensions>
<speed>0.0</speed>
<temp>0.00</temp>
<bpm>0</bpm>
<rpm>0.00</rpm>
</extensions>
</trkpt>
<trkpt lat="64.118644714" lon="-19.821891785">
<ele>150.257813</ele>
<time>2012-07-21T11:51:09Z</time>
<extensions>
<speed>0.0</speed>
<temp>0.00</temp>
<bpm>0</bpm>
<rpm>0.00</rpm>
</extensions>
</trkpt>
<trkpt lat="64.118644714" lon="-19.821891785">
<ele>150.261719</ele>
<time>2012-07-21T11:51:14Z</time>
<extensions>
<speed>0.0</speed>
<temp>0.00</temp>
<bpm>0</bpm>
<rpm>0.00</rpm>
</extensions>
</trkpt>
<trkpt lat="64.118644714" lon="-19.821891785">
<ele>150.261719</ele>
<time>2012-07-21T11:51:19Z</time>
<extensions>
<speed>0.0</speed>
<temp>0.00</temp>
<bpm>0</bpm>
<rpm>0.00</rpm>
</extensions>
</trkpt>
<trkpt lat="64.118644714" lon="-19.821891785">
<ele>150.269531</ele>
<time>2012-07-21T11:51:24Z</time>
<extensions>
<speed>0.0</speed>
<temp>0.00</temp>
<bpm>0</bpm>
<rpm>0.00</rpm>
</extensions>
</trkpt>
<trkpt lat="64.118644714" lon="-19.821891785">
<ele>150.273438</ele>
<time>2012-07-21T11:51:29Z</time>
<extensions>
<speed>0.0</speed>
<temp>0.00</temp>
<bpm>0</bpm>
<rpm>0.00</rpm>
</extensions>
</trkpt>
<trkpt lat="64.118644714" lon="-19.821891785">
<ele>150.273438</ele>
<time>2012-07-21T11:51:34Z</time>
<extensions>
<speed>0.0</speed>
<temp>0.00</temp>
<bpm>0</bpm>
<rpm>0.00</rpm>
</extensions>
</trkpt>
<trkpt lat="64.118644714" lon="-19.821891785">
<ele>150.273438</ele>
<time>2012-07-21T11:51:39Z</time>
<extensions>
<speed>0.0</speed>
<temp>0.00</temp>
<bpm>0</bpm>
<rpm>0.00</rpm>
</extensions>
</trkpt>
<trkpt lat="64.118644714" lon="-19.821891785">
<ele>150.277344</ele>
<time>2012-07-21T11:51:44Z</time>
<extensions>
<speed>0.0</speed>
<temp>0.00</temp>
<bpm>0</bpm>
<rpm>0.00</rpm>
</extensions>
</trkpt>
<trkpt lat="64.118644714" lon="-19.821891785">
<ele>150.285156</ele>
<time>2012-07-21T11:51:49Z</time>
<extensions>
<speed>0.0</speed>
<temp>0.00</temp>
<bpm>0</bpm>
<rpm>0.00</rpm>
</extensions>
</trkpt>
<trkpt lat="64.118644714" lon="-19.821891785">
<ele>150.285156</ele>
<time>2012-07-21T11:51:54Z</time>
<extensions>
<speed>0.0</speed>
<temp>0.00</temp>
<bpm>0</bpm>
<rpm>0.00</rpm>
</extensions>
</trkpt>
<trkpt lat="64.118644714" lon="-19.821891785">
<ele>150.285156</ele>
<time>2012-07-21T11:51:59Z</time>
<extensions>
<speed>0.0</speed>
<temp>0.00</temp>
<bpm>0</bpm>
<rpm>0.00</rpm>
</extensions>
</trkpt>
<trkpt lat="64.118644714" lon="-19.821891785">
<ele>150.289063</ele>
<time>2012-07-21T11:52:04Z</time>
<extensions>
<speed>0.0</speed>
<temp>0.00</temp>
<bpm>0</bpm>
<rpm>0.00</rpm>
</extensions>
</trkpt>
<trkpt lat="64.118644714" lon="-19.821891785">
<ele>150.292969</ele>
<time>2012-07-21T11:52:09Z</time>
<extensions>
<speed>0.0</speed>
<temp>0.00</temp>
<bpm>0</bpm>
<rpm>0.00</rpm>
</extensions>
</trkpt>
<trkpt lat="64.118644714" lon="-19.821891785">
<ele>150.292969</ele>
<time>2012-07-21T11:52:14Z</time>
<extensions>
<speed>0.0</speed>
<temp>0.00</temp>
<bpm>0</bpm>
<rpm>0.00</rpm>
</extensions>
</trkpt>
<trkpt lat="64.118644714" lon="-19.821891785">
<ele>150.296875</ele>
<time>2012-07-21T11:52:19Z</time>
<extensions>
<speed>0.0</speed>
<temp>0.00</temp>
<bpm>0</bpm>
<rpm>0.00</rpm>
</extensions>
</trkpt>
<trkpt lat="64.118644714" lon="-19.821891785">
<ele>150.300781</ele>
<time>2012-07-21T11:52:24Z</time>
<extensions>
<speed>0.0</speed>
<temp>0.00</temp>
<bpm>0</bpm>
<rpm>0.00</rpm>
</extensions>
</trkpt>
<trkpt lat="64.118644714" lon="-19.821891785">
<ele>150.308594</ele>
<time>2012-07-21T11:52:29Z</time>
<extensions>
<speed>0.0</speed>
<temp>0.00</temp>
<bpm>0</bpm>
<rpm>0.00</rpm>
</extensions>
</trkpt>
<trkpt lat="64.118644714" lon="-19.821891785">
<ele>150.312500</ele>
<time>2012-07-21T11:52:34Z</time>
<extensions>
<speed>0.0</speed>
<temp>0.00</temp>
<bpm>0</bpm>
<rpm>0.00</rpm>
</extensions>
</trkpt>
<trkpt lat="64.118644714" lon="-19.821891785">
<ele>150.316406</ele>
<time>2012-07-21T11:52:39Z</time>
<extensions>
<speed>0.0</speed>
<temp>0.00</temp>
<bpm>0</bpm>
<rpm>0.00</rpm>
</extensions>
</trkpt>
<trkpt lat="64.118644714" lon="-19.821891785">
<ele>150.324219</ele>
<time>2012-07-21T11:52:44Z</time>
<extensions>
<speed>0.0</speed>
<temp>0.00</temp>
<bpm>0</bpm>
<rpm>0.00</rpm>
</extensions>
</trkpt>
<trkpt lat="64.118644714" lon="-19.821891785">
<ele>150.339844</ele>
<time>2012-07-21T11:52:49Z</time>
<extensions>
<speed>0.0</speed>
<temp>0.00</temp>
<bpm>0</bpm>
<rpm>0.00</rpm>
</extensions>
</trkpt>
<trkpt lat="64.118644714" lon="-19.821891785">
<ele>150.355469</ele>
<time>2012-07-21T11:52:54Z</time>
<extensions>
<speed>0.0</speed>
<temp>0.00</temp>
<bpm>0</bpm>
<rpm>0.00</rpm>
</extensions>
</trkpt>
<trkpt lat="64.118644714" lon="-19.821891785">
<ele>150.371094</ele>
<time>2012-07-21T11:52:59Z</time>
<extensions>
<speed>0.0</speed>
<temp>0.00</temp>
<bpm>0</bpm>
<rpm>0.00</rpm>
</extensions>
</trkpt>
<trkpt lat="64.118652344" lon="-19.821891785">
<ele>150.375000</ele>
<time>2012-07-21T11:53:04Z</time>
<extensions>
<speed>0.0</speed>
<temp>0.00</temp>
<bpm>0</bpm>
<rpm>0.00</rpm>
</extensions>
</trkpt>
<trkpt lat="64.118652344" lon="-19.821891785">
<ele>150.390625</ele>
<time>2012-07-21T11:53:09Z</time>
<extensions>
<speed>0.0</speed>
<temp>0.00</temp>
<bpm>0</bpm>
<rpm>0.00</rpm>
</extensions>
</trkpt>
<trkpt lat="64.118652344" lon="-19.821891785">
<ele>150.402344</ele>
<time>2012-07-21T11:53:14Z</time>
<extensions>
<speed>0.0</speed>
<temp>0.00</temp>
<bpm>0</bpm>
<rpm>0.00</rpm>
</extensions>
</trkpt>
<trkpt lat="64.118652344" lon="-19.821891785">
<ele>150.425781</ele>
<time>2012-07-21T11:53:19Z</time>
<extensions>
<speed>0.0</speed>
<temp>0.00</temp>
<bpm>0</bpm>
<rpm>0.00</rpm>
</extensions>
</trkpt>
<trkpt lat="64.118652344" lon="-19.821891785">
<ele>150.441406</ele>
<time>2012-07-21T11:53:24Z</time>
<extensions>
<speed>0.0</speed>
<temp>0.00</temp>
<bpm>0</bpm>
<rpm>0.00</rpm>
</extensions>
</trkpt>
<trkpt lat="64.118652344" lon="-19.821891785">
<ele>150.457031</ele>
<time>2012-07-21T11:53:29Z</time>
<extensions>
<speed>0.0</speed>
<temp>0.00</temp>
<bpm>0</bpm>
<rpm>0.00</rpm>
</extensions>
</trkpt>
<trkpt lat="64.118652344" lon="-19.821891785">
<ele>150.468750</ele>
<time>2012-07-21T11:53:34Z</time>
<extensions>
<speed>0.0</speed>
<temp>0.00</temp>
<bpm>0</bpm>
<rpm>0.00</rpm>
</extensions>
</trkpt>
<trkpt lat="64.118652344" lon="-19.821891785">
<ele>150.484375</ele>
<time>2012-07-21T11:53:39Z</time>
<extensions>
<speed>0.0</speed>
<temp>0.00</temp>
<bpm>0</bpm>
<rpm>0.00</rpm>
</extensions>
</trkpt>
<trkpt lat="64.118652344" lon="-19.821891785">
<ele>150.500000</ele>
<time>2012-07-21T11:53:44Z</time>
<extensions>
<speed>0.0</speed>
<temp>0.00</temp>
<bpm>0</bpm>
<rpm>0.00</rpm>
</extensions>
</trkpt>
<trkpt lat="64.118652344" lon="-19.821891785">
<ele>150.515625</ele>
<time>2012-07-21T11:53:49Z</time>
<extensions>
<speed>0.0</speed>
<temp>0.00</temp>
<bpm>0</bpm>
<rpm>0.00</rpm>
</extensions>
</trkpt>
<trkpt lat="64.118652344" lon="-19.821891785">
<ele>150.527344</ele>
<time>2012-07-21T11:53:54Z</time>
<extensions>
<speed>0.0</speed>
<temp>0.00</temp>
<bpm>0</bpm>
<rpm>0.00</rpm>
</extensions>
</trkpt>
<trkpt lat="64.118652344" lon="-19.821891785">
<ele>150.535156</ele>
<time>2012-07-21T11:53:59Z</time>
<extensions>
<speed>0.0</speed>
<temp>0.00</temp>
<bpm>0</bpm>
<rpm>0.00</rpm>
</extensions>
</trkpt>
<trkpt lat="64.118652344" lon="-19.821891785">
<ele>150.539063</ele>
<time>2012-07-21T11:54:04Z</time>
<extensions>
<speed>0.0</speed>
<temp>0.00</temp>
<bpm>0</bpm>
<rpm>0.00</rpm>
</extensions>
</trkpt>
<trkpt lat="64.118652344" lon="-19.821891785">
<ele>150.558594</ele>
<time>2012-07-21T11:54:09Z</time>
<extensions>
<speed>0.0</speed>
<temp>0.00</temp>
<bpm>0</bpm>
<rpm>0.00</rpm>
</extensions>
</trkpt>
<trkpt lat="64.118652344" lon="-19.821889877">
<ele>150.578125</ele>
<time>2012-07-21T11:54:14Z</time>
<extensions>
<speed>0.0</speed>
<temp>0.00</temp>
<bpm>0</bpm>
<rpm>0.00</rpm>
</extensions>
</trkpt>
<trkpt lat="64.118652344" lon="-19.821889877">
<ele>150.589844</ele>
<time>2012-07-21T11:54:19Z</time>
<extensions>
<speed>0.0</speed>
<temp>0.00</temp>
<bpm>0</bpm>
<rpm>0.00</rpm>
</extensions>
</trkpt>
<trkpt lat="64.118652344" lon="-19.821889877">
<ele>150.605469</ele>
<time>2012-07-21T11:54:24Z</time>
<extensions>
<speed>0.0</speed>
<temp>0.00</temp>
<bpm>0</bpm>
<rpm>0.00</rpm>
</extensions>
</trkpt>
<trkpt lat="64.118652344" lon="-19.821889877">
<ele>150.625000</ele>
<time>2012-07-21T11:54:29Z</time>
<extensions>
<speed>0.0</speed>
<temp>0.00</temp>
<bpm>0</bpm>
<rpm>0.00</rpm>
</extensions>
</trkpt>
<trkpt lat="64.118652344" lon="-19.821889877">
<ele>150.644531</ele>
<time>2012-07-21T11:54:34Z</time>
<extensions>
<speed>0.0</speed>
<temp>0.00</temp>
<bpm>0</bpm>
<rpm>0.00</rpm>
</extensions>
</trkpt>
<trkpt lat="64.118652344" lon="-19.821889877">
<ele>150.664063</ele>
<time>2012-07-21T11:54:39Z</time>
<extensions>
<speed>0.0</speed>
<temp>0.00</temp>
<bpm>0</bpm>
<rpm>0.00</rpm>
</extensions>
</trkpt>
<trkpt lat="64.118652344" lon="-19.821889877">
<ele>150.675781</ele>
<time>2012-07-21T11:54:44Z</time>
<extensions>
<speed>0.0</speed>
<temp>0.00</temp>
<bpm>0</bpm>
<rpm>0.00</rpm>
</extensions>
</trkpt>
<trkpt lat="64.118652344" lon="-19.821889877">
<ele>150.687500</ele>
<time>2012-07-21T11:54:49Z</time>
<extensions>
<speed>0.0</speed>
<temp>0.00</temp>
<bpm>0</bpm>
<rpm>0.00</rpm>
</extensions>
</trkpt>
<trkpt lat="64.118652344" lon="-19.821887970">
<ele>150.703125</ele>
<time>2012-07-21T11:54:54Z</time>
<extensions>
<speed>0.0</speed>
<temp>0.00</temp>
<bpm>0</bpm>
<rpm>0.00</rpm>
</extensions>
</trkpt>
<trkpt lat="64.118652344" lon="-19.821887970">
<ele>150.718750</ele>
<time>2012-07-21T11:54:59Z</time>
<extensions>
<speed>0.0</speed>
<temp>0.00</temp>
<bpm>0</bpm>
<rpm>0.00</rpm>
</extensions>
</trkpt>
<trkpt lat="64.118652344" lon="-19.821887970">
<ele>150.734375</ele>
<time>2012-07-21T11:55:04Z</time>
<extensions>
<speed>0.0</speed>
<temp>0.00</temp>
<bpm>0</bpm>
<rpm>0.00</rpm>
</extensions>
</trkpt>
<trkpt lat="64.118652344" lon="-19.821887970">
<ele>150.742188</ele>
<time>2012-07-21T11:55:09Z</time>
<extensions>
<speed>0.0</speed>
<temp>0.00</temp>
<bpm>0</bpm>
<rpm>0.00</rpm>
</extensions>
</trkpt>
<trkpt lat="64.118652344" lon="-19.821887970">
<ele>150.750000</ele>
<time>2012-07-21T11:55:14Z</time>
<extensions>
<speed>0.0</speed>
<temp>0.00</temp>
<bpm>0</bpm>
<rpm>0.00</rpm>
</extensions>
</trkpt>
<trkpt lat="64.118652344" lon="-19.821887970">
<ele>150.757813</ele>
<time>2012-07-21T11:55:19Z</time>
<extensions>
<speed>0.0</speed>
<temp>0.00</temp>
<bpm>0</bpm>
<rpm>0.00</rpm>
</extensions>
</trkpt>
<trkpt lat="64.118652344" lon="-19.821887970">
<ele>150.765625</ele>
<time>2012-07-21T11:55:24Z</time>
<extensions>
<speed>0.0</speed>
<temp>0.00</temp>
<bpm>0</bpm>
<rpm>0.00</rpm>
</extensions>
</trkpt>
<trkpt lat="64.118652344" lon="-19.821887970">
<ele>150.773438</ele>
<time>2012-07-21T11:55:29Z</time>
<extensions>
<speed>0.0</speed>
<temp>0.00</temp>
<bpm>0</bpm>
<rpm>0.00</rpm>
</extensions>
</trkpt>
<trkpt lat="64.118652344" lon="-19.821887970">
<ele>150.785156</ele>
<time>2012-07-21T11:55:34Z</time>
<extensions>
<speed>0.0</speed>
<temp>0.00</temp>
<bpm>0</bpm>
<rpm>0.00</rpm>
</extensions>
</trkpt>
<trkpt lat="64.118652344" lon="-19.821887970">
<ele>150.796875</ele>
<time>2012-07-21T11:55:39Z</time>
<extensions>
<speed>0.0</speed>
<temp>0.00</temp>
<bpm>0</bpm>
<rpm>0.00</rpm>
</extensions>
</trkpt>
<trkpt lat="64.118652344" lon="-19.821887970">
<ele>150.804688</ele>
<time>2012-07-21T11:55:44Z</time>
<extensions>
<speed>0.0</speed>
<temp>0.00</temp>
<bpm>0</bpm>
<rpm>0.00</rpm>
</extensions>
</trkpt>
<trkpt lat="64.118652344" lon="-19.821887970">
<ele>150.808594</ele>
<time>2012-07-21T11:55:49Z</time>
<extensions>
<speed>0.0</speed>
<temp>0.00</temp>
<bpm>0</bpm>
<rpm>0.00</rpm>
</extensions>
</trkpt>
<trkpt lat="64.118652344" lon="-19.821887970">
<ele>150.816406</ele>
<time>2012-07-21T11:55:54Z</time>
<extensions>
<speed>0.0</speed>
<temp>0.00</temp>
<bpm>0</bpm>
<rpm>0.00</rpm>
</extensions>
</trkpt>
<trkpt lat="64.118652344" lon="-19.821887970">
<ele>150.820313</ele>
<time>2012-07-21T11:55:59Z</time>
<extensions>
<speed>0.0</speed>
<temp>0.00</temp>
<bpm>0</bpm>
<rpm>0.00</rpm>
</extensions>
</trkpt>
<trkpt lat="64.118652344" lon="-19.821887970">
<ele>150.828125</ele>
<time>2012-07-21T11:56:04Z</time>
<extensions>
<speed>0.0</speed>
<temp>0.00</temp>
<bpm>0</bpm>
<rpm>0.00</rpm>
</extensions>
</trkpt>
<trkpt lat="64.118652344" lon="-19.821886063">
<ele>150.828125</ele>
<time>2012-07-21T11:56:09Z</time>
<extensions>
<speed>0.0</speed>
<temp>0.00</temp>
<bpm>0</bpm>
<rpm>0.00</rpm>
</extensions>
</trkpt>
<trkpt lat="64.118652344" lon="-19.821886063">
<ele>150.832031</ele>
<time>2012-07-21T11:56:14Z</time>
<extensions>
<speed>0.0</speed>
<temp>0.00</temp>
<bpm>0</bpm>
<rpm>0.00</rpm>
</extensions>
</trkpt>
<trkpt lat="64.118652344" lon="-19.821886063">
<ele>150.843750</ele>
<time>2012-07-21T11:56:19Z</time>
<extensions>
<speed>0.0</speed>
<temp>0.00</temp>
<bpm>0</bpm>
<rpm>0.00</rpm>
</extensions>
</trkpt>
<trkpt lat="64.118652344" lon="-19.821886063">
<ele>150.847656</ele>
<time>2012-07-21T11:56:24Z</time>
<extensions>
<speed>0.0</speed>
<temp>0.00</temp>
<bpm>0</bpm>
<rpm>0.00</rpm>
</extensions>
</trkpt>
<trkpt lat="64.118652344" lon="-19.821886063">
<ele>150.851563</ele>
<time>2012-07-21T11:56:29Z</time>
<extensions>
<speed>0.0</speed>
<temp>0.00</temp>
<bpm>0</bpm>
<rpm>0.00</rpm>
</extensions>
</trkpt>
<trkpt lat="64.118652344" lon="-19.821886063">
<ele>150.855469</ele>
<time>2012-07-21T11:56:34Z</time>
<extensions>
<speed>0.0</speed>
<temp>0.00</temp>
<bpm>0</bpm>
<rpm>0.00</rpm>
</extensions>
</trkpt>
<trkpt lat="64.118652344" lon="-19.821886063">
<ele>150.863281</ele>
<time>2012-07-21T11:56:39Z</time>
<extensions>
<speed>0.0</speed>
<temp>0.00</temp>
<bpm>0</bpm>
<rpm>0.00</rpm>
</extensions>
</trkpt>
<trkpt lat="64.118652344" lon="-19.821886063">
<ele>150.875000</ele>
<time>2012-07-21T11:56:44Z</time>
<extensions>
<speed>0.0</speed>
<temp>0.00</temp>
<bpm>0</bpm>
<rpm>0.00</rpm>
</extensions>
</trkpt>
<trkpt lat="64.118652344" lon="-19.821886063">
<ele>150.882813</ele>
<time>2012-07-21T11:56:49Z</time>
<extensions>
<speed>0.0</speed>
<temp>0.00</temp>
<bpm>0</bpm>
<rpm>0.00</rpm>
</extensions>
</trkpt>
<trkpt lat="64.118652344" lon="-19.821886063">
<ele>150.886719</ele>
<time>2012-07-21T11:56:54Z</time>
<extensions>
<speed>0.0</speed>
<temp>0.00</temp>
<bpm>0</bpm>
<rpm>0.00</rpm>
</extensions>
</trkpt>
<trkpt lat="64.118652344" lon="-19.821886063">
<ele>150.894531</ele>
<time>2012-07-21T11:56:59Z</time>
<extensions>
<speed>0.0</speed>
<temp>0.00</temp>
<bpm>0</bpm>
<rpm>0.00</rpm>
</extensions>
</trkpt>
<trkpt lat="64.118652344" lon="-19.821886063">
<ele>150.902344</ele>
<time>2012-07-21T11:57:04Z</time>
<extensions>
<speed>0.0</speed>
<temp>0.00</temp>
<bpm>0</bpm>
<rpm>0.00</rpm>
</extensions>
</trkpt>
<trkpt lat="64.118652344" lon="-19.821886063">
<ele>150.906250</ele>
<time>2012-07-21T11:57:09Z</time>
<extensions>
<speed>0.0</speed>
<temp>0.00</temp>
<bpm>0</bpm>
<rpm>0.00</rpm>
</extensions>
</trkpt>
<trkpt lat="64.118652344" lon="-19.821886063">
<ele>150.914063</ele>
<time>2012-07-21T11:57:14Z</time>
<extensions>
<speed>0.0</speed>
<temp>0.00</temp>
<bpm>0</bpm>
<rpm>0.00</rpm>
</extensions>
</trkpt>
<trkpt lat="64.118652344" lon="-19.821886063">
<ele>150.910156</ele>
<time>2012-07-21T11:57:19Z</time>
<extensions>
<speed>0.0</speed>
<temp>0.00</temp>
<bpm>0</bpm>
<rpm>0.00</rpm>
</extensions>
</trkpt>
<trkpt lat="64.118652344" lon="-19.821886063">
<ele>150.910156</ele>
<time>2012-07-21T11:57:24Z</time>
<extensions>
<speed>0.0</speed>
<temp>0.00</temp>
<bpm>0</bpm>
<rpm>0.00</rpm>
</extensions>
</trkpt>
<trkpt lat="64.118652344" lon="-19.821886063">
<ele>150.910156</ele>
<time>2012-07-21T11:57:29Z</time>
<extensions>
<speed>0.0</speed>
<temp>0.00</temp>
<bpm>0</bpm>
<rpm>0.00</rpm>
</extensions>
</trkpt>
<trkpt lat="64.118652344" lon="-19.821886063">
<ele>150.917969</ele>
<time>2012-07-21T11:57:34Z</time>
<extensions>
<speed>0.0</speed>
<temp>0.00</temp>
<bpm>0</bpm>
<rpm>0.00</rpm>
</extensions>
</trkpt>
<trkpt lat="64.118652344" lon="-19.821886063">
<ele>150.921875</ele>
<time>2012-07-21T11:57:39Z</time>
<extensions>
<speed>0.0</speed>
<temp>0.00</temp>
<bpm>0</bpm>
<rpm>0.00</rpm>
</extensions>
</trkpt>
<trkpt lat="64.118652344" lon="-19.821886063">
<ele>150.917969</ele>
<time>2012-07-21T11:57:44Z</time>
<extensions>
<speed>0.0</speed>
<temp>0.00</temp>
<bpm>0</bpm>
<rpm>0.00</rpm>
</extensions>
</trkpt>
<trkpt lat="64.118652344" lon="-19.821886063">
<ele>150.914063</ele>
<time>2012-07-21T11:57:49Z</time>
<extensions>
<speed>0.0</speed>
<temp>0.00</temp>
<bpm>0</bpm>
<rpm>0.00</rpm>
</extensions>
</trkpt>
<trkpt lat="64.118652344" lon="-19.821886063">
<ele>150.917969</ele>
<time>2012-07-21T11:57:54Z</time>
<extensions>
<speed>0.0</speed>
<temp>0.00</temp>
<bpm>0</bpm>
<rpm>0.00</rpm>
</extensions>
</trkpt>
<trkpt lat="64.118652344" lon="-19.821886063">
<ele>150.917969</ele>
<time>2012-07-21T11:57:59Z</time>
<extensions>
<speed>0.0</speed>
<temp>0.00</temp>
<bpm>0</bpm>
<rpm>0.00</rpm>
</extensions>
</trkpt>
<trkpt lat="64.118652344" lon="-19.821886063">
<ele>150.925781</ele>
<time>2012-07-21T11:58:04Z</time>
<extensions>
<speed>0.0</speed>
<temp>0.00</temp>
<bpm>0</bpm>
<rpm>0.00</rpm>
</extensions>
</trkpt>
<trkpt lat="64.118652344" lon="-19.821886063">
<ele>150.929688</ele>
<time>2012-07-21T11:58:09Z</time>
<extensions>
<speed>0.0</speed>
<temp>0.00</temp>
<bpm>0</bpm>
<rpm>0.00</rpm>
</extensions>
</trkpt>
<trkpt lat="64.118652344" lon="-19.821886063">
<ele>150.929688</ele>
<time>2012-07-21T11:58:14Z</time>
<extensions>
<speed>0.0</speed>
<temp>0.00</temp>
<bpm>0</bpm>
<rpm>0.00</rpm>
</extensions>
</trkpt>
<trkpt lat="64.118652344" lon="-19.821884155">
<ele>150.933594</ele>
<time>2012-07-21T11:58:19Z</time>
<extensions>
<speed>0.0</speed>
<temp>0.00</temp>
<bpm>0</bpm>
<rpm>0.00</rpm>
</extensions>
</trkpt>
<trkpt lat="64.118652344" lon="-19.821884155">
<ele>150.933594</ele>
<time>2012-07-21T11:58:24Z</time>
<extensions>
<speed>0.0</speed>
<temp>0.00</temp>
<bpm>0</bpm>
<rpm>0.00</rpm>
</extensions>
</trkpt>
<trkpt lat="64.118652344" lon="-19.821884155">
<ele>150.937500</ele>
<time>2012-07-21T11:58:29Z</time>
<extensions>
<speed>0.0</speed>
<temp>0.00</temp>
<bpm>0</bpm>
<rpm>0.00</rpm>
</extensions>
</trkpt>
<trkpt lat="64.118652344" lon="-19.821884155">
<ele>150.941406</ele>
<time>2012-07-21T11:58:34Z</time>
<extensions>
<speed>0.0</speed>
<temp>0.00</temp>
<bpm>0</bpm>
<rpm>0.00</rpm>
</extensions>
</trkpt>
<trkpt lat="64.118652344" lon="-19.821884155">
<ele>150.941406</ele>
<time>2012-07-21T11:58:39Z</time>
<extensions>
<speed>0.0</speed>
<temp>0.00</temp>
<bpm>0</bpm>
<rpm>0.00</rpm>
</extensions>
</trkpt>
<trkpt lat="64.118652344" lon="-19.821884155">
<ele>150.945313</ele>
<time>2012-07-21T11:58:44Z</time>
<extensions>
<speed>0.0</speed>
<temp>0.00</temp>
<bpm>0</bpm>
<rpm>0.00</rpm>
</extensions>
</trkpt>
<trkpt lat="64.118652344" lon="-19.821884155">
<ele>150.953125</ele>
<time>2012-07-21T11:58:49Z</time>
<extensions>
<speed>0.0</speed>
<temp>0.00</temp>
<bpm>0</bpm>
<rpm>0.00</rpm>
</extensions>
</trkpt>
<trkpt lat="64.118652344" lon="-19.821884155">
<ele>150.960938</ele>
<time>2012-07-21T11:58:54Z</time>
<extensions>
<speed>0.0</speed>
<temp>0.00</temp>
<bpm>0</bpm>
<rpm>0.00</rpm>
</extensions>
</trkpt>
<trkpt lat="64.118652344" lon="-19.821884155">
<ele>150.964844</ele>
<time>2012-07-21T11:58:59Z</time>
<extensions>
<speed>0.0</speed>
<temp>0.00</temp>
<bpm>0</bpm>
<rpm>0.00</rpm>
</extensions>
</trkpt>
<trkpt lat="64.118652344" lon="-19.821884155">
<ele>150.964844</ele>
<time>2012-07-21T11:59:04Z</time>
<extensions>
<speed>0.0</speed>
<temp>0.00</temp>
<bpm>0</bpm>
<rpm>0.00</rpm>
</extensions>
</trkpt>
<trkpt lat="64.118652344" lon="-19.821884155">
<ele>150.964844</ele>
<time>2012-07-21T11:59:09Z</time>
<extensions>
<speed>0.0</speed>
<temp>0.00</temp>
<bpm>0</bpm>
<rpm>0.00</rpm>
</extensions>
</trkpt>
<trkpt lat="64.118652344" lon="-19.821884155">
<ele>150.968750</ele>
<time>2012-07-21T11:59:14Z</time>
<extensions>
<speed>0.0</speed>
<temp>0.00</temp>
<bpm>0</bpm>
<rpm>0.00</rpm>
</extensions>
</trkpt>
<trkpt lat="64.118652344" lon="-19.821884155">
<ele>150.976563</ele>
<time>2012-07-21T11:59:19Z</time>
<extensions>
<speed>0.0</speed>
<temp>0.00</temp>
<bpm>0</bpm>
<rpm>0.00</rpm>
</extensions>
</trkpt>
<trkpt lat="64.118652344" lon="-19.821884155">
<ele>150.988281</ele>
<time>2012-07-21T11:59:24Z</time>
<extensions>
<speed>0.0</speed>
<temp>0.00</temp>
<bpm>0</bpm>
<rpm>0.00</rpm>
</extensions>
</trkpt>
<trkpt lat="64.118652344" lon="-19.821884155">
<ele>150.984375</ele>
<time>2012-07-21T11:59:29Z</time>
<extensions>
<speed>0.0</speed>
<temp>0.00</temp>
<bpm>0</bpm>
<rpm>0.00</rpm>
</extensions>
</trkpt>
<trkpt lat="64.118652344" lon="-19.821884155">
<ele>150.988281</ele>
<time>2012-07-21T11:59:34Z</time>
<extensions>
<speed>0.0</speed>
<temp>0.00</temp>
<bpm>0</bpm>
<rpm>0.00</rpm>
</extensions>
</trkpt>
<trkpt lat="64.118652344" lon="-19.821884155">
<ele>150.996094</ele>
<time>2012-07-21T11:59:39Z</time>
<extensions>
<speed>0.0</speed>
<temp>0.00</temp>
<bpm>0</bpm>
<rpm>0.00</rpm>
</extensions>
</trkpt>
<trkpt lat="64.118652344" lon="-19.821884155">
<ele>151.003906</ele>
<time>2012-07-21T11:59:44Z</time>
<extensions>
<speed>0.0</speed>
<temp>0.00</temp>
<bpm>0</bpm>
<rpm>0.00</rpm>
</extensions>
</trkpt>
<trkpt lat="64.118652344" lon="-19.821884155">
<ele>151.011719</ele>
<time>2012-07-21T11:59:49Z</time>
<extensions>
<speed>0.0</speed>
<temp>0.00</temp>
<bpm>0</bpm>
<rpm>0.00</rpm>
</extensions>
</trkpt>
<trkpt lat="64.118652344" lon="-19.821884155">
<ele>151.015625</ele>
<time>2012-07-21T11:59:54Z</time>
<extensions>
<speed>0.0</speed>
<temp>0.00</temp>
<bpm>0</bpm>
<rpm>0.00</rpm>
</extensions>
</trkpt>
<trkpt lat="64.118652344" lon="-19.821884155">
<ele>151.023438</ele>
<time>2012-07-21T11:59:59Z</time>
<extensions>
<speed>0.0</speed>
<temp>0.00</temp>
<bpm>0</bpm>
<rpm>0.00</rpm>
</extensions>
</trkpt>
<trkpt lat="64.118652344" lon="-19.821884155">
<ele>151.027344</ele>
<time>2012-07-21T12:00:04Z</time>
<extensions>
<speed>0.0</speed>
<temp>0.00</temp>
<bpm>0</bpm>
<rpm>0.00</rpm>
</extensions>
</trkpt>
<trkpt lat="64.118652344" lon="-19.821884155">
<ele>151.027344</ele>
<time>2012-07-21T12:00:09Z</time>
<extensions>
<speed>0.0</speed>
<temp>0.00</temp>
<bpm>0</bpm>
<rpm>0.00</rpm>
</extensions>
</trkpt>
<trkpt lat="64.118652344" lon="-19.821884155">
<ele>151.031250</ele>
<time>2012-07-21T12:00:14Z</time>
<extensions>
<speed>0.0</speed>
<temp>0.00</temp>
<bpm>0</bpm>
<rpm>0.00</rpm>
</extensions>
</trkpt>
<trkpt lat="64.118652344" lon="-19.821884155">
<ele>151.031250</ele>
<time>2012-07-21T12:00:19Z</time>
<extensions>
<speed>0.0</speed>
<temp>0.00</temp>
<bpm>0</bpm>
<rpm>0.00</rpm>
</extensions>
</trkpt>
<trkpt lat="64.118652344" lon="-19.821884155">
<ele>151.035156</ele>
<time>2012-07-21T12:00:24Z</time>
<extensions>
<speed>0.0</speed>
<temp>0.00</temp>
<bpm>0</bpm>
<rpm>0.00</rpm>
</extensions>
</trkpt>
<trkpt lat="64.118652344" lon="-19.821884155">
<ele>151.039063</ele>
<time>2012-07-21T12:00:29Z</time>
<extensions>
<speed>0.0</speed>
<temp>0.00</temp>
<bpm>0</bpm>
<rpm>0.00</rpm>
</extensions>
</trkpt>
<trkpt lat="64.118652344" lon="-19.821884155">
<ele>151.039063</ele>
<time>2012-07-21T12:00:34Z</time>
<extensions>
<speed>0.0</speed>
<temp>0.00</temp>
<bpm>0</bpm>
<rpm>0.00</rpm>
</extensions>
</trkpt>
<trkpt lat="64.118652344" lon="-19.821884155">
<ele>151.046875</ele>
<time>2012-07-21T12:00:39Z</time>
<extensions>
<speed>0.0</speed>
<temp>0.00</temp>
<bpm>0</bpm>
<rpm>0.00</rpm>
</extensions>
</trkpt>
<trkpt lat="64.118652344" lon="-19.821884155">
<ele>151.046875</ele>
<time>2012-07-21T12:00:44Z</time>
<extensions>
<speed>0.0</speed>
<temp>0.00</temp>
<bpm>0</bpm>
<rpm>0.00</rpm>
</extensions>
</trkpt>
<trkpt lat="64.118652344" lon="-19.821884155">
<ele>151.050781</ele>
<time>2012-07-21T12:00:49Z</time>
<extensions>
<speed>0.0</speed>
<temp>0.00</temp>
<bpm>0</bpm>
<rpm>0.00</rpm>
</extensions>
</trkpt>
<trkpt lat="64.118652344" lon="-19.821884155">
<ele>151.054688</ele>
<time>2012-07-21T12:00:54Z</time>
<extensions>
<speed>0.0</speed>
<temp>0.00</temp>
<bpm>0</bpm>
<rpm>0.00</rpm>
</extensions>
</trkpt>
<trkpt lat="64.118652344" lon="-19.821884155">
<ele>151.058594</ele>
<time>2012-07-21T12:00:59Z</time>
<extensions>
<speed>0.0</speed>
<temp>0.00</temp>
<bpm>0</bpm>
<rpm>0.00</rpm>
</extensions>
</trkpt>
<trkpt lat="64.118652344" lon="-19.821884155">
<ele>151.066406</ele>
<time>2012-07-21T12:01:04Z</time>
<extensions>
<speed>0.0</speed>
<temp>0.00</temp>
<bpm>0</bpm>
<rpm>0.00</rpm>
</extensions>
</trkpt>
<trkpt lat="64.118652344" lon="-19.821884155">
<ele>151.074219</ele>
<time>2012-07-21T12:01:09Z</time>
<extensions>
<speed>0.0</speed>
<temp>0.00</temp>
<bpm>0</bpm>
<rpm>0.00</rpm>
</extensions>
</trkpt>
<trkpt lat="64.118652344" lon="-19.821884155">
<ele>151.085938</ele>
<time>2012-07-21T12:01:14Z</time>
<extensions>
<speed>0.0</speed>
<temp>0.00</temp>
<bpm>0</bpm>
<rpm>0.00</rpm>
</extensions>
</trkpt>
<trkpt lat="64.118652344" lon="-19.821884155">
<ele>151.093750</ele>
<time>2012-07-21T12:01:19Z</time>
<extensions>
<speed>0.0</speed>
<temp>0.00</temp>
<bpm>0</bpm>
<rpm>0.00</rpm>
</extensions>
</trkpt>
<trkpt lat="64.118652344" lon="-19.821882248">
<ele>151.105469</ele>
<time>2012-07-21T12:01:24Z</time>
<extensions>
<speed>0.0</speed>
<temp>0.00</temp>
<bpm>0</bpm>
<rpm>0.00</rpm>
</extensions>
</trkpt>
<trkpt lat="64.118652344" lon="-19.821882248">
<ele>151.113281</ele>
<time>2012-07-21T12:01:29Z</time>
<extensions>
<speed>0.0</speed>
<temp>0.00</temp>
<bpm>0</bpm>
<rpm>0.00</rpm>
</extensions>
</trkpt>
<trkpt lat="64.118652344" lon="-19.821882248">
<ele>151.117188</ele>
<time>2012-07-21T12:01:34Z</time>
<extensions>
<speed>0.0</speed>
<temp>0.00</temp>
<bpm>0</bpm>
<rpm>0.00</rpm>
</extensions>
</trkpt>
<trkpt lat="64.118652344" lon="-19.821882248">
<ele>151.121094</ele>
<time>2012-07-21T12:01:39Z</time>
<extensions>
<speed>0.0</speed>
<temp>0.00</temp>
<bpm>0</bpm>
<rpm>0.00</rpm>
</extensions>
</trkpt>
<trkpt lat="64.118652344" lon="-19.821882248">
<ele>151.128906</ele>
<time>2012-07-21T12:01:44Z</time>
<extensions>
<speed>0.0</speed>
<temp>0.00</temp>
<bpm>0</bpm>
<rpm>0.00</rpm>
</extensions>
</trkpt>
<trkpt lat="64.118652344" lon="-19.821882248">
<ele>151.136719</ele>
<time>2012-07-21T12:01:49Z</time>
<extensions>
<speed>0.0</speed>
<temp>0.00</temp>
<bpm>0</bpm>
<rpm>0.00</rpm>
</extensions>
</trkpt>
<trkpt lat="64.118652344" lon="-19.821882248">
<ele>151.144531</ele>
<time>2012-07-21T12:01:54Z</time>
<extensions>
<speed>0.0</speed>
<temp>0.00</temp>
<bpm>0</bpm>
<rpm>0.00</rpm>
</extensions>
</trkpt>
<trkpt lat="64.118659973" lon="-19.821882248">
<ele>151.152344</ele>
<time>2012-07-21T12:01:59Z</time>
<extensions>
<speed>0.0</speed>
<temp>0.00</temp>
<bpm>0</bpm>
<rpm>0.00</rpm>
</extensions>
</trkpt>
<trkpt lat="64.118659973" lon="-19.821882248">
<ele>151.160156</ele>
<time>2012-07-21T12:02:04Z</time>
<extensions>
<speed>0.0</speed>
<temp>0.00</temp>
<bpm>0</bpm>
<rpm>0.00</rpm>
</extensions>
</trkpt>
<trkpt lat="64.118659973" lon="-19.821882248">
<ele>151.167969</ele>
<time>2012-07-21T12:02:09Z</time>
<extensions>
<speed>0.0</speed>
<temp>0.00</temp>
<bpm>0</bpm>
<rpm>0.00</rpm>
</extensions>
</trkpt>
<trkpt lat="64.118659973" lon="-19.821882248">
<ele>151.171875</ele>
<time>2012-07-21T12:02:14Z</time>
<extensions>
<speed>0.0</speed>
<temp>0.00</temp>
<bpm>0</bpm>
<rpm>0.00</rpm>
</extensions>
</trkpt>
<trkpt lat="64.118659973" lon="-19.821882248">
<ele>151.179688</ele>
<time>2012-07-21T12:02:19Z</time>
<extensions>
<speed>0.0</speed>
<temp>0.00</temp>
<bpm>0</bpm>
<rpm>0.00</rpm>
</extensions>
</trkpt>
<trkpt lat="64.118659973" lon="-19.821882248">
<ele>151.183594</ele>
<time>2012-07-21T12:02:24Z</time>
<extensions>
<speed>0.0</speed>
<temp>0.00</temp>
<bpm>0</bpm>
<rpm>0.00</rpm>
</extensions>
</trkpt>
<trkpt lat="64.118659973" lon="-19.821882248">
<ele>151.187500</ele>
<time>2012-07-21T12:02:29Z</time>
<extensions>
<speed>0.0</speed>
<temp>0.00</temp>
<bpm>0</bpm>
<rpm>0.00</rpm>
</extensions>
</trkpt>
<trkpt lat="64.118659973" lon="-19.821882248">
<ele>151.191406</ele>
<time>2012-07-21T12:02:34Z</time>
<extensions>
<speed>0.0</speed>
<temp>0.00</temp>
<bpm>0</bpm>
<rpm>0.00</rpm>
</extensions>
</trkpt>
<trkpt lat="64.118659973" lon="-19.821882248">
<ele>151.199219</ele>
<time>2012-07-21T12:02:39Z</time>
<extensions>
<speed>0.0</speed>
<temp>0.00</temp>
<bpm>0</bpm>
<rpm>0.00</rpm>
</extensions>
</trkpt>
<trkpt lat="64.118659973" lon="-19.821882248">
<ele>151.203125</ele>
<time>2012-07-21T12:02:44Z</time>
<extensions>
<speed>0.0</speed>
<temp>0.00</temp>
<bpm>0</bpm>
<rpm>0.00</rpm>
</extensions>
</trkpt>
<trkpt lat="64.118659973" lon="-19.821882248">
<ele>151.207031</ele>
<time>2012-07-21T12:02:49Z</time>
<extensions>
<speed>0.0</speed>
<temp>0.00</temp>
<bpm>0</bpm>
<rpm>0.00</rpm>
</extensions>
</trkpt>
<trkpt lat="64.118659973" lon="-19.821882248">
<ele>151.214844</ele>
<time>2012-07-21T12:02:54Z</time>
<extensions>
<speed>0.0</speed>
<temp>0.00</temp>
<bpm>0</bpm>
<rpm>0.00</rpm>
</extensions>
</trkpt>
<trkpt lat="64.118659973" lon="-19.821882248">
<ele>151.214844</ele>
<time>2012-07-21T12:02:59Z</time>
<extensions>
<speed>0.0</speed>
<temp>0.00</temp>
<bpm>0</bpm>
<rpm>0.00</rpm>
</extensions>
</trkpt>
<trkpt lat="64.118659973" lon="-19.821882248">
<ele>151.222656</ele>
<time>2012-07-21T12:03:04Z</time>
<extensions>
<speed>0.0</speed>
<temp>0.00</temp>
<bpm>0</bpm>
<rpm>0.00</rpm>
</extensions>
</trkpt>
<trkpt lat="64.118659973" lon="-19.821880341">
<ele>151.226563</ele>
<time>2012-07-21T12:03:09Z</time>
<extensions>
<speed>0.0</speed>
<temp>0.00</temp>
<bpm>0</bpm>
<rpm>0.00</rpm>
</extensions>
</trkpt>
<trkpt lat="64.118659973" lon="-19.821880341">
<ele>151.226563</ele>
<time>2012-07-21T12:03:14Z</time>
<extensions>
<speed>0.0</speed>
<temp>0.00</temp>
<bpm>0</bpm>
<rpm>0.00</rpm>
</extensions>
</trkpt>
<trkpt lat="64.118659973" lon="-19.821880341">
<ele>151.230469</ele>
<time>2012-07-21T12:03:19Z</time>
<speed>0.010000</speed>
<extensions>
<speed>0.0</speed>
<temp>0.00</temp>
<bpm>0</bpm>
<rpm>0.00</rpm>
</extensions>
</trkpt>
<trkpt lat="64.118659973" lon="-19.821880341">
<ele>151.230469</ele>
<time>2012-07-21T12:03:24Z</time>
<extensions>
<speed>0.0</speed>
<temp>0.00</temp>
<bpm>0</bpm>
<rpm>0.00</rpm>
</extensions>
</trkpt>
<trkpt lat="64.118659973" lon="-19.821880341">
<ele>151.238281</ele>
<time>2012-07-21T12:03:29Z</time>
<extensions>
<speed>0.0</speed>
<temp>0.00</temp>
<bpm>0</bpm>
<rpm>0.00</rpm>
</extensions>
</trkpt>
<trkpt lat="64.118659973" lon="-19.821880341">
<ele>151.242188</ele>
<time>2012-07-21T12:03:34Z</time>
<extensions>
<speed>0.0</speed>
<temp>0.00</temp>
<bpm>0</bpm>
<rpm>0.00</rpm>
</extensions>
</trkpt>
<trkpt lat="64.118659973" lon="-19.821880341">
<ele>151.250000</ele>
<time>2012-07-21T12:03:39Z</time>
<extensions>
<speed>0.0</speed>
<temp>0.00</temp>
<bpm>0</bpm>
<rpm>0.00</rpm>
</extensions>
</trkpt>
<trkpt lat="64.118659973" lon="-19.821880341">
<ele>151.253906</ele>
<time>2012-07-21T12:03:44Z</time>
<extensions>
<speed>0.0</speed>
<temp>0.00</temp>
<bpm>0</bpm>
<rpm>0.00</rpm>
</extensions>
</trkpt>
<trkpt lat="64.118659973" lon="-19.821880341">
<ele>151.253906</ele>
<time>2012-07-21T12:03:49Z</time>
<extensions>
<speed>0.0</speed>
<temp>0.00</temp>
<bpm>0</bpm>
<rpm>0.00</rpm>
</extensions>
</trkpt>
<trkpt lat="64.118659973" lon="-19.821880341">
<ele>151.257813</ele>
<time>2012-07-21T12:03:54Z</time>
<extensions>
<speed>0.0</speed>
<temp>0.00</temp>
<bpm>0</bpm>
<rpm>0.00</rpm>
</extensions>
</trkpt>
<trkpt lat="64.118659973" lon="-19.821880341">
<ele>151.261719</ele>
<time>2012-07-21T12:03:59Z</time>
<extensions>
<speed>0.0</speed>
<temp>0.00</temp>
<bpm>0</bpm>
<rpm>0.00</rpm>
</extensions>
</trkpt>
<trkpt lat="64.118659973" lon="-19.821880341">
<ele>151.269531</ele>
<time>2012-07-21T12:04:04Z</time>
<extensions>
<speed>0.0</speed>
<temp>0.00</temp>
<bpm>0</bpm>
<rpm>0.00</rpm>
</extensions>
</trkpt>
<trkpt lat="64.118659973" lon="-19.821880341">
<ele>151.269531</ele>
<time>2012-07-21T12:04:09Z</time>
<extensions>
<speed>0.0</speed>
<temp>0.00</temp>
<bpm>0</bpm>
<rpm>0.00</rpm>
</extensions>
</trkpt>
<trkpt lat="64.118659973" lon="-19.821880341">
<ele>151.273438</ele>
<time>2012-07-21T12:04:14Z</time>
<extensions>
<speed>0.0</speed>
<temp>0.00</temp>
<bpm>0</bpm>
<rpm>0.00</rpm>
</extensions>
</trkpt>
<trkpt lat="64.118659973" lon="-19.821878433">
<ele>151.277344</ele>
<time>2012-07-21T12:04:19Z</time>
<extensions>
<speed>0.0</speed>
<temp>0.00</temp>
<bpm>0</bpm>
<rpm>0.00</rpm>
</extensions>
</trkpt>
<trkpt lat="64.118659973" lon="-19.821878433">
<ele>151.285156</ele>
<time>2012-07-21T12:04:24Z</time>
<extensions>
<speed>0.0</speed>
<temp>0.00</temp>
<bpm>0</bpm>
<rpm>0.00</rpm>
</extensions>
</trkpt>
<trkpt lat="64.118659973" lon="-19.821878433">
<ele>151.289063</ele>
<time>2012-07-21T12:04:29Z</time>
<extensions>
<speed>0.0</speed>
<temp>0.00</temp>
<bpm>0</bpm>
<rpm>0.00</rpm>
</extensions>
</trkpt>
<trkpt lat="64.118659973" lon="-19.821878433">
<ele>151.296875</ele>
<time>2012-07-21T12:04:34Z</time>
<extensions>
<speed>0.0</speed>
<temp>0.00</temp>
<bpm>0</bpm>
<rpm>0.00</rpm>
</extensions>
</trkpt>
<trkpt lat="64.118659973" lon="-19.821878433">
<ele>151.304688</ele>
<time>2012-07-21T12:04:39Z</time>
<extensions>
<speed>0.0</speed>
<temp>0.00</temp>
<bpm>0</bpm>
<rpm>0.00</rpm>
</extensions>
</trkpt>
<trkpt lat="64.118659973" lon="-19.821878433">
<ele>151.308594</ele>
<time>2012-07-21T12:04:44Z</time>
<extensions>
<speed>0.0</speed>
<temp>0.00</temp>
<bpm>0</bpm>
<rpm>0.00</rpm>
</extensions>
</trkpt>
<trkpt lat="64.118659973" lon="-19.821878433">
<ele>151.316406</ele>
<time>2012-07-21T12:04:49Z</time>
<extensions>
<speed>0.0</speed>
<temp>0.00</temp>
<bpm>0</bpm>
<rpm>0.00</rpm>
</extensions>
</trkpt>
<trkpt lat="64.118659973" lon="-19.821878433">
<ele>151.324219</ele>
<time>2012-07-21T12:04:54Z</time>
<extensions>
<speed>0.0</speed>
<temp>0.00</temp>
<bpm>0</bpm>
<rpm>0.00</rpm>
</extensions>
</trkpt>
<trkpt lat="64.118659973" lon="-19.821878433">
<ele>151.328125</ele>
<time>2012-07-21T12:04:59Z</time>
<extensions>
<speed>0.0</speed>
<temp>0.00</temp>
<bpm>0</bpm>
<rpm>0.00</rpm>
</extensions>
</trkpt>
<trkpt lat="64.118659973" lon="-19.821878433">
<ele>151.335938</ele>
<time>2012-07-21T12:05:04Z</time>
<extensions>
<speed>0.0</speed>
<temp>0.00</temp>
<bpm>0</bpm>
<rpm>0.00</rpm>
</extensions>
</trkpt>
<trkpt lat="64.118659973" lon="-19.821876526">
<ele>151.347656</ele>
<time>2012-07-21T12:05:09Z</time>
<extensions>
<speed>0.0</speed>
<temp>0.00</temp>
<bpm>0</bpm>
<rpm>0.00</rpm>
</extensions>
</trkpt>
<trkpt lat="64.118659973" lon="-19.821876526">
<ele>151.363281</ele>
<time>2012-07-21T12:05:14Z</time>
<extensions>
<speed>0.0</speed>
<temp>0.00</temp>
<bpm>0</bpm>
<rpm>0.00</rpm>
</extensions>
</trkpt>
<trkpt lat="64.118659973" lon="-19.821876526">
<ele>151.378906</ele>
<time>2012-07-21T12:05:19Z</time>
<extensions>
<speed>0.0</speed>
<temp>0.00</temp>
<bpm>0</bpm>
<rpm>0.00</rpm>
</extensions>
</trkpt>
<trkpt lat="64.118659973" lon="-19.821876526">
<ele>151.390625</ele>
<time>2012-07-21T12:05:24Z</time>
<extensions>
<speed>0.0</speed>
<temp>0.00</temp>
<bpm>0</bpm>
<rpm>0.00</rpm>
</extensions>
</trkpt>
<trkpt lat="64.118659973" lon="-19.821876526">
<ele>151.394531</ele>
<time>2012-07-21T12:05:29Z</time>
<extensions>
<speed>0.0</speed>
<temp>0.00</temp>
<bpm>0</bpm>
<rpm>0.00</rpm>
</extensions>
</trkpt>
<trkpt lat="64.118659973" lon="-19.821876526">
<ele>151.402344</ele>
<time>2012-07-21T12:05:34Z</time>
<extensions>
<speed>0.0</speed>
<temp>0.00</temp>
<bpm>0</bpm>
<rpm>0.00</rpm>
</extensions>
</trkpt>
<trkpt lat="64.118659973" lon="-19.821874619">
<ele>151.410156</ele>
<time>2012-07-21T12:05:39Z</time>
<extensions>
<speed>0.0</speed>
<temp>0.00</temp>
<bpm>0</bpm>
<rpm>0.00</rpm>
</extensions>
</trkpt>
<trkpt lat="64.118659973" lon="-19.821874619">
<ele>151.417969</ele>
<time>2012-07-21T12:05:44Z</time>
<extensions>
<speed>0.0</speed>
<temp>0.00</temp>
<bpm>0</bpm>
<rpm>0.00</rpm>
</extensions>
</trkpt>
<trkpt lat="64.118659973" lon="-19.821874619">
<ele>151.425781</ele>
<time>2012-07-21T12:05:49Z</time>
<extensions>
<speed>0.0</speed>
<temp>0.00</temp>
<bpm>0</bpm>
<rpm>0.00</rpm>
</extensions>
</trkpt>
<trkpt lat="64.118659973" lon="-19.821874619">
<ele>151.433594</ele>
<time>2012-07-21T12:05:54Z</time>
<extensions>
<speed>0.0</speed>
<temp>0.00</temp>
<bpm>0</bpm>
<rpm>0.00</rpm>
</extensions>
</trkpt>
<trkpt lat="64.118659973" lon="-19.821874619">
<ele>151.441406</ele>
<time>2012-07-21T12:05:59Z</time>
<extensions>
<speed>0.0</speed>
<temp>0.00</temp>
<bpm>0</bpm>
<rpm>0.00</rpm>
</extensions>
</trkpt>
<trkpt lat="64.118659973" lon="-19.821874619">
<ele>151.460938</ele>
<time>2012-07-21T12:06:04Z</time>
<extensions>
<speed>0.0</speed>
<temp>0.00</temp>
<bpm>0</bpm>
<rpm>0.00</rpm>
</extensions>
</trkpt>
<trkpt lat="64.118659973" lon="-19.821872711">
<ele>151.472656</ele>
<time>2012-07-21T12:06:09Z</time>
<extensions>
<speed>0.0</speed>
<temp>0.00</temp>
<bpm>0</bpm>
<rpm>0.00</rpm>
</extensions>
</trkpt>
<trkpt lat="64.118659973" lon="-19.821872711">
<ele>151.480469</ele>
<time>2012-07-21T12:06:14Z</time>
<extensions>
<speed>0.0</speed>
<temp>0.00</temp>
<bpm>0</bpm>
<rpm>0.00</rpm>
</extensions>
</trkpt>
<trkpt lat="64.118659973" lon="-19.821872711">
<ele>151.492188</ele>
<time>2012-07-21T12:06:19Z</time>
<extensions>
<speed>0.0</speed>
<temp>0.00</temp>
<bpm>0</bpm>
<rpm>0.00</rpm>
</extensions>
</trkpt>
<trkpt lat="64.118659973" lon="-19.821872711">
<ele>151.503906</ele>
<time>2012-07-21T12:06:24Z</time>
<extensions>
<speed>0.0</speed>
<temp>0.00</temp>
<bpm>0</bpm>
<rpm>0.00</rpm>
</extensions>
</trkpt>
<trkpt lat="64.118659973" lon="-19.821872711">
<ele>151.515625</ele>
<time>2012-07-21T12:06:29Z</time>
<extensions>
<speed>0.0</speed>
<temp>0.00</temp>
<bpm>0</bpm>
<rpm>0.00</rpm>
</extensions>
</trkpt>
<trkpt lat="64.118659973" lon="-19.821872711">
<ele>151.523438</ele>
<time>2012-07-21T12:06:34Z</time>
<extensions>
<speed>0.0</speed>
<temp>0.00</temp>
<bpm>0</bpm>
<rpm>0.00</rpm>
</extensions>
</trkpt>
<trkpt lat="64.118659973" lon="-19.821872711">
<ele>151.527344</ele>
<time>2012-07-21T12:06:39Z</time>
<extensions>
<speed>0.0</speed>
<temp>0.00</temp>
<bpm>0</bpm>
<rpm>0.00</rpm>
</extensions>
</trkpt>
<trkpt lat="64.118659973" lon="-19.821870804">
<ele>151.535156</ele>
<time>2012-07-21T12:06:44Z</time>
<extensions>
<speed>0.0</speed>
<temp>0.00</temp>
<bpm>0</bpm>
<rpm>0.00</rpm>
</extensions>
</trkpt>
<trkpt lat="64.118659973" lon="-19.821870804">
<ele>151.550781</ele>
<time>2012-07-21T12:06:49Z</time>
<extensions>
<speed>0.0</speed>
<temp>0.00</temp>
<bpm>0</bpm>
<rpm>0.00</rpm>
</extensions>
</trkpt>
<trkpt lat="64.118659973" lon="-19.821870804">
<ele>151.554688</ele>
<time>2012-07-21T12:06:54Z</time>
<extensions>
<speed>0.0</speed>
<temp>0.00</temp>
<bpm>0</bpm>
<rpm>0.00</rpm>
</extensions>
</trkpt>
<trkpt lat="64.118659973" lon="-19.821870804">
<ele>151.558594</ele>
<time>2012-07-21T12:06:59Z</time>
<extensions>
<speed>0.0</speed>
<temp>0.00</temp>
<bpm>0</bpm>
<rpm>0.00</rpm>
</extensions>
</trkpt>
<trkpt lat="64.118659973" lon="-19.821870804">
<ele>151.566406</ele>
<time>2012-07-21T12:07:04Z</time>
<extensions>
<speed>0.0</speed>
<temp>0.00</temp>
<bpm>0</bpm>
<rpm>0.00</rpm>
</extensions>
</trkpt>
<trkpt lat="64.118659973" lon="-19.821870804">
<ele>151.582031</ele>
<time>2012-07-21T12:07:09Z</time>
<extensions>
<speed>0.0</speed>
<temp>0.00</temp>
<bpm>0</bpm>
<rpm>0.00</rpm>
</extensions>
</trkpt>
<trkpt lat="64.118659973" lon="-19.821870804">
<ele>151.589844</ele>
<time>2012-07-21T12:07:14Z</time>
<extensions>
<speed>0.0</speed>
<temp>0.00</temp>
<bpm>0</bpm>
<rpm>0.00</rpm>
</extensions>
</trkpt>
<trkpt lat="64.118659973" lon="-19.821870804">
<ele>151.593750</ele>
<time>2012-07-21T12:07:19Z</time>
<extensions>
<speed>0.0</speed>
<temp>0.00</temp>
<bpm>0</bpm>
<rpm>0.00</rpm>
</extensions>
</trkpt>
<trkpt lat="64.118659973" lon="-19.821868896">
<ele>151.597656</ele>
<time>2012-07-21T12:07:24Z</time>
<extensions>
<speed>0.0</speed>
<temp>0.00</temp>
<bpm>0</bpm>
<rpm>0.00</rpm>
</extensions>
</trkpt>
<trkpt lat="64.118659973" lon="-19.821868896">
<ele>151.609375</ele>
<time>2012-07-21T12:07:29Z</time>
<extensions>
<speed>0.0</speed>
<temp>0.00</temp>
<bpm>0</bpm>
<rpm>0.00</rpm>
</extensions>
</trkpt>
<trkpt lat="64.118659973" lon="-19.821868896">
<ele>151.613281</ele>
<time>2012-07-21T12:07:34Z</time>
<extensions>
<speed>0.0</speed>
<temp>0.00</temp>
<bpm>0</bpm>
<rpm>0.00</rpm>
</extensions>
</trkpt>
<trkpt lat="64.118659973" lon="-19.821868896">
<ele>151.613281</ele>
<time>2012-07-21T12:07:39Z</time>
<extensions>
<speed>0.0</speed>
<temp>0.00</temp>
<bpm>0</bpm>
<rpm>0.00</rpm>
</extensions>
</trkpt>
<trkpt lat="64.118659973" lon="-19.821868896">
<ele>151.621094</ele>
<time>2012-07-21T12:07:44Z</time>
<extensions>
<speed>0.0</speed>
<temp>0.00</temp>
<bpm>0</bpm>
<rpm>0.00</rpm>
</extensions>
</trkpt>
<trkpt lat="64.118659973" lon="-19.821868896">
<ele>151.632813</ele>
<time>2012-07-21T12:07:49Z</time>
<extensions>
<speed>0.0</speed>
<temp>0.00</temp>
<bpm>0</bpm>
<rpm>0.00</rpm>
</extensions>
</trkpt>
<trkpt lat="64.118659973" lon="-19.821868896">
<ele>151.636719</ele>
<time>2012-07-21T12:07:54Z</time>
<extensions>
<speed>0.0</speed>
<temp>0.00</temp>
<bpm>0</bpm>
<rpm>0.00</rpm>
</extensions>
</trkpt>
<trkpt lat="64.118659973" lon="-19.821868896">
<ele>151.640625</ele>
<time>2012-07-21T12:07:59Z</time>
<extensions>
<speed>0.0</speed>
<temp>0.00</temp>
<bpm>0</bpm>
<rpm>0.00</rpm>
</extensions>
</trkpt>
<trkpt lat="64.118659973" lon="-19.821868896">
<ele>151.652344</ele>
<time>2012-07-21T12:08:04Z</time>
<extensions>
<speed>0.0</speed>
<temp>0.00</temp>
<bpm>0</bpm>
<rpm>0.00</rpm>
</extensions>
</trkpt>
<trkpt lat="64.118659973" lon="-19.821868896">
<ele>151.660156</ele>
<time>2012-07-21T12:08:09Z</time>
<extensions>
<speed>0.0</speed>
<temp>0.00</temp>
<bpm>0</bpm>
<rpm>0.00</rpm>
</extensions>
</trkpt>
<trkpt lat="64.118659973" lon="-19.821868896">
<ele>151.671875</ele>
<time>2012-07-21T12:08:14Z</time>
<extensions>
<speed>0.0</speed>
<temp>0.00</temp>
<bpm>0</bpm>
<rpm>0.00</rpm>
</extensions>
</trkpt>
<trkpt lat="64.118659973" lon="-19.821868896">
<ele>151.679688</ele>
<time>2012-07-21T12:08:19Z</time>
<extensions>
<speed>0.0</speed>
<temp>0.00</temp>
<bpm>0</bpm>
<rpm>0.00</rpm>
</extensions>
</trkpt>
<trkpt lat="64.118659973" lon="-19.821866989">
<ele>151.691406</ele>
<time>2012-07-21T12:08:24Z</time>
<extensions>
<speed>0.0</speed>
<temp>0.00</temp>
<bpm>0</bpm>
<rpm>0.00</rpm>
</extensions>
</trkpt>
<trkpt lat="64.118659973" lon="-19.821866989">
<ele>151.699219</ele>
<time>2012-07-21T12:08:29Z</time>
<extensions>
<speed>0.0</speed>
<temp>0.00</temp>
<bpm>0</bpm>
<rpm>0.00</rpm>
</extensions>
</trkpt>
<trkpt lat="64.118659973" lon="-19.821866989">
<ele>151.710938</ele>
<time>2012-07-21T12:08:34Z</time>
<speed>0.010000</speed>
<extensions>
<speed>0.0</speed>
<temp>0.00</temp>
<bpm>0</bpm>
<rpm>0.00</rpm>
</extensions>
</trkpt>
<trkpt lat="64.118659973" lon="-19.821866989">
<ele>151.718750</ele>
<time>2012-07-21T12:08:39Z</time>
<extensions>
<speed>0.0</speed>
<temp>0.00</temp>
<bpm>0</bpm>
<rpm>0.00</rpm>
</extensions>
</trkpt>
<trkpt lat="64.118659973" lon="-19.821866989">
<ele>151.726563</ele>
<time>2012-07-21T12:08:44Z</time>
<extensions>
<speed>0.0</speed>
<temp>0.00</temp>
<bpm>0</bpm>
<rpm>0.00</rpm>
</extensions>
</trkpt>
<trkpt lat="64.118659973" lon="-19.821866989">
<ele>151.734375</ele>
<time>2012-07-21T12:08:49Z</time>
<extensions>
<speed>0.0</speed>
<temp>0.00</temp>
<bpm>0</bpm>
<rpm>0.00</rpm>
</extensions>
</trkpt>
<trkpt lat="64.118659973" lon="-19.821866989">
<ele>151.742188</ele>
<time>2012-07-21T12:08:54Z</time>
<extensions>
<speed>0.0</speed>
<temp>0.00</temp>
<bpm>0</bpm>
<rpm>0.00</rpm>
</extensions>
</trkpt>
<trkpt lat="64.118659973" lon="-19.821866989">
<ele>151.750000</ele>
<time>2012-07-21T12:08:59Z</time>
<extensions>
<speed>0.0</speed>
<temp>0.00</temp>
<bpm>0</bpm>
<rpm>0.00</rpm>
</extensions>
</trkpt>
<trkpt lat="64.118659973" lon="-19.821866989">
<ele>151.753906</ele>
<time>2012-07-21T12:09:04Z</time>
<extensions>
<speed>0.0</speed>
<temp>0.00</temp>
<bpm>0</bpm>
<rpm>0.00</rpm>
</extensions>
</trkpt>
<trkpt lat="64.118659973" lon="-19.821866989">
<ele>151.761719</ele>
<time>2012-07-21T12:09:09Z</time>
<extensions>
<speed>0.0</speed>
<temp>0.00</temp>
<bpm>0</bpm>
<rpm>0.00</rpm>
</extensions>
</trkpt>
<trkpt lat="64.118659973" lon="-19.821866989">
<ele>151.769531</ele>
<time>2012-07-21T12:09:14Z</time>
<extensions>
<speed>0.0</speed>
<temp>0.00</temp>
<bpm>0</bpm>
<rpm>0.00</rpm>
</extensions>
</trkpt>
<trkpt lat="64.118659973" lon="-19.821866989">
<ele>151.773438</ele>
<time>2012-07-21T12:09:19Z</time>
<extensions>
<speed>0.0</speed>
<temp>0.00</temp>
<bpm>0</bpm>
<rpm>0.00</rpm>
</extensions>
</trkpt>
<trkpt lat="64.118659973" lon="-19.821865082">
<ele>151.781250</ele>
<time>2012-07-21T12:09:24Z</time>
<extensions>
<speed>0.0</speed>
<temp>0.00</temp>
<bpm>0</bpm>
<rpm>0.00</rpm>
</extensions>
</trkpt>
<trkpt lat="64.118659973" lon="-19.821865082">
<ele>151.789063</ele>
<time>2012-07-21T12:09:29Z</time>
<extensions>
<speed>0.0</speed>
<temp>0.00</temp>
<bpm>0</bpm>
<rpm>0.00</rpm>
</extensions>
</trkpt>
<trkpt lat="64.118659973" lon="-19.821865082">
<ele>151.796875</ele>
<time>2012-07-21T12:09:34Z</time>
<extensions>
<speed>0.0</speed>
<temp>0.00</temp>
<bpm>0</bpm>
<rpm>0.00</rpm>
</extensions>
</trkpt>
<trkpt lat="64.118659973" lon="-19.821865082">
<ele>151.808594</ele>
<time>2012-07-21T12:09:39Z</time>
<extensions>
<speed>0.0</speed>
<temp>0.00</temp>
<bpm>0</bpm>
<rpm>0.00</rpm>
</extensions>
</trkpt>
<trkpt lat="64.118659973" lon="-19.821866989">
<ele>151.816406</ele>
<time>2012-07-21T12:09:44Z</time>
<extensions>
<speed>0.0</speed>
<temp>0.00</temp>
<bpm>0</bpm>
<rpm>0.00</rpm>
</extensions>
</trkpt>
<trkpt lat="64.118659973" lon="-19.821865082">
<ele>151.824219</ele>
<time>2012-07-21T12:09:49Z</time>
<extensions>
<speed>0.0</speed>
<temp>0.00</temp>
<bpm>0</bpm>
<rpm>0.00</rpm>
</extensions>
</trkpt>
<trkpt lat="64.118659973" lon="-19.821865082">
<ele>151.835938</ele>
<time>2012-07-21T12:09:54Z</time>
<extensions>
<speed>0.0</speed>
<temp>0.00</temp>
<bpm>0</bpm>
<rpm>0.00</rpm>
</extensions>
</trkpt>
<trkpt lat="64.118659973" lon="-19.821865082">
<ele>151.847656</ele>
<time>2012-07-21T12:09:59Z</time>
<extensions>
<speed>0.0</speed>
<temp>0.00</temp>
<bpm>0</bpm>
<rpm>0.00</rpm>
</extensions>
</trkpt>
<trkpt lat="64.118659973" lon="-19.821865082">
<ele>151.855469</ele>
<time>2012-07-21T12:10:04Z</time>
<extensions>
<speed>0.0</speed>
<temp>0.00</temp>
<bpm>0</bpm>
<rpm>0.00</rpm>
</extensions>
</trkpt>
<trkpt lat="64.118659973" lon="-19.821865082">
<ele>151.867188</ele>
<time>2012-07-21T12:10:09Z</time>
<extensions>
<speed>0.0</speed>
<temp>0.00</temp>
<bpm>0</bpm>
<rpm>0.00</rpm>
</extensions>
</trkpt>
<trkpt lat="64.118659973" lon="-19.821865082">
<ele>151.871094</ele>
<time>2012-07-21T12:10:14Z</time>
<extensions>
<speed>0.0</speed>
<temp>0.00</temp>
<bpm>0</bpm>
<rpm>0.00</rpm>
</extensions>
</trkpt>
<trkpt lat="64.118659973" lon="-19.821865082">
<ele>151.875000</ele>
<time>2012-07-21T12:10:19Z</time>
<extensions>
<speed>0.0</speed>
<temp>0.00</temp>
<bpm>0</bpm>
<rpm>0.00</rpm>
</extensions>
</trkpt>
<trkpt lat="64.118659973" lon="-19.821865082">
<ele>151.886719</ele>
<time>2012-07-21T12:10:24Z</time>
<extensions>
<speed>0.0</speed>
<temp>0.00</temp>
<bpm>0</bpm>
<rpm>0.00</rpm>
</extensions>
</trkpt>
<trkpt lat="64.118659973" lon="-19.821865082">
<ele>151.890625</ele>
<time>2012-07-21T12:10:29Z</time>
<extensions>
<speed>0.0</speed>
<temp>0.00</temp>
<bpm>0</bpm>
<rpm>0.00</rpm>
</extensions>
</trkpt>
<trkpt lat="64.118659973" lon="-19.821865082">
<ele>151.902344</ele>
<time>2012-07-21T12:10:34Z</time>
<extensions>
<speed>0.0</speed>
<temp>0.00</temp>
<bpm>0</bpm>
<rpm>0.00</rpm>
</extensions>
</trkpt>
<trkpt lat="64.118659973" lon="-19.821865082">
<ele>151.906250</ele>
<time>2012-07-21T12:10:39Z</time>
<extensions>
<speed>0.0</speed>
<temp>0.00</temp>
<bpm>0</bpm>
<rpm>0.00</rpm>
</extensions>
</trkpt>
<trkpt lat="64.118659973" lon="-19.821865082">
<ele>151.921875</ele>
<time>2012-07-21T12:10:44Z</time>
<extensions>
<speed>0.0</speed>
<temp>0.00</temp>
<bpm>0</bpm>
<rpm>0.00</rpm>
</extensions>
</trkpt>
<trkpt lat="64.118659973" lon="-19.821866989">
<ele>151.929688</ele>
<time>2012-07-21T12:10:49Z</time>
<extensions>
<speed>0.0</speed>
<temp>0.00</temp>
<bpm>0</bpm>
<rpm>0.00</rpm>
</extensions>
</trkpt>
<trkpt lat="64.118659973" lon="-19.821866989">
<ele>151.941406</ele>
<time>2012-07-21T12:10:54Z</time>
<extensions>
<speed>0.0</speed>
<temp>0.00</temp>
<bpm>0</bpm>
<rpm>0.00</rpm>
</extensions>
</trkpt>
<trkpt lat="64.118659973" lon="-19.821866989">
<ele>151.949219</ele>
<time>2012-07-21T12:10:59Z</time>
<extensions>
<speed>0.0</speed>
<temp>0.00</temp>
<bpm>0</bpm>
<rpm>0.00</rpm>
</extensions>
</trkpt>
<trkpt lat="64.118659973" lon="-19.821866989">
<ele>151.957031</ele>
<time>2012-07-21T12:11:04Z</time>
<extensions>
<speed>0.0</speed>
<temp>0.00</temp>
<bpm>0</bpm>
<rpm>0.00</rpm>
</extensions>
</trkpt>
<trkpt lat="64.118659973" lon="-19.821866989">
<ele>151.964844</ele>
<time>2012-07-21T12:11:09Z</time>
<extensions>
<speed>0.0</speed>
<temp>0.00</temp>
<bpm>0</bpm>
<rpm>0.00</rpm>
</extensions>
</trkpt>
<trkpt lat="64.118659973" lon="-19.821866989">
<ele>151.976563</ele>
<time>2012-07-21T12:11:14Z</time>
<extensions>
<speed>0.0</speed>
<temp>0.00</temp>
<bpm>0</bpm>
<rpm>0.00</rpm>
</extensions>
</trkpt>
<trkpt lat="64.118659973" lon="-19.821866989">
<ele>151.980469</ele>
<time>2012-07-21T12:11:19Z</time>
<extensions>
<speed>0.0</speed>
<temp>0.00</temp>
<bpm>0</bpm>
<rpm>0.00</rpm>
</extensions>
</trkpt>
<trkpt lat="64.118659973" lon="-19.821866989">
<ele>151.988281</ele>
<time>2012-07-21T12:11:24Z</time>
<extensions>
<speed>0.0</speed>
<temp>0.00</temp>
<bpm>0</bpm>
<rpm>0.00</rpm>
</extensions>
</trkpt>
<trkpt lat="64.118659973" lon="-19.821866989">
<ele>151.992188</ele>
<time>2012-07-21T12:11:29Z</time>
<extensions>
<speed>0.0</speed>
<temp>0.00</temp>
<bpm>0</bpm>
<rpm>0.00</rpm>
</extensions>
</trkpt>
<trkpt lat="64.118659973" lon="-19.821866989">
<ele>151.996094</ele>
<time>2012-07-21T12:11:34Z</time>
<extensions>
<speed>0.0</speed>
<temp>0.00</temp>
<bpm>0</bpm>
<rpm>0.00</rpm>
</extensions>
</trkpt>
<trkpt lat="64.118659973" lon="-19.821866989">
<ele>152.000000</ele>
<time>2012-07-21T12:11:39Z</time>
<extensions>
<speed>0.0</speed>
<temp>0.00</temp>
<bpm>0</bpm>
<rpm>0.00</rpm>
</extensions>
</trkpt>
<trkpt lat="64.118659973" lon="-19.821866989">
<ele>152.003906</ele>
<time>2012-07-21T12:11:44Z</time>
<extensions>
<speed>0.0</speed>
<temp>0.00</temp>
<bpm>0</bpm>
<rpm>0.00</rpm>
</extensions>
</trkpt>
<trkpt lat="64.118659973" lon="-19.821866989">
<ele>152.011719</ele>
<time>2012-07-21T12:11:49Z</time>
<extensions>
<speed>0.0</speed>
<temp>0.00</temp>
<bpm>0</bpm>
<rpm>0.00</rpm>
</extensions>
</trkpt>
<trkpt lat="64.118659973" lon="-19.821866989">
<ele>152.011719</ele>
<time>2012-07-21T12:11:54Z</time>
<extensions>
<speed>0.0</speed>
<temp>0.00</temp>
<bpm>0</bpm>
<rpm>0.00</rpm>
</extensions>
</trkpt>
<trkpt lat="64.118659973" lon="-19.821866989">
<ele>152.015625</ele>
<time>2012-07-21T12:11:59Z</time>
<extensions>
<speed>0.0</speed>
<temp>0.00</temp>
<bpm>0</bpm>
<rpm>0.00</rpm>
</extensions>
</trkpt>
<trkpt lat="64.118659973" lon="-19.821866989">
<ele>152.019531</ele>
<time>2012-07-21T12:12:04Z</time>
<extensions>
<speed>0.0</speed>
<temp>0.00</temp>
<bpm>0</bpm>
<rpm>0.00</rpm>
</extensions>
</trkpt>
<trkpt lat="64.118659973" lon="-19.821866989">
<ele>152.015625</ele>
<time>2012-07-21T12:12:09Z</time>
<extensions>
<speed>0.0</speed>
<temp>0.00</temp>
<bpm>0</bpm>
<rpm>0.00</rpm>
</extensions>
</trkpt>
<trkpt lat="64.118659973" lon="-19.821868896">
<ele>152.019531</ele>
<time>2012-07-21T12:12:14Z</time>
<extensions>
<speed>0.0</speed>
<temp>0.00</temp>
<bpm>0</bpm>
<rpm>0.00</rpm>
</extensions>
</trkpt>
<trkpt lat="64.118659973" lon="-19.821868896">
<ele>152.027344</ele>
<time>2012-07-21T12:12:19Z</time>
<extensions>
<speed>0.0</speed>
<temp>0.00</temp>
<bpm>0</bpm>
<rpm>0.00</rpm>
</extensions>
</trkpt>
<trkpt lat="64.118659973" lon="-19.821868896">
<ele>152.035156</ele>
<time>2012-07-21T12:12:24Z</time>
<extensions>
<speed>0.0</speed>
<temp>0.00</temp>
<bpm>0</bpm>
<rpm>0.00</rpm>
</extensions>
</trkpt>
<trkpt lat="64.118659973" lon="-19.821868896">
<ele>152.039063</ele>
<time>2012-07-21T12:12:29Z</time>
<extensions>
<speed>0.0</speed>
<temp>0.00</temp>
<bpm>0</bpm>
<rpm>0.00</rpm>
</extensions>
</trkpt>
<trkpt lat="64.118659973" lon="-19.821868896">
<ele>152.046875</ele>
<time>2012-07-21T12:12:34Z</time>
<extensions>
<speed>0.0</speed>
<temp>0.00</temp>
<bpm>0</bpm>
<rpm>0.00</rpm>
</extensions>
</trkpt>
<trkpt lat="64.118659973" lon="-19.821868896">
<ele>152.050781</ele>
<time>2012-07-21T12:12:39Z</time>
<extensions>
<speed>0.0</speed>
<temp>0.00</temp>
<bpm>0</bpm>
<rpm>0.00</rpm>
</extensions>
</trkpt>
<trkpt lat="64.118659973" lon="-19.821868896">
<ele>152.058594</ele>
<time>2012-07-21T12:12:44Z</time>
<extensions>
<speed>0.0</speed>
<temp>0.00</temp>
<bpm>0</bpm>
<rpm>0.00</rpm>
</extensions>
</trkpt>
<trkpt lat="64.118659973" lon="-19.821868896">
<ele>152.066406</ele>
<time>2012-07-21T12:12:49Z</time>
<extensions>
<speed>0.0</speed>
<temp>0.00</temp>
<bpm>0</bpm>
<rpm>0.00</rpm>
</extensions>
</trkpt>
<trkpt lat="64.118659973" lon="-19.821868896">
<ele>152.070313</ele>
<time>2012-07-21T12:12:54Z</time>
<extensions>
<speed>0.0</speed>
<temp>0.00</temp>
<bpm>0</bpm>
<rpm>0.00</rpm>
</extensions>
</trkpt>
<trkpt lat="64.118659973" lon="-19.821868896">
<ele>152.082031</ele>
<time>2012-07-21T12:12:59Z</time>
<extensions>
<speed>0.0</speed>
<temp>0.00</temp>
<bpm>0</bpm>
<rpm>0.00</rpm>
</extensions>
</trkpt>
<trkpt lat="64.118659973" lon="-19.821868896">
<ele>152.089844</ele>
<time>2012-07-21T12:13:04Z</time>
<extensions>
<speed>0.0</speed>
<temp>0.00</temp>
<bpm>0</bpm>
<rpm>0.00</rpm>
</extensions>
</trkpt>
<trkpt lat="64.118659973" lon="-19.821868896">
<ele>152.097656</ele>
<time>2012-07-21T12:13:09Z</time>
<extensions>
<speed>0.0</speed>
<temp>0.00</temp>
<bpm>0</bpm>
<rpm>0.00</rpm>
</extensions>
</trkpt>
<trkpt lat="64.118659973" lon="-19.821868896">
<ele>152.113281</ele>
<time>2012-07-21T12:13:14Z</time>
<extensions>
<speed>0.0</speed>
<temp>0.00</temp>
<bpm>0</bpm>
<rpm>0.00</rpm>
</extensions>
</trkpt>
<trkpt lat="64.118659973" lon="-19.821868896">
<ele>152.125000</ele>
<time>2012-07-21T12:13:19Z</time>
<extensions>
<speed>0.0</speed>
<temp>0.00</temp>
<bpm>0</bpm>
<rpm>0.00</rpm>
</extensions>
</trkpt>
<trkpt lat="64.118659973" lon="-19.821870804">
<ele>152.136719</ele>
<time>2012-07-21T12:13:24Z</time>
<extensions>
<speed>0.0</speed>
<temp>0.00</temp>
<bpm>0</bpm>
<rpm>0.00</rpm>
</extensions>
</trkpt>
<trkpt lat="64.118659973" lon="-19.821870804">
<ele>152.144531</ele>
<time>2012-07-21T12:13:29Z</time>
<extensions>
<speed>0.0</speed>
<temp>0.00</temp>
<bpm>0</bpm>
<rpm>0.00</rpm>
</extensions>
</trkpt>
<trkpt lat="64.118659973" lon="-19.821870804">
<ele>152.152344</ele>
<time>2012-07-21T12:13:34Z</time>
<extensions>
<speed>0.0</speed>
<temp>0.00</temp>
<bpm>0</bpm>
<rpm>0.00</rpm>
</extensions>
</trkpt>
<trkpt lat="64.118659973" lon="-19.821870804">
<ele>152.191406</ele>
<time>2012-07-21T12:13:39Z</time>
<speed>0.030000</speed>
<extensions>
<speed>0.0</speed>
<temp>0.00</temp>
<bpm>0</bpm>
<rpm>0.00</rpm>
</extensions>
</trkpt>
<trkpt lat="64.118659973" lon="-19.821870804">
<ele>152.246094</ele>
<time>2012-07-21T12:13:44Z</time>
<speed>0.010000</speed>
<extensions>
<speed>0.0</speed>
<temp>0.00</temp>
<bpm>0</bpm>
<rpm>0.00</rpm>
</extensions>
</trkpt>
<trkpt lat="64.118659973" lon="-19.821870804">
<ele>152.269531</ele>
<time>2012-07-21T12:13:49Z</time>
<speed>0.010000</speed>
<extensions>
<speed>0.0</speed>
<temp>0.00</temp>
<bpm>0</bpm>
<rpm>0.00</rpm>
</extensions>
</trkpt>
<trkpt lat="64.118659973" lon="-19.821870804">
<ele>152.304688</ele>
<time>2012-07-21T12:13:54Z</time>
<extensions>
<speed>0.0</speed>
<temp>0.00</temp>
<bpm>0</bpm>
<rpm>0.00</rpm>
</extensions>
</trkpt>
<trkpt lat="64.118659973" lon="-19.821870804">
<ele>152.324219</ele>
<time>2012-07-21T12:13:59Z</time>
<speed>0.020000</speed>
<extensions>
<speed>0.0</speed>
<temp>0.00</temp>
<bpm>0</bpm>
<rpm>0.00</rpm>
</extensions>
</trkpt>
<trkpt lat="64.118659973" lon="-19.821870804">
<ele>152.355469</ele>
<time>2012-07-21T12:14:04Z</time>
<extensions>
<speed>0.0</speed>
<temp>0.00</temp>
<bpm>0</bpm>
<rpm>0.00</rpm>
</extensions>
</trkpt>
<trkpt lat="64.118659973" lon="-19.821870804">
<ele>152.371094</ele>
<time>2012-07-21T12:14:09Z</time>
<extensions>
<speed>0.0</speed>
<temp>0.00</temp>
<bpm>0</bpm>
<rpm>0.00</rpm>
</extensions>
</trkpt>
<trkpt lat="64.118659973" lon="-19.821872711">
<ele>152.398438</ele>
<time>2012-07-21T12:14:14Z</time>
<speed>0.010000</speed>
<extensions>
<speed>0.0</speed>
<temp>0.00</temp>
<bpm>0</bpm>
<rpm>0.00</rpm>
</extensions>
</trkpt>
<trkpt lat="64.118659973" lon="-19.821872711">
<ele>152.417969</ele>
<time>2012-07-21T12:14:19Z</time>
<speed>0.010000</speed>
<extensions>
<speed>0.0</speed>
<temp>0.00</temp>
<bpm>0</bpm>
<rpm>0.00</rpm>
</extensions>
</trkpt>
<trkpt lat="64.118659973" lon="-19.821872711">
<ele>152.437500</ele>
<time>2012-07-21T12:14:24Z</time>
<speed>0.010000</speed>
<extensions>
<speed>0.0</speed>
<temp>0.00</temp>
<bpm>0</bpm>
<rpm>0.00</rpm>
</extensions>
</trkpt>
<trkpt lat="64.118659973" lon="-19.821872711">
<ele>152.457031</ele>
<time>2012-07-21T12:14:29Z</time>
<speed>0.010000</speed>
<extensions>
<speed>0.0</speed>
<temp>0.00</temp>
<bpm>0</bpm>
<rpm>0.00</rpm>
</extensions>
</trkpt>
<trkpt lat="64.118659973" lon="-19.821872711">
<ele>152.476563</ele>
<time>2012-07-21T12:14:34Z</time>
<extensions>
<speed>0.0</speed>
<temp>0.00</temp>
<bpm>0</bpm>
<rpm>0.00</rpm>
</extensions>
</trkpt>
<trkpt lat="64.118659973" lon="-19.821872711">
<ele>152.492188</ele>
<time>2012-07-21T12:14:39Z</time>
<extensions>
<speed>0.0</speed>
<temp>0.00</temp>
<bpm>0</bpm>
<rpm>0.00</rpm>
</extensions>
</trkpt>
<trkpt lat="64.118659973" lon="-19.821872711">
<ele>152.500000</ele>
<time>2012-07-21T12:14:44Z</time>
<speed>0.750000</speed>
<extensions>
<speed>0.8</speed>
<temp>0.00</temp>
<bpm>0</bpm>
<rpm>0.00</rpm>
</extensions>
</trkpt>
<trkpt lat="64.118667603" lon="-19.821897507">
<ele>153.371094</ele>
<time>2012-07-21T12:14:49Z</time>
<speed>0.070000</speed>
<extensions>
<speed>0.1</speed>
<temp>0.00</temp>
<bpm>0</bpm>
<rpm>0.00</rpm>
</extensions>
</trkpt>
<trkpt lat="64.118644714" lon="-19.821949005">
<ele>154.390625</ele>
<time>2012-07-21T12:14:54Z</time>
<speed>1.040000</speed>
<extensions>
<speed>1.0</speed>
<temp>0.00</temp>
<bpm>0</bpm>
<rpm>0.00</rpm>
</extensions>
</trkpt>
<trkpt lat="64.118576050" lon="-19.822067261">
<ele>154.675781</ele>
<time>2012-07-21T12:14:59Z</time>
<speed>2.280000</speed>
<extensions>
<speed>2.3</speed>
<temp>0.00</temp>
<bpm>0</bpm>
<rpm>0.00</rpm>
</extensions>
</trkpt>
<trkpt lat="64.118499756" lon="-19.822250366">
<ele>154.488281</ele>
<time>2012-07-21T12:15:04Z</time>
<speed>3.160000</speed>
<extensions>
<speed>3.2</speed>
<temp>0.00</temp>
<bpm>0</bpm>
<rpm>0.00</rpm>
</extensions>
</trkpt>
<trkpt lat="64.118354797" lon="-19.822349548">
<ele>154.574219</ele>
<time>2012-07-21T12:15:09Z</time>
<speed>3.390000</speed>
<extensions>
<speed>3.4</speed>
<temp>0.00</temp>
<bpm>0</bpm>
<rpm>0.00</rpm>
</extensions>
</trkpt>
<trkpt lat="64.118209839" lon="-19.822504044">
<ele>154.394531</ele>
<time>2012-07-21T12:15:14Z</time>
<speed>3.850000</speed>
<extensions>
<speed>3.8</speed>
<temp>0.00</temp>
<bpm>0</bpm>
<rpm>0.00</rpm>
</extensions>
</trkpt>
<trkpt lat="64.118041992" lon="-19.822675705">
<ele>154.199219</ele>
<time>2012-07-21T12:15:19Z</time>
<speed>3.900000</speed>
<extensions>
<speed>3.9</speed>
<temp>0.00</temp>
<bpm>0</bpm>
<rpm>0.00</rpm>
</extensions>
</trkpt>
<trkpt lat="64.117889404" lon="-19.822837830">
<ele>154.109375</ele>
<time>2012-07-21T12:15:24Z</time>
<speed>3.730000</speed>
<extensions>
<speed>3.7</speed>
<temp>0.00</temp>
<bpm>0</bpm>
<rpm>0.00</rpm>
</extensions>
</trkpt>
<trkpt lat="64.117736816" lon="-19.823005676">
<ele>154.199219</ele>
<time>2012-07-21T12:15:29Z</time>
<speed>4.170000</speed>
<extensions>
<speed>4.2</speed>
<temp>0.00</temp>
<bpm>0</bpm>
<rpm>0.00</rpm>
</extensions>
</trkpt>
<trkpt lat="64.117561340" lon="-19.823135376">
<ele>154.398438</ele>
<time>2012-07-21T12:15:34Z</time>
<speed>3.630000</speed>
<extensions>
<speed>3.6</speed>
<temp>0.00</temp>
<bpm>0</bpm>
<rpm>0.00</rpm>
</extensions>
</trkpt>
<trkpt lat="64.117408752" lon="-19.823217392">
<ele>154.414063</ele>
<time>2012-07-21T12:15:39Z</time>
<speed>3.390000</speed>
<extensions>
<speed>3.4</speed>
<temp>0.00</temp>
<bpm>0</bpm>
<rpm>0.00</rpm>
</extensions>
</trkpt>
<trkpt lat="64.117256165" lon="-19.823293686">
<ele>154.320313</ele>
<time>2012-07-21T12:15:44Z</time>
<speed>3.760000</speed>
<extensions>
<speed>3.8</speed>
<temp>0.00</temp>
<bpm>0</bpm>
<rpm>0.00</rpm>
</extensions>
</trkpt>
<trkpt lat="64.117073059" lon="-19.823358536">
<ele>153.386719</ele>
<time>2012-07-21T12:15:49Z</time>
<speed>4.770000</speed>
<extensions>
<speed>4.8</speed>
<temp>0.00</temp>
<bpm>0</bpm>
<rpm>0.00</rpm>
</extensions>
</trkpt>
<trkpt lat="64.116828918" lon="-19.823419571">
<ele>151.957031</ele>
<time>2012-07-21T12:15:54Z</time>
<speed>6.090000</speed>
<extensions>
<speed>6.1</speed>
<temp>0.00</temp>
<bpm>0</bpm>
<rpm>0.00</rpm>
</extensions>
</trkpt>
<trkpt lat="64.116516113" lon="-19.823526382">
<ele>150.277344</ele>
<time>2012-07-21T12:15:59Z</time>
<speed>7.300000</speed>
<extensions>
<speed>7.3</speed>
<temp>0.00</temp>
<bpm>0</bpm>
<rpm>0.00</rpm>
</extensions>
</trkpt>
<trkpt lat="64.116203308" lon="-19.823677063">
<ele>148.933594</ele>
<time>2012-07-21T12:16:04Z</time>
<speed>6.970000</speed>
<extensions>
<speed>7.0</speed>
<temp>0.00</temp>
<bpm>0</bpm>
<rpm>0.00</rpm>
</extensions>
</trkpt>
<trkpt lat="64.115928650" lon="-19.823871613">
<ele>148.511719</ele>
<time>2012-07-21T12:16:09Z</time>
<speed>5.720000</speed>
<extensions>
<speed>5.7</speed>
<temp>0.00</temp>
<bpm>0</bpm>
<rpm>0.00</rpm>
</extensions>
</trkpt>
<trkpt lat="64.115722656" lon="-19.824163437">
<ele>147.496094</ele>
<time>2012-07-21T12:16:14Z</time>
<speed>5.060000</speed>
<extensions>
<speed>5.1</speed>
<temp>0.00</temp>
<bpm>0</bpm>
<rpm>0.00</rpm>
</extensions>
</trkpt>
<trkpt lat="64.115577698" lon="-19.824525833">
<ele>146.964844</ele>
<time>2012-07-21T12:16:19Z</time>
<speed>4.470000</speed>
<extensions>
<speed>4.5</speed>
<temp>0.00</temp>
<bpm>0</bpm>
<rpm>0.00</rpm>
</extensions>
</trkpt>
<trkpt lat="64.115486145" lon="-19.824966431">
<ele>147.574219</ele>
<time>2012-07-21T12:16:24Z</time>
<speed>4.960000</speed>
<extensions>
<speed>5.0</speed>
<temp>0.00</temp>
<bpm>0</bpm>
<rpm>0.00</rpm>
</extensions>
</trkpt>
<trkpt lat="64.115447998" lon="-19.825498581">
<ele>148.203125</ele>
<time>2012-07-21T12:16:29Z</time>
<speed>5.460000</speed>
<extensions>
<speed>5.5</speed>
<temp>0.00</temp>
<bpm>0</bpm>
<rpm>0.00</rpm>
</extensions>
</trkpt>
<trkpt lat="64.115493774" lon="-19.826028824">
<ele>149.761719</ele>
<time>2012-07-21T12:16:34Z</time>
<speed>4.700000</speed>
<extensions>
<speed>4.7</speed>
<temp>0.00</temp>
<bpm>0</bpm>
<rpm>0.00</rpm>
</extensions>
</trkpt>
<trkpt lat="64.115570068" lon="-19.826480865">
<ele>151.160156</ele>
<time>2012-07-21T12:16:39Z</time>
<speed>4.400000</speed>
<extensions>
<speed>4.4</speed>
<temp>0.00</temp>
<bpm>0</bpm>
<rpm>0.00</rpm>
</extensions>
</trkpt>
<trkpt lat="64.115631104" lon="-19.826961517">
<ele>151.027344</ele>
<time>2012-07-21T12:16:44Z</time>
<speed>5.250000</speed>
<extensions>
<speed>5.2</speed>
<temp>0.00</temp>
<bpm>0</bpm>
<rpm>0.00</rpm>
</extensions>
</trkpt>
<trkpt lat="64.115692139" lon="-19.827522278">
<ele>151.363281</ele>
<time>2012-07-21T12:16:49Z</time>
<speed>5.770000</speed>
<extensions>
<speed>5.8</speed>
<temp>0.00</temp>
<bpm>0</bpm>
<rpm>0.00</rpm>
</extensions>
</trkpt>
<trkpt lat="64.115745544" lon="-19.828081131">
<ele>151.914063</ele>
<time>2012-07-21T12:16:54Z</time>
<speed>5.040000</speed>
<extensions>
<speed>5.0</speed>
<temp>0.00</temp>
<bpm>0</bpm>
<rpm>0.00</rpm>
</extensions>
</trkpt>
<trkpt lat="64.115791321" lon="-19.828565598">
<ele>152.347656</ele>
<time>2012-07-21T12:16:59Z</time>
<speed>4.600000</speed>
<extensions>
<speed>4.6</speed>
<temp>0.00</temp>
<bpm>0</bpm>
<rpm>0.00</rpm>
</extensions>
</trkpt>
<trkpt lat="64.115837097" lon="-19.829002380">
<ele>152.246094</ele>
<time>2012-07-21T12:17:04Z</time>
<speed>4.370000</speed>
<extensions>
<speed>4.4</speed>
<temp>0.00</temp>
<bpm>0</bpm>
<rpm>0.00</rpm>
</extensions>
</trkpt>
<trkpt lat="64.115806580" lon="-19.829406738">
<ele>152.261719</ele>
<time>2012-07-21T12:17:09Z</time>
<speed>4.500000</speed>
<extensions>
<speed>4.5</speed>
<temp>0.00</temp>
<bpm>0</bpm>
<rpm>0.00</rpm>
</extensions>
</trkpt>
<trkpt lat="64.115600586" lon="-19.829683304">
<ele>150.859375</ele>
<time>2012-07-21T12:17:14Z</time>
<speed>6.240000</speed>
<extensions>
<speed>6.2</speed>
<temp>0.00</temp>
<bpm>0</bpm>
<rpm>0.00</rpm>
</extensions>
</trkpt>
<trkpt lat="64.115303040" lon="-19.829957962">
<ele>148.554688</ele>
<time>2012-07-21T12:17:19Z</time>
<speed>7.250000</speed>
<extensions>
<speed>7.3</speed>
<temp>0.00</temp>
<bpm>0</bpm>
<rpm>0.00</rpm>
</extensions>
</trkpt>
<trkpt lat="64.114982605" lon="-19.830249786">
<ele>146.679688</ele>
<time>2012-07-21T12:17:24Z</time>
<speed>7.560000</speed>
<extensions>
<speed>7.6</speed>
<temp>0.00</temp>
<bpm>0</bpm>
<rpm>0.00</rpm>
</extensions>
</trkpt>
<trkpt lat="64.114662170" lon="-19.830513000">
<ele>145.570313</ele>
<time>2012-07-21T12:17:29Z</time>
<speed>7.330000</speed>
<extensions>
<speed>7.3</speed>
<temp>0.00</temp>
<bpm>0</bpm>
<rpm>0.00</rpm>
</extensions>
</trkpt>
<trkpt lat="64.114372253" lon="-19.830776215">
<ele>145.757813</ele>
<time>2012-07-21T12:17:34Z</time>
<speed>6.430000</speed>
<extensions>
<speed>6.4</speed>
<temp>0.00</temp>
<bpm>0</bpm>
<rpm>0.00</rpm>
</extensions>
</trkpt>
<trkpt lat="64.114120483" lon="-19.830984116">
<ele>145.730469</ele>
<time>2012-07-21T12:17:39Z</time>
<speed>5.770000</speed>
<extensions>
<speed>5.8</speed>
<temp>0.00</temp>
<bpm>0</bpm>
<rpm>0.00</rpm>
</extensions>
</trkpt>
<trkpt lat="64.113899231" lon="-19.831136703">
<ele>144.636719</ele>
<time>2012-07-21T12:17:44Z</time>
<speed>4.030000</speed>
<extensions>
<speed>4.0</speed>
<temp>0.00</temp>
<bpm>0</bpm>
<rpm>0.00</rpm>
</extensions>
</trkpt>
<trkpt lat="64.113800049" lon="-19.831176758">
<ele>143.781250</ele>
<time>2012-07-21T12:17:49Z</time>
<speed>2.450000</speed>
<extensions>
<speed>2.4</speed>
<temp>0.00</temp>
<bpm>0</bpm>
<rpm>0.00</rpm>
</extensions>
</trkpt>
<trkpt lat="64.113708496" lon="-19.831010818">
<ele>142.855469</ele>
<time>2012-07-21T12:17:54Z</time>
<speed>2.260000</speed>
<extensions>
<speed>2.3</speed>
<temp>0.00</temp>
<bpm>0</bpm>
<rpm>0.00</rpm>
</extensions>
</trkpt>
<trkpt lat="64.113632202" lon="-19.830825806">
<ele>142.753906</ele>
<time>2012-07-21T12:17:59Z</time>
<speed>2.450000</speed>
<extensions>
<speed>2.4</speed>
<temp>0.00</temp>
<bpm>0</bpm>
<rpm>0.00</rpm>
</extensions>
</trkpt>
<trkpt lat="64.113571167" lon="-19.830661774">
<ele>141.632813</ele>
<time>2012-07-21T12:18:04Z</time>
<speed>2.020000</speed>
<extensions>
<speed>2.0</speed>
<temp>0.00</temp>
<bpm>0</bpm>
<rpm>0.00</rpm>
</extensions>
</trkpt>
<trkpt lat="64.113548279" lon="-19.830566406">
<ele>140.742188</ele>
<time>2012-07-21T12:18:09Z</time>
<speed>0.910000</speed>
<extensions>
<speed>0.9</speed>
<temp>0.00</temp>
<bpm>0</bpm>
<rpm>0.00</rpm>
</extensions>
</trkpt>
<trkpt lat="64.113563538" lon="-19.830638885">
<ele>141.031250</ele>
<time>2012-07-21T12:18:14Z</time>
<speed>0.070000</speed>
<extensions>
<speed>0.1</speed>
<temp>0.00</temp>
<bpm>0</bpm>
<rpm>0.00</rpm>
</extensions>
</trkpt>
<trkpt lat="64.113563538" lon="-19.830627441">
<ele>140.968750</ele>
<time>2012-07-21T12:18:19Z</time>
<extensions>
<speed>0.0</speed>
<temp>0.00</temp>
<bpm>0</bpm>
<rpm>0.00</rpm>
</extensions>
</trkpt>
<trkpt lat="64.113571167" lon="-19.830640793">
<ele>140.941406</ele>
<time>2012-07-21T12:18:24Z</time>
<speed>1.300000</speed>
<extensions>
<speed>1.3</speed>
<temp>0.00</temp>
<bpm>0</bpm>
<rpm>0.00</rpm>
</extensions>
</trkpt>
<trkpt lat="64.113632202" lon="-19.830799103">
<ele>141.800781</ele>
<time>2012-07-21T12:18:29Z</time>
<speed>2.480000</speed>
<extensions>
<speed>2.5</speed>
<temp>0.00</temp>
<bpm>0</bpm>
<rpm>0.00</rpm>
</extensions>
</trkpt>
<trkpt lat="64.113700867" lon="-19.830989838">
<ele>142.945313</ele>
<time>2012-07-21T12:18:34Z</time>
<speed>2.790000</speed>
<extensions>
<speed>2.8</speed>
<temp>0.00</temp>
<bpm>0</bpm>
<rpm>0.00</rpm>
</extensions>
</trkpt>
<trkpt lat="64.113708496" lon="-19.831218719">
<ele>142.753906</ele>
<time>2012-07-21T12:18:39Z</time>
<speed>2.790000</speed>
<extensions>
<speed>2.8</speed>
<temp>0.00</temp>
<bpm>0</bpm>
<rpm>0.00</rpm>
</extensions>
</trkpt>
<trkpt lat="64.113548279" lon="-19.831375122">
<ele>141.351563</ele>
<time>2012-07-21T12:18:44Z</time>
<speed>5.240000</speed>
<extensions>
<speed>5.2</speed>
<temp>0.00</temp>
<bpm>0</bpm>
<rpm>0.00</rpm>
</extensions>
</trkpt>
<trkpt lat="64.113258362" lon="-19.831651688">
<ele>138.796875</ele>
<time>2012-07-21T12:18:49Z</time>
<speed>8.410000</speed>
<extensions>
<speed>8.4</speed>
<temp>0.00</temp>
<bpm>0</bpm>
<rpm>0.00</rpm>
</extensions>
</trkpt>
<trkpt lat="64.112854004" lon="-19.832042694">
<ele>135.683594</ele>
<time>2012-07-21T12:18:54Z</time>
<speed>10.510000</speed>
<extensions>
<speed>10.5</speed>
<temp>0.00</temp>
<bpm>0</bpm>
<rpm>0.00</rpm>
</extensions>
</trkpt>
<trkpt lat="64.112419128" lon="-19.832445145">
<ele>135.785156</ele>
<time>2012-07-21T12:18:59Z</time>
<speed>9.760000</speed>
<extensions>
<speed>9.8</speed>
<temp>0.00</temp>
<bpm>0</bpm>
<rpm>0.00</rpm>
</extensions>
</trkpt>
<trkpt lat="64.112060547" lon="-19.832845688">
<ele>136.972656</ele>
<time>2012-07-21T12:19:04Z</time>
<speed>7.540000</speed>
<extensions>
<speed>7.5</speed>
<temp>0.00</temp>
<bpm>0</bpm>
<rpm>0.00</rpm>
</extensions>
</trkpt>
<trkpt lat="64.111816406" lon="-19.833227158">
<ele>137.925781</ele>
<time>2012-07-21T12:19:09Z</time>
<speed>6.200000</speed>
<extensions>
<speed>6.2</speed>
<temp>0.00</temp>
<bpm>0</bpm>
<rpm>0.00</rpm>
</extensions>
</trkpt>
<trkpt lat="64.111610413" lon="-19.833652496">
<ele>138.921875</ele>
<time>2012-07-21T12:19:14Z</time>
<speed>6.210000</speed>
<extensions>
<speed>6.2</speed>
<temp>0.00</temp>
<bpm>0</bpm>
<rpm>0.00</rpm>
</extensions>
</trkpt>
<trkpt lat="64.111404419" lon="-19.834087372">
<ele>139.261719</ele>
<time>2012-07-21T12:19:19Z</time>
<speed>6.140000</speed>
<extensions>
<speed>6.1</speed>
<temp>0.00</temp>
<bpm>0</bpm>
<rpm>0.00</rpm>
</extensions>
</trkpt>
<trkpt lat="64.111198425" lon="-19.834522247">
<ele>139.308594</ele>
<time>2012-07-21T12:19:24Z</time>
<speed>6.310000</speed>
<extensions>
<speed>6.3</speed>
<temp>0.00</temp>
<bpm>0</bpm>
<rpm>0.00</rpm>
</extensions>
</trkpt>
<trkpt lat="64.110984802" lon="-19.834960938">
<ele>139.578125</ele>
<time>2012-07-21T12:19:29Z</time>
<speed>6.530000</speed>
<extensions>
<speed>6.5</speed>
<temp>0.00</temp>
<bpm>0</bpm>
<rpm>0.00</rpm>
</extensions>
</trkpt>
<trkpt lat="64.110740662" lon="-19.835338593">
<ele>139.699219</ele>
<time>2012-07-21T12:19:34Z</time>
<speed>6.700000</speed>
<extensions>
<speed>6.7</speed>
<temp>0.00</temp>
<bpm>0</bpm>
<rpm>0.00</rpm>
</extensions>
</trkpt>
<trkpt lat="64.110466003" lon="-19.835573196">
<ele>139.843750</ele>
<time>2012-07-21T12:19:39Z</time>
<speed>6.750000</speed>
<extensions>
<speed>6.7</speed>
<temp>0.00</temp>
<bpm>0</bpm>
<rpm>0.00</rpm>
</extensions>
</trkpt>
<trkpt lat="64.110168457" lon="-19.835702896">
<ele>139.171875</ele>
<time>2012-07-21T12:19:44Z</time>
<speed>6.880000</speed>
<extensions>
<speed>6.9</speed>
<temp>0.00</temp>
<bpm>0</bpm>
<rpm>0.00</rpm>
</extensions>
</trkpt>
<trkpt lat="64.109855652" lon="-19.835828781">
<ele>139.074219</ele>
<time>2012-07-21T12:19:49Z</time>
<speed>7.080000</speed>
<extensions>
<speed>7.1</speed>
<temp>0.00</temp>
<bpm>0</bpm>
<rpm>0.00</rpm>
</extensions>
</trkpt>
<trkpt lat="64.109550476" lon="-19.835929871">
<ele>139.242188</ele>
<time>2012-07-21T12:19:54Z</time>
<speed>6.820000</speed>
<extensions>
<speed>6.8</speed>
<temp>0.00</temp>
<bpm>0</bpm>
<rpm>0.00</rpm>
</extensions>
</trkpt>
<trkpt lat="64.109245300" lon="-19.835964203">
<ele>139.121094</ele>
<time>2012-07-21T12:19:59Z</time>
<speed>6.890000</speed>
<extensions>
<speed>6.9</speed>
<temp>0.00</temp>
<bpm>0</bpm>
<rpm>0.00</rpm>
</extensions>
</trkpt>
<trkpt lat="64.108947754" lon="-19.835939407">
<ele>137.617188</ele>
<time>2012-07-21T12:20:04Z</time>
<speed>6.570000</speed>
<extensions>
<speed>6.6</speed>
<temp>0.00</temp>
<bpm>0</bpm>
<rpm>0.00</rpm>
</extensions>
</trkpt>
<trkpt lat="64.108665466" lon="-19.835886002">
<ele>137.289063</ele>
<time>2012-07-21T12:20:09Z</time>
<speed>6.600000</speed>
<extensions>
<speed>6.6</speed>
<temp>0.00</temp>
<bpm>0</bpm>
<rpm>0.00</rpm>
</extensions>
</trkpt>
<trkpt lat="64.108360291" lon="-19.835832596">
<ele>137.265625</ele>
<time>2012-07-21T12:20:14Z</time>
<speed>6.940000</speed>
<extensions>
<speed>6.9</speed>
<temp>0.00</temp>
<bpm>0</bpm>
<rpm>0.00</rpm>
</extensions>
</trkpt>
<trkpt lat="64.108078003" lon="-19.835781097">
<ele>137.464844</ele>
<time>2012-07-21T12:20:19Z</time>
<speed>5.850000</speed>
<extensions>
<speed>5.8</speed>
<temp>0.00</temp>
<bpm>0</bpm>
<rpm>0.00</rpm>
</extensions>
</trkpt>
<trkpt lat="64.107818604" lon="-19.835739136">
<ele>137.269531</ele>
<time>2012-07-21T12:20:24Z</time>
<speed>5.870000</speed>
<extensions>
<speed>5.9</speed>
<temp>0.00</temp>
<bpm>0</bpm>
<rpm>0.00</rpm>
</extensions>
</trkpt>
<trkpt lat="64.107551575" lon="-19.835685730">
<ele>136.863281</ele>
<time>2012-07-21T12:20:29Z</time>
<speed>6.020000</speed>
<extensions>
<speed>6.0</speed>
<temp>0.00</temp>
<bpm>0</bpm>
<rpm>0.00</rpm>
</extensions>
</trkpt>
<trkpt lat="64.107276917" lon="-19.835622787">
<ele>136.535156</ele>
<time>2012-07-21T12:20:34Z</time>
<speed>5.860000</speed>
<extensions>
<speed>5.9</speed>
<temp>0.00</temp>
<bpm>0</bpm>
<rpm>0.00</rpm>
</extensions>
</trkpt>
<trkpt lat="64.107040405" lon="-19.835531235">
<ele>136.246094</ele>
<time>2012-07-21T12:20:39Z</time>
<speed>5.330000</speed>
<extensions>
<speed>5.3</speed>
<temp>0.00</temp>
<bpm>0</bpm>
<rpm>0.00</rpm>
</extensions>
</trkpt>
<trkpt lat="64.106803894" lon="-19.835430145">
<ele>135.976563</ele>
<time>2012-07-21T12:20:44Z</time>
<speed>5.620000</speed>
<extensions>
<speed>5.6</speed>
<temp>0.00</temp>
<bpm>0</bpm>
<rpm>0.00</rpm>
</extensions>
</trkpt>
<trkpt lat="64.106552124" lon="-19.835332870">
<ele>136.007813</ele>
<time>2012-07-21T12:20:49Z</time>
<speed>5.820000</speed>
<extensions>
<speed>5.8</speed>
<temp>0.00</temp>
<bpm>0</bpm>
<rpm>0.00</rpm>
</extensions>
</trkpt>
<trkpt lat="64.106292725" lon="-19.835239410">
<ele>135.687500</ele>
<time>2012-07-21T12:20:54Z</time>
<speed>5.650000</speed>
<extensions>
<speed>5.7</speed>
<temp>0.00</temp>
<bpm>0</bpm>
<rpm>0.00</rpm>
</extensions>
</trkpt>
<trkpt lat="64.106048584" lon="-19.835132599">
<ele>135.089844</ele>
<time>2012-07-21T12:20:59Z</time>
<speed>5.300000</speed>
<extensions>
<speed>5.3</speed>
<temp>0.00</temp>
<bpm>0</bpm>
<rpm>0.00</rpm>
</extensions>
</trkpt>
<trkpt lat="64.105834961" lon="-19.835008621">
<ele>135.015625</ele>
<time>2012-07-21T12:21:04Z</time>
<speed>4.800000</speed>
<extensions>
<speed>4.8</speed>
<temp>0.00</temp>
<bpm>0</bpm>
<rpm>0.00</rpm>
</extensions>
</trkpt>
<trkpt lat="64.105651855" lon="-19.834825516">
<ele>134.554688</ele>
<time>2012-07-21T12:21:09Z</time>
<speed>4.370000</speed>
<extensions>
<speed>4.4</speed>
<temp>0.00</temp>
<bpm>0</bpm>
<rpm>0.00</rpm>
</extensions>
</trkpt>
<trkpt lat="64.105606079" lon="-19.834520340">
<ele>134.332031</ele>
<time>2012-07-21T12:21:14Z</time>
<speed>2.410000</speed>
<extensions>
<speed>2.4</speed>
<temp>0.00</temp>
<bpm>0</bpm>
<rpm>0.00</rpm>
</extensions>
</trkpt>
<trkpt lat="64.105567932" lon="-19.834304810">
<ele>134.269531</ele>
<time>2012-07-21T12:21:19Z</time>
<speed>2.670000</speed>
<extensions>
<speed>2.7</speed>
<temp>0.00</temp>
<bpm>0</bpm>
<rpm>0.00</rpm>
</extensions>
</trkpt>
<trkpt lat="64.105537415" lon="-19.833990097">
<ele>134.097656</ele>
<time>2012-07-21T12:21:24Z</time>
<speed>3.190000</speed>
<extensions>
<speed>3.2</speed>
<temp>0.00</temp>
<bpm>0</bpm>
<rpm>0.00</rpm>
</extensions>
</trkpt>
<trkpt lat="64.105529785" lon="-19.833669662">
<ele>134.476563</ele>
<time>2012-07-21T12:21:29Z</time>
<speed>2.680000</speed>
<extensions>
<speed>2.7</speed>
<temp>0.00</temp>
<bpm>0</bpm>
<rpm>0.00</rpm>
</extensions>
</trkpt>
<trkpt lat="64.105537415" lon="-19.833553314">
<ele>135.011719</ele>
<time>2012-07-21T12:21:34Z</time>
<speed>0.100000</speed>
<extensions>
<speed>0.1</speed>
<temp>0.00</temp>
<bpm>0</bpm>
<rpm>0.00</rpm>
</extensions>
</trkpt>
<trkpt lat="64.105545044" lon="-19.833574295">
<ele>135.140625</ele>
<time>2012-07-21T12:21:39Z</time>
<speed>0.900000</speed>
<extensions>
<speed>0.9</speed>
<temp>0.00</temp>
<bpm>0</bpm>
<rpm>0.00</rpm>
</extensions>
</trkpt>
<trkpt lat="64.105514526" lon="-19.833520889">
<ele>135.800781</ele>
<time>2012-07-21T12:21:44Z</time>
<speed>0.600000</speed>
<extensions>
<speed>0.6</speed>
<temp>0.00</temp>
<bpm>0</bpm>
<rpm>0.00</rpm>
</extensions>
</trkpt>
<trkpt lat="64.105506897" lon="-19.833503723">
<ele>135.996094</ele>
<time>2012-07-21T12:21:49Z</time>
<speed>0.310000</speed>
<extensions>
<speed>0.3</speed>
<temp>0.00</temp>
<bpm>0</bpm>
<rpm>0.00</rpm>
</extensions>
</trkpt>
<trkpt lat="64.105506897" lon="-19.833480835">
<ele>136.222656</ele>
<time>2012-07-21T12:21:54Z</time>
<speed>0.340000</speed>
<extensions>
<speed>0.3</speed>
<temp>0.00</temp>
<bpm>0</bpm>
<rpm>0.00</rpm>
</extensions>
</trkpt>
<trkpt lat="64.105514526" lon="-19.833446503">
<ele>136.285156</ele>
<time>2012-07-21T12:21:59Z</time>
<speed>0.280000</speed>
<extensions>
<speed>0.3</speed>
<temp>0.00</temp>
<bpm>0</bpm>
<rpm>0.00</rpm>
</extensions>
</trkpt>
<trkpt lat="64.105552673" lon="-19.833406448">
<ele>136.394531</ele>
<time>2012-07-21T12:22:04Z</time>
<speed>0.330000</speed>
<extensions>
<speed>0.3</speed>
<temp>0.00</temp>
<bpm>0</bpm>
<rpm>0.00</rpm>
</extensions>
</trkpt>
<trkpt lat="64.105598450" lon="-19.833314896">
<ele>136.421875</ele>
<time>2012-07-21T12:22:09Z</time>
<speed>0.450000</speed>
<extensions>
<speed>0.5</speed>
<temp>0.00</temp>
<bpm>0</bpm>
<rpm>0.00</rpm>
</extensions>
</trkpt>
<trkpt lat="64.105621338" lon="-19.833404541">
<ele>136.625000</ele>
<time>2012-07-21T12:22:14Z</time>
<speed>0.410000</speed>
<extensions>
<speed>0.4</speed>
<temp>0.00</temp>
<bpm>0</bpm>
<rpm>0.00</rpm>
</extensions>
</trkpt>
<trkpt lat="64.105621338" lon="-19.833467484">
<ele>136.734375</ele>
<time>2012-07-21T12:22:19Z</time>
<speed>0.380000</speed>
<extensions>
<speed>0.4</speed>
<temp>0.00</temp>
<bpm>0</bpm>
<rpm>0.00</rpm>
</extensions>
</trkpt>
<trkpt lat="64.105598450" lon="-19.833528519">
<ele>136.824219</ele>
<time>2012-07-21T12:22:24Z</time>
<speed>0.330000</speed>
<extensions>
<speed>0.3</speed>
<temp>0.00</temp>
<bpm>0</bpm>
<rpm>0.00</rpm>
</extensions>
</trkpt>
<trkpt lat="64.105590820" lon="-19.833599091">
<ele>136.949219</ele>
<time>2012-07-21T12:22:29Z</time>
<speed>0.350000</speed>
<extensions>
<speed>0.3</speed>
<temp>0.00</temp>
<bpm>0</bpm>
<rpm>0.00</rpm>
</extensions>
</trkpt>
<trkpt lat="64.105590820" lon="-19.833690643">
<ele>136.789063</ele>
<time>2012-07-21T12:22:34Z</time>
<speed>0.470000</speed>
<extensions>
<speed>0.5</speed>
<temp>0.00</temp>
<bpm>0</bpm>
<rpm>0.00</rpm>
</extensions>
</trkpt>
<trkpt lat="64.105575562" lon="-19.833709717">
<ele>136.898438</ele>
<time>2012-07-21T12:22:39Z</time>
<speed>0.340000</speed>
<extensions>
<speed>0.3</speed>
<temp>0.00</temp>
<bpm>0</bpm>
<rpm>0.00</rpm>
</extensions>
</trkpt>
<trkpt lat="64.105583191" lon="-19.833679199">
<ele>137.031250</ele>
<time>2012-07-21T12:22:44Z</time>
<speed>0.080000</speed>
<extensions>
<speed>0.1</speed>
<temp>0.00</temp>
<bpm>0</bpm>
<rpm>0.00</rpm>
</extensions>
</trkpt>
<trkpt lat="64.105575562" lon="-19.833671570">
<ele>137.062500</ele>
<time>2012-07-21T12:22:49Z</time>
<speed>0.170000</speed>
<extensions>
<speed>0.2</speed>
<temp>0.00</temp>
<bpm>0</bpm>
<rpm>0.00</rpm>
</extensions>
</trkpt>
<trkpt lat="64.105560303" lon="-19.833686829">
<ele>137.097656</ele>
<time>2012-07-21T12:22:54Z</time>
<speed>0.300000</speed>
<extensions>
<speed>0.3</speed>
<temp>0.00</temp>
<bpm>0</bpm>
<rpm>0.00</rpm>
</extensions>
</trkpt>
<trkpt lat="64.105522156" lon="-19.833797455">
<ele>137.406250</ele>
<time>2012-07-21T12:22:59Z</time>
<speed>0.420000</speed>
<extensions>
<speed>0.4</speed>
<temp>0.00</temp>
<bpm>0</bpm>
<rpm>0.00</rpm>
</extensions>
</trkpt>
<trkpt lat="64.105522156" lon="-19.833881378">
<ele>137.839844</ele>
<time>2012-07-21T12:23:04Z</time>
<speed>0.420000</speed>
<extensions>
<speed>0.4</speed>
<temp>0.00</temp>
<bpm>0</bpm>
<rpm>0.00</rpm>
</extensions>
</trkpt>
<trkpt lat="64.105537415" lon="-19.833953857">
<ele>138.332031</ele>
<time>2012-07-21T12:23:09Z</time>
<speed>0.330000</speed>
<extensions>
<speed>0.3</speed>
<temp>0.00</temp>
<bpm>0</bpm>
<rpm>0.00</rpm>
</extensions>
</trkpt>
<trkpt lat="64.105529785" lon="-19.833957672">
<ele>138.687500</ele>
<time>2012-07-21T12:23:14Z</time>
<speed>0.350000</speed>
<extensions>
<speed>0.3</speed>
<temp>0.00</temp>
<bpm>0</bpm>
<rpm>0.00</rpm>
</extensions>
</trkpt>
<trkpt lat="64.105529785" lon="-19.833946228">
<ele>139.015625</ele>
<time>2012-07-21T12:23:19Z</time>
<speed>0.280000</speed>
<extensions>
<speed>0.3</speed>
<temp>0.00</temp>
<bpm>0</bpm>
<rpm>0.00</rpm>
</extensions>
</trkpt>
<trkpt lat="64.105506897" lon="-19.833959579">
<ele>139.328125</ele>
<time>2012-07-21T12:23:24Z</time>
<speed>0.370000</speed>
<extensions>
<speed>0.4</speed>
<temp>0.00</temp>
<bpm>0</bpm>
<rpm>0.00</rpm>
</extensions>
</trkpt>
<trkpt lat="64.105522156" lon="-19.833955765">
<ele>139.757813</ele>
<time>2012-07-21T12:23:29Z</time>
<speed>0.270000</speed>
<extensions>
<speed>0.3</speed>
<temp>0.00</temp>
<bpm>0</bpm>
<rpm>0.00</rpm>
</extensions>
</trkpt>
<trkpt lat="64.105545044" lon="-19.833915710">
<ele>140.078125</ele>
<time>2012-07-21T12:23:34Z</time>
<speed>0.290000</speed>
<extensions>
<speed>0.3</speed>
<temp>0.00</temp>
<bpm>0</bpm>
<rpm>0.00</rpm>
</extensions>
</trkpt>
<trkpt lat="64.105545044" lon="-19.833930969">
<ele>140.437500</ele>
<time>2012-07-21T12:23:39Z</time>
<speed>0.290000</speed>
<extensions>
<speed>0.3</speed>
<temp>0.00</temp>
<bpm>0</bpm>
<rpm>0.00</rpm>
</extensions>
</trkpt>
<trkpt lat="64.105537415" lon="-19.833913803">
<ele>140.535156</ele>
<time>2012-07-21T12:23:44Z</time>
<speed>0.250000</speed>
<extensions>
<speed>0.2</speed>
<temp>0.00</temp>
<bpm>0</bpm>
<rpm>0.00</rpm>
</extensions>
</trkpt>
<trkpt lat="64.105529785" lon="-19.833900452">
<ele>140.542969</ele>
<time>2012-07-21T12:23:49Z</time>
<speed>0.160000</speed>
<extensions>
<speed>0.2</speed>
<temp>0.00</temp>
<bpm>0</bpm>
<rpm>0.00</rpm>
</extensions>
</trkpt>
<trkpt lat="64.105529785" lon="-19.833881378">
<ele>140.539063</ele>
<time>2012-07-21T12:23:54Z</time>
<speed>0.310000</speed>
<extensions>
<speed>0.3</speed>
<temp>0.00</temp>
<bpm>0</bpm>
<rpm>0.00</rpm>
</extensions>
</trkpt>
<trkpt lat="64.105529785" lon="-19.833883286">
<ele>140.925781</ele>
<time>2012-07-21T12:23:59Z</time>
<speed>0.250000</speed>
<extensions>
<speed>0.2</speed>
<temp>0.00</temp>
<bpm>0</bpm>
<rpm>0.00</rpm>
</extensions>
</trkpt>
<trkpt lat="64.105522156" lon="-19.833841324">
<ele>141.144531</ele>
<time>2012-07-21T12:24:04Z</time>
<speed>0.520000</speed>
<extensions>
<speed>0.5</speed>
<temp>0.00</temp>
<bpm>0</bpm>
<rpm>0.00</rpm>
</extensions>
</trkpt>
<trkpt lat="64.105499268" lon="-19.833824158">
<ele>141.179688</ele>
<time>2012-07-21T12:24:09Z</time>
<speed>0.690000</speed>
<extensions>
<speed>0.7</speed>
<temp>0.00</temp>
<bpm>0</bpm>
<rpm>0.00</rpm>
</extensions>
</trkpt>
<trkpt lat="64.105461121" lon="-19.833772659">
<ele>141.222656</ele>
<time>2012-07-21T12:24:14Z</time>
<speed>0.970000</speed>
<extensions>
<speed>1.0</speed>
<temp>0.00</temp>
<bpm>0</bpm>
<rpm>0.00</rpm>
</extensions>
</trkpt>
<trkpt lat="64.105415344" lon="-19.833717346">
<ele>141.187500</ele>
<time>2012-07-21T12:24:19Z</time>
<speed>1.130000</speed>
<extensions>
<speed>1.1</speed>
<temp>0.00</temp>
<bpm>0</bpm>
<rpm>0.00</rpm>
</extensions>
</trkpt>
<trkpt lat="64.105354309" lon="-19.833633423">
<ele>141.003906</ele>
<time>2012-07-21T12:24:24Z</time>
<speed>1.380000</speed>
<extensions>
<speed>1.4</speed>
<temp>0.00</temp>
<bpm>0</bpm>
<rpm>0.00</rpm>
</extensions>
</trkpt>
<trkpt lat="64.105308533" lon="-19.833545685">
<ele>140.734375</ele>
<time>2012-07-21T12:24:29Z</time>
<speed>1.230000</speed>
<extensions>
<speed>1.2</speed>
<temp>0.00</temp>
<bpm>0</bpm>
<rpm>0.00</rpm>
</extensions>
</trkpt>
<trkpt lat="64.105278015" lon="-19.833517075">
<ele>140.476563</ele>
<time>2012-07-21T12:24:34Z</time>
<speed>0.980000</speed>
<extensions>
<speed>1.0</speed>
<temp>0.00</temp>
<bpm>0</bpm>
<rpm>0.00</rpm>
</extensions>
</trkpt>
<trkpt lat="64.105270386" lon="-19.833490372">
<ele>140.265625</ele>
<time>2012-07-21T12:24:39Z</time>
<speed>0.960000</speed>
<extensions>
<speed>1.0</speed>
<temp>0.00</temp>
<bpm>0</bpm>
<rpm>0.00</rpm>
</extensions>
</trkpt>
<trkpt lat="64.105278015" lon="-19.833469391">
<ele>140.054688</ele>
<time>2012-07-21T12:24:44Z</time>
<speed>0.830000</speed>
<extensions>
<speed>0.8</speed>
<temp>0.00</temp>
<bpm>0</bpm>
<rpm>0.00</rpm>
</extensions>
</trkpt>
<trkpt lat="64.105293274" lon="-19.833473206">
<ele>139.781250</ele>
<time>2012-07-21T12:24:49Z</time>
<speed>0.810000</speed>
<extensions>
<speed>0.8</speed>
<temp>0.00</temp>
<bpm>0</bpm>
<rpm>0.00</rpm>
</extensions>
</trkpt>
<trkpt lat="64.105316162" lon="-19.833444595">
<ele>139.488281</ele>
<time>2012-07-21T12:24:54Z</time>
<speed>0.640000</speed>
<extensions>
<speed>0.6</speed>
<temp>0.00</temp>
<bpm>0</bpm>
<rpm>0.00</rpm>
</extensions>
</trkpt>
<trkpt lat="64.105377197" lon="-19.833473206">
<ele>139.308594</ele>
<time>2012-07-21T12:24:59Z</time>
<speed>0.540000</speed>
<extensions>
<speed>0.5</speed>
<temp>0.00</temp>
<bpm>0</bpm>
<rpm>0.00</rpm>
</extensions>
</trkpt>
<trkpt lat="64.105422974" lon="-19.833482742">
<ele>139.027344</ele>
<time>2012-07-21T12:25:04Z</time>
<speed>0.380000</speed>
<extensions>
<speed>0.4</speed>
<temp>0.00</temp>
<bpm>0</bpm>
<rpm>0.00</rpm>
</extensions>
</trkpt>
<trkpt lat="64.105453491" lon="-19.833555222">
<ele>138.765625</ele>
<time>2012-07-21T12:25:09Z</time>
<speed>0.340000</speed>
<extensions>
<speed>0.3</speed>
<temp>0.00</temp>
<bpm>0</bpm>
<rpm>0.00</rpm>
</extensions>
</trkpt>
<trkpt lat="64.105468750" lon="-19.833566666">
<ele>138.414063</ele>
<time>2012-07-21T12:25:14Z</time>
<speed>0.310000</speed>
<extensions>
<speed>0.3</speed>
<temp>0.00</temp>
<bpm>0</bpm>
<rpm>0.00</rpm>
</extensions>
</trkpt>
<trkpt lat="64.105461121" lon="-19.833591461">
<ele>138.214844</ele>
<time>2012-07-21T12:25:19Z</time>
<speed>0.340000</speed>
<extensions>
<speed>0.3</speed>
<temp>0.00</temp>
<bpm>0</bpm>
<rpm>0.00</rpm>
</extensions>
</trkpt>
<trkpt lat="64.105468750" lon="-19.833574295">
<ele>137.789063</ele>
<time>2012-07-21T12:25:24Z</time>
<speed>0.390000</speed>
<extensions>
<speed>0.4</speed>
<temp>0.00</temp>
<bpm>0</bpm>
<rpm>0.00</rpm>
</extensions>
</trkpt>
<trkpt lat="64.105468750" lon="-19.833599091">
<ele>137.847656</ele>
<time>2012-07-21T12:25:29Z</time>
<speed>0.360000</speed>
<extensions>
<speed>0.4</speed>
<temp>0.00</temp>
<bpm>0</bpm>
<rpm>0.00</rpm>
</extensions>
</trkpt>
<trkpt lat="64.105461121" lon="-19.833589554">
<ele>137.750000</ele>
<time>2012-07-21T12:25:34Z</time>
<speed>0.410000</speed>
<extensions>
<speed>0.4</speed>
<temp>0.00</temp>
<bpm>0</bpm>
<rpm>0.00</rpm>
</extensions>
</trkpt>
<trkpt lat="64.105468750" lon="-19.833591461">
<ele>137.710938</ele>
<time>2012-07-21T12:25:39Z</time>
<speed>0.380000</speed>
<extensions>
<speed>0.4</speed>
<temp>0.00</temp>
<bpm>0</bpm>
<rpm>0.00</rpm>
</extensions>
</trkpt>
<trkpt lat="64.105468750" lon="-19.833631516">
<ele>137.714844</ele>
<time>2012-07-21T12:25:44Z</time>
<speed>0.300000</speed>
<extensions>
<speed>0.3</speed>
<temp>0.00</temp>
<bpm>0</bpm>
<rpm>0.00</rpm>
</extensions>
</trkpt>
<trkpt lat="64.105468750" lon="-19.833631516">
<ele>137.746094</ele>
<time>2012-07-21T12:25:49Z</time>
<speed>0.320000</speed>
<extensions>
<speed>0.3</speed>
<temp>0.00</temp>
<bpm>0</bpm>
<rpm>0.00</rpm>
</extensions>
</trkpt>
<trkpt lat="64.105430603" lon="-19.833620071">
<ele>137.730469</ele>
<time>2012-07-21T12:25:54Z</time>
<speed>0.380000</speed>
<extensions>
<speed>0.4</speed>
<temp>0.00</temp>
<bpm>0</bpm>
<rpm>0.00</rpm>
</extensions>
</trkpt>
<trkpt lat="64.105392456" lon="-19.833513260">
<ele>137.324219</ele>
<time>2012-07-21T12:25:59Z</time>
<speed>0.630000</speed>
<extensions>
<speed>0.6</speed>
<temp>0.00</temp>
<bpm>0</bpm>
<rpm>0.00</rpm>
</extensions>
</trkpt>
<trkpt lat="64.105377197" lon="-19.833452225">
<ele>137.085938</ele>
<time>2012-07-21T12:26:04Z</time>
<speed>0.710000</speed>
<extensions>
<speed>0.7</speed>
<temp>0.00</temp>
<bpm>0</bpm>
<rpm>0.00</rpm>
</extensions>
</trkpt>
<trkpt lat="64.105354309" lon="-19.833396912">
<ele>136.906250</ele>
<time>2012-07-21T12:26:09Z</time>
<speed>0.690000</speed>
<extensions>
<speed>0.7</speed>
<temp>0.00</temp>
<bpm>0</bpm>
<rpm>0.00</rpm>
</extensions>
</trkpt>
<trkpt lat="64.105384827" lon="-19.833475113">
<ele>137.351563</ele>
<time>2012-07-21T12:26:14Z</time>
<speed>0.500000</speed>
<extensions>
<speed>0.5</speed>
<temp>0.00</temp>
<bpm>0</bpm>
<rpm>0.00</rpm>
</extensions>
</trkpt>
<trkpt lat="64.105377197" lon="-19.833511353">
<ele>137.421875</ele>
<time>2012-07-21T12:26:19Z</time>
<speed>0.430000</speed>
<extensions>
<speed>0.4</speed>
<temp>0.00</temp>
<bpm>0</bpm>
<rpm>0.00</rpm>
</extensions>
</trkpt>
<trkpt lat="64.105377197" lon="-19.833488464">
<ele>137.214844</ele>
<time>2012-07-21T12:26:24Z</time>
<speed>0.510000</speed>
<extensions>
<speed>0.5</speed>
<temp>0.00</temp>
<bpm>0</bpm>
<rpm>0.00</rpm>
</extensions>
</trkpt>
<trkpt lat="64.105392456" lon="-19.833574295">
<ele>137.433594</ele>
<time>2012-07-21T12:26:29Z</time>
<speed>0.320000</speed>
<extensions>
<speed>0.3</speed>
<temp>0.00</temp>
<bpm>0</bpm>
<rpm>0.00</rpm>
</extensions>
</trkpt>
<trkpt lat="64.105407715" lon="-19.833629608">
<ele>137.699219</ele>
<time>2012-07-21T12:26:34Z</time>
<speed>0.230000</speed>
<extensions>
<speed>0.2</speed>
<temp>0.00</temp>
<bpm>0</bpm>
<rpm>0.00</rpm>
</extensions>
</trkpt>
<trkpt lat="64.105400085" lon="-19.833637238">
<ele>137.687500</ele>
<time>2012-07-21T12:26:39Z</time>
<speed>0.270000</speed>
<extensions>
<speed>0.3</speed>
<temp>0.00</temp>
<bpm>0</bpm>
<rpm>0.00</rpm>
</extensions>
</trkpt>
<trkpt lat="64.105415344" lon="-19.833679199">
<ele>138.093750</ele>
<time>2012-07-21T12:26:44Z</time>
<speed>0.250000</speed>
<extensions>
<speed>0.2</speed>
<temp>0.00</temp>
<bpm>0</bpm>
<rpm>0.00</rpm>
</extensions>
</trkpt>
<trkpt lat="64.105430603" lon="-19.833683014">
<ele>138.488281</ele>
<time>2012-07-21T12:26:49Z</time>
<speed>0.300000</speed>
<extensions>
<speed>0.3</speed>
<temp>0.00</temp>
<bpm>0</bpm>
<rpm>0.00</rpm>
</extensions>
</trkpt>
<trkpt lat="64.105445862" lon="-19.833696365">
<ele>138.792969</ele>
<time>2012-07-21T12:26:54Z</time>
<speed>0.290000</speed>
<extensions>
<speed>0.3</speed>
<temp>0.00</temp>
<bpm>0</bpm>
<rpm>0.00</rpm>
</extensions>
</trkpt>
<trkpt lat="64.105445862" lon="-19.833679199">
<ele>138.875000</ele>
<time>2012-07-21T12:26:59Z</time>
<speed>0.310000</speed>
<extensions>
<speed>0.3</speed>
<temp>0.00</temp>
<bpm>0</bpm>
<rpm>0.00</rpm>
</extensions>
</trkpt>
<trkpt lat="64.105438232" lon="-19.833618164">
<ele>138.531250</ele>
<time>2012-07-21T12:27:04Z</time>
<speed>0.480000</speed>
<extensions>
<speed>0.5</speed>
<temp>0.00</temp>
<bpm>0</bpm>
<rpm>0.00</rpm>
</extensions>
</trkpt>
<trkpt lat="64.105415344" lon="-19.833587646">
<ele>138.230469</ele>
<time>2012-07-21T12:27:09Z</time>
<speed>0.450000</speed>
<extensions>
<speed>0.5</speed>
<temp>0.00</temp>
<bpm>0</bpm>
<rpm>0.00</rpm>
</extensions>
</trkpt>
<trkpt lat="64.105415344" lon="-19.833574295">
<ele>138.070313</ele>
<time>2012-07-21T12:27:14Z</time>
<speed>0.460000</speed>
<extensions>
<speed>0.5</speed>
<temp>0.00</temp>
<bpm>0</bpm>
<rpm>0.00</rpm>
</extensions>
</trkpt>
<trkpt lat="64.105422974" lon="-19.833572388">
<ele>138.015625</ele>
<time>2012-07-21T12:27:19Z</time>
<speed>0.430000</speed>
<extensions>
<speed>0.4</speed>
<temp>0.00</temp>
<bpm>0</bpm>
<rpm>0.00</rpm>
</extensions>
</trkpt>
<trkpt lat="64.105400085" lon="-19.833610535">
<ele>138.058594</ele>
<time>2012-07-21T12:27:24Z</time>
<speed>0.410000</speed>
<extensions>
<speed>0.4</speed>
<temp>0.00</temp>
<bpm>0</bpm>
<rpm>0.00</rpm>
</extensions>
</trkpt>
<trkpt lat="64.105407715" lon="-19.833612442">
<ele>138.000000</ele>
<time>2012-07-21T12:27:29Z</time>
<speed>0.440000</speed>
<extensions>
<speed>0.4</speed>
<temp>0.00</temp>
<bpm>0</bpm>
<rpm>0.00</rpm>
</extensions>
</trkpt>
<trkpt lat="64.105400085" lon="-19.833549500">
<ele>137.468750</ele>
<time>2012-07-21T12:27:34Z</time>
<speed>0.440000</speed>
<extensions>
<speed>0.4</speed>
<temp>0.00</temp>
<bpm>0</bpm>
<rpm>0.00</rpm>
</extensions>
</trkpt>
<trkpt lat="64.105369568" lon="-19.833480835">
<ele>136.890625</ele>
<time>2012-07-21T12:27:39Z</time>
<speed>0.530000</speed>
<extensions>
<speed>0.5</speed>
<temp>0.00</temp>
<bpm>0</bpm>
<rpm>0.00</rpm>
</extensions>
</trkpt>
<trkpt lat="64.105384827" lon="-19.833471298">
<ele>136.648438</ele>
<time>2012-07-21T12:27:44Z</time>
<speed>0.440000</speed>
<extensions>
<speed>0.4</speed>
<temp>0.00</temp>
<bpm>0</bpm>
<rpm>0.00</rpm>
</extensions>
</trkpt>
<trkpt lat="64.105377197" lon="-19.833465576">
<ele>136.285156</ele>
<time>2012-07-21T12:27:49Z</time>
<speed>0.470000</speed>
<extensions>
<speed>0.5</speed>
<temp>0.00</temp>
<bpm>0</bpm>
<rpm>0.00</rpm>
</extensions>
</trkpt>
<trkpt lat="64.105377197" lon="-19.833410263">
<ele>135.894531</ele>
<time>2012-07-21T12:27:54Z</time>
<speed>0.470000</speed>
<extensions>
<speed>0.5</speed>
<temp>0.00</temp>
<bpm>0</bpm>
<rpm>0.00</rpm>
</extensions>
</trkpt>
<trkpt lat="64.105384827" lon="-19.833370209">
<ele>135.535156</ele>
<time>2012-07-21T12:27:59Z</time>
<speed>0.570000</speed>
<extensions>
<speed>0.6</speed>
<temp>0.00</temp>
<bpm>0</bpm>
<rpm>0.00</rpm>
</extensions>
</trkpt>
<trkpt lat="64.105400085" lon="-19.833353043">
<ele>135.261719</ele>
<time>2012-07-21T12:28:04Z</time>
<speed>0.440000</speed>
<extensions>
<speed>0.4</speed>
<temp>0.00</temp>
<bpm>0</bpm>
<rpm>0.00</rpm>
</extensions>
</trkpt>
<trkpt lat="64.105392456" lon="-19.833351135">
<ele>134.886719</ele>
<time>2012-07-21T12:28:09Z</time>
<speed>0.420000</speed>
<extensions>
<speed>0.4</speed>
<temp>0.00</temp>
<bpm>0</bpm>
<rpm>0.00</rpm>
</extensions>
</trkpt>
<trkpt lat="64.105384827" lon="-19.833356857">
<ele>134.320313</ele>
<time>2012-07-21T12:28:14Z</time>
<speed>0.340000</speed>
<extensions>
<speed>0.3</speed>
<temp>0.00</temp>
<bpm>0</bpm>
<rpm>0.00</rpm>
</extensions>
</trkpt>
<trkpt lat="64.105400085" lon="-19.833372116">
<ele>133.707031</ele>
<time>2012-07-21T12:28:19Z</time>
<speed>0.250000</speed>
<extensions>
<speed>0.2</speed>
<temp>0.00</temp>
<bpm>0</bpm>
<rpm>0.00</rpm>
</extensions>
</trkpt>
<trkpt lat="64.105415344" lon="-19.833381653">
<ele>133.593750</ele>
<time>2012-07-21T12:28:24Z</time>
<speed>0.230000</speed>
<extensions>
<speed>0.2</speed>
<temp>0.00</temp>
<bpm>0</bpm>
<rpm>0.00</rpm>
</extensions>
</trkpt>
<trkpt lat="64.105415344" lon="-19.833360672">
<ele>133.496094</ele>
<time>2012-07-21T12:28:29Z</time>
<speed>0.310000</speed>
<extensions>
<speed>0.3</speed>
<temp>0.00</temp>
<bpm>0</bpm>
<rpm>0.00</rpm>
</extensions>
</trkpt>
<trkpt lat="64.105445862" lon="-19.833383560">
<ele>133.734375</ele>
<time>2012-07-21T12:28:34Z</time>
<speed>0.140000</speed>
<extensions>
<speed>0.1</speed>
<temp>0.00</temp>
<bpm>0</bpm>
<rpm>0.00</rpm>
</extensions>
</trkpt>
<trkpt lat="64.105445862" lon="-19.833368301">
<ele>133.707031</ele>
<time>2012-07-21T12:28:39Z</time>
<speed>0.230000</speed>
<extensions>
<speed>0.2</speed>
<temp>0.00</temp>
<bpm>0</bpm>
<rpm>0.00</rpm>
</extensions>
</trkpt>
<trkpt lat="64.105453491" lon="-19.833354950">
<ele>133.718750</ele>
<time>2012-07-21T12:28:44Z</time>
<speed>0.220000</speed>
<extensions>
<speed>0.2</speed>
<temp>0.00</temp>
<bpm>0</bpm>
<rpm>0.00</rpm>
</extensions>
</trkpt>
<trkpt lat="64.105461121" lon="-19.833343506">
<ele>133.757813</ele>
<time>2012-07-21T12:28:49Z</time>
<speed>0.230000</speed>
<extensions>
<speed>0.2</speed>
<temp>0.00</temp>
<bpm>0</bpm>
<rpm>0.00</rpm>
</extensions>
</trkpt>
<trkpt lat="64.105468750" lon="-19.833335876">
<ele>133.871094</ele>
<time>2012-07-21T12:28:54Z</time>
<speed>0.350000</speed>
<extensions>
<speed>0.3</speed>
<temp>0.00</temp>
<bpm>0</bpm>
<rpm>0.00</rpm>
</extensions>
</trkpt>
<trkpt lat="64.105499268" lon="-19.833330154">
<ele>134.562500</ele>
<time>2012-07-21T12:28:59Z</time>
<speed>0.220000</speed>
<extensions>
<speed>0.2</speed>
<temp>0.00</temp>
<bpm>0</bpm>
<rpm>0.00</rpm>
</extensions>
</trkpt>
<trkpt lat="64.105506897" lon="-19.833391190">
<ele>136.019531</ele>
<time>2012-07-21T12:29:04Z</time>
<speed>0.080000</speed>
<extensions>
<speed>0.1</speed>
<temp>0.00</temp>
<bpm>0</bpm>
<rpm>0.00</rpm>
</extensions>
</trkpt>
<trkpt lat="64.105514526" lon="-19.833404541">
<ele>136.066406</ele>
<time>2012-07-21T12:29:09Z</time>
<speed>0.270000</speed>
<extensions>
<speed>0.3</speed>
<temp>0.00</temp>
<bpm>0</bpm>
<rpm>0.00</rpm>
</extensions>
</trkpt>
<trkpt lat="64.105560303" lon="-19.833492279">
<ele>137.933594</ele>
<time>2012-07-21T12:29:14Z</time>
<speed>0.300000</speed>
<extensions>
<speed>0.3</speed>
<temp>0.00</temp>
<bpm>0</bpm>
<rpm>0.00</rpm>
</extensions>
</trkpt>
<trkpt lat="64.105598450" lon="-19.833597183">
<ele>139.769531</ele>
<time>2012-07-21T12:29:19Z</time>
<speed>0.390000</speed>
<extensions>
<speed>0.4</speed>
<temp>0.00</temp>
<bpm>0</bpm>
<rpm>0.00</rpm>
</extensions>
</trkpt>
<trkpt lat="64.105621338" lon="-19.833654404">
<ele>141.250000</ele>
<time>2012-07-21T12:29:24Z</time>
<speed>0.390000</speed>
<extensions>
<speed>0.4</speed>
<temp>0.00</temp>
<bpm>0</bpm>
<rpm>0.00</rpm>
</extensions>
</trkpt>
<trkpt lat="64.105606079" lon="-19.833683014">
<ele>142.390625</ele>
<time>2012-07-21T12:29:29Z</time>
<speed>0.140000</speed>
<extensions>
<speed>0.1</speed>
<temp>0.00</temp>
<bpm>0</bpm>
<rpm>0.00</rpm>
</extensions>
</trkpt>
<trkpt lat="64.105598450" lon="-19.833692551">
<ele>142.410156</ele>
<time>2012-07-21T12:29:34Z</time>
<speed>0.060000</speed>
<extensions>
<speed>0.1</speed>
<temp>0.00</temp>
<bpm>0</bpm>
<rpm>0.00</rpm>
</extensions>
</trkpt>
<trkpt lat="64.105590820" lon="-19.833688736">
<ele>142.417969</ele>
<time>2012-07-21T12:29:39Z</time>
<speed>0.030000</speed>
<extensions>
<speed>0.0</speed>
<temp>0.00</temp>
<bpm>0</bpm>
<rpm>0.00</rpm>
</extensions>
</trkpt>
<trkpt lat="64.105598450" lon="-19.833690643">
<ele>142.441406</ele>
<time>2012-07-21T12:29:44Z</time>
<speed>0.100000</speed>
<extensions>
<speed>0.1</speed>
<temp>0.00</temp>
<bpm>0</bpm>
<rpm>0.00</rpm>
</extensions>
</trkpt>
<trkpt lat="64.105606079" lon="-19.833690643">
<ele>142.464844</ele>
<time>2012-07-21T12:29:49Z</time>
<speed>0.060000</speed>
<extensions>
<speed>0.1</speed>
<temp>0.00</temp>
<bpm>0</bpm>
<rpm>0.00</rpm>
</extensions>
</trkpt>
<trkpt lat="64.105598450" lon="-19.833690643">
<ele>142.511719</ele>
<time>2012-07-21T12:29:54Z</time>
<speed>0.160000</speed>
<extensions>
<speed>0.2</speed>
<temp>0.00</temp>
<bpm>0</bpm>
<rpm>0.00</rpm>
</extensions>
</trkpt>
<trkpt lat="64.105598450" lon="-19.833686829">
<ele>142.554688</ele>
<time>2012-07-21T12:29:59Z</time>
<speed>0.160000</speed>
<extensions>
<speed>0.2</speed>
<temp>0.00</temp>
<bpm>0</bpm>
<rpm>0.00</rpm>
</extensions>
</trkpt>
<trkpt lat="64.105590820" lon="-19.833669662">
<ele>142.570313</ele>
<time>2012-07-21T12:30:04Z</time>
<speed>0.170000</speed>
<extensions>
<speed>0.2</speed>
<temp>0.00</temp>
<bpm>0</bpm>
<rpm>0.00</rpm>
</extensions>
</trkpt>
<trkpt lat="64.105560303" lon="-19.833650589">
<ele>142.808594</ele>
<time>2012-07-21T12:30:09Z</time>
<speed>0.440000</speed>
<extensions>
<speed>0.4</speed>
<temp>0.00</temp>
<bpm>0</bpm>
<rpm>0.00</rpm>
</extensions>
</trkpt>
<trkpt lat="64.105514526" lon="-19.833580017">
<ele>143.203125</ele>
<time>2012-07-21T12:30:14Z</time>
<speed>0.540000</speed>
<extensions>
<speed>0.5</speed>
<temp>0.00</temp>
<bpm>0</bpm>
<rpm>0.00</rpm>
</extensions>
</trkpt>
<trkpt lat="64.105476379" lon="-19.833543777">
<ele>143.453125</ele>
<time>2012-07-21T12:30:19Z</time>
<speed>0.490000</speed>
<extensions>
<speed>0.5</speed>
<temp>0.00</temp>
<bpm>0</bpm>
<rpm>0.00</rpm>
</extensions>
</trkpt>
<trkpt lat="64.105461121" lon="-19.833486557">
<ele>143.375000</ele>
<time>2012-07-21T12:30:24Z</time>
<speed>0.550000</speed>
<extensions>
<speed>0.6</speed>
<temp>0.00</temp>
<bpm>0</bpm>
<rpm>0.00</rpm>
</extensions>
</trkpt>
<trkpt lat="64.105461121" lon="-19.833463669">
<ele>143.113281</ele>
<time>2012-07-21T12:30:29Z</time>
<speed>0.420000</speed>
<extensions>
<speed>0.4</speed>
<temp>0.00</temp>
<bpm>0</bpm>
<rpm>0.00</rpm>
</extensions>
</trkpt>
<trkpt lat="64.105445862" lon="-19.833488464">
<ele>142.886719</ele>
<time>2012-07-21T12:30:34Z</time>
<speed>0.310000</speed>
<extensions>
<speed>0.3</speed>
<temp>0.00</temp>
<bpm>0</bpm>
<rpm>0.00</rpm>
</extensions>
</trkpt>
<trkpt lat="64.105445862" lon="-19.833551407">
<ele>142.855469</ele>
<time>2012-07-21T12:30:39Z</time>
<speed>0.360000</speed>
<extensions>
<speed>0.4</speed>
<temp>0.00</temp>
<bpm>0</bpm>
<rpm>0.00</rpm>
</extensions>
</trkpt>
<trkpt lat="64.105453491" lon="-19.833589554">
<ele>142.625000</ele>
<time>2012-07-21T12:30:44Z</time>
<speed>0.210000</speed>
<extensions>
<speed>0.2</speed>
<temp>0.00</temp>
<bpm>0</bpm>
<rpm>0.00</rpm>
</extensions>
</trkpt>
<trkpt lat="64.105445862" lon="-19.833562851">
<ele>142.382813</ele>
<time>2012-07-21T12:30:49Z</time>
<speed>0.240000</speed>
<extensions>
<speed>0.2</speed>
<temp>0.00</temp>
<bpm>0</bpm>
<rpm>0.00</rpm>
</extensions>
</trkpt>
<trkpt lat="64.105438232" lon="-19.833539963">
<ele>142.320313</ele>
<time>2012-07-21T12:30:54Z</time>
<speed>0.230000</speed>
<extensions>
<speed>0.2</speed>
<temp>0.00</temp>
<bpm>0</bpm>
<rpm>0.00</rpm>
</extensions>
</trkpt>
<trkpt lat="64.105438232" lon="-19.833505630">
<ele>142.207031</ele>
<time>2012-07-21T12:30:59Z</time>
<speed>0.280000</speed>
<extensions>
<speed>0.3</speed>
<temp>0.00</temp>
<bpm>0</bpm>
<rpm>0.00</rpm>
</extensions>
</trkpt>
<trkpt lat="64.105438232" lon="-19.833482742">
<ele>142.171875</ele>
<time>2012-07-21T12:31:04Z</time>
<speed>0.190000</speed>
<extensions>
<speed>0.2</speed>
<temp>0.00</temp>
<bpm>0</bpm>
<rpm>0.00</rpm>
</extensions>
</trkpt>
<trkpt lat="64.105430603" lon="-19.833461761">
<ele>142.148438</ele>
<time>2012-07-21T12:31:09Z</time>
<speed>0.240000</speed>
<extensions>
<speed>0.2</speed>
<temp>0.00</temp>
<bpm>0</bpm>
<rpm>0.00</rpm>
</extensions>
</trkpt>
<trkpt lat="64.105422974" lon="-19.833427429">
<ele>142.066406</ele>
<time>2012-07-21T12:31:14Z</time>
<speed>0.310000</speed>
<extensions>
<speed>0.3</speed>
<temp>0.00</temp>
<bpm>0</bpm>
<rpm>0.00</rpm>
</extensions>
</trkpt>
<trkpt lat="64.105407715" lon="-19.833389282">
<ele>141.820313</ele>
<time>2012-07-21T12:31:19Z</time>
<speed>0.200000</speed>
<extensions>
<speed>0.2</speed>
<temp>0.00</temp>
<bpm>0</bpm>
<rpm>0.00</rpm>
</extensions>
</trkpt>
<trkpt lat="64.105400085" lon="-19.833374023">
<ele>141.789063</ele>
<time>2012-07-21T12:31:24Z</time>
<speed>0.250000</speed>
<extensions>
<speed>0.2</speed>
<temp>0.00</temp>
<bpm>0</bpm>
<rpm>0.00</rpm>
</extensions>
</trkpt>
<trkpt lat="64.105407715" lon="-19.833353043">
<ele>141.511719</ele>
<time>2012-07-21T12:31:29Z</time>
<speed>0.340000</speed>
<extensions>
<speed>0.3</speed>
<temp>0.00</temp>
<bpm>0</bpm>
<rpm>0.00</rpm>
</extensions>
</trkpt>
<trkpt lat="64.105407715" lon="-19.833370209">
<ele>141.210938</ele>
<time>2012-07-21T12:31:34Z</time>
<speed>0.310000</speed>
<extensions>
<speed>0.3</speed>
<temp>0.00</temp>
<bpm>0</bpm>
<rpm>0.00</rpm>
</extensions>
</trkpt>
<trkpt lat="64.105415344" lon="-19.833370209">
<ele>141.093750</ele>
<time>2012-07-21T12:31:39Z</time>
<speed>0.260000</speed>
<extensions>
<speed>0.3</speed>
<temp>0.00</temp>
<bpm>0</bpm>
<rpm>0.00</rpm>
</extensions>
</trkpt>
<trkpt lat="64.105415344" lon="-19.833366394">
<ele>140.863281</ele>
<time>2012-07-21T12:31:44Z</time>
<speed>0.310000</speed>
<extensions>
<speed>0.3</speed>
<temp>0.00</temp>
<bpm>0</bpm>
<rpm>0.00</rpm>
</extensions>
</trkpt>
<trkpt lat="64.105400085" lon="-19.833343506">
<ele>140.589844</ele>
<time>2012-07-21T12:31:49Z</time>
<speed>0.270000</speed>
<extensions>
<speed>0.3</speed>
<temp>0.00</temp>
<bpm>0</bpm>
<rpm>0.00</rpm>
</extensions>
</trkpt>
<trkpt lat="64.105430603" lon="-19.833343506">
<ele>140.765625</ele>
<time>2012-07-21T12:31:54Z</time>
<speed>0.180000</speed>
<extensions>
<speed>0.2</speed>
<temp>0.00</temp>
<bpm>0</bpm>
<rpm>0.00</rpm>
</extensions>
</trkpt>
<trkpt lat="64.105438232" lon="-19.833370209">
<ele>140.914063</ele>
<time>2012-07-21T12:31:59Z</time>
<speed>0.320000</speed>
<extensions>
<speed>0.3</speed>
<temp>0.00</temp>
<bpm>0</bpm>
<rpm>0.00</rpm>
</extensions>
</trkpt>
<trkpt lat="64.105445862" lon="-19.833448410">
<ele>140.964844</ele>
<time>2012-07-21T12:32:04Z</time>
<speed>0.210000</speed>
<extensions>
<speed>0.2</speed>
<temp>0.00</temp>
<bpm>0</bpm>
<rpm>0.00</rpm>
</extensions>
</trkpt>
<trkpt lat="64.105445862" lon="-19.833494186">
<ele>140.984375</ele>
<time>2012-07-21T12:32:09Z</time>
<speed>0.150000</speed>
<extensions>
<speed>0.2</speed>
<temp>0.00</temp>
<bpm>0</bpm>
<rpm>0.00</rpm>
</extensions>
</trkpt>
<trkpt lat="64.105445862" lon="-19.833515167">
<ele>141.019531</ele>
<time>2012-07-21T12:32:14Z</time>
<speed>0.150000</speed>
<extensions>
<speed>0.2</speed>
<temp>0.00</temp>
<bpm>0</bpm>
<rpm>0.00</rpm>
</extensions>
</trkpt>
<trkpt lat="64.105438232" lon="-19.833513260">
<ele>141.019531</ele>
<time>2012-07-21T12:32:19Z</time>
<speed>0.230000</speed>
<extensions>
<speed>0.2</speed>
<temp>0.00</temp>
<bpm>0</bpm>
<rpm>0.00</rpm>
</extensions>
</trkpt>
<trkpt lat="64.105415344" lon="-19.833465576">
<ele>140.992188</ele>
<time>2012-07-21T12:32:24Z</time>
<speed>0.350000</speed>
<extensions>
<speed>0.3</speed>
<temp>0.00</temp>
<bpm>0</bpm>
<rpm>0.00</rpm>
</extensions>
</trkpt>
<trkpt lat="64.105407715" lon="-19.833398819">
<ele>140.941406</ele>
<time>2012-07-21T12:32:29Z</time>
<speed>0.500000</speed>
<extensions>
<speed>0.5</speed>
<temp>0.00</temp>
<bpm>0</bpm>
<rpm>0.00</rpm>
</extensions>
</trkpt>
<trkpt lat="64.105400085" lon="-19.833391190">
<ele>140.921875</ele>
<time>2012-07-21T12:32:34Z</time>
<speed>0.250000</speed>
<extensions>
<speed>0.2</speed>
<temp>0.00</temp>
<bpm>0</bpm>
<rpm>0.00</rpm>
</extensions>
</trkpt>
<trkpt lat="64.105377197" lon="-19.833372116">
<ele>140.843750</ele>
<time>2012-07-21T12:32:39Z</time>
<speed>0.430000</speed>
<extensions>
<speed>0.4</speed>
<temp>0.00</temp>
<bpm>0</bpm>
<rpm>0.00</rpm>
</extensions>
</trkpt>
<trkpt lat="64.105369568" lon="-19.833326340">
<ele>140.703125</ele>
<time>2012-07-21T12:32:44Z</time>
<speed>0.380000</speed>
<extensions>
<speed>0.4</speed>
<temp>0.00</temp>
<bpm>0</bpm>
<rpm>0.00</rpm>
</extensions>
</trkpt>
<trkpt lat="64.105331421" lon="-19.833250046">
<ele>140.437500</ele>
<time>2012-07-21T12:32:49Z</time>
<speed>0.520000</speed>
<extensions>
<speed>0.5</speed>
<temp>0.00</temp>
<bpm>0</bpm>
<rpm>0.00</rpm>
</extensions>
</trkpt>
<trkpt lat="64.105323792" lon="-19.833282471">
<ele>140.441406</ele>
<time>2012-07-21T12:32:54Z</time>
<speed>0.380000</speed>
<extensions>
<speed>0.4</speed>
<temp>0.00</temp>
<bpm>0</bpm>
<rpm>0.00</rpm>
</extensions>
</trkpt>
<trkpt lat="64.105331421" lon="-19.833307266">
<ele>140.359375</ele>
<time>2012-07-21T12:32:59Z</time>
<speed>0.240000</speed>
<extensions>
<speed>0.2</speed>
<temp>0.00</temp>
<bpm>0</bpm>
<rpm>0.00</rpm>
</extensions>
</trkpt>
<trkpt lat="64.105323792" lon="-19.833295822">
<ele>140.308594</ele>
<time>2012-07-21T12:33:04Z</time>
<extensions>
<speed>0.0</speed>
<temp>0.00</temp>
<bpm>0</bpm>
<rpm>0.00</rpm>
</extensions>
</trkpt>
<trkpt lat="64.105323792" lon="-19.833288193">
<ele>140.285156</ele>
<time>2012-07-21T12:33:09Z</time>
<speed>0.050000</speed>
<extensions>
<speed>0.1</speed>
<temp>0.00</temp>
<bpm>0</bpm>
<rpm>0.00</rpm>
</extensions>
</trkpt>
<trkpt lat="64.105331421" lon="-19.833297729">
<ele>140.277344</ele>
<time>2012-07-21T12:33:14Z</time>
<speed>0.070000</speed>
<extensions>
<speed>0.1</speed>
<temp>0.00</temp>
<bpm>0</bpm>
<rpm>0.00</rpm>
</extensions>
</trkpt>
<trkpt lat="64.105323792" lon="-19.833309174">
<ele>140.269531</ele>
<time>2012-07-21T12:33:19Z</time>
<speed>0.090000</speed>
<extensions>
<speed>0.1</speed>
<temp>0.00</temp>
<bpm>0</bpm>
<rpm>0.00</rpm>
</extensions>
</trkpt>
<trkpt lat="64.105331421" lon="-19.833314896">
<ele>140.246094</ele>
<time>2012-07-21T12:33:24Z</time>
<speed>0.080000</speed>
<extensions>
<speed>0.1</speed>
<temp>0.00</temp>
<bpm>0</bpm>
<rpm>0.00</rpm>
</extensions>
</trkpt>
<trkpt lat="64.105331421" lon="-19.833318710">
<ele>140.226563</ele>
<time>2012-07-21T12:33:29Z</time>
<speed>0.050000</speed>
<extensions>
<speed>0.1</speed>
<temp>0.00</temp>
<bpm>0</bpm>
<rpm>0.00</rpm>
</extensions>
</trkpt>
<trkpt lat="64.105331421" lon="-19.833307266">
<ele>140.191406</ele>
<time>2012-07-21T12:33:34Z</time>
<speed>0.160000</speed>
<extensions>
<speed>0.2</speed>
<temp>0.00</temp>
<bpm>0</bpm>
<rpm>0.00</rpm>
</extensions>
</trkpt>
<trkpt lat="64.105346680" lon="-19.833307266">
<ele>140.179688</ele>
<time>2012-07-21T12:33:39Z</time>
<speed>0.220000</speed>
<extensions>
<speed>0.2</speed>
<temp>0.00</temp>
<bpm>0</bpm>
<rpm>0.00</rpm>
</extensions>
</trkpt>
<trkpt lat="64.105377197" lon="-19.833333969">
<ele>140.847656</ele>
<time>2012-07-21T12:33:44Z</time>
<speed>0.220000</speed>
<extensions>
<speed>0.2</speed>
<temp>0.00</temp>
<bpm>0</bpm>
<rpm>0.00</rpm>
</extensions>
</trkpt>
<trkpt lat="64.105400085" lon="-19.833330154">
<ele>141.046875</ele>
<time>2012-07-21T12:33:49Z</time>
<speed>0.260000</speed>
<extensions>
<speed>0.3</speed>
<temp>0.00</temp>
<bpm>0</bpm>
<rpm>0.00</rpm>
</extensions>
</trkpt>
<trkpt lat="64.105407715" lon="-19.833316803">
<ele>141.039063</ele>
<time>2012-07-21T12:33:54Z</time>
<speed>0.260000</speed>
<extensions>
<speed>0.3</speed>
<temp>0.00</temp>
<bpm>0</bpm>
<rpm>0.00</rpm>
</extensions>
</trkpt>
<trkpt lat="64.105415344" lon="-19.833295822">
<ele>141.039063</ele>
<time>2012-07-21T12:33:59Z</time>
<speed>0.260000</speed>
<extensions>
<speed>0.3</speed>
<temp>0.00</temp>
<bpm>0</bpm>
<rpm>0.00</rpm>
</extensions>
</trkpt>
<trkpt lat="64.105438232" lon="-19.833292007">
<ele>142.464844</ele>
<time>2012-07-21T12:34:04Z</time>
<speed>0.350000</speed>
<extensions>
<speed>0.3</speed>
<temp>0.00</temp>
<bpm>0</bpm>
<rpm>0.00</rpm>
</extensions>
</trkpt>
<trkpt lat="64.105476379" lon="-19.833339691">
<ele>144.058594</ele>
<time>2012-07-21T12:34:09Z</time>
<speed>0.080000</speed>
<extensions>
<speed>0.1</speed>
<temp>0.00</temp>
<bpm>0</bpm>
<rpm>0.00</rpm>
</extensions>
</trkpt>
<trkpt lat="64.105484009" lon="-19.833330154">
<ele>144.062500</ele>
<time>2012-07-21T12:34:14Z</time>
<speed>0.180000</speed>
<extensions>
<speed>0.2</speed>
<temp>0.00</temp>
<bpm>0</bpm>
<rpm>0.00</rpm>
</extensions>
</trkpt>
<trkpt lat="64.105491638" lon="-19.833318710">
<ele>144.101563</ele>
<time>2012-07-21T12:34:19Z</time>
<speed>0.220000</speed>
<extensions>
<speed>0.2</speed>
<temp>0.00</temp>
<bpm>0</bpm>
<rpm>0.00</rpm>
</extensions>
</trkpt>
<trkpt lat="64.105499268" lon="-19.833307266">
<ele>144.144531</ele>
<time>2012-07-21T12:34:24Z</time>
<speed>0.160000</speed>
<extensions>
<speed>0.2</speed>
<temp>0.00</temp>
<bpm>0</bpm>
<rpm>0.00</rpm>
</extensions>
</trkpt>
<trkpt lat="64.105506897" lon="-19.833288193">
<ele>144.179688</ele>
<time>2012-07-21T12:34:29Z</time>
<speed>0.110000</speed>
<extensions>
<speed>0.1</speed>
<temp>0.00</temp>
<bpm>0</bpm>
<rpm>0.00</rpm>
</extensions>
</trkpt>
<trkpt lat="64.105514526" lon="-19.833280563">
<ele>144.199219</ele>
<time>2012-07-21T12:34:34Z</time>
<speed>0.120000</speed>
<extensions>
<speed>0.1</speed>
<temp>0.00</temp>
<bpm>0</bpm>
<rpm>0.00</rpm>
</extensions>
</trkpt>
<trkpt lat="64.105522156" lon="-19.833286285">
<ele>144.765625</ele>
<time>2012-07-21T12:34:39Z</time>
<speed>0.130000</speed>
<extensions>
<speed>0.1</speed>
<temp>0.00</temp>
<bpm>0</bpm>
<rpm>0.00</rpm>
</extensions>
</trkpt>
<trkpt lat="64.105537415" lon="-19.833286285">
<ele>145.144531</ele>
<time>2012-07-21T12:34:44Z</time>
<speed>0.130000</speed>
<extensions>
<speed>0.1</speed>
<temp>0.00</temp>
<bpm>0</bpm>
<rpm>0.00</rpm>
</extensions>
</trkpt>
<trkpt lat="64.105545044" lon="-19.833282471">
<ele>145.148438</ele>
<time>2012-07-21T12:34:49Z</time>
<speed>0.130000</speed>
<extensions>
<speed>0.1</speed>
<temp>0.00</temp>
<bpm>0</bpm>
<rpm>0.00</rpm>
</extensions>
</trkpt>
<trkpt lat="64.105575562" lon="-19.833309174">
<ele>145.992188</ele>
<time>2012-07-21T12:34:54Z</time>
<speed>0.120000</speed>
<extensions>
<speed>0.1</speed>
<temp>0.00</temp>
<bpm>0</bpm>
<rpm>0.00</rpm>
</extensions>
</trkpt>
<trkpt lat="64.105583191" lon="-19.833309174">
<ele>145.996094</ele>
<time>2012-07-21T12:34:59Z</time>
<speed>0.090000</speed>
<extensions>
<speed>0.1</speed>
<temp>0.00</temp>
<bpm>0</bpm>
<rpm>0.00</rpm>
</extensions>
</trkpt>
<trkpt lat="64.105590820" lon="-19.833314896">
<ele>146.425781</ele>
<time>2012-07-21T12:35:04Z</time>
<speed>0.180000</speed>
<extensions>
<speed>0.2</speed>
<temp>0.00</temp>
<bpm>0</bpm>
<rpm>0.00</rpm>
</extensions>
</trkpt>
<trkpt lat="64.105598450" lon="-19.833328247">
<ele>146.914063</ele>
<time>2012-07-21T12:35:09Z</time>
<speed>0.070000</speed>
<extensions>
<speed>0.1</speed>
<temp>0.00</temp>
<bpm>0</bpm>
<rpm>0.00</rpm>
</extensions>
</trkpt>
<trkpt lat="64.105598450" lon="-19.833328247">
<ele>146.917969</ele>
<time>2012-07-21T12:35:14Z</time>
<speed>0.200000</speed>
<extensions>
<speed>0.2</speed>
<temp>0.00</temp>
<bpm>0</bpm>
<rpm>0.00</rpm>
</extensions>
</trkpt>
<trkpt lat="64.105606079" lon="-19.833366394">
<ele>147.210938</ele>
<time>2012-07-21T12:35:19Z</time>
<speed>0.110000</speed>
<extensions>
<speed>0.1</speed>
<temp>0.00</temp>
<bpm>0</bpm>
<rpm>0.00</rpm>
</extensions>
</trkpt>
<trkpt lat="64.105606079" lon="-19.833377838">
<ele>147.261719</ele>
<time>2012-07-21T12:35:24Z</time>
<speed>0.020000</speed>
<extensions>
<speed>0.0</speed>
<temp>0.00</temp>
<bpm>0</bpm>
<rpm>0.00</rpm>
</extensions>
</trkpt>
<trkpt lat="64.105598450" lon="-19.833395004">
<ele>147.417969</ele>
<time>2012-07-21T12:35:29Z</time>
<speed>0.220000</speed>
<extensions>
<speed>0.2</speed>
<temp>0.00</temp>
<bpm>0</bpm>
<rpm>0.00</rpm>
</extensions>
</trkpt>
<trkpt lat="64.105598450" lon="-19.833412170">
<ele>147.546875</ele>
<time>2012-07-21T12:35:34Z</time>
<speed>0.070000</speed>
<extensions>
<speed>0.1</speed>
<temp>0.00</temp>
<bpm>0</bpm>
<rpm>0.00</rpm>
</extensions>
</trkpt>
<trkpt lat="64.105598450" lon="-19.833410263">
<ele>147.554688</ele>
<time>2012-07-21T12:35:39Z</time>
<speed>0.070000</speed>
<extensions>
<speed>0.1</speed>
<temp>0.00</temp>
<bpm>0</bpm>
<rpm>0.00</rpm>
</extensions>
</trkpt>
<trkpt lat="64.105598450" lon="-19.833400726">
<ele>147.550781</ele>
<time>2012-07-21T12:35:44Z</time>
<speed>0.250000</speed>
<extensions>
<speed>0.2</speed>
<temp>0.00</temp>
<bpm>0</bpm>
<rpm>0.00</rpm>
</extensions>
</trkpt>
<trkpt lat="64.105583191" lon="-19.833404541">
<ele>147.867188</ele>
<time>2012-07-21T12:35:49Z</time>
<speed>0.270000</speed>
<extensions>
<speed>0.3</speed>
<temp>0.00</temp>
<bpm>0</bpm>
<rpm>0.00</rpm>
</extensions>
</trkpt>
<trkpt lat="64.105552673" lon="-19.833421707">
<ele>148.441406</ele>
<time>2012-07-21T12:35:54Z</time>
<speed>0.430000</speed>
<extensions>
<speed>0.4</speed>
<temp>0.00</temp>
<bpm>0</bpm>
<rpm>0.00</rpm>
</extensions>
</trkpt>
<trkpt lat="64.105560303" lon="-19.833412170">
<ele>148.742188</ele>
<time>2012-07-21T12:35:59Z</time>
<speed>0.480000</speed>
<extensions>
<speed>0.5</speed>
<temp>0.00</temp>
<bpm>0</bpm>
<rpm>0.00</rpm>
</extensions>
</trkpt>
<trkpt lat="64.105545044" lon="-19.833417892">
<ele>149.195313</ele>
<time>2012-07-21T12:36:04Z</time>
<speed>0.310000</speed>
<extensions>
<speed>0.3</speed>
<temp>0.00</temp>
<bpm>0</bpm>
<rpm>0.00</rpm>
</extensions>
</trkpt>
<trkpt lat="64.105491638" lon="-19.833431244">
<ele>149.398438</ele>
<time>2012-07-21T12:36:09Z</time>
<speed>0.550000</speed>
<extensions>
<speed>0.6</speed>
<temp>0.00</temp>
<bpm>0</bpm>
<rpm>0.00</rpm>
</extensions>
</trkpt>
<trkpt lat="64.105445862" lon="-19.833488464">
<ele>149.710938</ele>
<time>2012-07-21T12:36:14Z</time>
<speed>0.420000</speed>
<extensions>
<speed>0.4</speed>
<temp>0.00</temp>
<bpm>0</bpm>
<rpm>0.00</rpm>
</extensions>
</trkpt>
<trkpt lat="64.105407715" lon="-19.833576202">
<ele>150.121094</ele>
<time>2012-07-21T12:36:19Z</time>
<speed>0.220000</speed>
<extensions>
<speed>0.2</speed>
<temp>0.00</temp>
<bpm>0</bpm>
<rpm>0.00</rpm>
</extensions>
</trkpt>
<trkpt lat="64.105392456" lon="-19.833593369">
<ele>150.136719</ele>
<time>2012-07-21T12:36:24Z</time>
<speed>0.050000</speed>
<extensions>
<speed>0.1</speed>
<temp>0.00</temp>
<bpm>0</bpm>
<rpm>0.00</rpm>
</extensions>
</trkpt>
<trkpt lat="64.105392456" lon="-19.833589554">
<ele>150.070313</ele>
<time>2012-07-21T12:36:29Z</time>
<speed>0.080000</speed>
<extensions>
<speed>0.1</speed>
<temp>0.00</temp>
<bpm>0</bpm>
<rpm>0.00</rpm>
</extensions>
</trkpt>
<trkpt lat="64.105400085" lon="-19.833580017">
<ele>150.074219</ele>
<time>2012-07-21T12:36:34Z</time>
<speed>0.250000</speed>
<extensions>
<speed>0.2</speed>
<temp>0.00</temp>
<bpm>0</bpm>
<rpm>0.00</rpm>
</extensions>
</trkpt>
<trkpt lat="64.105407715" lon="-19.833572388">
<ele>150.156250</ele>
<time>2012-07-21T12:36:39Z</time>
<speed>0.010000</speed>
<extensions>
<speed>0.0</speed>
<temp>0.00</temp>
<bpm>0</bpm>
<rpm>0.00</rpm>
</extensions>
</trkpt>
<trkpt lat="64.105407715" lon="-19.833570480">
<ele>150.125000</ele>
<time>2012-07-21T12:36:44Z</time>
<speed>0.150000</speed>
<extensions>
<speed>0.2</speed>
<temp>0.00</temp>
<bpm>0</bpm>
<rpm>0.00</rpm>
</extensions>
</trkpt>
<trkpt lat="64.105400085" lon="-19.833549500">
<ele>150.105469</ele>
<time>2012-07-21T12:36:49Z</time>
<speed>0.510000</speed>
<extensions>
<speed>0.5</speed>
<temp>0.00</temp>
<bpm>0</bpm>
<rpm>0.00</rpm>
</extensions>
</trkpt>
<trkpt lat="64.105384827" lon="-19.833496094">
<ele>149.695313</ele>
<time>2012-07-21T12:36:54Z</time>
<speed>0.420000</speed>
<extensions>
<speed>0.4</speed>
<temp>0.00</temp>
<bpm>0</bpm>
<rpm>0.00</rpm>
</extensions>
</trkpt>
<trkpt lat="64.105392456" lon="-19.833526611">
<ele>150.019531</ele>
<time>2012-07-21T12:36:59Z</time>
<speed>0.340000</speed>
<extensions>
<speed>0.3</speed>
<temp>0.00</temp>
<bpm>0</bpm>
<rpm>0.00</rpm>
</extensions>
</trkpt>
<trkpt lat="64.105369568" lon="-19.833543777">
<ele>150.324219</ele>
<time>2012-07-21T12:37:04Z</time>
<speed>0.280000</speed>
<extensions>
<speed>0.3</speed>
<temp>0.00</temp>
<bpm>0</bpm>
<rpm>0.00</rpm>
</extensions>
</trkpt>
<trkpt lat="64.105369568" lon="-19.833522797">
<ele>150.253906</ele>
<time>2012-07-21T12:37:09Z</time>
<speed>0.260000</speed>
<extensions>
<speed>0.3</speed>
<temp>0.00</temp>
<bpm>0</bpm>
<rpm>0.00</rpm>
</extensions>
</trkpt>
<trkpt lat="64.105377197" lon="-19.833517075">
<ele>149.941406</ele>
<time>2012-07-21T12:37:14Z</time>
<speed>0.170000</speed>
<extensions>
<speed>0.2</speed>
<temp>0.00</temp>
<bpm>0</bpm>
<rpm>0.00</rpm>
</extensions>
</trkpt>
<trkpt lat="64.105377197" lon="-19.833513260">
<ele>149.691406</ele>
<time>2012-07-21T12:37:19Z</time>
<speed>0.010000</speed>
<extensions>
<speed>0.0</speed>
<temp>0.00</temp>
<bpm>0</bpm>
<rpm>0.00</rpm>
</extensions>
</trkpt>
<trkpt lat="64.105377197" lon="-19.833522797">
<ele>149.667969</ele>
<time>2012-07-21T12:37:24Z</time>
<speed>0.260000</speed>
<extensions>
<speed>0.3</speed>
<temp>0.00</temp>
<bpm>0</bpm>
<rpm>0.00</rpm>
</extensions>
</trkpt>
<trkpt lat="64.105422974" lon="-19.833498001">
<ele>149.625000</ele>
<time>2012-07-21T12:37:29Z</time>
<speed>0.360000</speed>
<extensions>
<speed>0.4</speed>
<temp>0.00</temp>
<bpm>0</bpm>
<rpm>0.00</rpm>
</extensions>
</trkpt>
<trkpt lat="64.105476379" lon="-19.833560944">
<ele>150.062500</ele>
<time>2012-07-21T12:37:34Z</time>
<speed>0.320000</speed>
<extensions>
<speed>0.3</speed>
<temp>0.00</temp>
<bpm>0</bpm>
<rpm>0.00</rpm>
</extensions>
</trkpt>
<trkpt lat="64.105506897" lon="-19.833612442">
<ele>149.945313</ele>
<time>2012-07-21T12:37:39Z</time>
<speed>0.230000</speed>
<extensions>
<speed>0.2</speed>
<temp>0.00</temp>
<bpm>0</bpm>
<rpm>0.00</rpm>
</extensions>
</trkpt>
<trkpt lat="64.105522156" lon="-19.833627701">
<ele>149.937500</ele>
<time>2012-07-21T12:37:44Z</time>
<speed>0.250000</speed>
<extensions>
<speed>0.2</speed>
<temp>0.00</temp>
<bpm>0</bpm>
<rpm>0.00</rpm>
</extensions>
</trkpt>
<trkpt lat="64.105529785" lon="-19.833639145">
<ele>150.195313</ele>
<time>2012-07-21T12:37:49Z</time>
<speed>0.290000</speed>
<extensions>
<speed>0.3</speed>
<temp>0.00</temp>
<bpm>0</bpm>
<rpm>0.00</rpm>
</extensions>
</trkpt>
<trkpt lat="64.105583191" lon="-19.833686829">
<ele>151.992188</ele>
<time>2012-07-21T12:37:54Z</time>
<speed>0.300000</speed>
<extensions>
<speed>0.3</speed>
<temp>0.00</temp>
<bpm>0</bpm>
<rpm>0.00</rpm>
</extensions>
</trkpt>
<trkpt lat="64.105613708" lon="-19.833721161">
<ele>153.277344</ele>
<time>2012-07-21T12:37:59Z</time>
<speed>0.200000</speed>
<extensions>
<speed>0.2</speed>
<temp>0.00</temp>
<bpm>0</bpm>
<rpm>0.00</rpm>
</extensions>
</trkpt>
<trkpt lat="64.105621338" lon="-19.833749771">
<ele>153.609375</ele>
<time>2012-07-21T12:38:04Z</time>
<speed>0.360000</speed>
<extensions>
<speed>0.4</speed>
<temp>0.00</temp>
<bpm>0</bpm>
<rpm>0.00</rpm>
</extensions>
</trkpt>
<trkpt lat="64.105621338" lon="-19.833740234">
<ele>153.824219</ele>
<time>2012-07-21T12:38:09Z</time>
<speed>0.160000</speed>
<extensions>
<speed>0.2</speed>
<temp>0.00</temp>
<bpm>0</bpm>
<rpm>0.00</rpm>
</extensions>
</trkpt>
<trkpt lat="64.105621338" lon="-19.833742142">
<ele>153.855469</ele>
<time>2012-07-21T12:38:14Z</time>
<speed>0.030000</speed>
<extensions>
<speed>0.0</speed>
<temp>0.00</temp>
<bpm>0</bpm>
<rpm>0.00</rpm>
</extensions>
</trkpt>
<trkpt lat="64.105621338" lon="-19.833740234">
<ele>153.871094</ele>
<time>2012-07-21T12:38:19Z</time>
<speed>0.110000</speed>
<extensions>
<speed>0.1</speed>
<temp>0.00</temp>
<bpm>0</bpm>
<rpm>0.00</rpm>
</extensions>
</trkpt>
<trkpt lat="64.105621338" lon="-19.833724976">
<ele>153.894531</ele>
<time>2012-07-21T12:38:24Z</time>
<speed>0.370000</speed>
<extensions>
<speed>0.4</speed>
<temp>0.00</temp>
<bpm>0</bpm>
<rpm>0.00</rpm>
</extensions>
</trkpt>
<trkpt lat="64.105628967" lon="-19.833711624">
<ele>154.707031</ele>
<time>2012-07-21T12:38:29Z</time>
<speed>0.120000</speed>
<extensions>
<speed>0.1</speed>
<temp>0.00</temp>
<bpm>0</bpm>
<rpm>0.00</rpm>
</extensions>
</trkpt>
<trkpt lat="64.105621338" lon="-19.833703995">
<ele>154.738281</ele>
<time>2012-07-21T12:38:34Z</time>
<speed>0.170000</speed>
<extensions>
<speed>0.2</speed>
<temp>0.00</temp>
<bpm>0</bpm>
<rpm>0.00</rpm>
</extensions>
</trkpt>
<trkpt lat="64.105613708" lon="-19.833690643">
<ele>154.765625</ele>
<time>2012-07-21T12:38:39Z</time>
<speed>0.190000</speed>
<extensions>
<speed>0.2</speed>
<temp>0.00</temp>
<bpm>0</bpm>
<rpm>0.00</rpm>
</extensions>
</trkpt>
<trkpt lat="64.105606079" lon="-19.833677292">
<ele>154.785156</ele>
<time>2012-07-21T12:38:44Z</time>
<speed>0.180000</speed>
<extensions>
<speed>0.2</speed>
<temp>0.00</temp>
<bpm>0</bpm>
<rpm>0.00</rpm>
</extensions>
</trkpt>
<trkpt lat="64.105606079" lon="-19.833654404">
<ele>154.804688</ele>
<time>2012-07-21T12:38:49Z</time>
<speed>0.140000</speed>
<extensions>
<speed>0.1</speed>
<temp>0.00</temp>
<bpm>0</bpm>
<rpm>0.00</rpm>
</extensions>
</trkpt>
<trkpt lat="64.105606079" lon="-19.833641052">
<ele>154.816406</ele>
<time>2012-07-21T12:38:54Z</time>
<speed>0.100000</speed>
<extensions>
<speed>0.1</speed>
<temp>0.00</temp>
<bpm>0</bpm>
<rpm>0.00</rpm>
</extensions>
</trkpt>
<trkpt lat="64.105590820" lon="-19.833614349">
<ele>154.957031</ele>
<time>2012-07-21T12:38:59Z</time>
<speed>0.340000</speed>
<extensions>
<speed>0.3</speed>
<temp>0.00</temp>
<bpm>0</bpm>
<rpm>0.00</rpm>
</extensions>
</trkpt>
<trkpt lat="64.105522156" lon="-19.833614349">
<ele>155.882813</ele>
<time>2012-07-21T12:39:04Z</time>
<speed>0.390000</speed>
<extensions>
<speed>0.4</speed>
<temp>0.00</temp>
<bpm>0</bpm>
<rpm>0.00</rpm>
</extensions>
</trkpt>
<trkpt lat="64.105468750" lon="-19.833662033">
<ele>156.695313</ele>
<time>2012-07-21T12:39:09Z</time>
<speed>0.260000</speed>
<extensions>
<speed>0.3</speed>
<temp>0.00</temp>
<bpm>0</bpm>
<rpm>0.00</rpm>
</extensions>
</trkpt>
<trkpt lat="64.105453491" lon="-19.833660126">
<ele>156.968750</ele>
<time>2012-07-21T12:39:14Z</time>
<speed>0.240000</speed>
<extensions>
<speed>0.2</speed>
<temp>0.00</temp>
<bpm>0</bpm>
<rpm>0.00</rpm>
</extensions>
</trkpt>
<trkpt lat="64.105453491" lon="-19.833650589">
<ele>157.007813</ele>
<time>2012-07-21T12:39:19Z</time>
<speed>0.210000</speed>
<extensions>
<speed>0.2</speed>
<temp>0.00</temp>
<bpm>0</bpm>
<rpm>0.00</rpm>
</extensions>
</trkpt>
<trkpt lat="64.105453491" lon="-19.833564758">
<ele>157.105469</ele>
<time>2012-07-21T12:39:24Z</time>
<speed>0.600000</speed>
<extensions>
<speed>0.6</speed>
<temp>0.00</temp>
<bpm>0</bpm>
<rpm>0.00</rpm>
</extensions>
</trkpt>
<trkpt lat="64.105476379" lon="-19.833524704">
<ele>157.351563</ele>
<time>2012-07-21T12:39:29Z</time>
<speed>0.410000</speed>
<extensions>
<speed>0.4</speed>
<temp>0.00</temp>
<bpm>0</bpm>
<rpm>0.00</rpm>
</extensions>
</trkpt>
<trkpt lat="64.105491638" lon="-19.833549500">
<ele>157.328125</ele>
<time>2012-07-21T12:39:34Z</time>
<speed>0.300000</speed>
<extensions>
<speed>0.3</speed>
<temp>0.00</temp>
<bpm>0</bpm>
<rpm>0.00</rpm>
</extensions>
</trkpt>
<trkpt lat="64.105506897" lon="-19.833564758">
<ele>157.378906</ele>
<time>2012-07-21T12:39:39Z</time>
<speed>0.160000</speed>
<extensions>
<speed>0.2</speed>
<temp>0.00</temp>
<bpm>0</bpm>
<rpm>0.00</rpm>
</extensions>
</trkpt>
<trkpt lat="64.105514526" lon="-19.833555222">
<ele>157.347656</ele>
<time>2012-07-21T12:39:44Z</time>
<speed>0.260000</speed>
<extensions>
<speed>0.3</speed>
<temp>0.00</temp>
<bpm>0</bpm>
<rpm>0.00</rpm>
</extensions>
</trkpt>
<trkpt lat="64.105522156" lon="-19.833547592">
<ele>157.335938</ele>
<time>2012-07-21T12:39:49Z</time>
<speed>0.160000</speed>
<extensions>
<speed>0.2</speed>
<temp>0.00</temp>
<bpm>0</bpm>
<rpm>0.00</rpm>
</extensions>
</trkpt>
<trkpt lat="64.105529785" lon="-19.833538055">
<ele>157.343750</ele>
<time>2012-07-21T12:39:54Z</time>
<speed>0.100000</speed>
<extensions>
<speed>0.1</speed>
<temp>0.00</temp>
<bpm>0</bpm>
<rpm>0.00</rpm>
</extensions>
</trkpt>
<trkpt lat="64.105529785" lon="-19.833524704">
<ele>157.359375</ele>
<time>2012-07-21T12:39:59Z</time>
<speed>0.150000</speed>
<extensions>
<speed>0.2</speed>
<temp>0.00</temp>
<bpm>0</bpm>
<rpm>0.00</rpm>
</extensions>
</trkpt>
<trkpt lat="64.105529785" lon="-19.833503723">
<ele>157.367188</ele>
<time>2012-07-21T12:40:04Z</time>
<speed>0.260000</speed>
<extensions>
<speed>0.3</speed>
<temp>0.00</temp>
<bpm>0</bpm>
<rpm>0.00</rpm>
</extensions>
</trkpt>
<trkpt lat="64.105575562" lon="-19.833475113">
<ele>157.355469</ele>
<time>2012-07-21T12:40:09Z</time>
<speed>0.430000</speed>
<extensions>
<speed>0.4</speed>
<temp>0.00</temp>
<bpm>0</bpm>
<rpm>0.00</rpm>
</extensions>
</trkpt>
<trkpt lat="64.105567932" lon="-19.833457947">
<ele>157.582031</ele>
<time>2012-07-21T12:40:14Z</time>
<speed>0.200000</speed>
<extensions>
<speed>0.2</speed>
<temp>0.00</temp>
<bpm>0</bpm>
<rpm>0.00</rpm>
</extensions>
</trkpt>
<trkpt lat="64.105567932" lon="-19.833427429">
<ele>157.652344</ele>
<time>2012-07-21T12:40:19Z</time>
<speed>0.160000</speed>
<extensions>
<speed>0.2</speed>
<temp>0.00</temp>
<bpm>0</bpm>
<rpm>0.00</rpm>
</extensions>
</trkpt>
<trkpt lat="64.105567932" lon="-19.833410263">
<ele>157.660156</ele>
<time>2012-07-21T12:40:24Z</time>
<speed>0.160000</speed>
<extensions>
<speed>0.2</speed>
<temp>0.00</temp>
<bpm>0</bpm>
<rpm>0.00</rpm>
</extensions>
</trkpt>
<trkpt lat="64.105567932" lon="-19.833387375">
<ele>157.656250</ele>
<time>2012-07-21T12:40:29Z</time>
<speed>0.220000</speed>
<extensions>
<speed>0.2</speed>
<temp>0.00</temp>
<bpm>0</bpm>
<rpm>0.00</rpm>
</extensions>
</trkpt>
<trkpt lat="64.105567932" lon="-19.833375931">
<ele>157.636719</ele>
<time>2012-07-21T12:40:34Z</time>
<speed>0.140000</speed>
<extensions>
<speed>0.1</speed>
<temp>0.00</temp>
<bpm>0</bpm>
<rpm>0.00</rpm>
</extensions>
</trkpt>
<trkpt lat="64.105567932" lon="-19.833362579">
<ele>157.613281</ele>
<time>2012-07-21T12:40:39Z</time>
<speed>0.120000</speed>
<extensions>
<speed>0.1</speed>
<temp>0.00</temp>
<bpm>0</bpm>
<rpm>0.00</rpm>
</extensions>
</trkpt>
<trkpt lat="64.105560303" lon="-19.833360672">
<ele>157.589844</ele>
<time>2012-07-21T12:40:44Z</time>
<speed>0.190000</speed>
<extensions>
<speed>0.2</speed>
<temp>0.00</temp>
<bpm>0</bpm>
<rpm>0.00</rpm>
</extensions>
</trkpt>
<trkpt lat="64.105560303" lon="-19.833362579">
<ele>157.582031</ele>
<time>2012-07-21T12:40:49Z</time>
<speed>0.060000</speed>
<extensions>
<speed>0.1</speed>
<temp>0.00</temp>
<bpm>0</bpm>
<rpm>0.00</rpm>
</extensions>
</trkpt>
<trkpt lat="64.105560303" lon="-19.833368301">
<ele>157.574219</ele>
<time>2012-07-21T12:40:54Z</time>
<speed>0.130000</speed>
<extensions>
<speed>0.1</speed>
<temp>0.00</temp>
<bpm>0</bpm>
<rpm>0.00</rpm>
</extensions>
</trkpt>
<trkpt lat="64.105567932" lon="-19.833383560">
<ele>157.570313</ele>
<time>2012-07-21T12:40:59Z</time>
<speed>0.260000</speed>
<extensions>
<speed>0.3</speed>
<temp>0.00</temp>
<bpm>0</bpm>
<rpm>0.00</rpm>
</extensions>
</trkpt>
<trkpt lat="64.105575562" lon="-19.833395004">
<ele>157.570313</ele>
<time>2012-07-21T12:41:04Z</time>
<speed>0.150000</speed>
<extensions>
<speed>0.2</speed>
<temp>0.00</temp>
<bpm>0</bpm>
<rpm>0.00</rpm>
</extensions>
</trkpt>
<trkpt lat="64.105583191" lon="-19.833402634">
<ele>157.562500</ele>
<time>2012-07-21T12:41:09Z</time>
<speed>0.050000</speed>
<extensions>
<speed>0.1</speed>
<temp>0.00</temp>
<bpm>0</bpm>
<rpm>0.00</rpm>
</extensions>
</trkpt>
<trkpt lat="64.105583191" lon="-19.833408356">
<ele>157.562500</ele>
<time>2012-07-21T12:41:14Z</time>
<speed>0.060000</speed>
<extensions>
<speed>0.1</speed>
<temp>0.00</temp>
<bpm>0</bpm>
<rpm>0.00</rpm>
</extensions>
</trkpt>
<trkpt lat="64.105590820" lon="-19.833415985">
<ele>157.546875</ele>
<time>2012-07-21T12:41:19Z</time>
<speed>0.060000</speed>
<extensions>
<speed>0.1</speed>
<temp>0.00</temp>
<bpm>0</bpm>
<rpm>0.00</rpm>
</extensions>
</trkpt>
<trkpt lat="64.105590820" lon="-19.833414078">
<ele>157.546875</ele>
<time>2012-07-21T12:41:24Z</time>
<speed>0.020000</speed>
<extensions>
<speed>0.0</speed>
<temp>0.00</temp>
<bpm>0</bpm>
<rpm>0.00</rpm>
</extensions>
</trkpt>
<trkpt lat="64.105583191" lon="-19.833414078">
<ele>157.515625</ele>
<time>2012-07-21T12:41:29Z</time>
<speed>0.170000</speed>
<extensions>
<speed>0.2</speed>
<temp>0.00</temp>
<bpm>0</bpm>
<rpm>0.00</rpm>
</extensions>
</trkpt>
<trkpt lat="64.105583191" lon="-19.833410263">
<ele>157.480469</ele>
<time>2012-07-21T12:41:34Z</time>
<speed>0.040000</speed>
<extensions>
<speed>0.0</speed>
<temp>0.00</temp>
<bpm>0</bpm>
<rpm>0.00</rpm>
</extensions>
</trkpt>
<trkpt lat="64.105575562" lon="-19.833400726">
<ele>157.433594</ele>
<time>2012-07-21T12:41:39Z</time>
<speed>0.150000</speed>
<extensions>
<speed>0.2</speed>
<temp>0.00</temp>
<bpm>0</bpm>
<rpm>0.00</rpm>
</extensions>
</trkpt>
<trkpt lat="64.105567932" lon="-19.833396912">
<ele>157.394531</ele>
<time>2012-07-21T12:41:44Z</time>
<speed>0.180000</speed>
<extensions>
<speed>0.2</speed>
<temp>0.00</temp>
<bpm>0</bpm>
<rpm>0.00</rpm>
</extensions>
</trkpt>
<trkpt lat="64.105567932" lon="-19.833385468">
<ele>157.343750</ele>
<time>2012-07-21T12:41:49Z</time>
<speed>0.140000</speed>
<extensions>
<speed>0.1</speed>
<temp>0.00</temp>
<bpm>0</bpm>
<rpm>0.00</rpm>
</extensions>
</trkpt>
<trkpt lat="64.105567932" lon="-19.833368301">
<ele>157.289063</ele>
<time>2012-07-21T12:41:54Z</time>
<speed>0.270000</speed>
<extensions>
<speed>0.3</speed>
<temp>0.00</temp>
<bpm>0</bpm>
<rpm>0.00</rpm>
</extensions>
</trkpt>
<trkpt lat="64.105567932" lon="-19.833345413">
<ele>157.230469</ele>
<time>2012-07-21T12:41:59Z</time>
<speed>0.180000</speed>
<extensions>
<speed>0.2</speed>
<temp>0.00</temp>
<bpm>0</bpm>
<rpm>0.00</rpm>
</extensions>
</trkpt>
<trkpt lat="64.105575562" lon="-19.833337784">
<ele>157.156250</ele>
<time>2012-07-21T12:42:04Z</time>
<speed>0.140000</speed>
<extensions>
<speed>0.1</speed>
<temp>0.00</temp>
<bpm>0</bpm>
<rpm>0.00</rpm>
</extensions>
</trkpt>
<trkpt lat="64.105583191" lon="-19.833330154">
<ele>157.093750</ele>
<time>2012-07-21T12:42:09Z</time>
<speed>0.170000</speed>
<extensions>
<speed>0.2</speed>
<temp>0.00</temp>
<bpm>0</bpm>
<rpm>0.00</rpm>
</extensions>
</trkpt>
<trkpt lat="64.105590820" lon="-19.833339691">
<ele>156.875000</ele>
<time>2012-07-21T12:42:14Z</time>
<speed>0.230000</speed>
<extensions>
<speed>0.2</speed>
<temp>0.00</temp>
<bpm>0</bpm>
<rpm>0.00</rpm>
</extensions>
</trkpt>
<trkpt lat="64.105606079" lon="-19.833347321">
<ele>156.765625</ele>
<time>2012-07-21T12:42:19Z</time>
<speed>0.050000</speed>
<extensions>
<speed>0.1</speed>
<temp>0.00</temp>
<bpm>0</bpm>
<rpm>0.00</rpm>
</extensions>
</trkpt>
<trkpt lat="64.105606079" lon="-19.833351135">
<ele>156.722656</ele>
<time>2012-07-21T12:42:24Z</time>
<speed>0.040000</speed>
<extensions>
<speed>0.0</speed>
<temp>0.00</temp>
<bpm>0</bpm>
<rpm>0.00</rpm>
</extensions>
</trkpt>
<trkpt lat="64.105606079" lon="-19.833349228">
<ele>156.734375</ele>
<time>2012-07-21T12:42:29Z</time>
<speed>0.140000</speed>
<extensions>
<speed>0.1</speed>
<temp>0.00</temp>
<bpm>0</bpm>
<rpm>0.00</rpm>
</extensions>
</trkpt>
<trkpt lat="64.105606079" lon="-19.833345413">
<ele>156.738281</ele>
<time>2012-07-21T12:42:34Z</time>
<speed>0.050000</speed>
<extensions>
<speed>0.1</speed>
<temp>0.00</temp>
<bpm>0</bpm>
<rpm>0.00</rpm>
</extensions>
</trkpt>
<trkpt lat="64.105606079" lon="-19.833351135">
<ele>156.761719</ele>
<time>2012-07-21T12:42:39Z</time>
<speed>0.250000</speed>
<extensions>
<speed>0.2</speed>
<temp>0.00</temp>
<bpm>0</bpm>
<rpm>0.00</rpm>
</extensions>
</trkpt>
<trkpt lat="64.105613708" lon="-19.833374023">
<ele>156.785156</ele>
<time>2012-07-21T12:42:44Z</time>
<speed>0.240000</speed>
<extensions>
<speed>0.2</speed>
<temp>0.00</temp>
<bpm>0</bpm>
<rpm>0.00</rpm>
</extensions>
</trkpt>
<trkpt lat="64.105613708" lon="-19.833370209">
<ele>157.277344</ele>
<time>2012-07-21T12:42:49Z</time>
<speed>0.210000</speed>
<extensions>
<speed>0.2</speed>
<temp>0.00</temp>
<bpm>0</bpm>
<rpm>0.00</rpm>
</extensions>
</trkpt>
<trkpt lat="64.105636597" lon="-19.833383560">
<ele>158.097656</ele>
<time>2012-07-21T12:42:54Z</time>
<speed>0.130000</speed>
<extensions>
<speed>0.1</speed>
<temp>0.00</temp>
<bpm>0</bpm>
<rpm>0.00</rpm>
</extensions>
</trkpt>
<trkpt lat="64.105636597" lon="-19.833391190">
<ele>158.144531</ele>
<time>2012-07-21T12:42:59Z</time>
<speed>0.100000</speed>
<extensions>
<speed>0.1</speed>
<temp>0.00</temp>
<bpm>0</bpm>
<rpm>0.00</rpm>
</extensions>
</trkpt>
<trkpt lat="64.105636597" lon="-19.833398819">
<ele>158.160156</ele>
<time>2012-07-21T12:43:04Z</time>
<speed>0.120000</speed>
<extensions>
<speed>0.1</speed>
<temp>0.00</temp>
<bpm>0</bpm>
<rpm>0.00</rpm>
</extensions>
</trkpt>
<trkpt lat="64.105644226" lon="-19.833398819">
<ele>158.171875</ele>
<time>2012-07-21T12:43:09Z</time>
<speed>0.120000</speed>
<extensions>
<speed>0.1</speed>
<temp>0.00</temp>
<bpm>0</bpm>
<rpm>0.00</rpm>
</extensions>
</trkpt>
<trkpt lat="64.105636597" lon="-19.833393097">
<ele>158.175781</ele>
<time>2012-07-21T12:43:14Z</time>
<speed>0.210000</speed>
<extensions>
<speed>0.2</speed>
<temp>0.00</temp>
<bpm>0</bpm>
<rpm>0.00</rpm>
</extensions>
</trkpt>
<trkpt lat="64.105613708" lon="-19.833368301">
<ele>157.828125</ele>
<time>2012-07-21T12:43:19Z</time>
<speed>0.460000</speed>
<extensions>
<speed>0.5</speed>
<temp>0.00</temp>
<bpm>0</bpm>
<rpm>0.00</rpm>
</extensions>
</trkpt>
<trkpt lat="64.105628967" lon="-19.833391190">
<ele>158.031250</ele>
<time>2012-07-21T12:43:24Z</time>
<speed>0.290000</speed>
<extensions>
<speed>0.3</speed>
<temp>0.00</temp>
<bpm>0</bpm>
<rpm>0.00</rpm>
</extensions>
</trkpt>
<trkpt lat="64.105628967" lon="-19.833377838">
<ele>158.765625</ele>
<time>2012-07-21T12:43:29Z</time>
<speed>0.160000</speed>
<extensions>
<speed>0.2</speed>
<temp>0.00</temp>
<bpm>0</bpm>
<rpm>0.00</rpm>
</extensions>
</trkpt>
<trkpt lat="64.105628967" lon="-19.833362579">
<ele>158.761719</ele>
<time>2012-07-21T12:43:34Z</time>
<speed>0.150000</speed>
<extensions>
<speed>0.2</speed>
<temp>0.00</temp>
<bpm>0</bpm>
<rpm>0.00</rpm>
</extensions>
</trkpt>
<trkpt lat="64.105628967" lon="-19.833356857">
<ele>158.761719</ele>
<time>2012-07-21T12:43:39Z</time>
<speed>0.040000</speed>
<extensions>
<speed>0.0</speed>
<temp>0.00</temp>
<bpm>0</bpm>
<rpm>0.00</rpm>
</extensions>
</trkpt>
<trkpt lat="64.105628967" lon="-19.833353043">
<ele>158.761719</ele>
<time>2012-07-21T12:43:44Z</time>
<speed>0.080000</speed>
<extensions>
<speed>0.1</speed>
<temp>0.00</temp>
<bpm>0</bpm>
<rpm>0.00</rpm>
</extensions>
</trkpt>
<trkpt lat="64.105621338" lon="-19.833353043">
<ele>158.734375</ele>
<time>2012-07-21T12:43:49Z</time>
<speed>0.130000</speed>
<extensions>
<speed>0.1</speed>
<temp>0.00</temp>
<bpm>0</bpm>
<rpm>0.00</rpm>
</extensions>
</trkpt>
<trkpt lat="64.105613708" lon="-19.833351135">
<ele>158.695313</ele>
<time>2012-07-21T12:43:54Z</time>
<speed>0.290000</speed>
<extensions>
<speed>0.3</speed>
<temp>0.00</temp>
<bpm>0</bpm>
<rpm>0.00</rpm>
</extensions>
</trkpt>
<trkpt lat="64.105575562" lon="-19.833322525">
<ele>157.507813</ele>
<time>2012-07-21T12:43:59Z</time>
<speed>0.380000</speed>
<extensions>
<speed>0.4</speed>
<temp>0.00</temp>
<bpm>0</bpm>
<rpm>0.00</rpm>
</extensions>
</trkpt>
<trkpt lat="64.105545044" lon="-19.833324432">
<ele>156.582031</ele>
<time>2012-07-21T12:44:04Z</time>
<speed>0.300000</speed>
<extensions>
<speed>0.3</speed>
<temp>0.00</temp>
<bpm>0</bpm>
<rpm>0.00</rpm>
</extensions>
</trkpt>
<trkpt lat="64.105522156" lon="-19.833290100">
<ele>155.894531</ele>
<time>2012-07-21T12:44:09Z</time>
<speed>0.270000</speed>
<extensions>
<speed>0.3</speed>
<temp>0.00</temp>
<bpm>0</bpm>
<rpm>0.00</rpm>
</extensions>
</trkpt>
<trkpt lat="64.105522156" lon="-19.833288193">
<ele>155.847656</ele>
<time>2012-07-21T12:44:14Z</time>
<speed>0.250000</speed>
<extensions>
<speed>0.2</speed>
<temp>0.00</temp>
<bpm>0</bpm>
<rpm>0.00</rpm>
</extensions>
</trkpt>
<trkpt lat="64.105514526" lon="-19.833286285">
<ele>155.789063</ele>
<time>2012-07-21T12:44:19Z</time>
<speed>0.200000</speed>
<extensions>
<speed>0.2</speed>
<temp>0.00</temp>
<bpm>0</bpm>
<rpm>0.00</rpm>
</extensions>
</trkpt>
<trkpt lat="64.105506897" lon="-19.833263397">
<ele>156.250000</ele>
<time>2012-07-21T12:44:24Z</time>
<speed>0.180000</speed>
<extensions>
<speed>0.2</speed>
<temp>0.00</temp>
<bpm>0</bpm>
<rpm>0.00</rpm>
</extensions>
</trkpt>
<trkpt lat="64.105506897" lon="-19.833259583">
<ele>156.441406</ele>
<time>2012-07-21T12:44:29Z</time>
<speed>0.120000</speed>
<extensions>
<speed>0.1</speed>
<temp>0.00</temp>
<bpm>0</bpm>
<rpm>0.00</rpm>
</extensions>
</trkpt>
<trkpt lat="64.105506897" lon="-19.833244324">
<ele>156.984375</ele>
<time>2012-07-21T12:44:34Z</time>
<speed>0.290000</speed>
<extensions>
<speed>0.3</speed>
<temp>0.00</temp>
<bpm>0</bpm>
<rpm>0.00</rpm>
</extensions>
</trkpt>
<trkpt lat="64.105529785" lon="-19.833271027">
<ele>157.945313</ele>
<time>2012-07-21T12:44:39Z</time>
<speed>0.100000</speed>
<extensions>
<speed>0.1</speed>
<temp>0.00</temp>
<bpm>0</bpm>
<rpm>0.00</rpm>
</extensions>
</trkpt>
<trkpt lat="64.105529785" lon="-19.833276749">
<ele>157.937500</ele>
<time>2012-07-21T12:44:44Z</time>
<speed>0.060000</speed>
<extensions>
<speed>0.1</speed>
<temp>0.00</temp>
<bpm>0</bpm>
<rpm>0.00</rpm>
</extensions>
</trkpt>
<trkpt lat="64.105537415" lon="-19.833278656">
<ele>157.933594</ele>
<time>2012-07-21T12:44:49Z</time>
<speed>0.130000</speed>
<extensions>
<speed>0.1</speed>
<temp>0.00</temp>
<bpm>0</bpm>
<rpm>0.00</rpm>
</extensions>
</trkpt>
<trkpt lat="64.105598450" lon="-19.833324432">
<ele>158.683594</ele>
<time>2012-07-21T12:44:54Z</time>
<speed>0.420000</speed>
<extensions>
<speed>0.4</speed>
<temp>0.00</temp>
<bpm>0</bpm>
<rpm>0.00</rpm>
</extensions>
</trkpt>
<trkpt lat="64.105636597" lon="-19.833383560">
<ele>159.660156</ele>
<time>2012-07-21T12:44:59Z</time>
<speed>0.420000</speed>
<extensions>
<speed>0.4</speed>
<temp>0.00</temp>
<bpm>0</bpm>
<rpm>0.00</rpm>
</extensions>
</trkpt>
<trkpt lat="64.105705261" lon="-19.833431244">
<ele>160.968750</ele>
<time>2012-07-21T12:45:04Z</time>
<speed>0.570000</speed>
<extensions>
<speed>0.6</speed>
<temp>0.00</temp>
<bpm>0</bpm>
<rpm>0.00</rpm>
</extensions>
</trkpt>
<trkpt lat="64.105712891" lon="-19.833438873">
<ele>161.894531</ele>
<time>2012-07-21T12:45:09Z</time>
<speed>0.460000</speed>
<extensions>
<speed>0.5</speed>
<temp>0.00</temp>
<bpm>0</bpm>
<rpm>0.00</rpm>
</extensions>
</trkpt>
<trkpt lat="64.105766296" lon="-19.833435059">
<ele>163.496094</ele>
<time>2012-07-21T12:45:14Z</time>
<speed>0.520000</speed>
<extensions>
<speed>0.5</speed>
<temp>0.00</temp>
<bpm>0</bpm>
<rpm>0.00</rpm>
</extensions>
</trkpt>
<trkpt lat="64.105796814" lon="-19.833427429">
<ele>164.800781</ele>
<time>2012-07-21T12:45:19Z</time>
<speed>0.400000</speed>
<extensions>
<speed>0.4</speed>
<temp>0.00</temp>
<bpm>0</bpm>
<rpm>0.00</rpm>
</extensions>
</trkpt>
<trkpt lat="64.105789185" lon="-19.833440781">
<ele>165.964844</ele>
<time>2012-07-21T12:45:24Z</time>
<speed>0.230000</speed>
<extensions>
<speed>0.2</speed>
<temp>0.00</temp>
<bpm>0</bpm>
<rpm>0.00</rpm>
</extensions>
</trkpt>
<trkpt lat="64.105804443" lon="-19.833414078">
<ele>166.515625</ele>
<time>2012-07-21T12:45:29Z</time>
<speed>0.170000</speed>
<extensions>
<speed>0.2</speed>
<temp>0.00</temp>
<bpm>0</bpm>
<rpm>0.00</rpm>
</extensions>
</trkpt>
<trkpt lat="64.105812073" lon="-19.833398819">
<ele>166.660156</ele>
<time>2012-07-21T12:45:34Z</time>
<speed>0.080000</speed>
<extensions>
<speed>0.1</speed>
<temp>0.00</temp>
<bpm>0</bpm>
<rpm>0.00</rpm>
</extensions>
</trkpt>
<trkpt lat="64.105804443" lon="-19.833402634">
<ele>166.718750</ele>
<time>2012-07-21T12:45:39Z</time>
<speed>0.160000</speed>
<extensions>
<speed>0.2</speed>
<temp>0.00</temp>
<bpm>0</bpm>
<rpm>0.00</rpm>
</extensions>
</trkpt>
<trkpt lat="64.105819702" lon="-19.833412170">
<ele>166.753906</ele>
<time>2012-07-21T12:45:44Z</time>
<speed>0.250000</speed>
<extensions>
<speed>0.2</speed>
<temp>0.00</temp>
<bpm>0</bpm>
<rpm>0.00</rpm>
</extensions>
</trkpt>
<trkpt lat="64.105834961" lon="-19.833425522">
<ele>167.019531</ele>
<time>2012-07-21T12:45:49Z</time>
<speed>0.170000</speed>
<extensions>
<speed>0.2</speed>
<temp>0.00</temp>
<bpm>0</bpm>
<rpm>0.00</rpm>
</extensions>
</trkpt>
<trkpt lat="64.105865479" lon="-19.833444595">
<ele>167.289063</ele>
<time>2012-07-21T12:45:54Z</time>
<speed>0.170000</speed>
<extensions>
<speed>0.2</speed>
<temp>0.00</temp>
<bpm>0</bpm>
<rpm>0.00</rpm>
</extensions>
</trkpt>
<trkpt lat="64.105888367" lon="-19.833402634">
<ele>167.207031</ele>
<time>2012-07-21T12:45:59Z</time>
<speed>0.320000</speed>
<extensions>
<speed>0.3</speed>
<temp>0.00</temp>
<bpm>0</bpm>
<rpm>0.00</rpm>
</extensions>
</trkpt>
<trkpt lat="64.105834961" lon="-19.833377838">
<ele>165.859375</ele>
<time>2012-07-21T12:46:04Z</time>
<speed>0.280000</speed>
<extensions>
<speed>0.3</speed>
<temp>0.00</temp>
<bpm>0</bpm>
<rpm>0.00</rpm>
</extensions>
</trkpt>
<trkpt lat="64.105789185" lon="-19.833360672">
<ele>164.527344</ele>
<time>2012-07-21T12:46:09Z</time>
<speed>0.450000</speed>
<extensions>
<speed>0.5</speed>
<temp>0.00</temp>
<bpm>0</bpm>
<rpm>0.00</rpm>
</extensions>
</trkpt>
<trkpt lat="64.105751038" lon="-19.833328247">
<ele>163.234375</ele>
<time>2012-07-21T12:46:14Z</time>
<speed>0.510000</speed>
<extensions>
<speed>0.5</speed>
<temp>0.00</temp>
<bpm>0</bpm>
<rpm>0.00</rpm>
</extensions>
</trkpt>
<trkpt lat="64.105712891" lon="-19.833314896">
<ele>161.191406</ele>
<time>2012-07-21T12:46:19Z</time>
<speed>0.470000</speed>
<extensions>
<speed>0.5</speed>
<temp>0.00</temp>
<bpm>0</bpm>
<rpm>0.00</rpm>
</extensions>
</trkpt>
<trkpt lat="64.105667114" lon="-19.833314896">
<ele>160.625000</ele>
<time>2012-07-21T12:46:24Z</time>
<speed>0.270000</speed>
<extensions>
<speed>0.3</speed>
<temp>0.00</temp>
<bpm>0</bpm>
<rpm>0.00</rpm>
</extensions>
</trkpt>
<trkpt lat="64.105659485" lon="-19.833305359">
<ele>160.011719</ele>
<time>2012-07-21T12:46:29Z</time>
<speed>0.240000</speed>
<extensions>
<speed>0.2</speed>
<temp>0.00</temp>
<bpm>0</bpm>
<rpm>0.00</rpm>
</extensions>
</trkpt>
<trkpt lat="64.105651855" lon="-19.833299637">
<ele>159.917969</ele>
<time>2012-07-21T12:46:34Z</time>
<speed>0.260000</speed>
<extensions>
<speed>0.3</speed>
<temp>0.00</temp>
<bpm>0</bpm>
<rpm>0.00</rpm>
</extensions>
</trkpt>
<trkpt lat="64.105644226" lon="-19.833312988">
<ele>159.847656</ele>
<time>2012-07-21T12:46:39Z</time>
<speed>0.260000</speed>
<extensions>
<speed>0.3</speed>
<temp>0.00</temp>
<bpm>0</bpm>
<rpm>0.00</rpm>
</extensions>
</trkpt>
<trkpt lat="64.105636597" lon="-19.833320618">
<ele>159.785156</ele>
<time>2012-07-21T12:46:44Z</time>
<speed>0.140000</speed>
<extensions>
<speed>0.1</speed>
<temp>0.00</temp>
<bpm>0</bpm>
<rpm>0.00</rpm>
</extensions>
</trkpt>
<trkpt lat="64.105590820" lon="-19.833351135">
<ele>159.410156</ele>
<time>2012-07-21T12:46:49Z</time>
<speed>0.340000</speed>
<extensions>
<speed>0.3</speed>
<temp>0.00</temp>
<bpm>0</bpm>
<rpm>0.00</rpm>
</extensions>
</trkpt>
<trkpt lat="64.105598450" lon="-19.833366394">
<ele>158.972656</ele>
<time>2012-07-21T12:46:54Z</time>
<speed>0.170000</speed>
<extensions>
<speed>0.2</speed>
<temp>0.00</temp>
<bpm>0</bpm>
<rpm>0.00</rpm>
</extensions>
</trkpt>
<trkpt lat="64.105583191" lon="-19.833360672">
<ele>158.988281</ele>
<time>2012-07-21T12:46:59Z</time>
<speed>0.310000</speed>
<extensions>
<speed>0.3</speed>
<temp>0.00</temp>
<bpm>0</bpm>
<rpm>0.00</rpm>
</extensions>
</trkpt>
<trkpt lat="64.105575562" lon="-19.833383560">
<ele>159.070313</ele>
<time>2012-07-21T12:47:04Z</time>
<speed>0.020000</speed>
<extensions>
<speed>0.0</speed>
<temp>0.00</temp>
<bpm>0</bpm>
<rpm>0.00</rpm>
</extensions>
</trkpt>
<trkpt lat="64.105575562" lon="-19.833383560">
<ele>159.074219</ele>
<time>2012-07-21T12:47:09Z</time>
<speed>0.150000</speed>
<extensions>
<speed>0.2</speed>
<temp>0.00</temp>
<bpm>0</bpm>
<rpm>0.00</rpm>
</extensions>
</trkpt>
<trkpt lat="64.105567932" lon="-19.833372116">
<ele>159.054688</ele>
<time>2012-07-21T12:47:14Z</time>
<speed>0.180000</speed>
<extensions>
<speed>0.2</speed>
<temp>0.00</temp>
<bpm>0</bpm>
<rpm>0.00</rpm>
</extensions>
</trkpt>
<trkpt lat="64.105567932" lon="-19.833368301">
<ele>159.027344</ele>
<time>2012-07-21T12:47:19Z</time>
<speed>0.120000</speed>
<extensions>
<speed>0.1</speed>
<temp>0.00</temp>
<bpm>0</bpm>
<rpm>0.00</rpm>
</extensions>
</trkpt>
<trkpt lat="64.105567932" lon="-19.833364487">
<ele>159.015625</ele>
<time>2012-07-21T12:47:24Z</time>
<speed>0.070000</speed>
<extensions>
<speed>0.1</speed>
<temp>0.00</temp>
<bpm>0</bpm>
<rpm>0.00</rpm>
</extensions>
</trkpt>
<trkpt lat="64.105590820" lon="-19.833351135">
<ele>158.894531</ele>
<time>2012-07-21T12:47:29Z</time>
<speed>0.300000</speed>
<extensions>
<speed>0.3</speed>
<temp>0.00</temp>
<bpm>0</bpm>
<rpm>0.00</rpm>
</extensions>
</trkpt>
<trkpt lat="64.105583191" lon="-19.833341599">
<ele>158.441406</ele>
<time>2012-07-21T12:47:34Z</time>
<speed>0.130000</speed>
<extensions>
<speed>0.1</speed>
<temp>0.00</temp>
<bpm>0</bpm>
<rpm>0.00</rpm>
</extensions>
</trkpt>
<trkpt lat="64.105583191" lon="-19.833339691">
<ele>158.437500</ele>
<time>2012-07-21T12:47:39Z</time>
<speed>0.100000</speed>
<extensions>
<speed>0.1</speed>
<temp>0.00</temp>
<bpm>0</bpm>
<rpm>0.00</rpm>
</extensions>
</trkpt>
<trkpt lat="64.105590820" lon="-19.833345413">
<ele>158.433594</ele>
<time>2012-07-21T12:47:44Z</time>
<speed>0.180000</speed>
<extensions>
<speed>0.2</speed>
<temp>0.00</temp>
<bpm>0</bpm>
<rpm>0.00</rpm>
</extensions>
</trkpt>
<trkpt lat="64.105628967" lon="-19.833379745">
<ele>157.894531</ele>
<time>2012-07-21T12:47:49Z</time>
<speed>0.380000</speed>
<extensions>
<speed>0.4</speed>
<temp>0.00</temp>
<bpm>0</bpm>
<rpm>0.00</rpm>
</extensions>
</trkpt>
<trkpt lat="64.105659485" lon="-19.833383560">
<ele>156.609375</ele>
<time>2012-07-21T12:47:54Z</time>
<speed>0.060000</speed>
<extensions>
<speed>0.1</speed>
<temp>0.00</temp>
<bpm>0</bpm>
<rpm>0.00</rpm>
</extensions>
</trkpt>
<trkpt lat="64.105659485" lon="-19.833385468">
<ele>156.246094</ele>
<time>2012-07-21T12:47:59Z</time>
<speed>0.160000</speed>
<extensions>
<speed>0.2</speed>
<temp>0.00</temp>
<bpm>0</bpm>
<rpm>0.00</rpm>
</extensions>
</trkpt>
<trkpt lat="64.105659485" lon="-19.833374023">
<ele>156.207031</ele>
<time>2012-07-21T12:48:04Z</time>
<speed>0.130000</speed>
<extensions>
<speed>0.1</speed>
<temp>0.00</temp>
<bpm>0</bpm>
<rpm>0.00</rpm>
</extensions>
</trkpt>
<trkpt lat="64.105659485" lon="-19.833379745">
<ele>156.171875</ele>
<time>2012-07-21T12:48:09Z</time>
<speed>0.230000</speed>
<extensions>
<speed>0.2</speed>
<temp>0.00</temp>
<bpm>0</bpm>
<rpm>0.00</rpm>
</extensions>
</trkpt>
<trkpt lat="64.105628967" lon="-19.833389282">
<ele>155.191406</ele>
<time>2012-07-21T12:48:14Z</time>
<speed>0.190000</speed>
<extensions>
<speed>0.2</speed>
<temp>0.00</temp>
<bpm>0</bpm>
<rpm>0.00</rpm>
</extensions>
</trkpt>
<trkpt lat="64.105636597" lon="-19.833374023">
<ele>155.070313</ele>
<time>2012-07-21T12:48:19Z</time>
<speed>0.220000</speed>
<extensions>
<speed>0.2</speed>
<temp>0.00</temp>
<bpm>0</bpm>
<rpm>0.00</rpm>
</extensions>
</trkpt>
<trkpt lat="64.105651855" lon="-19.833364487">
<ele>154.968750</ele>
<time>2012-07-21T12:48:24Z</time>
<speed>0.290000</speed>
<extensions>
<speed>0.3</speed>
<temp>0.00</temp>
<bpm>0</bpm>
<rpm>0.00</rpm>
</extensions>
</trkpt>
<trkpt lat="64.105659485" lon="-19.833362579">
<ele>154.769531</ele>
<time>2012-07-21T12:48:29Z</time>
<speed>0.220000</speed>
<extensions>
<speed>0.2</speed>
<temp>0.00</temp>
<bpm>0</bpm>
<rpm>0.00</rpm>
</extensions>
</trkpt>
<trkpt lat="64.105682373" lon="-19.833358765">
<ele>154.433594</ele>
<time>2012-07-21T12:48:34Z</time>
<speed>0.320000</speed>
<extensions>
<speed>0.3</speed>
<temp>0.00</temp>
<bpm>0</bpm>
<rpm>0.00</rpm>
</extensions>
</trkpt>
<trkpt lat="64.105690002" lon="-19.833375931">
<ele>154.398438</ele>
<time>2012-07-21T12:48:39Z</time>
<speed>0.420000</speed>
<extensions>
<speed>0.4</speed>
<temp>0.00</temp>
<bpm>0</bpm>
<rpm>0.00</rpm>
</extensions>
</trkpt>
<trkpt lat="64.105705261" lon="-19.833360672">
<ele>154.488281</ele>
<time>2012-07-21T12:48:44Z</time>
<speed>0.360000</speed>
<extensions>
<speed>0.4</speed>
<temp>0.00</temp>
<bpm>0</bpm>
<rpm>0.00</rpm>
</extensions>
</trkpt>
<trkpt lat="64.105728149" lon="-19.833305359">
<ele>154.558594</ele>
<time>2012-07-21T12:48:49Z</time>
<speed>0.130000</speed>
<extensions>
<speed>0.1</speed>
<temp>0.00</temp>
<bpm>0</bpm>
<rpm>0.00</rpm>
</extensions>
</trkpt>
<trkpt lat="64.105728149" lon="-19.833297729">
<ele>154.597656</ele>
<time>2012-07-21T12:48:54Z</time>
<speed>0.100000</speed>
<extensions>
<speed>0.1</speed>
<temp>0.00</temp>
<bpm>0</bpm>
<rpm>0.00</rpm>
</extensions>
</trkpt>
<trkpt lat="64.105728149" lon="-19.833303452">
<ele>154.593750</ele>
<time>2012-07-21T12:48:59Z</time>
<speed>0.150000</speed>
<extensions>
<speed>0.2</speed>
<temp>0.00</temp>
<bpm>0</bpm>
<rpm>0.00</rpm>
</extensions>
</trkpt>
<trkpt lat="64.105720520" lon="-19.833318710">
<ele>154.605469</ele>
<time>2012-07-21T12:49:04Z</time>
<speed>0.340000</speed>
<extensions>
<speed>0.3</speed>
<temp>0.00</temp>
<bpm>0</bpm>
<rpm>0.00</rpm>
</extensions>
</trkpt>
<trkpt lat="64.105674744" lon="-19.833349228">
<ele>154.648438</ele>
<time>2012-07-21T12:49:09Z</time>
<speed>0.430000</speed>
<extensions>
<speed>0.4</speed>
<temp>0.00</temp>
<bpm>0</bpm>
<rpm>0.00</rpm>
</extensions>
</trkpt>
<trkpt lat="64.105567932" lon="-19.833374023">
<ele>154.332031</ele>
<time>2012-07-21T12:49:14Z</time>
<speed>0.540000</speed>
<extensions>
<speed>0.5</speed>
<temp>0.00</temp>
<bpm>0</bpm>
<rpm>0.00</rpm>
</extensions>
</trkpt>
<trkpt lat="64.105468750" lon="-19.833410263">
<ele>153.867188</ele>
<time>2012-07-21T12:49:19Z</time>
<speed>0.680000</speed>
<extensions>
<speed>0.7</speed>
<temp>0.00</temp>
<bpm>0</bpm>
<rpm>0.00</rpm>
</extensions>
</trkpt>
<trkpt lat="64.105453491" lon="-19.833395004">
<ele>153.574219</ele>
<time>2012-07-21T12:49:24Z</time>
<speed>0.740000</speed>
<extensions>
<speed>0.7</speed>
<temp>0.00</temp>
<bpm>0</bpm>
<rpm>0.00</rpm>
</extensions>
</trkpt>
<trkpt lat="64.105415344" lon="-19.833379745">
<ele>152.597656</ele>
<time>2012-07-21T12:49:29Z</time>
<speed>0.730000</speed>
<extensions>
<speed>0.7</speed>
<temp>0.00</temp>
<bpm>0</bpm>
<rpm>0.00</rpm>
</extensions>
</trkpt>
<trkpt lat="64.105384827" lon="-19.833431244">
<ele>151.492188</ele>
<time>2012-07-21T12:49:34Z</time>
<speed>0.580000</speed>
<extensions>
<speed>0.6</speed>
<temp>0.00</temp>
<bpm>0</bpm>
<rpm>0.00</rpm>
</extensions>
</trkpt>
<trkpt lat="64.105384827" lon="-19.833408356">
<ele>150.308594</ele>
<time>2012-07-21T12:49:39Z</time>
<speed>0.520000</speed>
<extensions>
<speed>0.5</speed>
<temp>0.00</temp>
<bpm>0</bpm>
<rpm>0.00</rpm>
</extensions>
</trkpt>
<trkpt lat="64.105392456" lon="-19.833347321">
<ele>149.167969</ele>
<time>2012-07-21T12:49:44Z</time>
<speed>0.420000</speed>
<extensions>
<speed>0.4</speed>
<temp>0.00</temp>
<bpm>0</bpm>
<rpm>0.00</rpm>
</extensions>
</trkpt>
<trkpt lat="64.105415344" lon="-19.833311081">
<ele>148.246094</ele>
<time>2012-07-21T12:49:49Z</time>
<speed>0.260000</speed>
<extensions>
<speed>0.3</speed>
<temp>0.00</temp>
<bpm>0</bpm>
<rpm>0.00</rpm>
</extensions>
</trkpt>
<trkpt lat="64.105422974" lon="-19.833332062">
<ele>147.523438</ele>
<time>2012-07-21T12:49:54Z</time>
<speed>0.090000</speed>
<extensions>
<speed>0.1</speed>
<temp>0.00</temp>
<bpm>0</bpm>
<rpm>0.00</rpm>
</extensions>
</trkpt>
<trkpt lat="64.105430603" lon="-19.833332062">
<ele>147.417969</ele>
<time>2012-07-21T12:49:59Z</time>
<speed>0.370000</speed>
<extensions>
<speed>0.4</speed>
<temp>0.00</temp>
<bpm>0</bpm>
<rpm>0.00</rpm>
</extensions>
</trkpt>
<trkpt lat="64.105514526" lon="-19.833356857">
<ele>147.308594</ele>
<time>2012-07-21T12:50:04Z</time>
<speed>0.570000</speed>
<extensions>
<speed>0.6</speed>
<temp>0.00</temp>
<bpm>0</bpm>
<rpm>0.00</rpm>
</extensions>
</trkpt>
<trkpt lat="64.105560303" lon="-19.833393097">
<ele>146.511719</ele>
<time>2012-07-21T12:50:09Z</time>
<speed>0.520000</speed>
<extensions>
<speed>0.5</speed>
<temp>0.00</temp>
<bpm>0</bpm>
<rpm>0.00</rpm>
</extensions>
</trkpt>
<trkpt lat="64.105598450" lon="-19.833438873">
<ele>146.300781</ele>
<time>2012-07-21T12:50:14Z</time>
<speed>0.490000</speed>
<extensions>
<speed>0.5</speed>
<temp>0.00</temp>
<bpm>0</bpm>
<rpm>0.00</rpm>
</extensions>
</trkpt>
<trkpt lat="64.105598450" lon="-19.833421707">
<ele>146.203125</ele>
<time>2012-07-21T12:50:19Z</time>
<speed>0.250000</speed>
<extensions>
<speed>0.2</speed>
<temp>0.00</temp>
<bpm>0</bpm>
<rpm>0.00</rpm>
</extensions>
</trkpt>
<trkpt lat="64.105606079" lon="-19.833425522">
<ele>146.429688</ele>
<time>2012-07-21T12:50:24Z</time>
<speed>0.200000</speed>
<extensions>
<speed>0.2</speed>
<temp>0.00</temp>
<bpm>0</bpm>
<rpm>0.00</rpm>
</extensions>
</trkpt>
<trkpt lat="64.105606079" lon="-19.833429337">
<ele>146.472656</ele>
<time>2012-07-21T12:50:29Z</time>
<speed>0.070000</speed>
<extensions>
<speed>0.1</speed>
<temp>0.00</temp>
<bpm>0</bpm>
<rpm>0.00</rpm>
</extensions>
</trkpt>
<trkpt lat="64.105606079" lon="-19.833427429">
<ele>146.515625</ele>
<time>2012-07-21T12:50:34Z</time>
<speed>0.150000</speed>
<extensions>
<speed>0.2</speed>
<temp>0.00</temp>
<bpm>0</bpm>
<rpm>0.00</rpm>
</extensions>
</trkpt>
<trkpt lat="64.105598450" lon="-19.833415985">
<ele>146.519531</ele>
<time>2012-07-21T12:50:39Z</time>
<speed>0.190000</speed>
<extensions>
<speed>0.2</speed>
<temp>0.00</temp>
<bpm>0</bpm>
<rpm>0.00</rpm>
</extensions>
</trkpt>
<trkpt lat="64.105598450" lon="-19.833408356">
<ele>146.519531</ele>
<time>2012-07-21T12:50:44Z</time>
<speed>0.160000</speed>
<extensions>
<speed>0.2</speed>
<temp>0.00</temp>
<bpm>0</bpm>
<rpm>0.00</rpm>
</extensions>
</trkpt>
<trkpt lat="64.105590820" lon="-19.833402634">
<ele>146.558594</ele>
<time>2012-07-21T12:50:49Z</time>
<speed>0.200000</speed>
<extensions>
<speed>0.2</speed>
<temp>0.00</temp>
<bpm>0</bpm>
<rpm>0.00</rpm>
</extensions>
</trkpt>
<trkpt lat="64.105583191" lon="-19.833402634">
<ele>146.582031</ele>
<time>2012-07-21T12:50:54Z</time>
<speed>0.200000</speed>
<extensions>
<speed>0.2</speed>
<temp>0.00</temp>
<bpm>0</bpm>
<rpm>0.00</rpm>
</extensions>
</trkpt>
<trkpt lat="64.105583191" lon="-19.833408356">
<ele>146.570313</ele>
<time>2012-07-21T12:50:59Z</time>
<speed>0.130000</speed>
<extensions>
<speed>0.1</speed>
<temp>0.00</temp>
<bpm>0</bpm>
<rpm>0.00</rpm>
</extensions>
</trkpt>
<trkpt lat="64.105590820" lon="-19.833391190">
<ele>146.570313</ele>
<time>2012-07-21T12:51:04Z</time>
<speed>0.230000</speed>
<extensions>
<speed>0.2</speed>
<temp>0.00</temp>
<bpm>0</bpm>
<rpm>0.00</rpm>
</extensions>
</trkpt>
<trkpt lat="64.105590820" lon="-19.833362579">
<ele>146.191406</ele>
<time>2012-07-21T12:51:09Z</time>
<speed>0.360000</speed>
<extensions>
<speed>0.4</speed>
<temp>0.00</temp>
<bpm>0</bpm>
<rpm>0.00</rpm>
</extensions>
</trkpt>
<trkpt lat="64.105613708" lon="-19.833364487">
<ele>146.113281</ele>
<time>2012-07-21T12:51:14Z</time>
<speed>0.150000</speed>
<extensions>
<speed>0.2</speed>
<temp>0.00</temp>
<bpm>0</bpm>
<rpm>0.00</rpm>
</extensions>
</trkpt>
<trkpt lat="64.105606079" lon="-19.833353043">
<ele>146.070313</ele>
<time>2012-07-21T12:51:19Z</time>
<speed>0.090000</speed>
<extensions>
<speed>0.1</speed>
<temp>0.00</temp>
<bpm>0</bpm>
<rpm>0.00</rpm>
</extensions>
</trkpt>
<trkpt lat="64.105613708" lon="-19.833353043">
<ele>146.003906</ele>
<time>2012-07-21T12:51:24Z</time>
<speed>0.150000</speed>
<extensions>
<speed>0.2</speed>
<temp>0.00</temp>
<bpm>0</bpm>
<rpm>0.00</rpm>
</extensions>
</trkpt>
<trkpt lat="64.105613708" lon="-19.833360672">
<ele>145.933594</ele>
<time>2012-07-21T12:51:29Z</time>
<speed>0.020000</speed>
<extensions>
<speed>0.0</speed>
<temp>0.00</temp>
<bpm>0</bpm>
<rpm>0.00</rpm>
</extensions>
</trkpt>
<trkpt lat="64.105613708" lon="-19.833366394">
<ele>145.890625</ele>
<time>2012-07-21T12:51:34Z</time>
<speed>0.090000</speed>
<extensions>
<speed>0.1</speed>
<temp>0.00</temp>
<bpm>0</bpm>
<rpm>0.00</rpm>
</extensions>
</trkpt>
<trkpt lat="64.105613708" lon="-19.833383560">
<ele>145.890625</ele>
<time>2012-07-21T12:51:39Z</time>
<speed>0.210000</speed>
<extensions>
<speed>0.2</speed>
<temp>0.00</temp>
<bpm>0</bpm>
<rpm>0.00</rpm>
</extensions>
</trkpt>
<trkpt lat="64.105613708" lon="-19.833414078">
<ele>146.542969</ele>
<time>2012-07-21T12:51:44Z</time>
<speed>0.190000</speed>
<extensions>
<speed>0.2</speed>
<temp>0.00</temp>
<bpm>0</bpm>
<rpm>0.00</rpm>
</extensions>
</trkpt>
<trkpt lat="64.105606079" lon="-19.833419800">
<ele>147.015625</ele>
<time>2012-07-21T12:51:49Z</time>
<speed>0.180000</speed>
<extensions>
<speed>0.2</speed>
<temp>0.00</temp>
<bpm>0</bpm>
<rpm>0.00</rpm>
</extensions>
</trkpt>
<trkpt lat="64.105606079" lon="-19.833438873">
<ele>147.015625</ele>
<time>2012-07-21T12:51:54Z</time>
<speed>0.210000</speed>
<extensions>
<speed>0.2</speed>
<temp>0.00</temp>
<bpm>0</bpm>
<rpm>0.00</rpm>
</extensions>
</trkpt>
<trkpt lat="64.105606079" lon="-19.833446503">
<ele>147.023438</ele>
<time>2012-07-21T12:51:59Z</time>
<speed>0.040000</speed>
<extensions>
<speed>0.0</speed>
<temp>0.00</temp>
<bpm>0</bpm>
<rpm>0.00</rpm>
</extensions>
</trkpt>
<trkpt lat="64.105598450" lon="-19.833444595">
<ele>147.042969</ele>
<time>2012-07-21T12:52:04Z</time>
<speed>0.200000</speed>
<extensions>
<speed>0.2</speed>
<temp>0.00</temp>
<bpm>0</bpm>
<rpm>0.00</rpm>
</extensions>
</trkpt>
<trkpt lat="64.105598450" lon="-19.833444595">
<ele>147.019531</ele>
<time>2012-07-21T12:52:09Z</time>
<speed>0.060000</speed>
<extensions>
<speed>0.1</speed>
<temp>0.00</temp>
<bpm>0</bpm>
<rpm>0.00</rpm>
</extensions>
</trkpt>
<trkpt lat="64.105590820" lon="-19.833446503">
<ele>147.011719</ele>
<time>2012-07-21T12:52:14Z</time>
<speed>0.150000</speed>
<extensions>
<speed>0.2</speed>
<temp>0.00</temp>
<bpm>0</bpm>
<rpm>0.00</rpm>
</extensions>
</trkpt>
<trkpt lat="64.105590820" lon="-19.833442688">
<ele>146.988281</ele>
<time>2012-07-21T12:52:19Z</time>
<speed>0.160000</speed>
<extensions>
<speed>0.2</speed>
<temp>0.00</temp>
<bpm>0</bpm>
<rpm>0.00</rpm>
</extensions>
</trkpt>
<trkpt lat="64.105590820" lon="-19.833433151">
<ele>146.980469</ele>
<time>2012-07-21T12:52:24Z</time>
<speed>0.160000</speed>
<extensions>
<speed>0.2</speed>
<temp>0.00</temp>
<bpm>0</bpm>
<rpm>0.00</rpm>
</extensions>
</trkpt>
<trkpt lat="64.105590820" lon="-19.833425522">
<ele>146.976563</ele>
<time>2012-07-21T12:52:29Z</time>
<speed>0.200000</speed>
<extensions>
<speed>0.2</speed>
<temp>0.00</temp>
<bpm>0</bpm>
<rpm>0.00</rpm>
</extensions>
</trkpt>
<trkpt lat="64.105598450" lon="-19.833421707">
<ele>146.941406</ele>
<time>2012-07-21T12:52:34Z</time>
<speed>0.180000</speed>
<extensions>
<speed>0.2</speed>
<temp>0.00</temp>
<bpm>0</bpm>
<rpm>0.00</rpm>
</extensions>
</trkpt>
<trkpt lat="64.105606079" lon="-19.833423615">
<ele>146.910156</ele>
<time>2012-07-21T12:52:39Z</time>
<speed>0.230000</speed>
<extensions>
<speed>0.2</speed>
<temp>0.00</temp>
<bpm>0</bpm>
<rpm>0.00</rpm>
</extensions>
</trkpt>
<trkpt lat="64.105613708" lon="-19.833427429">
<ele>146.898438</ele>
<time>2012-07-21T12:52:44Z</time>
<speed>0.210000</speed>
<extensions>
<speed>0.2</speed>
<temp>0.00</temp>
<bpm>0</bpm>
<rpm>0.00</rpm>
</extensions>
</trkpt>
<trkpt lat="64.105613708" lon="-19.833433151">
<ele>146.898438</ele>
<time>2012-07-21T12:52:49Z</time>
<speed>0.110000</speed>
<extensions>
<speed>0.1</speed>
<temp>0.00</temp>
<bpm>0</bpm>
<rpm>0.00</rpm>
</extensions>
</trkpt>
<trkpt lat="64.105606079" lon="-19.833427429">
<ele>146.906250</ele>
<time>2012-07-21T12:52:54Z</time>
<speed>0.050000</speed>
<extensions>
<speed>0.1</speed>
<temp>0.00</temp>
<bpm>0</bpm>
<rpm>0.00</rpm>
</extensions>
</trkpt>
<trkpt lat="64.105613708" lon="-19.833429337">
<ele>146.910156</ele>
<time>2012-07-21T12:52:59Z</time>
<speed>0.150000</speed>
<extensions>
<speed>0.2</speed>
<temp>0.00</temp>
<bpm>0</bpm>
<rpm>0.00</rpm>
</extensions>
</trkpt>
<trkpt lat="64.105613708" lon="-19.833442688">
<ele>146.878906</ele>
<time>2012-07-21T12:53:04Z</time>
<speed>0.250000</speed>
<extensions>
<speed>0.2</speed>
<temp>0.00</temp>
<bpm>0</bpm>
<rpm>0.00</rpm>
</extensions>
</trkpt>
<trkpt lat="64.105621338" lon="-19.833454132">
<ele>146.871094</ele>
<time>2012-07-21T12:53:09Z</time>
<speed>0.100000</speed>
<extensions>
<speed>0.1</speed>
<temp>0.00</temp>
<bpm>0</bpm>
<rpm>0.00</rpm>
</extensions>
</trkpt>
<trkpt lat="64.105621338" lon="-19.833454132">
<ele>146.851563</ele>
<time>2012-07-21T12:53:14Z</time>
<speed>0.250000</speed>
<extensions>
<speed>0.2</speed>
<temp>0.00</temp>
<bpm>0</bpm>
<rpm>0.00</rpm>
</extensions>
</trkpt>
<trkpt lat="64.105613708" lon="-19.833456039">
<ele>146.808594</ele>
<time>2012-07-21T12:53:19Z</time>
<speed>0.060000</speed>
<extensions>
<speed>0.1</speed>
<temp>0.00</temp>
<bpm>0</bpm>
<rpm>0.00</rpm>
</extensions>
</trkpt>
<trkpt lat="64.105613708" lon="-19.833446503">
<ele>146.781250</ele>
<time>2012-07-21T12:53:24Z</time>
<speed>0.290000</speed>
<extensions>
<speed>0.3</speed>
<temp>0.00</temp>
<bpm>0</bpm>
<rpm>0.00</rpm>
</extensions>
</trkpt>
<trkpt lat="64.105583191" lon="-19.833408356">
<ele>146.628906</ele>
<time>2012-07-21T12:53:29Z</time>
<speed>0.390000</speed>
<extensions>
<speed>0.4</speed>
<temp>0.00</temp>
<bpm>0</bpm>
<rpm>0.00</rpm>
</extensions>
</trkpt>
<trkpt lat="64.105552673" lon="-19.833400726">
<ele>146.253906</ele>
<time>2012-07-21T12:53:34Z</time>
<speed>0.190000</speed>
<extensions>
<speed>0.2</speed>
<temp>0.00</temp>
<bpm>0</bpm>
<rpm>0.00</rpm>
</extensions>
</trkpt>
<trkpt lat="64.105545044" lon="-19.833395004">
<ele>145.660156</ele>
<time>2012-07-21T12:53:39Z</time>
<speed>0.090000</speed>
<extensions>
<speed>0.1</speed>
<temp>0.00</temp>
<bpm>0</bpm>
<rpm>0.00</rpm>
</extensions>
</trkpt>
<trkpt lat="64.105545044" lon="-19.833385468">
<ele>145.617188</ele>
<time>2012-07-21T12:53:44Z</time>
<speed>0.130000</speed>
<extensions>
<speed>0.1</speed>
<temp>0.00</temp>
<bpm>0</bpm>
<rpm>0.00</rpm>
</extensions>
</trkpt>
<trkpt lat="64.105545044" lon="-19.833375931">
<ele>145.585938</ele>
<time>2012-07-21T12:53:49Z</time>
<speed>0.070000</speed>
<extensions>
<speed>0.1</speed>
<temp>0.00</temp>
<bpm>0</bpm>
<rpm>0.00</rpm>
</extensions>
</trkpt>
<trkpt lat="64.105537415" lon="-19.833375931">
<ele>145.597656</ele>
<time>2012-07-21T12:53:54Z</time>
<speed>0.250000</speed>
<extensions>
<speed>0.2</speed>
<temp>0.00</temp>
<bpm>0</bpm>
<rpm>0.00</rpm>
</extensions>
</trkpt>
<trkpt lat="64.105545044" lon="-19.833360672">
<ele>146.003906</ele>
<time>2012-07-21T12:53:59Z</time>
<speed>0.310000</speed>
<extensions>
<speed>0.3</speed>
<temp>0.00</temp>
<bpm>0</bpm>
<rpm>0.00</rpm>
</extensions>
</trkpt>
<trkpt lat="64.105552673" lon="-19.833335876">
<ele>146.281250</ele>
<time>2012-07-21T12:54:04Z</time>
<speed>0.300000</speed>
<extensions>
<speed>0.3</speed>
<temp>0.00</temp>
<bpm>0</bpm>
<rpm>0.00</rpm>
</extensions>
</trkpt>
<trkpt lat="64.105575562" lon="-19.833341599">
<ele>146.417969</ele>
<time>2012-07-21T12:54:09Z</time>
<speed>0.090000</speed>
<extensions>
<speed>0.1</speed>
<temp>0.00</temp>
<bpm>0</bpm>
<rpm>0.00</rpm>
</extensions>
</trkpt>
<trkpt lat="64.105575562" lon="-19.833343506">
<ele>146.433594</ele>
<time>2012-07-21T12:54:14Z</time>
<speed>0.020000</speed>
<extensions>
<speed>0.0</speed>
<temp>0.00</temp>
<bpm>0</bpm>
<rpm>0.00</rpm>
</extensions>
</trkpt>
<trkpt lat="64.105575562" lon="-19.833339691">
<ele>146.492188</ele>
<time>2012-07-21T12:54:19Z</time>
<speed>0.070000</speed>
<extensions>
<speed>0.1</speed>
<temp>0.00</temp>
<bpm>0</bpm>
<rpm>0.00</rpm>
</extensions>
</trkpt>
<trkpt lat="64.105575562" lon="-19.833330154">
<ele>146.550781</ele>
<time>2012-07-21T12:54:24Z</time>
<speed>0.040000</speed>
<extensions>
<speed>0.0</speed>
<temp>0.00</temp>
<bpm>0</bpm>
<rpm>0.00</rpm>
</extensions>
</trkpt>
<trkpt lat="64.105583191" lon="-19.833330154">
<ele>146.613281</ele>
<time>2012-07-21T12:54:29Z</time>
<speed>0.100000</speed>
<extensions>
<speed>0.1</speed>
<temp>0.00</temp>
<bpm>0</bpm>
<rpm>0.00</rpm>
</extensions>
</trkpt>
<trkpt lat="64.105606079" lon="-19.833312988">
<ele>147.023438</ele>
<time>2012-07-21T12:54:34Z</time>
<speed>0.360000</speed>
<extensions>
<speed>0.4</speed>
<temp>0.00</temp>
<bpm>0</bpm>
<rpm>0.00</rpm>
</extensions>
</trkpt>
<trkpt lat="64.105613708" lon="-19.833343506">
<ele>148.175781</ele>
<time>2012-07-21T12:54:39Z</time>
<speed>0.240000</speed>
<extensions>
<speed>0.2</speed>
<temp>0.00</temp>
<bpm>0</bpm>
<rpm>0.00</rpm>
</extensions>
</trkpt>
<trkpt lat="64.105621338" lon="-19.833320618">
<ele>149.035156</ele>
<time>2012-07-21T12:54:44Z</time>
<speed>0.170000</speed>
<extensions>
<speed>0.2</speed>
<temp>0.00</temp>
<bpm>0</bpm>
<rpm>0.00</rpm>
</extensions>
</trkpt>
<trkpt lat="64.105636597" lon="-19.833326340">
<ele>149.875000</ele>
<time>2012-07-21T12:54:49Z</time>
<speed>0.370000</speed>
<extensions>
<speed>0.4</speed>
<temp>0.00</temp>
<bpm>0</bpm>
<rpm>0.00</rpm>
</extensions>
</trkpt>
<trkpt lat="64.105644226" lon="-19.833412170">
<ele>151.496094</ele>
<time>2012-07-21T12:54:54Z</time>
<speed>0.060000</speed>
<extensions>
<speed>0.1</speed>
<temp>0.00</temp>
<bpm>0</bpm>
<rpm>0.00</rpm>
</extensions>
</trkpt>
<trkpt lat="64.105644226" lon="-19.833421707">
<ele>151.519531</ele>
<time>2012-07-21T12:54:59Z</time>
<speed>0.070000</speed>
<extensions>
<speed>0.1</speed>
<temp>0.00</temp>
<bpm>0</bpm>
<rpm>0.00</rpm>
</extensions>
</trkpt>
<trkpt lat="64.105651855" lon="-19.833429337">
<ele>151.558594</ele>
<time>2012-07-21T12:55:04Z</time>
<speed>0.100000</speed>
<extensions>
<speed>0.1</speed>
<temp>0.00</temp>
<bpm>0</bpm>
<rpm>0.00</rpm>
</extensions>
</trkpt>
<trkpt lat="64.105659485" lon="-19.833435059">
<ele>151.582031</ele>
<time>2012-07-21T12:55:09Z</time>
<speed>0.210000</speed>
<extensions>
<speed>0.2</speed>
<temp>0.00</temp>
<bpm>0</bpm>
<rpm>0.00</rpm>
</extensions>
</trkpt>
<trkpt lat="64.105667114" lon="-19.833436966">
<ele>151.632813</ele>
<time>2012-07-21T12:55:14Z</time>
<speed>0.140000</speed>
<extensions>
<speed>0.1</speed>
<temp>0.00</temp>
<bpm>0</bpm>
<rpm>0.00</rpm>
</extensions>
</trkpt>
<trkpt lat="64.105674744" lon="-19.833427429">
<ele>151.667969</ele>
<time>2012-07-21T12:55:19Z</time>
<speed>0.180000</speed>
<extensions>
<speed>0.2</speed>
<temp>0.00</temp>
<bpm>0</bpm>
<rpm>0.00</rpm>
</extensions>
</trkpt>
<trkpt lat="64.105682373" lon="-19.833414078">
<ele>151.750000</ele>
<time>2012-07-21T12:55:24Z</time>
<speed>0.170000</speed>
<extensions>
<speed>0.2</speed>
<temp>0.00</temp>
<bpm>0</bpm>
<rpm>0.00</rpm>
</extensions>
</trkpt>
<trkpt lat="64.105690002" lon="-19.833404541">
<ele>151.812500</ele>
<time>2012-07-21T12:55:29Z</time>
<speed>0.210000</speed>
<extensions>
<speed>0.2</speed>
<temp>0.00</temp>
<bpm>0</bpm>
<rpm>0.00</rpm>
</extensions>
</trkpt>
<trkpt lat="64.105690002" lon="-19.833400726">
<ele>151.875000</ele>
<time>2012-07-21T12:55:34Z</time>
<speed>0.060000</speed>
<extensions>
<speed>0.1</speed>
<temp>0.00</temp>
<bpm>0</bpm>
<rpm>0.00</rpm>
</extensions>
</trkpt>
<trkpt lat="64.105690002" lon="-19.833400726">
<ele>151.925781</ele>
<time>2012-07-21T12:55:39Z</time>
<speed>0.060000</speed>
<extensions>
<speed>0.1</speed>
<temp>0.00</temp>
<bpm>0</bpm>
<rpm>0.00</rpm>
</extensions>
</trkpt>
<trkpt lat="64.105690002" lon="-19.833400726">
<ele>151.937500</ele>
<time>2012-07-21T12:55:44Z</time>
<speed>0.030000</speed>
<extensions>
<speed>0.0</speed>
<temp>0.00</temp>
<bpm>0</bpm>
<rpm>0.00</rpm>
</extensions>
</trkpt>
<trkpt lat="64.105690002" lon="-19.833398819">
<ele>151.937500</ele>
<time>2012-07-21T12:55:49Z</time>
<speed>0.040000</speed>
<extensions>
<speed>0.0</speed>
<temp>0.00</temp>
<bpm>0</bpm>
<rpm>0.00</rpm>
</extensions>
</trkpt>
<trkpt lat="64.105690002" lon="-19.833396912">
<ele>151.949219</ele>
<time>2012-07-21T12:55:54Z</time>
<speed>0.160000</speed>
<extensions>
<speed>0.2</speed>
<temp>0.00</temp>
<bpm>0</bpm>
<rpm>0.00</rpm>
</extensions>
</trkpt>
<trkpt lat="64.105682373" lon="-19.833381653">
<ele>151.953125</ele>
<time>2012-07-21T12:55:59Z</time>
<speed>0.230000</speed>
<extensions>
<speed>0.2</speed>
<temp>0.00</temp>
<bpm>0</bpm>
<rpm>0.00</rpm>
</extensions>
</trkpt>
<trkpt lat="64.105674744" lon="-19.833368301">
<ele>151.968750</ele>
<time>2012-07-21T12:56:04Z</time>
<speed>0.390000</speed>
<extensions>
<speed>0.4</speed>
<temp>0.00</temp>
<bpm>0</bpm>
<rpm>0.00</rpm>
</extensions>
</trkpt>
<trkpt lat="64.105659485" lon="-19.833372116">
<ele>152.097656</ele>
<time>2012-07-21T12:56:09Z</time>
<speed>0.350000</speed>
<extensions>
<speed>0.3</speed>
<temp>0.00</temp>
<bpm>0</bpm>
<rpm>0.00</rpm>
</extensions>
</trkpt>
<trkpt lat="64.105651855" lon="-19.833366394">
<ele>152.332031</ele>
<time>2012-07-21T12:56:14Z</time>
<speed>0.340000</speed>
<extensions>
<speed>0.3</speed>
<temp>0.00</temp>
<bpm>0</bpm>
<rpm>0.00</rpm>
</extensions>
</trkpt>
<trkpt lat="64.105636597" lon="-19.833381653">
<ele>152.277344</ele>
<time>2012-07-21T12:56:19Z</time>
<speed>0.410000</speed>
<extensions>
<speed>0.4</speed>
<temp>0.00</temp>
<bpm>0</bpm>
<rpm>0.00</rpm>
</extensions>
</trkpt>
<trkpt lat="64.105636597" lon="-19.833358765">
<ele>152.921875</ele>
<time>2012-07-21T12:56:24Z</time>
<speed>0.320000</speed>
<extensions>
<speed>0.3</speed>
<temp>0.00</temp>
<bpm>0</bpm>
<rpm>0.00</rpm>
</extensions>
</trkpt>
<trkpt lat="64.105636597" lon="-19.833351135">
<ele>152.691406</ele>
<time>2012-07-21T12:56:29Z</time>
<speed>0.360000</speed>
<extensions>
<speed>0.4</speed>
<temp>0.00</temp>
<bpm>0</bpm>
<rpm>0.00</rpm>
</extensions>
</trkpt>
<trkpt lat="64.105644226" lon="-19.833372116">
<ele>152.972656</ele>
<time>2012-07-21T12:56:34Z</time>
<speed>0.220000</speed>
<extensions>
<speed>0.2</speed>
<temp>0.00</temp>
<bpm>0</bpm>
<rpm>0.00</rpm>
</extensions>
</trkpt>
<trkpt lat="64.105644226" lon="-19.833389282">
<ele>153.078125</ele>
<time>2012-07-21T12:56:39Z</time>
<speed>0.070000</speed>
<extensions>
<speed>0.1</speed>
<temp>0.00</temp>
<bpm>0</bpm>
<rpm>0.00</rpm>
</extensions>
</trkpt>
<trkpt lat="64.105644226" lon="-19.833389282">
<ele>152.988281</ele>
<time>2012-07-21T12:56:44Z</time>
<speed>0.030000</speed>
<extensions>
<speed>0.0</speed>
<temp>0.00</temp>
<bpm>0</bpm>
<rpm>0.00</rpm>
</extensions>
</trkpt>
<trkpt lat="64.105644226" lon="-19.833389282">
<ele>152.968750</ele>
<time>2012-07-21T12:56:49Z</time>
<speed>0.020000</speed>
<extensions>
<speed>0.0</speed>
<temp>0.00</temp>
<bpm>0</bpm>
<rpm>0.00</rpm>
</extensions>
</trkpt>
<trkpt lat="64.105644226" lon="-19.833391190">
<ele>152.980469</ele>
<time>2012-07-21T12:56:54Z</time>
<speed>0.020000</speed>
<extensions>
<speed>0.0</speed>
<temp>0.00</temp>
<bpm>0</bpm>
<rpm>0.00</rpm>
</extensions>
</trkpt>
<trkpt lat="64.105644226" lon="-19.833393097">
<ele>152.992188</ele>
<time>2012-07-21T12:56:59Z</time>
<speed>0.010000</speed>
<extensions>
<speed>0.0</speed>
<temp>0.00</temp>
<bpm>0</bpm>
<rpm>0.00</rpm>
</extensions>
</trkpt>
<trkpt lat="64.105644226" lon="-19.833393097">
<ele>153.011719</ele>
<time>2012-07-21T12:57:04Z</time>
<speed>0.010000</speed>
<extensions>
<speed>0.0</speed>
<temp>0.00</temp>
<bpm>0</bpm>
<rpm>0.00</rpm>
</extensions>
</trkpt>
<trkpt lat="64.105644226" lon="-19.833395004">
<ele>153.046875</ele>
<time>2012-07-21T12:57:09Z</time>
<speed>0.020000</speed>
<extensions>
<speed>0.0</speed>
<temp>0.00</temp>
<bpm>0</bpm>
<rpm>0.00</rpm>
</extensions>
</trkpt>
<trkpt lat="64.105644226" lon="-19.833395004">
<ele>153.058594</ele>
<time>2012-07-21T12:57:14Z</time>
<speed>0.010000</speed>
<extensions>
<speed>0.0</speed>
<temp>0.00</temp>
<bpm>0</bpm>
<rpm>0.00</rpm>
</extensions>
</trkpt>
<trkpt lat="64.105644226" lon="-19.833395004">
<ele>153.074219</ele>
<time>2012-07-21T12:57:19Z</time>
<speed>0.010000</speed>
<extensions>
<speed>0.0</speed>
<temp>0.00</temp>
<bpm>0</bpm>
<rpm>0.00</rpm>
</extensions>
</trkpt>
<trkpt lat="64.105644226" lon="-19.833395004">
<ele>153.082031</ele>
<time>2012-07-21T12:57:24Z</time>
<speed>0.010000</speed>
<extensions>
<speed>0.0</speed>
<temp>0.00</temp>
<bpm>0</bpm>
<rpm>0.00</rpm>
</extensions>
</trkpt>
<trkpt lat="64.105644226" lon="-19.833395004">
<ele>153.078125</ele>
<time>2012-07-21T12:57:29Z</time>
<speed>0.010000</speed>
<extensions>
<speed>0.0</speed>
<temp>0.00</temp>
<bpm>0</bpm>
<rpm>0.00</rpm>
</extensions>
</trkpt>
<trkpt lat="64.105644226" lon="-19.833395004">
<ele>153.085938</ele>
<time>2012-07-21T12:57:34Z</time>
<extensions>
<speed>0.0</speed>
<temp>0.00</temp>
<bpm>0</bpm>
<rpm>0.00</rpm>
</extensions>
</trkpt>
<trkpt lat="64.105644226" lon="-19.833395004">
<ele>153.109375</ele>
<time>2012-07-21T12:57:39Z</time>
<speed>0.020000</speed>
<extensions>
<speed>0.0</speed>
<temp>0.00</temp>
<bpm>0</bpm>
<rpm>0.00</rpm>
</extensions>
</trkpt>
<trkpt lat="64.105644226" lon="-19.833395004">
<ele>153.136719</ele>
<time>2012-07-21T12:57:44Z</time>
<speed>0.030000</speed>
<extensions>
<speed>0.0</speed>
<temp>0.00</temp>
<bpm>0</bpm>
<rpm>0.00</rpm>
</extensions>
</trkpt>
<trkpt lat="64.105644226" lon="-19.833395004">
<ele>153.171875</ele>
<time>2012-07-21T12:57:49Z</time>
<speed>0.030000</speed>
<extensions>
<speed>0.0</speed>
<temp>0.00</temp>
<bpm>0</bpm>
<rpm>0.00</rpm>
</extensions>
</trkpt>
<trkpt lat="64.105644226" lon="-19.833395004">
<ele>153.230469</ele>
<time>2012-07-21T12:57:54Z</time>
<speed>0.030000</speed>
<extensions>
<speed>0.0</speed>
<temp>0.00</temp>
<bpm>0</bpm>
<rpm>0.00</rpm>
</extensions>
</trkpt>
<trkpt lat="64.105651855" lon="-19.833395004">
<ele>153.296875</ele>
<time>2012-07-21T12:57:59Z</time>
<speed>0.020000</speed>
<extensions>
<speed>0.0</speed>
<temp>0.00</temp>
<bpm>0</bpm>
<rpm>0.00</rpm>
</extensions>
</trkpt>
<trkpt lat="64.105651855" lon="-19.833391190">
<ele>153.406250</ele>
<time>2012-07-21T12:58:04Z</time>
<speed>0.140000</speed>
<extensions>
<speed>0.1</speed>
<temp>0.00</temp>
<bpm>0</bpm>
<rpm>0.00</rpm>
</extensions>
</trkpt>
<trkpt lat="64.105659485" lon="-19.833379745">
<ele>153.753906</ele>
<time>2012-07-21T12:58:09Z</time>
<speed>0.220000</speed>
<extensions>
<speed>0.2</speed>
<temp>0.00</temp>
<bpm>0</bpm>
<rpm>0.00</rpm>
</extensions>
</trkpt>
<trkpt lat="64.105667114" lon="-19.833364487">
<ele>154.339844</ele>
<time>2012-07-21T12:58:14Z</time>
<speed>0.300000</speed>
<extensions>
<speed>0.3</speed>
<temp>0.00</temp>
<bpm>0</bpm>
<rpm>0.00</rpm>
</extensions>
</trkpt>
<trkpt lat="64.105705261" lon="-19.833372116">
<ele>156.925781</ele>
<time>2012-07-21T12:58:19Z</time>
<speed>0.310000</speed>
<extensions>
<speed>0.3</speed>
<temp>0.00</temp>
<bpm>0</bpm>
<rpm>0.00</rpm>
</extensions>
</trkpt>
<trkpt lat="64.105735779" lon="-19.833398819">
<ele>158.128906</ele>
<time>2012-07-21T12:58:24Z</time>
<speed>0.300000</speed>
<extensions>
<speed>0.3</speed>
<temp>0.00</temp>
<bpm>0</bpm>
<rpm>0.00</rpm>
</extensions>
</trkpt>
<trkpt lat="64.105773926" lon="-19.833402634">
<ele>160.691406</ele>
<time>2012-07-21T12:58:29Z</time>
<speed>0.300000</speed>
<extensions>
<speed>0.3</speed>
<temp>0.00</temp>
<bpm>0</bpm>
<rpm>0.00</rpm>
</extensions>
</trkpt>
<trkpt lat="64.105796814" lon="-19.833406448">
<ele>162.320313</ele>
<time>2012-07-21T12:58:34Z</time>
<speed>0.280000</speed>
<extensions>
<speed>0.3</speed>
<temp>0.00</temp>
<bpm>0</bpm>
<rpm>0.00</rpm>
</extensions>
</trkpt>
<trkpt lat="64.105804443" lon="-19.833404541">
<ele>163.289063</ele>
<time>2012-07-21T12:58:39Z</time>
<speed>0.140000</speed>
<extensions>
<speed>0.1</speed>
<temp>0.00</temp>
<bpm>0</bpm>
<rpm>0.00</rpm>
</extensions>
</trkpt>
<trkpt lat="64.105812073" lon="-19.833404541">
<ele>164.203125</ele>
<time>2012-07-21T12:58:44Z</time>
<speed>0.140000</speed>
<extensions>
<speed>0.1</speed>
<temp>0.00</temp>
<bpm>0</bpm>
<rpm>0.00</rpm>
</extensions>
</trkpt>
<trkpt lat="64.105812073" lon="-19.833400726">
<ele>165.082031</ele>
<time>2012-07-21T12:58:49Z</time>
<speed>0.180000</speed>
<extensions>
<speed>0.2</speed>
<temp>0.00</temp>
<bpm>0</bpm>
<rpm>0.00</rpm>
</extensions>
</trkpt>
<trkpt lat="64.105819702" lon="-19.833406448">
<ele>165.984375</ele>
<time>2012-07-21T12:58:54Z</time>
<speed>0.160000</speed>
<extensions>
<speed>0.2</speed>
<temp>0.00</temp>
<bpm>0</bpm>
<rpm>0.00</rpm>
</extensions>
</trkpt>
<trkpt lat="64.105834961" lon="-19.833412170">
<ele>166.867188</ele>
<time>2012-07-21T12:58:59Z</time>
<speed>0.260000</speed>
<extensions>
<speed>0.3</speed>
<temp>0.00</temp>
<bpm>0</bpm>
<rpm>0.00</rpm>
</extensions>
</trkpt>
<trkpt lat="64.105842590" lon="-19.833415985">
<ele>167.730469</ele>
<time>2012-07-21T12:59:04Z</time>
<speed>0.290000</speed>
<extensions>
<speed>0.3</speed>
<temp>0.00</temp>
<bpm>0</bpm>
<rpm>0.00</rpm>
</extensions>
</trkpt>
<trkpt lat="64.105857849" lon="-19.833421707">
<ele>167.804688</ele>
<time>2012-07-21T12:59:09Z</time>
<speed>0.270000</speed>
<extensions>
<speed>0.3</speed>
<temp>0.00</temp>
<bpm>0</bpm>
<rpm>0.00</rpm>
</extensions>
</trkpt>
<trkpt lat="64.105873108" lon="-19.833429337">
<ele>166.195313</ele>
<time>2012-07-21T12:59:14Z</time>
<speed>0.310000</speed>
<extensions>
<speed>0.3</speed>
<temp>0.00</temp>
<bpm>0</bpm>
<rpm>0.00</rpm>
</extensions>
</trkpt>
<trkpt lat="64.105873108" lon="-19.833446503">
<ele>163.453125</ele>
<time>2012-07-21T12:59:19Z</time>
<speed>0.250000</speed>
<extensions>
<speed>0.2</speed>
<temp>0.00</temp>
<bpm>0</bpm>
<rpm>0.00</rpm>
</extensions>
</trkpt>
<trkpt lat="64.105873108" lon="-19.833459854">
<ele>162.964844</ele>
<time>2012-07-21T12:59:24Z</time>
<speed>0.180000</speed>
<extensions>
<speed>0.2</speed>
<temp>0.00</temp>
<bpm>0</bpm>
<rpm>0.00</rpm>
</extensions>
</trkpt>
<trkpt lat="64.105873108" lon="-19.833478928">
<ele>163.324219</ele>
<time>2012-07-21T12:59:29Z</time>
<speed>0.150000</speed>
<extensions>
<speed>0.2</speed>
<temp>0.00</temp>
<bpm>0</bpm>
<rpm>0.00</rpm>
</extensions>
</trkpt>
<trkpt lat="64.105873108" lon="-19.833496094">
<ele>163.691406</ele>
<time>2012-07-21T12:59:34Z</time>
<speed>0.100000</speed>
<extensions>
<speed>0.1</speed>
<temp>0.00</temp>
<bpm>0</bpm>
<rpm>0.00</rpm>
</extensions>
</trkpt>
<trkpt lat="64.105873108" lon="-19.833503723">
<ele>164.074219</ele>
<time>2012-07-21T12:59:39Z</time>
<speed>0.080000</speed>
<extensions>
<speed>0.1</speed>
<temp>0.00</temp>
<bpm>0</bpm>
<rpm>0.00</rpm>
</extensions>
</trkpt>
<trkpt lat="64.105880737" lon="-19.833515167">
<ele>164.375000</ele>
<time>2012-07-21T12:59:44Z</time>
<speed>0.180000</speed>
<extensions>
<speed>0.2</speed>
<temp>0.00</temp>
<bpm>0</bpm>
<rpm>0.00</rpm>
</extensions>
</trkpt>
<trkpt lat="64.105888367" lon="-19.833524704">
<ele>164.589844</ele>
<time>2012-07-21T12:59:49Z</time>
<speed>0.150000</speed>
<extensions>
<speed>0.2</speed>
<temp>0.00</temp>
<bpm>0</bpm>
<rpm>0.00</rpm>
</extensions>
</trkpt>
<trkpt lat="64.105888367" lon="-19.833534241">
<ele>164.726563</ele>
<time>2012-07-21T12:59:54Z</time>
<speed>0.060000</speed>
<extensions>
<speed>0.1</speed>
<temp>0.00</temp>
<bpm>0</bpm>
<rpm>0.00</rpm>
</extensions>
</trkpt>
<trkpt lat="64.105888367" lon="-19.833539963">
<ele>164.781250</ele>
<time>2012-07-21T12:59:59Z</time>
<speed>0.140000</speed>
<extensions>
<speed>0.1</speed>
<temp>0.00</temp>
<bpm>0</bpm>
<rpm>0.00</rpm>
</extensions>
</trkpt>
<trkpt lat="64.105850220" lon="-19.833532333">
<ele>164.507813</ele>
<time>2012-07-21T13:00:04Z</time>
<speed>0.430000</speed>
<extensions>
<speed>0.4</speed>
<temp>0.00</temp>
<bpm>0</bpm>
<rpm>0.00</rpm>
</extensions>
</trkpt>
<trkpt lat="64.105812073" lon="-19.833509445">
<ele>162.917969</ele>
<time>2012-07-21T13:00:09Z</time>
<speed>0.320000</speed>
<extensions>
<speed>0.3</speed>
<temp>0.00</temp>
<bpm>0</bpm>
<rpm>0.00</rpm>
</extensions>
</trkpt>
<trkpt lat="64.105789185" lon="-19.833484650">
<ele>162.035156</ele>
<time>2012-07-21T13:00:14Z</time>
<speed>0.260000</speed>
<extensions>
<speed>0.3</speed>
<temp>0.00</temp>
<bpm>0</bpm>
<rpm>0.00</rpm>
</extensions>
</trkpt>
<trkpt lat="64.105773926" lon="-19.833469391">
<ele>161.488281</ele>
<time>2012-07-21T13:00:19Z</time>
<speed>0.190000</speed>
<extensions>
<speed>0.2</speed>
<temp>0.00</temp>
<bpm>0</bpm>
<rpm>0.00</rpm>
</extensions>
</trkpt>
<trkpt lat="64.105766296" lon="-19.833465576">
<ele>161.230469</ele>
<time>2012-07-21T13:00:24Z</time>
<speed>0.190000</speed>
<extensions>
<speed>0.2</speed>
<temp>0.00</temp>
<bpm>0</bpm>
<rpm>0.00</rpm>
</extensions>
</trkpt>
<trkpt lat="64.105758667" lon="-19.833473206">
<ele>160.914063</ele>
<time>2012-07-21T13:00:29Z</time>
<speed>0.220000</speed>
<extensions>
<speed>0.2</speed>
<temp>0.00</temp>
<bpm>0</bpm>
<rpm>0.00</rpm>
</extensions>
</trkpt>
<trkpt lat="64.105751038" lon="-19.833480835">
<ele>160.527344</ele>
<time>2012-07-21T13:00:34Z</time>
<speed>0.230000</speed>
<extensions>
<speed>0.2</speed>
<temp>0.00</temp>
<bpm>0</bpm>
<rpm>0.00</rpm>
</extensions>
</trkpt>
<trkpt lat="64.105743408" lon="-19.833492279">
<ele>160.089844</ele>
<time>2012-07-21T13:00:39Z</time>
<speed>0.240000</speed>
<extensions>
<speed>0.2</speed>
<temp>0.00</temp>
<bpm>0</bpm>
<rpm>0.00</rpm>
</extensions>
</trkpt>
<trkpt lat="64.105720520" lon="-19.833524704">
<ele>158.875000</ele>
<time>2012-07-21T13:00:44Z</time>
<speed>0.320000</speed>
<extensions>
<speed>0.3</speed>
<temp>0.00</temp>
<bpm>0</bpm>
<rpm>0.00</rpm>
</extensions>
</trkpt>
<trkpt lat="64.105720520" lon="-19.833528519">
<ele>156.761719</ele>
<time>2012-07-21T13:00:49Z</time>
<speed>0.200000</speed>
<extensions>
<speed>0.2</speed>
<temp>0.00</temp>
<bpm>0</bpm>
<rpm>0.00</rpm>
</extensions>
</trkpt>
<trkpt lat="64.105705261" lon="-19.833551407">
<ele>156.625000</ele>
<time>2012-07-21T13:00:54Z</time>
<speed>0.200000</speed>
<extensions>
<speed>0.2</speed>
<temp>0.00</temp>
<bpm>0</bpm>
<rpm>0.00</rpm>
</extensions>
</trkpt>
<trkpt lat="64.105690002" lon="-19.833551407">
<ele>156.074219</ele>
<time>2012-07-21T13:00:59Z</time>
<speed>0.200000</speed>
<extensions>
<speed>0.2</speed>
<temp>0.00</temp>
<bpm>0</bpm>
<rpm>0.00</rpm>
</extensions>
</trkpt>
<trkpt lat="64.105682373" lon="-19.833536148">
<ele>155.480469</ele>
<time>2012-07-21T13:01:04Z</time>
<speed>0.230000</speed>
<extensions>
<speed>0.2</speed>
<temp>0.00</temp>
<bpm>0</bpm>
<rpm>0.00</rpm>
</extensions>
</trkpt>
<trkpt lat="64.105682373" lon="-19.833515167">
<ele>154.890625</ele>
<time>2012-07-21T13:01:09Z</time>
<speed>0.240000</speed>
<extensions>
<speed>0.2</speed>
<temp>0.00</temp>
<bpm>0</bpm>
<rpm>0.00</rpm>
</extensions>
</trkpt>
<trkpt lat="64.105682373" lon="-19.833496094">
<ele>154.312500</ele>
<time>2012-07-21T13:01:14Z</time>
<speed>0.100000</speed>
<extensions>
<speed>0.1</speed>
<temp>0.00</temp>
<bpm>0</bpm>
<rpm>0.00</rpm>
</extensions>
</trkpt>
<trkpt lat="64.105682373" lon="-19.833486557">
<ele>153.718750</ele>
<time>2012-07-21T13:01:19Z</time>
<speed>0.080000</speed>
<extensions>
<speed>0.1</speed>
<temp>0.00</temp>
<bpm>0</bpm>
<rpm>0.00</rpm>
</extensions>
</trkpt>
<trkpt lat="64.105682373" lon="-19.833482742">
<ele>153.042969</ele>
<time>2012-07-21T13:01:24Z</time>
<speed>0.090000</speed>
<extensions>
<speed>0.1</speed>
<temp>0.00</temp>
<bpm>0</bpm>
<rpm>0.00</rpm>
</extensions>
</trkpt>
<trkpt lat="64.105682373" lon="-19.833471298">
<ele>152.257813</ele>
<time>2012-07-21T13:01:29Z</time>
<speed>0.210000</speed>
<extensions>
<speed>0.2</speed>
<temp>0.00</temp>
<bpm>0</bpm>
<rpm>0.00</rpm>
</extensions>
</trkpt>
<trkpt lat="64.105690002" lon="-19.833454132">
<ele>151.367188</ele>
<time>2012-07-21T13:01:34Z</time>
<speed>0.150000</speed>
<extensions>
<speed>0.2</speed>
<temp>0.00</temp>
<bpm>0</bpm>
<rpm>0.00</rpm>
</extensions>
</trkpt>
<trkpt lat="64.105690002" lon="-19.833438873">
<ele>150.414063</ele>
<time>2012-07-21T13:01:39Z</time>
<speed>0.250000</speed>
<extensions>
<speed>0.2</speed>
<temp>0.00</temp>
<bpm>0</bpm>
<rpm>0.00</rpm>
</extensions>
</trkpt>
<trkpt lat="64.105705261" lon="-19.833438873">
<ele>148.207031</ele>
<time>2012-07-21T13:01:44Z</time>
<speed>0.240000</speed>
<extensions>
<speed>0.2</speed>
<temp>0.00</temp>
<bpm>0</bpm>
<rpm>0.00</rpm>
</extensions>
</trkpt>
<trkpt lat="64.105705261" lon="-19.833436966">
<ele>146.792969</ele>
<time>2012-07-21T13:01:49Z</time>
<speed>0.140000</speed>
<extensions>
<speed>0.1</speed>
<temp>0.00</temp>
<bpm>0</bpm>
<rpm>0.00</rpm>
</extensions>
</trkpt>
<trkpt lat="64.105705261" lon="-19.833431244">
<ele>145.730469</ele>
<time>2012-07-21T13:01:54Z</time>
<speed>0.160000</speed>
<extensions>
<speed>0.2</speed>
<temp>0.00</temp>
<bpm>0</bpm>
<rpm>0.00</rpm>
</extensions>
</trkpt>
<trkpt lat="64.105712891" lon="-19.833423615">
<ele>144.679688</ele>
<time>2012-07-21T13:01:59Z</time>
<speed>0.110000</speed>
<extensions>
<speed>0.1</speed>
<temp>0.00</temp>
<bpm>0</bpm>
<rpm>0.00</rpm>
</extensions>
</trkpt>
<trkpt lat="64.105720520" lon="-19.833415985">
<ele>143.605469</ele>
<time>2012-07-21T13:02:04Z</time>
<speed>0.210000</speed>
<extensions>
<speed>0.2</speed>
<temp>0.00</temp>
<bpm>0</bpm>
<rpm>0.00</rpm>
</extensions>
</trkpt>
<trkpt lat="64.105728149" lon="-19.833410263">
<ele>142.480469</ele>
<time>2012-07-21T13:02:09Z</time>
<speed>0.290000</speed>
<extensions>
<speed>0.3</speed>
<temp>0.00</temp>
<bpm>0</bpm>
<rpm>0.00</rpm>
</extensions>
</trkpt>
<trkpt lat="64.105743408" lon="-19.833396912">
<ele>140.289063</ele>
<time>2012-07-21T13:02:14Z</time>
<speed>0.230000</speed>
<extensions>
<speed>0.2</speed>
<temp>0.00</temp>
<bpm>0</bpm>
<rpm>0.00</rpm>
</extensions>
</trkpt>
<trkpt lat="64.105758667" lon="-19.833364487">
<ele>138.839844</ele>
<time>2012-07-21T13:02:19Z</time>
<speed>0.200000</speed>
<extensions>
<speed>0.2</speed>
<temp>0.00</temp>
<bpm>0</bpm>
<rpm>0.00</rpm>
</extensions>
</trkpt>
<trkpt lat="64.105758667" lon="-19.833353043">
<ele>137.621094</ele>
<time>2012-07-21T13:02:24Z</time>
<speed>0.100000</speed>
<extensions>
<speed>0.1</speed>
<temp>0.00</temp>
<bpm>0</bpm>
<rpm>0.00</rpm>
</extensions>
</trkpt>
<trkpt lat="64.105766296" lon="-19.833341599">
<ele>136.371094</ele>
<time>2012-07-21T13:02:29Z</time>
<speed>0.170000</speed>
<extensions>
<speed>0.2</speed>
<temp>0.00</temp>
<bpm>0</bpm>
<rpm>0.00</rpm>
</extensions>
</trkpt>
<trkpt lat="64.105758667" lon="-19.833322525">
<ele>135.101563</ele>
<time>2012-07-21T13:02:34Z</time>
<speed>0.160000</speed>
<extensions>
<speed>0.2</speed>
<temp>0.00</temp>
<bpm>0</bpm>
<rpm>0.00</rpm>
</extensions>
</trkpt>
<trkpt lat="64.105758667" lon="-19.833311081">
<ele>133.812500</ele>
<time>2012-07-21T13:02:39Z</time>
<speed>0.050000</speed>
<extensions>
<speed>0.1</speed>
<temp>0.00</temp>
<bpm>0</bpm>
<rpm>0.00</rpm>
</extensions>
</trkpt>
<trkpt lat="64.105758667" lon="-19.833303452">
<ele>132.507813</ele>
<time>2012-07-21T13:02:44Z</time>
<speed>0.090000</speed>
<extensions>
<speed>0.1</speed>
<temp>0.00</temp>
<bpm>0</bpm>
<rpm>0.00</rpm>
</extensions>
</trkpt>
<trkpt lat="64.105758667" lon="-19.833292007">
<ele>131.195313</ele>
<time>2012-07-21T13:02:49Z</time>
<speed>0.120000</speed>
<extensions>
<speed>0.1</speed>
<temp>0.00</temp>
<bpm>0</bpm>
<rpm>0.00</rpm>
</extensions>
</trkpt>
<trkpt lat="64.105758667" lon="-19.833280563">
<ele>129.863281</ele>
<time>2012-07-21T13:02:54Z</time>
<speed>0.120000</speed>
<extensions>
<speed>0.1</speed>
<temp>0.00</temp>
<bpm>0</bpm>
<rpm>0.00</rpm>
</extensions>
</trkpt>
<trkpt lat="64.105766296" lon="-19.833286285">
<ele>128.503906</ele>
<time>2012-07-21T13:02:59Z</time>
<speed>0.180000</speed>
<extensions>
<speed>0.2</speed>
<temp>0.00</temp>
<bpm>0</bpm>
<rpm>0.00</rpm>
</extensions>
</trkpt>
<trkpt lat="64.105773926" lon="-19.833395004">
<ele>126.806641</ele>
<time>2012-07-21T13:03:04Z</time>
<speed>0.480000</speed>
<extensions>
<speed>0.5</speed>
<temp>0.00</temp>
<bpm>0</bpm>
<rpm>0.00</rpm>
</extensions>
</trkpt>
<trkpt lat="64.105789185" lon="-19.833616257">
<ele>125.253906</ele>
<time>2012-07-21T13:03:09Z</time>
<speed>0.420000</speed>
<extensions>
<speed>0.4</speed>
<temp>0.00</temp>
<bpm>0</bpm>
<rpm>0.00</rpm>
</extensions>
</trkpt>
<trkpt lat="64.105796814" lon="-19.833745956">
<ele>123.916016</ele>
<time>2012-07-21T13:03:14Z</time>
<speed>0.440000</speed>
<extensions>
<speed>0.4</speed>
<temp>0.00</temp>
<bpm>0</bpm>
<rpm>0.00</rpm>
</extensions>
</trkpt>
<trkpt lat="64.105804443" lon="-19.833740234">
<ele>122.759766</ele>
<time>2012-07-21T13:03:19Z</time>
<speed>0.310000</speed>
<extensions>
<speed>0.3</speed>
<temp>0.00</temp>
<bpm>0</bpm>
<rpm>0.00</rpm>
</extensions>
</trkpt>
<trkpt lat="64.105804443" lon="-19.833778381">
<ele>120.888672</ele>
<time>2012-07-21T13:03:24Z</time>
<speed>0.280000</speed>
<extensions>
<speed>0.3</speed>
<temp>0.00</temp>
<bpm>0</bpm>
<rpm>0.00</rpm>
</extensions>
</trkpt>
<trkpt lat="64.105796814" lon="-19.833757401">
<ele>119.064453</ele>
<time>2012-07-21T13:03:29Z</time>
<speed>0.150000</speed>
<extensions>
<speed>0.2</speed>
<temp>0.00</temp>
<bpm>0</bpm>
<rpm>0.00</rpm>
</extensions>
</trkpt>
<trkpt lat="64.105804443" lon="-19.833755493">
<ele>117.777344</ele>
<time>2012-07-21T13:03:34Z</time>
<speed>0.130000</speed>
<extensions>
<speed>0.1</speed>
<temp>0.00</temp>
<bpm>0</bpm>
<rpm>0.00</rpm>
</extensions>
</trkpt>
<trkpt lat="64.105804443" lon="-19.833738327">
<ele>116.546875</ele>
<time>2012-07-21T13:03:39Z</time>
<speed>0.220000</speed>
<extensions>
<speed>0.2</speed>
<temp>0.00</temp>
<bpm>0</bpm>
<rpm>0.00</rpm>
</extensions>
</trkpt>
<trkpt lat="64.105804443" lon="-19.833713531">
<ele>115.347656</ele>
<time>2012-07-21T13:03:44Z</time>
<speed>0.250000</speed>
<extensions>
<speed>0.2</speed>
<temp>0.00</temp>
<bpm>0</bpm>
<rpm>0.00</rpm>
</extensions>
</trkpt>
<trkpt lat="64.105804443" lon="-19.833686829">
<ele>114.166016</ele>
<time>2012-07-21T13:03:49Z</time>
<speed>0.240000</speed>
<extensions>
<speed>0.2</speed>
<temp>0.00</temp>
<bpm>0</bpm>
<rpm>0.00</rpm>
</extensions>
</trkpt>
<trkpt lat="64.105804443" lon="-19.833667755">
<ele>113.320313</ele>
<time>2012-07-21T13:03:54Z</time>
<speed>0.240000</speed>
<extensions>
<speed>0.2</speed>
<temp>0.00</temp>
<bpm>0</bpm>
<rpm>0.00</rpm>
</extensions>
</trkpt>
<trkpt lat="64.105796814" lon="-19.833654404">
<ele>112.990234</ele>
<time>2012-07-21T13:03:59Z</time>
<speed>0.210000</speed>
<extensions>
<speed>0.2</speed>
<temp>0.00</temp>
<bpm>0</bpm>
<rpm>0.00</rpm>
</extensions>
</trkpt>
<trkpt lat="64.105773926" lon="-19.833614349">
<ele>112.070313</ele>
<time>2012-07-21T13:04:04Z</time>
<speed>0.410000</speed>
<extensions>
<speed>0.4</speed>
<temp>0.00</temp>
<bpm>0</bpm>
<rpm>0.00</rpm>
</extensions>
</trkpt>
<trkpt lat="64.105705261" lon="-19.833599091">
<ele>112.226563</ele>
<time>2012-07-21T13:04:09Z</time>
<speed>0.470000</speed>
<extensions>
<speed>0.5</speed>
<temp>0.00</temp>
<bpm>0</bpm>
<rpm>0.00</rpm>
</extensions>
</trkpt>
<trkpt lat="64.105712891" lon="-19.833572388">
<ele>114.902344</ele>
<time>2012-07-21T13:04:14Z</time>
<speed>0.360000</speed>
<extensions>
<speed>0.4</speed>
<temp>0.00</temp>
<bpm>0</bpm>
<rpm>0.00</rpm>
</extensions>
</trkpt>
<trkpt lat="64.105697632" lon="-19.833597183">
<ele>116.398438</ele>
<time>2012-07-21T13:04:19Z</time>
<speed>0.260000</speed>
<extensions>
<speed>0.3</speed>
<temp>0.00</temp>
<bpm>0</bpm>
<rpm>0.00</rpm>
</extensions>
</trkpt>
<trkpt lat="64.105690002" lon="-19.833620071">
<ele>115.822266</ele>
<time>2012-07-21T13:04:24Z</time>
<speed>0.260000</speed>
<extensions>
<speed>0.3</speed>
<temp>0.00</temp>
<bpm>0</bpm>
<rpm>0.00</rpm>
</extensions>
</trkpt>
<trkpt lat="64.105674744" lon="-19.833627701">
<ele>115.072266</ele>
<time>2012-07-21T13:04:29Z</time>
<speed>0.210000</speed>
<extensions>
<speed>0.2</speed>
<temp>0.00</temp>
<bpm>0</bpm>
<rpm>0.00</rpm>
</extensions>
</trkpt>
<trkpt lat="64.105667114" lon="-19.833635330">
<ele>114.398438</ele>
<time>2012-07-21T13:04:34Z</time>
<speed>0.220000</speed>
<extensions>
<speed>0.2</speed>
<temp>0.00</temp>
<bpm>0</bpm>
<rpm>0.00</rpm>
</extensions>
</trkpt>
<trkpt lat="64.105659485" lon="-19.833639145">
<ele>113.785156</ele>
<time>2012-07-21T13:04:39Z</time>
<speed>0.250000</speed>
<extensions>
<speed>0.2</speed>
<temp>0.00</temp>
<bpm>0</bpm>
<rpm>0.00</rpm>
</extensions>
</trkpt>
<trkpt lat="64.105651855" lon="-19.833641052">
<ele>113.230469</ele>
<time>2012-07-21T13:04:44Z</time>
<speed>0.120000</speed>
<extensions>
<speed>0.1</speed>
<temp>0.00</temp>
<bpm>0</bpm>
<rpm>0.00</rpm>
</extensions>
</trkpt>
<trkpt lat="64.105644226" lon="-19.833642960">
<ele>112.761719</ele>
<time>2012-07-21T13:04:49Z</time>
<speed>0.100000</speed>
<extensions>
<speed>0.1</speed>
<temp>0.00</temp>
<bpm>0</bpm>
<rpm>0.00</rpm>
</extensions>
</trkpt>
<trkpt lat="64.105636597" lon="-19.833644867">
<ele>112.380859</ele>
<time>2012-07-21T13:04:54Z</time>
<speed>0.200000</speed>
<extensions>
<speed>0.2</speed>
<temp>0.00</temp>
<bpm>0</bpm>
<rpm>0.00</rpm>
</extensions>
</trkpt>
<trkpt lat="64.105628967" lon="-19.833642960">
<ele>112.109375</ele>
<time>2012-07-21T13:04:59Z</time>
<speed>0.200000</speed>
<extensions>
<speed>0.2</speed>
<temp>0.00</temp>
<bpm>0</bpm>
<rpm>0.00</rpm>
</extensions>
</trkpt>
<trkpt lat="64.105621338" lon="-19.833635330">
<ele>111.921875</ele>
<time>2012-07-21T13:05:04Z</time>
<speed>0.160000</speed>
<extensions>
<speed>0.2</speed>
<temp>0.00</temp>
<bpm>0</bpm>
<rpm>0.00</rpm>
</extensions>
</trkpt>
<trkpt lat="64.105613708" lon="-19.833631516">
<ele>111.779297</ele>
<time>2012-07-21T13:05:09Z</time>
<speed>0.210000</speed>
<extensions>
<speed>0.2</speed>
<temp>0.00</temp>
<bpm>0</bpm>
<rpm>0.00</rpm>
</extensions>
</trkpt>
<trkpt lat="64.105598450" lon="-19.833627701">
<ele>112.132813</ele>
<time>2012-07-21T13:05:14Z</time>
<speed>0.300000</speed>
<extensions>
<speed>0.3</speed>
<temp>0.00</temp>
<bpm>0</bpm>
<rpm>0.00</rpm>
</extensions>
</trkpt>
<trkpt lat="64.105575562" lon="-19.833612442">
<ele>114.017578</ele>
<time>2012-07-21T13:05:19Z</time>
<speed>0.280000</speed>
<extensions>
<speed>0.3</speed>
<temp>0.00</temp>
<bpm>0</bpm>
<rpm>0.00</rpm>
</extensions>
</trkpt>
<trkpt lat="64.105567932" lon="-19.833604813">
<ele>114.181641</ele>
<time>2012-07-21T13:05:24Z</time>
<speed>0.210000</speed>
<extensions>
<speed>0.2</speed>
<temp>0.00</temp>
<bpm>0</bpm>
<rpm>0.00</rpm>
</extensions>
</trkpt>
<trkpt lat="64.105560303" lon="-19.833591461">
<ele>114.462891</ele>
<time>2012-07-21T13:05:29Z</time>
<speed>0.180000</speed>
<extensions>
<speed>0.2</speed>
<temp>0.00</temp>
<bpm>0</bpm>
<rpm>0.00</rpm>
</extensions>
</trkpt>
<trkpt lat="64.105552673" lon="-19.833581924">
<ele>114.845703</ele>
<time>2012-07-21T13:05:34Z</time>
<speed>0.160000</speed>
<extensions>
<speed>0.2</speed>
<temp>0.00</temp>
<bpm>0</bpm>
<rpm>0.00</rpm>
</extensions>
</trkpt>
<trkpt lat="64.105545044" lon="-19.833566666">
<ele>115.318359</ele>
<time>2012-07-21T13:05:39Z</time>
<speed>0.190000</speed>
<extensions>
<speed>0.2</speed>
<temp>0.00</temp>
<bpm>0</bpm>
<rpm>0.00</rpm>
</extensions>
</trkpt>
<trkpt lat="64.105537415" lon="-19.833534241">
<ele>117.041016</ele>
<time>2012-07-21T13:05:44Z</time>
<speed>0.360000</speed>
<extensions>
<speed>0.4</speed>
<temp>0.00</temp>
<bpm>0</bpm>
<rpm>0.00</rpm>
</extensions>
</trkpt>
<trkpt lat="64.105529785" lon="-19.833503723">
<ele>119.515625</ele>
<time>2012-07-21T13:05:49Z</time>
<speed>0.330000</speed>
<extensions>
<speed>0.3</speed>
<temp>0.00</temp>
<bpm>0</bpm>
<rpm>0.00</rpm>
</extensions>
</trkpt>
<trkpt lat="64.105545044" lon="-19.833501816">
<ele>121.431641</ele>
<time>2012-07-21T13:05:54Z</time>
<speed>0.170000</speed>
<extensions>
<speed>0.2</speed>
<temp>0.00</temp>
<bpm>0</bpm>
<rpm>0.00</rpm>
</extensions>
</trkpt>
<trkpt lat="64.105537415" lon="-19.833490372">
<ele>122.195313</ele>
<time>2012-07-21T13:05:59Z</time>
<speed>0.140000</speed>
<extensions>
<speed>0.1</speed>
<temp>0.00</temp>
<bpm>0</bpm>
<rpm>0.00</rpm>
</extensions>
</trkpt>
<trkpt lat="64.105537415" lon="-19.833482742">
<ele>123.046875</ele>
<time>2012-07-21T13:06:04Z</time>
<speed>0.170000</speed>
<extensions>
<speed>0.2</speed>
<temp>0.00</temp>
<bpm>0</bpm>
<rpm>0.00</rpm>
</extensions>
</trkpt>
<trkpt lat="64.105529785" lon="-19.833467484">
<ele>124.013672</ele>
<time>2012-07-21T13:06:09Z</time>
<speed>0.170000</speed>
<extensions>
<speed>0.2</speed>
<temp>0.00</temp>
<bpm>0</bpm>
<rpm>0.00</rpm>
</extensions>
</trkpt>
<trkpt lat="64.105522156" lon="-19.833454132">
<ele>125.054688</ele>
<time>2012-07-21T13:06:14Z</time>
<speed>0.150000</speed>
<extensions>
<speed>0.2</speed>
<temp>0.00</temp>
<bpm>0</bpm>
<rpm>0.00</rpm>
</extensions>
</trkpt>
<trkpt lat="64.105522156" lon="-19.833456039">
<ele>126.238281</ele>
<time>2012-07-21T13:06:19Z</time>
<speed>0.090000</speed>
<extensions>
<speed>0.1</speed>
<temp>0.00</temp>
<bpm>0</bpm>
<rpm>0.00</rpm>
</extensions>
</trkpt>
<trkpt lat="64.105514526" lon="-19.833469391">
<ele>127.537109</ele>
<time>2012-07-21T13:06:24Z</time>
<speed>0.150000</speed>
<extensions>
<speed>0.2</speed>
<temp>0.00</temp>
<bpm>0</bpm>
<rpm>0.00</rpm>
</extensions>
</trkpt>
<trkpt lat="64.105514526" lon="-19.833488464">
<ele>128.925781</ele>
<time>2012-07-21T13:06:29Z</time>
<speed>0.230000</speed>
<extensions>
<speed>0.2</speed>
<temp>0.00</temp>
<bpm>0</bpm>
<rpm>0.00</rpm>
</extensions>
</trkpt>
<trkpt lat="64.105514526" lon="-19.833511353">
<ele>130.433594</ele>
<time>2012-07-21T13:06:34Z</time>
<speed>0.160000</speed>
<extensions>
<speed>0.2</speed>
<temp>0.00</temp>
<bpm>0</bpm>
<rpm>0.00</rpm>
</extensions>
</trkpt>
<trkpt lat="64.105522156" lon="-19.833522797">
<ele>132.011719</ele>
<time>2012-07-21T13:06:39Z</time>
<speed>0.210000</speed>
<extensions>
<speed>0.2</speed>
<temp>0.00</temp>
<bpm>0</bpm>
<rpm>0.00</rpm>
</extensions>
</trkpt>
<trkpt lat="64.105529785" lon="-19.833528519">
<ele>133.703125</ele>
<time>2012-07-21T13:06:44Z</time>
<speed>0.260000</speed>
<extensions>
<speed>0.3</speed>
<temp>0.00</temp>
<bpm>0</bpm>
<rpm>0.00</rpm>
</extensions>
</trkpt>
<trkpt lat="64.105552673" lon="-19.833528519">
<ele>135.554688</ele>
<time>2012-07-21T13:06:49Z</time>
<speed>0.380000</speed>
<extensions>
<speed>0.4</speed>
<temp>0.00</temp>
<bpm>0</bpm>
<rpm>0.00</rpm>
</extensions>
</trkpt>
<trkpt lat="64.105567932" lon="-19.833524704">
<ele>138.878906</ele>
<time>2012-07-21T13:06:54Z</time>
<speed>0.310000</speed>
<extensions>
<speed>0.3</speed>
<temp>0.00</temp>
<bpm>0</bpm>
<rpm>0.00</rpm>
</extensions>
</trkpt>
<trkpt lat="64.105560303" lon="-19.833499908">
<ele>143.031250</ele>
<time>2012-07-21T13:06:59Z</time>
<speed>0.140000</speed>
<extensions>
<speed>0.1</speed>
<temp>0.00</temp>
<bpm>0</bpm>
<rpm>0.00</rpm>
</extensions>
</trkpt>
<trkpt lat="64.105567932" lon="-19.833486557">
<ele>144.585938</ele>
<time>2012-07-21T13:07:04Z</time>
<speed>0.240000</speed>
<extensions>
<speed>0.2</speed>
<temp>0.00</temp>
<bpm>0</bpm>
<rpm>0.00</rpm>
</extensions>
</trkpt>
<trkpt lat="64.105575562" lon="-19.833469391">
<ele>146.257813</ele>
<time>2012-07-21T13:07:09Z</time>
<speed>0.240000</speed>
<extensions>
<speed>0.2</speed>
<temp>0.00</temp>
<bpm>0</bpm>
<rpm>0.00</rpm>
</extensions>
</trkpt>
<trkpt lat="64.105583191" lon="-19.833456039">
<ele>148.019531</ele>
<time>2012-07-21T13:07:14Z</time>
<speed>0.120000</speed>
<extensions>
<speed>0.1</speed>
<temp>0.00</temp>
<bpm>0</bpm>
<rpm>0.00</rpm>
</extensions>
</trkpt>
<trkpt lat="64.105590820" lon="-19.833448410">
<ele>149.375000</ele>
<time>2012-07-21T13:07:19Z</time>
<speed>0.140000</speed>
<extensions>
<speed>0.1</speed>
<temp>0.00</temp>
<bpm>0</bpm>
<rpm>0.00</rpm>
</extensions>
</trkpt>
<trkpt lat="64.105598450" lon="-19.833446503">
<ele>150.578125</ele>
<time>2012-07-21T13:07:24Z</time>
<speed>0.190000</speed>
<extensions>
<speed>0.2</speed>
<temp>0.00</temp>
<bpm>0</bpm>
<rpm>0.00</rpm>
</extensions>
</trkpt>
<trkpt lat="64.105606079" lon="-19.833456039">
<ele>151.785156</ele>
<time>2012-07-21T13:07:29Z</time>
<speed>0.220000</speed>
<extensions>
<speed>0.2</speed>
<temp>0.00</temp>
<bpm>0</bpm>
<rpm>0.00</rpm>
</extensions>
</trkpt>
<trkpt lat="64.105613708" lon="-19.833473206">
<ele>152.929688</ele>
<time>2012-07-21T13:07:34Z</time>
<speed>0.240000</speed>
<extensions>
<speed>0.2</speed>
<temp>0.00</temp>
<bpm>0</bpm>
<rpm>0.00</rpm>
</extensions>
</trkpt>
<trkpt lat="64.105628967" lon="-19.833509445">
<ele>153.746094</ele>
<time>2012-07-21T13:07:39Z</time>
<speed>0.340000</speed>
<extensions>
<speed>0.3</speed>
<temp>0.00</temp>
<bpm>0</bpm>
<rpm>0.00</rpm>
</extensions>
</trkpt>
<trkpt lat="64.105651855" lon="-19.833549500">
<ele>154.316406</ele>
<time>2012-07-21T13:07:44Z</time>
<speed>0.290000</speed>
<extensions>
<speed>0.3</speed>
<temp>0.00</temp>
<bpm>0</bpm>
<rpm>0.00</rpm>
</extensions>
</trkpt>
<trkpt lat="64.105644226" lon="-19.833566666">
<ele>156.433594</ele>
<time>2012-07-21T13:07:49Z</time>
<speed>0.170000</speed>
<extensions>
<speed>0.2</speed>
<temp>0.00</temp>
<bpm>0</bpm>
<rpm>0.00</rpm>
</extensions>
</trkpt>
<trkpt lat="64.105651855" lon="-19.833578110">
<ele>157.558594</ele>
<time>2012-07-21T13:07:54Z</time>
<speed>0.150000</speed>
<extensions>
<speed>0.2</speed>
<temp>0.00</temp>
<bpm>0</bpm>
<rpm>0.00</rpm>
</extensions>
</trkpt>
<trkpt lat="64.105651855" lon="-19.833589554">
<ele>158.757813</ele>
<time>2012-07-21T13:07:59Z</time>
<speed>0.160000</speed>
<extensions>
<speed>0.2</speed>
<temp>0.00</temp>
<bpm>0</bpm>
<rpm>0.00</rpm>
</extensions>
</trkpt>
<trkpt lat="64.105651855" lon="-19.833606720">
<ele>159.992188</ele>
<time>2012-07-21T13:08:04Z</time>
<speed>0.220000</speed>
<extensions>
<speed>0.2</speed>
<temp>0.00</temp>
<bpm>0</bpm>
<rpm>0.00</rpm>
</extensions>
</trkpt>
<trkpt lat="64.105644226" lon="-19.833618164">
<ele>161.226563</ele>
<time>2012-07-21T13:08:09Z</time>
<speed>0.110000</speed>
<extensions>
<speed>0.1</speed>
<temp>0.00</temp>
<bpm>0</bpm>
<rpm>0.00</rpm>
</extensions>
</trkpt>
<trkpt lat="64.105644226" lon="-19.833629608">
<ele>162.488281</ele>
<time>2012-07-21T13:08:14Z</time>
<speed>0.050000</speed>
<extensions>
<speed>0.1</speed>
<temp>0.00</temp>
<bpm>0</bpm>
<rpm>0.00</rpm>
</extensions>
</trkpt>
<trkpt lat="64.105644226" lon="-19.833633423">
<ele>163.734375</ele>
<time>2012-07-21T13:08:19Z</time>
<speed>0.090000</speed>
<extensions>
<speed>0.1</speed>
<temp>0.00</temp>
<bpm>0</bpm>
<rpm>0.00</rpm>
</extensions>
</trkpt>
<trkpt lat="64.105651855" lon="-19.833629608">
<ele>164.992188</ele>
<time>2012-07-21T13:08:24Z</time>
<speed>0.200000</speed>
<extensions>
<speed>0.2</speed>
<temp>0.00</temp>
<bpm>0</bpm>
<rpm>0.00</rpm>
</extensions>
</trkpt>
<trkpt lat="64.105659485" lon="-19.833623886">
<ele>166.195313</ele>
<time>2012-07-21T13:08:29Z</time>
<speed>0.150000</speed>
<extensions>
<speed>0.2</speed>
<temp>0.00</temp>
<bpm>0</bpm>
<rpm>0.00</rpm>
</extensions>
</trkpt>
<trkpt lat="64.105659485" lon="-19.833625793">
<ele>167.382813</ele>
<time>2012-07-21T13:08:34Z</time>
<speed>0.120000</speed>
<extensions>
<speed>0.1</speed>
<temp>0.00</temp>
<bpm>0</bpm>
<rpm>0.00</rpm>
</extensions>
</trkpt>
<trkpt lat="64.105667114" lon="-19.833629608">
<ele>168.542969</ele>
<time>2012-07-21T13:08:39Z</time>
<speed>0.180000</speed>
<extensions>
<speed>0.2</speed>
<temp>0.00</temp>
<bpm>0</bpm>
<rpm>0.00</rpm>
</extensions>
</trkpt>
<trkpt lat="64.105674744" lon="-19.833639145">
<ele>169.695313</ele>
<time>2012-07-21T13:08:44Z</time>
<speed>0.280000</speed>
<extensions>
<speed>0.3</speed>
<temp>0.00</temp>
<bpm>0</bpm>
<rpm>0.00</rpm>
</extensions>
</trkpt>
<trkpt lat="64.105705261" lon="-19.833650589">
<ele>170.503906</ele>
<time>2012-07-21T13:08:49Z</time>
<speed>0.370000</speed>
<extensions>
<speed>0.4</speed>
<temp>0.00</temp>
<bpm>0</bpm>
<rpm>0.00</rpm>
</extensions>
</trkpt>
<trkpt lat="64.105720520" lon="-19.833660126">
<ele>171.851563</ele>
<time>2012-07-21T13:08:54Z</time>
<speed>0.380000</speed>
<extensions>
<speed>0.4</speed>
<temp>0.00</temp>
<bpm>0</bpm>
<rpm>0.00</rpm>
</extensions>
</trkpt>
<trkpt lat="64.105743408" lon="-19.833711624">
<ele>173.589844</ele>
<time>2012-07-21T13:08:59Z</time>
<speed>0.350000</speed>
<extensions>
<speed>0.3</speed>
<temp>0.00</temp>
<bpm>0</bpm>
<rpm>0.00</rpm>
</extensions>
</trkpt>
<trkpt lat="64.105766296" lon="-19.833703995">
<ele>175.226563</ele>
<time>2012-07-21T13:09:04Z</time>
<speed>0.250000</speed>
<extensions>
<speed>0.2</speed>
<temp>0.00</temp>
<bpm>0</bpm>
<rpm>0.00</rpm>
</extensions>
</trkpt>
<trkpt lat="64.105773926" lon="-19.833711624">
<ele>176.519531</ele>
<time>2012-07-21T13:09:09Z</time>
<speed>0.190000</speed>
<extensions>
<speed>0.2</speed>
<temp>0.00</temp>
<bpm>0</bpm>
<rpm>0.00</rpm>
</extensions>
</trkpt>
<trkpt lat="64.105781555" lon="-19.833713531">
<ele>177.738281</ele>
<time>2012-07-21T13:09:14Z</time>
<speed>0.060000</speed>
<extensions>
<speed>0.1</speed>
<temp>0.00</temp>
<bpm>0</bpm>
<rpm>0.00</rpm>
</extensions>
</trkpt>
<trkpt lat="64.105781555" lon="-19.833715439">
<ele>178.957031</ele>
<time>2012-07-21T13:09:19Z</time>
<speed>0.040000</speed>
<extensions>
<speed>0.0</speed>
<temp>0.00</temp>
<bpm>0</bpm>
<rpm>0.00</rpm>
</extensions>
</trkpt>
<trkpt lat="64.105773926" lon="-19.833709717">
<ele>180.187500</ele>
<time>2012-07-21T13:09:24Z</time>
<speed>0.060000</speed>
<extensions>
<speed>0.1</speed>
<temp>0.00</temp>
<bpm>0</bpm>
<rpm>0.00</rpm>
</extensions>
</trkpt>
<trkpt lat="64.105773926" lon="-19.833707809">
<ele>181.394531</ele>
<time>2012-07-21T13:09:29Z</time>
<extensions>
<speed>0.0</speed>
<temp>0.00</temp>
<bpm>0</bpm>
<rpm>0.00</rpm>
</extensions>
</trkpt>
<trkpt lat="64.105773926" lon="-19.833705902">
<ele>182.242188</ele>
<time>2012-07-21T13:09:34Z</time>
<speed>0.040000</speed>
<extensions>
<speed>0.0</speed>
<temp>0.00</temp>
<bpm>0</bpm>
<rpm>0.00</rpm>
</extensions>
</trkpt>
<trkpt lat="64.105781555" lon="-19.833698273">
<ele>182.929688</ele>
<time>2012-07-21T13:09:39Z</time>
<speed>0.150000</speed>
<extensions>
<speed>0.2</speed>
<temp>0.00</temp>
<bpm>0</bpm>
<rpm>0.00</rpm>
</extensions>
</trkpt>
<trkpt lat="64.105781555" lon="-19.833684921">
<ele>183.593750</ele>
<time>2012-07-21T13:09:44Z</time>
<speed>0.170000</speed>
<extensions>
<speed>0.2</speed>
<temp>0.00</temp>
<bpm>0</bpm>
<rpm>0.00</rpm>
</extensions>
</trkpt>
<trkpt lat="64.105789185" lon="-19.833673477">
<ele>184.230469</ele>
<time>2012-07-21T13:09:49Z</time>
<speed>0.160000</speed>
<extensions>
<speed>0.2</speed>
<temp>0.00</temp>
<bpm>0</bpm>
<rpm>0.00</rpm>
</extensions>
</trkpt>
<trkpt lat="64.105789185" lon="-19.833658218">
<ele>184.808594</ele>
<time>2012-07-21T13:09:54Z</time>
<speed>0.160000</speed>
<extensions>
<speed>0.2</speed>
<temp>0.00</temp>
<bpm>0</bpm>
<rpm>0.00</rpm>
</extensions>
</trkpt>
<trkpt lat="64.105796814" lon="-19.833648682">
<ele>185.300781</ele>
<time>2012-07-21T13:09:59Z</time>
<speed>0.160000</speed>
<extensions>
<speed>0.2</speed>
<temp>0.00</temp>
<bpm>0</bpm>
<rpm>0.00</rpm>
</extensions>
</trkpt>
<trkpt lat="64.105804443" lon="-19.833641052">
<ele>185.722656</ele>
<time>2012-07-21T13:10:04Z</time>
<speed>0.150000</speed>
<extensions>
<speed>0.2</speed>
<temp>0.00</temp>
<bpm>0</bpm>
<rpm>0.00</rpm>
</extensions>
</trkpt>
<trkpt lat="64.105812073" lon="-19.833635330">
<ele>186.054688</ele>
<time>2012-07-21T13:10:09Z</time>
<speed>0.200000</speed>
<extensions>
<speed>0.2</speed>
<temp>0.00</temp>
<bpm>0</bpm>
<rpm>0.00</rpm>
</extensions>
</trkpt>
<trkpt lat="64.105819702" lon="-19.833631516">
<ele>186.343750</ele>
<time>2012-07-21T13:10:14Z</time>
<speed>0.230000</speed>
<extensions>
<speed>0.2</speed>
<temp>0.00</temp>
<bpm>0</bpm>
<rpm>0.00</rpm>
</extensions>
</trkpt>
<trkpt lat="64.105827332" lon="-19.833623886">
<ele>186.578125</ele>
<time>2012-07-21T13:10:19Z</time>
<speed>0.180000</speed>
<extensions>
<speed>0.2</speed>
<temp>0.00</temp>
<bpm>0</bpm>
<rpm>0.00</rpm>
</extensions>
</trkpt>
<trkpt lat="64.105834961" lon="-19.833618164">
<ele>186.765625</ele>
<time>2012-07-21T13:10:24Z</time>
<speed>0.110000</speed>
<extensions>
<speed>0.1</speed>
<temp>0.00</temp>
<bpm>0</bpm>
<rpm>0.00</rpm>
</extensions>
</trkpt>
<trkpt lat="64.105834961" lon="-19.833614349">
<ele>186.933594</ele>
<time>2012-07-21T13:10:29Z</time>
<speed>0.080000</speed>
<extensions>
<speed>0.1</speed>
<temp>0.00</temp>
<bpm>0</bpm>
<rpm>0.00</rpm>
</extensions>
</trkpt>
<trkpt lat="64.105842590" lon="-19.833608627">
<ele>187.070313</ele>
<time>2012-07-21T13:10:34Z</time>
<speed>0.110000</speed>
<extensions>
<speed>0.1</speed>
<temp>0.00</temp>
<bpm>0</bpm>
<rpm>0.00</rpm>
</extensions>
</trkpt>
<trkpt lat="64.105842590" lon="-19.833595276">
<ele>187.164063</ele>
<time>2012-07-21T13:10:39Z</time>
<speed>0.160000</speed>
<extensions>
<speed>0.2</speed>
<temp>0.00</temp>
<bpm>0</bpm>
<rpm>0.00</rpm>
</extensions>
</trkpt>
<trkpt lat="64.105842590" lon="-19.833580017">
<ele>187.203125</ele>
<time>2012-07-21T13:10:44Z</time>
<speed>0.150000</speed>
<extensions>
<speed>0.2</speed>
<temp>0.00</temp>
<bpm>0</bpm>
<rpm>0.00</rpm>
</extensions>
</trkpt>
<trkpt lat="64.105834961" lon="-19.833566666">
<ele>187.171875</ele>
<time>2012-07-21T13:10:49Z</time>
<speed>0.220000</speed>
<extensions>
<speed>0.2</speed>
<temp>0.00</temp>
<bpm>0</bpm>
<rpm>0.00</rpm>
</extensions>
</trkpt>
<trkpt lat="64.105827332" lon="-19.833547592">
<ele>187.054688</ele>
<time>2012-07-21T13:10:54Z</time>
<speed>0.200000</speed>
<extensions>
<speed>0.2</speed>
<temp>0.00</temp>
<bpm>0</bpm>
<rpm>0.00</rpm>
</extensions>
</trkpt>
<trkpt lat="64.105819702" lon="-19.833532333">
<ele>186.859375</ele>
<time>2012-07-21T13:10:59Z</time>
<speed>0.200000</speed>
<extensions>
<speed>0.2</speed>
<temp>0.00</temp>
<bpm>0</bpm>
<rpm>0.00</rpm>
</extensions>
</trkpt>
<trkpt lat="64.105819702" lon="-19.833520889">
<ele>186.535156</ele>
<time>2012-07-21T13:11:04Z</time>
<speed>0.130000</speed>
<extensions>
<speed>0.1</speed>
<temp>0.00</temp>
<bpm>0</bpm>
<rpm>0.00</rpm>
</extensions>
</trkpt>
<trkpt lat="64.105804443" lon="-19.833524704">
<ele>186.050781</ele>
<time>2012-07-21T13:11:09Z</time>
<speed>0.260000</speed>
<extensions>
<speed>0.3</speed>
<temp>0.00</temp>
<bpm>0</bpm>
<rpm>0.00</rpm>
</extensions>
</trkpt>
<trkpt lat="64.105789185" lon="-19.833580017">
<ele>183.812500</ele>
<time>2012-07-21T13:11:14Z</time>
<speed>0.350000</speed>
<extensions>
<speed>0.3</speed>
<temp>0.00</temp>
<bpm>0</bpm>
<rpm>0.00</rpm>
</extensions>
</trkpt>
<trkpt lat="64.105758667" lon="-19.833606720">
<ele>181.828125</ele>
<time>2012-07-21T13:11:19Z</time>
<speed>0.290000</speed>
<extensions>
<speed>0.3</speed>
<temp>0.00</temp>
<bpm>0</bpm>
<rpm>0.00</rpm>
</extensions>
</trkpt>
<trkpt lat="64.105735779" lon="-19.833616257">
<ele>180.593750</ele>
<time>2012-07-21T13:11:24Z</time>
<speed>0.290000</speed>
<extensions>
<speed>0.3</speed>
<temp>0.00</temp>
<bpm>0</bpm>
<rpm>0.00</rpm>
</extensions>
</trkpt>
<trkpt lat="64.105728149" lon="-19.833618164">
<ele>179.804688</ele>
<time>2012-07-21T13:11:29Z</time>
<speed>0.170000</speed>
<extensions>
<speed>0.2</speed>
<temp>0.00</temp>
<bpm>0</bpm>
<rpm>0.00</rpm>
</extensions>
</trkpt>
<trkpt lat="64.105720520" lon="-19.833620071">
<ele>178.968750</ele>
<time>2012-07-21T13:11:34Z</time>
<speed>0.130000</speed>
<extensions>
<speed>0.1</speed>
<temp>0.00</temp>
<bpm>0</bpm>
<rpm>0.00</rpm>
</extensions>
</trkpt>
<trkpt lat="64.105720520" lon="-19.833627701">
<ele>178.097656</ele>
<time>2012-07-21T13:11:39Z</time>
<speed>0.120000</speed>
<extensions>
<speed>0.1</speed>
<temp>0.00</temp>
<bpm>0</bpm>
<rpm>0.00</rpm>
</extensions>
</trkpt>
<trkpt lat="64.105712891" lon="-19.833627701">
<ele>177.234375</ele>
<time>2012-07-21T13:11:44Z</time>
<speed>0.100000</speed>
<extensions>
<speed>0.1</speed>
<temp>0.00</temp>
<bpm>0</bpm>
<rpm>0.00</rpm>
</extensions>
</trkpt>
<trkpt lat="64.105705261" lon="-19.833612442">
<ele>176.347656</ele>
<time>2012-07-21T13:11:49Z</time>
<speed>0.180000</speed>
<extensions>
<speed>0.2</speed>
<temp>0.00</temp>
<bpm>0</bpm>
<rpm>0.00</rpm>
</extensions>
</trkpt>
<trkpt lat="64.105705261" lon="-19.833593369">
<ele>175.378906</ele>
<time>2012-07-21T13:11:54Z</time>
<speed>0.240000</speed>
<extensions>
<speed>0.2</speed>
<temp>0.00</temp>
<bpm>0</bpm>
<rpm>0.00</rpm>
</extensions>
</trkpt>
<trkpt lat="64.105712891" lon="-19.833572388">
<ele>174.324219</ele>
<time>2012-07-21T13:11:59Z</time>
<speed>0.170000</speed>
<extensions>
<speed>0.2</speed>
<temp>0.00</temp>
<bpm>0</bpm>
<rpm>0.00</rpm>
</extensions>
</trkpt>
<trkpt lat="64.105712891" lon="-19.833551407">
<ele>173.195313</ele>
<time>2012-07-21T13:12:04Z</time>
<speed>0.270000</speed>
<extensions>
<speed>0.3</speed>
<temp>0.00</temp>
<bpm>0</bpm>
<rpm>0.00</rpm>
</extensions>
</trkpt>
<trkpt lat="64.105705261" lon="-19.833530426">
<ele>171.968750</ele>
<time>2012-07-21T13:12:09Z</time>
<speed>0.230000</speed>
<extensions>
<speed>0.2</speed>
<temp>0.00</temp>
<bpm>0</bpm>
<rpm>0.00</rpm>
</extensions>
</trkpt>
<trkpt lat="64.105697632" lon="-19.833520889">
<ele>170.625000</ele>
<time>2012-07-21T13:12:14Z</time>
<speed>0.280000</speed>
<extensions>
<speed>0.3</speed>
<temp>0.00</temp>
<bpm>0</bpm>
<rpm>0.00</rpm>
</extensions>
</trkpt>
<trkpt lat="64.105682373" lon="-19.833498001">
<ele>168.687500</ele>
<time>2012-07-21T13:12:19Z</time>
<speed>0.310000</speed>
<extensions>
<speed>0.3</speed>
<temp>0.00</temp>
<bpm>0</bpm>
<rpm>0.00</rpm>
</extensions>
</trkpt>
<trkpt lat="64.105674744" lon="-19.833427429">
<ele>167.988281</ele>
<time>2012-07-21T13:12:24Z</time>
<speed>0.280000</speed>
<extensions>
<speed>0.3</speed>
<temp>0.00</temp>
<bpm>0</bpm>
<rpm>0.00</rpm>
</extensions>
</trkpt>
<trkpt lat="64.105674744" lon="-19.833358765">
<ele>166.667969</ele>
<time>2012-07-21T13:12:29Z</time>
<speed>0.260000</speed>
<extensions>
<speed>0.3</speed>
<temp>0.00</temp>
<bpm>0</bpm>
<rpm>0.00</rpm>
</extensions>
</trkpt>
<trkpt lat="64.105667114" lon="-19.833341599">
<ele>165.417969</ele>
<time>2012-07-21T13:12:34Z</time>
<speed>0.210000</speed>
<extensions>
<speed>0.2</speed>
<temp>0.00</temp>
<bpm>0</bpm>
<rpm>0.00</rpm>
</extensions>
</trkpt>
<trkpt lat="64.105667114" lon="-19.833322525">
<ele>164.320313</ele>
<time>2012-07-21T13:12:39Z</time>
<speed>0.170000</speed>
<extensions>
<speed>0.2</speed>
<temp>0.00</temp>
<bpm>0</bpm>
<rpm>0.00</rpm>
</extensions>
</trkpt>
<trkpt lat="64.105659485" lon="-19.833301544">
<ele>163.214844</ele>
<time>2012-07-21T13:12:44Z</time>
<speed>0.160000</speed>
<extensions>
<speed>0.2</speed>
<temp>0.00</temp>
<bpm>0</bpm>
<rpm>0.00</rpm>
</extensions>
</trkpt>
<trkpt lat="64.105659485" lon="-19.833290100">
<ele>162.085938</ele>
<time>2012-07-21T13:12:49Z</time>
<speed>0.070000</speed>
<extensions>
<speed>0.1</speed>
<temp>0.00</temp>
<bpm>0</bpm>
<rpm>0.00</rpm>
</extensions>
</trkpt>
<trkpt lat="64.105667114" lon="-19.833290100">
<ele>160.894531</ele>
<time>2012-07-21T13:12:54Z</time>
<speed>0.050000</speed>
<extensions>
<speed>0.1</speed>
<temp>0.00</temp>
<bpm>0</bpm>
<rpm>0.00</rpm>
</extensions>
</trkpt>
<trkpt lat="64.105667114" lon="-19.833295822">
<ele>159.632813</ele>
<time>2012-07-21T13:12:59Z</time>
<speed>0.030000</speed>
<extensions>
<speed>0.0</speed>
<temp>0.00</temp>
<bpm>0</bpm>
<rpm>0.00</rpm>
</extensions>
</trkpt>
<trkpt lat="64.105659485" lon="-19.833307266">
<ele>158.312500</ele>
<time>2012-07-21T13:13:04Z</time>
<speed>0.130000</speed>
<extensions>
<speed>0.1</speed>
<temp>0.00</temp>
<bpm>0</bpm>
<rpm>0.00</rpm>
</extensions>
</trkpt>
<trkpt lat="64.105659485" lon="-19.833318710">
<ele>156.945313</ele>
<time>2012-07-21T13:13:09Z</time>
<speed>0.190000</speed>
<extensions>
<speed>0.2</speed>
<temp>0.00</temp>
<bpm>0</bpm>
<rpm>0.00</rpm>
</extensions>
</trkpt>
<trkpt lat="64.105651855" lon="-19.833335876">
<ele>155.554688</ele>
<time>2012-07-21T13:13:14Z</time>
<speed>0.220000</speed>
<extensions>
<speed>0.2</speed>
<temp>0.00</temp>
<bpm>0</bpm>
<rpm>0.00</rpm>
</extensions>
</trkpt>
<trkpt lat="64.105644226" lon="-19.833353043">
<ele>154.101563</ele>
<time>2012-07-21T13:13:19Z</time>
<speed>0.250000</speed>
<extensions>
<speed>0.2</speed>
<temp>0.00</temp>
<bpm>0</bpm>
<rpm>0.00</rpm>
</extensions>
</trkpt>
<trkpt lat="64.105628967" lon="-19.833389282">
<ele>152.394531</ele>
<time>2012-07-21T13:13:24Z</time>
<speed>0.340000</speed>
<extensions>
<speed>0.3</speed>
<temp>0.00</temp>
<bpm>0</bpm>
<rpm>0.00</rpm>
</extensions>
</trkpt>
<trkpt lat="64.105583191" lon="-19.833557129">
<ele>153.253906</ele>
<time>2012-07-21T13:13:29Z</time>
<speed>0.500000</speed>
<extensions>
<speed>0.5</speed>
<temp>0.00</temp>
<bpm>0</bpm>
<rpm>0.00</rpm>
</extensions>
</trkpt>
<trkpt lat="64.105537415" lon="-19.833690643">
<ele>150.847656</ele>
<time>2012-07-21T13:13:34Z</time>
<speed>0.570000</speed>
<extensions>
<speed>0.6</speed>
<temp>0.00</temp>
<bpm>0</bpm>
<rpm>0.00</rpm>
</extensions>
</trkpt>
<trkpt lat="64.105522156" lon="-19.833799362">
<ele>148.992188</ele>
<time>2012-07-21T13:13:39Z</time>
<speed>0.360000</speed>
<extensions>
<speed>0.4</speed>
<temp>0.00</temp>
<bpm>0</bpm>
<rpm>0.00</rpm>
</extensions>
</trkpt>
<trkpt lat="64.105506897" lon="-19.833894730">
<ele>146.992188</ele>
<time>2012-07-21T13:13:44Z</time>
<speed>0.300000</speed>
<extensions>
<speed>0.3</speed>
<temp>0.00</temp>
<bpm>0</bpm>
<rpm>0.00</rpm>
</extensions>
</trkpt>
<trkpt lat="64.105506897" lon="-19.833900452">
<ele>145.800781</ele>
<time>2012-07-21T13:13:49Z</time>
<speed>0.190000</speed>
<extensions>
<speed>0.2</speed>
<temp>0.00</temp>
<bpm>0</bpm>
<rpm>0.00</rpm>
</extensions>
</trkpt>
<trkpt lat="64.105499268" lon="-19.833919525">
<ele>144.730469</ele>
<time>2012-07-21T13:13:54Z</time>
<speed>0.220000</speed>
<extensions>
<speed>0.2</speed>
<temp>0.00</temp>
<bpm>0</bpm>
<rpm>0.00</rpm>
</extensions>
</trkpt>
<trkpt lat="64.105491638" lon="-19.833936691">
<ele>143.691406</ele>
<time>2012-07-21T13:13:59Z</time>
<speed>0.250000</speed>
<extensions>
<speed>0.2</speed>
<temp>0.00</temp>
<bpm>0</bpm>
<rpm>0.00</rpm>
</extensions>
</trkpt>
<trkpt lat="64.105476379" lon="-19.833959579">
<ele>143.226563</ele>
<time>2012-07-21T13:14:04Z</time>
<speed>0.290000</speed>
<extensions>
<speed>0.3</speed>
<temp>0.00</temp>
<bpm>0</bpm>
<rpm>0.00</rpm>
</extensions>
</trkpt>
<trkpt lat="64.105468750" lon="-19.833978653">
<ele>143.011719</ele>
<time>2012-07-21T13:14:09Z</time>
<speed>0.250000</speed>
<extensions>
<speed>0.2</speed>
<temp>0.00</temp>
<bpm>0</bpm>
<rpm>0.00</rpm>
</extensions>
</trkpt>
<trkpt lat="64.105461121" lon="-19.833963394">
<ele>142.320313</ele>
<time>2012-07-21T13:14:14Z</time>
<speed>0.060000</speed>
<extensions>
<speed>0.1</speed>
<temp>0.00</temp>
<bpm>0</bpm>
<rpm>0.00</rpm>
</extensions>
</trkpt>
<trkpt lat="64.105468750" lon="-19.833963394">
<ele>141.417969</ele>
<time>2012-07-21T13:14:19Z</time>
<speed>0.070000</speed>
<extensions>
<speed>0.1</speed>
<temp>0.00</temp>
<bpm>0</bpm>
<rpm>0.00</rpm>
</extensions>
</trkpt>
<trkpt lat="64.105468750" lon="-19.833957672">
<ele>140.574219</ele>
<time>2012-07-21T13:14:24Z</time>
<speed>0.070000</speed>
<extensions>
<speed>0.1</speed>
<temp>0.00</temp>
<bpm>0</bpm>
<rpm>0.00</rpm>
</extensions>
</trkpt>
<trkpt lat="64.105468750" lon="-19.833961487">
<ele>139.812500</ele>
<time>2012-07-21T13:14:29Z</time>
<speed>0.060000</speed>
<extensions>
<speed>0.1</speed>
<temp>0.00</temp>
<bpm>0</bpm>
<rpm>0.00</rpm>
</extensions>
</trkpt>
<trkpt lat="64.105468750" lon="-19.833967209">
<ele>139.097656</ele>
<time>2012-07-21T13:14:34Z</time>
<speed>0.090000</speed>
<extensions>
<speed>0.1</speed>
<temp>0.00</temp>
<bpm>0</bpm>
<rpm>0.00</rpm>
</extensions>
</trkpt>
<trkpt lat="64.105476379" lon="-19.833963394">
<ele>138.398438</ele>
<time>2012-07-21T13:14:39Z</time>
<speed>0.120000</speed>
<extensions>
<speed>0.1</speed>
<temp>0.00</temp>
<bpm>0</bpm>
<rpm>0.00</rpm>
</extensions>
</trkpt>
<trkpt lat="64.105476379" lon="-19.833953857">
<ele>137.738281</ele>
<time>2012-07-21T13:14:44Z</time>
<speed>0.140000</speed>
<extensions>
<speed>0.1</speed>
<temp>0.00</temp>
<bpm>0</bpm>
<rpm>0.00</rpm>
</extensions>
</trkpt>
<trkpt lat="64.105484009" lon="-19.833930969">
<ele>137.093750</ele>
<time>2012-07-21T13:14:49Z</time>
<speed>0.270000</speed>
<extensions>
<speed>0.3</speed>
<temp>0.00</temp>
<bpm>0</bpm>
<rpm>0.00</rpm>
</extensions>
</trkpt>
<trkpt lat="64.105491638" lon="-19.833904266">
<ele>136.460938</ele>
<time>2012-07-21T13:14:54Z</time>
<speed>0.280000</speed>
<extensions>
<speed>0.3</speed>
<temp>0.00</temp>
<bpm>0</bpm>
<rpm>0.00</rpm>
</extensions>
</trkpt>
<trkpt lat="64.105491638" lon="-19.833879471">
<ele>135.832031</ele>
<time>2012-07-21T13:14:59Z</time>
<speed>0.200000</speed>
<extensions>
<speed>0.2</speed>
<temp>0.00</temp>
<bpm>0</bpm>
<rpm>0.00</rpm>
</extensions>
</trkpt>
<trkpt lat="64.105491638" lon="-19.833858490">
<ele>135.199219</ele>
<time>2012-07-21T13:15:04Z</time>
<speed>0.170000</speed>
<extensions>
<speed>0.2</speed>
<temp>0.00</temp>
<bpm>0</bpm>
<rpm>0.00</rpm>
</extensions>
</trkpt>
<trkpt lat="64.105499268" lon="-19.833835602">
<ele>134.621094</ele>
<time>2012-07-21T13:15:09Z</time>
<speed>0.400000</speed>
<extensions>
<speed>0.4</speed>
<temp>0.00</temp>
<bpm>0</bpm>
<rpm>0.00</rpm>
</extensions>
</trkpt>
<trkpt lat="64.105499268" lon="-19.833780289">
<ele>134.582031</ele>
<time>2012-07-21T13:15:14Z</time>
<speed>0.370000</speed>
<extensions>
<speed>0.4</speed>
<temp>0.00</temp>
<bpm>0</bpm>
<rpm>0.00</rpm>
</extensions>
</trkpt>
<trkpt lat="64.105461121" lon="-19.833713531">
<ele>134.593750</ele>
<time>2012-07-21T13:15:19Z</time>
<speed>0.430000</speed>
<extensions>
<speed>0.4</speed>
<temp>0.00</temp>
<bpm>0</bpm>
<rpm>0.00</rpm>
</extensions>
</trkpt>
<trkpt lat="64.105407715" lon="-19.833599091">
<ele>134.414063</ele>
<time>2012-07-21T13:15:24Z</time>
<speed>0.550000</speed>
<extensions>
<speed>0.6</speed>
<temp>0.00</temp>
<bpm>0</bpm>
<rpm>0.00</rpm>
</extensions>
</trkpt>
<trkpt lat="64.105354309" lon="-19.833499908">
<ele>134.437500</ele>
<time>2012-07-21T13:15:29Z</time>
<speed>0.520000</speed>
<extensions>
<speed>0.5</speed>
<temp>0.00</temp>
<bpm>0</bpm>
<rpm>0.00</rpm>
</extensions>
</trkpt>
<trkpt lat="64.105316162" lon="-19.833459854">
<ele>135.253906</ele>
<time>2012-07-21T13:15:34Z</time>
<speed>0.460000</speed>
<extensions>
<speed>0.5</speed>
<temp>0.00</temp>
<bpm>0</bpm>
<rpm>0.00</rpm>
</extensions>
</trkpt>
<trkpt lat="64.105331421" lon="-19.833480835">
<ele>136.542969</ele>
<time>2012-07-21T13:15:39Z</time>
<speed>0.320000</speed>
<extensions>
<speed>0.3</speed>
<temp>0.00</temp>
<bpm>0</bpm>
<rpm>0.00</rpm>
</extensions>
</trkpt>
<trkpt lat="64.105361938" lon="-19.833505630">
<ele>138.312500</ele>
<time>2012-07-21T13:15:44Z</time>
<speed>0.230000</speed>
<extensions>
<speed>0.2</speed>
<temp>0.00</temp>
<bpm>0</bpm>
<rpm>0.00</rpm>
</extensions>
</trkpt>
<trkpt lat="64.105361938" lon="-19.833496094">
<ele>138.070313</ele>
<time>2012-07-21T13:15:49Z</time>
<speed>0.060000</speed>
<extensions>
<speed>0.1</speed>
<temp>0.00</temp>
<bpm>0</bpm>
<rpm>0.00</rpm>
</extensions>
</trkpt>
<trkpt lat="64.105369568" lon="-19.833505630">
<ele>137.972656</ele>
<time>2012-07-21T13:15:54Z</time>
<speed>0.170000</speed>
<extensions>
<speed>0.2</speed>
<temp>0.00</temp>
<bpm>0</bpm>
<rpm>0.00</rpm>
</extensions>
</trkpt>
<trkpt lat="64.105415344" lon="-19.833547592">
<ele>140.121094</ele>
<time>2012-07-21T13:15:59Z</time>
<speed>0.410000</speed>
<extensions>
<speed>0.4</speed>
<temp>0.00</temp>
<bpm>0</bpm>
<rpm>0.00</rpm>
</extensions>
</trkpt>
<trkpt lat="64.105468750" lon="-19.833618164">
<ele>144.238281</ele>
<time>2012-07-21T13:16:04Z</time>
<speed>0.350000</speed>
<extensions>
<speed>0.3</speed>
<temp>0.00</temp>
<bpm>0</bpm>
<rpm>0.00</rpm>
</extensions>
</trkpt>
<trkpt lat="64.105499268" lon="-19.833648682">
<ele>147.507813</ele>
<time>2012-07-21T13:16:09Z</time>
<speed>0.250000</speed>
<extensions>
<speed>0.2</speed>
<temp>0.00</temp>
<bpm>0</bpm>
<rpm>0.00</rpm>
</extensions>
</trkpt>
<trkpt lat="64.105506897" lon="-19.833658218">
<ele>147.929688</ele>
<time>2012-07-21T13:16:14Z</time>
<speed>0.220000</speed>
<extensions>
<speed>0.2</speed>
<temp>0.00</temp>
<bpm>0</bpm>
<rpm>0.00</rpm>
</extensions>
</trkpt>
<trkpt lat="64.105514526" lon="-19.833663940">
<ele>148.410156</ele>
<time>2012-07-21T13:16:19Z</time>
<speed>0.160000</speed>
<extensions>
<speed>0.2</speed>
<temp>0.00</temp>
<bpm>0</bpm>
<rpm>0.00</rpm>
</extensions>
</trkpt>
<trkpt lat="64.105522156" lon="-19.833660126">
<ele>149.019531</ele>
<time>2012-07-21T13:16:24Z</time>
<speed>0.030000</speed>
<extensions>
<speed>0.0</speed>
<temp>0.00</temp>
<bpm>0</bpm>
<rpm>0.00</rpm>
</extensions>
</trkpt>
<trkpt lat="64.105522156" lon="-19.833658218">
<ele>149.718750</ele>
<time>2012-07-21T13:16:29Z</time>
<speed>0.070000</speed>
<extensions>
<speed>0.1</speed>
<temp>0.00</temp>
<bpm>0</bpm>
<rpm>0.00</rpm>
</extensions>
</trkpt>
<trkpt lat="64.105522156" lon="-19.833658218">
<ele>150.562500</ele>
<time>2012-07-21T13:16:34Z</time>
<speed>0.010000</speed>
<extensions>
<speed>0.0</speed>
<temp>0.00</temp>
<bpm>0</bpm>
<rpm>0.00</rpm>
</extensions>
</trkpt>
<trkpt lat="64.105522156" lon="-19.833654404">
<ele>151.503906</ele>
<time>2012-07-21T13:16:39Z</time>
<speed>0.150000</speed>
<extensions>
<speed>0.2</speed>
<temp>0.00</temp>
<bpm>0</bpm>
<rpm>0.00</rpm>
</extensions>
</trkpt>
<trkpt lat="64.105514526" lon="-19.833644867">
<ele>152.445313</ele>
<time>2012-07-21T13:16:44Z</time>
<speed>0.160000</speed>
<extensions>
<speed>0.2</speed>
<temp>0.00</temp>
<bpm>0</bpm>
<rpm>0.00</rpm>
</extensions>
</trkpt>
<trkpt lat="64.105514526" lon="-19.833633423">
<ele>153.414063</ele>
<time>2012-07-21T13:16:49Z</time>
<speed>0.160000</speed>
<extensions>
<speed>0.2</speed>
<temp>0.00</temp>
<bpm>0</bpm>
<rpm>0.00</rpm>
</extensions>
</trkpt>
<trkpt lat="64.105506897" lon="-19.833621979">
<ele>154.367188</ele>
<time>2012-07-21T13:16:54Z</time>
<speed>0.110000</speed>
<extensions>
<speed>0.1</speed>
<temp>0.00</temp>
<bpm>0</bpm>
<rpm>0.00</rpm>
</extensions>
</trkpt>
<trkpt lat="64.105506897" lon="-19.833612442">
<ele>155.316406</ele>
<time>2012-07-21T13:16:59Z</time>
<speed>0.040000</speed>
<extensions>
<speed>0.0</speed>
<temp>0.00</temp>
<bpm>0</bpm>
<rpm>0.00</rpm>
</extensions>
</trkpt>
<trkpt lat="64.105506897" lon="-19.833608627">
<ele>156.246094</ele>
<time>2012-07-21T13:17:04Z</time>
<speed>0.010000</speed>
<extensions>
<speed>0.0</speed>
<temp>0.00</temp>
<bpm>0</bpm>
<rpm>0.00</rpm>
</extensions>
</trkpt>
<trkpt lat="64.105506897" lon="-19.833612442">
<ele>157.140625</ele>
<time>2012-07-21T13:17:09Z</time>
<speed>0.080000</speed>
<extensions>
<speed>0.1</speed>
<temp>0.00</temp>
<bpm>0</bpm>
<rpm>0.00</rpm>
</extensions>
</trkpt>
<trkpt lat="64.105514526" lon="-19.833621979">
<ele>158.058594</ele>
<time>2012-07-21T13:17:14Z</time>
<speed>0.290000</speed>
<extensions>
<speed>0.3</speed>
<temp>0.00</temp>
<bpm>0</bpm>
<rpm>0.00</rpm>
</extensions>
</trkpt>
<trkpt lat="64.105529785" lon="-19.833637238">
<ele>158.949219</ele>
<time>2012-07-21T13:17:19Z</time>
<speed>0.260000</speed>
<extensions>
<speed>0.3</speed>
<temp>0.00</temp>
<bpm>0</bpm>
<rpm>0.00</rpm>
</extensions>
</trkpt>
<trkpt lat="64.105537415" lon="-19.833644867">
<ele>159.902344</ele>
<time>2012-07-21T13:17:24Z</time>
<speed>0.280000</speed>
<extensions>
<speed>0.3</speed>
<temp>0.00</temp>
<bpm>0</bpm>
<rpm>0.00</rpm>
</extensions>
</trkpt>
<trkpt lat="64.105575562" lon="-19.833679199">
<ele>163.222656</ele>
<time>2012-07-21T13:17:29Z</time>
<speed>0.320000</speed>
<extensions>
<speed>0.3</speed>
<temp>0.00</temp>
<bpm>0</bpm>
<rpm>0.00</rpm>
</extensions>
</trkpt>
<trkpt lat="64.105613708" lon="-19.833705902">
<ele>166.335938</ele>
<time>2012-07-21T13:17:34Z</time>
<speed>0.380000</speed>
<extensions>
<speed>0.4</speed>
<temp>0.00</temp>
<bpm>0</bpm>
<rpm>0.00</rpm>
</extensions>
</trkpt>
<trkpt lat="64.105636597" lon="-19.833745956">
<ele>169.792969</ele>
<time>2012-07-21T13:17:39Z</time>
<speed>0.400000</speed>
<extensions>
<speed>0.4</speed>
<temp>0.00</temp>
<bpm>0</bpm>
<rpm>0.00</rpm>
</extensions>
</trkpt>
<trkpt lat="64.105674744" lon="-19.833782196">
<ele>172.378906</ele>
<time>2012-07-21T13:17:44Z</time>
<speed>0.410000</speed>
<extensions>
<speed>0.4</speed>
<temp>0.00</temp>
<bpm>0</bpm>
<rpm>0.00</rpm>
</extensions>
</trkpt>
<trkpt lat="64.105697632" lon="-19.833810806">
<ele>175.058594</ele>
<time>2012-07-21T13:17:49Z</time>
<speed>0.450000</speed>
<extensions>
<speed>0.5</speed>
<temp>0.00</temp>
<bpm>0</bpm>
<rpm>0.00</rpm>
</extensions>
</trkpt>
<trkpt lat="64.105697632" lon="-19.833803177">
<ele>176.183594</ele>
<time>2012-07-21T13:17:54Z</time>
<speed>0.330000</speed>
<extensions>
<speed>0.3</speed>
<temp>0.00</temp>
<bpm>0</bpm>
<rpm>0.00</rpm>
</extensions>
</trkpt>
<trkpt lat="64.105697632" lon="-19.833829880">
<ele>176.707031</ele>
<time>2012-07-21T13:17:59Z</time>
<speed>0.330000</speed>
<extensions>
<speed>0.3</speed>
<temp>0.00</temp>
<bpm>0</bpm>
<rpm>0.00</rpm>
</extensions>
</trkpt>
<trkpt lat="64.105682373" lon="-19.833826065">
<ele>177.097656</ele>
<time>2012-07-21T13:18:04Z</time>
<speed>0.150000</speed>
<extensions>
<speed>0.2</speed>
<temp>0.00</temp>
<bpm>0</bpm>
<rpm>0.00</rpm>
</extensions>
</trkpt>
<trkpt lat="64.105690002" lon="-19.833826065">
<ele>178.394531</ele>
<time>2012-07-21T13:18:09Z</time>
<speed>0.140000</speed>
<extensions>
<speed>0.1</speed>
<temp>0.00</temp>
<bpm>0</bpm>
<rpm>0.00</rpm>
</extensions>
</trkpt>
<trkpt lat="64.105697632" lon="-19.833822250">
<ele>179.617188</ele>
<time>2012-07-21T13:18:14Z</time>
<speed>0.100000</speed>
<extensions>
<speed>0.1</speed>
<temp>0.00</temp>
<bpm>0</bpm>
<rpm>0.00</rpm>
</extensions>
</trkpt>
<trkpt lat="64.105697632" lon="-19.833816528">
<ele>180.757813</ele>
<time>2012-07-21T13:18:19Z</time>
<speed>0.040000</speed>
<extensions>
<speed>0.0</speed>
<temp>0.00</temp>
<bpm>0</bpm>
<rpm>0.00</rpm>
</extensions>
</trkpt>
<trkpt lat="64.105697632" lon="-19.833808899">
<ele>181.746094</ele>
<time>2012-07-21T13:18:24Z</time>
<speed>0.090000</speed>
<extensions>
<speed>0.1</speed>
<temp>0.00</temp>
<bpm>0</bpm>
<rpm>0.00</rpm>
</extensions>
</trkpt>
<trkpt lat="64.105690002" lon="-19.833799362">
<ele>182.496094</ele>
<time>2012-07-21T13:18:29Z</time>
<speed>0.070000</speed>
<extensions>
<speed>0.1</speed>
<temp>0.00</temp>
<bpm>0</bpm>
<rpm>0.00</rpm>
</extensions>
</trkpt>
<trkpt lat="64.105690002" lon="-19.833797455">
<ele>182.941406</ele>
<time>2012-07-21T13:18:34Z</time>
<speed>0.110000</speed>
<extensions>
<speed>0.1</speed>
<temp>0.00</temp>
<bpm>0</bpm>
<rpm>0.00</rpm>
</extensions>
</trkpt>
<trkpt lat="64.105682373" lon="-19.833801270">
<ele>183.171875</ele>
<time>2012-07-21T13:18:39Z</time>
<speed>0.190000</speed>
<extensions>
<speed>0.2</speed>
<temp>0.00</temp>
<bpm>0</bpm>
<rpm>0.00</rpm>
</extensions>
</trkpt>
<trkpt lat="64.105674744" lon="-19.833801270">
<ele>183.257813</ele>
<time>2012-07-21T13:18:44Z</time>
<speed>0.130000</speed>
<extensions>
<speed>0.1</speed>
<temp>0.00</temp>
<bpm>0</bpm>
<rpm>0.00</rpm>
</extensions>
</trkpt>
<trkpt lat="64.105667114" lon="-19.833801270">
<ele>183.253906</ele>
<time>2012-07-21T13:18:49Z</time>
<speed>0.190000</speed>
<extensions>
<speed>0.2</speed>
<temp>0.00</temp>
<bpm>0</bpm>
<rpm>0.00</rpm>
</extensions>
</trkpt>
<trkpt lat="64.105659485" lon="-19.833806992">
<ele>183.078125</ele>
<time>2012-07-21T13:18:54Z</time>
<speed>0.160000</speed>
<extensions>
<speed>0.2</speed>
<temp>0.00</temp>
<bpm>0</bpm>
<rpm>0.00</rpm>
</extensions>
</trkpt>
<trkpt lat="64.105651855" lon="-19.833814621">
<ele>182.746094</ele>
<time>2012-07-21T13:18:59Z</time>
<speed>0.190000</speed>
<extensions>
<speed>0.2</speed>
<temp>0.00</temp>
<bpm>0</bpm>
<rpm>0.00</rpm>
</extensions>
</trkpt>
<trkpt lat="64.105644226" lon="-19.833818436">
<ele>182.285156</ele>
<time>2012-07-21T13:19:04Z</time>
<speed>0.190000</speed>
<extensions>
<speed>0.2</speed>
<temp>0.00</temp>
<bpm>0</bpm>
<rpm>0.00</rpm>
</extensions>
</trkpt>
<trkpt lat="64.105628967" lon="-19.833820343">
<ele>181.605469</ele>
<time>2012-07-21T13:19:09Z</time>
<speed>0.250000</speed>
<extensions>
<speed>0.2</speed>
<temp>0.00</temp>
<bpm>0</bpm>
<rpm>0.00</rpm>
</extensions>
</trkpt>
<trkpt lat="64.105621338" lon="-19.833816528">
<ele>180.773438</ele>
<time>2012-07-21T13:19:14Z</time>
<speed>0.230000</speed>
<extensions>
<speed>0.2</speed>
<temp>0.00</temp>
<bpm>0</bpm>
<rpm>0.00</rpm>
</extensions>
</trkpt>
<trkpt lat="64.105613708" lon="-19.833808899">
<ele>179.816406</ele>
<time>2012-07-21T13:19:19Z</time>
<speed>0.250000</speed>
<extensions>
<speed>0.2</speed>
<temp>0.00</temp>
<bpm>0</bpm>
<rpm>0.00</rpm>
</extensions>
</trkpt>
<trkpt lat="64.105598450" lon="-19.833803177">
<ele>178.824219</ele>
<time>2012-07-21T13:19:24Z</time>
<speed>0.240000</speed>
<extensions>
<speed>0.2</speed>
<temp>0.00</temp>
<bpm>0</bpm>
<rpm>0.00</rpm>
</extensions>
</trkpt>
<trkpt lat="64.105590820" lon="-19.833795547">
<ele>177.816406</ele>
<time>2012-07-21T13:19:29Z</time>
<speed>0.240000</speed>
<extensions>
<speed>0.2</speed>
<temp>0.00</temp>
<bpm>0</bpm>
<rpm>0.00</rpm>
</extensions>
</trkpt>
<trkpt lat="64.105583191" lon="-19.833786011">
<ele>176.804688</ele>
<time>2012-07-21T13:19:34Z</time>
<speed>0.240000</speed>
<extensions>
<speed>0.2</speed>
<temp>0.00</temp>
<bpm>0</bpm>
<rpm>0.00</rpm>
</extensions>
</trkpt>
<trkpt lat="64.105567932" lon="-19.833776474">
<ele>175.824219</ele>
<time>2012-07-21T13:19:39Z</time>
<speed>0.210000</speed>
<extensions>
<speed>0.2</speed>
<temp>0.00</temp>
<bpm>0</bpm>
<rpm>0.00</rpm>
</extensions>
</trkpt>
<trkpt lat="64.105560303" lon="-19.833766937">
<ele>174.914063</ele>
<time>2012-07-21T13:19:44Z</time>
<speed>0.210000</speed>
<extensions>
<speed>0.2</speed>
<temp>0.00</temp>
<bpm>0</bpm>
<rpm>0.00</rpm>
</extensions>
</trkpt>
<trkpt lat="64.105552673" lon="-19.833759308">
<ele>173.964844</ele>
<time>2012-07-21T13:19:49Z</time>
<speed>0.250000</speed>
<extensions>
<speed>0.2</speed>
<temp>0.00</temp>
<bpm>0</bpm>
<rpm>0.00</rpm>
</extensions>
</trkpt>
<trkpt lat="64.105537415" lon="-19.833747864">
<ele>172.070313</ele>
<time>2012-07-21T13:19:54Z</time>
<speed>0.260000</speed>
<extensions>
<speed>0.3</speed>
<temp>0.00</temp>
<bpm>0</bpm>
<rpm>0.00</rpm>
</extensions>
</trkpt>
<trkpt lat="64.105529785" lon="-19.833747864">
<ele>170.832031</ele>
<time>2012-07-21T13:19:59Z</time>
<speed>0.280000</speed>
<extensions>
<speed>0.3</speed>
<temp>0.00</temp>
<bpm>0</bpm>
<rpm>0.00</rpm>
</extensions>
</trkpt>
<trkpt lat="64.105522156" lon="-19.833759308">
<ele>169.769531</ele>
<time>2012-07-21T13:20:04Z</time>
<speed>0.230000</speed>
<extensions>
<speed>0.2</speed>
<temp>0.00</temp>
<bpm>0</bpm>
<rpm>0.00</rpm>
</extensions>
</trkpt>
<trkpt lat="64.105514526" lon="-19.833751678">
<ele>168.750000</ele>
<time>2012-07-21T13:20:09Z</time>
<speed>0.140000</speed>
<extensions>
<speed>0.1</speed>
<temp>0.00</temp>
<bpm>0</bpm>
<rpm>0.00</rpm>
</extensions>
</trkpt>
<trkpt lat="64.105514526" lon="-19.833744049">
<ele>168.203125</ele>
<time>2012-07-21T13:20:14Z</time>
<speed>0.120000</speed>
<extensions>
<speed>0.1</speed>
<temp>0.00</temp>
<bpm>0</bpm>
<rpm>0.00</rpm>
</extensions>
</trkpt>
<trkpt lat="64.105506897" lon="-19.833734512">
<ele>167.683594</ele>
<time>2012-07-21T13:20:19Z</time>
<speed>0.120000</speed>
<extensions>
<speed>0.1</speed>
<temp>0.00</temp>
<bpm>0</bpm>
<rpm>0.00</rpm>
</extensions>
</trkpt>
<trkpt lat="64.105499268" lon="-19.833730698">
<ele>167.214844</ele>
<time>2012-07-21T13:20:24Z</time>
<speed>0.100000</speed>
<extensions>
<speed>0.1</speed>
<temp>0.00</temp>
<bpm>0</bpm>
<rpm>0.00</rpm>
</extensions>
</trkpt>
<trkpt lat="64.105499268" lon="-19.833726883">
<ele>166.792969</ele>
<time>2012-07-21T13:20:29Z</time>
<speed>0.080000</speed>
<extensions>
<speed>0.1</speed>
<temp>0.00</temp>
<bpm>0</bpm>
<rpm>0.00</rpm>
</extensions>
</trkpt>
<trkpt lat="64.105491638" lon="-19.833724976">
<ele>166.406250</ele>
<time>2012-07-21T13:20:34Z</time>
<speed>0.050000</speed>
<extensions>
<speed>0.1</speed>
<temp>0.00</temp>
<bpm>0</bpm>
<rpm>0.00</rpm>
</extensions>
</trkpt>
<trkpt lat="64.105491638" lon="-19.833721161">
<ele>166.039063</ele>
<time>2012-07-21T13:20:39Z</time>
<speed>0.120000</speed>
<extensions>
<speed>0.1</speed>
<temp>0.00</temp>
<bpm>0</bpm>
<rpm>0.00</rpm>
</extensions>
</trkpt>
<trkpt lat="64.105484009" lon="-19.833719254">
<ele>165.664063</ele>
<time>2012-07-21T13:20:44Z</time>
<speed>0.070000</speed>
<extensions>
<speed>0.1</speed>
<temp>0.00</temp>
<bpm>0</bpm>
<rpm>0.00</rpm>
</extensions>
</trkpt>
<trkpt lat="64.105484009" lon="-19.833711624">
<ele>165.304688</ele>
<time>2012-07-21T13:20:49Z</time>
<speed>0.060000</speed>
<extensions>
<speed>0.1</speed>
<temp>0.00</temp>
<bpm>0</bpm>
<rpm>0.00</rpm>
</extensions>
</trkpt>
<trkpt lat="64.105484009" lon="-19.833703995">
<ele>164.976563</ele>
<time>2012-07-21T13:20:54Z</time>
<speed>0.070000</speed>
<extensions>
<speed>0.1</speed>
<temp>0.00</temp>
<bpm>0</bpm>
<rpm>0.00</rpm>
</extensions>
</trkpt>
<trkpt lat="64.105484009" lon="-19.833692551">
<ele>164.753906</ele>
<time>2012-07-21T13:20:59Z</time>
<speed>0.120000</speed>
<extensions>
<speed>0.1</speed>
<temp>0.00</temp>
<bpm>0</bpm>
<rpm>0.00</rpm>
</extensions>
</trkpt>
<trkpt lat="64.105484009" lon="-19.833681107">
<ele>164.613281</ele>
<time>2012-07-21T13:21:04Z</time>
<speed>0.100000</speed>
<extensions>
<speed>0.1</speed>
<temp>0.00</temp>
<bpm>0</bpm>
<rpm>0.00</rpm>
</extensions>
</trkpt>
<trkpt lat="64.105476379" lon="-19.833671570">
<ele>164.523438</ele>
<time>2012-07-21T13:21:09Z</time>
<speed>0.160000</speed>
<extensions>
<speed>0.2</speed>
<temp>0.00</temp>
<bpm>0</bpm>
<rpm>0.00</rpm>
</extensions>
</trkpt>
<trkpt lat="64.105476379" lon="-19.833669662">
<ele>164.414063</ele>
<time>2012-07-21T13:21:14Z</time>
<speed>0.070000</speed>
<extensions>
<speed>0.1</speed>
<temp>0.00</temp>
<bpm>0</bpm>
<rpm>0.00</rpm>
</extensions>
</trkpt>
<trkpt lat="64.105468750" lon="-19.833677292">
<ele>164.304688</ele>
<time>2012-07-21T13:21:19Z</time>
<speed>0.110000</speed>
<extensions>
<speed>0.1</speed>
<temp>0.00</temp>
<bpm>0</bpm>
<rpm>0.00</rpm>
</extensions>
</trkpt>
<trkpt lat="64.105476379" lon="-19.833688736">
<ele>164.285156</ele>
<time>2012-07-21T13:21:24Z</time>
<speed>0.020000</speed>
<extensions>
<speed>0.0</speed>
<temp>0.00</temp>
<bpm>0</bpm>
<rpm>0.00</rpm>
</extensions>
</trkpt>
<trkpt lat="64.105476379" lon="-19.833690643">
<ele>164.410156</ele>
<time>2012-07-21T13:21:29Z</time>
<speed>0.120000</speed>
<extensions>
<speed>0.1</speed>
<temp>0.00</temp>
<bpm>0</bpm>
<rpm>0.00</rpm>
</extensions>
</trkpt>
<trkpt lat="64.105484009" lon="-19.833686829">
<ele>164.746094</ele>
<time>2012-07-21T13:21:34Z</time>
<speed>0.270000</speed>
<extensions>
<speed>0.3</speed>
<temp>0.00</temp>
<bpm>0</bpm>
<rpm>0.00</rpm>
</extensions>
</trkpt>
<trkpt lat="64.105545044" lon="-19.833707809">
<ele>167.179688</ele>
<time>2012-07-21T13:21:39Z</time>
<speed>0.400000</speed>
<extensions>
<speed>0.4</speed>
<temp>0.00</temp>
<bpm>0</bpm>
<rpm>0.00</rpm>
</extensions>
</trkpt>
<trkpt lat="64.105575562" lon="-19.833740234">
<ele>168.773438</ele>
<time>2012-07-21T13:21:44Z</time>
<speed>0.350000</speed>
<extensions>
<speed>0.3</speed>
<temp>0.00</temp>
<bpm>0</bpm>
<rpm>0.00</rpm>
</extensions>
</trkpt>
<trkpt lat="64.105613708" lon="-19.833772659">
<ele>170.832031</ele>
<time>2012-07-21T13:21:49Z</time>
<speed>0.350000</speed>
<extensions>
<speed>0.3</speed>
<temp>0.00</temp>
<bpm>0</bpm>
<rpm>0.00</rpm>
</extensions>
</trkpt>
<trkpt lat="64.105613708" lon="-19.833833694">
<ele>172.281250</ele>
<time>2012-07-21T13:21:54Z</time>
<speed>0.230000</speed>
<extensions>
<speed>0.2</speed>
<temp>0.00</temp>
<bpm>0</bpm>
<rpm>0.00</rpm>
</extensions>
</trkpt>
<trkpt lat="64.105621338" lon="-19.833860397">
<ele>172.085938</ele>
<time>2012-07-21T13:21:59Z</time>
<speed>0.270000</speed>
<extensions>
<speed>0.3</speed>
<temp>0.00</temp>
<bpm>0</bpm>
<rpm>0.00</rpm>
</extensions>
</trkpt>
<trkpt lat="64.105628967" lon="-19.833871841">
<ele>172.828125</ele>
<time>2012-07-21T13:22:04Z</time>
<speed>0.300000</speed>
<extensions>
<speed>0.3</speed>
<temp>0.00</temp>
<bpm>0</bpm>
<rpm>0.00</rpm>
</extensions>
</trkpt>
<trkpt lat="64.105636597" lon="-19.833860397">
<ele>171.980469</ele>
<time>2012-07-21T13:22:09Z</time>
<speed>0.270000</speed>
<extensions>
<speed>0.3</speed>
<temp>0.00</temp>
<bpm>0</bpm>
<rpm>0.00</rpm>
</extensions>
</trkpt>
<trkpt lat="64.105644226" lon="-19.833845139">
<ele>172.554688</ele>
<time>2012-07-21T13:22:14Z</time>
<speed>0.230000</speed>
<extensions>
<speed>0.2</speed>
<temp>0.00</temp>
<bpm>0</bpm>
<rpm>0.00</rpm>
</extensions>
</trkpt>
<trkpt lat="64.105644226" lon="-19.833843231">
<ele>172.847656</ele>
<time>2012-07-21T13:22:19Z</time>
<speed>0.020000</speed>
<extensions>
<speed>0.0</speed>
<temp>0.00</temp>
<bpm>0</bpm>
<rpm>0.00</rpm>
</extensions>
</trkpt>
<trkpt lat="64.105651855" lon="-19.833843231">
<ele>173.078125</ele>
<time>2012-07-21T13:22:24Z</time>
<speed>0.080000</speed>
<extensions>
<speed>0.1</speed>
<temp>0.00</temp>
<bpm>0</bpm>
<rpm>0.00</rpm>
</extensions>
</trkpt>
<trkpt lat="64.105651855" lon="-19.833850861">
<ele>173.230469</ele>
<time>2012-07-21T13:22:29Z</time>
<speed>0.080000</speed>
<extensions>
<speed>0.1</speed>
<temp>0.00</temp>
<bpm>0</bpm>
<rpm>0.00</rpm>
</extensions>
</trkpt>
<trkpt lat="64.105651855" lon="-19.833852768">
<ele>173.324219</ele>
<time>2012-07-21T13:22:34Z</time>
<speed>0.050000</speed>
<extensions>
<speed>0.1</speed>
<temp>0.00</temp>
<bpm>0</bpm>
<rpm>0.00</rpm>
</extensions>
</trkpt>
<trkpt lat="64.105651855" lon="-19.833856583">
<ele>173.378906</ele>
<time>2012-07-21T13:22:39Z</time>
<speed>0.090000</speed>
<extensions>
<speed>0.1</speed>
<temp>0.00</temp>
<bpm>0</bpm>
<rpm>0.00</rpm>
</extensions>
</trkpt>
<trkpt lat="64.105651855" lon="-19.833860397">
<ele>173.414063</ele>
<time>2012-07-21T13:22:44Z</time>
<speed>0.070000</speed>
<extensions>
<speed>0.1</speed>
<temp>0.00</temp>
<bpm>0</bpm>
<rpm>0.00</rpm>
</extensions>
</trkpt>
<trkpt lat="64.105651855" lon="-19.833866119">
<ele>173.433594</ele>
<time>2012-07-21T13:22:49Z</time>
<speed>0.160000</speed>
<extensions>
<speed>0.2</speed>
<temp>0.00</temp>
<bpm>0</bpm>
<rpm>0.00</rpm>
</extensions>
</trkpt>
<trkpt lat="64.105644226" lon="-19.833881378">
<ele>173.453125</ele>
<time>2012-07-21T13:22:54Z</time>
<speed>0.260000</speed>
<extensions>
<speed>0.3</speed>
<temp>0.00</temp>
<bpm>0</bpm>
<rpm>0.00</rpm>
</extensions>
</trkpt>
<trkpt lat="64.105636597" lon="-19.833900452">
<ele>173.519531</ele>
<time>2012-07-21T13:22:59Z</time>
<speed>0.310000</speed>
<extensions>
<speed>0.3</speed>
<temp>0.00</temp>
<bpm>0</bpm>
<rpm>0.00</rpm>
</extensions>
</trkpt>
<trkpt lat="64.105613708" lon="-19.833932877">
<ele>172.507813</ele>
<time>2012-07-21T13:23:04Z</time>
<speed>0.290000</speed>
<extensions>
<speed>0.3</speed>
<temp>0.00</temp>
<bpm>0</bpm>
<rpm>0.00</rpm>
</extensions>
</trkpt>
<trkpt lat="64.105621338" lon="-19.833938599">
<ele>171.933594</ele>
<time>2012-07-21T13:23:09Z</time>
<speed>0.110000</speed>
<extensions>
<speed>0.1</speed>
<temp>0.00</temp>
<bpm>0</bpm>
<rpm>0.00</rpm>
</extensions>
</trkpt>
<trkpt lat="64.105621338" lon="-19.833948135">
<ele>171.886719</ele>
<time>2012-07-21T13:23:14Z</time>
<speed>0.060000</speed>
<extensions>
<speed>0.1</speed>
<temp>0.00</temp>
<bpm>0</bpm>
<rpm>0.00</rpm>
</extensions>
</trkpt>
<trkpt lat="64.105621338" lon="-19.833953857">
<ele>171.816406</ele>
<time>2012-07-21T13:23:19Z</time>
<speed>0.060000</speed>
<extensions>
<speed>0.1</speed>
<temp>0.00</temp>
<bpm>0</bpm>
<rpm>0.00</rpm>
</extensions>
</trkpt>
<trkpt lat="64.105621338" lon="-19.833946228">
<ele>171.769531</ele>
<time>2012-07-21T13:23:24Z</time>
<speed>0.140000</speed>
<extensions>
<speed>0.1</speed>
<temp>0.00</temp>
<bpm>0</bpm>
<rpm>0.00</rpm>
</extensions>
</trkpt>
<trkpt lat="64.105628967" lon="-19.833934784">
<ele>171.722656</ele>
<time>2012-07-21T13:23:29Z</time>
<speed>0.180000</speed>
<extensions>
<speed>0.2</speed>
<temp>0.00</temp>
<bpm>0</bpm>
<rpm>0.00</rpm>
</extensions>
</trkpt>
<trkpt lat="64.105628967" lon="-19.833921432">
<ele>171.714844</ele>
<time>2012-07-21T13:23:34Z</time>
<speed>0.130000</speed>
<extensions>
<speed>0.1</speed>
<temp>0.00</temp>
<bpm>0</bpm>
<rpm>0.00</rpm>
</extensions>
</trkpt>
<trkpt lat="64.105628967" lon="-19.833902359">
<ele>171.769531</ele>
<time>2012-07-21T13:23:39Z</time>
<speed>0.190000</speed>
<extensions>
<speed>0.2</speed>
<temp>0.00</temp>
<bpm>0</bpm>
<rpm>0.00</rpm>
</extensions>
</trkpt>
<trkpt lat="64.105628967" lon="-19.833885193">
<ele>171.812500</ele>
<time>2012-07-21T13:23:44Z</time>
<speed>0.130000</speed>
<extensions>
<speed>0.1</speed>
<temp>0.00</temp>
<bpm>0</bpm>
<rpm>0.00</rpm>
</extensions>
</trkpt>
<trkpt lat="64.105628967" lon="-19.833881378">
<ele>171.847656</ele>
<time>2012-07-21T13:23:49Z</time>
<speed>0.090000</speed>
<extensions>
<speed>0.1</speed>
<temp>0.00</temp>
<bpm>0</bpm>
<rpm>0.00</rpm>
</extensions>
</trkpt>
<trkpt lat="64.105636597" lon="-19.833877563">
<ele>171.878906</ele>
<time>2012-07-21T13:23:54Z</time>
<speed>0.190000</speed>
<extensions>
<speed>0.2</speed>
<temp>0.00</temp>
<bpm>0</bpm>
<rpm>0.00</rpm>
</extensions>
</trkpt>
<trkpt lat="64.105644226" lon="-19.833885193">
<ele>171.882813</ele>
<time>2012-07-21T13:23:59Z</time>
<speed>0.110000</speed>
<extensions>
<speed>0.1</speed>
<temp>0.00</temp>
<bpm>0</bpm>
<rpm>0.00</rpm>
</extensions>
</trkpt>
<trkpt lat="64.105644226" lon="-19.833873749">
<ele>171.917969</ele>
<time>2012-07-21T13:24:04Z</time>
<speed>0.160000</speed>
<extensions>
<speed>0.2</speed>
<temp>0.00</temp>
<bpm>0</bpm>
<rpm>0.00</rpm>
</extensions>
</trkpt>
<trkpt lat="64.105644226" lon="-19.833852768">
<ele>171.859375</ele>
<time>2012-07-21T13:24:09Z</time>
<speed>0.230000</speed>
<extensions>
<speed>0.2</speed>
<temp>0.00</temp>
<bpm>0</bpm>
<rpm>0.00</rpm>
</extensions>
</trkpt>
<trkpt lat="64.105644226" lon="-19.833833694">
<ele>171.714844</ele>
<time>2012-07-21T13:24:14Z</time>
<speed>0.050000</speed>
<extensions>
<speed>0.1</speed>
<temp>0.00</temp>
<bpm>0</bpm>
<rpm>0.00</rpm>
</extensions>
</trkpt>
<trkpt lat="64.105644226" lon="-19.833829880">
<ele>171.574219</ele>
<time>2012-07-21T13:24:19Z</time>
<speed>0.130000</speed>
<extensions>
<speed>0.1</speed>
<temp>0.00</temp>
<bpm>0</bpm>
<rpm>0.00</rpm>
</extensions>
</trkpt>
<trkpt lat="64.105636597" lon="-19.833820343">
<ele>171.433594</ele>
<time>2012-07-21T13:24:24Z</time>
<speed>0.280000</speed>
<extensions>
<speed>0.3</speed>
<temp>0.00</temp>
<bpm>0</bpm>
<rpm>0.00</rpm>
</extensions>
</trkpt>
<trkpt lat="64.105628967" lon="-19.833803177">
<ele>171.312500</ele>
<time>2012-07-21T13:24:29Z</time>
<speed>0.300000</speed>
<extensions>
<speed>0.3</speed>
<temp>0.00</temp>
<bpm>0</bpm>
<rpm>0.00</rpm>
</extensions>
</trkpt>
<trkpt lat="64.105621338" lon="-19.833755493">
<ele>170.625000</ele>
<time>2012-07-21T13:24:34Z</time>
<speed>0.240000</speed>
<extensions>
<speed>0.2</speed>
<temp>0.00</temp>
<bpm>0</bpm>
<rpm>0.00</rpm>
</extensions>
</trkpt>
<trkpt lat="64.105613708" lon="-19.833738327">
<ele>169.781250</ele>
<time>2012-07-21T13:24:39Z</time>
<speed>0.060000</speed>
<extensions>
<speed>0.1</speed>
<temp>0.00</temp>
<bpm>0</bpm>
<rpm>0.00</rpm>
</extensions>
</trkpt>
<trkpt lat="64.105613708" lon="-19.833738327">
<ele>169.500000</ele>
<time>2012-07-21T13:24:44Z</time>
<speed>0.020000</speed>
<extensions>
<speed>0.0</speed>
<temp>0.00</temp>
<bpm>0</bpm>
<rpm>0.00</rpm>
</extensions>
</trkpt>
<trkpt lat="64.105613708" lon="-19.833744049">
<ele>169.175781</ele>
<time>2012-07-21T13:24:49Z</time>
<speed>0.120000</speed>
<extensions>
<speed>0.1</speed>
<temp>0.00</temp>
<bpm>0</bpm>
<rpm>0.00</rpm>
</extensions>
</trkpt>
<trkpt lat="64.105606079" lon="-19.833749771">
<ele>168.863281</ele>
<time>2012-07-21T13:24:54Z</time>
<speed>0.040000</speed>
<extensions>
<speed>0.0</speed>
<temp>0.00</temp>
<bpm>0</bpm>
<rpm>0.00</rpm>
</extensions>
</trkpt>
<trkpt lat="64.105606079" lon="-19.833742142">
<ele>168.566406</ele>
<time>2012-07-21T13:24:59Z</time>
<speed>0.180000</speed>
<extensions>
<speed>0.2</speed>
<temp>0.00</temp>
<bpm>0</bpm>
<rpm>0.00</rpm>
</extensions>
</trkpt>
<trkpt lat="64.105606079" lon="-19.833724976">
<ele>168.203125</ele>
<time>2012-07-21T13:25:04Z</time>
<speed>0.180000</speed>
<extensions>
<speed>0.2</speed>
<temp>0.00</temp>
<bpm>0</bpm>
<rpm>0.00</rpm>
</extensions>
</trkpt>
<trkpt lat="64.105606079" lon="-19.833719254">
<ele>167.500000</ele>
<time>2012-07-21T13:25:09Z</time>
<speed>0.160000</speed>
<extensions>
<speed>0.2</speed>
<temp>0.00</temp>
<bpm>0</bpm>
<rpm>0.00</rpm>
</extensions>
</trkpt>
<trkpt lat="64.105606079" lon="-19.833709717">
<ele>167.105469</ele>
<time>2012-07-21T13:25:14Z</time>
<speed>0.080000</speed>
<extensions>
<speed>0.1</speed>
<temp>0.00</temp>
<bpm>0</bpm>
<rpm>0.00</rpm>
</extensions>
</trkpt>
<trkpt lat="64.105606079" lon="-19.833707809">
<ele>166.769531</ele>
<time>2012-07-21T13:25:19Z</time>
<speed>0.060000</speed>
<extensions>
<speed>0.1</speed>
<temp>0.00</temp>
<bpm>0</bpm>
<rpm>0.00</rpm>
</extensions>
</trkpt>
<trkpt lat="64.105598450" lon="-19.833707809">
<ele>166.468750</ele>
<time>2012-07-21T13:25:24Z</time>
<speed>0.100000</speed>
<extensions>
<speed>0.1</speed>
<temp>0.00</temp>
<bpm>0</bpm>
<rpm>0.00</rpm>
</extensions>
</trkpt>
<trkpt lat="64.105598450" lon="-19.833728790">
<ele>166.246094</ele>
<time>2012-07-21T13:25:29Z</time>
<speed>0.340000</speed>
<extensions>
<speed>0.3</speed>
<temp>0.00</temp>
<bpm>0</bpm>
<rpm>0.00</rpm>
</extensions>
</trkpt>
<trkpt lat="64.105644226" lon="-19.833824158">
<ele>167.128906</ele>
<time>2012-07-21T13:25:34Z</time>
<speed>0.440000</speed>
<extensions>
<speed>0.4</speed>
<temp>0.00</temp>
<bpm>0</bpm>
<rpm>0.00</rpm>
</extensions>
</trkpt>
<trkpt lat="64.105613708" lon="-19.833827972">
<ele>164.093750</ele>
<time>2012-07-21T13:25:39Z</time>
<speed>0.130000</speed>
<extensions>
<speed>0.1</speed>
<temp>0.00</temp>
<bpm>0</bpm>
<rpm>0.00</rpm>
</extensions>
</trkpt>
<trkpt lat="64.105590820" lon="-19.833795547">
<ele>162.597656</ele>
<time>2012-07-21T13:25:44Z</time>
<speed>0.090000</speed>
<extensions>
<speed>0.1</speed>
<temp>0.00</temp>
<bpm>0</bpm>
<rpm>0.00</rpm>
</extensions>
</trkpt>
<trkpt lat="64.105583191" lon="-19.833799362">
<ele>162.164063</ele>
<time>2012-07-21T13:25:49Z</time>
<speed>0.190000</speed>
<extensions>
<speed>0.2</speed>
<temp>0.00</temp>
<bpm>0</bpm>
<rpm>0.00</rpm>
</extensions>
</trkpt>
<trkpt lat="64.105575562" lon="-19.833805084">
<ele>161.652344</ele>
<time>2012-07-21T13:25:54Z</time>
<speed>0.250000</speed>
<extensions>
<speed>0.2</speed>
<temp>0.00</temp>
<bpm>0</bpm>
<rpm>0.00</rpm>
</extensions>
</trkpt>
<trkpt lat="64.105560303" lon="-19.833810806">
<ele>161.109375</ele>
<time>2012-07-21T13:25:59Z</time>
<speed>0.230000</speed>
<extensions>
<speed>0.2</speed>
<temp>0.00</temp>
<bpm>0</bpm>
<rpm>0.00</rpm>
</extensions>
</trkpt>
<trkpt lat="64.105552673" lon="-19.833816528">
<ele>160.531250</ele>
<time>2012-07-21T13:26:04Z</time>
<speed>0.270000</speed>
<extensions>
<speed>0.3</speed>
<temp>0.00</temp>
<bpm>0</bpm>
<rpm>0.00</rpm>
</extensions>
</trkpt>
<trkpt lat="64.105522156" lon="-19.833820343">
<ele>160.531250</ele>
<time>2012-07-21T13:26:09Z</time>
<speed>0.390000</speed>
<extensions>
<speed>0.4</speed>
<temp>0.00</temp>
<bpm>0</bpm>
<rpm>0.00</rpm>
</extensions>
</trkpt>
<trkpt lat="64.105499268" lon="-19.833774567">
<ele>159.769531</ele>
<time>2012-07-21T13:26:14Z</time>
<speed>0.390000</speed>
<extensions>
<speed>0.4</speed>
<temp>0.00</temp>
<bpm>0</bpm>
<rpm>0.00</rpm>
</extensions>
</trkpt>
<trkpt lat="64.105491638" lon="-19.833705902">
<ele>159.277344</ele>
<time>2012-07-21T13:26:19Z</time>
<speed>0.470000</speed>
<extensions>
<speed>0.5</speed>
<temp>0.00</temp>
<bpm>0</bpm>
<rpm>0.00</rpm>
</extensions>
</trkpt>
<trkpt lat="64.105491638" lon="-19.833690643">
<ele>159.386719</ele>
<time>2012-07-21T13:26:24Z</time>
<speed>0.390000</speed>
<extensions>
<speed>0.4</speed>
<temp>0.00</temp>
<bpm>0</bpm>
<rpm>0.00</rpm>
</extensions>
</trkpt>
<trkpt lat="64.105499268" lon="-19.833686829">
<ele>159.824219</ele>
<time>2012-07-21T13:26:29Z</time>
<speed>0.270000</speed>
<extensions>
<speed>0.3</speed>
<temp>0.00</temp>
<bpm>0</bpm>
<rpm>0.00</rpm>
</extensions>
</trkpt>
<trkpt lat="64.105491638" lon="-19.833681107">
<ele>159.449219</ele>
<time>2012-07-21T13:26:34Z</time>
<speed>0.040000</speed>
<extensions>
<speed>0.0</speed>
<temp>0.00</temp>
<bpm>0</bpm>
<rpm>0.00</rpm>
</extensions>
</trkpt>
<trkpt lat="64.105499268" lon="-19.833690643">
<ele>159.039063</ele>
<time>2012-07-21T13:26:39Z</time>
<speed>0.320000</speed>
<extensions>
<speed>0.3</speed>
<temp>0.00</temp>
<bpm>0</bpm>
<rpm>0.00</rpm>
</extensions>
</trkpt>
<trkpt lat="64.105674744" lon="-19.833786011">
<ele>158.003906</ele>
<time>2012-07-21T13:26:44Z</time>
<speed>0.220000</speed>
<extensions>
<speed>0.2</speed>
<temp>0.00</temp>
<bpm>0</bpm>
<rpm>0.00</rpm>
</extensions>
</trkpt>
<trkpt lat="64.105682373" lon="-19.833749771">
<ele>156.617188</ele>
<time>2012-07-21T13:26:49Z</time>
<speed>0.090000</speed>
<extensions>
<speed>0.1</speed>
<temp>0.00</temp>
<bpm>0</bpm>
<rpm>0.00</rpm>
</extensions>
</trkpt>
<trkpt lat="64.105682373" lon="-19.833740234">
<ele>155.992188</ele>
<time>2012-07-21T13:26:54Z</time>
<speed>0.550000</speed>
<extensions>
<speed>0.6</speed>
<temp>0.00</temp>
<bpm>0</bpm>
<rpm>0.00</rpm>
</extensions>
</trkpt>
<trkpt lat="64.105613708" lon="-19.833646774">
<ele>154.828125</ele>
<time>2012-07-21T13:26:59Z</time>
<speed>0.840000</speed>
<extensions>
<speed>0.8</speed>
<temp>0.00</temp>
<bpm>0</bpm>
<rpm>0.00</rpm>
</extensions>
</trkpt>
<trkpt lat="64.105613708" lon="-19.833629608">
<ele>155.835938</ele>
<time>2012-07-21T13:27:04Z</time>
<speed>0.040000</speed>
<extensions>
<speed>0.0</speed>
<temp>0.00</temp>
<bpm>0</bpm>
<rpm>0.00</rpm>
</extensions>
</trkpt>
<trkpt lat="64.105613708" lon="-19.833629608">
<ele>156.089844</ele>
<time>2012-07-21T13:27:09Z</time>
<speed>0.040000</speed>
<extensions>
<speed>0.0</speed>
<temp>0.00</temp>
<bpm>0</bpm>
<rpm>0.00</rpm>
</extensions>
</trkpt>
<trkpt lat="64.105613708" lon="-19.833629608">
<ele>156.175781</ele>
<time>2012-07-21T13:27:14Z</time>
<extensions>
<speed>0.0</speed>
<temp>0.00</temp>
<bpm>0</bpm>
<rpm>0.00</rpm>
</extensions>
</trkpt>
<trkpt lat="64.105613708" lon="-19.833629608">
<ele>156.210938</ele>
<time>2012-07-21T13:27:19Z</time>
<speed>0.010000</speed>
<extensions>
<speed>0.0</speed>
<temp>0.00</temp>
<bpm>0</bpm>
<rpm>0.00</rpm>
</extensions>
</trkpt>
<trkpt lat="64.105613708" lon="-19.833629608">
<ele>156.222656</ele>
<time>2012-07-21T13:27:24Z</time>
<extensions>
<speed>0.0</speed>
<temp>0.00</temp>
<bpm>0</bpm>
<rpm>0.00</rpm>
</extensions>
</trkpt>
<trkpt lat="64.105613708" lon="-19.833629608">
<ele>156.234375</ele>
<time>2012-07-21T13:27:29Z</time>
<speed>0.010000</speed>
<extensions>
<speed>0.0</speed>
<temp>0.00</temp>
<bpm>0</bpm>
<rpm>0.00</rpm>
</extensions>
</trkpt>
<trkpt lat="64.105613708" lon="-19.833629608">
<ele>156.191406</ele>
<time>2012-07-21T13:27:34Z</time>
<speed>0.040000</speed>
<extensions>
<speed>0.0</speed>
<temp>0.00</temp>
<bpm>0</bpm>
<rpm>0.00</rpm>
</extensions>
</trkpt>
<trkpt lat="64.105613708" lon="-19.833629608">
<ele>156.175781</ele>
<time>2012-07-21T13:27:39Z</time>
<speed>0.010000</speed>
<extensions>
<speed>0.0</speed>
<temp>0.00</temp>
<bpm>0</bpm>
<rpm>0.00</rpm>
</extensions>
</trkpt>
<trkpt lat="64.105613708" lon="-19.833629608">
<ele>156.195313</ele>
<time>2012-07-21T13:27:44Z</time>
<extensions>
<speed>0.0</speed>
<temp>0.00</temp>
<bpm>0</bpm>
<rpm>0.00</rpm>
</extensions>
</trkpt>
<trkpt lat="64.105613708" lon="-19.833629608">
<ele>156.210938</ele>
<time>2012-07-21T13:27:49Z</time>
<speed>0.010000</speed>
<extensions>
<speed>0.0</speed>
<temp>0.00</temp>
<bpm>0</bpm>
<rpm>0.00</rpm>
</extensions>
</trkpt>
<trkpt lat="64.105613708" lon="-19.833629608">
<ele>156.246094</ele>
<time>2012-07-21T13:27:54Z</time>
<extensions>
<speed>0.0</speed>
<temp>0.00</temp>
<bpm>0</bpm>
<rpm>0.00</rpm>
</extensions>
</trkpt>
<trkpt lat="64.105613708" lon="-19.833627701">
<ele>156.339844</ele>
<time>2012-07-21T13:27:59Z</time>
<speed>0.030000</speed>
<extensions>
<speed>0.0</speed>
<temp>0.00</temp>
<bpm>0</bpm>
<rpm>0.00</rpm>
</extensions>
</trkpt>
<trkpt lat="64.105613708" lon="-19.833629608">
<ele>156.421875</ele>
<time>2012-07-21T13:28:04Z</time>
<speed>0.520000</speed>
<extensions>
<speed>0.5</speed>
<temp>0.00</temp>
<bpm>0</bpm>
<rpm>0.00</rpm>
</extensions>
</trkpt>
<trkpt lat="64.105621338" lon="-19.833753586">
<ele>157.585938</ele>
<time>2012-07-21T13:28:09Z</time>
<speed>1.820000</speed>
<extensions>
<speed>1.8</speed>
<temp>0.00</temp>
<bpm>0</bpm>
<rpm>0.00</rpm>
</extensions>
</trkpt>
<trkpt lat="64.105636597" lon="-19.833927155">
<ele>157.425781</ele>
<time>2012-07-21T13:28:14Z</time>
<speed>2.820000</speed>
<extensions>
<speed>2.8</speed>
<temp>0.00</temp>
<bpm>0</bpm>
<rpm>0.00</rpm>
</extensions>
</trkpt>
<trkpt lat="64.105659485" lon="-19.834249496">
<ele>156.035156</ele>
<time>2012-07-21T13:28:19Z</time>
<speed>2.950000</speed>
<extensions>
<speed>2.9</speed>
<temp>0.00</temp>
<bpm>0</bpm>
<rpm>0.00</rpm>
</extensions>
</trkpt>
<trkpt lat="64.105690002" lon="-19.834545135">
<ele>154.140625</ele>
<time>2012-07-21T13:28:24Z</time>
<speed>3.190000</speed>
<extensions>
<speed>3.2</speed>
<temp>0.00</temp>
<bpm>0</bpm>
<rpm>0.00</rpm>
</extensions>
</trkpt>
<trkpt lat="64.105751038" lon="-19.834806442">
<ele>153.031250</ele>
<time>2012-07-21T13:28:29Z</time>
<speed>3.120000</speed>
<extensions>
<speed>3.1</speed>
<temp>0.00</temp>
<bpm>0</bpm>
<rpm>0.00</rpm>
</extensions>
</trkpt>
<trkpt lat="64.105873108" lon="-19.834953308">
<ele>150.679688</ele>
<time>2012-07-21T13:28:34Z</time>
<speed>3.130000</speed>
<extensions>
<speed>3.1</speed>
<temp>0.00</temp>
<bpm>0</bpm>
<rpm>0.00</rpm>
</extensions>
</trkpt>
<trkpt lat="64.106018066" lon="-19.835012436">
<ele>147.226563</ele>
<time>2012-07-21T13:28:39Z</time>
<speed>3.850000</speed>
<extensions>
<speed>3.8</speed>
<temp>0.00</temp>
<bpm>0</bpm>
<rpm>0.00</rpm>
</extensions>
</trkpt>
<trkpt lat="64.106185913" lon="-19.835069656">
<ele>144.925781</ele>
<time>2012-07-21T13:28:44Z</time>
<speed>4.230000</speed>
<extensions>
<speed>4.2</speed>
<temp>0.00</temp>
<bpm>0</bpm>
<rpm>0.00</rpm>
</extensions>
</trkpt>
<trkpt lat="64.106384277" lon="-19.835140228">
<ele>143.027344</ele>
<time>2012-07-21T13:28:49Z</time>
<speed>4.730000</speed>
<extensions>
<speed>4.7</speed>
<temp>0.00</temp>
<bpm>0</bpm>
<rpm>0.00</rpm>
</extensions>
</trkpt>
<trkpt lat="64.106590271" lon="-19.835227966">
<ele>141.898438</ele>
<time>2012-07-21T13:28:54Z</time>
<speed>4.810000</speed>
<extensions>
<speed>4.8</speed>
<temp>0.00</temp>
<bpm>0</bpm>
<rpm>0.00</rpm>
</extensions>
</trkpt>
<trkpt lat="64.106803894" lon="-19.835332870">
<ele>141.054688</ele>
<time>2012-07-21T13:28:59Z</time>
<speed>4.890000</speed>
<extensions>
<speed>4.9</speed>
<temp>0.00</temp>
<bpm>0</bpm>
<rpm>0.00</rpm>
</extensions>
</trkpt>
<trkpt lat="64.106979370" lon="-19.835371017">
<ele>138.742188</ele>
<time>2012-07-21T13:29:04Z</time>
<speed>1.050000</speed>
<extensions>
<speed>1.0</speed>
<temp>0.00</temp>
<bpm>0</bpm>
<rpm>0.00</rpm>
</extensions>
</trkpt>
<trkpt lat="64.106979370" lon="-19.835369110">
<ele>136.675781</ele>
<time>2012-07-21T13:29:09Z</time>
<speed>0.010000</speed>
<extensions>
<speed>0.0</speed>
<temp>0.00</temp>
<bpm>0</bpm>
<rpm>0.00</rpm>
</extensions>
</trkpt>
<trkpt lat="64.106979370" lon="-19.835369110">
<ele>136.617188</ele>
<time>2012-07-21T13:29:14Z</time>
<speed>0.010000</speed>
<extensions>
<speed>0.0</speed>
<temp>0.00</temp>
<bpm>0</bpm>
<rpm>0.00</rpm>
</extensions>
</trkpt>
<trkpt lat="64.106979370" lon="-19.835369110">
<ele>136.617188</ele>
<time>2012-07-21T13:29:19Z</time>
<speed>0.010000</speed>
<extensions>
<speed>0.0</speed>
<temp>0.00</temp>
<bpm>0</bpm>
<rpm>0.00</rpm>
</extensions>
</trkpt>
<trkpt lat="64.106987000" lon="-19.835367203">
<ele>136.632813</ele>
<time>2012-07-21T13:29:24Z</time>
<extensions>
<speed>0.0</speed>
<temp>0.00</temp>
<bpm>0</bpm>
<rpm>0.00</rpm>
</extensions>
</trkpt>
<trkpt lat="64.106979370" lon="-19.835367203">
<ele>136.597656</ele>
<time>2012-07-21T13:29:29Z</time>
<extensions>
<speed>0.0</speed>
<temp>0.00</temp>
<bpm>0</bpm>
<rpm>0.00</rpm>
</extensions>
</trkpt>
<trkpt lat="64.107017517" lon="-19.835369110">
<ele>135.875000</ele>
<time>2012-07-21T13:29:34Z</time>
<speed>2.250000</speed>
<extensions>
<speed>2.3</speed>
<temp>0.00</temp>
<bpm>0</bpm>
<rpm>0.00</rpm>
</extensions>
</trkpt>
<trkpt lat="64.107154846" lon="-19.835432053">
<ele>134.972656</ele>
<time>2012-07-21T13:29:39Z</time>
<speed>3.680000</speed>
<extensions>
<speed>3.7</speed>
<temp>0.00</temp>
<bpm>0</bpm>
<rpm>0.00</rpm>
</extensions>
</trkpt>
<trkpt lat="64.107330322" lon="-19.835494995">
<ele>134.531250</ele>
<time>2012-07-21T13:29:44Z</time>
<speed>4.490000</speed>
<extensions>
<speed>4.5</speed>
<temp>0.00</temp>
<bpm>0</bpm>
<rpm>0.00</rpm>
</extensions>
</trkpt>
<trkpt lat="64.107543945" lon="-19.835540771">
<ele>134.039063</ele>
<time>2012-07-21T13:29:49Z</time>
<speed>4.910000</speed>
<extensions>
<speed>4.9</speed>
<temp>0.00</temp>
<bpm>0</bpm>
<rpm>0.00</rpm>
</extensions>
</trkpt>
<trkpt lat="64.107772827" lon="-19.835580826">
<ele>133.621094</ele>
<time>2012-07-21T13:29:54Z</time>
<speed>5.320000</speed>
<extensions>
<speed>5.3</speed>
<temp>0.00</temp>
<bpm>0</bpm>
<rpm>0.00</rpm>
</extensions>
</trkpt>
<trkpt lat="64.108001709" lon="-19.835639954">
<ele>133.222656</ele>
<time>2012-07-21T13:29:59Z</time>
<speed>5.170000</speed>
<extensions>
<speed>5.2</speed>
<temp>0.00</temp>
<bpm>0</bpm>
<rpm>0.00</rpm>
</extensions>
</trkpt>
<trkpt lat="64.108238220" lon="-19.835681915">
<ele>132.851563</ele>
<time>2012-07-21T13:30:04Z</time>
<speed>5.430000</speed>
<extensions>
<speed>5.4</speed>
<temp>0.00</temp>
<bpm>0</bpm>
<rpm>0.00</rpm>
</extensions>
</trkpt>
<trkpt lat="64.108482361" lon="-19.835725784">
<ele>132.046875</ele>
<time>2012-07-21T13:30:09Z</time>
<speed>5.470000</speed>
<extensions>
<speed>5.5</speed>
<temp>0.00</temp>
<bpm>0</bpm>
<rpm>0.00</rpm>
</extensions>
</trkpt>
<trkpt lat="64.108718872" lon="-19.835760117">
<ele>131.542969</ele>
<time>2012-07-21T13:30:14Z</time>
<speed>5.410000</speed>
<extensions>
<speed>5.4</speed>
<temp>0.00</temp>
<bpm>0</bpm>
<rpm>0.00</rpm>
</extensions>
</trkpt>
<trkpt lat="64.108963013" lon="-19.835781097">
<ele>131.019531</ele>
<time>2012-07-21T13:30:19Z</time>
<speed>5.420000</speed>
<extensions>
<speed>5.4</speed>
<temp>0.00</temp>
<bpm>0</bpm>
<rpm>0.00</rpm>
</extensions>
</trkpt>
<trkpt lat="64.109184265" lon="-19.835798264">
<ele>130.882813</ele>
<time>2012-07-21T13:30:24Z</time>
<speed>4.700000</speed>
<extensions>
<speed>4.7</speed>
<temp>0.00</temp>
<bpm>0</bpm>
<rpm>0.00</rpm>
</extensions>
</trkpt>
<trkpt lat="64.109405518" lon="-19.835781097">
<ele>130.878906</ele>
<time>2012-07-21T13:30:29Z</time>
<speed>4.920000</speed>
<extensions>
<speed>4.9</speed>
<temp>0.00</temp>
<bpm>0</bpm>
<rpm>0.00</rpm>
</extensions>
</trkpt>
<trkpt lat="64.109603882" lon="-19.835729599">
<ele>130.527344</ele>
<time>2012-07-21T13:30:34Z</time>
<speed>4.610000</speed>
<extensions>
<speed>4.6</speed>
<temp>0.00</temp>
<bpm>0</bpm>
<rpm>0.00</rpm>
</extensions>
</trkpt>
<trkpt lat="64.109825134" lon="-19.835664749">
<ele>130.027344</ele>
<time>2012-07-21T13:30:39Z</time>
<speed>4.690000</speed>
<extensions>
<speed>4.7</speed>
<temp>0.00</temp>
<bpm>0</bpm>
<rpm>0.00</rpm>
</extensions>
</trkpt>
<trkpt lat="64.110015869" lon="-19.835592270">
<ele>129.796875</ele>
<time>2012-07-21T13:30:44Z</time>
<speed>4.350000</speed>
<extensions>
<speed>4.3</speed>
<temp>0.00</temp>
<bpm>0</bpm>
<rpm>0.00</rpm>
</extensions>
</trkpt>
<trkpt lat="64.110206604" lon="-19.835531235">
<ele>129.730469</ele>
<time>2012-07-21T13:30:49Z</time>
<speed>3.770000</speed>
<extensions>
<speed>3.8</speed>
<temp>0.00</temp>
<bpm>0</bpm>
<rpm>0.00</rpm>
</extensions>
</trkpt>
<trkpt lat="64.110382080" lon="-19.835443497">
<ele>129.574219</ele>
<time>2012-07-21T13:30:54Z</time>
<speed>3.850000</speed>
<extensions>
<speed>3.8</speed>
<temp>0.00</temp>
<bpm>0</bpm>
<rpm>0.00</rpm>
</extensions>
</trkpt>
<trkpt lat="64.110549927" lon="-19.835359573">
<ele>129.417969</ele>
<time>2012-07-21T13:30:59Z</time>
<speed>4.010000</speed>
<extensions>
<speed>4.0</speed>
<temp>0.00</temp>
<bpm>0</bpm>
<rpm>0.00</rpm>
</extensions>
</trkpt>
<trkpt lat="64.110725403" lon="-19.835212708">
<ele>129.238281</ele>
<time>2012-07-21T13:31:04Z</time>
<speed>4.280000</speed>
<extensions>
<speed>4.3</speed>
<temp>0.00</temp>
<bpm>0</bpm>
<rpm>0.00</rpm>
</extensions>
</trkpt>
<trkpt lat="64.110877991" lon="-19.834991455">
<ele>129.207031</ele>
<time>2012-07-21T13:31:09Z</time>
<speed>4.190000</speed>
<extensions>
<speed>4.2</speed>
<temp>0.00</temp>
<bpm>0</bpm>
<rpm>0.00</rpm>
</extensions>
</trkpt>
<trkpt lat="64.111030579" lon="-19.834733963">
<ele>129.972656</ele>
<time>2012-07-21T13:31:14Z</time>
<speed>4.180000</speed>
<extensions>
<speed>4.2</speed>
<temp>0.00</temp>
<bpm>0</bpm>
<rpm>0.00</rpm>
</extensions>
</trkpt>
<trkpt lat="64.111152649" lon="-19.834463120">
<ele>130.023438</ele>
<time>2012-07-21T13:31:19Z</time>
<speed>3.620000</speed>
<extensions>
<speed>3.6</speed>
<temp>0.00</temp>
<bpm>0</bpm>
<rpm>0.00</rpm>
</extensions>
</trkpt>
<trkpt lat="64.111259460" lon="-19.834224701">
<ele>129.875000</ele>
<time>2012-07-21T13:31:24Z</time>
<speed>3.470000</speed>
<extensions>
<speed>3.5</speed>
<temp>0.00</temp>
<bpm>0</bpm>
<rpm>0.00</rpm>
</extensions>
</trkpt>
<trkpt lat="64.111373901" lon="-19.834026337">
<ele>130.269531</ele>
<time>2012-07-21T13:31:29Z</time>
<speed>2.890000</speed>
<extensions>
<speed>2.9</speed>
<temp>0.00</temp>
<bpm>0</bpm>
<rpm>0.00</rpm>
</extensions>
</trkpt>
<trkpt lat="64.111457825" lon="-19.833824158">
<ele>130.062500</ele>
<time>2012-07-21T13:31:34Z</time>
<speed>2.960000</speed>
<extensions>
<speed>3.0</speed>
<temp>0.00</temp>
<bpm>0</bpm>
<rpm>0.00</rpm>
</extensions>
</trkpt>
<trkpt lat="64.111557007" lon="-19.833616257">
<ele>129.738281</ele>
<time>2012-07-21T13:31:39Z</time>
<speed>2.870000</speed>
<extensions>
<speed>2.9</speed>
<temp>0.00</temp>
<bpm>0</bpm>
<rpm>0.00</rpm>
</extensions>
</trkpt>
<trkpt lat="64.111656189" lon="-19.833400726">
<ele>129.382813</ele>
<time>2012-07-21T13:31:44Z</time>
<speed>3.000000</speed>
<extensions>
<speed>3.0</speed>
<temp>0.00</temp>
<bpm>0</bpm>
<rpm>0.00</rpm>
</extensions>
</trkpt>
<trkpt lat="64.111755371" lon="-19.833213806">
<ele>128.285156</ele>
<time>2012-07-21T13:31:49Z</time>
<speed>2.880000</speed>
<extensions>
<speed>2.9</speed>
<temp>0.00</temp>
<bpm>0</bpm>
<rpm>0.00</rpm>
</extensions>
</trkpt>
<trkpt lat="64.111862183" lon="-19.833030701">
<ele>128.304688</ele>
<time>2012-07-21T13:31:54Z</time>
<speed>2.900000</speed>
<extensions>
<speed>2.9</speed>
<temp>0.00</temp>
<bpm>0</bpm>
<rpm>0.00</rpm>
</extensions>
</trkpt>
<trkpt lat="64.111984253" lon="-19.832851410">
<ele>127.855469</ele>
<time>2012-07-21T13:31:59Z</time>
<speed>3.440000</speed>
<extensions>
<speed>3.4</speed>
<temp>0.00</temp>
<bpm>0</bpm>
<rpm>0.00</rpm>
</extensions>
</trkpt>
<trkpt lat="64.112136841" lon="-19.832626343">
<ele>127.619141</ele>
<time>2012-07-21T13:32:04Z</time>
<speed>3.870000</speed>
<extensions>
<speed>3.9</speed>
<temp>0.00</temp>
<bpm>0</bpm>
<rpm>0.00</rpm>
</extensions>
</trkpt>
<trkpt lat="64.112289429" lon="-19.832452774">
<ele>127.701172</ele>
<time>2012-07-21T13:32:09Z</time>
<speed>3.670000</speed>
<extensions>
<speed>3.7</speed>
<temp>0.00</temp>
<bpm>0</bpm>
<rpm>0.00</rpm>
</extensions>
</trkpt>
<trkpt lat="64.112434387" lon="-19.832302094">
<ele>128.257813</ele>
<time>2012-07-21T13:32:14Z</time>
<speed>3.220000</speed>
<extensions>
<speed>3.2</speed>
<temp>0.00</temp>
<bpm>0</bpm>
<rpm>0.00</rpm>
</extensions>
</trkpt>
<trkpt lat="64.112556458" lon="-19.832178116">
<ele>128.152344</ele>
<time>2012-07-21T13:32:19Z</time>
<speed>2.840000</speed>
<extensions>
<speed>2.8</speed>
<temp>0.00</temp>
<bpm>0</bpm>
<rpm>0.00</rpm>
</extensions>
</trkpt>
<trkpt lat="64.112670898" lon="-19.832092285">
<ele>128.609375</ele>
<time>2012-07-21T13:32:24Z</time>
<speed>2.570000</speed>
<extensions>
<speed>2.6</speed>
<temp>0.00</temp>
<bpm>0</bpm>
<rpm>0.00</rpm>
</extensions>
</trkpt>
<trkpt lat="64.112754822" lon="-19.831996918">
<ele>128.320313</ele>
<time>2012-07-21T13:32:29Z</time>
<speed>2.190000</speed>
<extensions>
<speed>2.2</speed>
<temp>0.00</temp>
<bpm>0</bpm>
<rpm>0.00</rpm>
</extensions>
</trkpt>
<trkpt lat="64.112846375" lon="-19.831914902">
<ele>128.687500</ele>
<time>2012-07-21T13:32:34Z</time>
<speed>2.490000</speed>
<extensions>
<speed>2.5</speed>
<temp>0.00</temp>
<bpm>0</bpm>
<rpm>0.00</rpm>
</extensions>
</trkpt>
<trkpt lat="64.112953186" lon="-19.831813812">
<ele>129.406250</ele>
<time>2012-07-21T13:32:39Z</time>
<speed>2.520000</speed>
<extensions>
<speed>2.5</speed>
<temp>0.00</temp>
<bpm>0</bpm>
<rpm>0.00</rpm>
</extensions>
</trkpt>
<trkpt lat="64.113044739" lon="-19.831722260">
<ele>130.277344</ele>
<time>2012-07-21T13:32:44Z</time>
<speed>2.410000</speed>
<extensions>
<speed>2.4</speed>
<temp>0.00</temp>
<bpm>0</bpm>
<rpm>0.00</rpm>
</extensions>
</trkpt>
<trkpt lat="64.113136292" lon="-19.831655502">
<ele>130.929688</ele>
<time>2012-07-21T13:32:49Z</time>
<speed>2.240000</speed>
<extensions>
<speed>2.2</speed>
<temp>0.00</temp>
<bpm>0</bpm>
<rpm>0.00</rpm>
</extensions>
</trkpt>
<trkpt lat="64.113220215" lon="-19.831577301">
<ele>131.417969</ele>
<time>2012-07-21T13:32:54Z</time>
<speed>1.800000</speed>
<extensions>
<speed>1.8</speed>
<temp>0.00</temp>
<bpm>0</bpm>
<rpm>0.00</rpm>
</extensions>
</trkpt>
<trkpt lat="64.113304138" lon="-19.831527710">
<ele>131.812500</ele>
<time>2012-07-21T13:32:59Z</time>
<speed>2.020000</speed>
<extensions>
<speed>2.0</speed>
<temp>0.00</temp>
<bpm>0</bpm>
<rpm>0.00</rpm>
</extensions>
</trkpt>
<trkpt lat="64.113380432" lon="-19.831468582">
<ele>132.281250</ele>
<time>2012-07-21T13:33:04Z</time>
<speed>1.230000</speed>
<extensions>
<speed>1.2</speed>
<temp>0.00</temp>
<bpm>0</bpm>
<rpm>0.00</rpm>
</extensions>
</trkpt>
<trkpt lat="64.113471985" lon="-19.831386566">
<ele>133.097656</ele>
<time>2012-07-21T13:33:09Z</time>
<speed>2.160000</speed>
<extensions>
<speed>2.2</speed>
<temp>0.00</temp>
<bpm>0</bpm>
<rpm>0.00</rpm>
</extensions>
</trkpt>
<trkpt lat="64.113563538" lon="-19.831298828">
<ele>133.800781</ele>
<time>2012-07-21T13:33:14Z</time>
<speed>2.320000</speed>
<extensions>
<speed>2.3</speed>
<temp>0.00</temp>
<bpm>0</bpm>
<rpm>0.00</rpm>
</extensions>
</trkpt>
<trkpt lat="64.113662720" lon="-19.831197739">
<ele>134.457031</ele>
<time>2012-07-21T13:33:19Z</time>
<speed>2.490000</speed>
<extensions>
<speed>2.5</speed>
<temp>0.00</temp>
<bpm>0</bpm>
<rpm>0.00</rpm>
</extensions>
</trkpt>
<trkpt lat="64.113754272" lon="-19.831110001">
<ele>134.714844</ele>
<time>2012-07-21T13:33:24Z</time>
<speed>2.120000</speed>
<extensions>
<speed>2.1</speed>
<temp>0.00</temp>
<bpm>0</bpm>
<rpm>0.00</rpm>
</extensions>
</trkpt>
<trkpt lat="64.113830566" lon="-19.831033707">
<ele>135.128906</ele>
<time>2012-07-21T13:33:29Z</time>
<speed>2.080000</speed>
<extensions>
<speed>2.1</speed>
<temp>0.00</temp>
<bpm>0</bpm>
<rpm>0.00</rpm>
</extensions>
</trkpt>
<trkpt lat="64.113929749" lon="-19.830957413">
<ele>135.777344</ele>
<time>2012-07-21T13:33:34Z</time>
<speed>2.310000</speed>
<extensions>
<speed>2.3</speed>
<temp>0.00</temp>
<bpm>0</bpm>
<rpm>0.00</rpm>
</extensions>
</trkpt>
<trkpt lat="64.114021301" lon="-19.830873489">
<ele>135.191406</ele>
<time>2012-07-21T13:33:39Z</time>
<speed>1.660000</speed>
<extensions>
<speed>1.7</speed>
<temp>0.00</temp>
<bpm>0</bpm>
<rpm>0.00</rpm>
</extensions>
</trkpt>
<trkpt lat="64.114120483" lon="-19.830797195">
<ele>135.816406</ele>
<time>2012-07-21T13:33:44Z</time>
<speed>2.460000</speed>
<extensions>
<speed>2.5</speed>
<temp>0.00</temp>
<bpm>0</bpm>
<rpm>0.00</rpm>
</extensions>
</trkpt>
<trkpt lat="64.114219666" lon="-19.830696106">
<ele>133.804688</ele>
<time>2012-07-21T13:33:49Z</time>
<speed>2.250000</speed>
<extensions>
<speed>2.3</speed>
<temp>0.00</temp>
<bpm>0</bpm>
<rpm>0.00</rpm>
</extensions>
</trkpt>
<trkpt lat="64.114311218" lon="-19.830596924">
<ele>131.472656</ele>
<time>2012-07-21T13:33:54Z</time>
<speed>2.600000</speed>
<extensions>
<speed>2.6</speed>
<temp>0.00</temp>
<bpm>0</bpm>
<rpm>0.00</rpm>
</extensions>
</trkpt>
<trkpt lat="64.114425659" lon="-19.830503464">
<ele>130.261719</ele>
<time>2012-07-21T13:33:59Z</time>
<speed>2.800000</speed>
<extensions>
<speed>2.8</speed>
<temp>0.00</temp>
<bpm>0</bpm>
<rpm>0.00</rpm>
</extensions>
</trkpt>
<trkpt lat="64.114540100" lon="-19.830446243">
<ele>131.437500</ele>
<time>2012-07-21T13:34:04Z</time>
<speed>2.400000</speed>
<extensions>
<speed>2.4</speed>
<temp>0.00</temp>
<bpm>0</bpm>
<rpm>0.00</rpm>
</extensions>
</trkpt>
<trkpt lat="64.114654541" lon="-19.830337524">
<ele>131.859375</ele>
<time>2012-07-21T13:34:09Z</time>
<speed>2.840000</speed>
<extensions>
<speed>2.8</speed>
<temp>0.00</temp>
<bpm>0</bpm>
<rpm>0.00</rpm>
</extensions>
</trkpt>
<trkpt lat="64.114768982" lon="-19.830255508">
<ele>132.070313</ele>
<time>2012-07-21T13:34:14Z</time>
<speed>2.680000</speed>
<extensions>
<speed>2.7</speed>
<temp>0.00</temp>
<bpm>0</bpm>
<rpm>0.00</rpm>
</extensions>
</trkpt>
<trkpt lat="64.114868164" lon="-19.830186844">
<ele>133.457031</ele>
<time>2012-07-21T13:34:19Z</time>
<speed>2.180000</speed>
<extensions>
<speed>2.2</speed>
<temp>0.00</temp>
<bpm>0</bpm>
<rpm>0.00</rpm>
</extensions>
</trkpt>
<trkpt lat="64.114936829" lon="-19.830148697">
<ele>134.484375</ele>
<time>2012-07-21T13:34:24Z</time>
<speed>1.520000</speed>
<extensions>
<speed>1.5</speed>
<temp>0.00</temp>
<bpm>0</bpm>
<rpm>0.00</rpm>
</extensions>
</trkpt>
<trkpt lat="64.115020752" lon="-19.830045700">
<ele>134.847656</ele>
<time>2012-07-21T13:34:29Z</time>
<speed>2.400000</speed>
<extensions>
<speed>2.4</speed>
<temp>0.00</temp>
<bpm>0</bpm>
<rpm>0.00</rpm>
</extensions>
</trkpt>
<trkpt lat="64.115112305" lon="-19.829973221">
<ele>135.093750</ele>
<time>2012-07-21T13:34:34Z</time>
<speed>1.930000</speed>
<extensions>
<speed>1.9</speed>
<temp>0.00</temp>
<bpm>0</bpm>
<rpm>0.00</rpm>
</extensions>
</trkpt>
<trkpt lat="64.115173340" lon="-19.829912186">
<ele>135.601563</ele>
<time>2012-07-21T13:34:39Z</time>
<speed>1.100000</speed>
<extensions>
<speed>1.1</speed>
<temp>0.00</temp>
<bpm>0</bpm>
<rpm>0.00</rpm>
</extensions>
</trkpt>
<trkpt lat="64.115249634" lon="-19.829830170">
<ele>135.792969</ele>
<time>2012-07-21T13:34:44Z</time>
<speed>2.250000</speed>
<extensions>
<speed>2.3</speed>
<temp>0.00</temp>
<bpm>0</bpm>
<rpm>0.00</rpm>
</extensions>
</trkpt>
<trkpt lat="64.115341187" lon="-19.829748154">
<ele>136.300781</ele>
<time>2012-07-21T13:34:49Z</time>
<speed>1.950000</speed>
<extensions>
<speed>1.9</speed>
<temp>0.00</temp>
<bpm>0</bpm>
<rpm>0.00</rpm>
</extensions>
</trkpt>
<trkpt lat="64.115432739" lon="-19.829700470">
<ele>137.433594</ele>
<time>2012-07-21T13:34:54Z</time>
<speed>1.980000</speed>
<extensions>
<speed>2.0</speed>
<temp>0.00</temp>
<bpm>0</bpm>
<rpm>0.00</rpm>
</extensions>
</trkpt>
<trkpt lat="64.115509033" lon="-19.829620361">
<ele>137.773438</ele>
<time>2012-07-21T13:34:59Z</time>
<speed>1.840000</speed>
<extensions>
<speed>1.8</speed>
<temp>0.00</temp>
<bpm>0</bpm>
<rpm>0.00</rpm>
</extensions>
</trkpt>
<trkpt lat="64.115585327" lon="-19.829540253">
<ele>138.695313</ele>
<time>2012-07-21T13:35:04Z</time>
<speed>1.840000</speed>
<extensions>
<speed>1.8</speed>
<temp>0.00</temp>
<bpm>0</bpm>
<rpm>0.00</rpm>
</extensions>
</trkpt>
<trkpt lat="64.115669250" lon="-19.829465866">
<ele>139.878906</ele>
<time>2012-07-21T13:35:09Z</time>
<speed>1.960000</speed>
<extensions>
<speed>2.0</speed>
<temp>0.00</temp>
<bpm>0</bpm>
<rpm>0.00</rpm>
</extensions>
</trkpt>
<trkpt lat="64.115745544" lon="-19.829376221">
<ele>140.492188</ele>
<time>2012-07-21T13:35:14Z</time>
<speed>1.490000</speed>
<extensions>
<speed>1.5</speed>
<temp>0.00</temp>
<bpm>0</bpm>
<rpm>0.00</rpm>
</extensions>
</trkpt>
<trkpt lat="64.115798950" lon="-19.829332352">
<ele>140.562500</ele>
<time>2012-07-21T13:35:19Z</time>
<speed>1.970000</speed>
<extensions>
<speed>2.0</speed>
<temp>0.00</temp>
<bpm>0</bpm>
<rpm>0.00</rpm>
</extensions>
</trkpt>
<trkpt lat="64.115882874" lon="-19.829267502">
<ele>141.261719</ele>
<time>2012-07-21T13:35:24Z</time>
<speed>1.900000</speed>
<extensions>
<speed>1.9</speed>
<temp>0.00</temp>
<bpm>0</bpm>
<rpm>0.00</rpm>
</extensions>
</trkpt>
<trkpt lat="64.115959167" lon="-19.829227448">
<ele>141.820313</ele>
<time>2012-07-21T13:35:29Z</time>
<speed>1.800000</speed>
<extensions>
<speed>1.8</speed>
<temp>0.00</temp>
<bpm>0</bpm>
<rpm>0.00</rpm>
</extensions>
</trkpt>
<trkpt lat="64.116035461" lon="-19.829147339">
<ele>142.734375</ele>
<time>2012-07-21T13:35:34Z</time>
<speed>2.050000</speed>
<extensions>
<speed>2.1</speed>
<temp>0.00</temp>
<bpm>0</bpm>
<rpm>0.00</rpm>
</extensions>
</trkpt>
<trkpt lat="64.116119385" lon="-19.829071045">
<ele>143.242188</ele>
<time>2012-07-21T13:35:39Z</time>
<speed>1.930000</speed>
<extensions>
<speed>1.9</speed>
<temp>0.00</temp>
<bpm>0</bpm>
<rpm>0.00</rpm>
</extensions>
</trkpt>
<trkpt lat="64.116203308" lon="-19.829019547">
<ele>143.546875</ele>
<time>2012-07-21T13:35:44Z</time>
<speed>2.030000</speed>
<extensions>
<speed>2.0</speed>
<temp>0.00</temp>
<bpm>0</bpm>
<rpm>0.00</rpm>
</extensions>
</trkpt>
<trkpt lat="64.116287231" lon="-19.828960419">
<ele>144.121094</ele>
<time>2012-07-21T13:35:49Z</time>
<speed>2.080000</speed>
<extensions>
<speed>2.1</speed>
<temp>0.00</temp>
<bpm>0</bpm>
<rpm>0.00</rpm>
</extensions>
</trkpt>
<trkpt lat="64.116386414" lon="-19.828927994">
<ele>144.843750</ele>
<time>2012-07-21T13:35:54Z</time>
<speed>2.190000</speed>
<extensions>
<speed>2.2</speed>
<temp>0.00</temp>
<bpm>0</bpm>
<rpm>0.00</rpm>
</extensions>
</trkpt>
<trkpt lat="64.116477966" lon="-19.828901291">
<ele>145.382813</ele>
<time>2012-07-21T13:35:59Z</time>
<speed>2.220000</speed>
<extensions>
<speed>2.2</speed>
<temp>0.00</temp>
<bpm>0</bpm>
<rpm>0.00</rpm>
</extensions>
</trkpt>
<trkpt lat="64.116569519" lon="-19.828878403">
<ele>145.906250</ele>
<time>2012-07-21T13:36:04Z</time>
<speed>2.400000</speed>
<extensions>
<speed>2.4</speed>
<temp>0.00</temp>
<bpm>0</bpm>
<rpm>0.00</rpm>
</extensions>
</trkpt>
<trkpt lat="64.116676331" lon="-19.828847885">
<ele>146.738281</ele>
<time>2012-07-21T13:36:09Z</time>
<speed>2.010000</speed>
<extensions>
<speed>2.0</speed>
<temp>0.00</temp>
<bpm>0</bpm>
<rpm>0.00</rpm>
</extensions>
</trkpt>
<trkpt lat="64.116775513" lon="-19.828845978">
<ele>147.296875</ele>
<time>2012-07-21T13:36:14Z</time>
<speed>2.330000</speed>
<extensions>
<speed>2.3</speed>
<temp>0.00</temp>
<bpm>0</bpm>
<rpm>0.00</rpm>
</extensions>
</trkpt>
<trkpt lat="64.116867065" lon="-19.828855515">
<ele>148.093750</ele>
<time>2012-07-21T13:36:19Z</time>
<speed>1.650000</speed>
<extensions>
<speed>1.7</speed>
<temp>0.00</temp>
<bpm>0</bpm>
<rpm>0.00</rpm>
</extensions>
</trkpt>
<trkpt lat="64.116958618" lon="-19.828870773">
<ele>148.765625</ele>
<time>2012-07-21T13:36:24Z</time>
<speed>2.280000</speed>
<extensions>
<speed>2.3</speed>
<temp>0.00</temp>
<bpm>0</bpm>
<rpm>0.00</rpm>
</extensions>
</trkpt>
<trkpt lat="64.117057800" lon="-19.828912735">
<ele>149.574219</ele>
<time>2012-07-21T13:36:29Z</time>
<speed>2.370000</speed>
<extensions>
<speed>2.4</speed>
<temp>0.00</temp>
<bpm>0</bpm>
<rpm>0.00</rpm>
</extensions>
</trkpt>
<trkpt lat="64.117164612" lon="-19.828929901">
<ele>150.476563</ele>
<time>2012-07-21T13:36:34Z</time>
<speed>2.180000</speed>
<extensions>
<speed>2.2</speed>
<temp>0.00</temp>
<bpm>0</bpm>
<rpm>0.00</rpm>
</extensions>
</trkpt>
<trkpt lat="64.117263794" lon="-19.828987122">
<ele>151.000000</ele>
<time>2012-07-21T13:36:39Z</time>
<speed>2.230000</speed>
<extensions>
<speed>2.2</speed>
<temp>0.00</temp>
<bpm>0</bpm>
<rpm>0.00</rpm>
</extensions>
</trkpt>
<trkpt lat="64.117362976" lon="-19.829057693">
<ele>151.589844</ele>
<time>2012-07-21T13:36:44Z</time>
<speed>2.250000</speed>
<extensions>
<speed>2.3</speed>
<temp>0.00</temp>
<bpm>0</bpm>
<rpm>0.00</rpm>
</extensions>
</trkpt>
<trkpt lat="64.117462158" lon="-19.829124451">
<ele>152.410156</ele>
<time>2012-07-21T13:36:49Z</time>
<speed>2.150000</speed>
<extensions>
<speed>2.1</speed>
<temp>0.00</temp>
<bpm>0</bpm>
<rpm>0.00</rpm>
</extensions>
</trkpt>
<trkpt lat="64.117530823" lon="-19.829154968">
<ele>153.078125</ele>
<time>2012-07-21T13:36:54Z</time>
<speed>1.510000</speed>
<extensions>
<speed>1.5</speed>
<temp>0.00</temp>
<bpm>0</bpm>
<rpm>0.00</rpm>
</extensions>
</trkpt>
<trkpt lat="64.117607117" lon="-19.829227448">
<ele>153.695313</ele>
<time>2012-07-21T13:36:59Z</time>
<speed>2.010000</speed>
<extensions>
<speed>2.0</speed>
<temp>0.00</temp>
<bpm>0</bpm>
<rpm>0.00</rpm>
</extensions>
</trkpt>
<trkpt lat="64.117691040" lon="-19.829319000">
<ele>154.644531</ele>
<time>2012-07-21T13:37:04Z</time>
<speed>2.340000</speed>
<extensions>
<speed>2.3</speed>
<temp>0.00</temp>
<bpm>0</bpm>
<rpm>0.00</rpm>
</extensions>
</trkpt>
<trkpt lat="64.117790222" lon="-19.829404831">
<ele>155.160156</ele>
<time>2012-07-21T13:37:09Z</time>
<speed>2.910000</speed>
<extensions>
<speed>2.9</speed>
<temp>0.00</temp>
<bpm>0</bpm>
<rpm>0.00</rpm>
</extensions>
</trkpt>
<trkpt lat="64.117904663" lon="-19.829538345">
<ele>155.492188</ele>
<time>2012-07-21T13:37:14Z</time>
<speed>2.740000</speed>
<extensions>
<speed>2.7</speed>
<temp>0.00</temp>
<bpm>0</bpm>
<rpm>0.00</rpm>
</extensions>
</trkpt>
<trkpt lat="64.118026733" lon="-19.829725266">
<ele>155.617188</ele>
<time>2012-07-21T13:37:19Z</time>
<speed>3.460000</speed>
<extensions>
<speed>3.5</speed>
<temp>0.00</temp>
<bpm>0</bpm>
<rpm>0.00</rpm>
</extensions>
</trkpt>
<trkpt lat="64.118171692" lon="-19.829944611">
<ele>155.746094</ele>
<time>2012-07-21T13:37:24Z</time>
<speed>4.350000</speed>
<extensions>
<speed>4.3</speed>
<temp>0.00</temp>
<bpm>0</bpm>
<rpm>0.00</rpm>
</extensions>
</trkpt>
<trkpt lat="64.118331909" lon="-19.830234528">
<ele>155.925781</ele>
<time>2012-07-21T13:37:29Z</time>
<speed>4.680000</speed>
<extensions>
<speed>4.7</speed>
<temp>0.00</temp>
<bpm>0</bpm>
<rpm>0.00</rpm>
</extensions>
</trkpt>
<trkpt lat="64.118476868" lon="-19.830554962">
<ele>155.964844</ele>
<time>2012-07-21T13:37:34Z</time>
<speed>4.420000</speed>
<extensions>
<speed>4.4</speed>
<temp>0.00</temp>
<bpm>0</bpm>
<rpm>0.00</rpm>
</extensions>
</trkpt>
<trkpt lat="64.118629456" lon="-19.830854416">
<ele>157.566406</ele>
<time>2012-07-21T13:37:39Z</time>
<speed>4.460000</speed>
<extensions>
<speed>4.5</speed>
<temp>0.00</temp>
<bpm>0</bpm>
<rpm>0.00</rpm>
</extensions>
</trkpt>
<trkpt lat="64.118797302" lon="-19.831123352">
<ele>157.656250</ele>
<time>2012-07-21T13:37:44Z</time>
<speed>4.440000</speed>
<extensions>
<speed>4.4</speed>
<temp>0.00</temp>
<bpm>0</bpm>
<rpm>0.00</rpm>
</extensions>
</trkpt>
<trkpt lat="64.118957520" lon="-19.831344604">
<ele>157.679688</ele>
<time>2012-07-21T13:37:49Z</time>
<speed>3.480000</speed>
<extensions>
<speed>3.5</speed>
<temp>0.00</temp>
<bpm>0</bpm>
<rpm>0.00</rpm>
</extensions>
</trkpt>
<trkpt lat="64.119087219" lon="-19.831371307">
<ele>158.300781</ele>
<time>2012-07-21T13:37:54Z</time>
<speed>2.490000</speed>
<extensions>
<speed>2.5</speed>
<temp>0.00</temp>
<bpm>0</bpm>
<rpm>0.00</rpm>
</extensions>
</trkpt>
<trkpt lat="64.119163513" lon="-19.831207275">
<ele>158.601563</ele>
<time>2012-07-21T13:37:59Z</time>
<speed>2.470000</speed>
<extensions>
<speed>2.5</speed>
<temp>0.00</temp>
<bpm>0</bpm>
<rpm>0.00</rpm>
</extensions>
</trkpt>
<trkpt lat="64.119178772" lon="-19.830902100">
<ele>157.683594</ele>
<time>2012-07-21T13:38:04Z</time>
<speed>2.920000</speed>
<extensions>
<speed>2.9</speed>
<temp>0.00</temp>
<bpm>0</bpm>
<rpm>0.00</rpm>
</extensions>
</trkpt>
<trkpt lat="64.119194031" lon="-19.830595016">
<ele>158.558594</ele>
<time>2012-07-21T13:38:09Z</time>
<speed>2.850000</speed>
<extensions>
<speed>2.9</speed>
<temp>0.00</temp>
<bpm>0</bpm>
<rpm>0.00</rpm>
</extensions>
</trkpt>
<trkpt lat="64.119216919" lon="-19.830326080">
<ele>158.707031</ele>
<time>2012-07-21T13:38:14Z</time>
<speed>3.090000</speed>
<extensions>
<speed>3.1</speed>
<temp>0.00</temp>
<bpm>0</bpm>
<rpm>0.00</rpm>
</extensions>
</trkpt>
<trkpt lat="64.119255066" lon="-19.830020905">
<ele>158.968750</ele>
<time>2012-07-21T13:38:19Z</time>
<speed>3.040000</speed>
<extensions>
<speed>3.0</speed>
<temp>0.00</temp>
<bpm>0</bpm>
<rpm>0.00</rpm>
</extensions>
</trkpt>
<trkpt lat="64.119293213" lon="-19.829719543">
<ele>159.753906</ele>
<time>2012-07-21T13:38:24Z</time>
<speed>2.510000</speed>
<extensions>
<speed>2.5</speed>
<temp>0.00</temp>
<bpm>0</bpm>
<rpm>0.00</rpm>
</extensions>
</trkpt>
<trkpt lat="64.119331360" lon="-19.829481125">
<ele>159.785156</ele>
<time>2012-07-21T13:38:29Z</time>
<speed>2.920000</speed>
<extensions>
<speed>2.9</speed>
<temp>0.00</temp>
<bpm>0</bpm>
<rpm>0.00</rpm>
</extensions>
</trkpt>
<trkpt lat="64.119377136" lon="-19.829216003">
<ele>159.738281</ele>
<time>2012-07-21T13:38:34Z</time>
<speed>1.960000</speed>
<extensions>
<speed>2.0</speed>
<temp>0.00</temp>
<bpm>0</bpm>
<rpm>0.00</rpm>
</extensions>
</trkpt>
<trkpt lat="64.119422913" lon="-19.829002380">
<ele>160.121094</ele>
<time>2012-07-21T13:38:39Z</time>
<speed>2.680000</speed>
<extensions>
<speed>2.7</speed>
<temp>0.00</temp>
<bpm>0</bpm>
<rpm>0.00</rpm>
</extensions>
</trkpt>
<trkpt lat="64.119476318" lon="-19.828746796">
<ele>160.125000</ele>
<time>2012-07-21T13:38:44Z</time>
<speed>2.640000</speed>
<extensions>
<speed>2.6</speed>
<temp>0.00</temp>
<bpm>0</bpm>
<rpm>0.00</rpm>
</extensions>
</trkpt>
<trkpt lat="64.119522095" lon="-19.828508377">
<ele>160.082031</ele>
<time>2012-07-21T13:38:49Z</time>
<speed>2.750000</speed>
<extensions>
<speed>2.7</speed>
<temp>0.00</temp>
<bpm>0</bpm>
<rpm>0.00</rpm>
</extensions>
</trkpt>
<trkpt lat="64.119598389" lon="-19.828247070">
<ele>160.390625</ele>
<time>2012-07-21T13:38:54Z</time>
<speed>2.900000</speed>
<extensions>
<speed>2.9</speed>
<temp>0.00</temp>
<bpm>0</bpm>
<rpm>0.00</rpm>
</extensions>
</trkpt>
<trkpt lat="64.119667053" lon="-19.827995300">
<ele>160.839844</ele>
<time>2012-07-21T13:38:59Z</time>
<speed>2.710000</speed>
<extensions>
<speed>2.7</speed>
<temp>0.00</temp>
<bpm>0</bpm>
<rpm>0.00</rpm>
</extensions>
</trkpt>
<trkpt lat="64.119728088" lon="-19.827770233">
<ele>161.281250</ele>
<time>2012-07-21T13:39:04Z</time>
<speed>2.110000</speed>
<extensions>
<speed>2.1</speed>
<temp>0.00</temp>
<bpm>0</bpm>
<rpm>0.00</rpm>
</extensions>
</trkpt>
<trkpt lat="64.119789124" lon="-19.827621460">
<ele>160.929688</ele>
<time>2012-07-21T13:39:09Z</time>
<speed>2.250000</speed>
<extensions>
<speed>2.3</speed>
<temp>0.00</temp>
<bpm>0</bpm>
<rpm>0.00</rpm>
</extensions>
</trkpt>
<trkpt lat="64.119850159" lon="-19.827445984">
<ele>161.085938</ele>
<time>2012-07-21T13:39:14Z</time>
<speed>2.310000</speed>
<extensions>
<speed>2.3</speed>
<temp>0.00</temp>
<bpm>0</bpm>
<rpm>0.00</rpm>
</extensions>
</trkpt>
<trkpt lat="64.119903564" lon="-19.827287674">
<ele>161.679688</ele>
<time>2012-07-21T13:39:19Z</time>
<speed>1.370000</speed>
<extensions>
<speed>1.4</speed>
<temp>0.00</temp>
<bpm>0</bpm>
<rpm>0.00</rpm>
</extensions>
</trkpt>
<trkpt lat="64.119949341" lon="-19.827184677">
<ele>161.738281</ele>
<time>2012-07-21T13:39:24Z</time>
<speed>2.150000</speed>
<extensions>
<speed>2.1</speed>
<temp>0.00</temp>
<bpm>0</bpm>
<rpm>0.00</rpm>
</extensions>
</trkpt>
<trkpt lat="64.120025635" lon="-19.827007294">
<ele>162.085938</ele>
<time>2012-07-21T13:39:29Z</time>
<speed>2.450000</speed>
<extensions>
<speed>2.4</speed>
<temp>0.00</temp>
<bpm>0</bpm>
<rpm>0.00</rpm>
</extensions>
</trkpt>
<trkpt lat="64.120101929" lon="-19.826833725">
<ele>162.589844</ele>
<time>2012-07-21T13:39:34Z</time>
<speed>2.190000</speed>
<extensions>
<speed>2.2</speed>
<temp>0.00</temp>
<bpm>0</bpm>
<rpm>0.00</rpm>
</extensions>
</trkpt>
<trkpt lat="64.120170593" lon="-19.826665878">
<ele>163.054688</ele>
<time>2012-07-21T13:39:39Z</time>
<speed>2.320000</speed>
<extensions>
<speed>2.3</speed>
<temp>0.00</temp>
<bpm>0</bpm>
<rpm>0.00</rpm>
</extensions>
</trkpt>
<trkpt lat="64.120231628" lon="-19.826553345">
<ele>163.347656</ele>
<time>2012-07-21T13:39:44Z</time>
<speed>1.830000</speed>
<extensions>
<speed>1.8</speed>
<temp>0.00</temp>
<bpm>0</bpm>
<rpm>0.00</rpm>
</extensions>
</trkpt>
<trkpt lat="64.120300293" lon="-19.826410294">
<ele>163.753906</ele>
<time>2012-07-21T13:39:49Z</time>
<speed>2.360000</speed>
<extensions>
<speed>2.4</speed>
<temp>0.00</temp>
<bpm>0</bpm>
<rpm>0.00</rpm>
</extensions>
</trkpt>
<trkpt lat="64.120376587" lon="-19.826253891">
<ele>164.070313</ele>
<time>2012-07-21T13:39:54Z</time>
<speed>2.190000</speed>
<extensions>
<speed>2.2</speed>
<temp>0.00</temp>
<bpm>0</bpm>
<rpm>0.00</rpm>
</extensions>
</trkpt>
<trkpt lat="64.120468140" lon="-19.826095581">
<ele>164.500000</ele>
<time>2012-07-21T13:39:59Z</time>
<speed>2.620000</speed>
<extensions>
<speed>2.6</speed>
<temp>0.00</temp>
<bpm>0</bpm>
<rpm>0.00</rpm>
</extensions>
</trkpt>
<trkpt lat="64.120536804" lon="-19.826026917">
<ele>164.980469</ele>
<time>2012-07-21T13:40:04Z</time>
<speed>1.160000</speed>
<extensions>
<speed>1.2</speed>
<temp>0.00</temp>
<bpm>0</bpm>
<rpm>0.00</rpm>
</extensions>
</trkpt>
<trkpt lat="64.120605469" lon="-19.825954437">
<ele>165.199219</ele>
<time>2012-07-21T13:40:09Z</time>
<speed>2.470000</speed>
<extensions>
<speed>2.5</speed>
<temp>0.00</temp>
<bpm>0</bpm>
<rpm>0.00</rpm>
</extensions>
</trkpt>
<trkpt lat="64.120689392" lon="-19.825815201">
<ele>165.531250</ele>
<time>2012-07-21T13:40:14Z</time>
<speed>2.270000</speed>
<extensions>
<speed>2.3</speed>
<temp>0.00</temp>
<bpm>0</bpm>
<rpm>0.00</rpm>
</extensions>
</trkpt>
<trkpt lat="64.120780945" lon="-19.825674057">
<ele>165.734375</ele>
<time>2012-07-21T13:40:19Z</time>
<speed>2.570000</speed>
<extensions>
<speed>2.6</speed>
<temp>0.00</temp>
<bpm>0</bpm>
<rpm>0.00</rpm>
</extensions>
</trkpt>
<trkpt lat="64.120887756" lon="-19.825544357">
<ele>166.664063</ele>
<time>2012-07-21T13:40:24Z</time>
<speed>2.660000</speed>
<extensions>
<speed>2.7</speed>
<temp>0.00</temp>
<bpm>0</bpm>
<rpm>0.00</rpm>
</extensions>
</trkpt>
<trkpt lat="64.120994568" lon="-19.825424194">
<ele>167.210938</ele>
<time>2012-07-21T13:40:29Z</time>
<speed>2.620000</speed>
<extensions>
<speed>2.6</speed>
<temp>0.00</temp>
<bpm>0</bpm>
<rpm>0.00</rpm>
</extensions>
</trkpt>
<trkpt lat="64.121101379" lon="-19.825319290">
<ele>167.781250</ele>
<time>2012-07-21T13:40:34Z</time>
<speed>2.530000</speed>
<extensions>
<speed>2.5</speed>
<temp>0.00</temp>
<bpm>0</bpm>
<rpm>0.00</rpm>
</extensions>
</trkpt>
<trkpt lat="64.121192932" lon="-19.825231552">
<ele>168.417969</ele>
<time>2012-07-21T13:40:39Z</time>
<speed>2.420000</speed>
<extensions>
<speed>2.4</speed>
<temp>0.00</temp>
<bpm>0</bpm>
<rpm>0.00</rpm>
</extensions>
</trkpt>
<trkpt lat="64.121292114" lon="-19.825162888">
<ele>168.718750</ele>
<time>2012-07-21T13:40:44Z</time>
<speed>2.220000</speed>
<extensions>
<speed>2.2</speed>
<temp>0.00</temp>
<bpm>0</bpm>
<rpm>0.00</rpm>
</extensions>
</trkpt>
<trkpt lat="64.121391296" lon="-19.825090408">
<ele>169.078125</ele>
<time>2012-07-21T13:40:49Z</time>
<speed>2.210000</speed>
<extensions>
<speed>2.2</speed>
<temp>0.00</temp>
<bpm>0</bpm>
<rpm>0.00</rpm>
</extensions>
</trkpt>
<trkpt lat="64.121475220" lon="-19.825035095">
<ele>169.246094</ele>
<time>2012-07-21T13:40:54Z</time>
<speed>2.190000</speed>
<extensions>
<speed>2.2</speed>
<temp>0.00</temp>
<bpm>0</bpm>
<rpm>0.00</rpm>
</extensions>
</trkpt>
<trkpt lat="64.121566772" lon="-19.824937820">
<ele>169.683594</ele>
<time>2012-07-21T13:40:59Z</time>
<speed>2.240000</speed>
<extensions>
<speed>2.2</speed>
<temp>0.00</temp>
<bpm>0</bpm>
<rpm>0.00</rpm>
</extensions>
</trkpt>
<trkpt lat="64.121658325" lon="-19.824865341">
<ele>169.960938</ele>
<time>2012-07-21T13:41:04Z</time>
<speed>2.090000</speed>
<extensions>
<speed>2.1</speed>
<temp>0.00</temp>
<bpm>0</bpm>
<rpm>0.00</rpm>
</extensions>
</trkpt>
<trkpt lat="64.121742249" lon="-19.824790955">
<ele>170.527344</ele>
<time>2012-07-21T13:41:09Z</time>
<speed>2.120000</speed>
<extensions>
<speed>2.1</speed>
<temp>0.00</temp>
<bpm>0</bpm>
<rpm>0.00</rpm>
</extensions>
</trkpt>
<trkpt lat="64.121833801" lon="-19.824716568">
<ele>171.406250</ele>
<time>2012-07-21T13:41:14Z</time>
<speed>2.230000</speed>
<extensions>
<speed>2.2</speed>
<temp>0.00</temp>
<bpm>0</bpm>
<rpm>0.00</rpm>
</extensions>
</trkpt>
<trkpt lat="64.121925354" lon="-19.824644089">
<ele>171.996094</ele>
<time>2012-07-21T13:41:19Z</time>
<speed>2.010000</speed>
<extensions>
<speed>2.0</speed>
<temp>0.00</temp>
<bpm>0</bpm>
<rpm>0.00</rpm>
</extensions>
</trkpt>
<trkpt lat="64.122016907" lon="-19.824581146">
<ele>172.675781</ele>
<time>2012-07-21T13:41:24Z</time>
<speed>2.140000</speed>
<extensions>
<speed>2.1</speed>
<temp>0.00</temp>
<bpm>0</bpm>
<rpm>0.00</rpm>
</extensions>
</trkpt>
<trkpt lat="64.122108459" lon="-19.824506760">
<ele>173.039063</ele>
<time>2012-07-21T13:41:29Z</time>
<speed>2.140000</speed>
<extensions>
<speed>2.1</speed>
<temp>0.00</temp>
<bpm>0</bpm>
<rpm>0.00</rpm>
</extensions>
</trkpt>
<trkpt lat="64.122177124" lon="-19.824436188">
<ele>172.667969</ele>
<time>2012-07-21T13:41:34Z</time>
<speed>0.860000</speed>
<extensions>
<speed>0.9</speed>
<temp>0.00</temp>
<bpm>0</bpm>
<rpm>0.00</rpm>
</extensions>
</trkpt>
<trkpt lat="64.122245789" lon="-19.824375153">
<ele>172.644531</ele>
<time>2012-07-21T13:41:39Z</time>
<speed>2.060000</speed>
<extensions>
<speed>2.1</speed>
<temp>0.00</temp>
<bpm>0</bpm>
<rpm>0.00</rpm>
</extensions>
</trkpt>
<trkpt lat="64.122344971" lon="-19.824306488">
<ele>173.523438</ele>
<time>2012-07-21T13:41:44Z</time>
<speed>2.150000</speed>
<extensions>
<speed>2.1</speed>
<temp>0.00</temp>
<bpm>0</bpm>
<rpm>0.00</rpm>
</extensions>
</trkpt>
<trkpt lat="64.122436523" lon="-19.824235916">
<ele>173.988281</ele>
<time>2012-07-21T13:41:49Z</time>
<speed>2.040000</speed>
<extensions>
<speed>2.0</speed>
<temp>0.00</temp>
<bpm>0</bpm>
<rpm>0.00</rpm>
</extensions>
</trkpt>
<trkpt lat="64.122512817" lon="-19.824176788">
<ele>174.531250</ele>
<time>2012-07-21T13:41:54Z</time>
<speed>1.350000</speed>
<extensions>
<speed>1.4</speed>
<temp>0.00</temp>
<bpm>0</bpm>
<rpm>0.00</rpm>
</extensions>
</trkpt>
<trkpt lat="64.122573853" lon="-19.824127197">
<ele>174.875000</ele>
<time>2012-07-21T13:41:59Z</time>
<speed>1.540000</speed>
<extensions>
<speed>1.5</speed>
<temp>0.00</temp>
<bpm>0</bpm>
<rpm>0.00</rpm>
</extensions>
</trkpt>
<trkpt lat="64.122627258" lon="-19.824060440">
<ele>175.312500</ele>
<time>2012-07-21T13:42:04Z</time>
<speed>1.310000</speed>
<extensions>
<speed>1.3</speed>
<temp>0.00</temp>
<bpm>0</bpm>
<rpm>0.00</rpm>
</extensions>
</trkpt>
<trkpt lat="64.122688293" lon="-19.824035645">
<ele>176.613281</ele>
<time>2012-07-21T13:42:09Z</time>
<speed>1.450000</speed>
<extensions>
<speed>1.4</speed>
<temp>0.00</temp>
<bpm>0</bpm>
<rpm>0.00</rpm>
</extensions>
</trkpt>
<trkpt lat="64.122741699" lon="-19.824007034">
<ele>176.843750</ele>
<time>2012-07-21T13:42:14Z</time>
<speed>1.490000</speed>
<extensions>
<speed>1.5</speed>
<temp>0.00</temp>
<bpm>0</bpm>
<rpm>0.00</rpm>
</extensions>
</trkpt>
<trkpt lat="64.122802734" lon="-19.823959351">
<ele>177.089844</ele>
<time>2012-07-21T13:42:19Z</time>
<speed>1.590000</speed>
<extensions>
<speed>1.6</speed>
<temp>0.00</temp>
<bpm>0</bpm>
<rpm>0.00</rpm>
</extensions>
</trkpt>
<trkpt lat="64.122871399" lon="-19.823888779">
<ele>177.558594</ele>
<time>2012-07-21T13:42:24Z</time>
<speed>1.650000</speed>
<extensions>
<speed>1.7</speed>
<temp>0.00</temp>
<bpm>0</bpm>
<rpm>0.00</rpm>
</extensions>
</trkpt>
<trkpt lat="64.122940063" lon="-19.823818207">
<ele>178.097656</ele>
<time>2012-07-21T13:42:29Z</time>
<speed>1.570000</speed>
<extensions>
<speed>1.6</speed>
<temp>0.00</temp>
<bpm>0</bpm>
<rpm>0.00</rpm>
</extensions>
</trkpt>
<trkpt lat="64.123008728" lon="-19.823760986">
<ele>178.753906</ele>
<time>2012-07-21T13:42:34Z</time>
<speed>1.760000</speed>
<extensions>
<speed>1.8</speed>
<temp>0.00</temp>
<bpm>0</bpm>
<rpm>0.00</rpm>
</extensions>
</trkpt>
<trkpt lat="64.123085022" lon="-19.823698044">
<ele>179.796875</ele>
<time>2012-07-21T13:42:39Z</time>
<speed>1.760000</speed>
<extensions>
<speed>1.8</speed>
<temp>0.00</temp>
<bpm>0</bpm>
<rpm>0.00</rpm>
</extensions>
</trkpt>
<trkpt lat="64.123153687" lon="-19.823614120">
<ele>179.742188</ele>
<time>2012-07-21T13:42:44Z</time>
<speed>1.780000</speed>
<extensions>
<speed>1.8</speed>
<temp>0.00</temp>
<bpm>0</bpm>
<rpm>0.00</rpm>
</extensions>
</trkpt>
<trkpt lat="64.123229980" lon="-19.823545456">
<ele>180.222656</ele>
<time>2012-07-21T13:42:49Z</time>
<speed>1.750000</speed>
<extensions>
<speed>1.8</speed>
<temp>0.00</temp>
<bpm>0</bpm>
<rpm>0.00</rpm>
</extensions>
</trkpt>
<trkpt lat="64.123291016" lon="-19.823472977">
<ele>180.285156</ele>
<time>2012-07-21T13:42:54Z</time>
<speed>1.690000</speed>
<extensions>
<speed>1.7</speed>
<temp>0.00</temp>
<bpm>0</bpm>
<rpm>0.00</rpm>
</extensions>
</trkpt>
<trkpt lat="64.123367310" lon="-19.823389053">
<ele>181.835938</ele>
<time>2012-07-21T13:42:59Z</time>
<speed>1.820000</speed>
<extensions>
<speed>1.8</speed>
<temp>0.00</temp>
<bpm>0</bpm>
<rpm>0.00</rpm>
</extensions>
</trkpt>
<trkpt lat="64.123443604" lon="-19.823305130">
<ele>182.687500</ele>
<time>2012-07-21T13:43:04Z</time>
<speed>1.440000</speed>
<extensions>
<speed>1.4</speed>
<temp>0.00</temp>
<bpm>0</bpm>
<rpm>0.00</rpm>
</extensions>
</trkpt>
<trkpt lat="64.123497009" lon="-19.823255539">
<ele>182.761719</ele>
<time>2012-07-21T13:43:09Z</time>
<speed>1.630000</speed>
<extensions>
<speed>1.6</speed>
<temp>0.00</temp>
<bpm>0</bpm>
<rpm>0.00</rpm>
</extensions>
</trkpt>
<trkpt lat="64.123550415" lon="-19.823179245">
<ele>183.800781</ele>
<time>2012-07-21T13:43:14Z</time>
<speed>1.170000</speed>
<extensions>
<speed>1.2</speed>
<temp>0.00</temp>
<bpm>0</bpm>
<rpm>0.00</rpm>
</extensions>
</trkpt>
<trkpt lat="64.123611450" lon="-19.823097229">
<ele>184.617188</ele>
<time>2012-07-21T13:43:19Z</time>
<speed>1.690000</speed>
<extensions>
<speed>1.7</speed>
<temp>0.00</temp>
<bpm>0</bpm>
<rpm>0.00</rpm>
</extensions>
</trkpt>
<trkpt lat="64.123672485" lon="-19.823038101">
<ele>185.097656</ele>
<time>2012-07-21T13:43:24Z</time>
<speed>1.420000</speed>
<extensions>
<speed>1.4</speed>
<temp>0.00</temp>
<bpm>0</bpm>
<rpm>0.00</rpm>
</extensions>
</trkpt>
<trkpt lat="64.123756409" lon="-19.822975159">
<ele>186.089844</ele>
<time>2012-07-21T13:43:29Z</time>
<speed>1.940000</speed>
<extensions>
<speed>1.9</speed>
<temp>0.00</temp>
<bpm>0</bpm>
<rpm>0.00</rpm>
</extensions>
</trkpt>
<trkpt lat="64.123825073" lon="-19.822900772">
<ele>187.097656</ele>
<time>2012-07-21T13:43:34Z</time>
<speed>1.980000</speed>
<extensions>
<speed>2.0</speed>
<temp>0.00</temp>
<bpm>0</bpm>
<rpm>0.00</rpm>
</extensions>
</trkpt>
<trkpt lat="64.123878479" lon="-19.822839737">
<ele>187.953125</ele>
<time>2012-07-21T13:43:39Z</time>
<speed>1.610000</speed>
<extensions>
<speed>1.6</speed>
<temp>0.00</temp>
<bpm>0</bpm>
<rpm>0.00</rpm>
</extensions>
</trkpt>
<trkpt lat="64.123947144" lon="-19.822769165">
<ele>188.453125</ele>
<time>2012-07-21T13:43:44Z</time>
<speed>1.560000</speed>
<extensions>
<speed>1.6</speed>
<temp>0.00</temp>
<bpm>0</bpm>
<rpm>0.00</rpm>
</extensions>
</trkpt>
<trkpt lat="64.123954773" lon="-19.822731018">
<ele>188.953125</ele>
<time>2012-07-21T13:43:49Z</time>
<speed>0.070000</speed>
<extensions>
<speed>0.1</speed>
<temp>0.00</temp>
<bpm>0</bpm>
<rpm>0.00</rpm>
</extensions>
</trkpt>
<trkpt lat="64.123992920" lon="-19.822698593">
<ele>189.144531</ele>
<time>2012-07-21T13:43:54Z</time>
<speed>1.440000</speed>
<extensions>
<speed>1.4</speed>
<temp>0.00</temp>
<bpm>0</bpm>
<rpm>0.00</rpm>
</extensions>
</trkpt>
<trkpt lat="64.124038696" lon="-19.822639465">
<ele>189.285156</ele>
<time>2012-07-21T13:43:59Z</time>
<speed>1.350000</speed>
<extensions>
<speed>1.4</speed>
<temp>0.00</temp>
<bpm>0</bpm>
<rpm>0.00</rpm>
</extensions>
</trkpt>
<trkpt lat="64.124084473" lon="-19.822563171">
<ele>189.320313</ele>
<time>2012-07-21T13:44:04Z</time>
<speed>1.150000</speed>
<extensions>
<speed>1.1</speed>
<temp>0.00</temp>
<bpm>0</bpm>
<rpm>0.00</rpm>
</extensions>
</trkpt>
<trkpt lat="64.124130249" lon="-19.822528839">
<ele>189.062500</ele>
<time>2012-07-21T13:44:09Z</time>
<speed>1.070000</speed>
<extensions>
<speed>1.1</speed>
<temp>0.00</temp>
<bpm>0</bpm>
<rpm>0.00</rpm>
</extensions>
</trkpt>
<trkpt lat="64.124176025" lon="-19.822473526">
<ele>188.972656</ele>
<time>2012-07-21T13:44:14Z</time>
<speed>1.270000</speed>
<extensions>
<speed>1.3</speed>
<temp>0.00</temp>
<bpm>0</bpm>
<rpm>0.00</rpm>
</extensions>
</trkpt>
<trkpt lat="64.124221802" lon="-19.822422028">
<ele>189.519531</ele>
<time>2012-07-21T13:44:19Z</time>
<speed>1.350000</speed>
<extensions>
<speed>1.4</speed>
<temp>0.00</temp>
<bpm>0</bpm>
<rpm>0.00</rpm>
</extensions>
</trkpt>
<trkpt lat="64.124267578" lon="-19.822389603">
<ele>189.738281</ele>
<time>2012-07-21T13:44:24Z</time>
<speed>0.600000</speed>
<extensions>
<speed>0.6</speed>
<temp>0.00</temp>
<bpm>0</bpm>
<rpm>0.00</rpm>
</extensions>
</trkpt>
<trkpt lat="64.124313354" lon="-19.822332382">
<ele>190.003906</ele>
<time>2012-07-21T13:44:29Z</time>
<speed>1.250000</speed>
<extensions>
<speed>1.3</speed>
<temp>0.00</temp>
<bpm>0</bpm>
<rpm>0.00</rpm>
</extensions>
</trkpt>
<trkpt lat="64.124366760" lon="-19.822307587">
<ele>190.464844</ele>
<time>2012-07-21T13:44:34Z</time>
<speed>1.160000</speed>
<extensions>
<speed>1.2</speed>
<temp>0.00</temp>
<bpm>0</bpm>
<rpm>0.00</rpm>
</extensions>
</trkpt>
<trkpt lat="64.124412537" lon="-19.822277069">
<ele>191.039063</ele>
<time>2012-07-21T13:44:39Z</time>
<speed>0.640000</speed>
<extensions>
<speed>0.6</speed>
<temp>0.00</temp>
<bpm>0</bpm>
<rpm>0.00</rpm>
</extensions>
</trkpt>
<trkpt lat="64.124450684" lon="-19.822244644">
<ele>191.070313</ele>
<time>2012-07-21T13:44:44Z</time>
<speed>1.230000</speed>
<extensions>
<speed>1.2</speed>
<temp>0.00</temp>
<bpm>0</bpm>
<rpm>0.00</rpm>
</extensions>
</trkpt>
<trkpt lat="64.124504089" lon="-19.822212219">
<ele>191.328125</ele>
<time>2012-07-21T13:44:49Z</time>
<speed>1.000000</speed>
<extensions>
<speed>1.0</speed>
<temp>0.00</temp>
<bpm>0</bpm>
<rpm>0.00</rpm>
</extensions>
</trkpt>
<trkpt lat="64.124557495" lon="-19.822177887">
<ele>190.867188</ele>
<time>2012-07-21T13:44:54Z</time>
<speed>1.190000</speed>
<extensions>
<speed>1.2</speed>
<temp>0.00</temp>
<bpm>0</bpm>
<rpm>0.00</rpm>
</extensions>
</trkpt>
<trkpt lat="64.124603271" lon="-19.822154999">
<ele>190.910156</ele>
<time>2012-07-21T13:44:59Z</time>
<speed>1.170000</speed>
<extensions>
<speed>1.2</speed>
<temp>0.00</temp>
<bpm>0</bpm>
<rpm>0.00</rpm>
</extensions>
</trkpt>
<trkpt lat="64.124656677" lon="-19.822124481">
<ele>190.746094</ele>
<time>2012-07-21T13:45:04Z</time>
<speed>1.150000</speed>
<extensions>
<speed>1.1</speed>
<temp>0.00</temp>
<bpm>0</bpm>
<rpm>0.00</rpm>
</extensions>
</trkpt>
<trkpt lat="64.124717712" lon="-19.822111130">
<ele>191.355469</ele>
<time>2012-07-21T13:45:09Z</time>
<speed>1.150000</speed>
<extensions>
<speed>1.1</speed>
<temp>0.00</temp>
<bpm>0</bpm>
<rpm>0.00</rpm>
</extensions>
</trkpt>
<trkpt lat="64.124771118" lon="-19.822080612">
<ele>191.863281</ele>
<time>2012-07-21T13:45:14Z</time>
<speed>0.950000</speed>
<extensions>
<speed>1.0</speed>
<temp>0.00</temp>
<bpm>0</bpm>
<rpm>0.00</rpm>
</extensions>
</trkpt>
<trkpt lat="64.124824524" lon="-19.822052002">
<ele>191.078125</ele>
<time>2012-07-21T13:45:19Z</time>
<speed>1.090000</speed>
<extensions>
<speed>1.1</speed>
<temp>0.00</temp>
<bpm>0</bpm>
<rpm>0.00</rpm>
</extensions>
</trkpt>
<trkpt lat="64.124862671" lon="-19.822057724">
<ele>191.347656</ele>
<time>2012-07-21T13:45:24Z</time>
<speed>0.010000</speed>
<extensions>
<speed>0.0</speed>
<temp>0.00</temp>
<bpm>0</bpm>
<rpm>0.00</rpm>
</extensions>
</trkpt>
<trkpt lat="64.124862671" lon="-19.822063446">
<ele>191.558594</ele>
<time>2012-07-21T13:45:29Z</time>
<speed>0.090000</speed>
<extensions>
<speed>0.1</speed>
<temp>0.00</temp>
<bpm>0</bpm>
<rpm>0.00</rpm>
</extensions>
</trkpt>
<trkpt lat="64.124862671" lon="-19.822063446">
<ele>191.574219</ele>
<time>2012-07-21T13:45:34Z</time>
<speed>0.890000</speed>
<extensions>
<speed>0.9</speed>
<temp>0.00</temp>
<bpm>0</bpm>
<rpm>0.00</rpm>
</extensions>
</trkpt>
<trkpt lat="64.124923706" lon="-19.822071075">
<ele>192.269531</ele>
<time>2012-07-21T13:45:39Z</time>
<speed>1.130000</speed>
<extensions>
<speed>1.1</speed>
<temp>0.00</temp>
<bpm>0</bpm>
<rpm>0.00</rpm>
</extensions>
</trkpt>
<trkpt lat="64.124977112" lon="-19.822055817">
<ele>192.886719</ele>
<time>2012-07-21T13:45:44Z</time>
<speed>1.330000</speed>
<extensions>
<speed>1.3</speed>
<temp>0.00</temp>
<bpm>0</bpm>
<rpm>0.00</rpm>
</extensions>
</trkpt>
<trkpt lat="64.125038147" lon="-19.822050095">
<ele>193.250000</ele>
<time>2012-07-21T13:45:49Z</time>
<speed>0.900000</speed>
<extensions>
<speed>0.9</speed>
<temp>0.00</temp>
<bpm>0</bpm>
<rpm>0.00</rpm>
</extensions>
</trkpt>
<trkpt lat="64.125083923" lon="-19.822040558">
<ele>193.593750</ele>
<time>2012-07-21T13:45:54Z</time>
<speed>0.680000</speed>
<extensions>
<speed>0.7</speed>
<temp>0.00</temp>
<bpm>0</bpm>
<rpm>0.00</rpm>
</extensions>
</trkpt>
<trkpt lat="64.125137329" lon="-19.822029114">
<ele>194.113281</ele>
<time>2012-07-21T13:45:59Z</time>
<speed>1.280000</speed>
<extensions>
<speed>1.3</speed>
<temp>0.00</temp>
<bpm>0</bpm>
<rpm>0.00</rpm>
</extensions>
</trkpt>
<trkpt lat="64.125190735" lon="-19.822002411">
<ele>193.898438</ele>
<time>2012-07-21T13:46:04Z</time>
<speed>1.390000</speed>
<extensions>
<speed>1.4</speed>
<temp>0.00</temp>
<bpm>0</bpm>
<rpm>0.00</rpm>
</extensions>
</trkpt>
<trkpt lat="64.125244141" lon="-19.821981430">
<ele>194.605469</ele>
<time>2012-07-21T13:46:09Z</time>
<speed>1.270000</speed>
<extensions>
<speed>1.3</speed>
<temp>0.00</temp>
<bpm>0</bpm>
<rpm>0.00</rpm>
</extensions>
</trkpt>
<trkpt lat="64.125297546" lon="-19.821950912">
<ele>195.160156</ele>
<time>2012-07-21T13:46:14Z</time>
<speed>1.330000</speed>
<extensions>
<speed>1.3</speed>
<temp>0.00</temp>
<bpm>0</bpm>
<rpm>0.00</rpm>
</extensions>
</trkpt>
<trkpt lat="64.125350952" lon="-19.821918488">
<ele>195.335938</ele>
<time>2012-07-21T13:46:19Z</time>
<speed>1.030000</speed>
<extensions>
<speed>1.0</speed>
<temp>0.00</temp>
<bpm>0</bpm>
<rpm>0.00</rpm>
</extensions>
</trkpt>
<trkpt lat="64.125396729" lon="-19.821865082">
<ele>196.062500</ele>
<time>2012-07-21T13:46:24Z</time>
<speed>1.400000</speed>
<extensions>
<speed>1.4</speed>
<temp>0.00</temp>
<bpm>0</bpm>
<rpm>0.00</rpm>
</extensions>
</trkpt>
<trkpt lat="64.125450134" lon="-19.821802139">
<ele>196.949219</ele>
<time>2012-07-21T13:46:29Z</time>
<speed>1.240000</speed>
<extensions>
<speed>1.2</speed>
<temp>0.00</temp>
<bpm>0</bpm>
<rpm>0.00</rpm>
</extensions>
</trkpt>
<trkpt lat="64.125488281" lon="-19.821729660">
<ele>197.296875</ele>
<time>2012-07-21T13:46:34Z</time>
<speed>1.420000</speed>
<extensions>
<speed>1.4</speed>
<temp>0.00</temp>
<bpm>0</bpm>
<rpm>0.00</rpm>
</extensions>
</trkpt>
<trkpt lat="64.125526428" lon="-19.821624756">
<ele>198.136719</ele>
<time>2012-07-21T13:46:39Z</time>
<speed>1.270000</speed>
<extensions>
<speed>1.3</speed>
<temp>0.00</temp>
<bpm>0</bpm>
<rpm>0.00</rpm>
</extensions>
</trkpt>
<trkpt lat="64.125556946" lon="-19.821493149">
<ele>198.859375</ele>
<time>2012-07-21T13:46:44Z</time>
<speed>1.190000</speed>
<extensions>
<speed>1.2</speed>
<temp>0.00</temp>
<bpm>0</bpm>
<rpm>0.00</rpm>
</extensions>
</trkpt>
<trkpt lat="64.125564575" lon="-19.821357727">
<ele>199.367188</ele>
<time>2012-07-21T13:46:49Z</time>
<speed>1.380000</speed>
<extensions>
<speed>1.4</speed>
<temp>0.00</temp>
<bpm>0</bpm>
<rpm>0.00</rpm>
</extensions>
</trkpt>
<trkpt lat="64.125564575" lon="-19.821212769">
<ele>199.906250</ele>
<time>2012-07-21T13:46:54Z</time>
<speed>1.180000</speed>
<extensions>
<speed>1.2</speed>
<temp>0.00</temp>
<bpm>0</bpm>
<rpm>0.00</rpm>
</extensions>
</trkpt>
<trkpt lat="64.125556946" lon="-19.821081161">
<ele>200.562500</ele>
<time>2012-07-21T13:46:59Z</time>
<speed>1.370000</speed>
<extensions>
<speed>1.4</speed>
<temp>0.00</temp>
<bpm>0</bpm>
<rpm>0.00</rpm>
</extensions>
</trkpt>
<trkpt lat="64.125518799" lon="-19.820951462">
<ele>201.277344</ele>
<time>2012-07-21T13:47:04Z</time>
<speed>1.260000</speed>
<extensions>
<speed>1.3</speed>
<temp>0.00</temp>
<bpm>0</bpm>
<rpm>0.00</rpm>
</extensions>
</trkpt>
<trkpt lat="64.125480652" lon="-19.820863724">
<ele>201.988281</ele>
<time>2012-07-21T13:47:09Z</time>
<speed>1.300000</speed>
<extensions>
<speed>1.3</speed>
<temp>0.00</temp>
<bpm>0</bpm>
<rpm>0.00</rpm>
</extensions>
</trkpt>
<trkpt lat="64.125434875" lon="-19.820770264">
<ele>202.804688</ele>
<time>2012-07-21T13:47:14Z</time>
<speed>1.190000</speed>
<extensions>
<speed>1.2</speed>
<temp>0.00</temp>
<bpm>0</bpm>
<rpm>0.00</rpm>
</extensions>
</trkpt>
<trkpt lat="64.125389099" lon="-19.820709229">
<ele>204.058594</ele>
<time>2012-07-21T13:47:19Z</time>
<speed>1.140000</speed>
<extensions>
<speed>1.1</speed>
<temp>0.00</temp>
<bpm>0</bpm>
<rpm>0.00</rpm>
</extensions>
</trkpt>
<trkpt lat="64.125343323" lon="-19.820674896">
<ele>205.089844</ele>
<time>2012-07-21T13:47:24Z</time>
<speed>1.220000</speed>
<extensions>
<speed>1.2</speed>
<temp>0.00</temp>
<bpm>0</bpm>
<rpm>0.00</rpm>
</extensions>
</trkpt>
<trkpt lat="64.125297546" lon="-19.820659637">
<ele>205.687500</ele>
<time>2012-07-21T13:47:29Z</time>
<speed>1.170000</speed>
<extensions>
<speed>1.2</speed>
<temp>0.00</temp>
<bpm>0</bpm>
<rpm>0.00</rpm>
</extensions>
</trkpt>
<trkpt lat="64.125244141" lon="-19.820667267">
<ele>206.519531</ele>
<time>2012-07-21T13:47:34Z</time>
<speed>1.120000</speed>
<extensions>
<speed>1.1</speed>
<temp>0.00</temp>
<bpm>0</bpm>
<rpm>0.00</rpm>
</extensions>
</trkpt>
<trkpt lat="64.125190735" lon="-19.820701599">
<ele>207.531250</ele>
<time>2012-07-21T13:47:39Z</time>
<speed>1.300000</speed>
<extensions>
<speed>1.3</speed>
<temp>0.00</temp>
<bpm>0</bpm>
<rpm>0.00</rpm>
</extensions>
</trkpt>
<trkpt lat="64.125129700" lon="-19.820716858">
<ele>207.957031</ele>
<time>2012-07-21T13:47:44Z</time>
<speed>1.320000</speed>
<extensions>
<speed>1.3</speed>
<temp>0.00</temp>
<bpm>0</bpm>
<rpm>0.00</rpm>
</extensions>
</trkpt>
<trkpt lat="64.125076294" lon="-19.820758820">
<ele>209.507813</ele>
<time>2012-07-21T13:47:49Z</time>
<speed>1.240000</speed>
<extensions>
<speed>1.2</speed>
<temp>0.00</temp>
<bpm>0</bpm>
<rpm>0.00</rpm>
</extensions>
</trkpt>
<trkpt lat="64.125015259" lon="-19.820758820">
<ele>211.109375</ele>
<time>2012-07-21T13:47:54Z</time>
<speed>1.400000</speed>
<extensions>
<speed>1.4</speed>
<temp>0.00</temp>
<bpm>0</bpm>
<rpm>0.00</rpm>
</extensions>
</trkpt>
<trkpt lat="64.124946594" lon="-19.820774078">
<ele>212.691406</ele>
<time>2012-07-21T13:47:59Z</time>
<speed>1.290000</speed>
<extensions>
<speed>1.3</speed>
<temp>0.00</temp>
<bpm>0</bpm>
<rpm>0.00</rpm>
</extensions>
</trkpt>
<trkpt lat="64.124893188" lon="-19.820789337">
<ele>213.949219</ele>
<time>2012-07-21T13:48:04Z</time>
<speed>1.430000</speed>
<extensions>
<speed>1.4</speed>
<temp>0.00</temp>
<bpm>0</bpm>
<rpm>0.00</rpm>
</extensions>
</trkpt>
<trkpt lat="64.124832153" lon="-19.820810318">
<ele>214.332031</ele>
<time>2012-07-21T13:48:09Z</time>
<speed>1.330000</speed>
<extensions>
<speed>1.3</speed>
<temp>0.00</temp>
<bpm>0</bpm>
<rpm>0.00</rpm>
</extensions>
</trkpt>
<trkpt lat="64.124778748" lon="-19.820821762">
<ele>214.730469</ele>
<time>2012-07-21T13:48:14Z</time>
<speed>1.390000</speed>
<extensions>
<speed>1.4</speed>
<temp>0.00</temp>
<bpm>0</bpm>
<rpm>0.00</rpm>
</extensions>
</trkpt>
<trkpt lat="64.124710083" lon="-19.820842743">
<ele>214.847656</ele>
<time>2012-07-21T13:48:19Z</time>
<speed>1.420000</speed>
<extensions>
<speed>1.4</speed>
<temp>0.00</temp>
<bpm>0</bpm>
<rpm>0.00</rpm>
</extensions>
</trkpt>
<trkpt lat="64.124649048" lon="-19.820819855">
<ele>215.222656</ele>
<time>2012-07-21T13:48:24Z</time>
<speed>1.420000</speed>
<extensions>
<speed>1.4</speed>
<temp>0.00</temp>
<bpm>0</bpm>
<rpm>0.00</rpm>
</extensions>
</trkpt>
<trkpt lat="64.124595642" lon="-19.820844650">
<ele>215.613281</ele>
<time>2012-07-21T13:48:29Z</time>
<speed>1.370000</speed>
<extensions>
<speed>1.4</speed>
<temp>0.00</temp>
<bpm>0</bpm>
<rpm>0.00</rpm>
</extensions>
</trkpt>
<trkpt lat="64.124534607" lon="-19.820833206">
<ele>216.054688</ele>
<time>2012-07-21T13:48:34Z</time>
<speed>1.340000</speed>
<extensions>
<speed>1.3</speed>
<temp>0.00</temp>
<bpm>0</bpm>
<rpm>0.00</rpm>
</extensions>
</trkpt>
<trkpt lat="64.124473572" lon="-19.820837021">
<ele>216.500000</ele>
<time>2012-07-21T13:48:39Z</time>
<speed>1.310000</speed>
<extensions>
<speed>1.3</speed>
<temp>0.00</temp>
<bpm>0</bpm>
<rpm>0.00</rpm>
</extensions>
</trkpt>
<trkpt lat="64.124412537" lon="-19.820858002">
<ele>217.128906</ele>
<time>2012-07-21T13:48:44Z</time>
<speed>1.460000</speed>
<extensions>
<speed>1.5</speed>
<temp>0.00</temp>
<bpm>0</bpm>
<rpm>0.00</rpm>
</extensions>
</trkpt>
<trkpt lat="64.124351501" lon="-19.820854187">
<ele>217.742188</ele>
<time>2012-07-21T13:48:49Z</time>
<speed>1.110000</speed>
<extensions>
<speed>1.1</speed>
<temp>0.00</temp>
<bpm>0</bpm>
<rpm>0.00</rpm>
</extensions>
</trkpt>
<trkpt lat="64.124298096" lon="-19.820844650">
<ele>218.035156</ele>
<time>2012-07-21T13:48:54Z</time>
<speed>1.260000</speed>
<extensions>
<speed>1.3</speed>
<temp>0.00</temp>
<bpm>0</bpm>
<rpm>0.00</rpm>
</extensions>
</trkpt>
<trkpt lat="64.124229431" lon="-19.820840836">
<ele>218.765625</ele>
<time>2012-07-21T13:48:59Z</time>
<speed>1.460000</speed>
<extensions>
<speed>1.5</speed>
<temp>0.00</temp>
<bpm>0</bpm>
<rpm>0.00</rpm>
</extensions>
</trkpt>
<trkpt lat="64.124168396" lon="-19.820833206">
<ele>219.164063</ele>
<time>2012-07-21T13:49:04Z</time>
<speed>1.260000</speed>
<extensions>
<speed>1.3</speed>
<temp>0.00</temp>
<bpm>0</bpm>
<rpm>0.00</rpm>
</extensions>
</trkpt>
<trkpt lat="64.124122620" lon="-19.820837021">
<ele>219.847656</ele>
<time>2012-07-21T13:49:09Z</time>
<speed>1.270000</speed>
<extensions>
<speed>1.3</speed>
<temp>0.00</temp>
<bpm>0</bpm>
<rpm>0.00</rpm>
</extensions>
</trkpt>
<trkpt lat="64.124069214" lon="-19.820840836">
<ele>220.742188</ele>
<time>2012-07-21T13:49:14Z</time>
<speed>1.270000</speed>
<extensions>
<speed>1.3</speed>
<temp>0.00</temp>
<bpm>0</bpm>
<rpm>0.00</rpm>
</extensions>
</trkpt>
<trkpt lat="64.124008179" lon="-19.820833206">
<ele>221.074219</ele>
<time>2012-07-21T13:49:19Z</time>
<speed>1.220000</speed>
<extensions>
<speed>1.2</speed>
<temp>0.00</temp>
<bpm>0</bpm>
<rpm>0.00</rpm>
</extensions>
</trkpt>
<trkpt lat="64.123954773" lon="-19.820829391">
<ele>222.230469</ele>
<time>2012-07-21T13:49:24Z</time>
<speed>1.180000</speed>
<extensions>
<speed>1.2</speed>
<temp>0.00</temp>
<bpm>0</bpm>
<rpm>0.00</rpm>
</extensions>
</trkpt>
<trkpt lat="64.123893738" lon="-19.820817947">
<ele>223.011719</ele>
<time>2012-07-21T13:49:29Z</time>
<speed>1.170000</speed>
<extensions>
<speed>1.2</speed>
<temp>0.00</temp>
<bpm>0</bpm>
<rpm>0.00</rpm>
</extensions>
</trkpt>
<trkpt lat="64.123840332" lon="-19.820848465">
<ele>223.445313</ele>
<time>2012-07-21T13:49:34Z</time>
<speed>1.250000</speed>
<extensions>
<speed>1.3</speed>
<temp>0.00</temp>
<bpm>0</bpm>
<rpm>0.00</rpm>
</extensions>
</trkpt>
<trkpt lat="64.123771667" lon="-19.820812225">
<ele>223.750000</ele>
<time>2012-07-21T13:49:39Z</time>
<speed>1.420000</speed>
<extensions>
<speed>1.4</speed>
<temp>0.00</temp>
<bpm>0</bpm>
<rpm>0.00</rpm>
</extensions>
</trkpt>
<trkpt lat="64.123710632" lon="-19.820791245">
<ele>224.144531</ele>
<time>2012-07-21T13:49:44Z</time>
<speed>1.490000</speed>
<extensions>
<speed>1.5</speed>
<temp>0.00</temp>
<bpm>0</bpm>
<rpm>0.00</rpm>
</extensions>
</trkpt>
<trkpt lat="64.123649597" lon="-19.820770264">
<ele>224.695313</ele>
<time>2012-07-21T13:49:49Z</time>
<speed>1.430000</speed>
<extensions>
<speed>1.4</speed>
<temp>0.00</temp>
<bpm>0</bpm>
<rpm>0.00</rpm>
</extensions>
</trkpt>
<trkpt lat="64.123580933" lon="-19.820720673">
<ele>225.312500</ele>
<time>2012-07-21T13:49:54Z</time>
<speed>1.430000</speed>
<extensions>
<speed>1.4</speed>
<temp>0.00</temp>
<bpm>0</bpm>
<rpm>0.00</rpm>
</extensions>
</trkpt>
<trkpt lat="64.123519897" lon="-19.820650101">
<ele>225.800781</ele>
<time>2012-07-21T13:49:59Z</time>
<speed>1.340000</speed>
<extensions>
<speed>1.3</speed>
<temp>0.00</temp>
<bpm>0</bpm>
<rpm>0.00</rpm>
</extensions>
</trkpt>
<trkpt lat="64.123458862" lon="-19.820583344">
<ele>226.476563</ele>
<time>2012-07-21T13:50:04Z</time>
<speed>1.450000</speed>
<extensions>
<speed>1.4</speed>
<temp>0.00</temp>
<bpm>0</bpm>
<rpm>0.00</rpm>
</extensions>
</trkpt>
<trkpt lat="64.123413086" lon="-19.820518494">
<ele>227.093750</ele>
<time>2012-07-21T13:50:09Z</time>
<speed>1.320000</speed>
<extensions>
<speed>1.3</speed>
<temp>0.00</temp>
<bpm>0</bpm>
<rpm>0.00</rpm>
</extensions>
</trkpt>
<trkpt lat="64.123359680" lon="-19.820436478">
<ele>227.863281</ele>
<time>2012-07-21T13:50:14Z</time>
<speed>1.260000</speed>
<extensions>
<speed>1.3</speed>
<temp>0.00</temp>
<bpm>0</bpm>
<rpm>0.00</rpm>
</extensions>
</trkpt>
<trkpt lat="64.123313904" lon="-19.820327759">
<ele>228.406250</ele>
<time>2012-07-21T13:50:19Z</time>
<speed>1.380000</speed>
<extensions>
<speed>1.4</speed>
<temp>0.00</temp>
<bpm>0</bpm>
<rpm>0.00</rpm>
</extensions>
</trkpt>
<trkpt lat="64.123268127" lon="-19.820222855">
<ele>229.031250</ele>
<time>2012-07-21T13:50:24Z</time>
<speed>1.400000</speed>
<extensions>
<speed>1.4</speed>
<temp>0.00</temp>
<bpm>0</bpm>
<rpm>0.00</rpm>
</extensions>
</trkpt>
<trkpt lat="64.123237610" lon="-19.820131302">
<ele>229.843750</ele>
<time>2012-07-21T13:50:29Z</time>
<speed>1.330000</speed>
<extensions>
<speed>1.3</speed>
<temp>0.00</temp>
<bpm>0</bpm>
<rpm>0.00</rpm>
</extensions>
</trkpt>
<trkpt lat="64.123199463" lon="-19.820058823">
<ele>230.105469</ele>
<time>2012-07-21T13:50:34Z</time>
<speed>1.300000</speed>
<extensions>
<speed>1.3</speed>
<temp>0.00</temp>
<bpm>0</bpm>
<rpm>0.00</rpm>
</extensions>
</trkpt>
<trkpt lat="64.123161316" lon="-19.819969177">
<ele>230.496094</ele>
<time>2012-07-21T13:50:39Z</time>
<speed>1.310000</speed>
<extensions>
<speed>1.3</speed>
<temp>0.00</temp>
<bpm>0</bpm>
<rpm>0.00</rpm>
</extensions>
</trkpt>
<trkpt lat="64.123138428" lon="-19.819820404">
<ele>231.476563</ele>
<time>2012-07-21T13:50:44Z</time>
<speed>1.380000</speed>
<extensions>
<speed>1.4</speed>
<temp>0.00</temp>
<bpm>0</bpm>
<rpm>0.00</rpm>
</extensions>
</trkpt>
<trkpt lat="64.123100281" lon="-19.819696426">
<ele>231.964844</ele>
<time>2012-07-21T13:50:49Z</time>
<speed>1.360000</speed>
<extensions>
<speed>1.4</speed>
<temp>0.00</temp>
<bpm>0</bpm>
<rpm>0.00</rpm>
</extensions>
</trkpt>
<trkpt lat="64.123077393" lon="-19.819606781">
<ele>232.292969</ele>
<time>2012-07-21T13:50:54Z</time>
<speed>1.330000</speed>
<extensions>
<speed>1.3</speed>
<temp>0.00</temp>
<bpm>0</bpm>
<rpm>0.00</rpm>
</extensions>
</trkpt>
<trkpt lat="64.123069763" lon="-19.819547653">
<ele>231.593750</ele>
<time>2012-07-21T13:50:59Z</time>
<speed>1.140000</speed>
<extensions>
<speed>1.1</speed>
<temp>0.00</temp>
<bpm>0</bpm>
<rpm>0.00</rpm>
</extensions>
</trkpt>
<trkpt lat="64.123039246" lon="-19.819402695">
<ele>231.511719</ele>
<time>2012-07-21T13:51:04Z</time>
<speed>1.420000</speed>
<extensions>
<speed>1.4</speed>
<temp>0.00</temp>
<bpm>0</bpm>
<rpm>0.00</rpm>
</extensions>
</trkpt>
<trkpt lat="64.123023987" lon="-19.819269180">
<ele>231.527344</ele>
<time>2012-07-21T13:51:09Z</time>
<speed>1.430000</speed>
<extensions>
<speed>1.4</speed>
<temp>0.00</temp>
<bpm>0</bpm>
<rpm>0.00</rpm>
</extensions>
</trkpt>
<trkpt lat="64.123008728" lon="-19.819154739">
<ele>231.378906</ele>
<time>2012-07-21T13:51:14Z</time>
<speed>1.420000</speed>
<extensions>
<speed>1.4</speed>
<temp>0.00</temp>
<bpm>0</bpm>
<rpm>0.00</rpm>
</extensions>
</trkpt>
<trkpt lat="64.122978210" lon="-19.819034576">
<ele>231.218750</ele>
<time>2012-07-21T13:51:19Z</time>
<speed>1.420000</speed>
<extensions>
<speed>1.4</speed>
<temp>0.00</temp>
<bpm>0</bpm>
<rpm>0.00</rpm>
</extensions>
</trkpt>
<trkpt lat="64.122962952" lon="-19.818895340">
<ele>231.406250</ele>
<time>2012-07-21T13:51:24Z</time>
<speed>1.370000</speed>
<extensions>
<speed>1.4</speed>
<temp>0.00</temp>
<bpm>0</bpm>
<rpm>0.00</rpm>
</extensions>
</trkpt>
<trkpt lat="64.122940063" lon="-19.818758011">
<ele>231.230469</ele>
<time>2012-07-21T13:51:29Z</time>
<speed>1.450000</speed>
<extensions>
<speed>1.4</speed>
<temp>0.00</temp>
<bpm>0</bpm>
<rpm>0.00</rpm>
</extensions>
</trkpt>
<trkpt lat="64.122924805" lon="-19.818603516">
<ele>231.562500</ele>
<time>2012-07-21T13:51:34Z</time>
<speed>1.400000</speed>
<extensions>
<speed>1.4</speed>
<temp>0.00</temp>
<bpm>0</bpm>
<rpm>0.00</rpm>
</extensions>
</trkpt>
<trkpt lat="64.122909546" lon="-19.818447113">
<ele>231.792969</ele>
<time>2012-07-21T13:51:39Z</time>
<speed>1.380000</speed>
<extensions>
<speed>1.4</speed>
<temp>0.00</temp>
<bpm>0</bpm>
<rpm>0.00</rpm>
</extensions>
</trkpt>
<trkpt lat="64.122894287" lon="-19.818283081">
<ele>231.738281</ele>
<time>2012-07-21T13:51:44Z</time>
<speed>1.430000</speed>
<extensions>
<speed>1.4</speed>
<temp>0.00</temp>
<bpm>0</bpm>
<rpm>0.00</rpm>
</extensions>
</trkpt>
<trkpt lat="64.122879028" lon="-19.818149567">
<ele>231.218750</ele>
<time>2012-07-21T13:51:49Z</time>
<speed>1.560000</speed>
<extensions>
<speed>1.6</speed>
<temp>0.00</temp>
<bpm>0</bpm>
<rpm>0.00</rpm>
</extensions>
</trkpt>
<trkpt lat="64.122871399" lon="-19.818010330">
<ele>231.746094</ele>
<time>2012-07-21T13:51:54Z</time>
<speed>1.540000</speed>
<extensions>
<speed>1.5</speed>
<temp>0.00</temp>
<bpm>0</bpm>
<rpm>0.00</rpm>
</extensions>
</trkpt>
<trkpt lat="64.122856140" lon="-19.817861557">
<ele>231.976563</ele>
<time>2012-07-21T13:51:59Z</time>
<speed>1.480000</speed>
<extensions>
<speed>1.5</speed>
<temp>0.00</temp>
<bpm>0</bpm>
<rpm>0.00</rpm>
</extensions>
</trkpt>
<trkpt lat="64.122840881" lon="-19.817716599">
<ele>232.027344</ele>
<time>2012-07-21T13:52:04Z</time>
<speed>1.170000</speed>
<extensions>
<speed>1.2</speed>
<temp>0.00</temp>
<bpm>0</bpm>
<rpm>0.00</rpm>
</extensions>
</trkpt>
<trkpt lat="64.122825623" lon="-19.817583084">
<ele>231.031250</ele>
<time>2012-07-21T13:52:09Z</time>
<speed>1.400000</speed>
<extensions>
<speed>1.4</speed>
<temp>0.00</temp>
<bpm>0</bpm>
<rpm>0.00</rpm>
</extensions>
</trkpt>
<trkpt lat="64.122810364" lon="-19.817449570">
<ele>230.746094</ele>
<time>2012-07-21T13:52:14Z</time>
<speed>1.330000</speed>
<extensions>
<speed>1.3</speed>
<temp>0.00</temp>
<bpm>0</bpm>
<rpm>0.00</rpm>
</extensions>
</trkpt>
<trkpt lat="64.122795105" lon="-19.817312241">
<ele>231.171875</ele>
<time>2012-07-21T13:52:19Z</time>
<speed>1.340000</speed>
<extensions>
<speed>1.3</speed>
<temp>0.00</temp>
<bpm>0</bpm>
<rpm>0.00</rpm>
</extensions>
</trkpt>
<trkpt lat="64.122787476" lon="-19.817190170">
<ele>231.117188</ele>
<time>2012-07-21T13:52:24Z</time>
<speed>1.230000</speed>
<extensions>
<speed>1.2</speed>
<temp>0.00</temp>
<bpm>0</bpm>
<rpm>0.00</rpm>
</extensions>
</trkpt>
<trkpt lat="64.122764587" lon="-19.817060471">
<ele>231.390625</ele>
<time>2012-07-21T13:52:29Z</time>
<speed>1.250000</speed>
<extensions>
<speed>1.3</speed>
<temp>0.00</temp>
<bpm>0</bpm>
<rpm>0.00</rpm>
</extensions>
</trkpt>
<trkpt lat="64.122741699" lon="-19.816932678">
<ele>231.664063</ele>
<time>2012-07-21T13:52:34Z</time>
<speed>1.310000</speed>
<extensions>
<speed>1.3</speed>
<temp>0.00</temp>
<bpm>0</bpm>
<rpm>0.00</rpm>
</extensions>
</trkpt>
<trkpt lat="64.122726440" lon="-19.816837311">
<ele>232.308594</ele>
<time>2012-07-21T13:52:39Z</time>
<speed>1.150000</speed>
<extensions>
<speed>1.1</speed>
<temp>0.00</temp>
<bpm>0</bpm>
<rpm>0.00</rpm>
</extensions>
</trkpt>
<trkpt lat="64.122711182" lon="-19.816740036">
<ele>232.765625</ele>
<time>2012-07-21T13:52:44Z</time>
<speed>1.270000</speed>
<extensions>
<speed>1.3</speed>
<temp>0.00</temp>
<bpm>0</bpm>
<rpm>0.00</rpm>
</extensions>
</trkpt>
<trkpt lat="64.122680664" lon="-19.816625595">
<ele>233.285156</ele>
<time>2012-07-21T13:52:49Z</time>
<speed>1.250000</speed>
<extensions>
<speed>1.3</speed>
<temp>0.00</temp>
<bpm>0</bpm>
<rpm>0.00</rpm>
</extensions>
</trkpt>
<trkpt lat="64.122657776" lon="-19.816562653">
<ele>233.542969</ele>
<time>2012-07-21T13:52:54Z</time>
<speed>1.080000</speed>
<extensions>
<speed>1.1</speed>
<temp>0.00</temp>
<bpm>0</bpm>
<rpm>0.00</rpm>
</extensions>
</trkpt>
<trkpt lat="64.122634888" lon="-19.816471100">
<ele>233.960938</ele>
<time>2012-07-21T13:52:59Z</time>
<speed>1.210000</speed>
<extensions>
<speed>1.2</speed>
<temp>0.00</temp>
<bpm>0</bpm>
<rpm>0.00</rpm>
</extensions>
</trkpt>
<trkpt lat="64.122596741" lon="-19.816329956">
<ele>234.753906</ele>
<time>2012-07-21T13:53:04Z</time>
<speed>1.200000</speed>
<extensions>
<speed>1.2</speed>
<temp>0.00</temp>
<bpm>0</bpm>
<rpm>0.00</rpm>
</extensions>
</trkpt>
<trkpt lat="64.122566223" lon="-19.816247940">
<ele>235.292969</ele>
<time>2012-07-21T13:53:09Z</time>
<speed>1.190000</speed>
<extensions>
<speed>1.2</speed>
<temp>0.00</temp>
<bpm>0</bpm>
<rpm>0.00</rpm>
</extensions>
</trkpt>
<trkpt lat="64.122528076" lon="-19.816123962">
<ele>236.281250</ele>
<time>2012-07-21T13:53:14Z</time>
<speed>1.120000</speed>
<extensions>
<speed>1.1</speed>
<temp>0.00</temp>
<bpm>0</bpm>
<rpm>0.00</rpm>
</extensions>
</trkpt>
<trkpt lat="64.122497559" lon="-19.816011429">
<ele>237.281250</ele>
<time>2012-07-21T13:53:19Z</time>
<speed>1.310000</speed>
<extensions>
<speed>1.3</speed>
<temp>0.00</temp>
<bpm>0</bpm>
<rpm>0.00</rpm>
</extensions>
</trkpt>
<trkpt lat="64.122467041" lon="-19.815931320">
<ele>238.281250</ele>
<time>2012-07-21T13:53:24Z</time>
<speed>0.450000</speed>
<extensions>
<speed>0.5</speed>
<temp>0.00</temp>
<bpm>0</bpm>
<rpm>0.00</rpm>
</extensions>
</trkpt>
<trkpt lat="64.122444153" lon="-19.815835953">
<ele>239.460938</ele>
<time>2012-07-21T13:53:29Z</time>
<speed>1.030000</speed>
<extensions>
<speed>1.0</speed>
<temp>0.00</temp>
<bpm>0</bpm>
<rpm>0.00</rpm>
</extensions>
</trkpt>
<trkpt lat="64.122406006" lon="-19.815773010">
<ele>240.335938</ele>
<time>2012-07-21T13:53:34Z</time>
<speed>1.090000</speed>
<extensions>
<speed>1.1</speed>
<temp>0.00</temp>
<bpm>0</bpm>
<rpm>0.00</rpm>
</extensions>
</trkpt>
<trkpt lat="64.122375488" lon="-19.815704346">
<ele>241.078125</ele>
<time>2012-07-21T13:53:39Z</time>
<speed>1.200000</speed>
<extensions>
<speed>1.2</speed>
<temp>0.00</temp>
<bpm>0</bpm>
<rpm>0.00</rpm>
</extensions>
</trkpt>
<trkpt lat="64.122344971" lon="-19.815624237">
<ele>241.773438</ele>
<time>2012-07-21T13:53:44Z</time>
<speed>1.310000</speed>
<extensions>
<speed>1.3</speed>
<temp>0.00</temp>
<bpm>0</bpm>
<rpm>0.00</rpm>
</extensions>
</trkpt>
<trkpt lat="64.122314453" lon="-19.815544128">
<ele>242.589844</ele>
<time>2012-07-21T13:53:49Z</time>
<speed>0.830000</speed>
<extensions>
<speed>0.8</speed>
<temp>0.00</temp>
<bpm>0</bpm>
<rpm>0.00</rpm>
</extensions>
</trkpt>
<trkpt lat="64.122283936" lon="-19.815460205">
<ele>243.671875</ele>
<time>2012-07-21T13:53:54Z</time>
<speed>1.250000</speed>
<extensions>
<speed>1.3</speed>
<temp>0.00</temp>
<bpm>0</bpm>
<rpm>0.00</rpm>
</extensions>
</trkpt>
<trkpt lat="64.122253418" lon="-19.815385818">
<ele>244.437500</ele>
<time>2012-07-21T13:53:59Z</time>
<speed>1.100000</speed>
<extensions>
<speed>1.1</speed>
<temp>0.00</temp>
<bpm>0</bpm>
<rpm>0.00</rpm>
</extensions>
</trkpt>
<trkpt lat="64.122215271" lon="-19.815319061">
<ele>245.207031</ele>
<time>2012-07-21T13:54:04Z</time>
<speed>1.000000</speed>
<extensions>
<speed>1.0</speed>
<temp>0.00</temp>
<bpm>0</bpm>
<rpm>0.00</rpm>
</extensions>
</trkpt>
<trkpt lat="64.122184753" lon="-19.815240860">
<ele>245.929688</ele>
<time>2012-07-21T13:54:09Z</time>
<speed>1.180000</speed>
<extensions>
<speed>1.2</speed>
<temp>0.00</temp>
<bpm>0</bpm>
<rpm>0.00</rpm>
</extensions>
</trkpt>
<trkpt lat="64.122154236" lon="-19.815145493">
<ele>246.742188</ele>
<time>2012-07-21T13:54:14Z</time>
<speed>1.090000</speed>
<extensions>
<speed>1.1</speed>
<temp>0.00</temp>
<bpm>0</bpm>
<rpm>0.00</rpm>
</extensions>
</trkpt>
<trkpt lat="64.122116089" lon="-19.815059662">
<ele>247.617188</ele>
<time>2012-07-21T13:54:19Z</time>
<speed>1.170000</speed>
<extensions>
<speed>1.2</speed>
<temp>0.00</temp>
<bpm>0</bpm>
<rpm>0.00</rpm>
</extensions>
</trkpt>
<trkpt lat="64.122085571" lon="-19.814998627">
<ele>247.945313</ele>
<time>2012-07-21T13:54:24Z</time>
<speed>1.260000</speed>
<extensions>
<speed>1.3</speed>
<temp>0.00</temp>
<bpm>0</bpm>
<rpm>0.00</rpm>
</extensions>
</trkpt>
<trkpt lat="64.122047424" lon="-19.814933777">
<ele>248.562500</ele>
<time>2012-07-21T13:54:29Z</time>
<speed>0.780000</speed>
<extensions>
<speed>0.8</speed>
<temp>0.00</temp>
<bpm>0</bpm>
<rpm>0.00</rpm>
</extensions>
</trkpt>
<trkpt lat="64.122016907" lon="-19.814870834">
<ele>248.789063</ele>
<time>2012-07-21T13:54:34Z</time>
<speed>1.380000</speed>
<extensions>
<speed>1.4</speed>
<temp>0.00</temp>
<bpm>0</bpm>
<rpm>0.00</rpm>
</extensions>
</trkpt>
<trkpt lat="64.121978760" lon="-19.814779282">
<ele>249.253906</ele>
<time>2012-07-21T13:54:39Z</time>
<speed>1.200000</speed>
<extensions>
<speed>1.2</speed>
<temp>0.00</temp>
<bpm>0</bpm>
<rpm>0.00</rpm>
</extensions>
</trkpt>
<trkpt lat="64.121940613" lon="-19.814689636">
<ele>249.539063</ele>
<time>2012-07-21T13:54:44Z</time>
<speed>1.220000</speed>
<extensions>
<speed>1.2</speed>
<temp>0.00</temp>
<bpm>0</bpm>
<rpm>0.00</rpm>
</extensions>
</trkpt>
<trkpt lat="64.121910095" lon="-19.814550400">
<ele>250.714844</ele>
<time>2012-07-21T13:54:49Z</time>
<speed>0.970000</speed>
<extensions>
<speed>1.0</speed>
<temp>0.00</temp>
<bpm>0</bpm>
<rpm>0.00</rpm>
</extensions>
</trkpt>
<trkpt lat="64.121879578" lon="-19.814464569">
<ele>251.683594</ele>
<time>2012-07-21T13:54:54Z</time>
<speed>1.060000</speed>
<extensions>
<speed>1.1</speed>
<temp>0.00</temp>
<bpm>0</bpm>
<rpm>0.00</rpm>
</extensions>
</trkpt>
<trkpt lat="64.121841431" lon="-19.814365387">
<ele>252.976563</ele>
<time>2012-07-21T13:54:59Z</time>
<speed>0.940000</speed>
<extensions>
<speed>0.9</speed>
<temp>0.00</temp>
<bpm>0</bpm>
<rpm>0.00</rpm>
</extensions>
</trkpt>
<trkpt lat="64.121818542" lon="-19.814268112">
<ele>254.144531</ele>
<time>2012-07-21T13:55:04Z</time>
<speed>1.200000</speed>
<extensions>
<speed>1.2</speed>
<temp>0.00</temp>
<bpm>0</bpm>
<rpm>0.00</rpm>
</extensions>
</trkpt>
<trkpt lat="64.121788025" lon="-19.814163208">
<ele>255.082031</ele>
<time>2012-07-21T13:55:09Z</time>
<speed>1.100000</speed>
<extensions>
<speed>1.1</speed>
<temp>0.00</temp>
<bpm>0</bpm>
<rpm>0.00</rpm>
</extensions>
</trkpt>
<trkpt lat="64.121757507" lon="-19.814071655">
<ele>255.687500</ele>
<time>2012-07-21T13:55:14Z</time>
<speed>1.340000</speed>
<extensions>
<speed>1.3</speed>
<temp>0.00</temp>
<bpm>0</bpm>
<rpm>0.00</rpm>
</extensions>
</trkpt>
<trkpt lat="64.121726990" lon="-19.813957214">
<ele>256.414063</ele>
<time>2012-07-21T13:55:19Z</time>
<speed>1.220000</speed>
<extensions>
<speed>1.2</speed>
<temp>0.00</temp>
<bpm>0</bpm>
<rpm>0.00</rpm>
</extensions>
</trkpt>
<trkpt lat="64.121704102" lon="-19.813844681">
<ele>257.054688</ele>
<time>2012-07-21T13:55:24Z</time>
<speed>1.150000</speed>
<extensions>
<speed>1.1</speed>
<temp>0.00</temp>
<bpm>0</bpm>
<rpm>0.00</rpm>
</extensions>
</trkpt>
<trkpt lat="64.121681213" lon="-19.813756943">
<ele>257.007813</ele>
<time>2012-07-21T13:55:29Z</time>
<speed>1.080000</speed>
<extensions>
<speed>1.1</speed>
<temp>0.00</temp>
<bpm>0</bpm>
<rpm>0.00</rpm>
</extensions>
</trkpt>
<trkpt lat="64.121665955" lon="-19.813661575">
<ele>257.234375</ele>
<time>2012-07-21T13:55:34Z</time>
<speed>0.910000</speed>
<extensions>
<speed>0.9</speed>
<temp>0.00</temp>
<bpm>0</bpm>
<rpm>0.00</rpm>
</extensions>
</trkpt>
<trkpt lat="64.121658325" lon="-19.813610077">
<ele>256.898438</ele>
<time>2012-07-21T13:55:39Z</time>
<speed>1.120000</speed>
<extensions>
<speed>1.1</speed>
<temp>0.00</temp>
<bpm>0</bpm>
<rpm>0.00</rpm>
</extensions>
</trkpt>
<trkpt lat="64.121643066" lon="-19.813505173">
<ele>257.226563</ele>
<time>2012-07-21T13:55:44Z</time>
<speed>0.980000</speed>
<extensions>
<speed>1.0</speed>
<temp>0.00</temp>
<bpm>0</bpm>
<rpm>0.00</rpm>
</extensions>
</trkpt>
<trkpt lat="64.121627808" lon="-19.813392639">
<ele>257.007813</ele>
<time>2012-07-21T13:55:49Z</time>
<speed>1.020000</speed>
<extensions>
<speed>1.0</speed>
<temp>0.00</temp>
<bpm>0</bpm>
<rpm>0.00</rpm>
</extensions>
</trkpt>
<trkpt lat="64.121612549" lon="-19.813306808">
<ele>256.437500</ele>
<time>2012-07-21T13:55:54Z</time>
<speed>1.110000</speed>
<extensions>
<speed>1.1</speed>
<temp>0.00</temp>
<bpm>0</bpm>
<rpm>0.00</rpm>
</extensions>
</trkpt>
<trkpt lat="64.121597290" lon="-19.813199997">
<ele>256.179688</ele>
<time>2012-07-21T13:55:59Z</time>
<speed>1.210000</speed>
<extensions>
<speed>1.2</speed>
<temp>0.00</temp>
<bpm>0</bpm>
<rpm>0.00</rpm>
</extensions>
</trkpt>
<trkpt lat="64.121582031" lon="-19.813085556">
<ele>255.882813</ele>
<time>2012-07-21T13:56:04Z</time>
<speed>1.200000</speed>
<extensions>
<speed>1.2</speed>
<temp>0.00</temp>
<bpm>0</bpm>
<rpm>0.00</rpm>
</extensions>
</trkpt>
<trkpt lat="64.121574402" lon="-19.812957764">
<ele>255.792969</ele>
<time>2012-07-21T13:56:09Z</time>
<speed>1.190000</speed>
<extensions>
<speed>1.2</speed>
<temp>0.00</temp>
<bpm>0</bpm>
<rpm>0.00</rpm>
</extensions>
</trkpt>
<trkpt lat="64.121574402" lon="-19.812829971">
<ele>256.101563</ele>
<time>2012-07-21T13:56:14Z</time>
<speed>1.230000</speed>
<extensions>
<speed>1.2</speed>
<temp>0.00</temp>
<bpm>0</bpm>
<rpm>0.00</rpm>
</extensions>
</trkpt>
<trkpt lat="64.121559143" lon="-19.812686920">
<ele>256.312500</ele>
<time>2012-07-21T13:56:19Z</time>
<speed>1.220000</speed>
<extensions>
<speed>1.2</speed>
<temp>0.00</temp>
<bpm>0</bpm>
<rpm>0.00</rpm>
</extensions>
</trkpt>
<trkpt lat="64.121559143" lon="-19.812555313">
<ele>256.710938</ele>
<time>2012-07-21T13:56:24Z</time>
<speed>1.310000</speed>
<extensions>
<speed>1.3</speed>
<temp>0.00</temp>
<bpm>0</bpm>
<rpm>0.00</rpm>
</extensions>
</trkpt>
<trkpt lat="64.121551514" lon="-19.812417984">
<ele>257.078125</ele>
<time>2012-07-21T13:56:29Z</time>
<speed>1.460000</speed>
<extensions>
<speed>1.5</speed>
<temp>0.00</temp>
<bpm>0</bpm>
<rpm>0.00</rpm>
</extensions>
</trkpt>
<trkpt lat="64.121551514" lon="-19.812274933">
<ele>257.210938</ele>
<time>2012-07-21T13:56:34Z</time>
<speed>1.360000</speed>
<extensions>
<speed>1.4</speed>
<temp>0.00</temp>
<bpm>0</bpm>
<rpm>0.00</rpm>
</extensions>
</trkpt>
<trkpt lat="64.121559143" lon="-19.812141418">
<ele>256.570313</ele>
<time>2012-07-21T13:56:39Z</time>
<speed>1.240000</speed>
<extensions>
<speed>1.2</speed>
<temp>0.00</temp>
<bpm>0</bpm>
<rpm>0.00</rpm>
</extensions>
</trkpt>
<trkpt lat="64.121559143" lon="-19.812011719">
<ele>256.539063</ele>
<time>2012-07-21T13:56:44Z</time>
<speed>1.290000</speed>
<extensions>
<speed>1.3</speed>
<temp>0.00</temp>
<bpm>0</bpm>
<rpm>0.00</rpm>
</extensions>
</trkpt>
<trkpt lat="64.121543884" lon="-19.811872482">
<ele>256.140625</ele>
<time>2012-07-21T13:56:49Z</time>
<speed>1.420000</speed>
<extensions>
<speed>1.4</speed>
<temp>0.00</temp>
<bpm>0</bpm>
<rpm>0.00</rpm>
</extensions>
</trkpt>
<trkpt lat="64.121536255" lon="-19.811738968">
<ele>255.367188</ele>
<time>2012-07-21T13:56:54Z</time>
<speed>1.400000</speed>
<extensions>
<speed>1.4</speed>
<temp>0.00</temp>
<bpm>0</bpm>
<rpm>0.00</rpm>
</extensions>
</trkpt>
<trkpt lat="64.121520996" lon="-19.811601639">
<ele>255.023438</ele>
<time>2012-07-21T13:56:59Z</time>
<speed>1.300000</speed>
<extensions>
<speed>1.3</speed>
<temp>0.00</temp>
<bpm>0</bpm>
<rpm>0.00</rpm>
</extensions>
</trkpt>
<trkpt lat="64.121513367" lon="-19.811487198">
<ele>254.933594</ele>
<time>2012-07-21T13:57:04Z</time>
<speed>1.210000</speed>
<extensions>
<speed>1.2</speed>
<temp>0.00</temp>
<bpm>0</bpm>
<rpm>0.00</rpm>
</extensions>
</trkpt>
<trkpt lat="64.121513367" lon="-19.811475754">
<ele>256.109375</ele>
<time>2012-07-21T13:57:09Z</time>
<speed>0.010000</speed>
<extensions>
<speed>0.0</speed>
<temp>0.00</temp>
<bpm>0</bpm>
<rpm>0.00</rpm>
</extensions>
</trkpt>
<trkpt lat="64.121505737" lon="-19.811445236">
<ele>255.890625</ele>
<time>2012-07-21T13:57:14Z</time>
<speed>0.260000</speed>
<extensions>
<speed>0.3</speed>
<temp>0.00</temp>
<bpm>0</bpm>
<rpm>0.00</rpm>
</extensions>
</trkpt>
<trkpt lat="64.121505737" lon="-19.811424255">
<ele>255.687500</ele>
<time>2012-07-21T13:57:19Z</time>
<speed>0.950000</speed>
<extensions>
<speed>1.0</speed>
<temp>0.00</temp>
<bpm>0</bpm>
<rpm>0.00</rpm>
</extensions>
</trkpt>
<trkpt lat="64.121498108" lon="-19.811267853">
<ele>256.093750</ele>
<time>2012-07-21T13:57:24Z</time>
<speed>1.910000</speed>
<extensions>
<speed>1.9</speed>
<temp>0.00</temp>
<bpm>0</bpm>
<rpm>0.00</rpm>
</extensions>
</trkpt>
<trkpt lat="64.121475220" lon="-19.811042786">
<ele>256.492188</ele>
<time>2012-07-21T13:57:29Z</time>
<speed>1.980000</speed>
<extensions>
<speed>2.0</speed>
<temp>0.00</temp>
<bpm>0</bpm>
<rpm>0.00</rpm>
</extensions>
</trkpt>
<trkpt lat="64.121421814" lon="-19.810810089">
<ele>256.921875</ele>
<time>2012-07-21T13:57:34Z</time>
<speed>2.620000</speed>
<extensions>
<speed>2.6</speed>
<temp>0.00</temp>
<bpm>0</bpm>
<rpm>0.00</rpm>
</extensions>
</trkpt>
<trkpt lat="64.121376038" lon="-19.810554504">
<ele>257.570313</ele>
<time>2012-07-21T13:57:39Z</time>
<speed>2.730000</speed>
<extensions>
<speed>2.7</speed>
<temp>0.00</temp>
<bpm>0</bpm>
<rpm>0.00</rpm>
</extensions>
</trkpt>
<trkpt lat="64.121315002" lon="-19.810302734">
<ele>257.843750</ele>
<time>2012-07-21T13:57:44Z</time>
<speed>2.840000</speed>
<extensions>
<speed>2.8</speed>
<temp>0.00</temp>
<bpm>0</bpm>
<rpm>0.00</rpm>
</extensions>
</trkpt>
<trkpt lat="64.121231079" lon="-19.810047150">
<ele>258.500000</ele>
<time>2012-07-21T13:57:49Z</time>
<speed>3.000000</speed>
<extensions>
<speed>3.0</speed>
<temp>0.00</temp>
<bpm>0</bpm>
<rpm>0.00</rpm>
</extensions>
</trkpt>
<trkpt lat="64.121147156" lon="-19.809804916">
<ele>258.601563</ele>
<time>2012-07-21T13:57:54Z</time>
<speed>3.120000</speed>
<extensions>
<speed>3.1</speed>
<temp>0.00</temp>
<bpm>0</bpm>
<rpm>0.00</rpm>
</extensions>
</trkpt>
<trkpt lat="64.121055603" lon="-19.809593201">
<ele>258.875000</ele>
<time>2012-07-21T13:57:59Z</time>
<speed>2.810000</speed>
<extensions>
<speed>2.8</speed>
<temp>0.00</temp>
<bpm>0</bpm>
<rpm>0.00</rpm>
</extensions>
</trkpt>
<trkpt lat="64.120971680" lon="-19.809410095">
<ele>259.242188</ele>
<time>2012-07-21T13:58:04Z</time>
<speed>2.680000</speed>
<extensions>
<speed>2.7</speed>
<temp>0.00</temp>
<bpm>0</bpm>
<rpm>0.00</rpm>
</extensions>
</trkpt>
<trkpt lat="64.120880127" lon="-19.809251785">
<ele>259.179688</ele>
<time>2012-07-21T13:58:09Z</time>
<speed>2.760000</speed>
<extensions>
<speed>2.8</speed>
<temp>0.00</temp>
<bpm>0</bpm>
<rpm>0.00</rpm>
</extensions>
</trkpt>
<trkpt lat="64.120780945" lon="-19.809072495">
<ele>259.781250</ele>
<time>2012-07-21T13:58:14Z</time>
<speed>2.780000</speed>
<extensions>
<speed>2.8</speed>
<temp>0.00</temp>
<bpm>0</bpm>
<rpm>0.00</rpm>
</extensions>
</trkpt>
<trkpt lat="64.120651245" lon="-19.808912277">
<ele>260.304688</ele>
<time>2012-07-21T13:58:19Z</time>
<speed>3.350000</speed>
<extensions>
<speed>3.4</speed>
<temp>0.00</temp>
<bpm>0</bpm>
<rpm>0.00</rpm>
</extensions>
</trkpt>
<trkpt lat="64.120521545" lon="-19.808742523">
<ele>260.492188</ele>
<time>2012-07-21T13:58:24Z</time>
<speed>3.070000</speed>
<extensions>
<speed>3.1</speed>
<temp>0.00</temp>
<bpm>0</bpm>
<rpm>0.00</rpm>
</extensions>
</trkpt>
<trkpt lat="64.120399475" lon="-19.808620453">
<ele>260.976563</ele>
<time>2012-07-21T13:58:29Z</time>
<speed>3.030000</speed>
<extensions>
<speed>3.0</speed>
<temp>0.00</temp>
<bpm>0</bpm>
<rpm>0.00</rpm>
</extensions>
</trkpt>
<trkpt lat="64.120269775" lon="-19.808546066">
<ele>261.210938</ele>
<time>2012-07-21T13:58:34Z</time>
<speed>3.310000</speed>
<extensions>
<speed>3.3</speed>
<temp>0.00</temp>
<bpm>0</bpm>
<rpm>0.00</rpm>
</extensions>
</trkpt>
<trkpt lat="64.120132446" lon="-19.808506012">
<ele>261.796875</ele>
<time>2012-07-21T13:58:39Z</time>
<speed>3.060000</speed>
<extensions>
<speed>3.1</speed>
<temp>0.00</temp>
<bpm>0</bpm>
<rpm>0.00</rpm>
</extensions>
</trkpt>
<trkpt lat="64.119995117" lon="-19.808462143">
<ele>262.250000</ele>
<time>2012-07-21T13:58:44Z</time>
<speed>3.400000</speed>
<extensions>
<speed>3.4</speed>
<temp>0.00</temp>
<bpm>0</bpm>
<rpm>0.00</rpm>
</extensions>
</trkpt>
<trkpt lat="64.119842529" lon="-19.808401108">
<ele>262.601563</ele>
<time>2012-07-21T13:58:49Z</time>
<speed>3.410000</speed>
<extensions>
<speed>3.4</speed>
<temp>0.00</temp>
<bpm>0</bpm>
<rpm>0.00</rpm>
</extensions>
</trkpt>
<trkpt lat="64.119697571" lon="-19.808380127">
<ele>262.726563</ele>
<time>2012-07-21T13:58:54Z</time>
<speed>3.170000</speed>
<extensions>
<speed>3.2</speed>
<temp>0.00</temp>
<bpm>0</bpm>
<rpm>0.00</rpm>
</extensions>
</trkpt>
<trkpt lat="64.119583130" lon="-19.808315277">
<ele>263.375000</ele>
<time>2012-07-21T13:58:59Z</time>
<speed>2.670000</speed>
<extensions>
<speed>2.7</speed>
<temp>0.00</temp>
<bpm>0</bpm>
<rpm>0.00</rpm>
</extensions>
</trkpt>
<trkpt lat="64.119476318" lon="-19.808261871">
<ele>263.187500</ele>
<time>2012-07-21T13:59:04Z</time>
<speed>2.380000</speed>
<extensions>
<speed>2.4</speed>
<temp>0.00</temp>
<bpm>0</bpm>
<rpm>0.00</rpm>
</extensions>
</trkpt>
<trkpt lat="64.119361877" lon="-19.808166504">
<ele>263.406250</ele>
<time>2012-07-21T13:59:09Z</time>
<speed>2.780000</speed>
<extensions>
<speed>2.8</speed>
<temp>0.00</temp>
<bpm>0</bpm>
<rpm>0.00</rpm>
</extensions>
</trkpt>
<trkpt lat="64.119247437" lon="-19.808050156">
<ele>264.695313</ele>
<time>2012-07-21T13:59:14Z</time>
<speed>2.770000</speed>
<extensions>
<speed>2.8</speed>
<temp>0.00</temp>
<bpm>0</bpm>
<rpm>0.00</rpm>
</extensions>
</trkpt>
<trkpt lat="64.119140625" lon="-19.807943344">
<ele>266.203125</ele>
<time>2012-07-21T13:59:19Z</time>
<speed>1.940000</speed>
<extensions>
<speed>1.9</speed>
<temp>0.00</temp>
<bpm>0</bpm>
<rpm>0.00</rpm>
</extensions>
</trkpt>
<trkpt lat="64.119041443" lon="-19.807859421">
<ele>267.406250</ele>
<time>2012-07-21T13:59:24Z</time>
<speed>2.230000</speed>
<extensions>
<speed>2.2</speed>
<temp>0.00</temp>
<bpm>0</bpm>
<rpm>0.00</rpm>
</extensions>
</trkpt>
<trkpt lat="64.118949890" lon="-19.807773590">
<ele>268.078125</ele>
<time>2012-07-21T13:59:29Z</time>
<speed>2.160000</speed>
<extensions>
<speed>2.2</speed>
<temp>0.00</temp>
<bpm>0</bpm>
<rpm>0.00</rpm>
</extensions>
</trkpt>
<trkpt lat="64.118858337" lon="-19.807701111">
<ele>269.265625</ele>
<time>2012-07-21T13:59:34Z</time>
<speed>1.920000</speed>
<extensions>
<speed>1.9</speed>
<temp>0.00</temp>
<bpm>0</bpm>
<rpm>0.00</rpm>
</extensions>
</trkpt>
<trkpt lat="64.118789673" lon="-19.807573318">
<ele>270.492188</ele>
<time>2012-07-21T13:59:39Z</time>
<speed>1.950000</speed>
<extensions>
<speed>1.9</speed>
<temp>0.00</temp>
<bpm>0</bpm>
<rpm>0.00</rpm>
</extensions>
</trkpt>
<trkpt lat="64.118705750" lon="-19.807481766">
<ele>271.546875</ele>
<time>2012-07-21T13:59:44Z</time>
<speed>2.020000</speed>
<extensions>
<speed>2.0</speed>
<temp>0.00</temp>
<bpm>0</bpm>
<rpm>0.00</rpm>
</extensions>
</trkpt>
<trkpt lat="64.118637085" lon="-19.807384491">
<ele>272.484375</ele>
<time>2012-07-21T13:59:49Z</time>
<speed>1.620000</speed>
<extensions>
<speed>1.6</speed>
<temp>0.00</temp>
<bpm>0</bpm>
<rpm>0.00</rpm>
</extensions>
</trkpt>
<trkpt lat="64.118568420" lon="-19.807292938">
<ele>273.156250</ele>
<time>2012-07-21T13:59:54Z</time>
<speed>1.740000</speed>
<extensions>
<speed>1.7</speed>
<temp>0.00</temp>
<bpm>0</bpm>
<rpm>0.00</rpm>
</extensions>
</trkpt>
<trkpt lat="64.118492126" lon="-19.807203293">
<ele>273.867188</ele>
<time>2012-07-21T13:59:59Z</time>
<speed>1.910000</speed>
<extensions>
<speed>1.9</speed>
<temp>0.00</temp>
<bpm>0</bpm>
<rpm>0.00</rpm>
</extensions>
</trkpt>
<trkpt lat="64.118415833" lon="-19.807125092">
<ele>274.601563</ele>
<time>2012-07-21T14:00:04Z</time>
<speed>1.690000</speed>
<extensions>
<speed>1.7</speed>
<temp>0.00</temp>
<bpm>0</bpm>
<rpm>0.00</rpm>
</extensions>
</trkpt>
<trkpt lat="64.118362427" lon="-19.807052612">
<ele>275.367188</ele>
<time>2012-07-21T14:00:09Z</time>
<speed>0.730000</speed>
<extensions>
<speed>0.7</speed>
<temp>0.00</temp>
<bpm>0</bpm>
<rpm>0.00</rpm>
</extensions>
</trkpt>
<trkpt lat="64.118331909" lon="-19.806997299">
<ele>276.015625</ele>
<time>2012-07-21T14:00:14Z</time>
<speed>1.770000</speed>
<extensions>
<speed>1.8</speed>
<temp>0.00</temp>
<bpm>0</bpm>
<rpm>0.00</rpm>
</extensions>
</trkpt>
<trkpt lat="64.118255615" lon="-19.806905746">
<ele>276.640625</ele>
<time>2012-07-21T14:00:19Z</time>
<speed>1.640000</speed>
<extensions>
<speed>1.6</speed>
<temp>0.00</temp>
<bpm>0</bpm>
<rpm>0.00</rpm>
</extensions>
</trkpt>
<trkpt lat="64.118209839" lon="-19.806814194">
<ele>277.023438</ele>
<time>2012-07-21T14:00:24Z</time>
<speed>1.100000</speed>
<extensions>
<speed>1.1</speed>
<temp>0.00</temp>
<bpm>0</bpm>
<rpm>0.00</rpm>
</extensions>
</trkpt>
<trkpt lat="64.118156433" lon="-19.806741714">
<ele>276.617188</ele>
<time>2012-07-21T14:00:29Z</time>
<speed>1.600000</speed>
<extensions>
<speed>1.6</speed>
<temp>0.00</temp>
<bpm>0</bpm>
<rpm>0.00</rpm>
</extensions>
</trkpt>
<trkpt lat="64.118103027" lon="-19.806638718">
<ele>276.835938</ele>
<time>2012-07-21T14:00:34Z</time>
<speed>1.360000</speed>
<extensions>
<speed>1.4</speed>
<temp>0.00</temp>
<bpm>0</bpm>
<rpm>0.00</rpm>
</extensions>
</trkpt>
<trkpt lat="64.118041992" lon="-19.806533813">
<ele>277.343750</ele>
<time>2012-07-21T14:00:39Z</time>
<speed>1.830000</speed>
<extensions>
<speed>1.8</speed>
<temp>0.00</temp>
<bpm>0</bpm>
<rpm>0.00</rpm>
</extensions>
</trkpt>
<trkpt lat="64.117973328" lon="-19.806409836">
<ele>277.781250</ele>
<time>2012-07-21T14:00:44Z</time>
<speed>1.860000</speed>
<extensions>
<speed>1.9</speed>
<temp>0.00</temp>
<bpm>0</bpm>
<rpm>0.00</rpm>
</extensions>
</trkpt>
<trkpt lat="64.117904663" lon="-19.806291580">
<ele>278.257813</ele>
<time>2012-07-21T14:00:49Z</time>
<speed>1.960000</speed>
<extensions>
<speed>2.0</speed>
<temp>0.00</temp>
<bpm>0</bpm>
<rpm>0.00</rpm>
</extensions>
</trkpt>
<trkpt lat="64.117835999" lon="-19.806123734">
<ele>279.101563</ele>
<time>2012-07-21T14:00:54Z</time>
<speed>2.030000</speed>
<extensions>
<speed>2.0</speed>
<temp>0.00</temp>
<bpm>0</bpm>
<rpm>0.00</rpm>
</extensions>
</trkpt>
<trkpt lat="64.117782593" lon="-19.806024551">
<ele>279.640625</ele>
<time>2012-07-21T14:00:59Z</time>
<speed>1.500000</speed>
<extensions>
<speed>1.5</speed>
<temp>0.00</temp>
<bpm>0</bpm>
<rpm>0.00</rpm>
</extensions>
</trkpt>
<trkpt lat="64.117721558" lon="-19.805875778">
<ele>280.593750</ele>
<time>2012-07-21T14:01:04Z</time>
<speed>1.900000</speed>
<extensions>
<speed>1.9</speed>
<temp>0.00</temp>
<bpm>0</bpm>
<rpm>0.00</rpm>
</extensions>
</trkpt>
<trkpt lat="64.117660522" lon="-19.805732727">
<ele>281.367188</ele>
<time>2012-07-21T14:01:09Z</time>
<speed>1.820000</speed>
<extensions>
<speed>1.8</speed>
<temp>0.00</temp>
<bpm>0</bpm>
<rpm>0.00</rpm>
</extensions>
</trkpt>
<trkpt lat="64.117607117" lon="-19.805601120">
<ele>282.546875</ele>
<time>2012-07-21T14:01:14Z</time>
<speed>1.290000</speed>
<extensions>
<speed>1.3</speed>
<temp>0.00</temp>
<bpm>0</bpm>
<rpm>0.00</rpm>
</extensions>
</trkpt>
<trkpt lat="64.117568970" lon="-19.805480957">
<ele>283.351563</ele>
<time>2012-07-21T14:01:19Z</time>
<speed>1.450000</speed>
<extensions>
<speed>1.4</speed>
<temp>0.00</temp>
<bpm>0</bpm>
<rpm>0.00</rpm>
</extensions>
</trkpt>
<trkpt lat="64.117523193" lon="-19.805355072">
<ele>284.062500</ele>
<time>2012-07-21T14:01:24Z</time>
<speed>1.660000</speed>
<extensions>
<speed>1.7</speed>
<temp>0.00</temp>
<bpm>0</bpm>
<rpm>0.00</rpm>
</extensions>
</trkpt>
<trkpt lat="64.117485046" lon="-19.805221558">
<ele>284.156250</ele>
<time>2012-07-21T14:01:29Z</time>
<speed>1.640000</speed>
<extensions>
<speed>1.6</speed>
<temp>0.00</temp>
<bpm>0</bpm>
<rpm>0.00</rpm>
</extensions>
</trkpt>
<trkpt lat="64.117439270" lon="-19.805107117">
<ele>284.617188</ele>
<time>2012-07-21T14:01:34Z</time>
<speed>1.350000</speed>
<extensions>
<speed>1.4</speed>
<temp>0.00</temp>
<bpm>0</bpm>
<rpm>0.00</rpm>
</extensions>
</trkpt>
<trkpt lat="64.117401123" lon="-19.805038452">
<ele>284.335938</ele>
<time>2012-07-21T14:01:39Z</time>
<speed>1.470000</speed>
<extensions>
<speed>1.5</speed>
<temp>0.00</temp>
<bpm>0</bpm>
<rpm>0.00</rpm>
</extensions>
</trkpt>
<trkpt lat="64.117370605" lon="-19.804948807">
<ele>284.609375</ele>
<time>2012-07-21T14:01:44Z</time>
<speed>1.370000</speed>
<extensions>
<speed>1.4</speed>
<temp>0.00</temp>
<bpm>0</bpm>
<rpm>0.00</rpm>
</extensions>
</trkpt>
<trkpt lat="64.117340088" lon="-19.804851532">
<ele>285.117188</ele>
<time>2012-07-21T14:01:49Z</time>
<speed>1.410000</speed>
<extensions>
<speed>1.4</speed>
<temp>0.00</temp>
<bpm>0</bpm>
<rpm>0.00</rpm>
</extensions>
</trkpt>
<trkpt lat="64.117301941" lon="-19.804702759">
<ele>285.664063</ele>
<time>2012-07-21T14:01:54Z</time>
<speed>1.770000</speed>
<extensions>
<speed>1.8</speed>
<temp>0.00</temp>
<bpm>0</bpm>
<rpm>0.00</rpm>
</extensions>
</trkpt>
<trkpt lat="64.117256165" lon="-19.804550171">
<ele>285.796875</ele>
<time>2012-07-21T14:01:59Z</time>
<speed>1.430000</speed>
<extensions>
<speed>1.4</speed>
<temp>0.00</temp>
<bpm>0</bpm>
<rpm>0.00</rpm>
</extensions>
</trkpt>
<trkpt lat="64.117218018" lon="-19.804456711">
<ele>286.125000</ele>
<time>2012-07-21T14:02:04Z</time>
<speed>1.480000</speed>
<extensions>
<speed>1.5</speed>
<temp>0.00</temp>
<bpm>0</bpm>
<rpm>0.00</rpm>
</extensions>
</trkpt>
<trkpt lat="64.117179871" lon="-19.804328918">
<ele>286.562500</ele>
<time>2012-07-21T14:02:09Z</time>
<speed>1.440000</speed>
<extensions>
<speed>1.4</speed>
<temp>0.00</temp>
<bpm>0</bpm>
<rpm>0.00</rpm>
</extensions>
</trkpt>
<trkpt lat="64.117156982" lon="-19.804218292">
<ele>286.500000</ele>
<time>2012-07-21T14:02:14Z</time>
<speed>1.310000</speed>
<extensions>
<speed>1.3</speed>
<temp>0.00</temp>
<bpm>0</bpm>
<rpm>0.00</rpm>
</extensions>
</trkpt>
<trkpt lat="64.117111206" lon="-19.804115295">
<ele>286.937500</ele>
<time>2012-07-21T14:02:19Z</time>
<speed>1.350000</speed>
<extensions>
<speed>1.4</speed>
<temp>0.00</temp>
<bpm>0</bpm>
<rpm>0.00</rpm>
</extensions>
</trkpt>
<trkpt lat="64.117080688" lon="-19.804000854">
<ele>287.515625</ele>
<time>2012-07-21T14:02:24Z</time>
<speed>1.420000</speed>
<extensions>
<speed>1.4</speed>
<temp>0.00</temp>
<bpm>0</bpm>
<rpm>0.00</rpm>
</extensions>
</trkpt>
<trkpt lat="64.117050171" lon="-19.803890228">
<ele>287.679688</ele>
<time>2012-07-21T14:02:29Z</time>
<speed>1.520000</speed>
<extensions>
<speed>1.5</speed>
<temp>0.00</temp>
<bpm>0</bpm>
<rpm>0.00</rpm>
</extensions>
</trkpt>
<trkpt lat="64.117012024" lon="-19.803747177">
<ele>288.203125</ele>
<time>2012-07-21T14:02:34Z</time>
<speed>1.440000</speed>
<extensions>
<speed>1.4</speed>
<temp>0.00</temp>
<bpm>0</bpm>
<rpm>0.00</rpm>
</extensions>
</trkpt>
<trkpt lat="64.116973877" lon="-19.803602219">
<ele>288.281250</ele>
<time>2012-07-21T14:02:39Z</time>
<speed>1.480000</speed>
<extensions>
<speed>1.5</speed>
<temp>0.00</temp>
<bpm>0</bpm>
<rpm>0.00</rpm>
</extensions>
</trkpt>
<trkpt lat="64.116935730" lon="-19.803447723">
<ele>288.570313</ele>
<time>2012-07-21T14:02:44Z</time>
<speed>1.530000</speed>
<extensions>
<speed>1.5</speed>
<temp>0.00</temp>
<bpm>0</bpm>
<rpm>0.00</rpm>
</extensions>
</trkpt>
<trkpt lat="64.116905212" lon="-19.803291321">
<ele>289.148438</ele>
<time>2012-07-21T14:02:49Z</time>
<speed>1.550000</speed>
<extensions>
<speed>1.5</speed>
<temp>0.00</temp>
<bpm>0</bpm>
<rpm>0.00</rpm>
</extensions>
</trkpt>
<trkpt lat="64.116897583" lon="-19.803209305">
<ele>289.421875</ele>
<time>2012-07-21T14:02:54Z</time>
<speed>1.430000</speed>
<extensions>
<speed>1.4</speed>
<temp>0.00</temp>
<bpm>0</bpm>
<rpm>0.00</rpm>
</extensions>
</trkpt>
<trkpt lat="64.116867065" lon="-19.803068161">
<ele>289.757813</ele>
<time>2012-07-21T14:02:59Z</time>
<speed>1.410000</speed>
<extensions>
<speed>1.4</speed>
<temp>0.00</temp>
<bpm>0</bpm>
<rpm>0.00</rpm>
</extensions>
</trkpt>
<trkpt lat="64.116836548" lon="-19.802946091">
<ele>290.226563</ele>
<time>2012-07-21T14:03:04Z</time>
<speed>1.430000</speed>
<extensions>
<speed>1.4</speed>
<temp>0.00</temp>
<bpm>0</bpm>
<rpm>0.00</rpm>
</extensions>
</trkpt>
<trkpt lat="64.116813660" lon="-19.802799225">
<ele>290.953125</ele>
<time>2012-07-21T14:03:09Z</time>
<speed>1.500000</speed>
<extensions>
<speed>1.5</speed>
<temp>0.00</temp>
<bpm>0</bpm>
<rpm>0.00</rpm>
</extensions>
</trkpt>
<trkpt lat="64.116798401" lon="-19.802700043">
<ele>291.359375</ele>
<time>2012-07-21T14:03:14Z</time>
<speed>0.530000</speed>
<extensions>
<speed>0.5</speed>
<temp>0.00</temp>
<bpm>0</bpm>
<rpm>0.00</rpm>
</extensions>
</trkpt>
<trkpt lat="64.116798401" lon="-19.802698135">
<ele>291.500000</ele>
<time>2012-07-21T14:03:19Z</time>
<speed>0.320000</speed>
<extensions>
<speed>0.3</speed>
<temp>0.00</temp>
<bpm>0</bpm>
<rpm>0.00</rpm>
</extensions>
</trkpt>
<trkpt lat="64.116790771" lon="-19.802627563">
<ele>291.804688</ele>
<time>2012-07-21T14:03:24Z</time>
<speed>1.330000</speed>
<extensions>
<speed>1.3</speed>
<temp>0.00</temp>
<bpm>0</bpm>
<rpm>0.00</rpm>
</extensions>
</trkpt>
<trkpt lat="64.116775513" lon="-19.802505493">
<ele>292.429688</ele>
<time>2012-07-21T14:03:29Z</time>
<speed>1.080000</speed>
<extensions>
<speed>1.1</speed>
<temp>0.00</temp>
<bpm>0</bpm>
<rpm>0.00</rpm>
</extensions>
</trkpt>
<trkpt lat="64.116752625" lon="-19.802389145">
<ele>292.898438</ele>
<time>2012-07-21T14:03:34Z</time>
<speed>1.290000</speed>
<extensions>
<speed>1.3</speed>
<temp>0.00</temp>
<bpm>0</bpm>
<rpm>0.00</rpm>
</extensions>
</trkpt>
<trkpt lat="64.116729736" lon="-19.802244186">
<ele>293.726563</ele>
<time>2012-07-21T14:03:39Z</time>
<speed>1.270000</speed>
<extensions>
<speed>1.3</speed>
<temp>0.00</temp>
<bpm>0</bpm>
<rpm>0.00</rpm>
</extensions>
</trkpt>
<trkpt lat="64.116714478" lon="-19.802097321">
<ele>294.546875</ele>
<time>2012-07-21T14:03:44Z</time>
<speed>1.380000</speed>
<extensions>
<speed>1.4</speed>
<temp>0.00</temp>
<bpm>0</bpm>
<rpm>0.00</rpm>
</extensions>
</trkpt>
<trkpt lat="64.116699219" lon="-19.801973343">
<ele>295.039063</ele>
<time>2012-07-21T14:03:49Z</time>
<speed>1.570000</speed>
<extensions>
<speed>1.6</speed>
<temp>0.00</temp>
<bpm>0</bpm>
<rpm>0.00</rpm>
</extensions>
</trkpt>
<trkpt lat="64.116683960" lon="-19.801836014">
<ele>295.921875</ele>
<time>2012-07-21T14:03:54Z</time>
<speed>1.360000</speed>
<extensions>
<speed>1.4</speed>
<temp>0.00</temp>
<bpm>0</bpm>
<rpm>0.00</rpm>
</extensions>
</trkpt>
<trkpt lat="64.116668701" lon="-19.801700592">
<ele>296.320313</ele>
<time>2012-07-21T14:03:59Z</time>
<speed>1.480000</speed>
<extensions>
<speed>1.5</speed>
<temp>0.00</temp>
<bpm>0</bpm>
<rpm>0.00</rpm>
</extensions>
</trkpt>
<trkpt lat="64.116645813" lon="-19.801546097">
<ele>297.390625</ele>
<time>2012-07-21T14:04:04Z</time>
<speed>1.480000</speed>
<extensions>
<speed>1.5</speed>
<temp>0.00</temp>
<bpm>0</bpm>
<rpm>0.00</rpm>
</extensions>
</trkpt>
<trkpt lat="64.116630554" lon="-19.801410675">
<ele>297.890625</ele>
<time>2012-07-21T14:04:09Z</time>
<speed>1.390000</speed>
<extensions>
<speed>1.4</speed>
<temp>0.00</temp>
<bpm>0</bpm>
<rpm>0.00</rpm>
</extensions>
</trkpt>
<trkpt lat="64.116607666" lon="-19.801273346">
<ele>298.296875</ele>
<time>2012-07-21T14:04:14Z</time>
<speed>1.430000</speed>
<extensions>
<speed>1.4</speed>
<temp>0.00</temp>
<bpm>0</bpm>
<rpm>0.00</rpm>
</extensions>
</trkpt>
<trkpt lat="64.116600037" lon="-19.801141739">
<ele>298.617188</ele>
<time>2012-07-21T14:04:19Z</time>
<speed>1.540000</speed>
<extensions>
<speed>1.5</speed>
<temp>0.00</temp>
<bpm>0</bpm>
<rpm>0.00</rpm>
</extensions>
</trkpt>
<trkpt lat="64.116577148" lon="-19.800996780">
<ele>299.000000</ele>
<time>2012-07-21T14:04:24Z</time>
<speed>1.580000</speed>
<extensions>
<speed>1.6</speed>
<temp>0.00</temp>
<bpm>0</bpm>
<rpm>0.00</rpm>
</extensions>
</trkpt>
<trkpt lat="64.116569519" lon="-19.800867081">
<ele>299.281250</ele>
<time>2012-07-21T14:04:29Z</time>
<speed>1.480000</speed>
<extensions>
<speed>1.5</speed>
<temp>0.00</temp>
<bpm>0</bpm>
<rpm>0.00</rpm>
</extensions>
</trkpt>
<trkpt lat="64.116554260" lon="-19.800731659">
<ele>299.734375</ele>
<time>2012-07-21T14:04:34Z</time>
<speed>1.190000</speed>
<extensions>
<speed>1.2</speed>
<temp>0.00</temp>
<bpm>0</bpm>
<rpm>0.00</rpm>
</extensions>
</trkpt>
<trkpt lat="64.116539001" lon="-19.800598145">
<ele>299.984375</ele>
<time>2012-07-21T14:04:39Z</time>
<speed>1.360000</speed>
<extensions>
<speed>1.4</speed>
<temp>0.00</temp>
<bpm>0</bpm>
<rpm>0.00</rpm>
</extensions>
</trkpt>
<trkpt lat="64.116523743" lon="-19.800458908">
<ele>300.617188</ele>
<time>2012-07-21T14:04:44Z</time>
<speed>1.400000</speed>
<extensions>
<speed>1.4</speed>
<temp>0.00</temp>
<bpm>0</bpm>
<rpm>0.00</rpm>
</extensions>
</trkpt>
<trkpt lat="64.116508484" lon="-19.800321579">
<ele>300.757813</ele>
<time>2012-07-21T14:04:49Z</time>
<speed>1.560000</speed>
<extensions>
<speed>1.6</speed>
<temp>0.00</temp>
<bpm>0</bpm>
<rpm>0.00</rpm>
</extensions>
</trkpt>
<trkpt lat="64.116485596" lon="-19.800201416">
<ele>300.515625</ele>
<time>2012-07-21T14:04:54Z</time>
<speed>1.210000</speed>
<extensions>
<speed>1.2</speed>
<temp>0.00</temp>
<bpm>0</bpm>
<rpm>0.00</rpm>
</extensions>
</trkpt>
<trkpt lat="64.116477966" lon="-19.800104141">
<ele>300.531250</ele>
<time>2012-07-21T14:04:59Z</time>
<speed>1.480000</speed>
<extensions>
<speed>1.5</speed>
<temp>0.00</temp>
<bpm>0</bpm>
<rpm>0.00</rpm>
</extensions>
</trkpt>
<trkpt lat="64.116455078" lon="-19.799974442">
<ele>300.757813</ele>
<time>2012-07-21T14:05:04Z</time>
<speed>1.460000</speed>
<extensions>
<speed>1.5</speed>
<temp>0.00</temp>
<bpm>0</bpm>
<rpm>0.00</rpm>
</extensions>
</trkpt>
<trkpt lat="64.116447449" lon="-19.799835205">
<ele>300.695313</ele>
<time>2012-07-21T14:05:09Z</time>
<speed>1.470000</speed>
<extensions>
<speed>1.5</speed>
<temp>0.00</temp>
<bpm>0</bpm>
<rpm>0.00</rpm>
</extensions>
</trkpt>
<trkpt lat="64.116432190" lon="-19.799701691">
<ele>300.867188</ele>
<time>2012-07-21T14:05:14Z</time>
<speed>1.220000</speed>
<extensions>
<speed>1.2</speed>
<temp>0.00</temp>
<bpm>0</bpm>
<rpm>0.00</rpm>
</extensions>
</trkpt>
<trkpt lat="64.116416931" lon="-19.799568176">
<ele>301.031250</ele>
<time>2012-07-21T14:05:19Z</time>
<speed>1.270000</speed>
<extensions>
<speed>1.3</speed>
<temp>0.00</temp>
<bpm>0</bpm>
<rpm>0.00</rpm>
</extensions>
</trkpt>
<trkpt lat="64.116401672" lon="-19.799448013">
<ele>301.062500</ele>
<time>2012-07-21T14:05:24Z</time>
<speed>1.240000</speed>
<extensions>
<speed>1.2</speed>
<temp>0.00</temp>
<bpm>0</bpm>
<rpm>0.00</rpm>
</extensions>
</trkpt>
<trkpt lat="64.116378784" lon="-19.799322128">
<ele>301.210938</ele>
<time>2012-07-21T14:05:29Z</time>
<speed>1.450000</speed>
<extensions>
<speed>1.4</speed>
<temp>0.00</temp>
<bpm>0</bpm>
<rpm>0.00</rpm>
</extensions>
</trkpt>
<trkpt lat="64.116371155" lon="-19.799179077">
<ele>301.140625</ele>
<time>2012-07-21T14:05:34Z</time>
<speed>1.380000</speed>
<extensions>
<speed>1.4</speed>
<temp>0.00</temp>
<bpm>0</bpm>
<rpm>0.00</rpm>
</extensions>
</trkpt>
<trkpt lat="64.116348267" lon="-19.799045563">
<ele>301.429688</ele>
<time>2012-07-21T14:05:39Z</time>
<speed>1.300000</speed>
<extensions>
<speed>1.3</speed>
<temp>0.00</temp>
<bpm>0</bpm>
<rpm>0.00</rpm>
</extensions>
</trkpt>
<trkpt lat="64.116333008" lon="-19.798936844">
<ele>301.898438</ele>
<time>2012-07-21T14:05:44Z</time>
<speed>0.930000</speed>
<extensions>
<speed>0.9</speed>
<temp>0.00</temp>
<bpm>0</bpm>
<rpm>0.00</rpm>
</extensions>
</trkpt>
<trkpt lat="64.116317749" lon="-19.798818588">
<ele>302.460938</ele>
<time>2012-07-21T14:05:49Z</time>
<speed>1.370000</speed>
<extensions>
<speed>1.4</speed>
<temp>0.00</temp>
<bpm>0</bpm>
<rpm>0.00</rpm>
</extensions>
</trkpt>
<trkpt lat="64.116302490" lon="-19.798673630">
<ele>302.320313</ele>
<time>2012-07-21T14:05:54Z</time>
<speed>1.560000</speed>
<extensions>
<speed>1.6</speed>
<temp>0.00</temp>
<bpm>0</bpm>
<rpm>0.00</rpm>
</extensions>
</trkpt>
<trkpt lat="64.116279602" lon="-19.798524857">
<ele>302.570313</ele>
<time>2012-07-21T14:05:59Z</time>
<speed>1.610000</speed>
<extensions>
<speed>1.6</speed>
<temp>0.00</temp>
<bpm>0</bpm>
<rpm>0.00</rpm>
</extensions>
</trkpt>
<trkpt lat="64.116256714" lon="-19.798374176">
<ele>302.414063</ele>
<time>2012-07-21T14:06:04Z</time>
<speed>1.480000</speed>
<extensions>
<speed>1.5</speed>
<temp>0.00</temp>
<bpm>0</bpm>
<rpm>0.00</rpm>
</extensions>
</trkpt>
<trkpt lat="64.116241455" lon="-19.798210144">
<ele>302.585938</ele>
<time>2012-07-21T14:06:09Z</time>
<speed>1.550000</speed>
<extensions>
<speed>1.5</speed>
<temp>0.00</temp>
<bpm>0</bpm>
<rpm>0.00</rpm>
</extensions>
</trkpt>
<trkpt lat="64.116241455" lon="-19.798112869">
<ele>302.046875</ele>
<time>2012-07-21T14:06:14Z</time>
<extensions>
<speed>0.0</speed>
<temp>0.00</temp>
<bpm>0</bpm>
<rpm>0.00</rpm>
</extensions>
</trkpt>
<trkpt lat="64.116233826" lon="-19.798042297">
<ele>301.968750</ele>
<time>2012-07-21T14:06:19Z</time>
<speed>1.920000</speed>
<extensions>
<speed>1.9</speed>
<temp>0.00</temp>
<bpm>0</bpm>
<rpm>0.00</rpm>
</extensions>
</trkpt>
<trkpt lat="64.116218567" lon="-19.797790527">
<ele>302.406250</ele>
<time>2012-07-21T14:06:24Z</time>
<speed>2.400000</speed>
<extensions>
<speed>2.4</speed>
<temp>0.00</temp>
<bpm>0</bpm>
<rpm>0.00</rpm>
</extensions>
</trkpt>
<trkpt lat="64.116195679" lon="-19.797538757">
<ele>303.085938</ele>
<time>2012-07-21T14:06:29Z</time>
<speed>2.420000</speed>
<extensions>
<speed>2.4</speed>
<temp>0.00</temp>
<bpm>0</bpm>
<rpm>0.00</rpm>
</extensions>
</trkpt>
<trkpt lat="64.116172791" lon="-19.797285080">
<ele>303.585938</ele>
<time>2012-07-21T14:06:34Z</time>
<speed>2.410000</speed>
<extensions>
<speed>2.4</speed>
<temp>0.00</temp>
<bpm>0</bpm>
<rpm>0.00</rpm>
</extensions>
</trkpt>
<trkpt lat="64.116165161" lon="-19.797052383">
<ele>303.867188</ele>
<time>2012-07-21T14:06:39Z</time>
<speed>2.480000</speed>
<extensions>
<speed>2.5</speed>
<temp>0.00</temp>
<bpm>0</bpm>
<rpm>0.00</rpm>
</extensions>
</trkpt>
<trkpt lat="64.116157532" lon="-19.796802521">
<ele>303.796875</ele>
<time>2012-07-21T14:06:44Z</time>
<speed>2.580000</speed>
<extensions>
<speed>2.6</speed>
<temp>0.00</temp>
<bpm>0</bpm>
<rpm>0.00</rpm>
</extensions>
</trkpt>
<trkpt lat="64.116149902" lon="-19.796600342">
<ele>303.656250</ele>
<time>2012-07-21T14:06:49Z</time>
<speed>1.320000</speed>
<extensions>
<speed>1.3</speed>
<temp>0.00</temp>
<bpm>0</bpm>
<rpm>0.00</rpm>
</extensions>
</trkpt>
<trkpt lat="64.116149902" lon="-19.796401978">
<ele>303.484375</ele>
<time>2012-07-21T14:06:54Z</time>
<speed>1.920000</speed>
<extensions>
<speed>1.9</speed>
<temp>0.00</temp>
<bpm>0</bpm>
<rpm>0.00</rpm>
</extensions>
</trkpt>
<trkpt lat="64.116142273" lon="-19.796197891">
<ele>303.570313</ele>
<time>2012-07-21T14:06:59Z</time>
<speed>2.470000</speed>
<extensions>
<speed>2.5</speed>
<temp>0.00</temp>
<bpm>0</bpm>
<rpm>0.00</rpm>
</extensions>
</trkpt>
<trkpt lat="64.116142273" lon="-19.795949936">
<ele>303.851563</ele>
<time>2012-07-21T14:07:04Z</time>
<speed>2.640000</speed>
<extensions>
<speed>2.6</speed>
<temp>0.00</temp>
<bpm>0</bpm>
<rpm>0.00</rpm>
</extensions>
</trkpt>
<trkpt lat="64.116157532" lon="-19.795686722">
<ele>303.906250</ele>
<time>2012-07-21T14:07:09Z</time>
<speed>2.510000</speed>
<extensions>
<speed>2.5</speed>
<temp>0.00</temp>
<bpm>0</bpm>
<rpm>0.00</rpm>
</extensions>
</trkpt>
<trkpt lat="64.116165161" lon="-19.795429230">
<ele>303.929688</ele>
<time>2012-07-21T14:07:14Z</time>
<speed>2.330000</speed>
<extensions>
<speed>2.3</speed>
<temp>0.00</temp>
<bpm>0</bpm>
<rpm>0.00</rpm>
</extensions>
</trkpt>
<trkpt lat="64.116172791" lon="-19.795166016">
<ele>303.867188</ele>
<time>2012-07-21T14:07:19Z</time>
<speed>2.470000</speed>
<extensions>
<speed>2.5</speed>
<temp>0.00</temp>
<bpm>0</bpm>
<rpm>0.00</rpm>
</extensions>
</trkpt>
<trkpt lat="64.116195679" lon="-19.794908524">
<ele>303.843750</ele>
<time>2012-07-21T14:07:24Z</time>
<speed>2.630000</speed>
<extensions>
<speed>2.6</speed>
<temp>0.00</temp>
<bpm>0</bpm>
<rpm>0.00</rpm>
</extensions>
</trkpt>
<trkpt lat="64.116210938" lon="-19.794637680">
<ele>303.414063</ele>
<time>2012-07-21T14:07:29Z</time>
<speed>2.640000</speed>
<extensions>
<speed>2.6</speed>
<temp>0.00</temp>
<bpm>0</bpm>
<rpm>0.00</rpm>
</extensions>
</trkpt>
<trkpt lat="64.116241455" lon="-19.794385910">
<ele>303.195313</ele>
<time>2012-07-21T14:07:34Z</time>
<speed>2.450000</speed>
<extensions>
<speed>2.4</speed>
<temp>0.00</temp>
<bpm>0</bpm>
<rpm>0.00</rpm>
</extensions>
</trkpt>
<trkpt lat="64.116271973" lon="-19.794143677">
<ele>302.656250</ele>
<time>2012-07-21T14:07:39Z</time>
<speed>2.510000</speed>
<extensions>
<speed>2.5</speed>
<temp>0.00</temp>
<bpm>0</bpm>
<rpm>0.00</rpm>
</extensions>
</trkpt>
<trkpt lat="64.116302490" lon="-19.793884277">
<ele>302.875000</ele>
<time>2012-07-21T14:07:44Z</time>
<speed>2.770000</speed>
<extensions>
<speed>2.8</speed>
<temp>0.00</temp>
<bpm>0</bpm>
<rpm>0.00</rpm>
</extensions>
</trkpt>
<trkpt lat="64.116348267" lon="-19.793601990">
<ele>302.593750</ele>
<time>2012-07-21T14:07:49Z</time>
<speed>2.890000</speed>
<extensions>
<speed>2.9</speed>
<temp>0.00</temp>
<bpm>0</bpm>
<rpm>0.00</rpm>
</extensions>
</trkpt>
<trkpt lat="64.116401672" lon="-19.793333054">
<ele>302.164063</ele>
<time>2012-07-21T14:07:54Z</time>
<speed>2.890000</speed>
<extensions>
<speed>2.9</speed>
<temp>0.00</temp>
<bpm>0</bpm>
<rpm>0.00</rpm>
</extensions>
</trkpt>
<trkpt lat="64.116439819" lon="-19.793048859">
<ele>301.632813</ele>
<time>2012-07-21T14:07:59Z</time>
<speed>2.980000</speed>
<extensions>
<speed>3.0</speed>
<temp>0.00</temp>
<bpm>0</bpm>
<rpm>0.00</rpm>
</extensions>
</trkpt>
<trkpt lat="64.116493225" lon="-19.792776108">
<ele>301.171875</ele>
<time>2012-07-21T14:08:04Z</time>
<speed>2.730000</speed>
<extensions>
<speed>2.7</speed>
<temp>0.00</temp>
<bpm>0</bpm>
<rpm>0.00</rpm>
</extensions>
</trkpt>
<trkpt lat="64.116546631" lon="-19.792528152">
<ele>300.531250</ele>
<time>2012-07-21T14:08:09Z</time>
<speed>2.750000</speed>
<extensions>
<speed>2.7</speed>
<temp>0.00</temp>
<bpm>0</bpm>
<rpm>0.00</rpm>
</extensions>
</trkpt>
<trkpt lat="64.116600037" lon="-19.792282104">
<ele>300.117188</ele>
<time>2012-07-21T14:08:14Z</time>
<speed>2.890000</speed>
<extensions>
<speed>2.9</speed>
<temp>0.00</temp>
<bpm>0</bpm>
<rpm>0.00</rpm>
</extensions>
</trkpt>
<trkpt lat="64.116668701" lon="-19.792009354">
<ele>299.671875</ele>
<time>2012-07-21T14:08:19Z</time>
<speed>2.860000</speed>
<extensions>
<speed>2.9</speed>
<temp>0.00</temp>
<bpm>0</bpm>
<rpm>0.00</rpm>
</extensions>
</trkpt>
<trkpt lat="64.116729736" lon="-19.791746140">
<ele>298.960938</ele>
<time>2012-07-21T14:08:24Z</time>
<speed>3.130000</speed>
<extensions>
<speed>3.1</speed>
<temp>0.00</temp>
<bpm>0</bpm>
<rpm>0.00</rpm>
</extensions>
</trkpt>
<trkpt lat="64.116821289" lon="-19.791473389">
<ele>298.515625</ele>
<time>2012-07-21T14:08:29Z</time>
<speed>3.180000</speed>
<extensions>
<speed>3.2</speed>
<temp>0.00</temp>
<bpm>0</bpm>
<rpm>0.00</rpm>
</extensions>
</trkpt>
<trkpt lat="64.116897583" lon="-19.791219711">
<ele>297.710938</ele>
<time>2012-07-21T14:08:34Z</time>
<speed>3.260000</speed>
<extensions>
<speed>3.3</speed>
<temp>0.00</temp>
<bpm>0</bpm>
<rpm>0.00</rpm>
</extensions>
</trkpt>
<trkpt lat="64.116996765" lon="-19.790960312">
<ele>297.078125</ele>
<time>2012-07-21T14:08:39Z</time>
<speed>3.780000</speed>
<extensions>
<speed>3.8</speed>
<temp>0.00</temp>
<bpm>0</bpm>
<rpm>0.00</rpm>
</extensions>
</trkpt>
<trkpt lat="64.117111206" lon="-19.790651321">
<ele>296.343750</ele>
<time>2012-07-21T14:08:44Z</time>
<speed>4.050000</speed>
<extensions>
<speed>4.0</speed>
<temp>0.00</temp>
<bpm>0</bpm>
<rpm>0.00</rpm>
</extensions>
</trkpt>
<trkpt lat="64.117248535" lon="-19.790351868">
<ele>295.578125</ele>
<time>2012-07-21T14:08:49Z</time>
<speed>4.200000</speed>
<extensions>
<speed>4.2</speed>
<temp>0.00</temp>
<bpm>0</bpm>
<rpm>0.00</rpm>
</extensions>
</trkpt>
<trkpt lat="64.117393494" lon="-19.790048599">
<ele>294.781250</ele>
<time>2012-07-21T14:08:54Z</time>
<speed>4.390000</speed>
<extensions>
<speed>4.4</speed>
<temp>0.00</temp>
<bpm>0</bpm>
<rpm>0.00</rpm>
</extensions>
</trkpt>
<trkpt lat="64.117538452" lon="-19.789751053">
<ele>293.609375</ele>
<time>2012-07-21T14:08:59Z</time>
<speed>4.590000</speed>
<extensions>
<speed>4.6</speed>
<temp>0.00</temp>
<bpm>0</bpm>
<rpm>0.00</rpm>
</extensions>
</trkpt>
<trkpt lat="64.117706299" lon="-19.789438248">
<ele>292.640625</ele>
<time>2012-07-21T14:09:04Z</time>
<speed>5.000000</speed>
<extensions>
<speed>5.0</speed>
<temp>0.00</temp>
<bpm>0</bpm>
<rpm>0.00</rpm>
</extensions>
</trkpt>
<trkpt lat="64.117881775" lon="-19.789102554">
<ele>291.460938</ele>
<time>2012-07-21T14:09:09Z</time>
<speed>4.810000</speed>
<extensions>
<speed>4.8</speed>
<temp>0.00</temp>
<bpm>0</bpm>
<rpm>0.00</rpm>
</extensions>
</trkpt>
<trkpt lat="64.118041992" lon="-19.788784027">
<ele>290.328125</ele>
<time>2012-07-21T14:09:14Z</time>
<speed>4.600000</speed>
<extensions>
<speed>4.6</speed>
<temp>0.00</temp>
<bpm>0</bpm>
<rpm>0.00</rpm>
</extensions>
</trkpt>
<trkpt lat="64.118209839" lon="-19.788461685">
<ele>289.250000</ele>
<time>2012-07-21T14:09:19Z</time>
<speed>5.200000</speed>
<extensions>
<speed>5.2</speed>
<temp>0.00</temp>
<bpm>0</bpm>
<rpm>0.00</rpm>
</extensions>
</trkpt>
<trkpt lat="64.118400574" lon="-19.788095474">
<ele>287.882813</ele>
<time>2012-07-21T14:09:24Z</time>
<speed>5.430000</speed>
<extensions>
<speed>5.4</speed>
<temp>0.00</temp>
<bpm>0</bpm>
<rpm>0.00</rpm>
</extensions>
</trkpt>
<trkpt lat="64.118576050" lon="-19.787746429">
<ele>286.468750</ele>
<time>2012-07-21T14:09:29Z</time>
<speed>5.050000</speed>
<extensions>
<speed>5.1</speed>
<temp>0.00</temp>
<bpm>0</bpm>
<rpm>0.00</rpm>
</extensions>
</trkpt>
<trkpt lat="64.118743896" lon="-19.787405014">
<ele>285.125000</ele>
<time>2012-07-21T14:09:34Z</time>
<speed>4.910000</speed>
<extensions>
<speed>4.9</speed>
<temp>0.00</temp>
<bpm>0</bpm>
<rpm>0.00</rpm>
</extensions>
</trkpt>
<trkpt lat="64.118904114" lon="-19.787021637">
<ele>283.820313</ele>
<time>2012-07-21T14:09:39Z</time>
<speed>5.580000</speed>
<extensions>
<speed>5.6</speed>
<temp>0.00</temp>
<bpm>0</bpm>
<rpm>0.00</rpm>
</extensions>
</trkpt>
<trkpt lat="64.119079590" lon="-19.786579132">
<ele>282.328125</ele>
<time>2012-07-21T14:09:44Z</time>
<speed>6.000000</speed>
<extensions>
<speed>6.0</speed>
<temp>0.00</temp>
<bpm>0</bpm>
<rpm>0.00</rpm>
</extensions>
</trkpt>
<trkpt lat="64.119239807" lon="-19.786128998">
<ele>281.085938</ele>
<time>2012-07-21T14:09:49Z</time>
<speed>5.700000</speed>
<extensions>
<speed>5.7</speed>
<temp>0.00</temp>
<bpm>0</bpm>
<rpm>0.00</rpm>
</extensions>
</trkpt>
<trkpt lat="64.119377136" lon="-19.785694122">
<ele>279.367188</ele>
<time>2012-07-21T14:09:54Z</time>
<speed>4.950000</speed>
<extensions>
<speed>4.9</speed>
<temp>0.00</temp>
<bpm>0</bpm>
<rpm>0.00</rpm>
</extensions>
</trkpt>
<trkpt lat="64.119499207" lon="-19.785303116">
<ele>278.171875</ele>
<time>2012-07-21T14:09:59Z</time>
<speed>4.680000</speed>
<extensions>
<speed>4.7</speed>
<temp>0.00</temp>
<bpm>0</bpm>
<rpm>0.00</rpm>
</extensions>
</trkpt>
<trkpt lat="64.119606018" lon="-19.784906387">
<ele>277.070313</ele>
<time>2012-07-21T14:10:04Z</time>
<speed>4.440000</speed>
<extensions>
<speed>4.4</speed>
<temp>0.00</temp>
<bpm>0</bpm>
<rpm>0.00</rpm>
</extensions>
</trkpt>
<trkpt lat="64.119720459" lon="-19.784515381">
<ele>276.148438</ele>
<time>2012-07-21T14:10:09Z</time>
<speed>4.500000</speed>
<extensions>
<speed>4.5</speed>
<temp>0.00</temp>
<bpm>0</bpm>
<rpm>0.00</rpm>
</extensions>
</trkpt>
<trkpt lat="64.119819641" lon="-19.784145355">
<ele>275.140625</ele>
<time>2012-07-21T14:10:14Z</time>
<speed>4.120000</speed>
<extensions>
<speed>4.1</speed>
<temp>0.00</temp>
<bpm>0</bpm>
<rpm>0.00</rpm>
</extensions>
</trkpt>
<trkpt lat="64.119926453" lon="-19.783750534">
<ele>274.062500</ele>
<time>2012-07-21T14:10:19Z</time>
<speed>4.410000</speed>
<extensions>
<speed>4.4</speed>
<temp>0.00</temp>
<bpm>0</bpm>
<rpm>0.00</rpm>
</extensions>
</trkpt>
<trkpt lat="64.120033264" lon="-19.783369064">
<ele>273.250000</ele>
<time>2012-07-21T14:10:24Z</time>
<speed>4.420000</speed>
<extensions>
<speed>4.4</speed>
<temp>0.00</temp>
<bpm>0</bpm>
<rpm>0.00</rpm>
</extensions>
</trkpt>
<trkpt lat="64.120132446" lon="-19.783006668">
<ele>272.257813</ele>
<time>2012-07-21T14:10:29Z</time>
<speed>4.060000</speed>
<extensions>
<speed>4.1</speed>
<temp>0.00</temp>
<bpm>0</bpm>
<rpm>0.00</rpm>
</extensions>
</trkpt>
<trkpt lat="64.120216370" lon="-19.782655716">
<ele>271.867188</ele>
<time>2012-07-21T14:10:34Z</time>
<speed>3.890000</speed>
<extensions>
<speed>3.9</speed>
<temp>0.00</temp>
<bpm>0</bpm>
<rpm>0.00</rpm>
</extensions>
</trkpt>
<trkpt lat="64.120292664" lon="-19.782327652">
<ele>270.640625</ele>
<time>2012-07-21T14:10:39Z</time>
<speed>3.960000</speed>
<extensions>
<speed>4.0</speed>
<temp>0.00</temp>
<bpm>0</bpm>
<rpm>0.00</rpm>
</extensions>
</trkpt>
<trkpt lat="64.120384216" lon="-19.781978607">
<ele>270.289063</ele>
<time>2012-07-21T14:10:44Z</time>
<speed>4.140000</speed>
<extensions>
<speed>4.1</speed>
<temp>0.00</temp>
<bpm>0</bpm>
<rpm>0.00</rpm>
</extensions>
</trkpt>
<trkpt lat="64.120483398" lon="-19.781621933">
<ele>269.804688</ele>
<time>2012-07-21T14:10:49Z</time>
<speed>3.860000</speed>
<extensions>
<speed>3.9</speed>
<temp>0.00</temp>
<bpm>0</bpm>
<rpm>0.00</rpm>
</extensions>
</trkpt>
<trkpt lat="64.120574951" lon="-19.781312943">
<ele>269.187500</ele>
<time>2012-07-21T14:10:54Z</time>
<speed>2.800000</speed>
<extensions>
<speed>2.8</speed>
<temp>0.00</temp>
<bpm>0</bpm>
<rpm>0.00</rpm>
</extensions>
</trkpt>
<trkpt lat="64.120635986" lon="-19.781066895">
<ele>269.132813</ele>
<time>2012-07-21T14:10:59Z</time>
<speed>3.220000</speed>
<extensions>
<speed>3.2</speed>
<temp>0.00</temp>
<bpm>0</bpm>
<rpm>0.00</rpm>
</extensions>
</trkpt>
<trkpt lat="64.120719910" lon="-19.780765533">
<ele>269.015625</ele>
<time>2012-07-21T14:11:04Z</time>
<speed>3.560000</speed>
<extensions>
<speed>3.6</speed>
<temp>0.00</temp>
<bpm>0</bpm>
<rpm>0.00</rpm>
</extensions>
</trkpt>
<trkpt lat="64.120803833" lon="-19.780477524">
<ele>268.789063</ele>
<time>2012-07-21T14:11:09Z</time>
<speed>2.780000</speed>
<extensions>
<speed>2.8</speed>
<temp>0.00</temp>
<bpm>0</bpm>
<rpm>0.00</rpm>
</extensions>
</trkpt>
<trkpt lat="64.120857239" lon="-19.780263901">
<ele>268.718750</ele>
<time>2012-07-21T14:11:14Z</time>
<speed>2.300000</speed>
<extensions>
<speed>2.3</speed>
<temp>0.00</temp>
<bpm>0</bpm>
<rpm>0.00</rpm>
</extensions>
</trkpt>
<trkpt lat="64.120910645" lon="-19.780061722">
<ele>269.476563</ele>
<time>2012-07-21T14:11:19Z</time>
<speed>2.120000</speed>
<extensions>
<speed>2.1</speed>
<temp>0.00</temp>
<bpm>0</bpm>
<rpm>0.00</rpm>
</extensions>
</trkpt>
<trkpt lat="64.120948792" lon="-19.779941559">
<ele>269.843750</ele>
<time>2012-07-21T14:11:24Z</time>
<speed>1.400000</speed>
<extensions>
<speed>1.4</speed>
<temp>0.00</temp>
<bpm>0</bpm>
<rpm>0.00</rpm>
</extensions>
</trkpt>
<trkpt lat="64.121002197" lon="-19.779792786">
<ele>269.960938</ele>
<time>2012-07-21T14:11:29Z</time>
<speed>1.700000</speed>
<extensions>
<speed>1.7</speed>
<temp>0.00</temp>
<bpm>0</bpm>
<rpm>0.00</rpm>
</extensions>
</trkpt>
<trkpt lat="64.121040344" lon="-19.779617310">
<ele>269.968750</ele>
<time>2012-07-21T14:11:34Z</time>
<speed>2.050000</speed>
<extensions>
<speed>2.1</speed>
<temp>0.00</temp>
<bpm>0</bpm>
<rpm>0.00</rpm>
</extensions>
</trkpt>
<trkpt lat="64.121086121" lon="-19.779453278">
<ele>269.703125</ele>
<time>2012-07-21T14:11:39Z</time>
<speed>1.980000</speed>
<extensions>
<speed>2.0</speed>
<temp>0.00</temp>
<bpm>0</bpm>
<rpm>0.00</rpm>
</extensions>
</trkpt>
<trkpt lat="64.121131897" lon="-19.779272079">
<ele>269.632813</ele>
<time>2012-07-21T14:11:44Z</time>
<speed>2.050000</speed>
<extensions>
<speed>2.1</speed>
<temp>0.00</temp>
<bpm>0</bpm>
<rpm>0.00</rpm>
</extensions>
</trkpt>
<trkpt lat="64.121177673" lon="-19.779094696">
<ele>269.937500</ele>
<time>2012-07-21T14:11:49Z</time>
<speed>2.260000</speed>
<extensions>
<speed>2.3</speed>
<temp>0.00</temp>
<bpm>0</bpm>
<rpm>0.00</rpm>
</extensions>
</trkpt>
<trkpt lat="64.121223450" lon="-19.778886795">
<ele>270.085938</ele>
<time>2012-07-21T14:11:54Z</time>
<speed>2.280000</speed>
<extensions>
<speed>2.3</speed>
<temp>0.00</temp>
<bpm>0</bpm>
<rpm>0.00</rpm>
</extensions>
</trkpt>
<trkpt lat="64.121269226" lon="-19.778675079">
<ele>269.414063</ele>
<time>2012-07-21T14:11:59Z</time>
<speed>2.210000</speed>
<extensions>
<speed>2.2</speed>
<temp>0.00</temp>
<bpm>0</bpm>
<rpm>0.00</rpm>
</extensions>
</trkpt>
<trkpt lat="64.121330261" lon="-19.778453827">
<ele>269.187500</ele>
<time>2012-07-21T14:12:04Z</time>
<speed>2.510000</speed>
<extensions>
<speed>2.5</speed>
<temp>0.00</temp>
<bpm>0</bpm>
<rpm>0.00</rpm>
</extensions>
</trkpt>
<trkpt lat="64.121376038" lon="-19.778240204">
<ele>269.101563</ele>
<time>2012-07-21T14:12:09Z</time>
<speed>2.200000</speed>
<extensions>
<speed>2.2</speed>
<temp>0.00</temp>
<bpm>0</bpm>
<rpm>0.00</rpm>
</extensions>
</trkpt>
<trkpt lat="64.121421814" lon="-19.778015137">
<ele>269.718750</ele>
<time>2012-07-21T14:12:14Z</time>
<speed>2.780000</speed>
<extensions>
<speed>2.8</speed>
<temp>0.00</temp>
<bpm>0</bpm>
<rpm>0.00</rpm>
</extensions>
</trkpt>
<trkpt lat="64.121475220" lon="-19.777750015">
<ele>269.539063</ele>
<time>2012-07-21T14:12:19Z</time>
<speed>2.560000</speed>
<extensions>
<speed>2.6</speed>
<temp>0.00</temp>
<bpm>0</bpm>
<rpm>0.00</rpm>
</extensions>
</trkpt>
<trkpt lat="64.121528625" lon="-19.777511597">
<ele>269.718750</ele>
<time>2012-07-21T14:12:24Z</time>
<speed>2.500000</speed>
<extensions>
<speed>2.5</speed>
<temp>0.00</temp>
<bpm>0</bpm>
<rpm>0.00</rpm>
</extensions>
</trkpt>
<trkpt lat="64.121574402" lon="-19.777294159">
<ele>270.101563</ele>
<time>2012-07-21T14:12:29Z</time>
<speed>2.230000</speed>
<extensions>
<speed>2.2</speed>
<temp>0.00</temp>
<bpm>0</bpm>
<rpm>0.00</rpm>
</extensions>
</trkpt>
<trkpt lat="64.121620178" lon="-19.777069092">
<ele>270.250000</ele>
<time>2012-07-21T14:12:34Z</time>
<speed>2.380000</speed>
<extensions>
<speed>2.4</speed>
<temp>0.00</temp>
<bpm>0</bpm>
<rpm>0.00</rpm>
</extensions>
</trkpt>
<trkpt lat="64.121658325" lon="-19.776872635">
<ele>270.476563</ele>
<time>2012-07-21T14:12:39Z</time>
<speed>1.890000</speed>
<extensions>
<speed>1.9</speed>
<temp>0.00</temp>
<bpm>0</bpm>
<rpm>0.00</rpm>
</extensions>
</trkpt>
<trkpt lat="64.121681213" lon="-19.776670456">
<ele>270.703125</ele>
<time>2012-07-21T14:12:44Z</time>
<speed>2.420000</speed>
<extensions>
<speed>2.4</speed>
<temp>0.00</temp>
<bpm>0</bpm>
<rpm>0.00</rpm>
</extensions>
</trkpt>
<trkpt lat="64.121711731" lon="-19.776454926">
<ele>271.054688</ele>
<time>2012-07-21T14:12:49Z</time>
<speed>1.830000</speed>
<extensions>
<speed>1.8</speed>
<temp>0.00</temp>
<bpm>0</bpm>
<rpm>0.00</rpm>
</extensions>
</trkpt>
<trkpt lat="64.121742249" lon="-19.776245117">
<ele>271.218750</ele>
<time>2012-07-21T14:12:54Z</time>
<speed>2.310000</speed>
<extensions>
<speed>2.3</speed>
<temp>0.00</temp>
<bpm>0</bpm>
<rpm>0.00</rpm>
</extensions>
</trkpt>
<trkpt lat="64.121765137" lon="-19.776006699">
<ele>271.289063</ele>
<time>2012-07-21T14:12:59Z</time>
<speed>2.480000</speed>
<extensions>
<speed>2.5</speed>
<temp>0.00</temp>
<bpm>0</bpm>
<rpm>0.00</rpm>
</extensions>
</trkpt>
<trkpt lat="64.121788025" lon="-19.775777817">
<ele>271.390625</ele>
<time>2012-07-21T14:13:04Z</time>
<speed>2.370000</speed>
<extensions>
<speed>2.4</speed>
<temp>0.00</temp>
<bpm>0</bpm>
<rpm>0.00</rpm>
</extensions>
</trkpt>
<trkpt lat="64.121803284" lon="-19.775537491">
<ele>271.796875</ele>
<time>2012-07-21T14:13:09Z</time>
<speed>2.420000</speed>
<extensions>
<speed>2.4</speed>
<temp>0.00</temp>
<bpm>0</bpm>
<rpm>0.00</rpm>
</extensions>
</trkpt>
<trkpt lat="64.121818542" lon="-19.775287628">
<ele>271.593750</ele>
<time>2012-07-21T14:13:14Z</time>
<speed>2.370000</speed>
<extensions>
<speed>2.4</speed>
<temp>0.00</temp>
<bpm>0</bpm>
<rpm>0.00</rpm>
</extensions>
</trkpt>
<trkpt lat="64.121833801" lon="-19.775026321">
<ele>271.734375</ele>
<time>2012-07-21T14:13:19Z</time>
<speed>2.650000</speed>
<extensions>
<speed>2.6</speed>
<temp>0.00</temp>
<bpm>0</bpm>
<rpm>0.00</rpm>
</extensions>
</trkpt>
<trkpt lat="64.121849060" lon="-19.774740219">
<ele>272.085938</ele>
<time>2012-07-21T14:13:24Z</time>
<speed>3.060000</speed>
<extensions>
<speed>3.1</speed>
<temp>0.00</temp>
<bpm>0</bpm>
<rpm>0.00</rpm>
</extensions>
</trkpt>
<trkpt lat="64.121849060" lon="-19.774419785">
<ele>272.281250</ele>
<time>2012-07-21T14:13:29Z</time>
<speed>3.140000</speed>
<extensions>
<speed>3.1</speed>
<temp>0.00</temp>
<bpm>0</bpm>
<rpm>0.00</rpm>
</extensions>
</trkpt>
<trkpt lat="64.121856689" lon="-19.774084091">
<ele>273.078125</ele>
<time>2012-07-21T14:13:34Z</time>
<speed>3.240000</speed>
<extensions>
<speed>3.2</speed>
<temp>0.00</temp>
<bpm>0</bpm>
<rpm>0.00</rpm>
</extensions>
</trkpt>
<trkpt lat="64.121864319" lon="-19.773765564">
<ele>272.992188</ele>
<time>2012-07-21T14:13:39Z</time>
<speed>3.060000</speed>
<extensions>
<speed>3.1</speed>
<temp>0.00</temp>
<bpm>0</bpm>
<rpm>0.00</rpm>
</extensions>
</trkpt>
<trkpt lat="64.121871948" lon="-19.773473740">
<ele>273.570313</ele>
<time>2012-07-21T14:13:44Z</time>
<speed>2.740000</speed>
<extensions>
<speed>2.7</speed>
<temp>0.00</temp>
<bpm>0</bpm>
<rpm>0.00</rpm>
</extensions>
</trkpt>
<trkpt lat="64.121864319" lon="-19.773210526">
<ele>273.617188</ele>
<time>2012-07-21T14:13:49Z</time>
<speed>2.600000</speed>
<extensions>
<speed>2.6</speed>
<temp>0.00</temp>
<bpm>0</bpm>
<rpm>0.00</rpm>
</extensions>
</trkpt>
<trkpt lat="64.121849060" lon="-19.772932053">
<ele>273.609375</ele>
<time>2012-07-21T14:13:54Z</time>
<speed>2.390000</speed>
<extensions>
<speed>2.4</speed>
<temp>0.00</temp>
<bpm>0</bpm>
<rpm>0.00</rpm>
</extensions>
</trkpt>
<trkpt lat="64.121833801" lon="-19.772661209">
<ele>273.789063</ele>
<time>2012-07-21T14:13:59Z</time>
<speed>2.720000</speed>
<extensions>
<speed>2.7</speed>
<temp>0.00</temp>
<bpm>0</bpm>
<rpm>0.00</rpm>
</extensions>
</trkpt>
<trkpt lat="64.121826172" lon="-19.772378922">
<ele>273.460938</ele>
<time>2012-07-21T14:14:04Z</time>
<speed>2.860000</speed>
<extensions>
<speed>2.9</speed>
<temp>0.00</temp>
<bpm>0</bpm>
<rpm>0.00</rpm>
</extensions>
</trkpt>
<trkpt lat="64.121818542" lon="-19.772121429">
<ele>273.992188</ele>
<time>2012-07-21T14:14:09Z</time>
<speed>1.810000</speed>
<extensions>
<speed>1.8</speed>
<temp>0.00</temp>
<bpm>0</bpm>
<rpm>0.00</rpm>
</extensions>
</trkpt>
<trkpt lat="64.121795654" lon="-19.771900177">
<ele>274.140625</ele>
<time>2012-07-21T14:14:14Z</time>
<speed>2.320000</speed>
<extensions>
<speed>2.3</speed>
<temp>0.00</temp>
<bpm>0</bpm>
<rpm>0.00</rpm>
</extensions>
</trkpt>
<trkpt lat="64.121780396" lon="-19.771663666">
<ele>274.398438</ele>
<time>2012-07-21T14:14:19Z</time>
<speed>2.380000</speed>
<extensions>
<speed>2.4</speed>
<temp>0.00</temp>
<bpm>0</bpm>
<rpm>0.00</rpm>
</extensions>
</trkpt>
<trkpt lat="64.121757507" lon="-19.771446228">
<ele>274.570313</ele>
<time>2012-07-21T14:14:24Z</time>
<speed>2.050000</speed>
<extensions>
<speed>2.1</speed>
<temp>0.00</temp>
<bpm>0</bpm>
<rpm>0.00</rpm>
</extensions>
</trkpt>
<trkpt lat="64.121726990" lon="-19.771224976">
<ele>274.593750</ele>
<time>2012-07-21T14:14:29Z</time>
<speed>2.730000</speed>
<extensions>
<speed>2.7</speed>
<temp>0.00</temp>
<bpm>0</bpm>
<rpm>0.00</rpm>
</extensions>
</trkpt>
<trkpt lat="64.121696472" lon="-19.770961761">
<ele>274.742188</ele>
<time>2012-07-21T14:14:34Z</time>
<speed>2.500000</speed>
<extensions>
<speed>2.5</speed>
<temp>0.00</temp>
<bpm>0</bpm>
<rpm>0.00</rpm>
</extensions>
</trkpt>
<trkpt lat="64.121673584" lon="-19.770711899">
<ele>275.109375</ele>
<time>2012-07-21T14:14:39Z</time>
<speed>2.460000</speed>
<extensions>
<speed>2.5</speed>
<temp>0.00</temp>
<bpm>0</bpm>
<rpm>0.00</rpm>
</extensions>
</trkpt>
<trkpt lat="64.121650696" lon="-19.770477295">
<ele>275.375000</ele>
<time>2012-07-21T14:14:44Z</time>
<speed>2.520000</speed>
<extensions>
<speed>2.5</speed>
<temp>0.00</temp>
<bpm>0</bpm>
<rpm>0.00</rpm>
</extensions>
</trkpt>
<trkpt lat="64.121604919" lon="-19.770240784">
<ele>275.492188</ele>
<time>2012-07-21T14:14:49Z</time>
<speed>2.450000</speed>
<extensions>
<speed>2.4</speed>
<temp>0.00</temp>
<bpm>0</bpm>
<rpm>0.00</rpm>
</extensions>
</trkpt>
<trkpt lat="64.121574402" lon="-19.769994736">
<ele>276.023438</ele>
<time>2012-07-21T14:14:54Z</time>
<speed>2.710000</speed>
<extensions>
<speed>2.7</speed>
<temp>0.00</temp>
<bpm>0</bpm>
<rpm>0.00</rpm>
</extensions>
</trkpt>
<trkpt lat="64.121520996" lon="-19.769754410">
<ele>276.382813</ele>
<time>2012-07-21T14:14:59Z</time>
<speed>2.650000</speed>
<extensions>
<speed>2.6</speed>
<temp>0.00</temp>
<bpm>0</bpm>
<rpm>0.00</rpm>
</extensions>
</trkpt>
<trkpt lat="64.121475220" lon="-19.769519806">
<ele>276.406250</ele>
<time>2012-07-21T14:15:04Z</time>
<speed>2.270000</speed>
<extensions>
<speed>2.3</speed>
<temp>0.00</temp>
<bpm>0</bpm>
<rpm>0.00</rpm>
</extensions>
</trkpt>
<trkpt lat="64.121429443" lon="-19.769300461">
<ele>276.734375</ele>
<time>2012-07-21T14:15:09Z</time>
<speed>2.470000</speed>
<extensions>
<speed>2.5</speed>
<temp>0.00</temp>
<bpm>0</bpm>
<rpm>0.00</rpm>
</extensions>
</trkpt>
<trkpt lat="64.121383667" lon="-19.769071579">
<ele>276.898438</ele>
<time>2012-07-21T14:15:14Z</time>
<speed>2.550000</speed>
<extensions>
<speed>2.6</speed>
<temp>0.00</temp>
<bpm>0</bpm>
<rpm>0.00</rpm>
</extensions>
</trkpt>
<trkpt lat="64.121330261" lon="-19.768815994">
<ele>276.750000</ele>
<time>2012-07-21T14:15:19Z</time>
<speed>2.690000</speed>
<extensions>
<speed>2.7</speed>
<temp>0.00</temp>
<bpm>0</bpm>
<rpm>0.00</rpm>
</extensions>
</trkpt>
<trkpt lat="64.121269226" lon="-19.768569946">
<ele>277.148438</ele>
<time>2012-07-21T14:15:24Z</time>
<speed>2.870000</speed>
<extensions>
<speed>2.9</speed>
<temp>0.00</temp>
<bpm>0</bpm>
<rpm>0.00</rpm>
</extensions>
</trkpt>
<trkpt lat="64.121208191" lon="-19.768304825">
<ele>276.898438</ele>
<time>2012-07-21T14:15:29Z</time>
<speed>3.060000</speed>
<extensions>
<speed>3.1</speed>
<temp>0.00</temp>
<bpm>0</bpm>
<rpm>0.00</rpm>
</extensions>
</trkpt>
<trkpt lat="64.121147156" lon="-19.768028259">
<ele>276.804688</ele>
<time>2012-07-21T14:15:34Z</time>
<speed>2.830000</speed>
<extensions>
<speed>2.8</speed>
<temp>0.00</temp>
<bpm>0</bpm>
<rpm>0.00</rpm>
</extensions>
</trkpt>
<trkpt lat="64.121093750" lon="-19.767744064">
<ele>276.804688</ele>
<time>2012-07-21T14:15:39Z</time>
<speed>2.950000</speed>
<extensions>
<speed>2.9</speed>
<temp>0.00</temp>
<bpm>0</bpm>
<rpm>0.00</rpm>
</extensions>
</trkpt>
<trkpt lat="64.121032715" lon="-19.767480850">
<ele>276.812500</ele>
<time>2012-07-21T14:15:44Z</time>
<speed>2.990000</speed>
<extensions>
<speed>3.0</speed>
<temp>0.00</temp>
<bpm>0</bpm>
<rpm>0.00</rpm>
</extensions>
</trkpt>
<trkpt lat="64.120971680" lon="-19.767210007">
<ele>276.156250</ele>
<time>2012-07-21T14:15:49Z</time>
<speed>2.990000</speed>
<extensions>
<speed>3.0</speed>
<temp>0.00</temp>
<bpm>0</bpm>
<rpm>0.00</rpm>
</extensions>
</trkpt>
<trkpt lat="64.120918274" lon="-19.766931534">
<ele>275.859375</ele>
<time>2012-07-21T14:15:54Z</time>
<speed>2.820000</speed>
<extensions>
<speed>2.8</speed>
<temp>0.00</temp>
<bpm>0</bpm>
<rpm>0.00</rpm>
</extensions>
</trkpt>
<trkpt lat="64.120857239" lon="-19.766681671">
<ele>276.031250</ele>
<time>2012-07-21T14:15:59Z</time>
<speed>2.900000</speed>
<extensions>
<speed>2.9</speed>
<temp>0.00</temp>
<bpm>0</bpm>
<rpm>0.00</rpm>
</extensions>
</trkpt>
<trkpt lat="64.120796204" lon="-19.766408920">
<ele>275.929688</ele>
<time>2012-07-21T14:16:04Z</time>
<speed>2.990000</speed>
<extensions>
<speed>3.0</speed>
<temp>0.00</temp>
<bpm>0</bpm>
<rpm>0.00</rpm>
</extensions>
</trkpt>
<trkpt lat="64.120735168" lon="-19.766124725">
<ele>275.570313</ele>
<time>2012-07-21T14:16:09Z</time>
<speed>2.840000</speed>
<extensions>
<speed>2.8</speed>
<temp>0.00</temp>
<bpm>0</bpm>
<rpm>0.00</rpm>
</extensions>
</trkpt>
<trkpt lat="64.120666504" lon="-19.765838623">
<ele>275.046875</ele>
<time>2012-07-21T14:16:14Z</time>
<speed>3.410000</speed>
<extensions>
<speed>3.4</speed>
<temp>0.00</temp>
<bpm>0</bpm>
<rpm>0.00</rpm>
</extensions>
</trkpt>
<trkpt lat="64.120605469" lon="-19.765548706">
<ele>274.781250</ele>
<time>2012-07-21T14:16:19Z</time>
<speed>3.200000</speed>
<extensions>
<speed>3.2</speed>
<temp>0.00</temp>
<bpm>0</bpm>
<rpm>0.00</rpm>
</extensions>
</trkpt>
<trkpt lat="64.120536804" lon="-19.765247345">
<ele>274.515625</ele>
<time>2012-07-21T14:16:24Z</time>
<speed>3.340000</speed>
<extensions>
<speed>3.3</speed>
<temp>0.00</temp>
<bpm>0</bpm>
<rpm>0.00</rpm>
</extensions>
</trkpt>
<trkpt lat="64.120468140" lon="-19.764936447">
<ele>274.710938</ele>
<time>2012-07-21T14:16:29Z</time>
<speed>3.110000</speed>
<extensions>
<speed>3.1</speed>
<temp>0.00</temp>
<bpm>0</bpm>
<rpm>0.00</rpm>
</extensions>
</trkpt>
<trkpt lat="64.120407104" lon="-19.764675140">
<ele>274.359375</ele>
<time>2012-07-21T14:16:34Z</time>
<speed>3.210000</speed>
<extensions>
<speed>3.2</speed>
<temp>0.00</temp>
<bpm>0</bpm>
<rpm>0.00</rpm>
</extensions>
</trkpt>
<trkpt lat="64.120346069" lon="-19.764389038">
<ele>274.187500</ele>
<time>2012-07-21T14:16:39Z</time>
<speed>3.160000</speed>
<extensions>
<speed>3.2</speed>
<temp>0.00</temp>
<bpm>0</bpm>
<rpm>0.00</rpm>
</extensions>
</trkpt>
<trkpt lat="64.120285034" lon="-19.764118195">
<ele>274.054688</ele>
<time>2012-07-21T14:16:44Z</time>
<speed>2.840000</speed>
<extensions>
<speed>2.8</speed>
<temp>0.00</temp>
<bpm>0</bpm>
<rpm>0.00</rpm>
</extensions>
</trkpt>
<trkpt lat="64.120223999" lon="-19.763851166">
<ele>274.085938</ele>
<time>2012-07-21T14:16:49Z</time>
<speed>2.900000</speed>
<extensions>
<speed>2.9</speed>
<temp>0.00</temp>
<bpm>0</bpm>
<rpm>0.00</rpm>
</extensions>
</trkpt>
<trkpt lat="64.120162964" lon="-19.763551712">
<ele>273.468750</ele>
<time>2012-07-21T14:16:54Z</time>
<speed>3.590000</speed>
<extensions>
<speed>3.6</speed>
<temp>0.00</temp>
<bpm>0</bpm>
<rpm>0.00</rpm>
</extensions>
</trkpt>
<trkpt lat="64.120094299" lon="-19.763216019">
<ele>272.562500</ele>
<time>2012-07-21T14:16:59Z</time>
<speed>3.670000</speed>
<extensions>
<speed>3.7</speed>
<temp>0.00</temp>
<bpm>0</bpm>
<rpm>0.00</rpm>
</extensions>
</trkpt>
<trkpt lat="64.120018005" lon="-19.762866974">
<ele>271.843750</ele>
<time>2012-07-21T14:17:04Z</time>
<speed>3.700000</speed>
<extensions>
<speed>3.7</speed>
<temp>0.00</temp>
<bpm>0</bpm>
<rpm>0.00</rpm>
</extensions>
</trkpt>
<trkpt lat="64.119949341" lon="-19.762502670">
<ele>270.695313</ele>
<time>2012-07-21T14:17:09Z</time>
<speed>3.870000</speed>
<extensions>
<speed>3.9</speed>
<temp>0.00</temp>
<bpm>0</bpm>
<rpm>0.00</rpm>
</extensions>
</trkpt>
<trkpt lat="64.119888306" lon="-19.762168884">
<ele>269.859375</ele>
<time>2012-07-21T14:17:14Z</time>
<speed>3.490000</speed>
<extensions>
<speed>3.5</speed>
<temp>0.00</temp>
<bpm>0</bpm>
<rpm>0.00</rpm>
</extensions>
</trkpt>
<trkpt lat="64.119812012" lon="-19.761821747">
<ele>268.609375</ele>
<time>2012-07-21T14:17:19Z</time>
<speed>3.710000</speed>
<extensions>
<speed>3.7</speed>
<temp>0.00</temp>
<bpm>0</bpm>
<rpm>0.00</rpm>
</extensions>
</trkpt>
<trkpt lat="64.119758606" lon="-19.761499405">
<ele>268.273438</ele>
<time>2012-07-21T14:17:24Z</time>
<speed>3.400000</speed>
<extensions>
<speed>3.4</speed>
<temp>0.00</temp>
<bpm>0</bpm>
<rpm>0.00</rpm>
</extensions>
</trkpt>
<trkpt lat="64.119705200" lon="-19.761196136">
<ele>267.695313</ele>
<time>2012-07-21T14:17:29Z</time>
<speed>3.220000</speed>
<extensions>
<speed>3.2</speed>
<temp>0.00</temp>
<bpm>0</bpm>
<rpm>0.00</rpm>
</extensions>
</trkpt>
<trkpt lat="64.119644165" lon="-19.760869980">
<ele>267.273438</ele>
<time>2012-07-21T14:17:34Z</time>
<speed>3.280000</speed>
<extensions>
<speed>3.3</speed>
<temp>0.00</temp>
<bpm>0</bpm>
<rpm>0.00</rpm>
</extensions>
</trkpt>
<trkpt lat="64.119606018" lon="-19.760551453">
<ele>267.304688</ele>
<time>2012-07-21T14:17:39Z</time>
<speed>2.960000</speed>
<extensions>
<speed>3.0</speed>
<temp>0.00</temp>
<bpm>0</bpm>
<rpm>0.00</rpm>
</extensions>
</trkpt>
<trkpt lat="64.119560242" lon="-19.760263443">
<ele>267.093750</ele>
<time>2012-07-21T14:17:44Z</time>
<speed>3.420000</speed>
<extensions>
<speed>3.4</speed>
<temp>0.00</temp>
<bpm>0</bpm>
<rpm>0.00</rpm>
</extensions>
</trkpt>
<trkpt lat="64.119506836" lon="-19.759925842">
<ele>266.773438</ele>
<time>2012-07-21T14:17:49Z</time>
<speed>3.030000</speed>
<extensions>
<speed>3.0</speed>
<temp>0.00</temp>
<bpm>0</bpm>
<rpm>0.00</rpm>
</extensions>
</trkpt>
<trkpt lat="64.119461060" lon="-19.759580612">
<ele>266.109375</ele>
<time>2012-07-21T14:17:54Z</time>
<speed>3.650000</speed>
<extensions>
<speed>3.7</speed>
<temp>0.00</temp>
<bpm>0</bpm>
<rpm>0.00</rpm>
</extensions>
</trkpt>
<trkpt lat="64.119415283" lon="-19.759220123">
<ele>266.039063</ele>
<time>2012-07-21T14:17:59Z</time>
<speed>3.660000</speed>
<extensions>
<speed>3.7</speed>
<temp>0.00</temp>
<bpm>0</bpm>
<rpm>0.00</rpm>
</extensions>
</trkpt>
<trkpt lat="64.119377136" lon="-19.758844376">
<ele>265.031250</ele>
<time>2012-07-21T14:18:04Z</time>
<speed>3.790000</speed>
<extensions>
<speed>3.8</speed>
<temp>0.00</temp>
<bpm>0</bpm>
<rpm>0.00</rpm>
</extensions>
</trkpt>
<trkpt lat="64.119331360" lon="-19.758478165">
<ele>264.500000</ele>
<time>2012-07-21T14:18:09Z</time>
<speed>3.730000</speed>
<extensions>
<speed>3.7</speed>
<temp>0.00</temp>
<bpm>0</bpm>
<rpm>0.00</rpm>
</extensions>
</trkpt>
<trkpt lat="64.119293213" lon="-19.758083344">
<ele>263.695313</ele>
<time>2012-07-21T14:18:14Z</time>
<speed>4.180000</speed>
<extensions>
<speed>4.2</speed>
<temp>0.00</temp>
<bpm>0</bpm>
<rpm>0.00</rpm>
</extensions>
</trkpt>
<trkpt lat="64.119262695" lon="-19.757692337">
<ele>262.781250</ele>
<time>2012-07-21T14:18:19Z</time>
<speed>3.960000</speed>
<extensions>
<speed>4.0</speed>
<temp>0.00</temp>
<bpm>0</bpm>
<rpm>0.00</rpm>
</extensions>
</trkpt>
<trkpt lat="64.119224548" lon="-19.757328033">
<ele>262.203125</ele>
<time>2012-07-21T14:18:24Z</time>
<speed>3.550000</speed>
<extensions>
<speed>3.5</speed>
<temp>0.00</temp>
<bpm>0</bpm>
<rpm>0.00</rpm>
</extensions>
</trkpt>
<trkpt lat="64.119194031" lon="-19.756937027">
<ele>261.164063</ele>
<time>2012-07-21T14:18:29Z</time>
<speed>4.280000</speed>
<extensions>
<speed>4.3</speed>
<temp>0.00</temp>
<bpm>0</bpm>
<rpm>0.00</rpm>
</extensions>
</trkpt>
<trkpt lat="64.119163513" lon="-19.756507874">
<ele>260.109375</ele>
<time>2012-07-21T14:18:34Z</time>
<speed>4.140000</speed>
<extensions>
<speed>4.1</speed>
<temp>0.00</temp>
<bpm>0</bpm>
<rpm>0.00</rpm>
</extensions>
</trkpt>
<trkpt lat="64.119140625" lon="-19.756072998">
<ele>259.476563</ele>
<time>2012-07-21T14:18:39Z</time>
<speed>3.890000</speed>
<extensions>
<speed>3.9</speed>
<temp>0.00</temp>
<bpm>0</bpm>
<rpm>0.00</rpm>
</extensions>
</trkpt>
<trkpt lat="64.119125366" lon="-19.755691528">
<ele>258.750000</ele>
<time>2012-07-21T14:18:44Z</time>
<speed>3.810000</speed>
<extensions>
<speed>3.8</speed>
<temp>0.00</temp>
<bpm>0</bpm>
<rpm>0.00</rpm>
</extensions>
</trkpt>
<trkpt lat="64.119110107" lon="-19.755285263">
<ele>257.984375</ele>
<time>2012-07-21T14:18:49Z</time>
<speed>3.990000</speed>
<extensions>
<speed>4.0</speed>
<temp>0.00</temp>
<bpm>0</bpm>
<rpm>0.00</rpm>
</extensions>
</trkpt>
<trkpt lat="64.119094849" lon="-19.754905701">
<ele>257.539063</ele>
<time>2012-07-21T14:18:54Z</time>
<speed>3.990000</speed>
<extensions>
<speed>4.0</speed>
<temp>0.00</temp>
<bpm>0</bpm>
<rpm>0.00</rpm>
</extensions>
</trkpt>
<trkpt lat="64.119079590" lon="-19.754510880">
<ele>256.937500</ele>
<time>2012-07-21T14:18:59Z</time>
<speed>3.800000</speed>
<extensions>
<speed>3.8</speed>
<temp>0.00</temp>
<bpm>0</bpm>
<rpm>0.00</rpm>
</extensions>
</trkpt>
<trkpt lat="64.119071960" lon="-19.754093170">
<ele>256.296875</ele>
<time>2012-07-21T14:19:04Z</time>
<speed>4.420000</speed>
<extensions>
<speed>4.4</speed>
<temp>0.00</temp>
<bpm>0</bpm>
<rpm>0.00</rpm>
</extensions>
</trkpt>
<trkpt lat="64.119071960" lon="-19.753677368">
<ele>255.785156</ele>
<time>2012-07-21T14:19:09Z</time>
<speed>3.450000</speed>
<extensions>
<speed>3.5</speed>
<temp>0.00</temp>
<bpm>0</bpm>
<rpm>0.00</rpm>
</extensions>
</trkpt>
<trkpt lat="64.119079590" lon="-19.753290176">
<ele>255.214844</ele>
<time>2012-07-21T14:19:14Z</time>
<speed>4.090000</speed>
<extensions>
<speed>4.1</speed>
<temp>0.00</temp>
<bpm>0</bpm>
<rpm>0.00</rpm>
</extensions>
</trkpt>
<trkpt lat="64.119079590" lon="-19.752866745">
<ele>254.585938</ele>
<time>2012-07-21T14:19:19Z</time>
<speed>4.090000</speed>
<extensions>
<speed>4.1</speed>
<temp>0.00</temp>
<bpm>0</bpm>
<rpm>0.00</rpm>
</extensions>
</trkpt>
<trkpt lat="64.119087219" lon="-19.752401352">
<ele>253.742188</ele>
<time>2012-07-21T14:19:24Z</time>
<speed>4.140000</speed>
<extensions>
<speed>4.1</speed>
<temp>0.00</temp>
<bpm>0</bpm>
<rpm>0.00</rpm>
</extensions>
</trkpt>
<trkpt lat="64.119094849" lon="-19.751960754">
<ele>253.078125</ele>
<time>2012-07-21T14:19:29Z</time>
<speed>4.380000</speed>
<extensions>
<speed>4.4</speed>
<temp>0.00</temp>
<bpm>0</bpm>
<rpm>0.00</rpm>
</extensions>
</trkpt>
<trkpt lat="64.119117737" lon="-19.751527786">
<ele>252.679688</ele>
<time>2012-07-21T14:19:34Z</time>
<speed>3.660000</speed>
<extensions>
<speed>3.7</speed>
<temp>0.00</temp>
<bpm>0</bpm>
<rpm>0.00</rpm>
</extensions>
</trkpt>
<trkpt lat="64.119140625" lon="-19.751182556">
<ele>252.539063</ele>
<time>2012-07-21T14:19:39Z</time>
<speed>2.800000</speed>
<extensions>
<speed>2.8</speed>
<temp>0.00</temp>
<bpm>0</bpm>
<rpm>0.00</rpm>
</extensions>
</trkpt>
<trkpt lat="64.119155884" lon="-19.750879288">
<ele>251.820313</ele>
<time>2012-07-21T14:19:44Z</time>
<speed>3.220000</speed>
<extensions>
<speed>3.2</speed>
<temp>0.00</temp>
<bpm>0</bpm>
<rpm>0.00</rpm>
</extensions>
</trkpt>
<trkpt lat="64.119178772" lon="-19.750566483">
<ele>251.269531</ele>
<time>2012-07-21T14:19:49Z</time>
<speed>2.830000</speed>
<extensions>
<speed>2.8</speed>
<temp>0.00</temp>
<bpm>0</bpm>
<rpm>0.00</rpm>
</extensions>
</trkpt>
<trkpt lat="64.119201660" lon="-19.750253677">
<ele>250.875000</ele>
<time>2012-07-21T14:19:54Z</time>
<speed>2.930000</speed>
<extensions>
<speed>2.9</speed>
<temp>0.00</temp>
<bpm>0</bpm>
<rpm>0.00</rpm>
</extensions>
</trkpt>
<trkpt lat="64.119224548" lon="-19.749959946">
<ele>251.046875</ele>
<time>2012-07-21T14:19:59Z</time>
<speed>3.030000</speed>
<extensions>
<speed>3.0</speed>
<temp>0.00</temp>
<bpm>0</bpm>
<rpm>0.00</rpm>
</extensions>
</trkpt>
<trkpt lat="64.119247437" lon="-19.749654770">
<ele>251.480469</ele>
<time>2012-07-21T14:20:04Z</time>
<speed>2.920000</speed>
<extensions>
<speed>2.9</speed>
<temp>0.00</temp>
<bpm>0</bpm>
<rpm>0.00</rpm>
</extensions>
</trkpt>
<trkpt lat="64.119277954" lon="-19.749423981">
<ele>251.234375</ele>
<time>2012-07-21T14:20:09Z</time>
<speed>1.690000</speed>
<extensions>
<speed>1.7</speed>
<temp>0.00</temp>
<bpm>0</bpm>
<rpm>0.00</rpm>
</extensions>
</trkpt>
<trkpt lat="64.119285583" lon="-19.749225616">
<ele>251.917969</ele>
<time>2012-07-21T14:20:14Z</time>
<speed>2.160000</speed>
<extensions>
<speed>2.2</speed>
<temp>0.00</temp>
<bpm>0</bpm>
<rpm>0.00</rpm>
</extensions>
</trkpt>
<trkpt lat="64.119308472" lon="-19.749004364">
<ele>251.917969</ele>
<time>2012-07-21T14:20:19Z</time>
<speed>1.910000</speed>
<extensions>
<speed>1.9</speed>
<temp>0.00</temp>
<bpm>0</bpm>
<rpm>0.00</rpm>
</extensions>
</trkpt>
<trkpt lat="64.119338989" lon="-19.748811722">
<ele>252.722656</ele>
<time>2012-07-21T14:20:24Z</time>
<speed>2.190000</speed>
<extensions>
<speed>2.2</speed>
<temp>0.00</temp>
<bpm>0</bpm>
<rpm>0.00</rpm>
</extensions>
</trkpt>
<trkpt lat="64.119369507" lon="-19.748594284">
<ele>252.675781</ele>
<time>2012-07-21T14:20:29Z</time>
<speed>2.070000</speed>
<extensions>
<speed>2.1</speed>
<temp>0.00</temp>
<bpm>0</bpm>
<rpm>0.00</rpm>
</extensions>
</trkpt>
<trkpt lat="64.119384766" lon="-19.748426437">
<ele>252.218750</ele>
<time>2012-07-21T14:20:34Z</time>
<speed>1.790000</speed>
<extensions>
<speed>1.8</speed>
<temp>0.00</temp>
<bpm>0</bpm>
<rpm>0.00</rpm>
</extensions>
</trkpt>
<trkpt lat="64.119384766" lon="-19.748382568">
<ele>252.324219</ele>
<time>2012-07-21T14:20:39Z</time>
<speed>0.030000</speed>
<extensions>
<speed>0.0</speed>
<temp>0.00</temp>
<bpm>0</bpm>
<rpm>0.00</rpm>
</extensions>
</trkpt>
<trkpt lat="64.119384766" lon="-19.748374939">
<ele>252.335938</ele>
<time>2012-07-21T14:20:44Z</time>
<speed>0.640000</speed>
<extensions>
<speed>0.6</speed>
<temp>0.00</temp>
<bpm>0</bpm>
<rpm>0.00</rpm>
</extensions>
</trkpt>
<trkpt lat="64.119384766" lon="-19.748355865">
<ele>252.320313</ele>
<time>2012-07-21T14:20:49Z</time>
<extensions>
<speed>0.0</speed>
<temp>0.00</temp>
<bpm>0</bpm>
<rpm>0.00</rpm>
</extensions>
</trkpt>
<trkpt lat="64.119384766" lon="-19.748355865">
<ele>252.292969</ele>
<time>2012-07-21T14:20:54Z</time>
<speed>0.020000</speed>
<extensions>
<speed>0.0</speed>
<temp>0.00</temp>
<bpm>0</bpm>
<rpm>0.00</rpm>
</extensions>
</trkpt>
<trkpt lat="64.119384766" lon="-19.748355865">
<ele>252.292969</ele>
<time>2012-07-21T14:20:59Z</time>
<extensions>
<speed>0.0</speed>
<temp>0.00</temp>
<bpm>0</bpm>
<rpm>0.00</rpm>
</extensions>
</trkpt>
<trkpt lat="64.119384766" lon="-19.748355865">
<ele>252.304688</ele>
<time>2012-07-21T14:21:04Z</time>
<extensions>
<speed>0.0</speed>
<temp>0.00</temp>
<bpm>0</bpm>
<rpm>0.00</rpm>
</extensions>
</trkpt>
<trkpt lat="64.119384766" lon="-19.748355865">
<ele>252.316406</ele>
<time>2012-07-21T14:21:09Z</time>
<extensions>
<speed>0.0</speed>
<temp>0.00</temp>
<bpm>0</bpm>
<rpm>0.00</rpm>
</extensions>
</trkpt>
<trkpt lat="64.119384766" lon="-19.748357773">
<ele>252.324219</ele>
<time>2012-07-21T14:21:14Z</time>
<extensions>
<speed>0.0</speed>
<temp>0.00</temp>
<bpm>0</bpm>
<rpm>0.00</rpm>
</extensions>
</trkpt>
<trkpt lat="64.119384766" lon="-19.748357773">
<ele>252.328125</ele>
<time>2012-07-21T14:21:19Z</time>
<extensions>
<speed>0.0</speed>
<temp>0.00</temp>
<bpm>0</bpm>
<rpm>0.00</rpm>
</extensions>
</trkpt>
<trkpt lat="64.119384766" lon="-19.748357773">
<ele>252.332031</ele>
<time>2012-07-21T14:21:24Z</time>
<extensions>
<speed>0.0</speed>
<temp>0.00</temp>
<bpm>0</bpm>
<rpm>0.00</rpm>
</extensions>
</trkpt>
<trkpt lat="64.119384766" lon="-19.748357773">
<ele>252.339844</ele>
<time>2012-07-21T14:21:29Z</time>
<extensions>
<speed>0.0</speed>
<temp>0.00</temp>
<bpm>0</bpm>
<rpm>0.00</rpm>
</extensions>
</trkpt>
<trkpt lat="64.119384766" lon="-19.748357773">
<ele>252.347656</ele>
<time>2012-07-21T14:21:34Z</time>
<speed>0.010000</speed>
<extensions>
<speed>0.0</speed>
<temp>0.00</temp>
<bpm>0</bpm>
<rpm>0.00</rpm>
</extensions>
</trkpt>
<trkpt lat="64.119384766" lon="-19.748357773">
<ele>252.351563</ele>
<time>2012-07-21T14:21:39Z</time>
<speed>0.100000</speed>
<extensions>
<speed>0.1</speed>
<temp>0.00</temp>
<bpm>0</bpm>
<rpm>0.00</rpm>
</extensions>
</trkpt>
<trkpt lat="64.119384766" lon="-19.748357773">
<ele>252.332031</ele>
<time>2012-07-21T14:21:44Z</time>
<extensions>
<speed>0.0</speed>
<temp>0.00</temp>
<bpm>0</bpm>
<rpm>0.00</rpm>
</extensions>
</trkpt>
<trkpt lat="64.119384766" lon="-19.748357773">
<ele>252.335938</ele>
<time>2012-07-21T14:21:49Z</time>
<extensions>
<speed>0.0</speed>
<temp>0.00</temp>
<bpm>0</bpm>
<rpm>0.00</rpm>
</extensions>
</trkpt>
<trkpt lat="64.119384766" lon="-19.748357773">
<ele>252.339844</ele>
<time>2012-07-21T14:21:54Z</time>
<extensions>
<speed>0.0</speed>
<temp>0.00</temp>
<bpm>0</bpm>
<rpm>0.00</rpm>
</extensions>
</trkpt>
<trkpt lat="64.119384766" lon="-19.748357773">
<ele>252.355469</ele>
<time>2012-07-21T14:21:59Z</time>
<extensions>
<speed>0.0</speed>
<temp>0.00</temp>
<bpm>0</bpm>
<rpm>0.00</rpm>
</extensions>
</trkpt>
<trkpt lat="64.119384766" lon="-19.748357773">
<ele>252.351563</ele>
<time>2012-07-21T14:22:04Z</time>
<speed>0.010000</speed>
<extensions>
<speed>0.0</speed>
<temp>0.00</temp>
<bpm>0</bpm>
<rpm>0.00</rpm>
</extensions>
</trkpt>
<trkpt lat="64.119384766" lon="-19.748359680">
<ele>252.351563</ele>
<time>2012-07-21T14:22:09Z</time>
<extensions>
<speed>0.0</speed>
<temp>0.00</temp>
<bpm>0</bpm>
<rpm>0.00</rpm>
</extensions>
</trkpt>
<trkpt lat="64.119384766" lon="-19.748359680">
<ele>252.355469</ele>
<time>2012-07-21T14:22:14Z</time>
<speed>0.010000</speed>
<extensions>
<speed>0.0</speed>
<temp>0.00</temp>
<bpm>0</bpm>
<rpm>0.00</rpm>
</extensions>
</trkpt>
<trkpt lat="64.119384766" lon="-19.748359680">
<ele>252.359375</ele>
<time>2012-07-21T14:22:19Z</time>
<extensions>
<speed>0.0</speed>
<temp>0.00</temp>
<bpm>0</bpm>
<rpm>0.00</rpm>
</extensions>
</trkpt>
<trkpt lat="64.119384766" lon="-19.748359680">
<ele>252.355469</ele>
<time>2012-07-21T14:22:24Z</time>
<speed>0.010000</speed>
<extensions>
<speed>0.0</speed>
<temp>0.00</temp>
<bpm>0</bpm>
<rpm>0.00</rpm>
</extensions>
</trkpt>
<trkpt lat="64.119384766" lon="-19.748359680">
<ele>252.363281</ele>
<time>2012-07-21T14:22:29Z</time>
<speed>0.010000</speed>
<extensions>
<speed>0.0</speed>
<temp>0.00</temp>
<bpm>0</bpm>
<rpm>0.00</rpm>
</extensions>
</trkpt>
<trkpt lat="64.119384766" lon="-19.748359680">
<ele>252.363281</ele>
<time>2012-07-21T14:22:34Z</time>
<extensions>
<speed>0.0</speed>
<temp>0.00</temp>
<bpm>0</bpm>
<rpm>0.00</rpm>
</extensions>
</trkpt>
<trkpt lat="64.119384766" lon="-19.748359680">
<ele>252.363281</ele>
<time>2012-07-21T14:22:39Z</time>
<speed>0.050000</speed>
<extensions>
<speed>0.1</speed>
<temp>0.00</temp>
<bpm>0</bpm>
<rpm>0.00</rpm>
</extensions>
</trkpt>
<trkpt lat="64.119384766" lon="-19.748361588">
<ele>252.347656</ele>
<time>2012-07-21T14:22:44Z</time>
<speed>0.600000</speed>
<extensions>
<speed>0.6</speed>
<temp>0.00</temp>
<bpm>0</bpm>
<rpm>0.00</rpm>
</extensions>
</trkpt>
<trkpt lat="64.119400024" lon="-19.748264313">
<ele>252.523438</ele>
<time>2012-07-21T14:22:49Z</time>
<speed>1.020000</speed>
<extensions>
<speed>1.0</speed>
<temp>0.00</temp>
<bpm>0</bpm>
<rpm>0.00</rpm>
</extensions>
</trkpt>
<trkpt lat="64.119415283" lon="-19.748172760">
<ele>252.609375</ele>
<time>2012-07-21T14:22:54Z</time>
<speed>0.890000</speed>
<extensions>
<speed>0.9</speed>
<temp>0.00</temp>
<bpm>0</bpm>
<rpm>0.00</rpm>
</extensions>
</trkpt>
<trkpt lat="64.119369507" lon="-19.748123169">
<ele>252.851563</ele>
<time>2012-07-21T14:22:59Z</time>
<speed>1.170000</speed>
<extensions>
<speed>1.2</speed>
<temp>0.00</temp>
<bpm>0</bpm>
<rpm>0.00</rpm>
</extensions>
</trkpt>
<trkpt lat="64.119323730" lon="-19.748069763">
<ele>252.730469</ele>
<time>2012-07-21T14:23:04Z</time>
<speed>1.660000</speed>
<extensions>
<speed>1.7</speed>
<temp>0.00</temp>
<bpm>0</bpm>
<rpm>0.00</rpm>
</extensions>
</trkpt>
<trkpt lat="64.119216919" lon="-19.747928619">
<ele>251.828125</ele>
<time>2012-07-21T14:23:09Z</time>
<speed>3.670000</speed>
<extensions>
<speed>3.7</speed>
<temp>0.00</temp>
<bpm>0</bpm>
<rpm>0.00</rpm>
</extensions>
</trkpt>
<trkpt lat="64.119010925" lon="-19.747682571">
<ele>249.421875</ele>
<time>2012-07-21T14:23:14Z</time>
<speed>6.070000</speed>
<extensions>
<speed>6.1</speed>
<temp>0.00</temp>
<bpm>0</bpm>
<rpm>0.00</rpm>
</extensions>
</trkpt>
<trkpt lat="64.118751526" lon="-19.747365952">
<ele>246.609375</ele>
<time>2012-07-21T14:23:19Z</time>
<speed>6.550000</speed>
<extensions>
<speed>6.5</speed>
<temp>0.00</temp>
<bpm>0</bpm>
<rpm>0.00</rpm>
</extensions>
</trkpt>
<trkpt lat="64.118591309" lon="-19.747140884">
<ele>246.417969</ele>
<time>2012-07-21T14:23:24Z</time>
<speed>1.390000</speed>
<extensions>
<speed>1.4</speed>
<temp>0.00</temp>
<bpm>0</bpm>
<rpm>0.00</rpm>
</extensions>
</trkpt>
<trkpt lat="64.118591309" lon="-19.747140884">
<ele>246.550781</ele>
<time>2012-07-21T14:23:29Z</time>
<speed>0.010000</speed>
<extensions>
<speed>0.0</speed>
<temp>0.00</temp>
<bpm>0</bpm>
<rpm>0.00</rpm>
</extensions>
</trkpt>
<trkpt lat="64.118591309" lon="-19.747142792">
<ele>246.421875</ele>
<time>2012-07-21T14:23:34Z</time>
<speed>0.050000</speed>
<extensions>
<speed>0.1</speed>
<temp>0.00</temp>
<bpm>0</bpm>
<rpm>0.00</rpm>
</extensions>
</trkpt>
<trkpt lat="64.118591309" lon="-19.747150421">
<ele>246.406250</ele>
<time>2012-07-21T14:23:39Z</time>
<speed>0.060000</speed>
<extensions>
<speed>0.1</speed>
<temp>0.00</temp>
<bpm>0</bpm>
<rpm>0.00</rpm>
</extensions>
</trkpt>
<trkpt lat="64.118583679" lon="-19.747146606">
<ele>246.464844</ele>
<time>2012-07-21T14:23:44Z</time>
<speed>0.030000</speed>
<extensions>
<speed>0.0</speed>
<temp>0.00</temp>
<bpm>0</bpm>
<rpm>0.00</rpm>
</extensions>
</trkpt>
<trkpt lat="64.118583679" lon="-19.747150421">
<ele>246.437500</ele>
<time>2012-07-21T14:23:49Z</time>
<speed>0.010000</speed>
<extensions>
<speed>0.0</speed>
<temp>0.00</temp>
<bpm>0</bpm>
<rpm>0.00</rpm>
</extensions>
</trkpt>
<trkpt lat="64.118583679" lon="-19.747150421">
<ele>246.382813</ele>
<time>2012-07-21T14:23:54Z</time>
<speed>0.030000</speed>
<extensions>
<speed>0.0</speed>
<temp>0.00</temp>
<bpm>0</bpm>
<rpm>0.00</rpm>
</extensions>
</trkpt>
<trkpt lat="64.118583679" lon="-19.747150421">
<ele>246.382813</ele>
<time>2012-07-21T14:23:59Z</time>
<speed>0.070000</speed>
<extensions>
<speed>0.1</speed>
<temp>0.00</temp>
<bpm>0</bpm>
<rpm>0.00</rpm>
</extensions>
</trkpt>
<trkpt lat="64.118583679" lon="-19.747152328">
<ele>246.410156</ele>
<time>2012-07-21T14:24:04Z</time>
<speed>0.010000</speed>
<extensions>
<speed>0.0</speed>
<temp>0.00</temp>
<bpm>0</bpm>
<rpm>0.00</rpm>
</extensions>
</trkpt>
<trkpt lat="64.118583679" lon="-19.747152328">
<ele>246.429688</ele>
<time>2012-07-21T14:24:09Z</time>
<speed>0.030000</speed>
<extensions>
<speed>0.0</speed>
<temp>0.00</temp>
<bpm>0</bpm>
<rpm>0.00</rpm>
</extensions>
</trkpt>
<trkpt lat="64.118583679" lon="-19.747152328">
<ele>246.488281</ele>
<time>2012-07-21T14:24:14Z</time>
<extensions>
<speed>0.0</speed>
<temp>0.00</temp>
<bpm>0</bpm>
<rpm>0.00</rpm>
</extensions>
</trkpt>
<trkpt lat="64.118583679" lon="-19.747156143">
<ele>246.546875</ele>
<time>2012-07-21T14:24:19Z</time>
<extensions>
<speed>0.0</speed>
<temp>0.00</temp>
<bpm>0</bpm>
<rpm>0.00</rpm>
</extensions>
</trkpt>
<trkpt lat="64.118576050" lon="-19.747158051">
<ele>246.574219</ele>
<time>2012-07-21T14:24:24Z</time>
<speed>0.010000</speed>
<extensions>
<speed>0.0</speed>
<temp>0.00</temp>
<bpm>0</bpm>
<rpm>0.00</rpm>
</extensions>
</trkpt>
<trkpt lat="64.118576050" lon="-19.747159958">
<ele>246.597656</ele>
<time>2012-07-21T14:24:29Z</time>
<speed>0.010000</speed>
<extensions>
<speed>0.0</speed>
<temp>0.00</temp>
<bpm>0</bpm>
<rpm>0.00</rpm>
</extensions>
</trkpt>
<trkpt lat="64.118576050" lon="-19.747163773">
<ele>246.636719</ele>
<time>2012-07-21T14:24:34Z</time>
<extensions>
<speed>0.0</speed>
<temp>0.00</temp>
<bpm>0</bpm>
<rpm>0.00</rpm>
</extensions>
</trkpt>
<trkpt lat="64.118576050" lon="-19.747163773">
<ele>246.679688</ele>
<time>2012-07-21T14:24:39Z</time>
<speed>0.050000</speed>
<extensions>
<speed>0.1</speed>
<temp>0.00</temp>
<bpm>0</bpm>
<rpm>0.00</rpm>
</extensions>
</trkpt>
<trkpt lat="64.118576050" lon="-19.747163773">
<ele>246.710938</ele>
<time>2012-07-21T14:24:44Z</time>
<speed>0.010000</speed>
<extensions>
<speed>0.0</speed>
<temp>0.00</temp>
<bpm>0</bpm>
<rpm>0.00</rpm>
</extensions>
</trkpt>
<trkpt lat="64.118576050" lon="-19.747165680">
<ele>246.734375</ele>
<time>2012-07-21T14:24:49Z</time>
<extensions>
<speed>0.0</speed>
<temp>0.00</temp>
<bpm>0</bpm>
<rpm>0.00</rpm>
</extensions>
</trkpt>
<trkpt lat="64.118576050" lon="-19.747165680">
<ele>246.777344</ele>
<time>2012-07-21T14:24:54Z</time>
<speed>0.010000</speed>
<extensions>
<speed>0.0</speed>
<temp>0.00</temp>
<bpm>0</bpm>
<rpm>0.00</rpm>
</extensions>
</trkpt>
<trkpt lat="64.118576050" lon="-19.747167587">
<ele>246.808594</ele>
<time>2012-07-21T14:24:59Z</time>
<extensions>
<speed>0.0</speed>
<temp>0.00</temp>
<bpm>0</bpm>
<rpm>0.00</rpm>
</extensions>
</trkpt>
<trkpt lat="64.118576050" lon="-19.747167587">
<ele>246.851563</ele>
<time>2012-07-21T14:25:04Z</time>
<speed>0.020000</speed>
<extensions>
<speed>0.0</speed>
<temp>0.00</temp>
<bpm>0</bpm>
<rpm>0.00</rpm>
</extensions>
</trkpt>
<trkpt lat="64.118576050" lon="-19.747167587">
<ele>246.863281</ele>
<time>2012-07-21T14:25:09Z</time>
<extensions>
<speed>0.0</speed>
<temp>0.00</temp>
<bpm>0</bpm>
<rpm>0.00</rpm>
</extensions>
</trkpt>
<trkpt lat="64.118576050" lon="-19.747167587">
<ele>246.878906</ele>
<time>2012-07-21T14:25:14Z</time>
<extensions>
<speed>0.0</speed>
<temp>0.00</temp>
<bpm>0</bpm>
<rpm>0.00</rpm>
</extensions>
</trkpt>
<trkpt lat="64.118576050" lon="-19.747167587">
<ele>246.898438</ele>
<time>2012-07-21T14:25:19Z</time>
<extensions>
<speed>0.0</speed>
<temp>0.00</temp>
<bpm>0</bpm>
<rpm>0.00</rpm>
</extensions>
</trkpt>
<trkpt lat="64.118576050" lon="-19.747169495">
<ele>246.925781</ele>
<time>2012-07-21T14:25:24Z</time>
<extensions>
<speed>0.0</speed>
<temp>0.00</temp>
<bpm>0</bpm>
<rpm>0.00</rpm>
</extensions>
</trkpt>
<trkpt lat="64.118576050" lon="-19.747169495">
<ele>246.933594</ele>
<time>2012-07-21T14:25:29Z</time>
<extensions>
<speed>0.0</speed>
<temp>0.00</temp>
<bpm>0</bpm>
<rpm>0.00</rpm>
</extensions>
</trkpt>
<trkpt lat="64.118576050" lon="-19.747169495">
<ele>246.957031</ele>
<time>2012-07-21T14:25:34Z</time>
<extensions>
<speed>0.0</speed>
<temp>0.00</temp>
<bpm>0</bpm>
<rpm>0.00</rpm>
</extensions>
</trkpt>
<trkpt lat="64.118576050" lon="-19.747169495">
<ele>246.984375</ele>
<time>2012-07-21T14:25:39Z</time>
<extensions>
<speed>0.0</speed>
<temp>0.00</temp>
<bpm>0</bpm>
<rpm>0.00</rpm>
</extensions>
</trkpt>
<trkpt lat="64.118576050" lon="-19.747169495">
<ele>246.988281</ele>
<time>2012-07-21T14:25:44Z</time>
<extensions>
<speed>0.0</speed>
<temp>0.00</temp>
<bpm>0</bpm>
<rpm>0.00</rpm>
</extensions>
</trkpt>
<trkpt lat="64.118576050" lon="-19.747169495">
<ele>247.015625</ele>
<time>2012-07-21T14:25:49Z</time>
<extensions>
<speed>0.0</speed>
<temp>0.00</temp>
<bpm>0</bpm>
<rpm>0.00</rpm>
</extensions>
</trkpt>
<trkpt lat="64.118576050" lon="-19.747171402">
<ele>247.035156</ele>
<time>2012-07-21T14:25:54Z</time>
<extensions>
<speed>0.0</speed>
<temp>0.00</temp>
<bpm>0</bpm>
<rpm>0.00</rpm>
</extensions>
</trkpt>
<trkpt lat="64.118576050" lon="-19.747171402">
<ele>247.054688</ele>
<time>2012-07-21T14:25:59Z</time>
<extensions>
<speed>0.0</speed>
<temp>0.00</temp>
<bpm>0</bpm>
<rpm>0.00</rpm>
</extensions>
</trkpt>
<trkpt lat="64.118576050" lon="-19.747171402">
<ele>247.074219</ele>
<time>2012-07-21T14:26:04Z</time>
<extensions>
<speed>0.0</speed>
<temp>0.00</temp>
<bpm>0</bpm>
<rpm>0.00</rpm>
</extensions>
</trkpt>
<trkpt lat="64.118576050" lon="-19.747171402">
<ele>247.093750</ele>
<time>2012-07-21T14:26:09Z</time>
<extensions>
<speed>0.0</speed>
<temp>0.00</temp>
<bpm>0</bpm>
<rpm>0.00</rpm>
</extensions>
</trkpt>
<trkpt lat="64.118576050" lon="-19.747171402">
<ele>247.109375</ele>
<time>2012-07-21T14:26:14Z</time>
<speed>0.010000</speed>
<extensions>
<speed>0.0</speed>
<temp>0.00</temp>
<bpm>0</bpm>
<rpm>0.00</rpm>
</extensions>
</trkpt>
<trkpt lat="64.118576050" lon="-19.747171402">
<ele>247.117188</ele>
<time>2012-07-21T14:26:19Z</time>
<speed>0.010000</speed>
<extensions>
<speed>0.0</speed>
<temp>0.00</temp>
<bpm>0</bpm>
<rpm>0.00</rpm>
</extensions>
</trkpt>
<trkpt lat="64.118576050" lon="-19.747171402">
<ele>247.128906</ele>
<time>2012-07-21T14:26:24Z</time>
<extensions>
<speed>0.0</speed>
<temp>0.00</temp>
<bpm>0</bpm>
<rpm>0.00</rpm>
</extensions>
</trkpt>
<trkpt lat="64.118576050" lon="-19.747171402">
<ele>247.136719</ele>
<time>2012-07-21T14:26:29Z</time>
<extensions>
<speed>0.0</speed>
<temp>0.00</temp>
<bpm>0</bpm>
<rpm>0.00</rpm>
</extensions>
</trkpt>
<trkpt lat="64.118576050" lon="-19.747169495">
<ele>247.140625</ele>
<time>2012-07-21T14:26:34Z</time>
<extensions>
<speed>0.0</speed>
<temp>0.00</temp>
<bpm>0</bpm>
<rpm>0.00</rpm>
</extensions>
</trkpt>
<trkpt lat="64.118576050" lon="-19.747169495">
<ele>247.144531</ele>
<time>2012-07-21T14:26:39Z</time>
<extensions>
<speed>0.0</speed>
<temp>0.00</temp>
<bpm>0</bpm>
<rpm>0.00</rpm>
</extensions>
</trkpt>
<trkpt lat="64.118576050" lon="-19.747169495">
<ele>247.152344</ele>
<time>2012-07-21T14:26:44Z</time>
<extensions>
<speed>0.0</speed>
<temp>0.00</temp>
<bpm>0</bpm>
<rpm>0.00</rpm>
</extensions>
</trkpt>
<trkpt lat="64.118576050" lon="-19.747169495">
<ele>247.152344</ele>
<time>2012-07-21T14:26:49Z</time>
<extensions>
<speed>0.0</speed>
<temp>0.00</temp>
<bpm>0</bpm>
<rpm>0.00</rpm>
</extensions>
</trkpt>
<trkpt lat="64.118576050" lon="-19.747169495">
<ele>247.160156</ele>
<time>2012-07-21T14:26:54Z</time>
<extensions>
<speed>0.0</speed>
<temp>0.00</temp>
<bpm>0</bpm>
<rpm>0.00</rpm>
</extensions>
</trkpt>
<trkpt lat="64.118576050" lon="-19.747169495">
<ele>247.175781</ele>
<time>2012-07-21T14:26:59Z</time>
<extensions>
<speed>0.0</speed>
<temp>0.00</temp>
<bpm>0</bpm>
<rpm>0.00</rpm>
</extensions>
</trkpt>
<trkpt lat="64.118576050" lon="-19.747169495">
<ele>247.187500</ele>
<time>2012-07-21T14:27:04Z</time>
<speed>0.010000</speed>
<extensions>
<speed>0.0</speed>
<temp>0.00</temp>
<bpm>0</bpm>
<rpm>0.00</rpm>
</extensions>
</trkpt>
<trkpt lat="64.118568420" lon="-19.747167587">
<ele>247.199219</ele>
<time>2012-07-21T14:27:09Z</time>
<extensions>
<speed>0.0</speed>
<temp>0.00</temp>
<bpm>0</bpm>
<rpm>0.00</rpm>
</extensions>
</trkpt>
<trkpt lat="64.118568420" lon="-19.747167587">
<ele>247.218750</ele>
<time>2012-07-21T14:27:14Z</time>
<extensions>
<speed>0.0</speed>
<temp>0.00</temp>
<bpm>0</bpm>
<rpm>0.00</rpm>
</extensions>
</trkpt>
<trkpt lat="64.118568420" lon="-19.747167587">
<ele>247.238281</ele>
<time>2012-07-21T14:27:19Z</time>
<extensions>
<speed>0.0</speed>
<temp>0.00</temp>
<bpm>0</bpm>
<rpm>0.00</rpm>
</extensions>
</trkpt>
<trkpt lat="64.118568420" lon="-19.747167587">
<ele>247.261719</ele>
<time>2012-07-21T14:27:24Z</time>
<extensions>
<speed>0.0</speed>
<temp>0.00</temp>
<bpm>0</bpm>
<rpm>0.00</rpm>
</extensions>
</trkpt>
<trkpt lat="64.118568420" lon="-19.747167587">
<ele>247.289063</ele>
<time>2012-07-21T14:27:29Z</time>
<speed>0.010000</speed>
<extensions>
<speed>0.0</speed>
<temp>0.00</temp>
<bpm>0</bpm>
<rpm>0.00</rpm>
</extensions>
</trkpt>
<trkpt lat="64.118568420" lon="-19.747167587">
<ele>247.324219</ele>
<time>2012-07-21T14:27:34Z</time>
<speed>0.010000</speed>
<extensions>
<speed>0.0</speed>
<temp>0.00</temp>
<bpm>0</bpm>
<rpm>0.00</rpm>
</extensions>
</trkpt>
<trkpt lat="64.118568420" lon="-19.747167587">
<ele>247.355469</ele>
<time>2012-07-21T14:27:39Z</time>
<speed>0.010000</speed>
<extensions>
<speed>0.0</speed>
<temp>0.00</temp>
<bpm>0</bpm>
<rpm>0.00</rpm>
</extensions>
</trkpt>
<trkpt lat="64.118568420" lon="-19.747169495">
<ele>247.390625</ele>
<time>2012-07-21T14:27:44Z</time>
<extensions>
<speed>0.0</speed>
<temp>0.00</temp>
<bpm>0</bpm>
<rpm>0.00</rpm>
</extensions>
</trkpt>
<trkpt lat="64.118568420" lon="-19.747169495">
<ele>247.437500</ele>
<time>2012-07-21T14:27:49Z</time>
<extensions>
<speed>0.0</speed>
<temp>0.00</temp>
<bpm>0</bpm>
<rpm>0.00</rpm>
</extensions>
</trkpt>
<trkpt lat="64.118568420" lon="-19.747167587">
<ele>247.445313</ele>
<time>2012-07-21T14:27:54Z</time>
<speed>0.010000</speed>
<extensions>
<speed>0.0</speed>
<temp>0.00</temp>
<bpm>0</bpm>
<rpm>0.00</rpm>
</extensions>
</trkpt>
<trkpt lat="64.118576050" lon="-19.747167587">
<ele>247.480469</ele>
<time>2012-07-21T14:27:59Z</time>
<speed>0.010000</speed>
<extensions>
<speed>0.0</speed>
<temp>0.00</temp>
<bpm>0</bpm>
<rpm>0.00</rpm>
</extensions>
</trkpt>
<trkpt lat="64.118568420" lon="-19.747169495">
<ele>247.503906</ele>
<time>2012-07-21T14:28:04Z</time>
<extensions>
<speed>0.0</speed>
<temp>0.00</temp>
<bpm>0</bpm>
<rpm>0.00</rpm>
</extensions>
</trkpt>
<trkpt lat="64.118576050" lon="-19.747169495">
<ele>247.531250</ele>
<time>2012-07-21T14:28:09Z</time>
<speed>0.020000</speed>
<extensions>
<speed>0.0</speed>
<temp>0.00</temp>
<bpm>0</bpm>
<rpm>0.00</rpm>
</extensions>
</trkpt>
<trkpt lat="64.118576050" lon="-19.747169495">
<ele>247.562500</ele>
<time>2012-07-21T14:28:14Z</time>
<speed>0.010000</speed>
<extensions>
<speed>0.0</speed>
<temp>0.00</temp>
<bpm>0</bpm>
<rpm>0.00</rpm>
</extensions>
</trkpt>
<trkpt lat="64.118576050" lon="-19.747169495">
<ele>247.589844</ele>
<time>2012-07-21T14:28:19Z</time>
<extensions>
<speed>0.0</speed>
<temp>0.00</temp>
<bpm>0</bpm>
<rpm>0.00</rpm>
</extensions>
</trkpt>
<trkpt lat="64.118576050" lon="-19.747169495">
<ele>247.621094</ele>
<time>2012-07-21T14:28:24Z</time>
<extensions>
<speed>0.0</speed>
<temp>0.00</temp>
<bpm>0</bpm>
<rpm>0.00</rpm>
</extensions>
</trkpt>
<trkpt lat="64.118576050" lon="-19.747169495">
<ele>247.652344</ele>
<time>2012-07-21T14:28:29Z</time>
<extensions>
<speed>0.0</speed>
<temp>0.00</temp>
<bpm>0</bpm>
<rpm>0.00</rpm>
</extensions>
</trkpt>
<trkpt lat="64.118576050" lon="-19.747169495">
<ele>247.675781</ele>
<time>2012-07-21T14:28:34Z</time>
<extensions>
<speed>0.0</speed>
<temp>0.00</temp>
<bpm>0</bpm>
<rpm>0.00</rpm>
</extensions>
</trkpt>
<trkpt lat="64.118576050" lon="-19.747169495">
<ele>247.707031</ele>
<time>2012-07-21T14:28:39Z</time>
<extensions>
<speed>0.0</speed>
<temp>0.00</temp>
<bpm>0</bpm>
<rpm>0.00</rpm>
</extensions>
</trkpt>
<trkpt lat="64.118576050" lon="-19.747169495">
<ele>247.726563</ele>
<time>2012-07-21T14:28:44Z</time>
<extensions>
<speed>0.0</speed>
<temp>0.00</temp>
<bpm>0</bpm>
<rpm>0.00</rpm>
</extensions>
</trkpt>
<trkpt lat="64.118576050" lon="-19.747169495">
<ele>247.750000</ele>
<time>2012-07-21T14:28:49Z</time>
<extensions>
<speed>0.0</speed>
<temp>0.00</temp>
<bpm>0</bpm>
<rpm>0.00</rpm>
</extensions>
</trkpt>
<trkpt lat="64.118576050" lon="-19.747169495">
<ele>247.777344</ele>
<time>2012-07-21T14:28:54Z</time>
<extensions>
<speed>0.0</speed>
<temp>0.00</temp>
<bpm>0</bpm>
<rpm>0.00</rpm>
</extensions>
</trkpt>
<trkpt lat="64.118576050" lon="-19.747169495">
<ele>247.800781</ele>
<time>2012-07-21T14:28:59Z</time>
<extensions>
<speed>0.0</speed>
<temp>0.00</temp>
<bpm>0</bpm>
<rpm>0.00</rpm>
</extensions>
</trkpt>
<trkpt lat="64.118576050" lon="-19.747169495">
<ele>247.828125</ele>
<time>2012-07-21T14:29:04Z</time>
<extensions>
<speed>0.0</speed>
<temp>0.00</temp>
<bpm>0</bpm>
<rpm>0.00</rpm>
</extensions>
</trkpt>
<trkpt lat="64.118576050" lon="-19.747169495">
<ele>247.847656</ele>
<time>2012-07-21T14:29:09Z</time>
<extensions>
<speed>0.0</speed>
<temp>0.00</temp>
<bpm>0</bpm>
<rpm>0.00</rpm>
</extensions>
</trkpt>
<trkpt lat="64.118576050" lon="-19.747169495">
<ele>247.867188</ele>
<time>2012-07-21T14:29:14Z</time>
<extensions>
<speed>0.0</speed>
<temp>0.00</temp>
<bpm>0</bpm>
<rpm>0.00</rpm>
</extensions>
</trkpt>
<trkpt lat="64.118576050" lon="-19.747167587">
<ele>247.890625</ele>
<time>2012-07-21T14:29:19Z</time>
<extensions>
<speed>0.0</speed>
<temp>0.00</temp>
<bpm>0</bpm>
<rpm>0.00</rpm>
</extensions>
</trkpt>
<trkpt lat="64.118576050" lon="-19.747167587">
<ele>247.906250</ele>
<time>2012-07-21T14:29:24Z</time>
<extensions>
<speed>0.0</speed>
<temp>0.00</temp>
<bpm>0</bpm>
<rpm>0.00</rpm>
</extensions>
</trkpt>
<trkpt lat="64.118576050" lon="-19.747167587">
<ele>247.929688</ele>
<time>2012-07-21T14:29:29Z</time>
<extensions>
<speed>0.0</speed>
<temp>0.00</temp>
<bpm>0</bpm>
<rpm>0.00</rpm>
</extensions>
</trkpt>
<trkpt lat="64.118576050" lon="-19.747167587">
<ele>247.949219</ele>
<time>2012-07-21T14:29:34Z</time>
<extensions>
<speed>0.0</speed>
<temp>0.00</temp>
<bpm>0</bpm>
<rpm>0.00</rpm>
</extensions>
</trkpt>
<trkpt lat="64.118576050" lon="-19.747167587">
<ele>247.972656</ele>
<time>2012-07-21T14:29:39Z</time>
<extensions>
<speed>0.0</speed>
<temp>0.00</temp>
<bpm>0</bpm>
<rpm>0.00</rpm>
</extensions>
</trkpt>
<trkpt lat="64.118576050" lon="-19.747167587">
<ele>247.996094</ele>
<time>2012-07-21T14:29:44Z</time>
<extensions>
<speed>0.0</speed>
<temp>0.00</temp>
<bpm>0</bpm>
<rpm>0.00</rpm>
</extensions>
</trkpt>
<trkpt lat="64.118576050" lon="-19.747167587">
<ele>248.023438</ele>
<time>2012-07-21T14:29:49Z</time>
<extensions>
<speed>0.0</speed>
<temp>0.00</temp>
<bpm>0</bpm>
<rpm>0.00</rpm>
</extensions>
</trkpt>
<trkpt lat="64.118576050" lon="-19.747167587">
<ele>248.054688</ele>
<time>2012-07-21T14:29:54Z</time>
<extensions>
<speed>0.0</speed>
<temp>0.00</temp>
<bpm>0</bpm>
<rpm>0.00</rpm>
</extensions>
</trkpt>
<trkpt lat="64.118576050" lon="-19.747167587">
<ele>248.085938</ele>
<time>2012-07-21T14:29:59Z</time>
<extensions>
<speed>0.0</speed>
<temp>0.00</temp>
<bpm>0</bpm>
<rpm>0.00</rpm>
</extensions>
</trkpt>
<trkpt lat="64.118576050" lon="-19.747165680">
<ele>248.109375</ele>
<time>2012-07-21T14:30:04Z</time>
<extensions>
<speed>0.0</speed>
<temp>0.00</temp>
<bpm>0</bpm>
<rpm>0.00</rpm>
</extensions>
</trkpt>
<trkpt lat="64.118576050" lon="-19.747165680">
<ele>248.144531</ele>
<time>2012-07-21T14:30:09Z</time>
<extensions>
<speed>0.0</speed>
<temp>0.00</temp>
<bpm>0</bpm>
<rpm>0.00</rpm>
</extensions>
</trkpt>
<trkpt lat="64.118576050" lon="-19.747165680">
<ele>248.175781</ele>
<time>2012-07-21T14:30:14Z</time>
<extensions>
<speed>0.0</speed>
<temp>0.00</temp>
<bpm>0</bpm>
<rpm>0.00</rpm>
</extensions>
</trkpt>
<trkpt lat="64.118576050" lon="-19.747167587">
<ele>248.210938</ele>
<time>2012-07-21T14:30:19Z</time>
<extensions>
<speed>0.0</speed>
<temp>0.00</temp>
<bpm>0</bpm>
<rpm>0.00</rpm>
</extensions>
</trkpt>
<trkpt lat="64.118576050" lon="-19.747167587">
<ele>248.242188</ele>
<time>2012-07-21T14:30:24Z</time>
<extensions>
<speed>0.0</speed>
<temp>0.00</temp>
<bpm>0</bpm>
<rpm>0.00</rpm>
</extensions>
</trkpt>
<trkpt lat="64.118576050" lon="-19.747167587">
<ele>248.269531</ele>
<time>2012-07-21T14:30:29Z</time>
<extensions>
<speed>0.0</speed>
<temp>0.00</temp>
<bpm>0</bpm>
<rpm>0.00</rpm>
</extensions>
</trkpt>
<trkpt lat="64.118576050" lon="-19.747167587">
<ele>248.300781</ele>
<time>2012-07-21T14:30:34Z</time>
<extensions>
<speed>0.0</speed>
<temp>0.00</temp>
<bpm>0</bpm>
<rpm>0.00</rpm>
</extensions>
</trkpt>
<trkpt lat="64.118568420" lon="-19.747167587">
<ele>248.324219</ele>
<time>2012-07-21T14:30:39Z</time>
<extensions>
<speed>0.0</speed>
<temp>0.00</temp>
<bpm>0</bpm>
<rpm>0.00</rpm>
</extensions>
</trkpt>
<trkpt lat="64.118568420" lon="-19.747167587">
<ele>248.351563</ele>
<time>2012-07-21T14:30:44Z</time>
<extensions>
<speed>0.0</speed>
<temp>0.00</temp>
<bpm>0</bpm>
<rpm>0.00</rpm>
</extensions>
</trkpt>
<trkpt lat="64.118568420" lon="-19.747167587">
<ele>248.371094</ele>
<time>2012-07-21T14:30:49Z</time>
<extensions>
<speed>0.0</speed>
<temp>0.00</temp>
<bpm>0</bpm>
<rpm>0.00</rpm>
</extensions>
</trkpt>
<trkpt lat="64.118568420" lon="-19.747167587">
<ele>248.390625</ele>
<time>2012-07-21T14:30:54Z</time>
<extensions>
<speed>0.0</speed>
<temp>0.00</temp>
<bpm>0</bpm>
<rpm>0.00</rpm>
</extensions>
</trkpt>
<trkpt lat="64.118568420" lon="-19.747167587">
<ele>248.414063</ele>
<time>2012-07-21T14:30:59Z</time>
<extensions>
<speed>0.0</speed>
<temp>0.00</temp>
<bpm>0</bpm>
<rpm>0.00</rpm>
</extensions>
</trkpt>
<trkpt lat="64.118568420" lon="-19.747169495">
<ele>248.429688</ele>
<time>2012-07-21T14:31:04Z</time>
<extensions>
<speed>0.0</speed>
<temp>0.00</temp>
<bpm>0</bpm>
<rpm>0.00</rpm>
</extensions>
</trkpt>
<trkpt lat="64.118568420" lon="-19.747169495">
<ele>248.445313</ele>
<time>2012-07-21T14:31:09Z</time>
<extensions>
<speed>0.0</speed>
<temp>0.00</temp>
<bpm>0</bpm>
<rpm>0.00</rpm>
</extensions>
</trkpt>
<trkpt lat="64.118568420" lon="-19.747169495">
<ele>248.460938</ele>
<time>2012-07-21T14:31:14Z</time>
<extensions>
<speed>0.0</speed>
<temp>0.00</temp>
<bpm>0</bpm>
<rpm>0.00</rpm>
</extensions>
</trkpt>
<trkpt lat="64.118568420" lon="-19.747169495">
<ele>248.472656</ele>
<time>2012-07-21T14:31:19Z</time>
<extensions>
<speed>0.0</speed>
<temp>0.00</temp>
<bpm>0</bpm>
<rpm>0.00</rpm>
</extensions>
</trkpt>
<trkpt lat="64.118568420" lon="-19.747169495">
<ele>248.480469</ele>
<time>2012-07-21T14:31:24Z</time>
<extensions>
<speed>0.0</speed>
<temp>0.00</temp>
<bpm>0</bpm>
<rpm>0.00</rpm>
</extensions>
</trkpt>
<trkpt lat="64.118568420" lon="-19.747169495">
<ele>248.488281</ele>
<time>2012-07-21T14:31:29Z</time>
<extensions>
<speed>0.0</speed>
<temp>0.00</temp>
<bpm>0</bpm>
<rpm>0.00</rpm>
</extensions>
</trkpt>
<trkpt lat="64.118568420" lon="-19.747169495">
<ele>248.500000</ele>
<time>2012-07-21T14:31:34Z</time>
<extensions>
<speed>0.0</speed>
<temp>0.00</temp>
<bpm>0</bpm>
<rpm>0.00</rpm>
</extensions>
</trkpt>
<trkpt lat="64.118568420" lon="-19.747169495">
<ele>248.511719</ele>
<time>2012-07-21T14:31:39Z</time>
<extensions>
<speed>0.0</speed>
<temp>0.00</temp>
<bpm>0</bpm>
<rpm>0.00</rpm>
</extensions>
</trkpt>
<trkpt lat="64.118568420" lon="-19.747169495">
<ele>248.523438</ele>
<time>2012-07-21T14:31:44Z</time>
<extensions>
<speed>0.0</speed>
<temp>0.00</temp>
<bpm>0</bpm>
<rpm>0.00</rpm>
</extensions>
</trkpt>
<trkpt lat="64.118568420" lon="-19.747169495">
<ele>248.531250</ele>
<time>2012-07-21T14:31:49Z</time>
<extensions>
<speed>0.0</speed>
<temp>0.00</temp>
<bpm>0</bpm>
<rpm>0.00</rpm>
</extensions>
</trkpt>
<trkpt lat="64.118568420" lon="-19.747171402">
<ele>248.542969</ele>
<time>2012-07-21T14:31:54Z</time>
<extensions>
<speed>0.0</speed>
<temp>0.00</temp>
<bpm>0</bpm>
<rpm>0.00</rpm>
</extensions>
</trkpt>
<trkpt lat="64.118568420" lon="-19.747171402">
<ele>248.558594</ele>
<time>2012-07-21T14:31:59Z</time>
<extensions>
<speed>0.0</speed>
<temp>0.00</temp>
<bpm>0</bpm>
<rpm>0.00</rpm>
</extensions>
</trkpt>
<trkpt lat="64.118576050" lon="-19.747171402">
<ele>248.562500</ele>
<time>2012-07-21T14:32:04Z</time>
<extensions>
<speed>0.0</speed>
<temp>0.00</temp>
<bpm>0</bpm>
<rpm>0.00</rpm>
</extensions>
</trkpt>
<trkpt lat="64.118576050" lon="-19.747171402">
<ele>248.574219</ele>
<time>2012-07-21T14:32:09Z</time>
<extensions>
<speed>0.0</speed>
<temp>0.00</temp>
<bpm>0</bpm>
<rpm>0.00</rpm>
</extensions>
</trkpt>
<trkpt lat="64.118576050" lon="-19.747171402">
<ele>248.582031</ele>
<time>2012-07-21T14:32:14Z</time>
<extensions>
<speed>0.0</speed>
<temp>0.00</temp>
<bpm>0</bpm>
<rpm>0.00</rpm>
</extensions>
</trkpt>
<trkpt lat="64.118576050" lon="-19.747173309">
<ele>248.593750</ele>
<time>2012-07-21T14:32:19Z</time>
<extensions>
<speed>0.0</speed>
<temp>0.00</temp>
<bpm>0</bpm>
<rpm>0.00</rpm>
</extensions>
</trkpt>
<trkpt lat="64.118576050" lon="-19.747173309">
<ele>248.605469</ele>
<time>2012-07-21T14:32:24Z</time>
<extensions>
<speed>0.0</speed>
<temp>0.00</temp>
<bpm>0</bpm>
<rpm>0.00</rpm>
</extensions>
</trkpt>
<trkpt lat="64.118576050" lon="-19.747173309">
<ele>248.621094</ele>
<time>2012-07-21T14:32:29Z</time>
<extensions>
<speed>0.0</speed>
<temp>0.00</temp>
<bpm>0</bpm>
<rpm>0.00</rpm>
</extensions>
</trkpt>
<trkpt lat="64.118576050" lon="-19.747173309">
<ele>248.640625</ele>
<time>2012-07-21T14:32:34Z</time>
<extensions>
<speed>0.0</speed>
<temp>0.00</temp>
<bpm>0</bpm>
<rpm>0.00</rpm>
</extensions>
</trkpt>
<trkpt lat="64.118576050" lon="-19.747175217">
<ele>248.660156</ele>
<time>2012-07-21T14:32:39Z</time>
<extensions>
<speed>0.0</speed>
<temp>0.00</temp>
<bpm>0</bpm>
<rpm>0.00</rpm>
</extensions>
</trkpt>
<trkpt lat="64.118576050" lon="-19.747175217">
<ele>248.671875</ele>
<time>2012-07-21T14:32:44Z</time>
<extensions>
<speed>0.0</speed>
<temp>0.00</temp>
<bpm>0</bpm>
<rpm>0.00</rpm>
</extensions>
</trkpt>
<trkpt lat="64.118576050" lon="-19.747175217">
<ele>248.683594</ele>
<time>2012-07-21T14:32:49Z</time>
<extensions>
<speed>0.0</speed>
<temp>0.00</temp>
<bpm>0</bpm>
<rpm>0.00</rpm>
</extensions>
</trkpt>
<trkpt lat="64.118576050" lon="-19.747175217">
<ele>248.695313</ele>
<time>2012-07-21T14:32:54Z</time>
<extensions>
<speed>0.0</speed>
<temp>0.00</temp>
<bpm>0</bpm>
<rpm>0.00</rpm>
</extensions>
</trkpt>
<trkpt lat="64.118576050" lon="-19.747175217">
<ele>248.707031</ele>
<time>2012-07-21T14:32:59Z</time>
<extensions>
<speed>0.0</speed>
<temp>0.00</temp>
<bpm>0</bpm>
<rpm>0.00</rpm>
</extensions>
</trkpt>
<trkpt lat="64.118576050" lon="-19.747177124">
<ele>248.718750</ele>
<time>2012-07-21T14:33:04Z</time>
<extensions>
<speed>0.0</speed>
<temp>0.00</temp>
<bpm>0</bpm>
<rpm>0.00</rpm>
</extensions>
</trkpt>
<trkpt lat="64.118576050" lon="-19.747177124">
<ele>248.726563</ele>
<time>2012-07-21T14:33:09Z</time>
<extensions>
<speed>0.0</speed>
<temp>0.00</temp>
<bpm>0</bpm>
<rpm>0.00</rpm>
</extensions>
</trkpt>
<trkpt lat="64.118576050" lon="-19.747177124">
<ele>248.734375</ele>
<time>2012-07-21T14:33:14Z</time>
<extensions>
<speed>0.0</speed>
<temp>0.00</temp>
<bpm>0</bpm>
<rpm>0.00</rpm>
</extensions>
</trkpt>
<trkpt lat="64.118576050" lon="-19.747177124">
<ele>248.738281</ele>
<time>2012-07-21T14:33:19Z</time>
<extensions>
<speed>0.0</speed>
<temp>0.00</temp>
<bpm>0</bpm>
<rpm>0.00</rpm>
</extensions>
</trkpt>
<trkpt lat="64.118576050" lon="-19.747177124">
<ele>248.734375</ele>
<time>2012-07-21T14:33:24Z</time>
<extensions>
<speed>0.0</speed>
<temp>0.00</temp>
<bpm>0</bpm>
<rpm>0.00</rpm>
</extensions>
</trkpt>
<trkpt lat="64.118576050" lon="-19.747177124">
<ele>248.738281</ele>
<time>2012-07-21T14:33:29Z</time>
<extensions>
<speed>0.0</speed>
<temp>0.00</temp>
<bpm>0</bpm>
<rpm>0.00</rpm>
</extensions>
</trkpt>
<trkpt lat="64.118576050" lon="-19.747177124">
<ele>248.742188</ele>
<time>2012-07-21T14:33:34Z</time>
<extensions>
<speed>0.0</speed>
<temp>0.00</temp>
<bpm>0</bpm>
<rpm>0.00</rpm>
</extensions>
</trkpt>
<trkpt lat="64.118576050" lon="-19.747177124">
<ele>248.746094</ele>
<time>2012-07-21T14:33:39Z</time>
<extensions>
<speed>0.0</speed>
<temp>0.00</temp>
<bpm>0</bpm>
<rpm>0.00</rpm>
</extensions>
</trkpt>
<trkpt lat="64.118576050" lon="-19.747177124">
<ele>248.750000</ele>
<time>2012-07-21T14:33:44Z</time>
<extensions>
<speed>0.0</speed>
<temp>0.00</temp>
<bpm>0</bpm>
<rpm>0.00</rpm>
</extensions>
</trkpt>
<trkpt lat="64.118576050" lon="-19.747177124">
<ele>248.761719</ele>
<time>2012-07-21T14:33:49Z</time>
<extensions>
<speed>0.0</speed>
<temp>0.00</temp>
<bpm>0</bpm>
<rpm>0.00</rpm>
</extensions>
</trkpt>
<trkpt lat="64.118576050" lon="-19.747177124">
<ele>248.769531</ele>
<time>2012-07-21T14:33:54Z</time>
<extensions>
<speed>0.0</speed>
<temp>0.00</temp>
<bpm>0</bpm>
<rpm>0.00</rpm>
</extensions>
</trkpt>
<trkpt lat="64.118576050" lon="-19.747177124">
<ele>248.773438</ele>
<time>2012-07-21T14:33:59Z</time>
<extensions>
<speed>0.0</speed>
<temp>0.00</temp>
<bpm>0</bpm>
<rpm>0.00</rpm>
</extensions>
</trkpt>
<trkpt lat="64.118576050" lon="-19.747177124">
<ele>248.781250</ele>
<time>2012-07-21T14:34:04Z</time>
<extensions>
<speed>0.0</speed>
<temp>0.00</temp>
<bpm>0</bpm>
<rpm>0.00</rpm>
</extensions>
</trkpt>
<trkpt lat="64.118576050" lon="-19.747177124">
<ele>248.789063</ele>
<time>2012-07-21T14:34:09Z</time>
<extensions>
<speed>0.0</speed>
<temp>0.00</temp>
<bpm>0</bpm>
<rpm>0.00</rpm>
</extensions>
</trkpt>
<trkpt lat="64.118576050" lon="-19.747177124">
<ele>248.796875</ele>
<time>2012-07-21T14:34:14Z</time>
<extensions>
<speed>0.0</speed>
<temp>0.00</temp>
<bpm>0</bpm>
<rpm>0.00</rpm>
</extensions>
</trkpt>
<trkpt lat="64.118576050" lon="-19.747177124">
<ele>248.800781</ele>
<time>2012-07-21T14:34:19Z</time>
<extensions>
<speed>0.0</speed>
<temp>0.00</temp>
<bpm>0</bpm>
<rpm>0.00</rpm>
</extensions>
</trkpt>
<trkpt lat="64.118576050" lon="-19.747177124">
<ele>248.800781</ele>
<time>2012-07-21T14:34:24Z</time>
<extensions>
<speed>0.0</speed>
<temp>0.00</temp>
<bpm>0</bpm>
<rpm>0.00</rpm>
</extensions>
</trkpt>
<trkpt lat="64.118576050" lon="-19.747177124">
<ele>248.804688</ele>
<time>2012-07-21T14:34:29Z</time>
<extensions>
<speed>0.0</speed>
<temp>0.00</temp>
<bpm>0</bpm>
<rpm>0.00</rpm>
</extensions>
</trkpt>
<trkpt lat="64.118576050" lon="-19.747177124">
<ele>248.800781</ele>
<time>2012-07-21T14:34:34Z</time>
<extensions>
<speed>0.0</speed>
<temp>0.00</temp>
<bpm>0</bpm>
<rpm>0.00</rpm>
</extensions>
</trkpt>
<trkpt lat="64.118576050" lon="-19.747177124">
<ele>248.796875</ele>
<time>2012-07-21T14:34:39Z</time>
<extensions>
<speed>0.0</speed>
<temp>0.00</temp>
<bpm>0</bpm>
<rpm>0.00</rpm>
</extensions>
</trkpt>
<trkpt lat="64.118576050" lon="-19.747177124">
<ele>248.792969</ele>
<time>2012-07-21T14:34:44Z</time>
<extensions>
<speed>0.0</speed>
<temp>0.00</temp>
<bpm>0</bpm>
<rpm>0.00</rpm>
</extensions>
</trkpt>
<trkpt lat="64.118576050" lon="-19.747177124">
<ele>248.796875</ele>
<time>2012-07-21T14:34:49Z</time>
<speed>0.010000</speed>
<extensions>
<speed>0.0</speed>
<temp>0.00</temp>
<bpm>0</bpm>
<rpm>0.00</rpm>
</extensions>
</trkpt>
<trkpt lat="64.118576050" lon="-19.747177124">
<ele>248.800781</ele>
<time>2012-07-21T14:34:54Z</time>
<extensions>
<speed>0.0</speed>
<temp>0.00</temp>
<bpm>0</bpm>
<rpm>0.00</rpm>
</extensions>
</trkpt>
<trkpt lat="64.118576050" lon="-19.747177124">
<ele>248.804688</ele>
<time>2012-07-21T14:34:59Z</time>
<extensions>
<speed>0.0</speed>
<temp>0.00</temp>
<bpm>0</bpm>
<rpm>0.00</rpm>
</extensions>
</trkpt>
<trkpt lat="64.118576050" lon="-19.747177124">
<ele>248.812500</ele>
<time>2012-07-21T14:35:04Z</time>
<extensions>
<speed>0.0</speed>
<temp>0.00</temp>
<bpm>0</bpm>
<rpm>0.00</rpm>
</extensions>
</trkpt>
<trkpt lat="64.118576050" lon="-19.747177124">
<ele>248.820313</ele>
<time>2012-07-21T14:35:09Z</time>
<extensions>
<speed>0.0</speed>
<temp>0.00</temp>
<bpm>0</bpm>
<rpm>0.00</rpm>
</extensions>
</trkpt>
<trkpt lat="64.118576050" lon="-19.747177124">
<ele>248.828125</ele>
<time>2012-07-21T14:35:14Z</time>
<extensions>
<speed>0.0</speed>
<temp>0.00</temp>
<bpm>0</bpm>
<rpm>0.00</rpm>
</extensions>
</trkpt>
<trkpt lat="64.118576050" lon="-19.747177124">
<ele>248.839844</ele>
<time>2012-07-21T14:35:19Z</time>
<extensions>
<speed>0.0</speed>
<temp>0.00</temp>
<bpm>0</bpm>
<rpm>0.00</rpm>
</extensions>
</trkpt>
<trkpt lat="64.118576050" lon="-19.747177124">
<ele>248.851563</ele>
<time>2012-07-21T14:35:24Z</time>
<extensions>
<speed>0.0</speed>
<temp>0.00</temp>
<bpm>0</bpm>
<rpm>0.00</rpm>
</extensions>
</trkpt>
<trkpt lat="64.118576050" lon="-19.747177124">
<ele>248.867188</ele>
<time>2012-07-21T14:35:29Z</time>
<extensions>
<speed>0.0</speed>
<temp>0.00</temp>
<bpm>0</bpm>
<rpm>0.00</rpm>
</extensions>
</trkpt>
<trkpt lat="64.118576050" lon="-19.747177124">
<ele>248.882813</ele>
<time>2012-07-21T14:35:34Z</time>
<extensions>
<speed>0.0</speed>
<temp>0.00</temp>
<bpm>0</bpm>
<rpm>0.00</rpm>
</extensions>
</trkpt>
<trkpt lat="64.118576050" lon="-19.747177124">
<ele>248.894531</ele>
<time>2012-07-21T14:35:39Z</time>
<extensions>
<speed>0.0</speed>
<temp>0.00</temp>
<bpm>0</bpm>
<rpm>0.00</rpm>
</extensions>
</trkpt>
<trkpt lat="64.118576050" lon="-19.747177124">
<ele>248.906250</ele>
<time>2012-07-21T14:35:44Z</time>
<extensions>
<speed>0.0</speed>
<temp>0.00</temp>
<bpm>0</bpm>
<rpm>0.00</rpm>
</extensions>
</trkpt>
<trkpt lat="64.118576050" lon="-19.747177124">
<ele>248.921875</ele>
<time>2012-07-21T14:35:49Z</time>
<extensions>
<speed>0.0</speed>
<temp>0.00</temp>
<bpm>0</bpm>
<rpm>0.00</rpm>
</extensions>
</trkpt>
<trkpt lat="64.118576050" lon="-19.747177124">
<ele>248.933594</ele>
<time>2012-07-21T14:35:54Z</time>
<extensions>
<speed>0.0</speed>
<temp>0.00</temp>
<bpm>0</bpm>
<rpm>0.00</rpm>
</extensions>
</trkpt>
<trkpt lat="64.118576050" lon="-19.747179031">
<ele>248.945313</ele>
<time>2012-07-21T14:35:59Z</time>
<extensions>
<speed>0.0</speed>
<temp>0.00</temp>
<bpm>0</bpm>
<rpm>0.00</rpm>
</extensions>
</trkpt>
<trkpt lat="64.118576050" lon="-19.747179031">
<ele>248.957031</ele>
<time>2012-07-21T14:36:04Z</time>
<extensions>
<speed>0.0</speed>
<temp>0.00</temp>
<bpm>0</bpm>
<rpm>0.00</rpm>
</extensions>
</trkpt>
<trkpt lat="64.118576050" lon="-19.747179031">
<ele>248.964844</ele>
<time>2012-07-21T14:36:09Z</time>
<extensions>
<speed>0.0</speed>
<temp>0.00</temp>
<bpm>0</bpm>
<rpm>0.00</rpm>
</extensions>
</trkpt>
<trkpt lat="64.118576050" lon="-19.747179031">
<ele>248.972656</ele>
<time>2012-07-21T14:36:14Z</time>
<speed>0.010000</speed>
<extensions>
<speed>0.0</speed>
<temp>0.00</temp>
<bpm>0</bpm>
<rpm>0.00</rpm>
</extensions>
</trkpt>
<trkpt lat="64.118576050" lon="-19.747179031">
<ele>248.980469</ele>
<time>2012-07-21T14:36:19Z</time>
<extensions>
<speed>0.0</speed>
<temp>0.00</temp>
<bpm>0</bpm>
<rpm>0.00</rpm>
</extensions>
</trkpt>
<trkpt lat="64.118576050" lon="-19.747179031">
<ele>248.988281</ele>
<time>2012-07-21T14:36:24Z</time>
<extensions>
<speed>0.0</speed>
<temp>0.00</temp>
<bpm>0</bpm>
<rpm>0.00</rpm>
</extensions>
</trkpt>
<trkpt lat="64.118576050" lon="-19.747180939">
<ele>248.992188</ele>
<time>2012-07-21T14:36:29Z</time>
<extensions>
<speed>0.0</speed>
<temp>0.00</temp>
<bpm>0</bpm>
<rpm>0.00</rpm>
</extensions>
</trkpt>
<trkpt lat="64.118576050" lon="-19.747180939">
<ele>248.996094</ele>
<time>2012-07-21T14:36:34Z</time>
<extensions>
<speed>0.0</speed>
<temp>0.00</temp>
<bpm>0</bpm>
<rpm>0.00</rpm>
</extensions>
</trkpt>
<trkpt lat="64.118576050" lon="-19.747180939">
<ele>249.000000</ele>
<time>2012-07-21T14:36:39Z</time>
<extensions>
<speed>0.0</speed>
<temp>0.00</temp>
<bpm>0</bpm>
<rpm>0.00</rpm>
</extensions>
</trkpt>
<trkpt lat="64.118576050" lon="-19.747180939">
<ele>248.996094</ele>
<time>2012-07-21T14:36:44Z</time>
<extensions>
<speed>0.0</speed>
<temp>0.00</temp>
<bpm>0</bpm>
<rpm>0.00</rpm>
</extensions>
</trkpt>
<trkpt lat="64.118576050" lon="-19.747180939">
<ele>248.996094</ele>
<time>2012-07-21T14:36:49Z</time>
<extensions>
<speed>0.0</speed>
<temp>0.00</temp>
<bpm>0</bpm>
<rpm>0.00</rpm>
</extensions>
</trkpt>
<trkpt lat="64.118576050" lon="-19.747180939">
<ele>248.996094</ele>
<time>2012-07-21T14:36:54Z</time>
<extensions>
<speed>0.0</speed>
<temp>0.00</temp>
<bpm>0</bpm>
<rpm>0.00</rpm>
</extensions>
</trkpt>
<trkpt lat="64.118576050" lon="-19.747180939">
<ele>248.996094</ele>
<time>2012-07-21T14:36:59Z</time>
<extensions>
<speed>0.0</speed>
<temp>0.00</temp>
<bpm>0</bpm>
<rpm>0.00</rpm>
</extensions>
</trkpt>
<trkpt lat="64.118576050" lon="-19.747179031">
<ele>249.000000</ele>
<time>2012-07-21T14:37:04Z</time>
<speed>0.010000</speed>
<extensions>
<speed>0.0</speed>
<temp>0.00</temp>
<bpm>0</bpm>
<rpm>0.00</rpm>
</extensions>
</trkpt>
<trkpt lat="64.118576050" lon="-19.747179031">
<ele>249.003906</ele>
<time>2012-07-21T14:37:09Z</time>
<extensions>
<speed>0.0</speed>
<temp>0.00</temp>
<bpm>0</bpm>
<rpm>0.00</rpm>
</extensions>
</trkpt>
<trkpt lat="64.118576050" lon="-19.747179031">
<ele>249.011719</ele>
<time>2012-07-21T14:37:14Z</time>
<extensions>
<speed>0.0</speed>
<temp>0.00</temp>
<bpm>0</bpm>
<rpm>0.00</rpm>
</extensions>
</trkpt>
<trkpt lat="64.118576050" lon="-19.747179031">
<ele>249.019531</ele>
<time>2012-07-21T14:37:19Z</time>
<extensions>
<speed>0.0</speed>
<temp>0.00</temp>
<bpm>0</bpm>
<rpm>0.00</rpm>
</extensions>
</trkpt>
<trkpt lat="64.118576050" lon="-19.747179031">
<ele>249.031250</ele>
<time>2012-07-21T14:37:24Z</time>
<extensions>
<speed>0.0</speed>
<temp>0.00</temp>
<bpm>0</bpm>
<rpm>0.00</rpm>
</extensions>
</trkpt>
<trkpt lat="64.118576050" lon="-19.747179031">
<ele>249.046875</ele>
<time>2012-07-21T14:37:29Z</time>
<extensions>
<speed>0.0</speed>
<temp>0.00</temp>
<bpm>0</bpm>
<rpm>0.00</rpm>
</extensions>
</trkpt>
<trkpt lat="64.118576050" lon="-19.747179031">
<ele>249.066406</ele>
<time>2012-07-21T14:37:34Z</time>
<extensions>
<speed>0.0</speed>
<temp>0.00</temp>
<bpm>0</bpm>
<rpm>0.00</rpm>
</extensions>
</trkpt>
<trkpt lat="64.118576050" lon="-19.747179031">
<ele>249.085938</ele>
<time>2012-07-21T14:37:39Z</time>
<extensions>
<speed>0.0</speed>
<temp>0.00</temp>
<bpm>0</bpm>
<rpm>0.00</rpm>
</extensions>
</trkpt>
<trkpt lat="64.118568420" lon="-19.747180939">
<ele>249.105469</ele>
<time>2012-07-21T14:37:44Z</time>
<extensions>
<speed>0.0</speed>
<temp>0.00</temp>
<bpm>0</bpm>
<rpm>0.00</rpm>
</extensions>
</trkpt>
<trkpt lat="64.118568420" lon="-19.747180939">
<ele>249.128906</ele>
<time>2012-07-21T14:37:49Z</time>
<extensions>
<speed>0.0</speed>
<temp>0.00</temp>
<bpm>0</bpm>
<rpm>0.00</rpm>
</extensions>
</trkpt>
<trkpt lat="64.118568420" lon="-19.747180939">
<ele>249.148438</ele>
<time>2012-07-21T14:37:54Z</time>
<extensions>
<speed>0.0</speed>
<temp>0.00</temp>
<bpm>0</bpm>
<rpm>0.00</rpm>
</extensions>
</trkpt>
<trkpt lat="64.118568420" lon="-19.747180939">
<ele>249.167969</ele>
<time>2012-07-21T14:37:59Z</time>
<extensions>
<speed>0.0</speed>
<temp>0.00</temp>
<bpm>0</bpm>
<rpm>0.00</rpm>
</extensions>
</trkpt>
<trkpt lat="64.118568420" lon="-19.747180939">
<ele>249.179688</ele>
<time>2012-07-21T14:38:04Z</time>
<extensions>
<speed>0.0</speed>
<temp>0.00</temp>
<bpm>0</bpm>
<rpm>0.00</rpm>
</extensions>
</trkpt>
<trkpt lat="64.118568420" lon="-19.747182846">
<ele>249.191406</ele>
<time>2012-07-21T14:38:09Z</time>
<extensions>
<speed>0.0</speed>
<temp>0.00</temp>
<bpm>0</bpm>
<rpm>0.00</rpm>
</extensions>
</trkpt>
<trkpt lat="64.118568420" lon="-19.747182846">
<ele>249.199219</ele>
<time>2012-07-21T14:38:14Z</time>
<extensions>
<speed>0.0</speed>
<temp>0.00</temp>
<bpm>0</bpm>
<rpm>0.00</rpm>
</extensions>
</trkpt>
<trkpt lat="64.118568420" lon="-19.747182846">
<ele>249.207031</ele>
<time>2012-07-21T14:38:19Z</time>
<extensions>
<speed>0.0</speed>
<temp>0.00</temp>
<bpm>0</bpm>
<rpm>0.00</rpm>
</extensions>
</trkpt>
<trkpt lat="64.118568420" lon="-19.747182846">
<ele>249.222656</ele>
<time>2012-07-21T14:38:24Z</time>
<extensions>
<speed>0.0</speed>
<temp>0.00</temp>
<bpm>0</bpm>
<rpm>0.00</rpm>
</extensions>
</trkpt>
<trkpt lat="64.118568420" lon="-19.747182846">
<ele>249.234375</ele>
<time>2012-07-21T14:38:29Z</time>
<extensions>
<speed>0.0</speed>
<temp>0.00</temp>
<bpm>0</bpm>
<rpm>0.00</rpm>
</extensions>
</trkpt>
<trkpt lat="64.118568420" lon="-19.747184753">
<ele>249.242188</ele>
<time>2012-07-21T14:38:34Z</time>
<extensions>
<speed>0.0</speed>
<temp>0.00</temp>
<bpm>0</bpm>
<rpm>0.00</rpm>
</extensions>
</trkpt>
<trkpt lat="64.118568420" lon="-19.747184753">
<ele>249.253906</ele>
<time>2012-07-21T14:38:39Z</time>
<extensions>
<speed>0.0</speed>
<temp>0.00</temp>
<bpm>0</bpm>
<rpm>0.00</rpm>
</extensions>
</trkpt>
<trkpt lat="64.118568420" lon="-19.747184753">
<ele>249.269531</ele>
<time>2012-07-21T14:38:44Z</time>
<extensions>
<speed>0.0</speed>
<temp>0.00</temp>
<bpm>0</bpm>
<rpm>0.00</rpm>
</extensions>
</trkpt>
<trkpt lat="64.118568420" lon="-19.747184753">
<ele>249.289063</ele>
<time>2012-07-21T14:38:49Z</time>
<extensions>
<speed>0.0</speed>
<temp>0.00</temp>
<bpm>0</bpm>
<rpm>0.00</rpm>
</extensions>
</trkpt>
<trkpt lat="64.118568420" lon="-19.747184753">
<ele>249.316406</ele>
<time>2012-07-21T14:38:54Z</time>
<extensions>
<speed>0.0</speed>
<temp>0.00</temp>
<bpm>0</bpm>
<rpm>0.00</rpm>
</extensions>
</trkpt>
<trkpt lat="64.118568420" lon="-19.747184753">
<ele>249.343750</ele>
<time>2012-07-21T14:38:59Z</time>
<extensions>
<speed>0.0</speed>
<temp>0.00</temp>
<bpm>0</bpm>
<rpm>0.00</rpm>
</extensions>
</trkpt>
<trkpt lat="64.118568420" lon="-19.747184753">
<ele>249.378906</ele>
<time>2012-07-21T14:39:04Z</time>
<extensions>
<speed>0.0</speed>
<temp>0.00</temp>
<bpm>0</bpm>
<rpm>0.00</rpm>
</extensions>
</trkpt>
<trkpt lat="64.118568420" lon="-19.747186661">
<ele>249.398438</ele>
<time>2012-07-21T14:39:09Z</time>
<extensions>
<speed>0.0</speed>
<temp>0.00</temp>
<bpm>0</bpm>
<rpm>0.00</rpm>
</extensions>
</trkpt>
<trkpt lat="64.118568420" lon="-19.747186661">
<ele>249.414063</ele>
<time>2012-07-21T14:39:14Z</time>
<speed>0.010000</speed>
<extensions>
<speed>0.0</speed>
<temp>0.00</temp>
<bpm>0</bpm>
<rpm>0.00</rpm>
</extensions>
</trkpt>
<trkpt lat="64.118568420" lon="-19.747186661">
<ele>249.425781</ele>
<time>2012-07-21T14:39:19Z</time>
<extensions>
<speed>0.0</speed>
<temp>0.00</temp>
<bpm>0</bpm>
<rpm>0.00</rpm>
</extensions>
</trkpt>
<trkpt lat="64.118568420" lon="-19.747186661">
<ele>249.437500</ele>
<time>2012-07-21T14:39:24Z</time>
<extensions>
<speed>0.0</speed>
<temp>0.00</temp>
<bpm>0</bpm>
<rpm>0.00</rpm>
</extensions>
</trkpt>
<trkpt lat="64.118568420" lon="-19.747186661">
<ele>249.449219</ele>
<time>2012-07-21T14:39:29Z</time>
<extensions>
<speed>0.0</speed>
<temp>0.00</temp>
<bpm>0</bpm>
<rpm>0.00</rpm>
</extensions>
</trkpt>
<trkpt lat="64.118568420" lon="-19.747186661">
<ele>249.460938</ele>
<time>2012-07-21T14:39:34Z</time>
<extensions>
<speed>0.0</speed>
<temp>0.00</temp>
<bpm>0</bpm>
<rpm>0.00</rpm>
</extensions>
</trkpt>
<trkpt lat="64.118568420" lon="-19.747186661">
<ele>249.480469</ele>
<time>2012-07-21T14:39:39Z</time>
<extensions>
<speed>0.0</speed>
<temp>0.00</temp>
<bpm>0</bpm>
<rpm>0.00</rpm>
</extensions>
</trkpt>
<trkpt lat="64.118568420" lon="-19.747186661">
<ele>249.496094</ele>
<time>2012-07-21T14:39:44Z</time>
<extensions>
<speed>0.0</speed>
<temp>0.00</temp>
<bpm>0</bpm>
<rpm>0.00</rpm>
</extensions>
</trkpt>
<trkpt lat="64.118568420" lon="-19.747188568">
<ele>249.515625</ele>
<time>2012-07-21T14:39:49Z</time>
<extensions>
<speed>0.0</speed>
<temp>0.00</temp>
<bpm>0</bpm>
<rpm>0.00</rpm>
</extensions>
</trkpt>
<trkpt lat="64.118568420" lon="-19.747188568">
<ele>249.531250</ele>
<time>2012-07-21T14:39:54Z</time>
<speed>0.010000</speed>
<extensions>
<speed>0.0</speed>
<temp>0.00</temp>
<bpm>0</bpm>
<rpm>0.00</rpm>
</extensions>
</trkpt>
<trkpt lat="64.118568420" lon="-19.747188568">
<ele>249.542969</ele>
<time>2012-07-21T14:39:59Z</time>
<extensions>
<speed>0.0</speed>
<temp>0.00</temp>
<bpm>0</bpm>
<rpm>0.00</rpm>
</extensions>
</trkpt>
<trkpt lat="64.118568420" lon="-19.747188568">
<ele>249.554688</ele>
<time>2012-07-21T14:40:04Z</time>
<speed>0.020000</speed>
<extensions>
<speed>0.0</speed>
<temp>0.00</temp>
<bpm>0</bpm>
<rpm>0.00</rpm>
</extensions>
</trkpt>
<trkpt lat="64.118568420" lon="-19.747190475">
<ele>249.566406</ele>
<time>2012-07-21T14:40:09Z</time>
<speed>0.010000</speed>
<extensions>
<speed>0.0</speed>
<temp>0.00</temp>
<bpm>0</bpm>
<rpm>0.00</rpm>
</extensions>
</trkpt>
<trkpt lat="64.118568420" lon="-19.747190475">
<ele>249.582031</ele>
<time>2012-07-21T14:40:14Z</time>
<extensions>
<speed>0.0</speed>
<temp>0.00</temp>
<bpm>0</bpm>
<rpm>0.00</rpm>
</extensions>
</trkpt>
<trkpt lat="64.118568420" lon="-19.747190475">
<ele>249.597656</ele>
<time>2012-07-21T14:40:19Z</time>
<extensions>
<speed>0.0</speed>
<temp>0.00</temp>
<bpm>0</bpm>
<rpm>0.00</rpm>
</extensions>
</trkpt>
<trkpt lat="64.118568420" lon="-19.747190475">
<ele>249.613281</ele>
<time>2012-07-21T14:40:24Z</time>
<speed>0.010000</speed>
<extensions>
<speed>0.0</speed>
<temp>0.00</temp>
<bpm>0</bpm>
<rpm>0.00</rpm>
</extensions>
</trkpt>
<trkpt lat="64.118568420" lon="-19.747192383">
<ele>249.628906</ele>
<time>2012-07-21T14:40:29Z</time>
<speed>0.010000</speed>
<extensions>
<speed>0.0</speed>
<temp>0.00</temp>
<bpm>0</bpm>
<rpm>0.00</rpm>
</extensions>
</trkpt>
<trkpt lat="64.118568420" lon="-19.747192383">
<ele>249.652344</ele>
<time>2012-07-21T14:40:34Z</time>
<speed>0.010000</speed>
<extensions>
<speed>0.0</speed>
<temp>0.00</temp>
<bpm>0</bpm>
<rpm>0.00</rpm>
</extensions>
</trkpt>
<trkpt lat="64.118568420" lon="-19.747192383">
<ele>249.671875</ele>
<time>2012-07-21T14:40:39Z</time>
<extensions>
<speed>0.0</speed>
<temp>0.00</temp>
<bpm>0</bpm>
<rpm>0.00</rpm>
</extensions>
</trkpt>
<trkpt lat="64.118568420" lon="-19.747192383">
<ele>249.679688</ele>
<time>2012-07-21T14:40:44Z</time>
<speed>0.020000</speed>
<extensions>
<speed>0.0</speed>
<temp>0.00</temp>
<bpm>0</bpm>
<rpm>0.00</rpm>
</extensions>
</trkpt>
<trkpt lat="64.118568420" lon="-19.747192383">
<ele>249.695313</ele>
<time>2012-07-21T14:40:49Z</time>
<extensions>
<speed>0.0</speed>
<temp>0.00</temp>
<bpm>0</bpm>
<rpm>0.00</rpm>
</extensions>
</trkpt>
<trkpt lat="64.118568420" lon="-19.747194290">
<ele>249.710938</ele>
<time>2012-07-21T14:40:54Z</time>
<speed>0.010000</speed>
<extensions>
<speed>0.0</speed>
<temp>0.00</temp>
<bpm>0</bpm>
<rpm>0.00</rpm>
</extensions>
</trkpt>
<trkpt lat="64.118568420" lon="-19.747194290">
<ele>249.726563</ele>
<time>2012-07-21T14:40:59Z</time>
<speed>0.010000</speed>
<extensions>
<speed>0.0</speed>
<temp>0.00</temp>
<bpm>0</bpm>
<rpm>0.00</rpm>
</extensions>
</trkpt>
<trkpt lat="64.118568420" lon="-19.747194290">
<ele>249.746094</ele>
<time>2012-07-21T14:41:04Z</time>
<extensions>
<speed>0.0</speed>
<temp>0.00</temp>
<bpm>0</bpm>
<rpm>0.00</rpm>
</extensions>
</trkpt>
<trkpt lat="64.118568420" lon="-19.747194290">
<ele>249.777344</ele>
<time>2012-07-21T14:41:09Z</time>
<speed>0.010000</speed>
<extensions>
<speed>0.0</speed>
<temp>0.00</temp>
<bpm>0</bpm>
<rpm>0.00</rpm>
</extensions>
</trkpt>
<trkpt lat="64.118568420" lon="-19.747194290">
<ele>249.792969</ele>
<time>2012-07-21T14:41:14Z</time>
<speed>0.010000</speed>
<extensions>
<speed>0.0</speed>
<temp>0.00</temp>
<bpm>0</bpm>
<rpm>0.00</rpm>
</extensions>
</trkpt>
<trkpt lat="64.118568420" lon="-19.747194290">
<ele>249.816406</ele>
<time>2012-07-21T14:41:19Z</time>
<speed>0.010000</speed>
<extensions>
<speed>0.0</speed>
<temp>0.00</temp>
<bpm>0</bpm>
<rpm>0.00</rpm>
</extensions>
</trkpt>
<trkpt lat="64.118568420" lon="-19.747194290">
<ele>249.835938</ele>
<time>2012-07-21T14:41:24Z</time>
<speed>0.080000</speed>
<extensions>
<speed>0.1</speed>
<temp>0.00</temp>
<bpm>0</bpm>
<rpm>0.00</rpm>
</extensions>
</trkpt>
<trkpt lat="64.118568420" lon="-19.747196198">
<ele>249.855469</ele>
<time>2012-07-21T14:41:29Z</time>
<extensions>
<speed>0.0</speed>
<temp>0.00</temp>
<bpm>0</bpm>
<rpm>0.00</rpm>
</extensions>
</trkpt>
<trkpt lat="64.118568420" lon="-19.747196198">
<ele>249.871094</ele>
<time>2012-07-21T14:41:34Z</time>
<extensions>
<speed>0.0</speed>
<temp>0.00</temp>
<bpm>0</bpm>
<rpm>0.00</rpm>
</extensions>
</trkpt>
<trkpt lat="64.118568420" lon="-19.747196198">
<ele>249.882813</ele>
<time>2012-07-21T14:41:39Z</time>
<speed>0.010000</speed>
<extensions>
<speed>0.0</speed>
<temp>0.00</temp>
<bpm>0</bpm>
<rpm>0.00</rpm>
</extensions>
</trkpt>
<trkpt lat="64.118568420" lon="-19.747196198">
<ele>249.902344</ele>
<time>2012-07-21T14:41:44Z</time>
<extensions>
<speed>0.0</speed>
<temp>0.00</temp>
<bpm>0</bpm>
<rpm>0.00</rpm>
</extensions>
</trkpt>
<trkpt lat="64.118568420" lon="-19.747196198">
<ele>249.914063</ele>
<time>2012-07-21T14:41:49Z</time>
<extensions>
<speed>0.0</speed>
<temp>0.00</temp>
<bpm>0</bpm>
<rpm>0.00</rpm>
</extensions>
</trkpt>
<trkpt lat="64.118568420" lon="-19.747196198">
<ele>249.925781</ele>
<time>2012-07-21T14:41:54Z</time>
<extensions>
<speed>0.0</speed>
<temp>0.00</temp>
<bpm>0</bpm>
<rpm>0.00</rpm>
</extensions>
</trkpt>
<trkpt lat="64.118568420" lon="-19.747196198">
<ele>249.941406</ele>
<time>2012-07-21T14:41:59Z</time>
<extensions>
<speed>0.0</speed>
<temp>0.00</temp>
<bpm>0</bpm>
<rpm>0.00</rpm>
</extensions>
</trkpt>
<trkpt lat="64.118568420" lon="-19.747196198">
<ele>249.960938</ele>
<time>2012-07-21T14:42:04Z</time>
<speed>0.020000</speed>
<extensions>
<speed>0.0</speed>
<temp>0.00</temp>
<bpm>0</bpm>
<rpm>0.00</rpm>
</extensions>
</trkpt>
<trkpt lat="64.118568420" lon="-19.747196198">
<ele>249.984375</ele>
<time>2012-07-21T14:42:09Z</time>
<speed>0.070000</speed>
<extensions>
<speed>0.1</speed>
<temp>0.00</temp>
<bpm>0</bpm>
<rpm>0.00</rpm>
</extensions>
</trkpt>
<trkpt lat="64.118568420" lon="-19.747198105">
<ele>250.015625</ele>
<time>2012-07-21T14:42:14Z</time>
<speed>0.020000</speed>
<extensions>
<speed>0.0</speed>
<temp>0.00</temp>
<bpm>0</bpm>
<rpm>0.00</rpm>
</extensions>
</trkpt>
<trkpt lat="64.118568420" lon="-19.747198105">
<ele>250.050781</ele>
<time>2012-07-21T14:42:19Z</time>
<speed>0.010000</speed>
<extensions>
<speed>0.0</speed>
<temp>0.00</temp>
<bpm>0</bpm>
<rpm>0.00</rpm>
</extensions>
</trkpt>
<trkpt lat="64.118568420" lon="-19.747200012">
<ele>250.089844</ele>
<time>2012-07-21T14:42:24Z</time>
<extensions>
<speed>0.0</speed>
<temp>0.00</temp>
<bpm>0</bpm>
<rpm>0.00</rpm>
</extensions>
</trkpt>
<trkpt lat="64.118568420" lon="-19.747200012">
<ele>250.128906</ele>
<time>2012-07-21T14:42:29Z</time>
<extensions>
<speed>0.0</speed>
<temp>0.00</temp>
<bpm>0</bpm>
<rpm>0.00</rpm>
</extensions>
</trkpt>
<trkpt lat="64.118576050" lon="-19.747201920">
<ele>250.160156</ele>
<time>2012-07-21T14:42:34Z</time>
<extensions>
<speed>0.0</speed>
<temp>0.00</temp>
<bpm>0</bpm>
<rpm>0.00</rpm>
</extensions>
</trkpt>
<trkpt lat="64.118576050" lon="-19.747203827">
<ele>250.238281</ele>
<time>2012-07-21T14:42:39Z</time>
<speed>0.020000</speed>
<extensions>
<speed>0.0</speed>
<temp>0.00</temp>
<bpm>0</bpm>
<rpm>0.00</rpm>
</extensions>
</trkpt>
<trkpt lat="64.118576050" lon="-19.747207642">
<ele>250.371094</ele>
<time>2012-07-21T14:42:44Z</time>
<speed>0.070000</speed>
<extensions>
<speed>0.1</speed>
<temp>0.00</temp>
<bpm>0</bpm>
<rpm>0.00</rpm>
</extensions>
</trkpt>
<trkpt lat="64.118576050" lon="-19.747215271">
<ele>250.515625</ele>
<time>2012-07-21T14:42:49Z</time>
<speed>0.070000</speed>
<extensions>
<speed>0.1</speed>
<temp>0.00</temp>
<bpm>0</bpm>
<rpm>0.00</rpm>
</extensions>
</trkpt>
<trkpt lat="64.118576050" lon="-19.747220993">
<ele>250.714844</ele>
<time>2012-07-21T14:42:54Z</time>
<speed>0.110000</speed>
<extensions>
<speed>0.1</speed>
<temp>0.00</temp>
<bpm>0</bpm>
<rpm>0.00</rpm>
</extensions>
</trkpt>
<trkpt lat="64.118583679" lon="-19.747230530">
<ele>250.886719</ele>
<time>2012-07-21T14:42:59Z</time>
<speed>0.140000</speed>
<extensions>
<speed>0.1</speed>
<temp>0.00</temp>
<bpm>0</bpm>
<rpm>0.00</rpm>
</extensions>
</trkpt>
<trkpt lat="64.118583679" lon="-19.747243881">
<ele>251.062500</ele>
<time>2012-07-21T14:43:04Z</time>
<speed>0.120000</speed>
<extensions>
<speed>0.1</speed>
<temp>0.00</temp>
<bpm>0</bpm>
<rpm>0.00</rpm>
</extensions>
</trkpt>
<trkpt lat="64.118583679" lon="-19.747253418">
<ele>251.218750</ele>
<time>2012-07-21T14:43:09Z</time>
<speed>0.090000</speed>
<extensions>
<speed>0.1</speed>
<temp>0.00</temp>
<bpm>0</bpm>
<rpm>0.00</rpm>
</extensions>
</trkpt>
<trkpt lat="64.118583679" lon="-19.747264862">
<ele>251.394531</ele>
<time>2012-07-21T14:43:14Z</time>
<speed>0.110000</speed>
<extensions>
<speed>0.1</speed>
<temp>0.00</temp>
<bpm>0</bpm>
<rpm>0.00</rpm>
</extensions>
</trkpt>
<trkpt lat="64.118583679" lon="-19.747274399">
<ele>251.578125</ele>
<time>2012-07-21T14:43:19Z</time>
<speed>0.050000</speed>
<extensions>
<speed>0.1</speed>
<temp>0.00</temp>
<bpm>0</bpm>
<rpm>0.00</rpm>
</extensions>
</trkpt>
<trkpt lat="64.118591309" lon="-19.747280121">
<ele>251.761719</ele>
<time>2012-07-21T14:43:24Z</time>
<speed>0.070000</speed>
<extensions>
<speed>0.1</speed>
<temp>0.00</temp>
<bpm>0</bpm>
<rpm>0.00</rpm>
</extensions>
</trkpt>
<trkpt lat="64.118591309" lon="-19.747289658">
<ele>251.957031</ele>
<time>2012-07-21T14:43:29Z</time>
<speed>0.090000</speed>
<extensions>
<speed>0.1</speed>
<temp>0.00</temp>
<bpm>0</bpm>
<rpm>0.00</rpm>
</extensions>
</trkpt>
<trkpt lat="64.118591309" lon="-19.747297287">
<ele>252.148438</ele>
<time>2012-07-21T14:43:34Z</time>
<speed>0.030000</speed>
<extensions>
<speed>0.0</speed>
<temp>0.00</temp>
<bpm>0</bpm>
<rpm>0.00</rpm>
</extensions>
</trkpt>
<trkpt lat="64.118591309" lon="-19.747299194">
<ele>252.351563</ele>
<time>2012-07-21T14:43:39Z</time>
<speed>0.020000</speed>
<extensions>
<speed>0.0</speed>
<temp>0.00</temp>
<bpm>0</bpm>
<rpm>0.00</rpm>
</extensions>
</trkpt>
<trkpt lat="64.118591309" lon="-19.747301102">
<ele>252.527344</ele>
<time>2012-07-21T14:43:44Z</time>
<speed>0.010000</speed>
<extensions>
<speed>0.0</speed>
<temp>0.00</temp>
<bpm>0</bpm>
<rpm>0.00</rpm>
</extensions>
</trkpt>
<trkpt lat="64.118591309" lon="-19.747303009">
<ele>252.687500</ele>
<time>2012-07-21T14:43:49Z</time>
<speed>0.020000</speed>
<extensions>
<speed>0.0</speed>
<temp>0.00</temp>
<bpm>0</bpm>
<rpm>0.00</rpm>
</extensions>
</trkpt>
<trkpt lat="64.118591309" lon="-19.747304916">
<ele>252.812500</ele>
<time>2012-07-21T14:43:54Z</time>
<extensions>
<speed>0.0</speed>
<temp>0.00</temp>
<bpm>0</bpm>
<rpm>0.00</rpm>
</extensions>
</trkpt>
<trkpt lat="64.118591309" lon="-19.747303009">
<ele>252.828125</ele>
<time>2012-07-21T14:43:59Z</time>
<extensions>
<speed>0.0</speed>
<temp>0.00</temp>
<bpm>0</bpm>
<rpm>0.00</rpm>
</extensions>
</trkpt>
<trkpt lat="64.118591309" lon="-19.747304916">
<ele>252.851563</ele>
<time>2012-07-21T14:44:04Z</time>
<speed>0.030000</speed>
<extensions>
<speed>0.0</speed>
<temp>0.00</temp>
<bpm>0</bpm>
<rpm>0.00</rpm>
</extensions>
</trkpt>
<trkpt lat="64.118591309" lon="-19.747306824">
<ele>252.898438</ele>
<time>2012-07-21T14:44:09Z</time>
<extensions>
<speed>0.0</speed>
<temp>0.00</temp>
<bpm>0</bpm>
<rpm>0.00</rpm>
</extensions>
</trkpt>
<trkpt lat="64.118591309" lon="-19.747306824">
<ele>252.925781</ele>
<time>2012-07-21T14:44:14Z</time>
<speed>0.010000</speed>
<extensions>
<speed>0.0</speed>
<temp>0.00</temp>
<bpm>0</bpm>
<rpm>0.00</rpm>
</extensions>
</trkpt>
<trkpt lat="64.118591309" lon="-19.747306824">
<ele>252.945313</ele>
<time>2012-07-21T14:44:19Z</time>
<speed>0.010000</speed>
<extensions>
<speed>0.0</speed>
<temp>0.00</temp>
<bpm>0</bpm>
<rpm>0.00</rpm>
</extensions>
</trkpt>
<trkpt lat="64.118591309" lon="-19.747306824">
<ele>252.964844</ele>
<time>2012-07-21T14:44:24Z</time>
<extensions>
<speed>0.0</speed>
<temp>0.00</temp>
<bpm>0</bpm>
<rpm>0.00</rpm>
</extensions>
</trkpt>
<trkpt lat="64.118591309" lon="-19.747308731">
<ele>252.976563</ele>
<time>2012-07-21T14:44:29Z</time>
<speed>0.030000</speed>
<extensions>
<speed>0.0</speed>
<temp>0.00</temp>
<bpm>0</bpm>
<rpm>0.00</rpm>
</extensions>
</trkpt>
<trkpt lat="64.118591309" lon="-19.747308731">
<ele>252.988281</ele>
<time>2012-07-21T14:44:34Z</time>
<extensions>
<speed>0.0</speed>
<temp>0.00</temp>
<bpm>0</bpm>
<rpm>0.00</rpm>
</extensions>
</trkpt>
<trkpt lat="64.118591309" lon="-19.747308731">
<ele>253.003906</ele>
<time>2012-07-21T14:44:39Z</time>
<speed>0.020000</speed>
<extensions>
<speed>0.0</speed>
<temp>0.00</temp>
<bpm>0</bpm>
<rpm>0.00</rpm>
</extensions>
</trkpt>
<trkpt lat="64.118591309" lon="-19.747308731">
<ele>253.011719</ele>
<time>2012-07-21T14:44:44Z</time>
<speed>0.020000</speed>
<extensions>
<speed>0.0</speed>
<temp>0.00</temp>
<bpm>0</bpm>
<rpm>0.00</rpm>
</extensions>
</trkpt>
<trkpt lat="64.118591309" lon="-19.747310638">
<ele>253.027344</ele>
<time>2012-07-21T14:44:49Z</time>
<extensions>
<speed>0.0</speed>
<temp>0.00</temp>
<bpm>0</bpm>
<rpm>0.00</rpm>
</extensions>
</trkpt>
<trkpt lat="64.118591309" lon="-19.747310638">
<ele>253.042969</ele>
<time>2012-07-21T14:44:54Z</time>
<speed>0.020000</speed>
<extensions>
<speed>0.0</speed>
<temp>0.00</temp>
<bpm>0</bpm>
<rpm>0.00</rpm>
</extensions>
</trkpt>
<trkpt lat="64.118591309" lon="-19.747310638">
<ele>253.050781</ele>
<time>2012-07-21T14:44:59Z</time>
<extensions>
<speed>0.0</speed>
<temp>0.00</temp>
<bpm>0</bpm>
<rpm>0.00</rpm>
</extensions>
</trkpt>
<trkpt lat="64.118591309" lon="-19.747312546">
<ele>253.062500</ele>
<time>2012-07-21T14:45:04Z</time>
<speed>0.020000</speed>
<extensions>
<speed>0.0</speed>
<temp>0.00</temp>
<bpm>0</bpm>
<rpm>0.00</rpm>
</extensions>
</trkpt>
<trkpt lat="64.118591309" lon="-19.747312546">
<ele>253.066406</ele>
<time>2012-07-21T14:45:09Z</time>
<speed>0.010000</speed>
<extensions>
<speed>0.0</speed>
<temp>0.00</temp>
<bpm>0</bpm>
<rpm>0.00</rpm>
</extensions>
</trkpt>
<trkpt lat="64.118591309" lon="-19.747312546">
<ele>253.062500</ele>
<time>2012-07-21T14:45:14Z</time>
<extensions>
<speed>0.0</speed>
<temp>0.00</temp>
<bpm>0</bpm>
<rpm>0.00</rpm>
</extensions>
</trkpt>
<trkpt lat="64.118591309" lon="-19.747312546">
<ele>253.042969</ele>
<time>2012-07-21T14:45:19Z</time>
<speed>0.010000</speed>
<extensions>
<speed>0.0</speed>
<temp>0.00</temp>
<bpm>0</bpm>
<rpm>0.00</rpm>
</extensions>
</trkpt>
<trkpt lat="64.118591309" lon="-19.747312546">
<ele>253.027344</ele>
<time>2012-07-21T14:45:24Z</time>
<extensions>
<speed>0.0</speed>
<temp>0.00</temp>
<bpm>0</bpm>
<rpm>0.00</rpm>
</extensions>
</trkpt>
<trkpt lat="64.118591309" lon="-19.747312546">
<ele>253.003906</ele>
<time>2012-07-21T14:45:29Z</time>
<extensions>
<speed>0.0</speed>
<temp>0.00</temp>
<bpm>0</bpm>
<rpm>0.00</rpm>
</extensions>
</trkpt>
<trkpt lat="64.118591309" lon="-19.747312546">
<ele>252.992188</ele>
<time>2012-07-21T14:45:34Z</time>
<extensions>
<speed>0.0</speed>
<temp>0.00</temp>
<bpm>0</bpm>
<rpm>0.00</rpm>
</extensions>
</trkpt>
<trkpt lat="64.118591309" lon="-19.747312546">
<ele>252.984375</ele>
<time>2012-07-21T14:45:39Z</time>
<extensions>
<speed>0.0</speed>
<temp>0.00</temp>
<bpm>0</bpm>
<rpm>0.00</rpm>
</extensions>
</trkpt>
<trkpt lat="64.118591309" lon="-19.747312546">
<ele>252.968750</ele>
<time>2012-07-21T14:45:44Z</time>
<speed>0.010000</speed>
<extensions>
<speed>0.0</speed>
<temp>0.00</temp>
<bpm>0</bpm>
<rpm>0.00</rpm>
</extensions>
</trkpt>
<trkpt lat="64.118591309" lon="-19.747312546">
<ele>252.960938</ele>
<time>2012-07-21T14:45:49Z</time>
<speed>0.010000</speed>
<extensions>
<speed>0.0</speed>
<temp>0.00</temp>
<bpm>0</bpm>
<rpm>0.00</rpm>
</extensions>
</trkpt>
<trkpt lat="64.118591309" lon="-19.747312546">
<ele>252.957031</ele>
<time>2012-07-21T14:45:54Z</time>
<speed>0.020000</speed>
<extensions>
<speed>0.0</speed>
<temp>0.00</temp>
<bpm>0</bpm>
<rpm>0.00</rpm>
</extensions>
</trkpt>
<trkpt lat="64.118591309" lon="-19.747312546">
<ele>252.953125</ele>
<time>2012-07-21T14:45:59Z</time>
<speed>0.050000</speed>
<extensions>
<speed>0.1</speed>
<temp>0.00</temp>
<bpm>0</bpm>
<rpm>0.00</rpm>
</extensions>
</trkpt>
<trkpt lat="64.118591309" lon="-19.747312546">
<ele>252.949219</ele>
<time>2012-07-21T14:46:04Z</time>
<speed>0.030000</speed>
<extensions>
<speed>0.0</speed>
<temp>0.00</temp>
<bpm>0</bpm>
<rpm>0.00</rpm>
</extensions>
</trkpt>
<trkpt lat="64.118591309" lon="-19.747312546">
<ele>252.960938</ele>
<time>2012-07-21T14:46:09Z</time>
<extensions>
<speed>0.0</speed>
<temp>0.00</temp>
<bpm>0</bpm>
<rpm>0.00</rpm>
</extensions>
</trkpt>
<trkpt lat="64.118591309" lon="-19.747312546">
<ele>252.968750</ele>
<time>2012-07-21T14:46:14Z</time>
<extensions>
<speed>0.0</speed>
<temp>0.00</temp>
<bpm>0</bpm>
<rpm>0.00</rpm>
</extensions>
</trkpt>
<trkpt lat="64.118591309" lon="-19.747310638">
<ele>252.968750</ele>
<time>2012-07-21T14:46:19Z</time>
<extensions>
<speed>0.0</speed>
<temp>0.00</temp>
<bpm>0</bpm>
<rpm>0.00</rpm>
</extensions>
</trkpt>
<trkpt lat="64.118591309" lon="-19.747310638">
<ele>252.972656</ele>
<time>2012-07-21T14:46:24Z</time>
<extensions>
<speed>0.0</speed>
<temp>0.00</temp>
<bpm>0</bpm>
<rpm>0.00</rpm>
</extensions>
</trkpt>
<trkpt lat="64.118591309" lon="-19.747310638">
<ele>252.976563</ele>
<time>2012-07-21T14:46:29Z</time>
<extensions>
<speed>0.0</speed>
<temp>0.00</temp>
<bpm>0</bpm>
<rpm>0.00</rpm>
</extensions>
</trkpt>
<trkpt lat="64.118591309" lon="-19.747310638">
<ele>252.980469</ele>
<time>2012-07-21T14:46:34Z</time>
<speed>0.060000</speed>
<extensions>
<speed>0.1</speed>
<temp>0.00</temp>
<bpm>0</bpm>
<rpm>0.00</rpm>
</extensions>
</trkpt>
<trkpt lat="64.118591309" lon="-19.747310638">
<ele>252.972656</ele>
<time>2012-07-21T14:46:39Z</time>
<extensions>
<speed>0.0</speed>
<temp>0.00</temp>
<bpm>0</bpm>
<rpm>0.00</rpm>
</extensions>
</trkpt>
<trkpt lat="64.118591309" lon="-19.747310638">
<ele>252.972656</ele>
<time>2012-07-21T14:46:44Z</time>
<extensions>
<speed>0.0</speed>
<temp>0.00</temp>
<bpm>0</bpm>
<rpm>0.00</rpm>
</extensions>
</trkpt>
<trkpt lat="64.118591309" lon="-19.747310638">
<ele>252.968750</ele>
<time>2012-07-21T14:46:49Z</time>
<extensions>
<speed>0.0</speed>
<temp>0.00</temp>
<bpm>0</bpm>
<rpm>0.00</rpm>
</extensions>
</trkpt>
<trkpt lat="64.118591309" lon="-19.747310638">
<ele>252.976563</ele>
<time>2012-07-21T14:46:54Z</time>
<extensions>
<speed>0.0</speed>
<temp>0.00</temp>
<bpm>0</bpm>
<rpm>0.00</rpm>
</extensions>
</trkpt>
<trkpt lat="64.118591309" lon="-19.747310638">
<ele>252.992188</ele>
<time>2012-07-21T14:46:59Z</time>
<extensions>
<speed>0.0</speed>
<temp>0.00</temp>
<bpm>0</bpm>
<rpm>0.00</rpm>
</extensions>
</trkpt>
<trkpt lat="64.118591309" lon="-19.747310638">
<ele>253.003906</ele>
<time>2012-07-21T14:47:04Z</time>
<extensions>
<speed>0.0</speed>
<temp>0.00</temp>
<bpm>0</bpm>
<rpm>0.00</rpm>
</extensions>
</trkpt>
<trkpt lat="64.118591309" lon="-19.747308731">
<ele>253.046875</ele>
<time>2012-07-21T14:47:09Z</time>
<extensions>
<speed>0.0</speed>
<temp>0.00</temp>
<bpm>0</bpm>
<rpm>0.00</rpm>
</extensions>
</trkpt>
<trkpt lat="64.118591309" lon="-19.747308731">
<ele>253.109375</ele>
<time>2012-07-21T14:47:14Z</time>
<extensions>
<speed>0.0</speed>
<temp>0.00</temp>
<bpm>0</bpm>
<rpm>0.00</rpm>
</extensions>
</trkpt>
<trkpt lat="64.118591309" lon="-19.747308731">
<ele>253.171875</ele>
<time>2012-07-21T14:47:19Z</time>
<extensions>
<speed>0.0</speed>
<temp>0.00</temp>
<bpm>0</bpm>
<rpm>0.00</rpm>
</extensions>
</trkpt>
<trkpt lat="64.118591309" lon="-19.747306824">
<ele>253.203125</ele>
<time>2012-07-21T14:47:24Z</time>
<extensions>
<speed>0.0</speed>
<temp>0.00</temp>
<bpm>0</bpm>
<rpm>0.00</rpm>
</extensions>
</trkpt>
<trkpt lat="64.118591309" lon="-19.747306824">
<ele>253.250000</ele>
<time>2012-07-21T14:47:29Z</time>
<speed>0.060000</speed>
<extensions>
<speed>0.1</speed>
<temp>0.00</temp>
<bpm>0</bpm>
<rpm>0.00</rpm>
</extensions>
</trkpt>
<trkpt lat="64.118591309" lon="-19.747306824">
<ele>253.269531</ele>
<time>2012-07-21T14:47:34Z</time>
<speed>0.010000</speed>
<extensions>
<speed>0.0</speed>
<temp>0.00</temp>
<bpm>0</bpm>
<rpm>0.00</rpm>
</extensions>
</trkpt>
<trkpt lat="64.118591309" lon="-19.747306824">
<ele>253.281250</ele>
<time>2012-07-21T14:47:39Z</time>
<extensions>
<speed>0.0</speed>
<temp>0.00</temp>
<bpm>0</bpm>
<rpm>0.00</rpm>
</extensions>
</trkpt>
<trkpt lat="64.118591309" lon="-19.747306824">
<ele>253.296875</ele>
<time>2012-07-21T14:47:44Z</time>
<speed>0.010000</speed>
<extensions>
<speed>0.0</speed>
<temp>0.00</temp>
<bpm>0</bpm>
<rpm>0.00</rpm>
</extensions>
</trkpt>
<trkpt lat="64.118591309" lon="-19.747306824">
<ele>253.289063</ele>
<time>2012-07-21T14:47:49Z</time>
<speed>0.010000</speed>
<extensions>
<speed>0.0</speed>
<temp>0.00</temp>
<bpm>0</bpm>
<rpm>0.00</rpm>
</extensions>
</trkpt>
<trkpt lat="64.118583679" lon="-19.747308731">
<ele>253.042969</ele>
<time>2012-07-21T14:47:54Z</time>
<speed>0.350000</speed>
<extensions>
<speed>0.3</speed>
<temp>0.00</temp>
<bpm>0</bpm>
<rpm>0.00</rpm>
</extensions>
</trkpt>
<trkpt lat="64.118583679" lon="-19.747289658">
<ele>249.582031</ele>
<time>2012-07-21T14:47:59Z</time>
<speed>0.080000</speed>
<extensions>
<speed>0.1</speed>
<temp>0.00</temp>
<bpm>0</bpm>
<rpm>0.00</rpm>
</extensions>
</trkpt>
<trkpt lat="64.118614197" lon="-19.747306824">
<ele>248.167969</ele>
<time>2012-07-21T14:48:04Z</time>
<speed>2.330000</speed>
<extensions>
<speed>2.3</speed>
<temp>0.00</temp>
<bpm>0</bpm>
<rpm>0.00</rpm>
</extensions>
</trkpt>
<trkpt lat="64.118751526" lon="-19.747425079">
<ele>247.687500</ele>
<time>2012-07-21T14:48:09Z</time>
<speed>3.520000</speed>
<extensions>
<speed>3.5</speed>
<temp>0.00</temp>
<bpm>0</bpm>
<rpm>0.00</rpm>
</extensions>
</trkpt>
<trkpt lat="64.118865967" lon="-19.747537613">
<ele>248.730469</ele>
<time>2012-07-21T14:48:14Z</time>
<speed>1.650000</speed>
<extensions>
<speed>1.7</speed>
<temp>0.00</temp>
<bpm>0</bpm>
<rpm>0.00</rpm>
</extensions>
</trkpt>
<trkpt lat="64.118957520" lon="-19.747623444">
<ele>248.718750</ele>
<time>2012-07-21T14:48:19Z</time>
<speed>2.130000</speed>
<extensions>
<speed>2.1</speed>
<temp>0.00</temp>
<bpm>0</bpm>
<rpm>0.00</rpm>
</extensions>
</trkpt>
<trkpt lat="64.119056702" lon="-19.747739792">
<ele>250.214844</ele>
<time>2012-07-21T14:48:24Z</time>
<speed>2.250000</speed>
<extensions>
<speed>2.3</speed>
<temp>0.00</temp>
<bpm>0</bpm>
<rpm>0.00</rpm>
</extensions>
</trkpt>
<trkpt lat="64.119155884" lon="-19.747859955">
<ele>251.453125</ele>
<time>2012-07-21T14:48:29Z</time>
<speed>2.190000</speed>
<extensions>
<speed>2.2</speed>
<temp>0.00</temp>
<bpm>0</bpm>
<rpm>0.00</rpm>
</extensions>
</trkpt>
<trkpt lat="64.119239807" lon="-19.747983932">
<ele>252.382813</ele>
<time>2012-07-21T14:48:34Z</time>
<speed>1.880000</speed>
<extensions>
<speed>1.9</speed>
<temp>0.00</temp>
<bpm>0</bpm>
<rpm>0.00</rpm>
</extensions>
</trkpt>
<trkpt lat="64.119300842" lon="-19.748088837">
<ele>253.054688</ele>
<time>2012-07-21T14:48:39Z</time>
<speed>1.730000</speed>
<extensions>
<speed>1.7</speed>
<temp>0.00</temp>
<bpm>0</bpm>
<rpm>0.00</rpm>
</extensions>
</trkpt>
<trkpt lat="64.119369507" lon="-19.748113632">
<ele>254.476563</ele>
<time>2012-07-21T14:48:44Z</time>
<speed>1.570000</speed>
<extensions>
<speed>1.6</speed>
<temp>0.00</temp>
<bpm>0</bpm>
<rpm>0.00</rpm>
</extensions>
</trkpt>
<trkpt lat="64.119430542" lon="-19.748043060">
<ele>254.792969</ele>
<time>2012-07-21T14:48:49Z</time>
<speed>1.820000</speed>
<extensions>
<speed>1.8</speed>
<temp>0.00</temp>
<bpm>0</bpm>
<rpm>0.00</rpm>
</extensions>
</trkpt>
<trkpt lat="64.119453430" lon="-19.747856140">
<ele>254.937500</ele>
<time>2012-07-21T14:48:54Z</time>
<speed>1.770000</speed>
<extensions>
<speed>1.8</speed>
<temp>0.00</temp>
<bpm>0</bpm>
<rpm>0.00</rpm>
</extensions>
</trkpt>
<trkpt lat="64.119468689" lon="-19.747665405">
<ele>255.464844</ele>
<time>2012-07-21T14:48:59Z</time>
<speed>1.490000</speed>
<extensions>
<speed>1.5</speed>
<temp>0.00</temp>
<bpm>0</bpm>
<rpm>0.00</rpm>
</extensions>
</trkpt>
<trkpt lat="64.119499207" lon="-19.747465134">
<ele>255.945313</ele>
<time>2012-07-21T14:49:04Z</time>
<speed>2.380000</speed>
<extensions>
<speed>2.4</speed>
<temp>0.00</temp>
<bpm>0</bpm>
<rpm>0.00</rpm>
</extensions>
</trkpt>
<trkpt lat="64.119529724" lon="-19.747209549">
<ele>256.406250</ele>
<time>2012-07-21T14:49:09Z</time>
<speed>2.650000</speed>
<extensions>
<speed>2.6</speed>
<temp>0.00</temp>
<bpm>0</bpm>
<rpm>0.00</rpm>
</extensions>
</trkpt>
<trkpt lat="64.119560242" lon="-19.746959686">
<ele>256.757813</ele>
<time>2012-07-21T14:49:14Z</time>
<speed>2.440000</speed>
<extensions>
<speed>2.4</speed>
<temp>0.00</temp>
<bpm>0</bpm>
<rpm>0.00</rpm>
</extensions>
</trkpt>
<trkpt lat="64.119598389" lon="-19.746715546">
<ele>257.429688</ele>
<time>2012-07-21T14:49:19Z</time>
<speed>2.410000</speed>
<extensions>
<speed>2.4</speed>
<temp>0.00</temp>
<bpm>0</bpm>
<rpm>0.00</rpm>
</extensions>
</trkpt>
<trkpt lat="64.119636536" lon="-19.746507645">
<ele>258.054688</ele>
<time>2012-07-21T14:49:24Z</time>
<speed>2.330000</speed>
<extensions>
<speed>2.3</speed>
<temp>0.00</temp>
<bpm>0</bpm>
<rpm>0.00</rpm>
</extensions>
</trkpt>
<trkpt lat="64.119674683" lon="-19.746271133">
<ele>257.914063</ele>
<time>2012-07-21T14:49:29Z</time>
<speed>2.350000</speed>
<extensions>
<speed>2.4</speed>
<temp>0.00</temp>
<bpm>0</bpm>
<rpm>0.00</rpm>
</extensions>
</trkpt>
<trkpt lat="64.119712830" lon="-19.746042252">
<ele>257.937500</ele>
<time>2012-07-21T14:49:34Z</time>
<speed>2.250000</speed>
<extensions>
<speed>2.3</speed>
<temp>0.00</temp>
<bpm>0</bpm>
<rpm>0.00</rpm>
</extensions>
</trkpt>
<trkpt lat="64.119750977" lon="-19.745817184">
<ele>258.117188</ele>
<time>2012-07-21T14:49:39Z</time>
<speed>2.550000</speed>
<extensions>
<speed>2.6</speed>
<temp>0.00</temp>
<bpm>0</bpm>
<rpm>0.00</rpm>
</extensions>
</trkpt>
<trkpt lat="64.119796753" lon="-19.745584488">
<ele>258.054688</ele>
<time>2012-07-21T14:49:44Z</time>
<speed>2.530000</speed>
<extensions>
<speed>2.5</speed>
<temp>0.00</temp>
<bpm>0</bpm>
<rpm>0.00</rpm>
</extensions>
</trkpt>
<trkpt lat="64.119842529" lon="-19.745365143">
<ele>258.226563</ele>
<time>2012-07-21T14:49:49Z</time>
<speed>2.360000</speed>
<extensions>
<speed>2.4</speed>
<temp>0.00</temp>
<bpm>0</bpm>
<rpm>0.00</rpm>
</extensions>
</trkpt>
<trkpt lat="64.119888306" lon="-19.745128632">
<ele>257.953125</ele>
<time>2012-07-21T14:49:54Z</time>
<speed>2.650000</speed>
<extensions>
<speed>2.6</speed>
<temp>0.00</temp>
<bpm>0</bpm>
<rpm>0.00</rpm>
</extensions>
</trkpt>
<trkpt lat="64.119934082" lon="-19.744892120">
<ele>257.476563</ele>
<time>2012-07-21T14:49:59Z</time>
<speed>2.350000</speed>
<extensions>
<speed>2.4</speed>
<temp>0.00</temp>
<bpm>0</bpm>
<rpm>0.00</rpm>
</extensions>
</trkpt>
<trkpt lat="64.119979858" lon="-19.744647980">
<ele>257.179688</ele>
<time>2012-07-21T14:50:04Z</time>
<speed>2.730000</speed>
<extensions>
<speed>2.7</speed>
<temp>0.00</temp>
<bpm>0</bpm>
<rpm>0.00</rpm>
</extensions>
</trkpt>
<trkpt lat="64.120025635" lon="-19.744384766">
<ele>256.609375</ele>
<time>2012-07-21T14:50:09Z</time>
<speed>2.720000</speed>
<extensions>
<speed>2.7</speed>
<temp>0.00</temp>
<bpm>0</bpm>
<rpm>0.00</rpm>
</extensions>
</trkpt>
<trkpt lat="64.120086670" lon="-19.744121552">
<ele>256.039063</ele>
<time>2012-07-21T14:50:14Z</time>
<speed>2.930000</speed>
<extensions>
<speed>2.9</speed>
<temp>0.00</temp>
<bpm>0</bpm>
<rpm>0.00</rpm>
</extensions>
</trkpt>
<trkpt lat="64.120140076" lon="-19.743854523">
<ele>255.210938</ele>
<time>2012-07-21T14:50:19Z</time>
<speed>3.100000</speed>
<extensions>
<speed>3.1</speed>
<temp>0.00</temp>
<bpm>0</bpm>
<rpm>0.00</rpm>
</extensions>
</trkpt>
<trkpt lat="64.120201111" lon="-19.743562698">
<ele>254.816406</ele>
<time>2012-07-21T14:50:24Z</time>
<speed>3.180000</speed>
<extensions>
<speed>3.2</speed>
<temp>0.00</temp>
<bpm>0</bpm>
<rpm>0.00</rpm>
</extensions>
</trkpt>
<trkpt lat="64.120254517" lon="-19.743251801">
<ele>253.566406</ele>
<time>2012-07-21T14:50:29Z</time>
<speed>3.390000</speed>
<extensions>
<speed>3.4</speed>
<temp>0.00</temp>
<bpm>0</bpm>
<rpm>0.00</rpm>
</extensions>
</trkpt>
<trkpt lat="64.120315552" lon="-19.742958069">
<ele>253.527344</ele>
<time>2012-07-21T14:50:34Z</time>
<speed>3.260000</speed>
<extensions>
<speed>3.3</speed>
<temp>0.00</temp>
<bpm>0</bpm>
<rpm>0.00</rpm>
</extensions>
</trkpt>
<trkpt lat="64.120368958" lon="-19.742641449">
<ele>253.199219</ele>
<time>2012-07-21T14:50:39Z</time>
<speed>3.150000</speed>
<extensions>
<speed>3.2</speed>
<temp>0.00</temp>
<bpm>0</bpm>
<rpm>0.00</rpm>
</extensions>
</trkpt>
<trkpt lat="64.120429993" lon="-19.742353439">
<ele>253.546875</ele>
<time>2012-07-21T14:50:44Z</time>
<speed>3.080000</speed>
<extensions>
<speed>3.1</speed>
<temp>0.00</temp>
<bpm>0</bpm>
<rpm>0.00</rpm>
</extensions>
</trkpt>
<trkpt lat="64.120491028" lon="-19.742071152">
<ele>253.281250</ele>
<time>2012-07-21T14:50:49Z</time>
<speed>3.200000</speed>
<extensions>
<speed>3.2</speed>
<temp>0.00</temp>
<bpm>0</bpm>
<rpm>0.00</rpm>
</extensions>
</trkpt>
<trkpt lat="64.120536804" lon="-19.741775513">
<ele>252.531250</ele>
<time>2012-07-21T14:50:54Z</time>
<speed>2.580000</speed>
<extensions>
<speed>2.6</speed>
<temp>0.00</temp>
<bpm>0</bpm>
<rpm>0.00</rpm>
</extensions>
</trkpt>
<trkpt lat="64.120582581" lon="-19.741533279">
<ele>252.480469</ele>
<time>2012-07-21T14:50:59Z</time>
<speed>2.510000</speed>
<extensions>
<speed>2.5</speed>
<temp>0.00</temp>
<bpm>0</bpm>
<rpm>0.00</rpm>
</extensions>
</trkpt>
<trkpt lat="64.120628357" lon="-19.741321564">
<ele>252.890625</ele>
<time>2012-07-21T14:51:04Z</time>
<speed>2.100000</speed>
<extensions>
<speed>2.1</speed>
<temp>0.00</temp>
<bpm>0</bpm>
<rpm>0.00</rpm>
</extensions>
</trkpt>
<trkpt lat="64.120666504" lon="-19.741130829">
<ele>253.589844</ele>
<time>2012-07-21T14:51:09Z</time>
<speed>2.070000</speed>
<extensions>
<speed>2.1</speed>
<temp>0.00</temp>
<bpm>0</bpm>
<rpm>0.00</rpm>
</extensions>
</trkpt>
<trkpt lat="64.120712280" lon="-19.740921021">
<ele>253.660156</ele>
<time>2012-07-21T14:51:14Z</time>
<speed>2.210000</speed>
<extensions>
<speed>2.2</speed>
<temp>0.00</temp>
<bpm>0</bpm>
<rpm>0.00</rpm>
</extensions>
</trkpt>
<trkpt lat="64.120750427" lon="-19.740713120">
<ele>254.058594</ele>
<time>2012-07-21T14:51:19Z</time>
<speed>2.410000</speed>
<extensions>
<speed>2.4</speed>
<temp>0.00</temp>
<bpm>0</bpm>
<rpm>0.00</rpm>
</extensions>
</trkpt>
<trkpt lat="64.120788574" lon="-19.740510941">
<ele>254.257813</ele>
<time>2012-07-21T14:51:24Z</time>
<speed>2.220000</speed>
<extensions>
<speed>2.2</speed>
<temp>0.00</temp>
<bpm>0</bpm>
<rpm>0.00</rpm>
</extensions>
</trkpt>
<trkpt lat="64.120826721" lon="-19.740303040">
<ele>254.417969</ele>
<time>2012-07-21T14:51:29Z</time>
<speed>1.960000</speed>
<extensions>
<speed>2.0</speed>
<temp>0.00</temp>
<bpm>0</bpm>
<rpm>0.00</rpm>
</extensions>
</trkpt>
<trkpt lat="64.120864868" lon="-19.740127563">
<ele>254.234375</ele>
<time>2012-07-21T14:51:34Z</time>
<speed>2.220000</speed>
<extensions>
<speed>2.2</speed>
<temp>0.00</temp>
<bpm>0</bpm>
<rpm>0.00</rpm>
</extensions>
</trkpt>
<trkpt lat="64.120918274" lon="-19.739923477">
<ele>254.207031</ele>
<time>2012-07-21T14:51:39Z</time>
<speed>2.380000</speed>
<extensions>
<speed>2.4</speed>
<temp>0.00</temp>
<bpm>0</bpm>
<rpm>0.00</rpm>
</extensions>
</trkpt>
<trkpt lat="64.120964050" lon="-19.739686966">
<ele>254.382813</ele>
<time>2012-07-21T14:51:44Z</time>
<speed>2.450000</speed>
<extensions>
<speed>2.4</speed>
<temp>0.00</temp>
<bpm>0</bpm>
<rpm>0.00</rpm>
</extensions>
</trkpt>
<trkpt lat="64.121002197" lon="-19.739463806">
<ele>254.375000</ele>
<time>2012-07-21T14:51:49Z</time>
<speed>2.470000</speed>
<extensions>
<speed>2.5</speed>
<temp>0.00</temp>
<bpm>0</bpm>
<rpm>0.00</rpm>
</extensions>
</trkpt>
<trkpt lat="64.121047974" lon="-19.739234924">
<ele>254.105469</ele>
<time>2012-07-21T14:51:54Z</time>
<speed>2.610000</speed>
<extensions>
<speed>2.6</speed>
<temp>0.00</temp>
<bpm>0</bpm>
<rpm>0.00</rpm>
</extensions>
</trkpt>
<trkpt lat="64.121086121" lon="-19.738990784">
<ele>254.363281</ele>
<time>2012-07-21T14:51:59Z</time>
<speed>2.380000</speed>
<extensions>
<speed>2.4</speed>
<temp>0.00</temp>
<bpm>0</bpm>
<rpm>0.00</rpm>
</extensions>
</trkpt>
<trkpt lat="64.121131897" lon="-19.738779068">
<ele>253.750000</ele>
<time>2012-07-21T14:52:04Z</time>
<speed>2.360000</speed>
<extensions>
<speed>2.4</speed>
<temp>0.00</temp>
<bpm>0</bpm>
<rpm>0.00</rpm>
</extensions>
</trkpt>
<trkpt lat="64.121170044" lon="-19.738573074">
<ele>253.445313</ele>
<time>2012-07-21T14:52:09Z</time>
<speed>2.310000</speed>
<extensions>
<speed>2.3</speed>
<temp>0.00</temp>
<bpm>0</bpm>
<rpm>0.00</rpm>
</extensions>
</trkpt>
<trkpt lat="64.121215820" lon="-19.738349915">
<ele>253.214844</ele>
<time>2012-07-21T14:52:14Z</time>
<speed>2.440000</speed>
<extensions>
<speed>2.4</speed>
<temp>0.00</temp>
<bpm>0</bpm>
<rpm>0.00</rpm>
</extensions>
</trkpt>
<trkpt lat="64.121261597" lon="-19.738124847">
<ele>253.269531</ele>
<time>2012-07-21T14:52:19Z</time>
<speed>2.410000</speed>
<extensions>
<speed>2.4</speed>
<temp>0.00</temp>
<bpm>0</bpm>
<rpm>0.00</rpm>
</extensions>
</trkpt>
<trkpt lat="64.121307373" lon="-19.737909317">
<ele>253.492188</ele>
<time>2012-07-21T14:52:24Z</time>
<speed>2.370000</speed>
<extensions>
<speed>2.4</speed>
<temp>0.00</temp>
<bpm>0</bpm>
<rpm>0.00</rpm>
</extensions>
</trkpt>
<trkpt lat="64.121345520" lon="-19.737691879">
<ele>253.414063</ele>
<time>2012-07-21T14:52:29Z</time>
<speed>2.170000</speed>
<extensions>
<speed>2.2</speed>
<temp>0.00</temp>
<bpm>0</bpm>
<rpm>0.00</rpm>
</extensions>
</trkpt>
<trkpt lat="64.121383667" lon="-19.737478256">
<ele>253.531250</ele>
<time>2012-07-21T14:52:34Z</time>
<speed>2.440000</speed>
<extensions>
<speed>2.4</speed>
<temp>0.00</temp>
<bpm>0</bpm>
<rpm>0.00</rpm>
</extensions>
</trkpt>
<trkpt lat="64.121429443" lon="-19.737245560">
<ele>253.910156</ele>
<time>2012-07-21T14:52:39Z</time>
<speed>2.370000</speed>
<extensions>
<speed>2.4</speed>
<temp>0.00</temp>
<bpm>0</bpm>
<rpm>0.00</rpm>
</extensions>
</trkpt>
<trkpt lat="64.121467590" lon="-19.736988068">
<ele>254.097656</ele>
<time>2012-07-21T14:52:44Z</time>
<speed>2.620000</speed>
<extensions>
<speed>2.6</speed>
<temp>0.00</temp>
<bpm>0</bpm>
<rpm>0.00</rpm>
</extensions>
</trkpt>
<trkpt lat="64.121520996" lon="-19.736728668">
<ele>254.503906</ele>
<time>2012-07-21T14:52:49Z</time>
<speed>3.040000</speed>
<extensions>
<speed>3.0</speed>
<temp>0.00</temp>
<bpm>0</bpm>
<rpm>0.00</rpm>
</extensions>
</trkpt>
<trkpt lat="64.121582031" lon="-19.736444473">
<ele>254.917969</ele>
<time>2012-07-21T14:52:54Z</time>
<speed>3.180000</speed>
<extensions>
<speed>3.2</speed>
<temp>0.00</temp>
<bpm>0</bpm>
<rpm>0.00</rpm>
</extensions>
</trkpt>
<trkpt lat="64.121643066" lon="-19.736137390">
<ele>255.507813</ele>
<time>2012-07-21T14:52:59Z</time>
<speed>3.170000</speed>
<extensions>
<speed>3.2</speed>
<temp>0.00</temp>
<bpm>0</bpm>
<rpm>0.00</rpm>
</extensions>
</trkpt>
<trkpt lat="64.121704102" lon="-19.735855103">
<ele>255.890625</ele>
<time>2012-07-21T14:53:04Z</time>
<speed>3.120000</speed>
<extensions>
<speed>3.1</speed>
<temp>0.00</temp>
<bpm>0</bpm>
<rpm>0.00</rpm>
</extensions>
</trkpt>
<trkpt lat="64.121765137" lon="-19.735565186">
<ele>255.859375</ele>
<time>2012-07-21T14:53:09Z</time>
<speed>3.050000</speed>
<extensions>
<speed>3.0</speed>
<temp>0.00</temp>
<bpm>0</bpm>
<rpm>0.00</rpm>
</extensions>
</trkpt>
<trkpt lat="64.121818542" lon="-19.735307693">
<ele>255.855469</ele>
<time>2012-07-21T14:53:14Z</time>
<speed>2.850000</speed>
<extensions>
<speed>2.9</speed>
<temp>0.00</temp>
<bpm>0</bpm>
<rpm>0.00</rpm>
</extensions>
</trkpt>
<trkpt lat="64.121871948" lon="-19.735019684">
<ele>256.007813</ele>
<time>2012-07-21T14:53:19Z</time>
<speed>3.070000</speed>
<extensions>
<speed>3.1</speed>
<temp>0.00</temp>
<bpm>0</bpm>
<rpm>0.00</rpm>
</extensions>
</trkpt>
<trkpt lat="64.121925354" lon="-19.734725952">
<ele>255.953125</ele>
<time>2012-07-21T14:53:24Z</time>
<speed>2.940000</speed>
<extensions>
<speed>2.9</speed>
<temp>0.00</temp>
<bpm>0</bpm>
<rpm>0.00</rpm>
</extensions>
</trkpt>
<trkpt lat="64.121978760" lon="-19.734437943">
<ele>255.984375</ele>
<time>2012-07-21T14:53:29Z</time>
<speed>3.050000</speed>
<extensions>
<speed>3.0</speed>
<temp>0.00</temp>
<bpm>0</bpm>
<rpm>0.00</rpm>
</extensions>
</trkpt>
<trkpt lat="64.122039795" lon="-19.734199524">
<ele>255.488281</ele>
<time>2012-07-21T14:53:34Z</time>
<speed>2.970000</speed>
<extensions>
<speed>3.0</speed>
<temp>0.00</temp>
<bpm>0</bpm>
<rpm>0.00</rpm>
</extensions>
</trkpt>
<trkpt lat="64.122093201" lon="-19.733898163">
<ele>255.574219</ele>
<time>2012-07-21T14:53:39Z</time>
<speed>3.170000</speed>
<extensions>
<speed>3.2</speed>
<temp>0.00</temp>
<bpm>0</bpm>
<rpm>0.00</rpm>
</extensions>
</trkpt>
<trkpt lat="64.122146606" lon="-19.733606339">
<ele>255.855469</ele>
<time>2012-07-21T14:53:44Z</time>
<speed>3.070000</speed>
<extensions>
<speed>3.1</speed>
<temp>0.00</temp>
<bpm>0</bpm>
<rpm>0.00</rpm>
</extensions>
</trkpt>
<trkpt lat="64.122200012" lon="-19.733341217">
<ele>255.511719</ele>
<time>2012-07-21T14:53:49Z</time>
<speed>2.310000</speed>
<extensions>
<speed>2.3</speed>
<temp>0.00</temp>
<bpm>0</bpm>
<rpm>0.00</rpm>
</extensions>
</trkpt>
<trkpt lat="64.122200012" lon="-19.733150482">
<ele>255.597656</ele>
<time>2012-07-21T14:53:54Z</time>
<speed>1.710000</speed>
<extensions>
<speed>1.7</speed>
<temp>0.00</temp>
<bpm>0</bpm>
<rpm>0.00</rpm>
</extensions>
</trkpt>
<trkpt lat="64.122123718" lon="-19.733057022">
<ele>254.773438</ele>
<time>2012-07-21T14:53:59Z</time>
<speed>2.160000</speed>
<extensions>
<speed>2.2</speed>
<temp>0.00</temp>
<bpm>0</bpm>
<rpm>0.00</rpm>
</extensions>
</trkpt>
<trkpt lat="64.122009277" lon="-19.733093262">
<ele>254.039063</ele>
<time>2012-07-21T14:54:04Z</time>
<speed>2.690000</speed>
<extensions>
<speed>2.7</speed>
<temp>0.00</temp>
<bpm>0</bpm>
<rpm>0.00</rpm>
</extensions>
</trkpt>
<trkpt lat="64.121887207" lon="-19.733150482">
<ele>253.382813</ele>
<time>2012-07-21T14:54:09Z</time>
<speed>2.820000</speed>
<extensions>
<speed>2.8</speed>
<temp>0.00</temp>
<bpm>0</bpm>
<rpm>0.00</rpm>
</extensions>
</trkpt>
<trkpt lat="64.121757507" lon="-19.733228683">
<ele>253.531250</ele>
<time>2012-07-21T14:54:14Z</time>
<speed>3.280000</speed>
<extensions>
<speed>3.3</speed>
<temp>0.00</temp>
<bpm>0</bpm>
<rpm>0.00</rpm>
</extensions>
</trkpt>
<trkpt lat="64.121620178" lon="-19.733293533">
<ele>252.941406</ele>
<time>2012-07-21T14:54:19Z</time>
<speed>2.920000</speed>
<extensions>
<speed>2.9</speed>
<temp>0.00</temp>
<bpm>0</bpm>
<rpm>0.00</rpm>
</extensions>
</trkpt>
<trkpt lat="64.121490479" lon="-19.733383179">
<ele>252.687500</ele>
<time>2012-07-21T14:54:24Z</time>
<speed>2.790000</speed>
<extensions>
<speed>2.8</speed>
<temp>0.00</temp>
<bpm>0</bpm>
<rpm>0.00</rpm>
</extensions>
</trkpt>
<trkpt lat="64.121360779" lon="-19.733451843">
<ele>251.640625</ele>
<time>2012-07-21T14:54:29Z</time>
<speed>3.180000</speed>
<extensions>
<speed>3.2</speed>
<temp>0.00</temp>
<bpm>0</bpm>
<rpm>0.00</rpm>
</extensions>
</trkpt>
<trkpt lat="64.121215820" lon="-19.733528137">
<ele>252.101563</ele>
<time>2012-07-21T14:54:34Z</time>
<speed>3.360000</speed>
<extensions>
<speed>3.4</speed>
<temp>0.00</temp>
<bpm>0</bpm>
<rpm>0.00</rpm>
</extensions>
</trkpt>
<trkpt lat="64.121078491" lon="-19.733600616">
<ele>252.621094</ele>
<time>2012-07-21T14:54:39Z</time>
<speed>3.450000</speed>
<extensions>
<speed>3.5</speed>
<temp>0.00</temp>
<bpm>0</bpm>
<rpm>0.00</rpm>
</extensions>
</trkpt>
<trkpt lat="64.120956421" lon="-19.733657837">
<ele>252.542969</ele>
<time>2012-07-21T14:54:44Z</time>
<speed>2.860000</speed>
<extensions>
<speed>2.9</speed>
<temp>0.00</temp>
<bpm>0</bpm>
<rpm>0.00</rpm>
</extensions>
</trkpt>
<trkpt lat="64.120819092" lon="-19.733724594">
<ele>252.617188</ele>
<time>2012-07-21T14:54:49Z</time>
<speed>3.300000</speed>
<extensions>
<speed>3.3</speed>
<temp>0.00</temp>
<bpm>0</bpm>
<rpm>0.00</rpm>
</extensions>
</trkpt>
<trkpt lat="64.120697021" lon="-19.733791351">
<ele>252.257813</ele>
<time>2012-07-21T14:54:54Z</time>
<speed>2.430000</speed>
<extensions>
<speed>2.4</speed>
<temp>0.00</temp>
<bpm>0</bpm>
<rpm>0.00</rpm>
</extensions>
</trkpt>
<trkpt lat="64.120552063" lon="-19.733860016">
<ele>252.687500</ele>
<time>2012-07-21T14:54:59Z</time>
<speed>3.170000</speed>
<extensions>
<speed>3.2</speed>
<temp>0.00</temp>
<bpm>0</bpm>
<rpm>0.00</rpm>
</extensions>
</trkpt>
<trkpt lat="64.120391846" lon="-19.733987808">
<ele>251.546875</ele>
<time>2012-07-21T14:55:04Z</time>
<speed>4.180000</speed>
<extensions>
<speed>4.2</speed>
<temp>0.00</temp>
<bpm>0</bpm>
<rpm>0.00</rpm>
</extensions>
</trkpt>
<trkpt lat="64.120193481" lon="-19.734077454">
<ele>250.613281</ele>
<time>2012-07-21T14:55:09Z</time>
<speed>4.940000</speed>
<extensions>
<speed>4.9</speed>
<temp>0.00</temp>
<bpm>0</bpm>
<rpm>0.00</rpm>
</extensions>
</trkpt>
<trkpt lat="64.120025635" lon="-19.734357834">
<ele>250.691406</ele>
<time>2012-07-21T14:55:14Z</time>
<speed>4.710000</speed>
<extensions>
<speed>4.7</speed>
<temp>0.00</temp>
<bpm>0</bpm>
<rpm>0.00</rpm>
</extensions>
</trkpt>
<trkpt lat="64.119880676" lon="-19.734708786">
<ele>252.386719</ele>
<time>2012-07-21T14:55:19Z</time>
<speed>4.700000</speed>
<extensions>
<speed>4.7</speed>
<temp>0.00</temp>
<bpm>0</bpm>
<rpm>0.00</rpm>
</extensions>
</trkpt>
<trkpt lat="64.119728088" lon="-19.735076904">
<ele>254.632813</ele>
<time>2012-07-21T14:55:24Z</time>
<speed>4.820000</speed>
<extensions>
<speed>4.8</speed>
<temp>0.00</temp>
<bpm>0</bpm>
<rpm>0.00</rpm>
</extensions>
</trkpt>
<trkpt lat="64.119567871" lon="-19.735464096">
<ele>256.093750</ele>
<time>2012-07-21T14:55:29Z</time>
<speed>4.740000</speed>
<extensions>
<speed>4.7</speed>
<temp>0.00</temp>
<bpm>0</bpm>
<rpm>0.00</rpm>
</extensions>
</trkpt>
<trkpt lat="64.119483948" lon="-19.735649109">
<ele>256.320313</ele>
<time>2012-07-21T14:55:34Z</time>
<speed>2.220000</speed>
<extensions>
<speed>2.2</speed>
<temp>0.00</temp>
<bpm>0</bpm>
<rpm>0.00</rpm>
</extensions>
</trkpt>
<trkpt lat="64.119430542" lon="-19.735773087">
<ele>257.539063</ele>
<time>2012-07-21T14:55:39Z</time>
<speed>1.750000</speed>
<extensions>
<speed>1.8</speed>
<temp>0.00</temp>
<bpm>0</bpm>
<rpm>0.00</rpm>
</extensions>
</trkpt>
<trkpt lat="64.119354248" lon="-19.735635757">
<ele>259.796875</ele>
<time>2012-07-21T14:55:44Z</time>
<speed>2.170000</speed>
<extensions>
<speed>2.2</speed>
<temp>0.00</temp>
<bpm>0</bpm>
<rpm>0.00</rpm>
</extensions>
</trkpt>
<trkpt lat="64.119308472" lon="-19.735471725">
<ele>260.976563</ele>
<time>2012-07-21T14:55:49Z</time>
<speed>1.920000</speed>
<extensions>
<speed>1.9</speed>
<temp>0.00</temp>
<bpm>0</bpm>
<rpm>0.00</rpm>
</extensions>
</trkpt>
<trkpt lat="64.119255066" lon="-19.735286713">
<ele>261.484375</ele>
<time>2012-07-21T14:55:54Z</time>
<speed>2.570000</speed>
<extensions>
<speed>2.6</speed>
<temp>0.00</temp>
<bpm>0</bpm>
<rpm>0.00</rpm>
</extensions>
</trkpt>
<trkpt lat="64.119171143" lon="-19.735097885">
<ele>261.039063</ele>
<time>2012-07-21T14:55:59Z</time>
<speed>2.820000</speed>
<extensions>
<speed>2.8</speed>
<temp>0.00</temp>
<bpm>0</bpm>
<rpm>0.00</rpm>
</extensions>
</trkpt>
<trkpt lat="64.119094849" lon="-19.734870911">
<ele>257.781250</ele>
<time>2012-07-21T14:56:04Z</time>
<speed>2.600000</speed>
<extensions>
<speed>2.6</speed>
<temp>0.00</temp>
<bpm>0</bpm>
<rpm>0.00</rpm>
</extensions>
</trkpt>
<trkpt lat="64.119026184" lon="-19.734621048">
<ele>259.320313</ele>
<time>2012-07-21T14:56:09Z</time>
<speed>2.770000</speed>
<extensions>
<speed>2.8</speed>
<temp>0.00</temp>
<bpm>0</bpm>
<rpm>0.00</rpm>
</extensions>
</trkpt>
<trkpt lat="64.118957520" lon="-19.734418869">
<ele>259.523438</ele>
<time>2012-07-21T14:56:14Z</time>
<speed>2.610000</speed>
<extensions>
<speed>2.6</speed>
<temp>0.00</temp>
<bpm>0</bpm>
<rpm>0.00</rpm>
</extensions>
</trkpt>
<trkpt lat="64.118881226" lon="-19.734226227">
<ele>256.515625</ele>
<time>2012-07-21T14:56:19Z</time>
<speed>2.750000</speed>
<extensions>
<speed>2.7</speed>
<temp>0.00</temp>
<bpm>0</bpm>
<rpm>0.00</rpm>
</extensions>
</trkpt>
<trkpt lat="64.118820190" lon="-19.734014511">
<ele>258.968750</ele>
<time>2012-07-21T14:56:24Z</time>
<speed>1.730000</speed>
<extensions>
<speed>1.7</speed>
<temp>0.00</temp>
<bpm>0</bpm>
<rpm>0.00</rpm>
</extensions>
</trkpt>
<trkpt lat="64.118850708" lon="-19.733894348">
<ele>259.765625</ele>
<time>2012-07-21T14:56:29Z</time>
<speed>1.810000</speed>
<extensions>
<speed>1.8</speed>
<temp>0.00</temp>
<bpm>0</bpm>
<rpm>0.00</rpm>
</extensions>
</trkpt>
<trkpt lat="64.118865967" lon="-19.733856201">
<ele>258.414063</ele>
<time>2012-07-21T14:56:34Z</time>
<speed>0.020000</speed>
<extensions>
<speed>0.0</speed>
<temp>0.00</temp>
<bpm>0</bpm>
<rpm>0.00</rpm>
</extensions>
</trkpt>
<trkpt lat="64.118865967" lon="-19.733856201">
<ele>258.359375</ele>
<time>2012-07-21T14:56:39Z</time>
<speed>0.030000</speed>
<extensions>
<speed>0.0</speed>
<temp>0.00</temp>
<bpm>0</bpm>
<rpm>0.00</rpm>
</extensions>
</trkpt>
<trkpt lat="64.118865967" lon="-19.733856201">
<ele>258.359375</ele>
<time>2012-07-21T14:56:44Z</time>
<speed>0.020000</speed>
<extensions>
<speed>0.0</speed>
<temp>0.00</temp>
<bpm>0</bpm>
<rpm>0.00</rpm>
</extensions>
</trkpt>
<trkpt lat="64.118865967" lon="-19.733856201">
<ele>258.359375</ele>
<time>2012-07-21T14:56:49Z</time>
<speed>0.010000</speed>
<extensions>
<speed>0.0</speed>
<temp>0.00</temp>
<bpm>0</bpm>
<rpm>0.00</rpm>
</extensions>
</trkpt>
<trkpt lat="64.118865967" lon="-19.733856201">
<ele>258.375000</ele>
<time>2012-07-21T14:56:54Z</time>
<speed>0.010000</speed>
<extensions>
<speed>0.0</speed>
<temp>0.00</temp>
<bpm>0</bpm>
<rpm>0.00</rpm>
</extensions>
</trkpt>
<trkpt lat="64.118865967" lon="-19.733856201">
<ele>258.375000</ele>
<time>2012-07-21T14:56:59Z</time>
<speed>0.010000</speed>
<extensions>
<speed>0.0</speed>
<temp>0.00</temp>
<bpm>0</bpm>
<rpm>0.00</rpm>
</extensions>
</trkpt>
<trkpt lat="64.118865967" lon="-19.733852386">
<ele>258.507813</ele>
<time>2012-07-21T14:57:04Z</time>
<extensions>
<speed>0.0</speed>
<temp>0.00</temp>
<bpm>0</bpm>
<rpm>0.00</rpm>
</extensions>
</trkpt>
<trkpt lat="64.118865967" lon="-19.733850479">
<ele>258.562500</ele>
<time>2012-07-21T14:57:09Z</time>
<speed>0.820000</speed>
<extensions>
<speed>0.8</speed>
<temp>0.00</temp>
<bpm>0</bpm>
<rpm>0.00</rpm>
</extensions>
</trkpt>
<trkpt lat="64.118957520" lon="-19.733675003">
<ele>256.882813</ele>
<time>2012-07-21T14:57:14Z</time>
<speed>3.960000</speed>
<extensions>
<speed>4.0</speed>
<temp>0.00</temp>
<bpm>0</bpm>
<rpm>0.00</rpm>
</extensions>
</trkpt>
<trkpt lat="64.118980408" lon="-19.733348846">
<ele>254.792969</ele>
<time>2012-07-21T14:57:19Z</time>
<speed>2.810000</speed>
<extensions>
<speed>2.8</speed>
<temp>0.00</temp>
<bpm>0</bpm>
<rpm>0.00</rpm>
</extensions>
</trkpt>
<trkpt lat="64.118904114" lon="-19.733053207">
<ele>254.722656</ele>
<time>2012-07-21T14:57:24Z</time>
<speed>3.000000</speed>
<extensions>
<speed>3.0</speed>
<temp>0.00</temp>
<bpm>0</bpm>
<rpm>0.00</rpm>
</extensions>
</trkpt>
<trkpt lat="64.118812561" lon="-19.732849121">
<ele>255.988281</ele>
<time>2012-07-21T14:57:29Z</time>
<speed>1.170000</speed>
<extensions>
<speed>1.2</speed>
<temp>0.00</temp>
<bpm>0</bpm>
<rpm>0.00</rpm>
</extensions>
</trkpt>
<trkpt lat="64.118743896" lon="-19.732719421">
<ele>258.820313</ele>
<time>2012-07-21T14:57:34Z</time>
<speed>2.110000</speed>
<extensions>
<speed>2.1</speed>
<temp>0.00</temp>
<bpm>0</bpm>
<rpm>0.00</rpm>
</extensions>
</trkpt>
<trkpt lat="64.118667603" lon="-19.732524872">
<ele>259.257813</ele>
<time>2012-07-21T14:57:39Z</time>
<speed>2.650000</speed>
<extensions>
<speed>2.6</speed>
<temp>0.00</temp>
<bpm>0</bpm>
<rpm>0.00</rpm>
</extensions>
</trkpt>
<trkpt lat="64.118583679" lon="-19.732305527">
<ele>258.984375</ele>
<time>2012-07-21T14:57:44Z</time>
<speed>2.480000</speed>
<extensions>
<speed>2.5</speed>
<temp>0.00</temp>
<bpm>0</bpm>
<rpm>0.00</rpm>
</extensions>
</trkpt>
<trkpt lat="64.118492126" lon="-19.732097626">
<ele>256.796875</ele>
<time>2012-07-21T14:57:49Z</time>
<speed>2.700000</speed>
<extensions>
<speed>2.7</speed>
<temp>0.00</temp>
<bpm>0</bpm>
<rpm>0.00</rpm>
</extensions>
</trkpt>
<trkpt lat="64.118431091" lon="-19.731874466">
<ele>256.234375</ele>
<time>2012-07-21T14:57:54Z</time>
<speed>2.750000</speed>
<extensions>
<speed>2.7</speed>
<temp>0.00</temp>
<bpm>0</bpm>
<rpm>0.00</rpm>
</extensions>
</trkpt>
<trkpt lat="64.118339539" lon="-19.731636047">
<ele>253.628906</ele>
<time>2012-07-21T14:57:59Z</time>
<speed>2.930000</speed>
<extensions>
<speed>2.9</speed>
<temp>0.00</temp>
<bpm>0</bpm>
<rpm>0.00</rpm>
</extensions>
</trkpt>
<trkpt lat="64.118278503" lon="-19.731395721">
<ele>251.558594</ele>
<time>2012-07-21T14:58:04Z</time>
<speed>2.640000</speed>
<extensions>
<speed>2.6</speed>
<temp>0.00</temp>
<bpm>0</bpm>
<rpm>0.00</rpm>
</extensions>
</trkpt>
<trkpt lat="64.118232727" lon="-19.731132507">
<ele>251.054688</ele>
<time>2012-07-21T14:58:09Z</time>
<speed>2.670000</speed>
<extensions>
<speed>2.7</speed>
<temp>0.00</temp>
<bpm>0</bpm>
<rpm>0.00</rpm>
</extensions>
</trkpt>
<trkpt lat="64.118186951" lon="-19.730937958">
<ele>251.339844</ele>
<time>2012-07-21T14:58:14Z</time>
<speed>2.040000</speed>
<extensions>
<speed>2.0</speed>
<temp>0.00</temp>
<bpm>0</bpm>
<rpm>0.00</rpm>
</extensions>
</trkpt>
<trkpt lat="64.118141174" lon="-19.730690002">
<ele>251.281250</ele>
<time>2012-07-21T14:58:19Z</time>
<speed>2.760000</speed>
<extensions>
<speed>2.8</speed>
<temp>0.00</temp>
<bpm>0</bpm>
<rpm>0.00</rpm>
</extensions>
</trkpt>
<trkpt lat="64.118080139" lon="-19.730440140">
<ele>249.753906</ele>
<time>2012-07-21T14:58:24Z</time>
<speed>2.430000</speed>
<extensions>
<speed>2.4</speed>
<temp>0.00</temp>
<bpm>0</bpm>
<rpm>0.00</rpm>
</extensions>
</trkpt>
<trkpt lat="64.118034363" lon="-19.730213165">
<ele>248.933594</ele>
<time>2012-07-21T14:58:29Z</time>
<speed>2.430000</speed>
<extensions>
<speed>2.4</speed>
<temp>0.00</temp>
<bpm>0</bpm>
<rpm>0.00</rpm>
</extensions>
</trkpt>
<trkpt lat="64.117996216" lon="-19.730026245">
<ele>248.769531</ele>
<time>2012-07-21T14:58:34Z</time>
<speed>2.230000</speed>
<extensions>
<speed>2.2</speed>
<temp>0.00</temp>
<bpm>0</bpm>
<rpm>0.00</rpm>
</extensions>
</trkpt>
<trkpt lat="64.117973328" lon="-19.729801178">
<ele>250.992188</ele>
<time>2012-07-21T14:58:39Z</time>
<speed>2.170000</speed>
<extensions>
<speed>2.2</speed>
<temp>0.00</temp>
<bpm>0</bpm>
<rpm>0.00</rpm>
</extensions>
</trkpt>
<trkpt lat="64.117950439" lon="-19.729595184">
<ele>249.832031</ele>
<time>2012-07-21T14:58:44Z</time>
<speed>2.050000</speed>
<extensions>
<speed>2.1</speed>
<temp>0.00</temp>
<bpm>0</bpm>
<rpm>0.00</rpm>
</extensions>
</trkpt>
<trkpt lat="64.117919922" lon="-19.729412079">
<ele>250.250000</ele>
<time>2012-07-21T14:58:49Z</time>
<speed>2.160000</speed>
<extensions>
<speed>2.2</speed>
<temp>0.00</temp>
<bpm>0</bpm>
<rpm>0.00</rpm>
</extensions>
</trkpt>
<trkpt lat="64.117889404" lon="-19.729219437">
<ele>250.792969</ele>
<time>2012-07-21T14:58:54Z</time>
<speed>2.060000</speed>
<extensions>
<speed>2.1</speed>
<temp>0.00</temp>
<bpm>0</bpm>
<rpm>0.00</rpm>
</extensions>
</trkpt>
<trkpt lat="64.117881775" lon="-19.729112625">
<ele>251.699219</ele>
<time>2012-07-21T14:58:59Z</time>
<speed>0.010000</speed>
<extensions>
<speed>0.0</speed>
<temp>0.00</temp>
<bpm>0</bpm>
<rpm>0.00</rpm>
</extensions>
</trkpt>
<trkpt lat="64.117881775" lon="-19.729118347">
<ele>251.410156</ele>
<time>2012-07-21T14:59:04Z</time>
<speed>0.010000</speed>
<extensions>
<speed>0.0</speed>
<temp>0.00</temp>
<bpm>0</bpm>
<rpm>0.00</rpm>
</extensions>
</trkpt>
<trkpt lat="64.117881775" lon="-19.729118347">
<ele>251.421875</ele>
<time>2012-07-21T14:59:09Z</time>
<extensions>
<speed>0.0</speed>
<temp>0.00</temp>
<bpm>0</bpm>
<rpm>0.00</rpm>
</extensions>
</trkpt>
<trkpt lat="64.117881775" lon="-19.729118347">
<ele>251.406250</ele>
<time>2012-07-21T14:59:14Z</time>
<speed>0.070000</speed>
<extensions>
<speed>0.1</speed>
<temp>0.00</temp>
<bpm>0</bpm>
<rpm>0.00</rpm>
</extensions>
</trkpt>
<trkpt lat="64.117881775" lon="-19.729118347">
<ele>251.421875</ele>
<time>2012-07-21T14:59:19Z</time>
<speed>0.060000</speed>
<extensions>
<speed>0.1</speed>
<temp>0.00</temp>
<bpm>0</bpm>
<rpm>0.00</rpm>
</extensions>
</trkpt>
<trkpt lat="64.117874146" lon="-19.729032516">
<ele>251.285156</ele>
<time>2012-07-21T14:59:24Z</time>
<speed>1.810000</speed>
<extensions>
<speed>1.8</speed>
<temp>0.00</temp>
<bpm>0</bpm>
<rpm>0.00</rpm>
</extensions>
</trkpt>
<trkpt lat="64.117881775" lon="-19.728822708">
<ele>249.457031</ele>
<time>2012-07-21T14:59:29Z</time>
<speed>1.870000</speed>
<extensions>
<speed>1.9</speed>
<temp>0.00</temp>
<bpm>0</bpm>
<rpm>0.00</rpm>
</extensions>
</trkpt>
<trkpt lat="64.117889404" lon="-19.728610992">
<ele>248.414063</ele>
<time>2012-07-21T14:59:34Z</time>
<speed>2.530000</speed>
<extensions>
<speed>2.5</speed>
<temp>0.00</temp>
<bpm>0</bpm>
<rpm>0.00</rpm>
</extensions>
</trkpt>
<trkpt lat="64.117897034" lon="-19.728372574">
<ele>246.917969</ele>
<time>2012-07-21T14:59:39Z</time>
<speed>2.590000</speed>
<extensions>
<speed>2.6</speed>
<temp>0.00</temp>
<bpm>0</bpm>
<rpm>0.00</rpm>
</extensions>
</trkpt>
<trkpt lat="64.117897034" lon="-19.728113174">
<ele>247.878906</ele>
<time>2012-07-21T14:59:44Z</time>
<speed>2.610000</speed>
<extensions>
<speed>2.6</speed>
<temp>0.00</temp>
<bpm>0</bpm>
<rpm>0.00</rpm>
</extensions>
</trkpt>
<trkpt lat="64.117919922" lon="-19.727836609">
<ele>248.855469</ele>
<time>2012-07-21T14:59:49Z</time>
<speed>2.430000</speed>
<extensions>
<speed>2.4</speed>
<temp>0.00</temp>
<bpm>0</bpm>
<rpm>0.00</rpm>
</extensions>
</trkpt>
<trkpt lat="64.117919922" lon="-19.727603912">
<ele>247.609375</ele>
<time>2012-07-21T14:59:54Z</time>
<speed>2.400000</speed>
<extensions>
<speed>2.4</speed>
<temp>0.00</temp>
<bpm>0</bpm>
<rpm>0.00</rpm>
</extensions>
</trkpt>
<trkpt lat="64.117935181" lon="-19.727321625">
<ele>247.917969</ele>
<time>2012-07-21T14:59:59Z</time>
<speed>2.330000</speed>
<extensions>
<speed>2.3</speed>
<temp>0.00</temp>
<bpm>0</bpm>
<rpm>0.00</rpm>
</extensions>
</trkpt>
<trkpt lat="64.117950439" lon="-19.727062225">
<ele>249.566406</ele>
<time>2012-07-21T15:00:04Z</time>
<speed>2.630000</speed>
<extensions>
<speed>2.6</speed>
<temp>0.00</temp>
<bpm>0</bpm>
<rpm>0.00</rpm>
</extensions>
</trkpt>
<trkpt lat="64.117958069" lon="-19.726806641">
<ele>248.863281</ele>
<time>2012-07-21T15:00:09Z</time>
<speed>2.570000</speed>
<extensions>
<speed>2.6</speed>
<temp>0.00</temp>
<bpm>0</bpm>
<rpm>0.00</rpm>
</extensions>
</trkpt>
<trkpt lat="64.117958069" lon="-19.726549149">
<ele>248.039063</ele>
<time>2012-07-21T15:00:14Z</time>
<speed>2.290000</speed>
<extensions>
<speed>2.3</speed>
<temp>0.00</temp>
<bpm>0</bpm>
<rpm>0.00</rpm>
</extensions>
</trkpt>
<trkpt lat="64.117919922" lon="-19.726329803">
<ele>247.078125</ele>
<time>2012-07-21T15:00:19Z</time>
<speed>2.280000</speed>
<extensions>
<speed>2.3</speed>
<temp>0.00</temp>
<bpm>0</bpm>
<rpm>0.00</rpm>
</extensions>
</trkpt>
<trkpt lat="64.117904663" lon="-19.726261139">
<ele>247.164063</ele>
<time>2012-07-21T15:00:24Z</time>
<speed>0.050000</speed>
<extensions>
<speed>0.1</speed>
<temp>0.00</temp>
<bpm>0</bpm>
<rpm>0.00</rpm>
</extensions>
</trkpt>
<trkpt lat="64.117904663" lon="-19.726259232">
<ele>246.199219</ele>
<time>2012-07-21T15:00:29Z</time>
<speed>0.030000</speed>
<extensions>
<speed>0.0</speed>
<temp>0.00</temp>
<bpm>0</bpm>
<rpm>0.00</rpm>
</extensions>
</trkpt>
<trkpt lat="64.117904663" lon="-19.726255417">
<ele>246.207031</ele>
<time>2012-07-21T15:00:34Z</time>
<speed>0.030000</speed>
<extensions>
<speed>0.0</speed>
<temp>0.00</temp>
<bpm>0</bpm>
<rpm>0.00</rpm>
</extensions>
</trkpt>
<trkpt lat="64.117912292" lon="-19.726251602">
<ele>246.257813</ele>
<time>2012-07-21T15:00:39Z</time>
<speed>0.090000</speed>
<extensions>
<speed>0.1</speed>
<temp>0.00</temp>
<bpm>0</bpm>
<rpm>0.00</rpm>
</extensions>
</trkpt>
<trkpt lat="64.117912292" lon="-19.726251602">
<ele>246.320313</ele>
<time>2012-07-21T15:00:44Z</time>
<speed>0.070000</speed>
<extensions>
<speed>0.1</speed>
<temp>0.00</temp>
<bpm>0</bpm>
<rpm>0.00</rpm>
</extensions>
</trkpt>
<trkpt lat="64.117912292" lon="-19.726253510">
<ele>246.375000</ele>
<time>2012-07-21T15:00:49Z</time>
<speed>0.020000</speed>
<extensions>
<speed>0.0</speed>
<temp>0.00</temp>
<bpm>0</bpm>
<rpm>0.00</rpm>
</extensions>
</trkpt>
<trkpt lat="64.117904663" lon="-19.726257324">
<ele>246.410156</ele>
<time>2012-07-21T15:00:54Z</time>
<speed>0.150000</speed>
<extensions>
<speed>0.2</speed>
<temp>0.00</temp>
<bpm>0</bpm>
<rpm>0.00</rpm>
</extensions>
</trkpt>
<trkpt lat="64.117881775" lon="-19.726182938">
<ele>246.308594</ele>
<time>2012-07-21T15:00:59Z</time>
<speed>1.840000</speed>
<extensions>
<speed>1.8</speed>
<temp>0.00</temp>
<bpm>0</bpm>
<rpm>0.00</rpm>
</extensions>
</trkpt>
<trkpt lat="64.117813110" lon="-19.725988388">
<ele>247.191406</ele>
<time>2012-07-21T15:01:04Z</time>
<speed>1.960000</speed>
<extensions>
<speed>2.0</speed>
<temp>0.00</temp>
<bpm>0</bpm>
<rpm>0.00</rpm>
</extensions>
</trkpt>
<trkpt lat="64.117713928" lon="-19.725950241">
<ele>247.304688</ele>
<time>2012-07-21T15:01:09Z</time>
<speed>2.700000</speed>
<extensions>
<speed>2.7</speed>
<temp>0.00</temp>
<bpm>0</bpm>
<rpm>0.00</rpm>
</extensions>
</trkpt>
<trkpt lat="64.117607117" lon="-19.725990295">
<ele>247.757813</ele>
<time>2012-07-21T15:01:14Z</time>
<speed>2.910000</speed>
<extensions>
<speed>2.9</speed>
<temp>0.00</temp>
<bpm>0</bpm>
<rpm>0.00</rpm>
</extensions>
</trkpt>
<trkpt lat="64.117462158" lon="-19.726005554">
<ele>248.070313</ele>
<time>2012-07-21T15:01:19Z</time>
<speed>2.690000</speed>
<extensions>
<speed>2.7</speed>
<temp>0.00</temp>
<bpm>0</bpm>
<rpm>0.00</rpm>
</extensions>
</trkpt>
<trkpt lat="64.117324829" lon="-19.726034164">
<ele>249.679688</ele>
<time>2012-07-21T15:01:24Z</time>
<speed>2.950000</speed>
<extensions>
<speed>2.9</speed>
<temp>0.00</temp>
<bpm>0</bpm>
<rpm>0.00</rpm>
</extensions>
</trkpt>
<trkpt lat="64.117218018" lon="-19.725952148">
<ele>249.781250</ele>
<time>2012-07-21T15:01:29Z</time>
<speed>2.190000</speed>
<extensions>
<speed>2.2</speed>
<temp>0.00</temp>
<bpm>0</bpm>
<rpm>0.00</rpm>
</extensions>
</trkpt>
<trkpt lat="64.117156982" lon="-19.725807190">
<ele>249.894531</ele>
<time>2012-07-21T15:01:34Z</time>
<speed>0.810000</speed>
<extensions>
<speed>0.8</speed>
<temp>0.00</temp>
<bpm>0</bpm>
<rpm>0.00</rpm>
</extensions>
</trkpt>
<trkpt lat="64.117149353" lon="-19.725770950">
<ele>250.269531</ele>
<time>2012-07-21T15:01:39Z</time>
<speed>0.010000</speed>
<extensions>
<speed>0.0</speed>
<temp>0.00</temp>
<bpm>0</bpm>
<rpm>0.00</rpm>
</extensions>
</trkpt>
<trkpt lat="64.117149353" lon="-19.725769043">
<ele>250.167969</ele>
<time>2012-07-21T15:01:44Z</time>
<extensions>
<speed>0.0</speed>
<temp>0.00</temp>
<bpm>0</bpm>
<rpm>0.00</rpm>
</extensions>
</trkpt>
<trkpt lat="64.117149353" lon="-19.725769043">
<ele>250.019531</ele>
<time>2012-07-21T15:01:49Z</time>
<speed>0.030000</speed>
<extensions>
<speed>0.0</speed>
<temp>0.00</temp>
<bpm>0</bpm>
<rpm>0.00</rpm>
</extensions>
</trkpt>
<trkpt lat="64.117149353" lon="-19.725767136">
<ele>249.945313</ele>
<time>2012-07-21T15:01:54Z</time>
<speed>0.010000</speed>
<extensions>
<speed>0.0</speed>
<temp>0.00</temp>
<bpm>0</bpm>
<rpm>0.00</rpm>
</extensions>
</trkpt>
<trkpt lat="64.117149353" lon="-19.725767136">
<ele>249.949219</ele>
<time>2012-07-21T15:01:59Z</time>
<extensions>
<speed>0.0</speed>
<temp>0.00</temp>
<bpm>0</bpm>
<rpm>0.00</rpm>
</extensions>
</trkpt>
<trkpt lat="64.117149353" lon="-19.725767136">
<ele>249.960938</ele>
<time>2012-07-21T15:02:04Z</time>
<speed>0.010000</speed>
<extensions>
<speed>0.0</speed>
<temp>0.00</temp>
<bpm>0</bpm>
<rpm>0.00</rpm>
</extensions>
</trkpt>
<trkpt lat="64.117149353" lon="-19.725767136">
<ele>249.972656</ele>
<time>2012-07-21T15:02:09Z</time>
<speed>0.010000</speed>
<extensions>
<speed>0.0</speed>
<temp>0.00</temp>
<bpm>0</bpm>
<rpm>0.00</rpm>
</extensions>
</trkpt>
<trkpt lat="64.117149353" lon="-19.725767136">
<ele>249.964844</ele>
<time>2012-07-21T15:02:14Z</time>
<speed>0.010000</speed>
<extensions>
<speed>0.0</speed>
<temp>0.00</temp>
<bpm>0</bpm>
<rpm>0.00</rpm>
</extensions>
</trkpt>
<trkpt lat="64.117149353" lon="-19.725767136">
<ele>249.960938</ele>
<time>2012-07-21T15:02:19Z</time>
<extensions>
<speed>0.0</speed>
<temp>0.00</temp>
<bpm>0</bpm>
<rpm>0.00</rpm>
</extensions>
</trkpt>
<trkpt lat="64.117149353" lon="-19.725767136">
<ele>249.968750</ele>
<time>2012-07-21T15:02:24Z</time>
<extensions>
<speed>0.0</speed>
<temp>0.00</temp>
<bpm>0</bpm>
<rpm>0.00</rpm>
</extensions>
</trkpt>
<trkpt lat="64.117149353" lon="-19.725767136">
<ele>249.964844</ele>
<time>2012-07-21T15:02:29Z</time>
<speed>0.010000</speed>
<extensions>
<speed>0.0</speed>
<temp>0.00</temp>
<bpm>0</bpm>
<rpm>0.00</rpm>
</extensions>
</trkpt>
<trkpt lat="64.117149353" lon="-19.725767136">
<ele>249.968750</ele>
<time>2012-07-21T15:02:34Z</time>
<extensions>
<speed>0.0</speed>
<temp>0.00</temp>
<bpm>0</bpm>
<rpm>0.00</rpm>
</extensions>
</trkpt>
<trkpt lat="64.117149353" lon="-19.725767136">
<ele>249.980469</ele>
<time>2012-07-21T15:02:39Z</time>
<extensions>
<speed>0.0</speed>
<temp>0.00</temp>
<bpm>0</bpm>
<rpm>0.00</rpm>
</extensions>
</trkpt>
<trkpt lat="64.117149353" lon="-19.725767136">
<ele>249.992188</ele>
<time>2012-07-21T15:02:44Z</time>
<extensions>
<speed>0.0</speed>
<temp>0.00</temp>
<bpm>0</bpm>
<rpm>0.00</rpm>
</extensions>
</trkpt>
<trkpt lat="64.117149353" lon="-19.725767136">
<ele>249.992188</ele>
<time>2012-07-21T15:02:49Z</time>
<extensions>
<speed>0.0</speed>
<temp>0.00</temp>
<bpm>0</bpm>
<rpm>0.00</rpm>
</extensions>
</trkpt>
<trkpt lat="64.117149353" lon="-19.725767136">
<ele>249.992188</ele>
<time>2012-07-21T15:02:54Z</time>
<speed>0.010000</speed>
<extensions>
<speed>0.0</speed>
<temp>0.00</temp>
<bpm>0</bpm>
<rpm>0.00</rpm>
</extensions>
</trkpt>
<trkpt lat="64.117149353" lon="-19.725767136">
<ele>250.000000</ele>
<time>2012-07-21T15:02:59Z</time>
<speed>0.010000</speed>
<extensions>
<speed>0.0</speed>
<temp>0.00</temp>
<bpm>0</bpm>
<rpm>0.00</rpm>
</extensions>
</trkpt>
<trkpt lat="64.117149353" lon="-19.725767136">
<ele>250.000000</ele>
<time>2012-07-21T15:03:04Z</time>
<extensions>
<speed>0.0</speed>
<temp>0.00</temp>
<bpm>0</bpm>
<rpm>0.00</rpm>
</extensions>
</trkpt>
<trkpt lat="64.117149353" lon="-19.725767136">
<ele>249.996094</ele>
<time>2012-07-21T15:03:09Z</time>
<extensions>
<speed>0.0</speed>
<temp>0.00</temp>
<bpm>0</bpm>
<rpm>0.00</rpm>
</extensions>
</trkpt>
<trkpt lat="64.117149353" lon="-19.725767136">
<ele>249.992188</ele>
<time>2012-07-21T15:03:14Z</time>
<speed>0.010000</speed>
<extensions>
<speed>0.0</speed>
<temp>0.00</temp>
<bpm>0</bpm>
<rpm>0.00</rpm>
</extensions>
</trkpt>
<trkpt lat="64.117149353" lon="-19.725767136">
<ele>250.000000</ele>
<time>2012-07-21T15:03:19Z</time>
<extensions>
<speed>0.0</speed>
<temp>0.00</temp>
<bpm>0</bpm>
<rpm>0.00</rpm>
</extensions>
</trkpt>
<trkpt lat="64.117149353" lon="-19.725767136">
<ele>249.992188</ele>
<time>2012-07-21T15:03:24Z</time>
<speed>0.020000</speed>
<extensions>
<speed>0.0</speed>
<temp>0.00</temp>
<bpm>0</bpm>
<rpm>0.00</rpm>
</extensions>
</trkpt>
<trkpt lat="64.117149353" lon="-19.725765228">
<ele>249.980469</ele>
<time>2012-07-21T15:03:29Z</time>
<speed>0.010000</speed>
<extensions>
<speed>0.0</speed>
<temp>0.00</temp>
<bpm>0</bpm>
<rpm>0.00</rpm>
</extensions>
</trkpt>
<trkpt lat="64.117149353" lon="-19.725765228">
<ele>249.992188</ele>
<time>2012-07-21T15:03:34Z</time>
<speed>1.000000</speed>
<extensions>
<speed>1.0</speed>
<temp>0.00</temp>
<bpm>0</bpm>
<rpm>0.00</rpm>
</extensions>
</trkpt>
<trkpt lat="64.117141724" lon="-19.725605011">
<ele>250.144531</ele>
<time>2012-07-21T15:03:39Z</time>
<speed>1.360000</speed>
<extensions>
<speed>1.4</speed>
<temp>0.00</temp>
<bpm>0</bpm>
<rpm>0.00</rpm>
</extensions>
</trkpt>
<trkpt lat="64.117134094" lon="-19.725498199">
<ele>250.667969</ele>
<time>2012-07-21T15:03:44Z</time>
<speed>1.860000</speed>
<extensions>
<speed>1.9</speed>
<temp>0.00</temp>
<bpm>0</bpm>
<rpm>0.00</rpm>
</extensions>
</trkpt>
<trkpt lat="64.117134094" lon="-19.725303650">
<ele>251.074219</ele>
<time>2012-07-21T15:03:49Z</time>
<speed>2.040000</speed>
<extensions>
<speed>2.0</speed>
<temp>0.00</temp>
<bpm>0</bpm>
<rpm>0.00</rpm>
</extensions>
</trkpt>
<trkpt lat="64.117118835" lon="-19.725069046">
<ele>251.878906</ele>
<time>2012-07-21T15:03:54Z</time>
<speed>2.280000</speed>
<extensions>
<speed>2.3</speed>
<temp>0.00</temp>
<bpm>0</bpm>
<rpm>0.00</rpm>
</extensions>
</trkpt>
<trkpt lat="64.117111206" lon="-19.724817276">
<ele>253.207031</ele>
<time>2012-07-21T15:03:59Z</time>
<speed>2.560000</speed>
<extensions>
<speed>2.6</speed>
<temp>0.00</temp>
<bpm>0</bpm>
<rpm>0.00</rpm>
</extensions>
</trkpt>
<trkpt lat="64.117103577" lon="-19.724569321">
<ele>255.277344</ele>
<time>2012-07-21T15:04:04Z</time>
<speed>2.490000</speed>
<extensions>
<speed>2.5</speed>
<temp>0.00</temp>
<bpm>0</bpm>
<rpm>0.00</rpm>
</extensions>
</trkpt>
<trkpt lat="64.117080688" lon="-19.724306107">
<ele>255.765625</ele>
<time>2012-07-21T15:04:09Z</time>
<speed>2.730000</speed>
<extensions>
<speed>2.7</speed>
<temp>0.00</temp>
<bpm>0</bpm>
<rpm>0.00</rpm>
</extensions>
</trkpt>
<trkpt lat="64.117065430" lon="-19.724016190">
<ele>254.953125</ele>
<time>2012-07-21T15:04:14Z</time>
<speed>2.830000</speed>
<extensions>
<speed>2.8</speed>
<temp>0.00</temp>
<bpm>0</bpm>
<rpm>0.00</rpm>
</extensions>
</trkpt>
<trkpt lat="64.117042542" lon="-19.723754883">
<ele>254.625000</ele>
<time>2012-07-21T15:04:19Z</time>
<speed>2.510000</speed>
<extensions>
<speed>2.5</speed>
<temp>0.00</temp>
<bpm>0</bpm>
<rpm>0.00</rpm>
</extensions>
</trkpt>
<trkpt lat="64.117027283" lon="-19.723468781">
<ele>253.750000</ele>
<time>2012-07-21T15:04:24Z</time>
<speed>3.110000</speed>
<extensions>
<speed>3.1</speed>
<temp>0.00</temp>
<bpm>0</bpm>
<rpm>0.00</rpm>
</extensions>
</trkpt>
<trkpt lat="64.117012024" lon="-19.723157883">
<ele>254.660156</ele>
<time>2012-07-21T15:04:29Z</time>
<speed>3.120000</speed>
<extensions>
<speed>3.1</speed>
<temp>0.00</temp>
<bpm>0</bpm>
<rpm>0.00</rpm>
</extensions>
</trkpt>
<trkpt lat="64.117012024" lon="-19.722839355">
<ele>254.902344</ele>
<time>2012-07-21T15:04:34Z</time>
<speed>2.850000</speed>
<extensions>
<speed>2.9</speed>
<temp>0.00</temp>
<bpm>0</bpm>
<rpm>0.00</rpm>
</extensions>
</trkpt>
<trkpt lat="64.116989136" lon="-19.722555161">
<ele>254.792969</ele>
<time>2012-07-21T15:04:39Z</time>
<speed>2.760000</speed>
<extensions>
<speed>2.8</speed>
<temp>0.00</temp>
<bpm>0</bpm>
<rpm>0.00</rpm>
</extensions>
</trkpt>
<trkpt lat="64.116981506" lon="-19.722248077">
<ele>254.519531</ele>
<time>2012-07-21T15:04:44Z</time>
<speed>3.070000</speed>
<extensions>
<speed>3.1</speed>
<temp>0.00</temp>
<bpm>0</bpm>
<rpm>0.00</rpm>
</extensions>
</trkpt>
<trkpt lat="64.116966248" lon="-19.721946716">
<ele>255.460938</ele>
<time>2012-07-21T15:04:49Z</time>
<speed>2.980000</speed>
<extensions>
<speed>3.0</speed>
<temp>0.00</temp>
<bpm>0</bpm>
<rpm>0.00</rpm>
</extensions>
</trkpt>
<trkpt lat="64.116950989" lon="-19.721651077">
<ele>254.394531</ele>
<time>2012-07-21T15:04:54Z</time>
<speed>2.940000</speed>
<extensions>
<speed>2.9</speed>
<temp>0.00</temp>
<bpm>0</bpm>
<rpm>0.00</rpm>
</extensions>
</trkpt>
<trkpt lat="64.116935730" lon="-19.721345901">
<ele>254.160156</ele>
<time>2012-07-21T15:04:59Z</time>
<speed>2.960000</speed>
<extensions>
<speed>3.0</speed>
<temp>0.00</temp>
<bpm>0</bpm>
<rpm>0.00</rpm>
</extensions>
</trkpt>
<trkpt lat="64.116920471" lon="-19.721046448">
<ele>254.734375</ele>
<time>2012-07-21T15:05:04Z</time>
<speed>3.100000</speed>
<extensions>
<speed>3.1</speed>
<temp>0.00</temp>
<bpm>0</bpm>
<rpm>0.00</rpm>
</extensions>
</trkpt>
<trkpt lat="64.116905212" lon="-19.720748901">
<ele>254.390625</ele>
<time>2012-07-21T15:05:09Z</time>
<speed>3.100000</speed>
<extensions>
<speed>3.1</speed>
<temp>0.00</temp>
<bpm>0</bpm>
<rpm>0.00</rpm>
</extensions>
</trkpt>
<trkpt lat="64.116889954" lon="-19.720455170">
<ele>254.746094</ele>
<time>2012-07-21T15:05:14Z</time>
<speed>2.830000</speed>
<extensions>
<speed>2.8</speed>
<temp>0.00</temp>
<bpm>0</bpm>
<rpm>0.00</rpm>
</extensions>
</trkpt>
<trkpt lat="64.116867065" lon="-19.720188141">
<ele>254.273438</ele>
<time>2012-07-21T15:05:19Z</time>
<speed>2.610000</speed>
<extensions>
<speed>2.6</speed>
<temp>0.00</temp>
<bpm>0</bpm>
<rpm>0.00</rpm>
</extensions>
</trkpt>
<trkpt lat="64.116859436" lon="-19.719902039">
<ele>255.089844</ele>
<time>2012-07-21T15:05:24Z</time>
<speed>2.830000</speed>
<extensions>
<speed>2.8</speed>
<temp>0.00</temp>
<bpm>0</bpm>
<rpm>0.00</rpm>
</extensions>
</trkpt>
<trkpt lat="64.116844177" lon="-19.719591141">
<ele>254.609375</ele>
<time>2012-07-21T15:05:29Z</time>
<speed>2.920000</speed>
<extensions>
<speed>2.9</speed>
<temp>0.00</temp>
<bpm>0</bpm>
<rpm>0.00</rpm>
</extensions>
</trkpt>
<trkpt lat="64.116821289" lon="-19.719263077">
<ele>253.703125</ele>
<time>2012-07-21T15:05:34Z</time>
<speed>3.190000</speed>
<extensions>
<speed>3.2</speed>
<temp>0.00</temp>
<bpm>0</bpm>
<rpm>0.00</rpm>
</extensions>
</trkpt>
<trkpt lat="64.116806030" lon="-19.718959808">
<ele>254.324219</ele>
<time>2012-07-21T15:05:39Z</time>
<speed>2.880000</speed>
<extensions>
<speed>2.9</speed>
<temp>0.00</temp>
<bpm>0</bpm>
<rpm>0.00</rpm>
</extensions>
</trkpt>
<trkpt lat="64.116798401" lon="-19.718692780">
<ele>255.550781</ele>
<time>2012-07-21T15:05:44Z</time>
<speed>2.680000</speed>
<extensions>
<speed>2.7</speed>
<temp>0.00</temp>
<bpm>0</bpm>
<rpm>0.00</rpm>
</extensions>
</trkpt>
<trkpt lat="64.116790771" lon="-19.718410492">
<ele>256.210938</ele>
<time>2012-07-21T15:05:49Z</time>
<speed>3.090000</speed>
<extensions>
<speed>3.1</speed>
<temp>0.00</temp>
<bpm>0</bpm>
<rpm>0.00</rpm>
</extensions>
</trkpt>
<trkpt lat="64.116775513" lon="-19.718101501">
<ele>256.265625</ele>
<time>2012-07-21T15:05:54Z</time>
<speed>2.810000</speed>
<extensions>
<speed>2.8</speed>
<temp>0.00</temp>
<bpm>0</bpm>
<rpm>0.00</rpm>
</extensions>
</trkpt>
<trkpt lat="64.116760254" lon="-19.717790604">
<ele>255.664063</ele>
<time>2012-07-21T15:05:59Z</time>
<speed>3.070000</speed>
<extensions>
<speed>3.1</speed>
<temp>0.00</temp>
<bpm>0</bpm>
<rpm>0.00</rpm>
</extensions>
</trkpt>
<trkpt lat="64.116744995" lon="-19.717491150">
<ele>256.390625</ele>
<time>2012-07-21T15:06:04Z</time>
<speed>2.800000</speed>
<extensions>
<speed>2.8</speed>
<temp>0.00</temp>
<bpm>0</bpm>
<rpm>0.00</rpm>
</extensions>
</trkpt>
<trkpt lat="64.116737366" lon="-19.717197418">
<ele>257.359375</ele>
<time>2012-07-21T15:06:09Z</time>
<speed>3.090000</speed>
<extensions>
<speed>3.1</speed>
<temp>0.00</temp>
<bpm>0</bpm>
<rpm>0.00</rpm>
</extensions>
</trkpt>
<trkpt lat="64.116706848" lon="-19.716875076">
<ele>256.500000</ele>
<time>2012-07-21T15:06:14Z</time>
<speed>3.290000</speed>
<extensions>
<speed>3.3</speed>
<temp>0.00</temp>
<bpm>0</bpm>
<rpm>0.00</rpm>
</extensions>
</trkpt>
<trkpt lat="64.116691589" lon="-19.716526031">
<ele>256.234375</ele>
<time>2012-07-21T15:06:19Z</time>
<speed>3.280000</speed>
<extensions>
<speed>3.3</speed>
<temp>0.00</temp>
<bpm>0</bpm>
<rpm>0.00</rpm>
</extensions>
</trkpt>
<trkpt lat="64.116676331" lon="-19.716192245">
<ele>255.039063</ele>
<time>2012-07-21T15:06:24Z</time>
<speed>3.140000</speed>
<extensions>
<speed>3.1</speed>
<temp>0.00</temp>
<bpm>0</bpm>
<rpm>0.00</rpm>
</extensions>
</trkpt>
<trkpt lat="64.116661072" lon="-19.715885162">
<ele>255.515625</ele>
<time>2012-07-21T15:06:29Z</time>
<speed>2.850000</speed>
<extensions>
<speed>2.9</speed>
<temp>0.00</temp>
<bpm>0</bpm>
<rpm>0.00</rpm>
</extensions>
</trkpt>
<trkpt lat="64.116645813" lon="-19.715597153">
<ele>256.000000</ele>
<time>2012-07-21T15:06:34Z</time>
<speed>2.640000</speed>
<extensions>
<speed>2.6</speed>
<temp>0.00</temp>
<bpm>0</bpm>
<rpm>0.00</rpm>
</extensions>
</trkpt>
<trkpt lat="64.116615295" lon="-19.715314865">
<ele>254.628906</ele>
<time>2012-07-21T15:06:39Z</time>
<speed>2.830000</speed>
<extensions>
<speed>2.8</speed>
<temp>0.00</temp>
<bpm>0</bpm>
<rpm>0.00</rpm>
</extensions>
</trkpt>
<trkpt lat="64.116584778" lon="-19.715072632">
<ele>254.648438</ele>
<time>2012-07-21T15:06:44Z</time>
<speed>2.170000</speed>
<extensions>
<speed>2.2</speed>
<temp>0.00</temp>
<bpm>0</bpm>
<rpm>0.00</rpm>
</extensions>
</trkpt>
<trkpt lat="64.116539001" lon="-19.714937210">
<ele>254.597656</ele>
<time>2012-07-21T15:06:49Z</time>
<speed>1.540000</speed>
<extensions>
<speed>1.5</speed>
<temp>0.00</temp>
<bpm>0</bpm>
<rpm>0.00</rpm>
</extensions>
</trkpt>
<trkpt lat="64.116470337" lon="-19.714923859">
<ele>254.371094</ele>
<time>2012-07-21T15:06:54Z</time>
<speed>1.590000</speed>
<extensions>
<speed>1.6</speed>
<temp>0.00</temp>
<bpm>0</bpm>
<rpm>0.00</rpm>
</extensions>
</trkpt>
<trkpt lat="64.116409302" lon="-19.714998245">
<ele>254.351563</ele>
<time>2012-07-21T15:06:59Z</time>
<speed>1.420000</speed>
<extensions>
<speed>1.4</speed>
<temp>0.00</temp>
<bpm>0</bpm>
<rpm>0.00</rpm>
</extensions>
</trkpt>
<trkpt lat="64.116355896" lon="-19.715085983">
<ele>254.019531</ele>
<time>2012-07-21T15:07:04Z</time>
<speed>1.650000</speed>
<extensions>
<speed>1.7</speed>
<temp>0.00</temp>
<bpm>0</bpm>
<rpm>0.00</rpm>
</extensions>
</trkpt>
<trkpt lat="64.116294861" lon="-19.715190887">
<ele>253.917969</ele>
<time>2012-07-21T15:07:09Z</time>
<speed>1.580000</speed>
<extensions>
<speed>1.6</speed>
<temp>0.00</temp>
<bpm>0</bpm>
<rpm>0.00</rpm>
</extensions>
</trkpt>
<trkpt lat="64.116233826" lon="-19.715286255">
<ele>253.921875</ele>
<time>2012-07-21T15:07:14Z</time>
<speed>1.510000</speed>
<extensions>
<speed>1.5</speed>
<temp>0.00</temp>
<bpm>0</bpm>
<rpm>0.00</rpm>
</extensions>
</trkpt>
<trkpt lat="64.116188049" lon="-19.715372086">
<ele>253.937500</ele>
<time>2012-07-21T15:07:19Z</time>
<speed>1.600000</speed>
<extensions>
<speed>1.6</speed>
<temp>0.00</temp>
<bpm>0</bpm>
<rpm>0.00</rpm>
</extensions>
</trkpt>
<trkpt lat="64.116119385" lon="-19.715484619">
<ele>253.546875</ele>
<time>2012-07-21T15:07:24Z</time>
<speed>2.000000</speed>
<extensions>
<speed>2.0</speed>
<temp>0.00</temp>
<bpm>0</bpm>
<rpm>0.00</rpm>
</extensions>
</trkpt>
<trkpt lat="64.116020203" lon="-19.715612411">
<ele>253.046875</ele>
<time>2012-07-21T15:07:29Z</time>
<speed>2.800000</speed>
<extensions>
<speed>2.8</speed>
<temp>0.00</temp>
<bpm>0</bpm>
<rpm>0.00</rpm>
</extensions>
</trkpt>
<trkpt lat="64.115913391" lon="-19.715776443">
<ele>252.402344</ele>
<time>2012-07-21T15:07:34Z</time>
<speed>3.060000</speed>
<extensions>
<speed>3.1</speed>
<temp>0.00</temp>
<bpm>0</bpm>
<rpm>0.00</rpm>
</extensions>
</trkpt>
<trkpt lat="64.115791321" lon="-19.715944290">
<ele>251.437500</ele>
<time>2012-07-21T15:07:39Z</time>
<speed>3.310000</speed>
<extensions>
<speed>3.3</speed>
<temp>0.00</temp>
<bpm>0</bpm>
<rpm>0.00</rpm>
</extensions>
</trkpt>
<trkpt lat="64.115669250" lon="-19.716136932">
<ele>251.046875</ele>
<time>2012-07-21T15:07:44Z</time>
<speed>3.390000</speed>
<extensions>
<speed>3.4</speed>
<temp>0.00</temp>
<bpm>0</bpm>
<rpm>0.00</rpm>
</extensions>
</trkpt>
<trkpt lat="64.115554810" lon="-19.716306686">
<ele>250.980469</ele>
<time>2012-07-21T15:07:49Z</time>
<speed>2.900000</speed>
<extensions>
<speed>2.9</speed>
<temp>0.00</temp>
<bpm>0</bpm>
<rpm>0.00</rpm>
</extensions>
</trkpt>
<trkpt lat="64.115447998" lon="-19.716491699">
<ele>250.863281</ele>
<time>2012-07-21T15:07:54Z</time>
<speed>2.930000</speed>
<extensions>
<speed>2.9</speed>
<temp>0.00</temp>
<bpm>0</bpm>
<rpm>0.00</rpm>
</extensions>
</trkpt>
<trkpt lat="64.115325928" lon="-19.716686249">
<ele>250.750000</ele>
<time>2012-07-21T15:07:59Z</time>
<speed>3.490000</speed>
<extensions>
<speed>3.5</speed>
<temp>0.00</temp>
<bpm>0</bpm>
<rpm>0.00</rpm>
</extensions>
</trkpt>
<trkpt lat="64.115188599" lon="-19.716876984">
<ele>250.144531</ele>
<time>2012-07-21T15:08:04Z</time>
<speed>3.580000</speed>
<extensions>
<speed>3.6</speed>
<temp>0.00</temp>
<bpm>0</bpm>
<rpm>0.00</rpm>
</extensions>
</trkpt>
<trkpt lat="64.115058899" lon="-19.717081070">
<ele>249.812500</ele>
<time>2012-07-21T15:08:09Z</time>
<speed>3.630000</speed>
<extensions>
<speed>3.6</speed>
<temp>0.00</temp>
<bpm>0</bpm>
<rpm>0.00</rpm>
</extensions>
</trkpt>
<trkpt lat="64.114913940" lon="-19.717277527">
<ele>249.105469</ele>
<time>2012-07-21T15:08:14Z</time>
<speed>3.930000</speed>
<extensions>
<speed>3.9</speed>
<temp>0.00</temp>
<bpm>0</bpm>
<rpm>0.00</rpm>
</extensions>
</trkpt>
<trkpt lat="64.114768982" lon="-19.717496872">
<ele>248.902344</ele>
<time>2012-07-21T15:08:19Z</time>
<speed>3.720000</speed>
<extensions>
<speed>3.7</speed>
<temp>0.00</temp>
<bpm>0</bpm>
<rpm>0.00</rpm>
</extensions>
</trkpt>
<trkpt lat="64.114624023" lon="-19.717712402">
<ele>248.351563</ele>
<time>2012-07-21T15:08:24Z</time>
<speed>3.850000</speed>
<extensions>
<speed>3.8</speed>
<temp>0.00</temp>
<bpm>0</bpm>
<rpm>0.00</rpm>
</extensions>
</trkpt>
<trkpt lat="64.114479065" lon="-19.717910767">
<ele>247.644531</ele>
<time>2012-07-21T15:08:29Z</time>
<speed>3.500000</speed>
<extensions>
<speed>3.5</speed>
<temp>0.00</temp>
<bpm>0</bpm>
<rpm>0.00</rpm>
</extensions>
</trkpt>
<trkpt lat="64.114356995" lon="-19.718095779">
<ele>247.417969</ele>
<time>2012-07-21T15:08:34Z</time>
<speed>3.540000</speed>
<extensions>
<speed>3.5</speed>
<temp>0.00</temp>
<bpm>0</bpm>
<rpm>0.00</rpm>
</extensions>
</trkpt>
<trkpt lat="64.114219666" lon="-19.718299866">
<ele>246.738281</ele>
<time>2012-07-21T15:08:39Z</time>
<speed>3.880000</speed>
<extensions>
<speed>3.9</speed>
<temp>0.00</temp>
<bpm>0</bpm>
<rpm>0.00</rpm>
</extensions>
</trkpt>
<trkpt lat="64.114074707" lon="-19.718523026">
<ele>246.214844</ele>
<time>2012-07-21T15:08:44Z</time>
<speed>3.970000</speed>
<extensions>
<speed>4.0</speed>
<temp>0.00</temp>
<bpm>0</bpm>
<rpm>0.00</rpm>
</extensions>
</trkpt>
<trkpt lat="64.113922119" lon="-19.718748093">
<ele>246.812500</ele>
<time>2012-07-21T15:08:49Z</time>
<speed>3.810000</speed>
<extensions>
<speed>3.8</speed>
<temp>0.00</temp>
<bpm>0</bpm>
<rpm>0.00</rpm>
</extensions>
</trkpt>
<trkpt lat="64.113784790" lon="-19.718955994">
<ele>246.812500</ele>
<time>2012-07-21T15:08:54Z</time>
<speed>3.920000</speed>
<extensions>
<speed>3.9</speed>
<temp>0.00</temp>
<bpm>0</bpm>
<rpm>0.00</rpm>
</extensions>
</trkpt>
<trkpt lat="64.113639832" lon="-19.719173431">
<ele>246.992188</ele>
<time>2012-07-21T15:08:59Z</time>
<speed>4.070000</speed>
<extensions>
<speed>4.1</speed>
<temp>0.00</temp>
<bpm>0</bpm>
<rpm>0.00</rpm>
</extensions>
</trkpt>
<trkpt lat="64.113487244" lon="-19.719415665">
<ele>247.078125</ele>
<time>2012-07-21T15:09:04Z</time>
<speed>4.180000</speed>
<extensions>
<speed>4.2</speed>
<temp>0.00</temp>
<bpm>0</bpm>
<rpm>0.00</rpm>
</extensions>
</trkpt>
<trkpt lat="64.113319397" lon="-19.719652176">
<ele>247.085938</ele>
<time>2012-07-21T15:09:09Z</time>
<speed>4.330000</speed>
<extensions>
<speed>4.3</speed>
<temp>0.00</temp>
<bpm>0</bpm>
<rpm>0.00</rpm>
</extensions>
</trkpt>
<trkpt lat="64.113159180" lon="-19.719892502">
<ele>247.292969</ele>
<time>2012-07-21T15:09:14Z</time>
<speed>4.300000</speed>
<extensions>
<speed>4.3</speed>
<temp>0.00</temp>
<bpm>0</bpm>
<rpm>0.00</rpm>
</extensions>
</trkpt>
<trkpt lat="64.112991333" lon="-19.720148087">
<ele>247.375000</ele>
<time>2012-07-21T15:09:19Z</time>
<speed>4.350000</speed>
<extensions>
<speed>4.3</speed>
<temp>0.00</temp>
<bpm>0</bpm>
<rpm>0.00</rpm>
</extensions>
</trkpt>
<trkpt lat="64.112838745" lon="-19.720392227">
<ele>247.433594</ele>
<time>2012-07-21T15:09:24Z</time>
<speed>4.320000</speed>
<extensions>
<speed>4.3</speed>
<temp>0.00</temp>
<bpm>0</bpm>
<rpm>0.00</rpm>
</extensions>
</trkpt>
<trkpt lat="64.112670898" lon="-19.720642090">
<ele>247.265625</ele>
<time>2012-07-21T15:09:29Z</time>
<speed>4.560000</speed>
<extensions>
<speed>4.6</speed>
<temp>0.00</temp>
<bpm>0</bpm>
<rpm>0.00</rpm>
</extensions>
</trkpt>
<trkpt lat="64.112503052" lon="-19.720901489">
<ele>247.097656</ele>
<time>2012-07-21T15:09:34Z</time>
<speed>4.810000</speed>
<extensions>
<speed>4.8</speed>
<temp>0.00</temp>
<bpm>0</bpm>
<rpm>0.00</rpm>
</extensions>
</trkpt>
<trkpt lat="64.112319946" lon="-19.721174240">
<ele>247.222656</ele>
<time>2012-07-21T15:09:39Z</time>
<speed>4.810000</speed>
<extensions>
<speed>4.8</speed>
<temp>0.00</temp>
<bpm>0</bpm>
<rpm>0.00</rpm>
</extensions>
</trkpt>
<trkpt lat="64.112144470" lon="-19.721431732">
<ele>247.011719</ele>
<time>2012-07-21T15:09:44Z</time>
<speed>4.110000</speed>
<extensions>
<speed>4.1</speed>
<temp>0.00</temp>
<bpm>0</bpm>
<rpm>0.00</rpm>
</extensions>
</trkpt>
<trkpt lat="64.112045288" lon="-19.721611023">
<ele>246.343750</ele>
<time>2012-07-21T15:09:49Z</time>
<speed>0.920000</speed>
<extensions>
<speed>0.9</speed>
<temp>0.00</temp>
<bpm>0</bpm>
<rpm>0.00</rpm>
</extensions>
</trkpt>
<trkpt lat="64.112037659" lon="-19.721611023">
<ele>246.179688</ele>
<time>2012-07-21T15:09:54Z</time>
<speed>0.010000</speed>
<extensions>
<speed>0.0</speed>
<temp>0.00</temp>
<bpm>0</bpm>
<rpm>0.00</rpm>
</extensions>
</trkpt>
<trkpt lat="64.112037659" lon="-19.721609116">
<ele>246.109375</ele>
<time>2012-07-21T15:09:59Z</time>
<extensions>
<speed>0.0</speed>
<temp>0.00</temp>
<bpm>0</bpm>
<rpm>0.00</rpm>
</extensions>
</trkpt>
<trkpt lat="64.112037659" lon="-19.721609116">
<ele>246.105469</ele>
<time>2012-07-21T15:10:04Z</time>
<speed>0.300000</speed>
<extensions>
<speed>0.3</speed>
<temp>0.00</temp>
<bpm>0</bpm>
<rpm>0.00</rpm>
</extensions>
</trkpt>
<trkpt lat="64.112014771" lon="-19.721626282">
<ele>246.054688</ele>
<time>2012-07-21T15:10:09Z</time>
<speed>1.850000</speed>
<extensions>
<speed>1.8</speed>
<temp>0.00</temp>
<bpm>0</bpm>
<rpm>0.00</rpm>
</extensions>
</trkpt>
<trkpt lat="64.111923218" lon="-19.721738815">
<ele>245.835938</ele>
<time>2012-07-21T15:10:14Z</time>
<speed>3.270000</speed>
<extensions>
<speed>3.3</speed>
<temp>0.00</temp>
<bpm>0</bpm>
<rpm>0.00</rpm>
</extensions>
</trkpt>
<trkpt lat="64.111785889" lon="-19.721952438">
<ele>245.523438</ele>
<time>2012-07-21T15:10:19Z</time>
<speed>3.930000</speed>
<extensions>
<speed>3.9</speed>
<temp>0.00</temp>
<bpm>0</bpm>
<rpm>0.00</rpm>
</extensions>
</trkpt>
<trkpt lat="64.111633301" lon="-19.722185135">
<ele>246.199219</ele>
<time>2012-07-21T15:10:24Z</time>
<speed>4.130000</speed>
<extensions>
<speed>4.1</speed>
<temp>0.00</temp>
<bpm>0</bpm>
<rpm>0.00</rpm>
</extensions>
</trkpt>
<trkpt lat="64.111488342" lon="-19.722394943">
<ele>246.277344</ele>
<time>2012-07-21T15:10:29Z</time>
<speed>3.710000</speed>
<extensions>
<speed>3.7</speed>
<temp>0.00</temp>
<bpm>0</bpm>
<rpm>0.00</rpm>
</extensions>
</trkpt>
<trkpt lat="64.111343384" lon="-19.722620010">
<ele>246.187500</ele>
<time>2012-07-21T15:10:34Z</time>
<speed>3.680000</speed>
<extensions>
<speed>3.7</speed>
<temp>0.00</temp>
<bpm>0</bpm>
<rpm>0.00</rpm>
</extensions>
</trkpt>
<trkpt lat="64.111183167" lon="-19.722866058">
<ele>245.957031</ele>
<time>2012-07-21T15:10:39Z</time>
<speed>4.440000</speed>
<extensions>
<speed>4.4</speed>
<temp>0.00</temp>
<bpm>0</bpm>
<rpm>0.00</rpm>
</extensions>
</trkpt>
<trkpt lat="64.111007690" lon="-19.723119736">
<ele>245.761719</ele>
<time>2012-07-21T15:10:44Z</time>
<speed>4.590000</speed>
<extensions>
<speed>4.6</speed>
<temp>0.00</temp>
<bpm>0</bpm>
<rpm>0.00</rpm>
</extensions>
</trkpt>
<trkpt lat="64.110832214" lon="-19.723371506">
<ele>245.515625</ele>
<time>2012-07-21T15:10:49Z</time>
<speed>4.690000</speed>
<extensions>
<speed>4.7</speed>
<temp>0.00</temp>
<bpm>0</bpm>
<rpm>0.00</rpm>
</extensions>
</trkpt>
<trkpt lat="64.110649109" lon="-19.723632813">
<ele>245.222656</ele>
<time>2012-07-21T15:10:54Z</time>
<speed>4.770000</speed>
<extensions>
<speed>4.8</speed>
<temp>0.00</temp>
<bpm>0</bpm>
<rpm>0.00</rpm>
</extensions>
</trkpt>
<trkpt lat="64.110481262" lon="-19.723878860">
<ele>245.273438</ele>
<time>2012-07-21T15:10:59Z</time>
<speed>4.340000</speed>
<extensions>
<speed>4.3</speed>
<temp>0.00</temp>
<bpm>0</bpm>
<rpm>0.00</rpm>
</extensions>
</trkpt>
<trkpt lat="64.110313416" lon="-19.724132538">
<ele>245.273438</ele>
<time>2012-07-21T15:11:04Z</time>
<speed>4.700000</speed>
<extensions>
<speed>4.7</speed>
<temp>0.00</temp>
<bpm>0</bpm>
<rpm>0.00</rpm>
</extensions>
</trkpt>
<trkpt lat="64.110130310" lon="-19.724393845">
<ele>245.027344</ele>
<time>2012-07-21T15:11:09Z</time>
<speed>4.590000</speed>
<extensions>
<speed>4.6</speed>
<temp>0.00</temp>
<bpm>0</bpm>
<rpm>0.00</rpm>
</extensions>
</trkpt>
<trkpt lat="64.109962463" lon="-19.724655151">
<ele>244.898438</ele>
<time>2012-07-21T15:11:14Z</time>
<speed>4.650000</speed>
<extensions>
<speed>4.6</speed>
<temp>0.00</temp>
<bpm>0</bpm>
<rpm>0.00</rpm>
</extensions>
</trkpt>
<trkpt lat="64.109786987" lon="-19.724912643">
<ele>244.699219</ele>
<time>2012-07-21T15:11:19Z</time>
<speed>4.630000</speed>
<extensions>
<speed>4.6</speed>
<temp>0.00</temp>
<bpm>0</bpm>
<rpm>0.00</rpm>
</extensions>
</trkpt>
<trkpt lat="64.109626770" lon="-19.725172043">
<ele>244.769531</ele>
<time>2012-07-21T15:11:24Z</time>
<speed>4.110000</speed>
<extensions>
<speed>4.1</speed>
<temp>0.00</temp>
<bpm>0</bpm>
<rpm>0.00</rpm>
</extensions>
</trkpt>
<trkpt lat="64.109466553" lon="-19.725414276">
<ele>244.515625</ele>
<time>2012-07-21T15:11:29Z</time>
<speed>4.340000</speed>
<extensions>
<speed>4.3</speed>
<temp>0.00</temp>
<bpm>0</bpm>
<rpm>0.00</rpm>
</extensions>
</trkpt>
<trkpt lat="64.109298706" lon="-19.725685120">
<ele>245.238281</ele>
<time>2012-07-21T15:11:34Z</time>
<speed>4.740000</speed>
<extensions>
<speed>4.7</speed>
<temp>0.00</temp>
<bpm>0</bpm>
<rpm>0.00</rpm>
</extensions>
</trkpt>
<trkpt lat="64.109115601" lon="-19.725946426">
<ele>245.039063</ele>
<time>2012-07-21T15:11:39Z</time>
<speed>4.340000</speed>
<extensions>
<speed>4.3</speed>
<temp>0.00</temp>
<bpm>0</bpm>
<rpm>0.00</rpm>
</extensions>
</trkpt>
<trkpt lat="64.108947754" lon="-19.726190567">
<ele>244.964844</ele>
<time>2012-07-21T15:11:44Z</time>
<speed>4.670000</speed>
<extensions>
<speed>4.7</speed>
<temp>0.00</temp>
<bpm>0</bpm>
<rpm>0.00</rpm>
</extensions>
</trkpt>
<trkpt lat="64.108779907" lon="-19.726449966">
<ele>244.785156</ele>
<time>2012-07-21T15:11:49Z</time>
<speed>4.590000</speed>
<extensions>
<speed>4.6</speed>
<temp>0.00</temp>
<bpm>0</bpm>
<rpm>0.00</rpm>
</extensions>
</trkpt>
<trkpt lat="64.108612061" lon="-19.726690292">
<ele>244.570313</ele>
<time>2012-07-21T15:11:54Z</time>
<speed>4.310000</speed>
<extensions>
<speed>4.3</speed>
<temp>0.00</temp>
<bpm>0</bpm>
<rpm>0.00</rpm>
</extensions>
</trkpt>
<trkpt lat="64.108451843" lon="-19.726936340">
<ele>244.414063</ele>
<time>2012-07-21T15:11:59Z</time>
<speed>4.400000</speed>
<extensions>
<speed>4.4</speed>
<temp>0.00</temp>
<bpm>0</bpm>
<rpm>0.00</rpm>
</extensions>
</trkpt>
<trkpt lat="64.108276367" lon="-19.727178574">
<ele>244.343750</ele>
<time>2012-07-21T15:12:04Z</time>
<speed>4.360000</speed>
<extensions>
<speed>4.4</speed>
<temp>0.00</temp>
<bpm>0</bpm>
<rpm>0.00</rpm>
</extensions>
</trkpt>
<trkpt lat="64.108116150" lon="-19.727443695">
<ele>245.140625</ele>
<time>2012-07-21T15:12:09Z</time>
<speed>4.380000</speed>
<extensions>
<speed>4.4</speed>
<temp>0.00</temp>
<bpm>0</bpm>
<rpm>0.00</rpm>
</extensions>
</trkpt>
<trkpt lat="64.107940674" lon="-19.727710724">
<ele>245.406250</ele>
<time>2012-07-21T15:12:14Z</time>
<speed>4.550000</speed>
<extensions>
<speed>4.5</speed>
<temp>0.00</temp>
<bpm>0</bpm>
<rpm>0.00</rpm>
</extensions>
</trkpt>
<trkpt lat="64.107772827" lon="-19.727952957">
<ele>245.226563</ele>
<time>2012-07-21T15:12:19Z</time>
<speed>4.450000</speed>
<extensions>
<speed>4.5</speed>
<temp>0.00</temp>
<bpm>0</bpm>
<rpm>0.00</rpm>
</extensions>
</trkpt>
<trkpt lat="64.107604980" lon="-19.728200912">
<ele>245.820313</ele>
<time>2012-07-21T15:12:24Z</time>
<speed>4.430000</speed>
<extensions>
<speed>4.4</speed>
<temp>0.00</temp>
<bpm>0</bpm>
<rpm>0.00</rpm>
</extensions>
</trkpt>
<trkpt lat="64.107437134" lon="-19.728456497">
<ele>245.843750</ele>
<time>2012-07-21T15:12:29Z</time>
<speed>4.440000</speed>
<extensions>
<speed>4.4</speed>
<temp>0.00</temp>
<bpm>0</bpm>
<rpm>0.00</rpm>
</extensions>
</trkpt>
<trkpt lat="64.107276917" lon="-19.728698730">
<ele>245.726563</ele>
<time>2012-07-21T15:12:34Z</time>
<speed>3.960000</speed>
<extensions>
<speed>4.0</speed>
<temp>0.00</temp>
<bpm>0</bpm>
<rpm>0.00</rpm>
</extensions>
</trkpt>
<trkpt lat="64.107109070" lon="-19.728946686">
<ele>245.242188</ele>
<time>2012-07-21T15:12:39Z</time>
<speed>4.660000</speed>
<extensions>
<speed>4.7</speed>
<temp>0.00</temp>
<bpm>0</bpm>
<rpm>0.00</rpm>
</extensions>
</trkpt>
<trkpt lat="64.106933594" lon="-19.729204178">
<ele>244.695313</ele>
<time>2012-07-21T15:12:44Z</time>
<speed>4.490000</speed>
<extensions>
<speed>4.5</speed>
<temp>0.00</temp>
<bpm>0</bpm>
<rpm>0.00</rpm>
</extensions>
</trkpt>
<trkpt lat="64.106765747" lon="-19.729446411">
<ele>243.984375</ele>
<time>2012-07-21T15:12:49Z</time>
<speed>4.300000</speed>
<extensions>
<speed>4.3</speed>
<temp>0.00</temp>
<bpm>0</bpm>
<rpm>0.00</rpm>
</extensions>
</trkpt>
<trkpt lat="64.106597900" lon="-19.729698181">
<ele>243.804688</ele>
<time>2012-07-21T15:12:54Z</time>
<speed>4.400000</speed>
<extensions>
<speed>4.4</speed>
<temp>0.00</temp>
<bpm>0</bpm>
<rpm>0.00</rpm>
</extensions>
</trkpt>
<trkpt lat="64.106437683" lon="-19.729934692">
<ele>243.886719</ele>
<time>2012-07-21T15:12:59Z</time>
<speed>4.320000</speed>
<extensions>
<speed>4.3</speed>
<temp>0.00</temp>
<bpm>0</bpm>
<rpm>0.00</rpm>
</extensions>
</trkpt>
<trkpt lat="64.106285095" lon="-19.730180740">
<ele>244.808594</ele>
<time>2012-07-21T15:13:04Z</time>
<speed>4.060000</speed>
<extensions>
<speed>4.1</speed>
<temp>0.00</temp>
<bpm>0</bpm>
<rpm>0.00</rpm>
</extensions>
</trkpt>
<trkpt lat="64.106132507" lon="-19.730409622">
<ele>244.648438</ele>
<time>2012-07-21T15:13:09Z</time>
<speed>4.170000</speed>
<extensions>
<speed>4.2</speed>
<temp>0.00</temp>
<bpm>0</bpm>
<rpm>0.00</rpm>
</extensions>
</trkpt>
<trkpt lat="64.105979919" lon="-19.730619431">
<ele>243.468750</ele>
<time>2012-07-21T15:13:14Z</time>
<speed>4.050000</speed>
<extensions>
<speed>4.0</speed>
<temp>0.00</temp>
<bpm>0</bpm>
<rpm>0.00</rpm>
</extensions>
</trkpt>
<trkpt lat="64.105819702" lon="-19.730857849">
<ele>243.375000</ele>
<time>2012-07-21T15:13:19Z</time>
<speed>4.130000</speed>
<extensions>
<speed>4.1</speed>
<temp>0.00</temp>
<bpm>0</bpm>
<rpm>0.00</rpm>
</extensions>
</trkpt>
<trkpt lat="64.105667114" lon="-19.731086731">
<ele>243.433594</ele>
<time>2012-07-21T15:13:24Z</time>
<speed>4.180000</speed>
<extensions>
<speed>4.2</speed>
<temp>0.00</temp>
<bpm>0</bpm>
<rpm>0.00</rpm>
</extensions>
</trkpt>
<trkpt lat="64.105514526" lon="-19.731330872">
<ele>243.531250</ele>
<time>2012-07-21T15:13:29Z</time>
<speed>4.340000</speed>
<extensions>
<speed>4.3</speed>
<temp>0.00</temp>
<bpm>0</bpm>
<rpm>0.00</rpm>
</extensions>
</trkpt>
<trkpt lat="64.105339050" lon="-19.731567383">
<ele>243.234375</ele>
<time>2012-07-21T15:13:34Z</time>
<speed>4.550000</speed>
<extensions>
<speed>4.5</speed>
<temp>0.00</temp>
<bpm>0</bpm>
<rpm>0.00</rpm>
</extensions>
</trkpt>
<trkpt lat="64.105163574" lon="-19.731838226">
<ele>243.042969</ele>
<time>2012-07-21T15:13:39Z</time>
<speed>4.660000</speed>
<extensions>
<speed>4.7</speed>
<temp>0.00</temp>
<bpm>0</bpm>
<rpm>0.00</rpm>
</extensions>
</trkpt>
<trkpt lat="64.105003357" lon="-19.732095718">
<ele>243.109375</ele>
<time>2012-07-21T15:13:44Z</time>
<speed>4.420000</speed>
<extensions>
<speed>4.4</speed>
<temp>0.00</temp>
<bpm>0</bpm>
<rpm>0.00</rpm>
</extensions>
</trkpt>
<trkpt lat="64.104820251" lon="-19.732336044">
<ele>242.867188</ele>
<time>2012-07-21T15:13:49Z</time>
<speed>4.520000</speed>
<extensions>
<speed>4.5</speed>
<temp>0.00</temp>
<bpm>0</bpm>
<rpm>0.00</rpm>
</extensions>
</trkpt>
<trkpt lat="64.104660034" lon="-19.732614517">
<ele>243.386719</ele>
<time>2012-07-21T15:13:54Z</time>
<speed>4.590000</speed>
<extensions>
<speed>4.6</speed>
<temp>0.00</temp>
<bpm>0</bpm>
<rpm>0.00</rpm>
</extensions>
</trkpt>
<trkpt lat="64.104492188" lon="-19.732845306">
<ele>242.203125</ele>
<time>2012-07-21T15:13:59Z</time>
<speed>3.890000</speed>
<extensions>
<speed>3.9</speed>
<temp>0.00</temp>
<bpm>0</bpm>
<rpm>0.00</rpm>
</extensions>
</trkpt>
<trkpt lat="64.104347229" lon="-19.733081818">
<ele>242.765625</ele>
<time>2012-07-21T15:14:04Z</time>
<speed>3.900000</speed>
<extensions>
<speed>3.9</speed>
<temp>0.00</temp>
<bpm>0</bpm>
<rpm>0.00</rpm>
</extensions>
</trkpt>
<trkpt lat="64.104187012" lon="-19.733314514">
<ele>242.941406</ele>
<time>2012-07-21T15:14:09Z</time>
<speed>4.270000</speed>
<extensions>
<speed>4.3</speed>
<temp>0.00</temp>
<bpm>0</bpm>
<rpm>0.00</rpm>
</extensions>
</trkpt>
<trkpt lat="64.104011536" lon="-19.733539581">
<ele>243.566406</ele>
<time>2012-07-21T15:14:14Z</time>
<speed>4.280000</speed>
<extensions>
<speed>4.3</speed>
<temp>0.00</temp>
<bpm>0</bpm>
<rpm>0.00</rpm>
</extensions>
</trkpt>
<trkpt lat="64.103858948" lon="-19.733766556">
<ele>244.546875</ele>
<time>2012-07-21T15:14:19Z</time>
<speed>4.050000</speed>
<extensions>
<speed>4.0</speed>
<temp>0.00</temp>
<bpm>0</bpm>
<rpm>0.00</rpm>
</extensions>
</trkpt>
<trkpt lat="64.103706360" lon="-19.734001160">
<ele>245.578125</ele>
<time>2012-07-21T15:14:24Z</time>
<speed>3.760000</speed>
<extensions>
<speed>3.8</speed>
<temp>0.00</temp>
<bpm>0</bpm>
<rpm>0.00</rpm>
</extensions>
</trkpt>
<trkpt lat="64.103569031" lon="-19.734203339">
<ele>246.140625</ele>
<time>2012-07-21T15:14:29Z</time>
<speed>3.580000</speed>
<extensions>
<speed>3.6</speed>
<temp>0.00</temp>
<bpm>0</bpm>
<rpm>0.00</rpm>
</extensions>
</trkpt>
<trkpt lat="64.103431702" lon="-19.734401703">
<ele>245.859375</ele>
<time>2012-07-21T15:14:34Z</time>
<speed>3.620000</speed>
<extensions>
<speed>3.6</speed>
<temp>0.00</temp>
<bpm>0</bpm>
<rpm>0.00</rpm>
</extensions>
</trkpt>
<trkpt lat="64.103286743" lon="-19.734590530">
<ele>246.875000</ele>
<time>2012-07-21T15:14:39Z</time>
<speed>3.750000</speed>
<extensions>
<speed>3.8</speed>
<temp>0.00</temp>
<bpm>0</bpm>
<rpm>0.00</rpm>
</extensions>
</trkpt>
<trkpt lat="64.103141785" lon="-19.734794617">
<ele>246.082031</ele>
<time>2012-07-21T15:14:44Z</time>
<speed>3.970000</speed>
<extensions>
<speed>4.0</speed>
<temp>0.00</temp>
<bpm>0</bpm>
<rpm>0.00</rpm>
</extensions>
</trkpt>
<trkpt lat="64.102989197" lon="-19.735025406">
<ele>245.308594</ele>
<time>2012-07-21T15:14:49Z</time>
<speed>4.130000</speed>
<extensions>
<speed>4.1</speed>
<temp>0.00</temp>
<bpm>0</bpm>
<rpm>0.00</rpm>
</extensions>
</trkpt>
<trkpt lat="64.102859497" lon="-19.735250473">
<ele>245.753906</ele>
<time>2012-07-21T15:14:54Z</time>
<speed>3.440000</speed>
<extensions>
<speed>3.4</speed>
<temp>0.00</temp>
<bpm>0</bpm>
<rpm>0.00</rpm>
</extensions>
</trkpt>
<trkpt lat="64.102729797" lon="-19.735469818">
<ele>245.292969</ele>
<time>2012-07-21T15:14:59Z</time>
<speed>3.900000</speed>
<extensions>
<speed>3.9</speed>
<temp>0.00</temp>
<bpm>0</bpm>
<rpm>0.00</rpm>
</extensions>
</trkpt>
<trkpt lat="64.102600098" lon="-19.735685349">
<ele>245.515625</ele>
<time>2012-07-21T15:15:04Z</time>
<speed>3.090000</speed>
<extensions>
<speed>3.1</speed>
<temp>0.00</temp>
<bpm>0</bpm>
<rpm>0.00</rpm>
</extensions>
</trkpt>
<trkpt lat="64.102500916" lon="-19.735832214">
<ele>244.734375</ele>
<time>2012-07-21T15:15:09Z</time>
<speed>2.740000</speed>
<extensions>
<speed>2.7</speed>
<temp>0.00</temp>
<bpm>0</bpm>
<rpm>0.00</rpm>
</extensions>
</trkpt>
<trkpt lat="64.102378845" lon="-19.735984802">
<ele>244.488281</ele>
<time>2012-07-21T15:15:14Z</time>
<speed>3.600000</speed>
<extensions>
<speed>3.6</speed>
<temp>0.00</temp>
<bpm>0</bpm>
<rpm>0.00</rpm>
</extensions>
</trkpt>
<trkpt lat="64.102241516" lon="-19.736225128">
<ele>244.191406</ele>
<time>2012-07-21T15:15:19Z</time>
<speed>4.140000</speed>
<extensions>
<speed>4.1</speed>
<temp>0.00</temp>
<bpm>0</bpm>
<rpm>0.00</rpm>
</extensions>
</trkpt>
<trkpt lat="64.102096558" lon="-19.736436844">
<ele>243.757813</ele>
<time>2012-07-21T15:15:24Z</time>
<speed>3.460000</speed>
<extensions>
<speed>3.5</speed>
<temp>0.00</temp>
<bpm>0</bpm>
<rpm>0.00</rpm>
</extensions>
</trkpt>
<trkpt lat="64.101959229" lon="-19.736654282">
<ele>244.316406</ele>
<time>2012-07-21T15:15:29Z</time>
<speed>4.070000</speed>
<extensions>
<speed>4.1</speed>
<temp>0.00</temp>
<bpm>0</bpm>
<rpm>0.00</rpm>
</extensions>
</trkpt>
<trkpt lat="64.101799011" lon="-19.736881256">
<ele>243.902344</ele>
<time>2012-07-21T15:15:34Z</time>
<speed>4.140000</speed>
<extensions>
<speed>4.1</speed>
<temp>0.00</temp>
<bpm>0</bpm>
<rpm>0.00</rpm>
</extensions>
</trkpt>
<trkpt lat="64.101654053" lon="-19.737104416">
<ele>243.804688</ele>
<time>2012-07-21T15:15:39Z</time>
<speed>3.620000</speed>
<extensions>
<speed>3.6</speed>
<temp>0.00</temp>
<bpm>0</bpm>
<rpm>0.00</rpm>
</extensions>
</trkpt>
<trkpt lat="64.101501465" lon="-19.737312317">
<ele>243.304688</ele>
<time>2012-07-21T15:15:44Z</time>
<speed>4.220000</speed>
<extensions>
<speed>4.2</speed>
<temp>0.00</temp>
<bpm>0</bpm>
<rpm>0.00</rpm>
</extensions>
</trkpt>
<trkpt lat="64.101356506" lon="-19.737552643">
<ele>243.566406</ele>
<time>2012-07-21T15:15:49Z</time>
<speed>3.830000</speed>
<extensions>
<speed>3.8</speed>
<temp>0.00</temp>
<bpm>0</bpm>
<rpm>0.00</rpm>
</extensions>
</trkpt>
<trkpt lat="64.101211548" lon="-19.737768173">
<ele>243.355469</ele>
<time>2012-07-21T15:15:54Z</time>
<speed>4.090000</speed>
<extensions>
<speed>4.1</speed>
<temp>0.00</temp>
<bpm>0</bpm>
<rpm>0.00</rpm>
</extensions>
</trkpt>
<trkpt lat="64.101043701" lon="-19.737995148">
<ele>243.269531</ele>
<time>2012-07-21T15:15:59Z</time>
<speed>4.210000</speed>
<extensions>
<speed>4.2</speed>
<temp>0.00</temp>
<bpm>0</bpm>
<rpm>0.00</rpm>
</extensions>
</trkpt>
<trkpt lat="64.100891113" lon="-19.738225937">
<ele>243.632813</ele>
<time>2012-07-21T15:16:04Z</time>
<speed>3.680000</speed>
<extensions>
<speed>3.7</speed>
<temp>0.00</temp>
<bpm>0</bpm>
<rpm>0.00</rpm>
</extensions>
</trkpt>
<trkpt lat="64.100753784" lon="-19.738443375">
<ele>243.910156</ele>
<time>2012-07-21T15:16:09Z</time>
<speed>4.100000</speed>
<extensions>
<speed>4.1</speed>
<temp>0.00</temp>
<bpm>0</bpm>
<rpm>0.00</rpm>
</extensions>
</trkpt>
<trkpt lat="64.100593567" lon="-19.738681793">
<ele>244.183594</ele>
<time>2012-07-21T15:16:14Z</time>
<speed>4.110000</speed>
<extensions>
<speed>4.1</speed>
<temp>0.00</temp>
<bpm>0</bpm>
<rpm>0.00</rpm>
</extensions>
</trkpt>
<trkpt lat="64.100433350" lon="-19.738918304">
<ele>244.050781</ele>
<time>2012-07-21T15:16:19Z</time>
<speed>4.380000</speed>
<extensions>
<speed>4.4</speed>
<temp>0.00</temp>
<bpm>0</bpm>
<rpm>0.00</rpm>
</extensions>
</trkpt>
<trkpt lat="64.100273132" lon="-19.739166260">
<ele>244.320313</ele>
<time>2012-07-21T15:16:24Z</time>
<speed>4.190000</speed>
<extensions>
<speed>4.2</speed>
<temp>0.00</temp>
<bpm>0</bpm>
<rpm>0.00</rpm>
</extensions>
</trkpt>
<trkpt lat="64.100128174" lon="-19.739385605">
<ele>244.445313</ele>
<time>2012-07-21T15:16:29Z</time>
<speed>3.740000</speed>
<extensions>
<speed>3.7</speed>
<temp>0.00</temp>
<bpm>0</bpm>
<rpm>0.00</rpm>
</extensions>
</trkpt>
<trkpt lat="64.099983215" lon="-19.739614487">
<ele>244.765625</ele>
<time>2012-07-21T15:16:34Z</time>
<speed>3.990000</speed>
<extensions>
<speed>4.0</speed>
<temp>0.00</temp>
<bpm>0</bpm>
<rpm>0.00</rpm>
</extensions>
</trkpt>
<trkpt lat="64.099822998" lon="-19.739841461">
<ele>245.210938</ele>
<time>2012-07-21T15:16:39Z</time>
<speed>3.780000</speed>
<extensions>
<speed>3.8</speed>
<temp>0.00</temp>
<bpm>0</bpm>
<rpm>0.00</rpm>
</extensions>
</trkpt>
<trkpt lat="64.099670410" lon="-19.740089417">
<ele>245.449219</ele>
<time>2012-07-21T15:16:44Z</time>
<speed>4.330000</speed>
<extensions>
<speed>4.3</speed>
<temp>0.00</temp>
<bpm>0</bpm>
<rpm>0.00</rpm>
</extensions>
</trkpt>
<trkpt lat="64.099510193" lon="-19.740331650">
<ele>245.386719</ele>
<time>2012-07-21T15:16:49Z</time>
<speed>4.310000</speed>
<extensions>
<speed>4.3</speed>
<temp>0.00</temp>
<bpm>0</bpm>
<rpm>0.00</rpm>
</extensions>
</trkpt>
<trkpt lat="64.099327087" lon="-19.740583420">
<ele>245.125000</ele>
<time>2012-07-21T15:16:54Z</time>
<speed>4.770000</speed>
<extensions>
<speed>4.8</speed>
<temp>0.00</temp>
<bpm>0</bpm>
<rpm>0.00</rpm>
</extensions>
</trkpt>
<trkpt lat="64.099151611" lon="-19.740835190">
<ele>244.550781</ele>
<time>2012-07-21T15:16:59Z</time>
<speed>4.490000</speed>
<extensions>
<speed>4.5</speed>
<temp>0.00</temp>
<bpm>0</bpm>
<rpm>0.00</rpm>
</extensions>
</trkpt>
<trkpt lat="64.098976135" lon="-19.741102219">
<ele>244.453125</ele>
<time>2012-07-21T15:17:04Z</time>
<speed>5.040000</speed>
<extensions>
<speed>5.0</speed>
<temp>0.00</temp>
<bpm>0</bpm>
<rpm>0.00</rpm>
</extensions>
</trkpt>
<trkpt lat="64.098793030" lon="-19.741373062">
<ele>244.203125</ele>
<time>2012-07-21T15:17:09Z</time>
<speed>4.520000</speed>
<extensions>
<speed>4.5</speed>
<temp>0.00</temp>
<bpm>0</bpm>
<rpm>0.00</rpm>
</extensions>
</trkpt>
<trkpt lat="64.098609924" lon="-19.741640091">
<ele>244.449219</ele>
<time>2012-07-21T15:17:14Z</time>
<speed>4.810000</speed>
<extensions>
<speed>4.8</speed>
<temp>0.00</temp>
<bpm>0</bpm>
<rpm>0.00</rpm>
</extensions>
</trkpt>
<trkpt lat="64.098411560" lon="-19.741920471">
<ele>244.687500</ele>
<time>2012-07-21T15:17:19Z</time>
<speed>4.910000</speed>
<extensions>
<speed>4.9</speed>
<temp>0.00</temp>
<bpm>0</bpm>
<rpm>0.00</rpm>
</extensions>
</trkpt>
<trkpt lat="64.098236084" lon="-19.742166519">
<ele>244.722656</ele>
<time>2012-07-21T15:17:24Z</time>
<speed>4.380000</speed>
<extensions>
<speed>4.4</speed>
<temp>0.00</temp>
<bpm>0</bpm>
<rpm>0.00</rpm>
</extensions>
</trkpt>
<trkpt lat="64.098068237" lon="-19.742404938">
<ele>245.320313</ele>
<time>2012-07-21T15:17:29Z</time>
<speed>4.670000</speed>
<extensions>
<speed>4.7</speed>
<temp>0.00</temp>
<bpm>0</bpm>
<rpm>0.00</rpm>
</extensions>
</trkpt>
<trkpt lat="64.097869873" lon="-19.742656708">
<ele>245.242188</ele>
<time>2012-07-21T15:17:34Z</time>
<speed>5.080000</speed>
<extensions>
<speed>5.1</speed>
<temp>0.00</temp>
<bpm>0</bpm>
<rpm>0.00</rpm>
</extensions>
</trkpt>
<trkpt lat="64.097671509" lon="-19.742893219">
<ele>244.523438</ele>
<time>2012-07-21T15:17:39Z</time>
<speed>5.440000</speed>
<extensions>
<speed>5.4</speed>
<temp>0.00</temp>
<bpm>0</bpm>
<rpm>0.00</rpm>
</extensions>
</trkpt>
<trkpt lat="64.097434998" lon="-19.743135452">
<ele>244.707031</ele>
<time>2012-07-21T15:17:44Z</time>
<speed>5.420000</speed>
<extensions>
<speed>5.4</speed>
<temp>0.00</temp>
<bpm>0</bpm>
<rpm>0.00</rpm>
</extensions>
</trkpt>
<trkpt lat="64.097221375" lon="-19.743364334">
<ele>244.339844</ele>
<time>2012-07-21T15:17:49Z</time>
<speed>4.910000</speed>
<extensions>
<speed>4.9</speed>
<temp>0.00</temp>
<bpm>0</bpm>
<rpm>0.00</rpm>
</extensions>
</trkpt>
<trkpt lat="64.097038269" lon="-19.743568420">
<ele>244.664063</ele>
<time>2012-07-21T15:17:54Z</time>
<speed>4.570000</speed>
<extensions>
<speed>4.6</speed>
<temp>0.00</temp>
<bpm>0</bpm>
<rpm>0.00</rpm>
</extensions>
</trkpt>
<trkpt lat="64.096839905" lon="-19.743774414">
<ele>244.910156</ele>
<time>2012-07-21T15:17:59Z</time>
<speed>5.020000</speed>
<extensions>
<speed>5.0</speed>
<temp>0.00</temp>
<bpm>0</bpm>
<rpm>0.00</rpm>
</extensions>
</trkpt>
<trkpt lat="64.096626282" lon="-19.743968964">
<ele>243.539063</ele>
<time>2012-07-21T15:18:04Z</time>
<speed>5.400000</speed>
<extensions>
<speed>5.4</speed>
<temp>0.00</temp>
<bpm>0</bpm>
<rpm>0.00</rpm>
</extensions>
</trkpt>
<trkpt lat="64.096397400" lon="-19.744194031">
<ele>243.121094</ele>
<time>2012-07-21T15:18:09Z</time>
<speed>5.650000</speed>
<extensions>
<speed>5.7</speed>
<temp>0.00</temp>
<bpm>0</bpm>
<rpm>0.00</rpm>
</extensions>
</trkpt>
<trkpt lat="64.096168518" lon="-19.744415283">
<ele>242.792969</ele>
<time>2012-07-21T15:18:14Z</time>
<speed>5.800000</speed>
<extensions>
<speed>5.8</speed>
<temp>0.00</temp>
<bpm>0</bpm>
<rpm>0.00</rpm>
</extensions>
</trkpt>
<trkpt lat="64.095924377" lon="-19.744613647">
<ele>241.144531</ele>
<time>2012-07-21T15:18:19Z</time>
<speed>5.880000</speed>
<extensions>
<speed>5.9</speed>
<temp>0.00</temp>
<bpm>0</bpm>
<rpm>0.00</rpm>
</extensions>
</trkpt>
<trkpt lat="64.095664978" lon="-19.744831085">
<ele>239.941406</ele>
<time>2012-07-21T15:18:24Z</time>
<speed>5.820000</speed>
<extensions>
<speed>5.8</speed>
<temp>0.00</temp>
<bpm>0</bpm>
<rpm>0.00</rpm>
</extensions>
</trkpt>
<trkpt lat="64.095443726" lon="-19.745027542">
<ele>237.753906</ele>
<time>2012-07-21T15:18:29Z</time>
<speed>5.060000</speed>
<extensions>
<speed>5.1</speed>
<temp>0.00</temp>
<bpm>0</bpm>
<rpm>0.00</rpm>
</extensions>
</trkpt>
<trkpt lat="64.095222473" lon="-19.745208740">
<ele>237.460938</ele>
<time>2012-07-21T15:18:34Z</time>
<speed>5.080000</speed>
<extensions>
<speed>5.1</speed>
<temp>0.00</temp>
<bpm>0</bpm>
<rpm>0.00</rpm>
</extensions>
</trkpt>
<trkpt lat="64.094993591" lon="-19.745386124">
<ele>237.312500</ele>
<time>2012-07-21T15:18:39Z</time>
<speed>5.370000</speed>
<extensions>
<speed>5.4</speed>
<temp>0.00</temp>
<bpm>0</bpm>
<rpm>0.00</rpm>
</extensions>
</trkpt>
<trkpt lat="64.094772339" lon="-19.745571136">
<ele>236.980469</ele>
<time>2012-07-21T15:18:44Z</time>
<speed>4.770000</speed>
<extensions>
<speed>4.8</speed>
<temp>0.00</temp>
<bpm>0</bpm>
<rpm>0.00</rpm>
</extensions>
</trkpt>
<trkpt lat="64.094604492" lon="-19.745731354">
<ele>237.437500</ele>
<time>2012-07-21T15:18:49Z</time>
<speed>3.790000</speed>
<extensions>
<speed>3.8</speed>
<temp>0.00</temp>
<bpm>0</bpm>
<rpm>0.00</rpm>
</extensions>
</trkpt>
<trkpt lat="64.094459534" lon="-19.745845795">
<ele>237.476563</ele>
<time>2012-07-21T15:18:54Z</time>
<speed>3.480000</speed>
<extensions>
<speed>3.5</speed>
<temp>0.00</temp>
<bpm>0</bpm>
<rpm>0.00</rpm>
</extensions>
</trkpt>
<trkpt lat="64.094306946" lon="-19.745979309">
<ele>236.679688</ele>
<time>2012-07-21T15:18:59Z</time>
<speed>3.610000</speed>
<extensions>
<speed>3.6</speed>
<temp>0.00</temp>
<bpm>0</bpm>
<rpm>0.00</rpm>
</extensions>
</trkpt>
<trkpt lat="64.094177246" lon="-19.746084213">
<ele>235.777344</ele>
<time>2012-07-21T15:19:04Z</time>
<speed>2.770000</speed>
<extensions>
<speed>2.8</speed>
<temp>0.00</temp>
<bpm>0</bpm>
<rpm>0.00</rpm>
</extensions>
</trkpt>
<trkpt lat="64.094032288" lon="-19.746232986">
<ele>236.308594</ele>
<time>2012-07-21T15:19:09Z</time>
<speed>3.890000</speed>
<extensions>
<speed>3.9</speed>
<temp>0.00</temp>
<bpm>0</bpm>
<rpm>0.00</rpm>
</extensions>
</trkpt>
<trkpt lat="64.093864441" lon="-19.746372223">
<ele>236.312500</ele>
<time>2012-07-21T15:19:14Z</time>
<speed>4.470000</speed>
<extensions>
<speed>4.5</speed>
<temp>0.00</temp>
<bpm>0</bpm>
<rpm>0.00</rpm>
</extensions>
</trkpt>
<trkpt lat="64.093696594" lon="-19.746522903">
<ele>236.632813</ele>
<time>2012-07-21T15:19:19Z</time>
<speed>3.830000</speed>
<extensions>
<speed>3.8</speed>
<temp>0.00</temp>
<bpm>0</bpm>
<rpm>0.00</rpm>
</extensions>
</trkpt>
<trkpt lat="64.093505859" lon="-19.746688843">
<ele>237.765625</ele>
<time>2012-07-21T15:19:24Z</time>
<speed>4.680000</speed>
<extensions>
<speed>4.7</speed>
<temp>0.00</temp>
<bpm>0</bpm>
<rpm>0.00</rpm>
</extensions>
</trkpt>
<trkpt lat="64.093307495" lon="-19.746871948">
<ele>237.269531</ele>
<time>2012-07-21T15:19:29Z</time>
<speed>4.930000</speed>
<extensions>
<speed>4.9</speed>
<temp>0.00</temp>
<bpm>0</bpm>
<rpm>0.00</rpm>
</extensions>
</trkpt>
<trkpt lat="64.093101501" lon="-19.747060776">
<ele>236.695313</ele>
<time>2012-07-21T15:19:34Z</time>
<speed>4.420000</speed>
<extensions>
<speed>4.4</speed>
<temp>0.00</temp>
<bpm>0</bpm>
<rpm>0.00</rpm>
</extensions>
</trkpt>
<trkpt lat="64.092933655" lon="-19.747230530">
<ele>235.988281</ele>
<time>2012-07-21T15:19:39Z</time>
<speed>4.360000</speed>
<extensions>
<speed>4.4</speed>
<temp>0.00</temp>
<bpm>0</bpm>
<rpm>0.00</rpm>
</extensions>
</trkpt>
<trkpt lat="64.092750549" lon="-19.747388840">
<ele>235.886719</ele>
<time>2012-07-21T15:19:44Z</time>
<speed>4.590000</speed>
<extensions>
<speed>4.6</speed>
<temp>0.00</temp>
<bpm>0</bpm>
<rpm>0.00</rpm>
</extensions>
</trkpt>
<trkpt lat="64.092575073" lon="-19.747547150">
<ele>235.644531</ele>
<time>2012-07-21T15:19:49Z</time>
<speed>3.930000</speed>
<extensions>
<speed>3.9</speed>
<temp>0.00</temp>
<bpm>0</bpm>
<rpm>0.00</rpm>
</extensions>
</trkpt>
<trkpt lat="64.092430115" lon="-19.747676849">
<ele>235.429688</ele>
<time>2012-07-21T15:19:54Z</time>
<speed>3.160000</speed>
<extensions>
<speed>3.2</speed>
<temp>0.00</temp>
<bpm>0</bpm>
<rpm>0.00</rpm>
</extensions>
</trkpt>
<trkpt lat="64.092315674" lon="-19.747747421">
<ele>235.312500</ele>
<time>2012-07-21T15:19:59Z</time>
<speed>2.150000</speed>
<extensions>
<speed>2.1</speed>
<temp>0.00</temp>
<bpm>0</bpm>
<rpm>0.00</rpm>
</extensions>
</trkpt>
<trkpt lat="64.092262268" lon="-19.747671127">
<ele>234.824219</ele>
<time>2012-07-21T15:20:04Z</time>
<speed>2.550000</speed>
<extensions>
<speed>2.6</speed>
<temp>0.00</temp>
<bpm>0</bpm>
<rpm>0.00</rpm>
</extensions>
</trkpt>
<trkpt lat="64.092239380" lon="-19.747367859">
<ele>234.179688</ele>
<time>2012-07-21T15:20:09Z</time>
<speed>2.770000</speed>
<extensions>
<speed>2.8</speed>
<temp>0.00</temp>
<bpm>0</bpm>
<rpm>0.00</rpm>
</extensions>
</trkpt>
<trkpt lat="64.092269897" lon="-19.747072220">
<ele>233.519531</ele>
<time>2012-07-21T15:20:14Z</time>
<speed>2.300000</speed>
<extensions>
<speed>2.3</speed>
<temp>0.00</temp>
<bpm>0</bpm>
<rpm>0.00</rpm>
</extensions>
</trkpt>
<trkpt lat="64.092285156" lon="-19.746852875">
<ele>230.957031</ele>
<time>2012-07-21T15:20:19Z</time>
<speed>2.610000</speed>
<extensions>
<speed>2.6</speed>
<temp>0.00</temp>
<bpm>0</bpm>
<rpm>0.00</rpm>
</extensions>
</trkpt>
<trkpt lat="64.092277527" lon="-19.746629715">
<ele>231.117188</ele>
<time>2012-07-21T15:20:24Z</time>
<speed>1.300000</speed>
<extensions>
<speed>1.3</speed>
<temp>0.00</temp>
<bpm>0</bpm>
<rpm>0.00</rpm>
</extensions>
</trkpt>
<trkpt lat="64.092269897" lon="-19.746580124">
<ele>231.726563</ele>
<time>2012-07-21T15:20:29Z</time>
<speed>0.010000</speed>
<extensions>
<speed>0.0</speed>
<temp>0.00</temp>
<bpm>0</bpm>
<rpm>0.00</rpm>
</extensions>
</trkpt>
<trkpt lat="64.092269897" lon="-19.746562958">
<ele>231.707031</ele>
<time>2012-07-21T15:20:34Z</time>
<speed>0.460000</speed>
<extensions>
<speed>0.5</speed>
<temp>0.00</temp>
<bpm>0</bpm>
<rpm>0.00</rpm>
</extensions>
</trkpt>
<trkpt lat="64.092262268" lon="-19.746541977">
<ele>231.636719</ele>
<time>2012-07-21T15:20:39Z</time>
<speed>0.080000</speed>
<extensions>
<speed>0.1</speed>
<temp>0.00</temp>
<bpm>0</bpm>
<rpm>0.00</rpm>
</extensions>
</trkpt>
<trkpt lat="64.092269897" lon="-19.746543884">
<ele>231.660156</ele>
<time>2012-07-21T15:20:44Z</time>
<speed>0.030000</speed>
<extensions>
<speed>0.0</speed>
<temp>0.00</temp>
<bpm>0</bpm>
<rpm>0.00</rpm>
</extensions>
</trkpt>
<trkpt lat="64.092269897" lon="-19.746505737">
<ele>231.507813</ele>
<time>2012-07-21T15:20:49Z</time>
<speed>2.280000</speed>
<extensions>
<speed>2.3</speed>
<temp>0.00</temp>
<bpm>0</bpm>
<rpm>0.00</rpm>
</extensions>
</trkpt>
<trkpt lat="64.092285156" lon="-19.746461868">
<ele>231.156250</ele>
<time>2012-07-21T15:20:54Z</time>
<speed>0.020000</speed>
<extensions>
<speed>0.0</speed>
<temp>0.00</temp>
<bpm>0</bpm>
<rpm>0.00</rpm>
</extensions>
</trkpt>
<trkpt lat="64.092285156" lon="-19.746461868">
<ele>231.117188</ele>
<time>2012-07-21T15:20:59Z</time>
<extensions>
<speed>0.0</speed>
<temp>0.00</temp>
<bpm>0</bpm>
<rpm>0.00</rpm>
</extensions>
</trkpt>
<trkpt lat="64.092285156" lon="-19.746461868">
<ele>231.121094</ele>
<time>2012-07-21T15:21:04Z</time>
<extensions>
<speed>0.0</speed>
<temp>0.00</temp>
<bpm>0</bpm>
<rpm>0.00</rpm>
</extensions>
</trkpt>
<trkpt lat="64.092285156" lon="-19.746461868">
<ele>231.117188</ele>
<time>2012-07-21T15:21:09Z</time>
<extensions>
<speed>0.0</speed>
<temp>0.00</temp>
<bpm>0</bpm>
<rpm>0.00</rpm>
</extensions>
</trkpt>
<trkpt lat="64.092285156" lon="-19.746459961">
<ele>231.113281</ele>
<time>2012-07-21T15:21:14Z</time>
<extensions>
<speed>0.0</speed>
<temp>0.00</temp>
<bpm>0</bpm>
<rpm>0.00</rpm>
</extensions>
</trkpt>
<trkpt lat="64.092285156" lon="-19.746459961">
<ele>231.109375</ele>
<time>2012-07-21T15:21:19Z</time>
<extensions>
<speed>0.0</speed>
<temp>0.00</temp>
<bpm>0</bpm>
<rpm>0.00</rpm>
</extensions>
</trkpt>
<trkpt lat="64.092285156" lon="-19.746459961">
<ele>231.105469</ele>
<time>2012-07-21T15:21:24Z</time>
<speed>0.010000</speed>
<extensions>
<speed>0.0</speed>
<temp>0.00</temp>
<bpm>0</bpm>
<rpm>0.00</rpm>
</extensions>
</trkpt>
<trkpt lat="64.092285156" lon="-19.746459961">
<ele>231.101563</ele>
<time>2012-07-21T15:21:29Z</time>
<speed>0.010000</speed>
<extensions>
<speed>0.0</speed>
<temp>0.00</temp>
<bpm>0</bpm>
<rpm>0.00</rpm>
</extensions>
</trkpt>
<trkpt lat="64.092285156" lon="-19.746459961">
<ele>231.097656</ele>
<time>2012-07-21T15:21:34Z</time>
<extensions>
<speed>0.0</speed>
<temp>0.00</temp>
<bpm>0</bpm>
<rpm>0.00</rpm>
</extensions>
</trkpt>
<trkpt lat="64.092285156" lon="-19.746459961">
<ele>231.093750</ele>
<time>2012-07-21T15:21:39Z</time>
<extensions>
<speed>0.0</speed>
<temp>0.00</temp>
<bpm>0</bpm>
<rpm>0.00</rpm>
</extensions>
</trkpt>
<trkpt lat="64.092285156" lon="-19.746459961">
<ele>231.089844</ele>
<time>2012-07-21T15:21:44Z</time>
<extensions>
<speed>0.0</speed>
<temp>0.00</temp>
<bpm>0</bpm>
<rpm>0.00</rpm>
</extensions>
</trkpt>
<trkpt lat="64.092285156" lon="-19.746459961">
<ele>231.085938</ele>
<time>2012-07-21T15:21:49Z</time>
<extensions>
<speed>0.0</speed>
<temp>0.00</temp>
<bpm>0</bpm>
<rpm>0.00</rpm>
</extensions>
</trkpt>
<trkpt lat="64.092285156" lon="-19.746459961">
<ele>231.085938</ele>
<time>2012-07-21T15:21:54Z</time>
<speed>0.170000</speed>
<extensions>
<speed>0.2</speed>
<temp>0.00</temp>
<bpm>0</bpm>
<rpm>0.00</rpm>
</extensions>
</trkpt>
<trkpt lat="64.092285156" lon="-19.746459961">
<ele>231.097656</ele>
<time>2012-07-21T15:21:59Z</time>
<extensions>
<speed>0.0</speed>
<temp>0.00</temp>
<bpm>0</bpm>
<rpm>0.00</rpm>
</extensions>
</trkpt>
<trkpt lat="64.092285156" lon="-19.746459961">
<ele>231.089844</ele>
<time>2012-07-21T15:22:04Z</time>
<extensions>
<speed>0.0</speed>
<temp>0.00</temp>
<bpm>0</bpm>
<rpm>0.00</rpm>
</extensions>
</trkpt>
<trkpt lat="64.092285156" lon="-19.746458054">
<ele>231.105469</ele>
<time>2012-07-21T15:22:09Z</time>
<speed>0.020000</speed>
<extensions>
<speed>0.0</speed>
<temp>0.00</temp>
<bpm>0</bpm>
<rpm>0.00</rpm>
</extensions>
</trkpt>
<trkpt lat="64.092285156" lon="-19.746458054">
<ele>231.097656</ele>
<time>2012-07-21T15:22:14Z</time>
<extensions>
<speed>0.0</speed>
<temp>0.00</temp>
<bpm>0</bpm>
<rpm>0.00</rpm>
</extensions>
</trkpt>
<trkpt lat="64.092285156" lon="-19.746458054">
<ele>231.097656</ele>
<time>2012-07-21T15:22:19Z</time>
<extensions>
<speed>0.0</speed>
<temp>0.00</temp>
<bpm>0</bpm>
<rpm>0.00</rpm>
</extensions>
</trkpt>
<trkpt lat="64.092285156" lon="-19.746458054">
<ele>231.093750</ele>
<time>2012-07-21T15:22:24Z</time>
<extensions>
<speed>0.0</speed>
<temp>0.00</temp>
<bpm>0</bpm>
<rpm>0.00</rpm>
</extensions>
</trkpt>
<trkpt lat="64.092285156" lon="-19.746458054">
<ele>231.089844</ele>
<time>2012-07-21T15:22:29Z</time>
<extensions>
<speed>0.0</speed>
<temp>0.00</temp>
<bpm>0</bpm>
<rpm>0.00</rpm>
</extensions>
</trkpt>
<trkpt lat="64.092285156" lon="-19.746458054">
<ele>231.089844</ele>
<time>2012-07-21T15:22:34Z</time>
<extensions>
<speed>0.0</speed>
<temp>0.00</temp>
<bpm>0</bpm>
<rpm>0.00</rpm>
</extensions>
</trkpt>
<trkpt lat="64.092285156" lon="-19.746458054">
<ele>231.085938</ele>
<time>2012-07-21T15:22:39Z</time>
<speed>0.010000</speed>
<extensions>
<speed>0.0</speed>
<temp>0.00</temp>
<bpm>0</bpm>
<rpm>0.00</rpm>
</extensions>
</trkpt>
<trkpt lat="64.092285156" lon="-19.746458054">
<ele>231.085938</ele>
<time>2012-07-21T15:22:44Z</time>
<extensions>
<speed>0.0</speed>
<temp>0.00</temp>
<bpm>0</bpm>
<rpm>0.00</rpm>
</extensions>
</trkpt>
<trkpt lat="64.092285156" lon="-19.746458054">
<ele>231.085938</ele>
<time>2012-07-21T15:22:49Z</time>
<extensions>
<speed>0.0</speed>
<temp>0.00</temp>
<bpm>0</bpm>
<rpm>0.00</rpm>
</extensions>
</trkpt>
<trkpt lat="64.092285156" lon="-19.746458054">
<ele>231.082031</ele>
<time>2012-07-21T15:22:54Z</time>
<extensions>
<speed>0.0</speed>
<temp>0.00</temp>
<bpm>0</bpm>
<rpm>0.00</rpm>
</extensions>
</trkpt>
<trkpt lat="64.092285156" lon="-19.746458054">
<ele>231.082031</ele>
<time>2012-07-21T15:22:59Z</time>
<extensions>
<speed>0.0</speed>
<temp>0.00</temp>
<bpm>0</bpm>
<rpm>0.00</rpm>
</extensions>
</trkpt>
<trkpt lat="64.092285156" lon="-19.746458054">
<ele>231.085938</ele>
<time>2012-07-21T15:23:04Z</time>
<extensions>
<speed>0.0</speed>
<temp>0.00</temp>
<bpm>0</bpm>
<rpm>0.00</rpm>
</extensions>
</trkpt>
<trkpt lat="64.092285156" lon="-19.746458054">
<ele>231.085938</ele>
<time>2012-07-21T15:23:09Z</time>
<extensions>
<speed>0.0</speed>
<temp>0.00</temp>
<bpm>0</bpm>
<rpm>0.00</rpm>
</extensions>
</trkpt>
<trkpt lat="64.092285156" lon="-19.746458054">
<ele>231.082031</ele>
<time>2012-07-21T15:23:14Z</time>
<extensions>
<speed>0.0</speed>
<temp>0.00</temp>
<bpm>0</bpm>
<rpm>0.00</rpm>
</extensions>
</trkpt>
<trkpt lat="64.092285156" lon="-19.746458054">
<ele>231.078125</ele>
<time>2012-07-21T15:23:19Z</time>
<speed>0.010000</speed>
<extensions>
<speed>0.0</speed>
<temp>0.00</temp>
<bpm>0</bpm>
<rpm>0.00</rpm>
</extensions>
</trkpt>
<trkpt lat="64.092285156" lon="-19.746458054">
<ele>231.082031</ele>
<time>2012-07-21T15:23:24Z</time>
<extensions>
<speed>0.0</speed>
<temp>0.00</temp>
<bpm>0</bpm>
<rpm>0.00</rpm>
</extensions>
</trkpt>
<trkpt lat="64.092285156" lon="-19.746458054">
<ele>231.078125</ele>
<time>2012-07-21T15:23:29Z</time>
<speed>0.010000</speed>
<extensions>
<speed>0.0</speed>
<temp>0.00</temp>
<bpm>0</bpm>
<rpm>0.00</rpm>
</extensions>
</trkpt>
<trkpt lat="64.092285156" lon="-19.746458054">
<ele>231.074219</ele>
<time>2012-07-21T15:23:34Z</time>
<extensions>
<speed>0.0</speed>
<temp>0.00</temp>
<bpm>0</bpm>
<rpm>0.00</rpm>
</extensions>
</trkpt>
<trkpt lat="64.092285156" lon="-19.746458054">
<ele>231.078125</ele>
<time>2012-07-21T15:23:39Z</time>
<extensions>
<speed>0.0</speed>
<temp>0.00</temp>
<bpm>0</bpm>
<rpm>0.00</rpm>
</extensions>
</trkpt>
<trkpt lat="64.092285156" lon="-19.746456146">
<ele>231.074219</ele>
<time>2012-07-21T15:23:44Z</time>
<speed>0.010000</speed>
<extensions>
<speed>0.0</speed>
<temp>0.00</temp>
<bpm>0</bpm>
<rpm>0.00</rpm>
</extensions>
</trkpt>
<trkpt lat="64.092285156" lon="-19.746456146">
<ele>231.078125</ele>
<time>2012-07-21T15:23:49Z</time>
<extensions>
<speed>0.0</speed>
<temp>0.00</temp>
<bpm>0</bpm>
<rpm>0.00</rpm>
</extensions>
</trkpt>
<trkpt lat="64.092285156" lon="-19.746456146">
<ele>231.085938</ele>
<time>2012-07-21T15:23:54Z</time>
<extensions>
<speed>0.0</speed>
<temp>0.00</temp>
<bpm>0</bpm>
<rpm>0.00</rpm>
</extensions>
</trkpt>
<trkpt lat="64.092285156" lon="-19.746456146">
<ele>231.089844</ele>
<time>2012-07-21T15:23:59Z</time>
<extensions>
<speed>0.0</speed>
<temp>0.00</temp>
<bpm>0</bpm>
<rpm>0.00</rpm>
</extensions>
</trkpt>
<trkpt lat="64.092285156" lon="-19.746456146">
<ele>231.085938</ele>
<time>2012-07-21T15:24:04Z</time>
<extensions>
<speed>0.0</speed>
<temp>0.00</temp>
<bpm>0</bpm>
<rpm>0.00</rpm>
</extensions>
</trkpt>
<trkpt lat="64.092285156" lon="-19.746456146">
<ele>231.082031</ele>
<time>2012-07-21T15:24:09Z</time>
<extensions>
<speed>0.0</speed>
<temp>0.00</temp>
<bpm>0</bpm>
<rpm>0.00</rpm>
</extensions>
</trkpt>
<trkpt lat="64.092285156" lon="-19.746456146">
<ele>231.078125</ele>
<time>2012-07-21T15:24:14Z</time>
<extensions>
<speed>0.0</speed>
<temp>0.00</temp>
<bpm>0</bpm>
<rpm>0.00</rpm>
</extensions>
</trkpt>
<trkpt lat="64.092285156" lon="-19.746456146">
<ele>231.074219</ele>
<time>2012-07-21T15:24:19Z</time>
<speed>0.010000</speed>
<extensions>
<speed>0.0</speed>
<temp>0.00</temp>
<bpm>0</bpm>
<rpm>0.00</rpm>
</extensions>
</trkpt>
<trkpt lat="64.092285156" lon="-19.746456146">
<ele>231.074219</ele>
<time>2012-07-21T15:24:24Z</time>
<speed>0.010000</speed>
<extensions>
<speed>0.0</speed>
<temp>0.00</temp>
<bpm>0</bpm>
<rpm>0.00</rpm>
</extensions>
</trkpt>
<trkpt lat="64.092285156" lon="-19.746456146">
<ele>231.074219</ele>
<time>2012-07-21T15:24:29Z</time>
<extensions>
<speed>0.0</speed>
<temp>0.00</temp>
<bpm>0</bpm>
<rpm>0.00</rpm>
</extensions>
</trkpt>
<trkpt lat="64.092285156" lon="-19.746456146">
<ele>231.074219</ele>
<time>2012-07-21T15:24:34Z</time>
<extensions>
<speed>0.0</speed>
<temp>0.00</temp>
<bpm>0</bpm>
<rpm>0.00</rpm>
</extensions>
</trkpt>
<trkpt lat="64.092285156" lon="-19.746456146">
<ele>231.070313</ele>
<time>2012-07-21T15:24:39Z</time>
<extensions>
<speed>0.0</speed>
<temp>0.00</temp>
<bpm>0</bpm>
<rpm>0.00</rpm>
</extensions>
</trkpt>
<trkpt lat="64.092285156" lon="-19.746456146">
<ele>231.070313</ele>
<time>2012-07-21T15:24:44Z</time>
<extensions>
<speed>0.0</speed>
<temp>0.00</temp>
<bpm>0</bpm>
<rpm>0.00</rpm>
</extensions>
</trkpt>
<trkpt lat="64.092285156" lon="-19.746456146">
<ele>231.074219</ele>
<time>2012-07-21T15:24:49Z</time>
<extensions>
<speed>0.0</speed>
<temp>0.00</temp>
<bpm>0</bpm>
<rpm>0.00</rpm>
</extensions>
</trkpt>
<trkpt lat="64.092285156" lon="-19.746456146">
<ele>231.078125</ele>
<time>2012-07-21T15:24:54Z</time>
<extensions>
<speed>0.0</speed>
<temp>0.00</temp>
<bpm>0</bpm>
<rpm>0.00</rpm>
</extensions>
</trkpt>
<trkpt lat="64.092285156" lon="-19.746456146">
<ele>231.078125</ele>
<time>2012-07-21T15:24:59Z</time>
<extensions>
<speed>0.0</speed>
<temp>0.00</temp>
<bpm>0</bpm>
<rpm>0.00</rpm>
</extensions>
</trkpt>
<trkpt lat="64.092285156" lon="-19.746456146">
<ele>231.078125</ele>
<time>2012-07-21T15:25:04Z</time>
<speed>0.010000</speed>
<extensions>
<speed>0.0</speed>
<temp>0.00</temp>
<bpm>0</bpm>
<rpm>0.00</rpm>
</extensions>
</trkpt>
<trkpt lat="64.092285156" lon="-19.746456146">
<ele>231.078125</ele>
<time>2012-07-21T15:25:09Z</time>
<extensions>
<speed>0.0</speed>
<temp>0.00</temp>
<bpm>0</bpm>
<rpm>0.00</rpm>
</extensions>
</trkpt>
<trkpt lat="64.092285156" lon="-19.746456146">
<ele>231.078125</ele>
<time>2012-07-21T15:25:14Z</time>
<speed>0.010000</speed>
<extensions>
<speed>0.0</speed>
<temp>0.00</temp>
<bpm>0</bpm>
<rpm>0.00</rpm>
</extensions>
</trkpt>
<trkpt lat="64.092285156" lon="-19.746456146">
<ele>231.078125</ele>
<time>2012-07-21T15:25:19Z</time>
<extensions>
<speed>0.0</speed>
<temp>0.00</temp>
<bpm>0</bpm>
<rpm>0.00</rpm>
</extensions>
</trkpt>
<trkpt lat="64.092285156" lon="-19.746456146">
<ele>231.082031</ele>
<time>2012-07-21T15:25:24Z</time>
<extensions>
<speed>0.0</speed>
<temp>0.00</temp>
<bpm>0</bpm>
<rpm>0.00</rpm>
</extensions>
</trkpt>
<trkpt lat="64.092285156" lon="-19.746456146">
<ele>231.082031</ele>
<time>2012-07-21T15:25:29Z</time>
<extensions>
<speed>0.0</speed>
<temp>0.00</temp>
<bpm>0</bpm>
<rpm>0.00</rpm>
</extensions>
</trkpt>
<trkpt lat="64.092285156" lon="-19.746456146">
<ele>231.082031</ele>
<time>2012-07-21T15:25:34Z</time>
<extensions>
<speed>0.0</speed>
<temp>0.00</temp>
<bpm>0</bpm>
<rpm>0.00</rpm>
</extensions>
</trkpt>
<trkpt lat="64.092285156" lon="-19.746456146">
<ele>231.082031</ele>
<time>2012-07-21T15:25:39Z</time>
<extensions>
<speed>0.0</speed>
<temp>0.00</temp>
<bpm>0</bpm>
<rpm>0.00</rpm>
</extensions>
</trkpt>
<trkpt lat="64.092285156" lon="-19.746456146">
<ele>231.085938</ele>
<time>2012-07-21T15:25:44Z</time>
<extensions>
<speed>0.0</speed>
<temp>0.00</temp>
<bpm>0</bpm>
<rpm>0.00</rpm>
</extensions>
</trkpt>
<trkpt lat="64.092285156" lon="-19.746456146">
<ele>231.085938</ele>
<time>2012-07-21T15:25:49Z</time>
<extensions>
<speed>0.0</speed>
<temp>0.00</temp>
<bpm>0</bpm>
<rpm>0.00</rpm>
</extensions>
</trkpt>
<trkpt lat="64.092285156" lon="-19.746456146">
<ele>231.089844</ele>
<time>2012-07-21T15:25:54Z</time>
<extensions>
<speed>0.0</speed>
<temp>0.00</temp>
<bpm>0</bpm>
<rpm>0.00</rpm>
</extensions>
</trkpt>
<trkpt lat="64.092285156" lon="-19.746456146">
<ele>231.093750</ele>
<time>2012-07-21T15:25:59Z</time>
<extensions>
<speed>0.0</speed>
<temp>0.00</temp>
<bpm>0</bpm>
<rpm>0.00</rpm>
</extensions>
</trkpt>
<trkpt lat="64.092285156" lon="-19.746456146">
<ele>231.093750</ele>
<time>2012-07-21T15:26:04Z</time>
<extensions>
<speed>0.0</speed>
<temp>0.00</temp>
<bpm>0</bpm>
<rpm>0.00</rpm>
</extensions>
</trkpt>
<trkpt lat="64.092285156" lon="-19.746456146">
<ele>231.093750</ele>
<time>2012-07-21T15:26:09Z</time>
<extensions>
<speed>0.0</speed>
<temp>0.00</temp>
<bpm>0</bpm>
<rpm>0.00</rpm>
</extensions>
</trkpt>
<trkpt lat="64.092285156" lon="-19.746456146">
<ele>231.093750</ele>
<time>2012-07-21T15:26:14Z</time>
<extensions>
<speed>0.0</speed>
<temp>0.00</temp>
<bpm>0</bpm>
<rpm>0.00</rpm>
</extensions>
</trkpt>
<trkpt lat="64.092285156" lon="-19.746456146">
<ele>231.089844</ele>
<time>2012-07-21T15:26:19Z</time>
<extensions>
<speed>0.0</speed>
<temp>0.00</temp>
<bpm>0</bpm>
<rpm>0.00</rpm>
</extensions>
</trkpt>
<trkpt lat="64.092285156" lon="-19.746456146">
<ele>231.093750</ele>
<time>2012-07-21T15:26:24Z</time>
<speed>0.010000</speed>
<extensions>
<speed>0.0</speed>
<temp>0.00</temp>
<bpm>0</bpm>
<rpm>0.00</rpm>
</extensions>
</trkpt>
<trkpt lat="64.092285156" lon="-19.746456146">
<ele>231.093750</ele>
<time>2012-07-21T15:26:29Z</time>
<extensions>
<speed>0.0</speed>
<temp>0.00</temp>
<bpm>0</bpm>
<rpm>0.00</rpm>
</extensions>
</trkpt>
<trkpt lat="64.092285156" lon="-19.746456146">
<ele>231.093750</ele>
<time>2012-07-21T15:26:34Z</time>
<extensions>
<speed>0.0</speed>
<temp>0.00</temp>
<bpm>0</bpm>
<rpm>0.00</rpm>
</extensions>
</trkpt>
<trkpt lat="64.092285156" lon="-19.746456146">
<ele>231.097656</ele>
<time>2012-07-21T15:26:39Z</time>
<speed>0.010000</speed>
<extensions>
<speed>0.0</speed>
<temp>0.00</temp>
<bpm>0</bpm>
<rpm>0.00</rpm>
</extensions>
</trkpt>
<trkpt lat="64.092285156" lon="-19.746454239">
<ele>231.097656</ele>
<time>2012-07-21T15:26:44Z</time>
<extensions>
<speed>0.0</speed>
<temp>0.00</temp>
<bpm>0</bpm>
<rpm>0.00</rpm>
</extensions>
</trkpt>
<trkpt lat="64.092285156" lon="-19.746454239">
<ele>231.105469</ele>
<time>2012-07-21T15:26:49Z</time>
<extensions>
<speed>0.0</speed>
<temp>0.00</temp>
<bpm>0</bpm>
<rpm>0.00</rpm>
</extensions>
</trkpt>
<trkpt lat="64.092285156" lon="-19.746454239">
<ele>231.101563</ele>
<time>2012-07-21T15:26:54Z</time>
<extensions>
<speed>0.0</speed>
<temp>0.00</temp>
<bpm>0</bpm>
<rpm>0.00</rpm>
</extensions>
</trkpt>
<trkpt lat="64.092285156" lon="-19.746454239">
<ele>231.101563</ele>
<time>2012-07-21T15:26:59Z</time>
<extensions>
<speed>0.0</speed>
<temp>0.00</temp>
<bpm>0</bpm>
<rpm>0.00</rpm>
</extensions>
</trkpt>
<trkpt lat="64.092285156" lon="-19.746454239">
<ele>231.105469</ele>
<time>2012-07-21T15:27:04Z</time>
<extensions>
<speed>0.0</speed>
<temp>0.00</temp>
<bpm>0</bpm>
<rpm>0.00</rpm>
</extensions>
</trkpt>
<trkpt lat="64.092285156" lon="-19.746454239">
<ele>231.109375</ele>
<time>2012-07-21T15:27:09Z</time>
<speed>0.010000</speed>
<extensions>
<speed>0.0</speed>
<temp>0.00</temp>
<bpm>0</bpm>
<rpm>0.00</rpm>
</extensions>
</trkpt>
<trkpt lat="64.092285156" lon="-19.746454239">
<ele>231.109375</ele>
<time>2012-07-21T15:27:14Z</time>
<extensions>
<speed>0.0</speed>
<temp>0.00</temp>
<bpm>0</bpm>
<rpm>0.00</rpm>
</extensions>
</trkpt>
<trkpt lat="64.092285156" lon="-19.746454239">
<ele>231.113281</ele>
<time>2012-07-21T15:27:19Z</time>
<extensions>
<speed>0.0</speed>
<temp>0.00</temp>
<bpm>0</bpm>
<rpm>0.00</rpm>
</extensions>
</trkpt>
<trkpt lat="64.092285156" lon="-19.746454239">
<ele>231.113281</ele>
<time>2012-07-21T15:27:24Z</time>
<extensions>
<speed>0.0</speed>
<temp>0.00</temp>
<bpm>0</bpm>
<rpm>0.00</rpm>
</extensions>
</trkpt>
<trkpt lat="64.092285156" lon="-19.746454239">
<ele>231.113281</ele>
<time>2012-07-21T15:27:29Z</time>
<extensions>
<speed>0.0</speed>
<temp>0.00</temp>
<bpm>0</bpm>
<rpm>0.00</rpm>
</extensions>
</trkpt>
<trkpt lat="64.092285156" lon="-19.746454239">
<ele>231.117188</ele>
<time>2012-07-21T15:27:34Z</time>
<speed>0.010000</speed>
<extensions>
<speed>0.0</speed>
<temp>0.00</temp>
<bpm>0</bpm>
<rpm>0.00</rpm>
</extensions>
</trkpt>
<trkpt lat="64.092285156" lon="-19.746454239">
<ele>231.113281</ele>
<time>2012-07-21T15:27:39Z</time>
<extensions>
<speed>0.0</speed>
<temp>0.00</temp>
<bpm>0</bpm>
<rpm>0.00</rpm>
</extensions>
</trkpt>
<trkpt lat="64.092285156" lon="-19.746454239">
<ele>231.113281</ele>
<time>2012-07-21T15:27:44Z</time>
<extensions>
<speed>0.0</speed>
<temp>0.00</temp>
<bpm>0</bpm>
<rpm>0.00</rpm>
</extensions>
</trkpt>
<trkpt lat="64.092285156" lon="-19.746454239">
<ele>231.113281</ele>
<time>2012-07-21T15:27:49Z</time>
<speed>0.010000</speed>
<extensions>
<speed>0.0</speed>
<temp>0.00</temp>
<bpm>0</bpm>
<rpm>0.00</rpm>
</extensions>
</trkpt>
<trkpt lat="64.092285156" lon="-19.746454239">
<ele>231.121094</ele>
<time>2012-07-21T15:27:54Z</time>
<speed>0.010000</speed>
<extensions>
<speed>0.0</speed>
<temp>0.00</temp>
<bpm>0</bpm>
<rpm>0.00</rpm>
</extensions>
</trkpt>
<trkpt lat="64.092285156" lon="-19.746454239">
<ele>231.121094</ele>
<time>2012-07-21T15:27:59Z</time>
<speed>0.010000</speed>
<extensions>
<speed>0.0</speed>
<temp>0.00</temp>
<bpm>0</bpm>
<rpm>0.00</rpm>
</extensions>
</trkpt>
<trkpt lat="64.092285156" lon="-19.746454239">
<ele>231.117188</ele>
<time>2012-07-21T15:28:04Z</time>
<extensions>
<speed>0.0</speed>
<temp>0.00</temp>
<bpm>0</bpm>
<rpm>0.00</rpm>
</extensions>
</trkpt>
<trkpt lat="64.092285156" lon="-19.746454239">
<ele>231.117188</ele>
<time>2012-07-21T15:28:09Z</time>
<extensions>
<speed>0.0</speed>
<temp>0.00</temp>
<bpm>0</bpm>
<rpm>0.00</rpm>
</extensions>
</trkpt>
<trkpt lat="64.092285156" lon="-19.746454239">
<ele>231.117188</ele>
<time>2012-07-21T15:28:14Z</time>
<extensions>
<speed>0.0</speed>
<temp>0.00</temp>
<bpm>0</bpm>
<rpm>0.00</rpm>
</extensions>
</trkpt>
<trkpt lat="64.092285156" lon="-19.746454239">
<ele>231.117188</ele>
<time>2012-07-21T15:28:19Z</time>
<speed>0.010000</speed>
<extensions>
<speed>0.0</speed>
<temp>0.00</temp>
<bpm>0</bpm>
<rpm>0.00</rpm>
</extensions>
</trkpt>
<trkpt lat="64.092292786" lon="-19.746454239">
<ele>231.113281</ele>
<time>2012-07-21T15:28:24Z</time>
<extensions>
<speed>0.0</speed>
<temp>0.00</temp>
<bpm>0</bpm>
<rpm>0.00</rpm>
</extensions>
</trkpt>
<trkpt lat="64.092292786" lon="-19.746454239">
<ele>231.113281</ele>
<time>2012-07-21T15:28:29Z</time>
<extensions>
<speed>0.0</speed>
<temp>0.00</temp>
<bpm>0</bpm>
<rpm>0.00</rpm>
</extensions>
</trkpt>
<trkpt lat="64.092292786" lon="-19.746454239">
<ele>231.117188</ele>
<time>2012-07-21T15:28:34Z</time>
<extensions>
<speed>0.0</speed>
<temp>0.00</temp>
<bpm>0</bpm>
<rpm>0.00</rpm>
</extensions>
</trkpt>
<trkpt lat="64.092292786" lon="-19.746454239">
<ele>231.117188</ele>
<time>2012-07-21T15:28:39Z</time>
<speed>0.010000</speed>
<extensions>
<speed>0.0</speed>
<temp>0.00</temp>
<bpm>0</bpm>
<rpm>0.00</rpm>
</extensions>
</trkpt>
<trkpt lat="64.092292786" lon="-19.746454239">
<ele>231.125000</ele>
<time>2012-07-21T15:28:44Z</time>
<extensions>
<speed>0.0</speed>
<temp>0.00</temp>
<bpm>0</bpm>
<rpm>0.00</rpm>
</extensions>
</trkpt>
<trkpt lat="64.092292786" lon="-19.746452332">
<ele>231.125000</ele>
<time>2012-07-21T15:28:49Z</time>
<extensions>
<speed>0.0</speed>
<temp>0.00</temp>
<bpm>0</bpm>
<rpm>0.00</rpm>
</extensions>
</trkpt>
<trkpt lat="64.092292786" lon="-19.746452332">
<ele>231.125000</ele>
<time>2012-07-21T15:28:54Z</time>
<extensions>
<speed>0.0</speed>
<temp>0.00</temp>
<bpm>0</bpm>
<rpm>0.00</rpm>
</extensions>
</trkpt>
<trkpt lat="64.092292786" lon="-19.746452332">
<ele>231.128906</ele>
<time>2012-07-21T15:28:59Z</time>
<speed>0.010000</speed>
<extensions>
<speed>0.0</speed>
<temp>0.00</temp>
<bpm>0</bpm>
<rpm>0.00</rpm>
</extensions>
</trkpt>
<trkpt lat="64.092292786" lon="-19.746452332">
<ele>231.132813</ele>
<time>2012-07-21T15:29:04Z</time>
<extensions>
<speed>0.0</speed>
<temp>0.00</temp>
<bpm>0</bpm>
<rpm>0.00</rpm>
</extensions>
</trkpt>
<trkpt lat="64.092292786" lon="-19.746452332">
<ele>231.132813</ele>
<time>2012-07-21T15:29:09Z</time>
<extensions>
<speed>0.0</speed>
<temp>0.00</temp>
<bpm>0</bpm>
<rpm>0.00</rpm>
</extensions>
</trkpt>
<trkpt lat="64.092292786" lon="-19.746452332">
<ele>231.132813</ele>
<time>2012-07-21T15:29:14Z</time>
<speed>0.010000</speed>
<extensions>
<speed>0.0</speed>
<temp>0.00</temp>
<bpm>0</bpm>
<rpm>0.00</rpm>
</extensions>
</trkpt>
<trkpt lat="64.092292786" lon="-19.746452332">
<ele>231.136719</ele>
<time>2012-07-21T15:29:19Z</time>
<extensions>
<speed>0.0</speed>
<temp>0.00</temp>
<bpm>0</bpm>
<rpm>0.00</rpm>
</extensions>
</trkpt>
<trkpt lat="64.092292786" lon="-19.746452332">
<ele>231.136719</ele>
<time>2012-07-21T15:29:24Z</time>
<extensions>
<speed>0.0</speed>
<temp>0.00</temp>
<bpm>0</bpm>
<rpm>0.00</rpm>
</extensions>
</trkpt>
<trkpt lat="64.092292786" lon="-19.746452332">
<ele>231.136719</ele>
<time>2012-07-21T15:29:29Z</time>
<speed>0.010000</speed>
<extensions>
<speed>0.0</speed>
<temp>0.00</temp>
<bpm>0</bpm>
<rpm>0.00</rpm>
</extensions>
</trkpt>
<trkpt lat="64.092292786" lon="-19.746452332">
<ele>231.140625</ele>
<time>2012-07-21T15:29:34Z</time>
<speed>0.180000</speed>
<extensions>
<speed>0.2</speed>
<temp>0.00</temp>
<bpm>0</bpm>
<rpm>0.00</rpm>
</extensions>
</trkpt>
<trkpt lat="64.092292786" lon="-19.746450424">
<ele>231.093750</ele>
<time>2012-07-21T15:29:39Z</time>
<extensions>
<speed>0.0</speed>
<temp>0.00</temp>
<bpm>0</bpm>
<rpm>0.00</rpm>
</extensions>
</trkpt>
<trkpt lat="64.092292786" lon="-19.746450424">
<ele>231.093750</ele>
<time>2012-07-21T15:29:44Z</time>
<extensions>
<speed>0.0</speed>
<temp>0.00</temp>
<bpm>0</bpm>
<rpm>0.00</rpm>
</extensions>
</trkpt>
<trkpt lat="64.092292786" lon="-19.746446609">
<ele>231.093750</ele>
<time>2012-07-21T15:29:49Z</time>
<speed>0.480000</speed>
<extensions>
<speed>0.5</speed>
<temp>0.00</temp>
<bpm>0</bpm>
<rpm>0.00</rpm>
</extensions>
</trkpt>
<trkpt lat="64.092323303" lon="-19.746421814">
<ele>230.968750</ele>
<time>2012-07-21T15:29:54Z</time>
<speed>0.040000</speed>
<extensions>
<speed>0.0</speed>
<temp>0.00</temp>
<bpm>0</bpm>
<rpm>0.00</rpm>
</extensions>
</trkpt>
<trkpt lat="64.092338562" lon="-19.746416092">
<ele>231.023438</ele>
<time>2012-07-21T15:29:59Z</time>
<speed>1.010000</speed>
<extensions>
<speed>1.0</speed>
<temp>0.00</temp>
<bpm>0</bpm>
<rpm>0.00</rpm>
</extensions>
</trkpt>
<trkpt lat="64.092407227" lon="-19.746374130">
<ele>231.089844</ele>
<time>2012-07-21T15:30:04Z</time>
<speed>1.690000</speed>
<extensions>
<speed>1.7</speed>
<temp>0.00</temp>
<bpm>0</bpm>
<rpm>0.00</rpm>
</extensions>
</trkpt>
<trkpt lat="64.092453003" lon="-19.746326447">
<ele>231.324219</ele>
<time>2012-07-21T15:30:09Z</time>
<speed>0.020000</speed>
<extensions>
<speed>0.0</speed>
<temp>0.00</temp>
<bpm>0</bpm>
<rpm>0.00</rpm>
</extensions>
</trkpt>
<trkpt lat="64.092468262" lon="-19.746299744">
<ele>231.238281</ele>
<time>2012-07-21T15:30:14Z</time>
<speed>1.830000</speed>
<extensions>
<speed>1.8</speed>
<temp>0.00</temp>
<bpm>0</bpm>
<rpm>0.00</rpm>
</extensions>
</trkpt>
<trkpt lat="64.092491150" lon="-19.746147156">
<ele>231.472656</ele>
<time>2012-07-21T15:30:19Z</time>
<speed>1.820000</speed>
<extensions>
<speed>1.8</speed>
<temp>0.00</temp>
<bpm>0</bpm>
<rpm>0.00</rpm>
</extensions>
</trkpt>
<trkpt lat="64.092498779" lon="-19.745998383">
<ele>231.527344</ele>
<time>2012-07-21T15:30:24Z</time>
<speed>1.420000</speed>
<extensions>
<speed>1.4</speed>
<temp>0.00</temp>
<bpm>0</bpm>
<rpm>0.00</rpm>
</extensions>
</trkpt>
<trkpt lat="64.092498779" lon="-19.745807648">
<ele>231.683594</ele>
<time>2012-07-21T15:30:29Z</time>
<speed>2.430000</speed>
<extensions>
<speed>2.4</speed>
<temp>0.00</temp>
<bpm>0</bpm>
<rpm>0.00</rpm>
</extensions>
</trkpt>
<trkpt lat="64.092491150" lon="-19.745504379">
<ele>231.515625</ele>
<time>2012-07-21T15:30:34Z</time>
<speed>2.870000</speed>
<extensions>
<speed>2.9</speed>
<temp>0.00</temp>
<bpm>0</bpm>
<rpm>0.00</rpm>
</extensions>
</trkpt>
<trkpt lat="64.092483521" lon="-19.745170593">
<ele>232.144531</ele>
<time>2012-07-21T15:30:39Z</time>
<speed>3.200000</speed>
<extensions>
<speed>3.2</speed>
<temp>0.00</temp>
<bpm>0</bpm>
<rpm>0.00</rpm>
</extensions>
</trkpt>
<trkpt lat="64.092468262" lon="-19.744810104">
<ele>232.500000</ele>
<time>2012-07-21T15:30:44Z</time>
<speed>3.490000</speed>
<extensions>
<speed>3.5</speed>
<temp>0.00</temp>
<bpm>0</bpm>
<rpm>0.00</rpm>
</extensions>
</trkpt>
<trkpt lat="64.092468262" lon="-19.744457245">
<ele>233.054688</ele>
<time>2012-07-21T15:30:49Z</time>
<speed>3.530000</speed>
<extensions>
<speed>3.5</speed>
<temp>0.00</temp>
<bpm>0</bpm>
<rpm>0.00</rpm>
</extensions>
</trkpt>
<trkpt lat="64.092460632" lon="-19.744108200">
<ele>233.738281</ele>
<time>2012-07-21T15:30:54Z</time>
<speed>3.450000</speed>
<extensions>
<speed>3.5</speed>
<temp>0.00</temp>
<bpm>0</bpm>
<rpm>0.00</rpm>
</extensions>
</trkpt>
<trkpt lat="64.092460632" lon="-19.743787766">
<ele>235.609375</ele>
<time>2012-07-21T15:30:59Z</time>
<speed>2.590000</speed>
<extensions>
<speed>2.6</speed>
<temp>0.00</temp>
<bpm>0</bpm>
<rpm>0.00</rpm>
</extensions>
</trkpt>
<trkpt lat="64.092460632" lon="-19.743558884">
<ele>236.234375</ele>
<time>2012-07-21T15:31:04Z</time>
<speed>2.020000</speed>
<extensions>
<speed>2.0</speed>
<temp>0.00</temp>
<bpm>0</bpm>
<rpm>0.00</rpm>
</extensions>
</trkpt>
<trkpt lat="64.092468262" lon="-19.743310928">
<ele>236.488281</ele>
<time>2012-07-21T15:31:09Z</time>
<speed>2.380000</speed>
<extensions>
<speed>2.4</speed>
<temp>0.00</temp>
<bpm>0</bpm>
<rpm>0.00</rpm>
</extensions>
</trkpt>
<trkpt lat="64.092468262" lon="-19.743059158">
<ele>236.539063</ele>
<time>2012-07-21T15:31:14Z</time>
<speed>2.760000</speed>
<extensions>
<speed>2.8</speed>
<temp>0.00</temp>
<bpm>0</bpm>
<rpm>0.00</rpm>
</extensions>
</trkpt>
<trkpt lat="64.092460632" lon="-19.742803574">
<ele>236.296875</ele>
<time>2012-07-21T15:31:19Z</time>
<speed>2.680000</speed>
<extensions>
<speed>2.7</speed>
<temp>0.00</temp>
<bpm>0</bpm>
<rpm>0.00</rpm>
</extensions>
</trkpt>
<trkpt lat="64.092453003" lon="-19.742513657">
<ele>235.976563</ele>
<time>2012-07-21T15:31:24Z</time>
<speed>2.880000</speed>
<extensions>
<speed>2.9</speed>
<temp>0.00</temp>
<bpm>0</bpm>
<rpm>0.00</rpm>
</extensions>
</trkpt>
<trkpt lat="64.092453003" lon="-19.742204666">
<ele>236.062500</ele>
<time>2012-07-21T15:31:29Z</time>
<speed>2.950000</speed>
<extensions>
<speed>2.9</speed>
<temp>0.00</temp>
<bpm>0</bpm>
<rpm>0.00</rpm>
</extensions>
</trkpt>
<trkpt lat="64.092460632" lon="-19.741893768">
<ele>236.140625</ele>
<time>2012-07-21T15:31:34Z</time>
<speed>3.080000</speed>
<extensions>
<speed>3.1</speed>
<temp>0.00</temp>
<bpm>0</bpm>
<rpm>0.00</rpm>
</extensions>
</trkpt>
<trkpt lat="64.092468262" lon="-19.741598129">
<ele>236.785156</ele>
<time>2012-07-21T15:31:39Z</time>
<speed>2.830000</speed>
<extensions>
<speed>2.8</speed>
<temp>0.00</temp>
<bpm>0</bpm>
<rpm>0.00</rpm>
</extensions>
</trkpt>
<trkpt lat="64.092468262" lon="-19.741289139">
<ele>236.414063</ele>
<time>2012-07-21T15:31:44Z</time>
<speed>3.000000</speed>
<extensions>
<speed>3.0</speed>
<temp>0.00</temp>
<bpm>0</bpm>
<rpm>0.00</rpm>
</extensions>
</trkpt>
<trkpt lat="64.092468262" lon="-19.740978241">
<ele>236.984375</ele>
<time>2012-07-21T15:31:49Z</time>
<speed>3.550000</speed>
<extensions>
<speed>3.5</speed>
<temp>0.00</temp>
<bpm>0</bpm>
<rpm>0.00</rpm>
</extensions>
</trkpt>
<trkpt lat="64.092430115" lon="-19.740667343">
<ele>236.972656</ele>
<time>2012-07-21T15:31:54Z</time>
<speed>3.030000</speed>
<extensions>
<speed>3.0</speed>
<temp>0.00</temp>
<bpm>0</bpm>
<rpm>0.00</rpm>
</extensions>
</trkpt>
<trkpt lat="64.092391968" lon="-19.740367889">
<ele>237.093750</ele>
<time>2012-07-21T15:31:59Z</time>
<speed>2.890000</speed>
<extensions>
<speed>2.9</speed>
<temp>0.00</temp>
<bpm>0</bpm>
<rpm>0.00</rpm>
</extensions>
</trkpt>
<trkpt lat="64.092353821" lon="-19.740072250">
<ele>237.070313</ele>
<time>2012-07-21T15:32:04Z</time>
<speed>3.010000</speed>
<extensions>
<speed>3.0</speed>
<temp>0.00</temp>
<bpm>0</bpm>
<rpm>0.00</rpm>
</extensions>
</trkpt>
<trkpt lat="64.092300415" lon="-19.739786148">
<ele>236.562500</ele>
<time>2012-07-21T15:32:09Z</time>
<speed>2.880000</speed>
<extensions>
<speed>2.9</speed>
<temp>0.00</temp>
<bpm>0</bpm>
<rpm>0.00</rpm>
</extensions>
</trkpt>
<trkpt lat="64.092254639" lon="-19.739507675">
<ele>236.214844</ele>
<time>2012-07-21T15:32:14Z</time>
<speed>3.060000</speed>
<extensions>
<speed>3.1</speed>
<temp>0.00</temp>
<bpm>0</bpm>
<rpm>0.00</rpm>
</extensions>
</trkpt>
<trkpt lat="64.092201233" lon="-19.739208221">
<ele>236.175781</ele>
<time>2012-07-21T15:32:19Z</time>
<speed>3.110000</speed>
<extensions>
<speed>3.1</speed>
<temp>0.00</temp>
<bpm>0</bpm>
<rpm>0.00</rpm>
</extensions>
</trkpt>
<trkpt lat="64.092140198" lon="-19.738908768">
<ele>236.496094</ele>
<time>2012-07-21T15:32:24Z</time>
<speed>3.520000</speed>
<extensions>
<speed>3.5</speed>
<temp>0.00</temp>
<bpm>0</bpm>
<rpm>0.00</rpm>
</extensions>
</trkpt>
<trkpt lat="64.092094421" lon="-19.738708496">
<ele>236.550781</ele>
<time>2012-07-21T15:32:29Z</time>
<speed>0.050000</speed>
<extensions>
<speed>0.1</speed>
<temp>0.00</temp>
<bpm>0</bpm>
<rpm>0.00</rpm>
</extensions>
</trkpt>
<trkpt lat="64.092079163" lon="-19.738637924">
<ele>236.296875</ele>
<time>2012-07-21T15:32:34Z</time>
<speed>2.090000</speed>
<extensions>
<speed>2.1</speed>
<temp>0.00</temp>
<bpm>0</bpm>
<rpm>0.00</rpm>
</extensions>
</trkpt>
<trkpt lat="64.092041016" lon="-19.738389969">
<ele>236.417969</ele>
<time>2012-07-21T15:32:39Z</time>
<speed>2.330000</speed>
<extensions>
<speed>2.3</speed>
<temp>0.00</temp>
<bpm>0</bpm>
<rpm>0.00</rpm>
</extensions>
</trkpt>
<trkpt lat="64.091995239" lon="-19.738149643">
<ele>236.503906</ele>
<time>2012-07-21T15:32:44Z</time>
<speed>2.750000</speed>
<extensions>
<speed>2.7</speed>
<temp>0.00</temp>
<bpm>0</bpm>
<rpm>0.00</rpm>
</extensions>
</trkpt>
<trkpt lat="64.091934204" lon="-19.737878799">
<ele>236.855469</ele>
<time>2012-07-21T15:32:49Z</time>
<speed>2.830000</speed>
<extensions>
<speed>2.8</speed>
<temp>0.00</temp>
<bpm>0</bpm>
<rpm>0.00</rpm>
</extensions>
</trkpt>
<trkpt lat="64.091880798" lon="-19.737607956">
<ele>237.347656</ele>
<time>2012-07-21T15:32:54Z</time>
<speed>2.890000</speed>
<extensions>
<speed>2.9</speed>
<temp>0.00</temp>
<bpm>0</bpm>
<rpm>0.00</rpm>
</extensions>
</trkpt>
<trkpt lat="64.091835022" lon="-19.737329483">
<ele>237.457031</ele>
<time>2012-07-21T15:32:59Z</time>
<speed>2.970000</speed>
<extensions>
<speed>3.0</speed>
<temp>0.00</temp>
<bpm>0</bpm>
<rpm>0.00</rpm>
</extensions>
</trkpt>
<trkpt lat="64.091781616" lon="-19.737033844">
<ele>237.621094</ele>
<time>2012-07-21T15:33:04Z</time>
<speed>3.090000</speed>
<extensions>
<speed>3.1</speed>
<temp>0.00</temp>
<bpm>0</bpm>
<rpm>0.00</rpm>
</extensions>
</trkpt>
<trkpt lat="64.091735840" lon="-19.736757278">
<ele>237.933594</ele>
<time>2012-07-21T15:33:09Z</time>
<speed>2.970000</speed>
<extensions>
<speed>3.0</speed>
<temp>0.00</temp>
<bpm>0</bpm>
<rpm>0.00</rpm>
</extensions>
</trkpt>
<trkpt lat="64.091682434" lon="-19.736473083">
<ele>238.277344</ele>
<time>2012-07-21T15:33:14Z</time>
<speed>3.030000</speed>
<extensions>
<speed>3.0</speed>
<temp>0.00</temp>
<bpm>0</bpm>
<rpm>0.00</rpm>
</extensions>
</trkpt>
<trkpt lat="64.091621399" lon="-19.736175537">
<ele>238.460938</ele>
<time>2012-07-21T15:33:19Z</time>
<speed>3.290000</speed>
<extensions>
<speed>3.3</speed>
<temp>0.00</temp>
<bpm>0</bpm>
<rpm>0.00</rpm>
</extensions>
</trkpt>
<trkpt lat="64.091567993" lon="-19.735872269">
<ele>238.574219</ele>
<time>2012-07-21T15:33:24Z</time>
<speed>3.170000</speed>
<extensions>
<speed>3.2</speed>
<temp>0.00</temp>
<bpm>0</bpm>
<rpm>0.00</rpm>
</extensions>
</trkpt>
<trkpt lat="64.091499329" lon="-19.735574722">
<ele>239.179688</ele>
<time>2012-07-21T15:33:29Z</time>
<speed>3.290000</speed>
<extensions>
<speed>3.3</speed>
<temp>0.00</temp>
<bpm>0</bpm>
<rpm>0.00</rpm>
</extensions>
</trkpt>
<trkpt lat="64.091438293" lon="-19.735292435">
<ele>239.398438</ele>
<time>2012-07-21T15:33:34Z</time>
<speed>2.910000</speed>
<extensions>
<speed>2.9</speed>
<temp>0.00</temp>
<bpm>0</bpm>
<rpm>0.00</rpm>
</extensions>
</trkpt>
<trkpt lat="64.091377258" lon="-19.735015869">
<ele>239.285156</ele>
<time>2012-07-21T15:33:39Z</time>
<speed>3.180000</speed>
<extensions>
<speed>3.2</speed>
<temp>0.00</temp>
<bpm>0</bpm>
<rpm>0.00</rpm>
</extensions>
</trkpt>
<trkpt lat="64.091323853" lon="-19.734733582">
<ele>239.296875</ele>
<time>2012-07-21T15:33:44Z</time>
<speed>2.440000</speed>
<extensions>
<speed>2.4</speed>
<temp>0.00</temp>
<bpm>0</bpm>
<rpm>0.00</rpm>
</extensions>
</trkpt>
<trkpt lat="64.091278076" lon="-19.734550476">
<ele>239.472656</ele>
<time>2012-07-21T15:33:49Z</time>
<speed>2.660000</speed>
<extensions>
<speed>2.7</speed>
<temp>0.00</temp>
<bpm>0</bpm>
<rpm>0.00</rpm>
</extensions>
</trkpt>
<trkpt lat="64.091209412" lon="-19.734287262">
<ele>239.292969</ele>
<time>2012-07-21T15:33:54Z</time>
<speed>2.910000</speed>
<extensions>
<speed>2.9</speed>
<temp>0.00</temp>
<bpm>0</bpm>
<rpm>0.00</rpm>
</extensions>
</trkpt>
<trkpt lat="64.091148376" lon="-19.734029770">
<ele>239.886719</ele>
<time>2012-07-21T15:33:59Z</time>
<speed>2.980000</speed>
<extensions>
<speed>3.0</speed>
<temp>0.00</temp>
<bpm>0</bpm>
<rpm>0.00</rpm>
</extensions>
</trkpt>
<trkpt lat="64.091079712" lon="-19.733757019">
<ele>240.128906</ele>
<time>2012-07-21T15:34:04Z</time>
<speed>3.220000</speed>
<extensions>
<speed>3.2</speed>
<temp>0.00</temp>
<bpm>0</bpm>
<rpm>0.00</rpm>
</extensions>
</trkpt>
<trkpt lat="64.091018677" lon="-19.733470917">
<ele>240.511719</ele>
<time>2012-07-21T15:34:09Z</time>
<speed>3.250000</speed>
<extensions>
<speed>3.2</speed>
<temp>0.00</temp>
<bpm>0</bpm>
<rpm>0.00</rpm>
</extensions>
</trkpt>
<trkpt lat="64.090950012" lon="-19.733175278">
<ele>240.527344</ele>
<time>2012-07-21T15:34:14Z</time>
<speed>3.150000</speed>
<extensions>
<speed>3.2</speed>
<temp>0.00</temp>
<bpm>0</bpm>
<rpm>0.00</rpm>
</extensions>
</trkpt>
<trkpt lat="64.090888977" lon="-19.732870102">
<ele>240.640625</ele>
<time>2012-07-21T15:34:19Z</time>
<speed>3.270000</speed>
<extensions>
<speed>3.3</speed>
<temp>0.00</temp>
<bpm>0</bpm>
<rpm>0.00</rpm>
</extensions>
</trkpt>
<trkpt lat="64.090820313" lon="-19.732568741">
<ele>240.707031</ele>
<time>2012-07-21T15:34:24Z</time>
<speed>3.100000</speed>
<extensions>
<speed>3.1</speed>
<temp>0.00</temp>
<bpm>0</bpm>
<rpm>0.00</rpm>
</extensions>
</trkpt>
<trkpt lat="64.090759277" lon="-19.732294083">
<ele>240.667969</ele>
<time>2012-07-21T15:34:29Z</time>
<speed>3.130000</speed>
<extensions>
<speed>3.1</speed>
<temp>0.00</temp>
<bpm>0</bpm>
<rpm>0.00</rpm>
</extensions>
</trkpt>
<trkpt lat="64.090690613" lon="-19.731998444">
<ele>240.781250</ele>
<time>2012-07-21T15:34:34Z</time>
<speed>3.130000</speed>
<extensions>
<speed>3.1</speed>
<temp>0.00</temp>
<bpm>0</bpm>
<rpm>0.00</rpm>
</extensions>
</trkpt>
<trkpt lat="64.090621948" lon="-19.731708527">
<ele>240.851563</ele>
<time>2012-07-21T15:34:39Z</time>
<speed>3.160000</speed>
<extensions>
<speed>3.2</speed>
<temp>0.00</temp>
<bpm>0</bpm>
<rpm>0.00</rpm>
</extensions>
</trkpt>
<trkpt lat="64.090553284" lon="-19.731441498">
<ele>240.722656</ele>
<time>2012-07-21T15:34:44Z</time>
<speed>3.170000</speed>
<extensions>
<speed>3.2</speed>
<temp>0.00</temp>
<bpm>0</bpm>
<rpm>0.00</rpm>
</extensions>
</trkpt>
<trkpt lat="64.090469360" lon="-19.731159210">
<ele>240.781250</ele>
<time>2012-07-21T15:34:49Z</time>
<speed>3.290000</speed>
<extensions>
<speed>3.3</speed>
<temp>0.00</temp>
<bpm>0</bpm>
<rpm>0.00</rpm>
</extensions>
</trkpt>
<trkpt lat="64.090385437" lon="-19.730857849">
<ele>240.867188</ele>
<time>2012-07-21T15:34:54Z</time>
<speed>3.520000</speed>
<extensions>
<speed>3.5</speed>
<temp>0.00</temp>
<bpm>0</bpm>
<rpm>0.00</rpm>
</extensions>
</trkpt>
<trkpt lat="64.090309143" lon="-19.730571747">
<ele>240.730469</ele>
<time>2012-07-21T15:34:59Z</time>
<speed>3.020000</speed>
<extensions>
<speed>3.0</speed>
<temp>0.00</temp>
<bpm>0</bpm>
<rpm>0.00</rpm>
</extensions>
</trkpt>
<trkpt lat="64.090225220" lon="-19.730306625">
<ele>240.558594</ele>
<time>2012-07-21T15:35:04Z</time>
<speed>3.350000</speed>
<extensions>
<speed>3.4</speed>
<temp>0.00</temp>
<bpm>0</bpm>
<rpm>0.00</rpm>
</extensions>
</trkpt>
<trkpt lat="64.090148926" lon="-19.730037689">
<ele>240.468750</ele>
<time>2012-07-21T15:35:09Z</time>
<speed>3.150000</speed>
<extensions>
<speed>3.2</speed>
<temp>0.00</temp>
<bpm>0</bpm>
<rpm>0.00</rpm>
</extensions>
</trkpt>
<trkpt lat="64.090057373" lon="-19.729757309">
<ele>240.445313</ele>
<time>2012-07-21T15:35:14Z</time>
<speed>3.580000</speed>
<extensions>
<speed>3.6</speed>
<temp>0.00</temp>
<bpm>0</bpm>
<rpm>0.00</rpm>
</extensions>
</trkpt>
<trkpt lat="64.089950562" lon="-19.729452133">
<ele>240.246094</ele>
<time>2012-07-21T15:35:19Z</time>
<speed>3.580000</speed>
<extensions>
<speed>3.6</speed>
<temp>0.00</temp>
<bpm>0</bpm>
<rpm>0.00</rpm>
</extensions>
</trkpt>
<trkpt lat="64.089859009" lon="-19.729169846">
<ele>239.851563</ele>
<time>2012-07-21T15:35:24Z</time>
<speed>3.710000</speed>
<extensions>
<speed>3.7</speed>
<temp>0.00</temp>
<bpm>0</bpm>
<rpm>0.00</rpm>
</extensions>
</trkpt>
<trkpt lat="64.089752197" lon="-19.728847504">
<ele>239.949219</ele>
<time>2012-07-21T15:35:29Z</time>
<speed>3.870000</speed>
<extensions>
<speed>3.9</speed>
<temp>0.00</temp>
<bpm>0</bpm>
<rpm>0.00</rpm>
</extensions>
</trkpt>
<trkpt lat="64.089668274" lon="-19.728527069">
<ele>239.753906</ele>
<time>2012-07-21T15:35:34Z</time>
<speed>3.960000</speed>
<extensions>
<speed>4.0</speed>
<temp>0.00</temp>
<bpm>0</bpm>
<rpm>0.00</rpm>
</extensions>
</trkpt>
<trkpt lat="64.089607239" lon="-19.728155136">
<ele>239.132813</ele>
<time>2012-07-21T15:35:39Z</time>
<speed>3.890000</speed>
<extensions>
<speed>3.9</speed>
<temp>0.00</temp>
<bpm>0</bpm>
<rpm>0.00</rpm>
</extensions>
</trkpt>
<trkpt lat="64.089569092" lon="-19.727722168">
<ele>237.972656</ele>
<time>2012-07-21T15:35:44Z</time>
<speed>4.790000</speed>
<extensions>
<speed>4.8</speed>
<temp>0.00</temp>
<bpm>0</bpm>
<rpm>0.00</rpm>
</extensions>
</trkpt>
<trkpt lat="64.089530945" lon="-19.727184296">
<ele>236.468750</ele>
<time>2012-07-21T15:35:49Z</time>
<speed>5.970000</speed>
<extensions>
<speed>6.0</speed>
<temp>0.00</temp>
<bpm>0</bpm>
<rpm>0.00</rpm>
</extensions>
</trkpt>
<trkpt lat="64.089408875" lon="-19.726541519">
<ele>234.417969</ele>
<time>2012-07-21T15:35:54Z</time>
<speed>6.950000</speed>
<extensions>
<speed>7.0</speed>
<temp>0.00</temp>
<bpm>0</bpm>
<rpm>0.00</rpm>
</extensions>
</trkpt>
<trkpt lat="64.089279175" lon="-19.725984573">
<ele>233.214844</ele>
<time>2012-07-21T15:35:59Z</time>
<speed>4.860000</speed>
<extensions>
<speed>4.9</speed>
<temp>0.00</temp>
<bpm>0</bpm>
<rpm>0.00</rpm>
</extensions>
</trkpt>
<trkpt lat="64.089195251" lon="-19.725599289">
<ele>233.550781</ele>
<time>2012-07-21T15:36:04Z</time>
<speed>3.890000</speed>
<extensions>
<speed>3.9</speed>
<temp>0.00</temp>
<bpm>0</bpm>
<rpm>0.00</rpm>
</extensions>
</trkpt>
<trkpt lat="64.089134216" lon="-19.725231171">
<ele>233.703125</ele>
<time>2012-07-21T15:36:09Z</time>
<speed>3.710000</speed>
<extensions>
<speed>3.7</speed>
<temp>0.00</temp>
<bpm>0</bpm>
<rpm>0.00</rpm>
</extensions>
</trkpt>
<trkpt lat="64.089080811" lon="-19.724891663">
<ele>233.925781</ele>
<time>2012-07-21T15:36:14Z</time>
<speed>3.350000</speed>
<extensions>
<speed>3.4</speed>
<temp>0.00</temp>
<bpm>0</bpm>
<rpm>0.00</rpm>
</extensions>
</trkpt>
<trkpt lat="64.089035034" lon="-19.724582672">
<ele>234.027344</ele>
<time>2012-07-21T15:36:19Z</time>
<speed>3.070000</speed>
<extensions>
<speed>3.1</speed>
<temp>0.00</temp>
<bpm>0</bpm>
<rpm>0.00</rpm>
</extensions>
</trkpt>
<trkpt lat="64.088989258" lon="-19.724308014">
<ele>234.167969</ele>
<time>2012-07-21T15:36:24Z</time>
<speed>2.230000</speed>
<extensions>
<speed>2.2</speed>
<temp>0.00</temp>
<bpm>0</bpm>
<rpm>0.00</rpm>
</extensions>
</trkpt>
<trkpt lat="64.088958740" lon="-19.724075317">
<ele>234.683594</ele>
<time>2012-07-21T15:36:29Z</time>
<speed>2.790000</speed>
<extensions>
<speed>2.8</speed>
<temp>0.00</temp>
<bpm>0</bpm>
<rpm>0.00</rpm>
</extensions>
</trkpt>
<trkpt lat="64.088920593" lon="-19.723814011">
<ele>235.496094</ele>
<time>2012-07-21T15:36:34Z</time>
<speed>2.830000</speed>
<extensions>
<speed>2.8</speed>
<temp>0.00</temp>
<bpm>0</bpm>
<rpm>0.00</rpm>
</extensions>
</trkpt>
<trkpt lat="64.088882446" lon="-19.723537445">
<ele>235.750000</ele>
<time>2012-07-21T15:36:39Z</time>
<speed>2.960000</speed>
<extensions>
<speed>3.0</speed>
<temp>0.00</temp>
<bpm>0</bpm>
<rpm>0.00</rpm>
</extensions>
</trkpt>
<trkpt lat="64.088844299" lon="-19.723237991">
<ele>234.792969</ele>
<time>2012-07-21T15:36:44Z</time>
<speed>3.080000</speed>
<extensions>
<speed>3.1</speed>
<temp>0.00</temp>
<bpm>0</bpm>
<rpm>0.00</rpm>
</extensions>
</trkpt>
<trkpt lat="64.088806152" lon="-19.722946167">
<ele>235.308594</ele>
<time>2012-07-21T15:36:49Z</time>
<speed>2.780000</speed>
<extensions>
<speed>2.8</speed>
<temp>0.00</temp>
<bpm>0</bpm>
<rpm>0.00</rpm>
</extensions>
</trkpt>
<trkpt lat="64.088775635" lon="-19.722675323">
<ele>235.632813</ele>
<time>2012-07-21T15:36:54Z</time>
<speed>2.960000</speed>
<extensions>
<speed>3.0</speed>
<temp>0.00</temp>
<bpm>0</bpm>
<rpm>0.00</rpm>
</extensions>
</trkpt>
<trkpt lat="64.088745117" lon="-19.722396851">
<ele>236.003906</ele>
<time>2012-07-21T15:36:59Z</time>
<speed>2.190000</speed>
<extensions>
<speed>2.2</speed>
<temp>0.00</temp>
<bpm>0</bpm>
<rpm>0.00</rpm>
</extensions>
</trkpt>
<trkpt lat="64.088729858" lon="-19.722225189">
<ele>236.667969</ele>
<time>2012-07-21T15:37:04Z</time>
<speed>2.070000</speed>
<extensions>
<speed>2.1</speed>
<temp>0.00</temp>
<bpm>0</bpm>
<rpm>0.00</rpm>
</extensions>
</trkpt>
<trkpt lat="64.088706970" lon="-19.722013474">
<ele>236.695313</ele>
<time>2012-07-21T15:37:09Z</time>
<speed>2.010000</speed>
<extensions>
<speed>2.0</speed>
<temp>0.00</temp>
<bpm>0</bpm>
<rpm>0.00</rpm>
</extensions>
</trkpt>
<trkpt lat="64.088684082" lon="-19.721815109">
<ele>237.339844</ele>
<time>2012-07-21T15:37:14Z</time>
<speed>1.960000</speed>
<extensions>
<speed>2.0</speed>
<temp>0.00</temp>
<bpm>0</bpm>
<rpm>0.00</rpm>
</extensions>
</trkpt>
<trkpt lat="64.088668823" lon="-19.721622467">
<ele>237.445313</ele>
<time>2012-07-21T15:37:19Z</time>
<speed>1.780000</speed>
<extensions>
<speed>1.8</speed>
<temp>0.00</temp>
<bpm>0</bpm>
<rpm>0.00</rpm>
</extensions>
</trkpt>
<trkpt lat="64.088661194" lon="-19.721454620">
<ele>237.398438</ele>
<time>2012-07-21T15:37:24Z</time>
<speed>1.690000</speed>
<extensions>
<speed>1.7</speed>
<temp>0.00</temp>
<bpm>0</bpm>
<rpm>0.00</rpm>
</extensions>
</trkpt>
<trkpt lat="64.088638306" lon="-19.721260071">
<ele>238.300781</ele>
<time>2012-07-21T15:37:29Z</time>
<speed>1.910000</speed>
<extensions>
<speed>1.9</speed>
<temp>0.00</temp>
<bpm>0</bpm>
<rpm>0.00</rpm>
</extensions>
</trkpt>
<trkpt lat="64.088615417" lon="-19.721063614">
<ele>238.519531</ele>
<time>2012-07-21T15:37:34Z</time>
<speed>2.160000</speed>
<extensions>
<speed>2.2</speed>
<temp>0.00</temp>
<bpm>0</bpm>
<rpm>0.00</rpm>
</extensions>
</trkpt>
<trkpt lat="64.088600159" lon="-19.720895767">
<ele>238.472656</ele>
<time>2012-07-21T15:37:39Z</time>
<speed>0.060000</speed>
<extensions>
<speed>0.1</speed>
<temp>0.00</temp>
<bpm>0</bpm>
<rpm>0.00</rpm>
</extensions>
</trkpt>
<trkpt lat="64.088600159" lon="-19.720905304">
<ele>238.746094</ele>
<time>2012-07-21T15:37:44Z</time>
<speed>0.010000</speed>
<extensions>
<speed>0.0</speed>
<temp>0.00</temp>
<bpm>0</bpm>
<rpm>0.00</rpm>
</extensions>
</trkpt>
<trkpt lat="64.088600159" lon="-19.720907211">
<ele>238.816406</ele>
<time>2012-07-21T15:37:49Z</time>
<extensions>
<speed>0.0</speed>
<temp>0.00</temp>
<bpm>0</bpm>
<rpm>0.00</rpm>
</extensions>
</trkpt>
<trkpt lat="64.088600159" lon="-19.720907211">
<ele>238.808594</ele>
<time>2012-07-21T15:37:54Z</time>
<speed>0.060000</speed>
<extensions>
<speed>0.1</speed>
<temp>0.00</temp>
<bpm>0</bpm>
<rpm>0.00</rpm>
</extensions>
</trkpt>
<trkpt lat="64.088600159" lon="-19.720907211">
<ele>238.835938</ele>
<time>2012-07-21T15:37:59Z</time>
<speed>0.670000</speed>
<extensions>
<speed>0.7</speed>
<temp>0.00</temp>
<bpm>0</bpm>
<rpm>0.00</rpm>
</extensions>
</trkpt>
<trkpt lat="64.088584900" lon="-19.720745087">
<ele>238.667969</ele>
<time>2012-07-21T15:38:04Z</time>
<speed>2.290000</speed>
<extensions>
<speed>2.3</speed>
<temp>0.00</temp>
<bpm>0</bpm>
<rpm>0.00</rpm>
</extensions>
</trkpt>
<trkpt lat="64.088562012" lon="-19.720476151">
<ele>239.066406</ele>
<time>2012-07-21T15:38:09Z</time>
<speed>2.920000</speed>
<extensions>
<speed>2.9</speed>
<temp>0.00</temp>
<bpm>0</bpm>
<rpm>0.00</rpm>
</extensions>
</trkpt>
<trkpt lat="64.088531494" lon="-19.720172882">
<ele>239.203125</ele>
<time>2012-07-21T15:38:14Z</time>
<speed>2.990000</speed>
<extensions>
<speed>3.0</speed>
<temp>0.00</temp>
<bpm>0</bpm>
<rpm>0.00</rpm>
</extensions>
</trkpt>
<trkpt lat="64.088508606" lon="-19.719865799">
<ele>239.355469</ele>
<time>2012-07-21T15:38:19Z</time>
<speed>3.350000</speed>
<extensions>
<speed>3.4</speed>
<temp>0.00</temp>
<bpm>0</bpm>
<rpm>0.00</rpm>
</extensions>
</trkpt>
<trkpt lat="64.088478088" lon="-19.719539642">
<ele>239.843750</ele>
<time>2012-07-21T15:38:24Z</time>
<speed>3.270000</speed>
<extensions>
<speed>3.3</speed>
<temp>0.00</temp>
<bpm>0</bpm>
<rpm>0.00</rpm>
</extensions>
</trkpt>
<trkpt lat="64.088439941" lon="-19.719202042">
<ele>240.246094</ele>
<time>2012-07-21T15:38:29Z</time>
<speed>3.310000</speed>
<extensions>
<speed>3.3</speed>
<temp>0.00</temp>
<bpm>0</bpm>
<rpm>0.00</rpm>
</extensions>
</trkpt>
<trkpt lat="64.088417053" lon="-19.718891144">
<ele>240.746094</ele>
<time>2012-07-21T15:38:34Z</time>
<speed>2.510000</speed>
<extensions>
<speed>2.5</speed>
<temp>0.00</temp>
<bpm>0</bpm>
<rpm>0.00</rpm>
</extensions>
</trkpt>
<trkpt lat="64.088394165" lon="-19.718616486">
<ele>241.261719</ele>
<time>2012-07-21T15:38:39Z</time>
<speed>3.150000</speed>
<extensions>
<speed>3.2</speed>
<temp>0.00</temp>
<bpm>0</bpm>
<rpm>0.00</rpm>
</extensions>
</trkpt>
<trkpt lat="64.088356018" lon="-19.718294144">
<ele>241.976563</ele>
<time>2012-07-21T15:38:44Z</time>
<speed>3.190000</speed>
<extensions>
<speed>3.2</speed>
<temp>0.00</temp>
<bpm>0</bpm>
<rpm>0.00</rpm>
</extensions>
</trkpt>
<trkpt lat="64.088325500" lon="-19.717952728">
<ele>242.375000</ele>
<time>2012-07-21T15:38:49Z</time>
<speed>3.490000</speed>
<extensions>
<speed>3.5</speed>
<temp>0.00</temp>
<bpm>0</bpm>
<rpm>0.00</rpm>
</extensions>
</trkpt>
<trkpt lat="64.088302612" lon="-19.717618942">
<ele>242.613281</ele>
<time>2012-07-21T15:38:54Z</time>
<speed>3.280000</speed>
<extensions>
<speed>3.3</speed>
<temp>0.00</temp>
<bpm>0</bpm>
<rpm>0.00</rpm>
</extensions>
</trkpt>
<trkpt lat="64.088264465" lon="-19.717298508">
<ele>243.570313</ele>
<time>2012-07-21T15:38:59Z</time>
<speed>3.160000</speed>
<extensions>
<speed>3.2</speed>
<temp>0.00</temp>
<bpm>0</bpm>
<rpm>0.00</rpm>
</extensions>
</trkpt>
<trkpt lat="64.088233948" lon="-19.716978073">
<ele>244.027344</ele>
<time>2012-07-21T15:39:04Z</time>
<speed>3.170000</speed>
<extensions>
<speed>3.2</speed>
<temp>0.00</temp>
<bpm>0</bpm>
<rpm>0.00</rpm>
</extensions>
</trkpt>
<trkpt lat="64.088203430" lon="-19.716646194">
<ele>244.296875</ele>
<time>2012-07-21T15:39:09Z</time>
<speed>3.340000</speed>
<extensions>
<speed>3.3</speed>
<temp>0.00</temp>
<bpm>0</bpm>
<rpm>0.00</rpm>
</extensions>
</trkpt>
<trkpt lat="64.088180542" lon="-19.716352463">
<ele>244.785156</ele>
<time>2012-07-21T15:39:14Z</time>
<speed>2.210000</speed>
<extensions>
<speed>2.2</speed>
<temp>0.00</temp>
<bpm>0</bpm>
<rpm>0.00</rpm>
</extensions>
</trkpt>
<trkpt lat="64.088150024" lon="-19.716096878">
<ele>245.351563</ele>
<time>2012-07-21T15:39:19Z</time>
<speed>2.850000</speed>
<extensions>
<speed>2.9</speed>
<temp>0.00</temp>
<bpm>0</bpm>
<rpm>0.00</rpm>
</extensions>
</trkpt>
<trkpt lat="64.088119507" lon="-19.715805054">
<ele>246.289063</ele>
<time>2012-07-21T15:39:24Z</time>
<speed>3.080000</speed>
<extensions>
<speed>3.1</speed>
<temp>0.00</temp>
<bpm>0</bpm>
<rpm>0.00</rpm>
</extensions>
</trkpt>
<trkpt lat="64.088088989" lon="-19.715478897">
<ele>246.761719</ele>
<time>2012-07-21T15:39:29Z</time>
<speed>3.090000</speed>
<extensions>
<speed>3.1</speed>
<temp>0.00</temp>
<bpm>0</bpm>
<rpm>0.00</rpm>
</extensions>
</trkpt>
<trkpt lat="64.088066101" lon="-19.715181351">
<ele>246.703125</ele>
<time>2012-07-21T15:39:34Z</time>
<speed>2.650000</speed>
<extensions>
<speed>2.6</speed>
<temp>0.00</temp>
<bpm>0</bpm>
<rpm>0.00</rpm>
</extensions>
</trkpt>
<trkpt lat="64.088050842" lon="-19.714914322">
<ele>246.695313</ele>
<time>2012-07-21T15:39:39Z</time>
<speed>3.170000</speed>
<extensions>
<speed>3.2</speed>
<temp>0.00</temp>
<bpm>0</bpm>
<rpm>0.00</rpm>
</extensions>
</trkpt>
<trkpt lat="64.088020325" lon="-19.714591980">
<ele>246.937500</ele>
<time>2012-07-21T15:39:44Z</time>
<speed>3.130000</speed>
<extensions>
<speed>3.1</speed>
<temp>0.00</temp>
<bpm>0</bpm>
<rpm>0.00</rpm>
</extensions>
</trkpt>
<trkpt lat="64.087989807" lon="-19.714273453">
<ele>247.339844</ele>
<time>2012-07-21T15:39:49Z</time>
<speed>3.190000</speed>
<extensions>
<speed>3.2</speed>
<temp>0.00</temp>
<bpm>0</bpm>
<rpm>0.00</rpm>
</extensions>
</trkpt>
<trkpt lat="64.087959290" lon="-19.713945389">
<ele>247.648438</ele>
<time>2012-07-21T15:39:54Z</time>
<speed>3.190000</speed>
<extensions>
<speed>3.2</speed>
<temp>0.00</temp>
<bpm>0</bpm>
<rpm>0.00</rpm>
</extensions>
</trkpt>
<trkpt lat="64.087921143" lon="-19.713619232">
<ele>248.097656</ele>
<time>2012-07-21T15:39:59Z</time>
<speed>3.290000</speed>
<extensions>
<speed>3.3</speed>
<temp>0.00</temp>
<bpm>0</bpm>
<rpm>0.00</rpm>
</extensions>
</trkpt>
<trkpt lat="64.087890625" lon="-19.713294983">
<ele>248.187500</ele>
<time>2012-07-21T15:40:04Z</time>
<speed>2.900000</speed>
<extensions>
<speed>2.9</speed>
<temp>0.00</temp>
<bpm>0</bpm>
<rpm>0.00</rpm>
</extensions>
</trkpt>
<trkpt lat="64.087860107" lon="-19.713014603">
<ele>247.800781</ele>
<time>2012-07-21T15:40:09Z</time>
<speed>3.190000</speed>
<extensions>
<speed>3.2</speed>
<temp>0.00</temp>
<bpm>0</bpm>
<rpm>0.00</rpm>
</extensions>
</trkpt>
<trkpt lat="64.087837219" lon="-19.712717056">
<ele>247.617188</ele>
<time>2012-07-21T15:40:14Z</time>
<speed>3.060000</speed>
<extensions>
<speed>3.1</speed>
<temp>0.00</temp>
<bpm>0</bpm>
<rpm>0.00</rpm>
</extensions>
</trkpt>
<trkpt lat="64.087806702" lon="-19.712440491">
<ele>247.882813</ele>
<time>2012-07-21T15:40:19Z</time>
<speed>2.070000</speed>
<extensions>
<speed>2.1</speed>
<temp>0.00</temp>
<bpm>0</bpm>
<rpm>0.00</rpm>
</extensions>
</trkpt>
<trkpt lat="64.087791443" lon="-19.712276459">
<ele>247.707031</ele>
<time>2012-07-21T15:40:24Z</time>
<speed>2.230000</speed>
<extensions>
<speed>2.2</speed>
<temp>0.00</temp>
<bpm>0</bpm>
<rpm>0.00</rpm>
</extensions>
</trkpt>
<trkpt lat="64.087768555" lon="-19.712005615">
<ele>248.019531</ele>
<time>2012-07-21T15:40:29Z</time>
<speed>2.900000</speed>
<extensions>
<speed>2.9</speed>
<temp>0.00</temp>
<bpm>0</bpm>
<rpm>0.00</rpm>
</extensions>
</trkpt>
<trkpt lat="64.087745667" lon="-19.711704254">
<ele>248.027344</ele>
<time>2012-07-21T15:40:34Z</time>
<speed>3.120000</speed>
<extensions>
<speed>3.1</speed>
<temp>0.00</temp>
<bpm>0</bpm>
<rpm>0.00</rpm>
</extensions>
</trkpt>
<trkpt lat="64.087715149" lon="-19.711378098">
<ele>248.125000</ele>
<time>2012-07-21T15:40:39Z</time>
<speed>3.260000</speed>
<extensions>
<speed>3.3</speed>
<temp>0.00</temp>
<bpm>0</bpm>
<rpm>0.00</rpm>
</extensions>
</trkpt>
<trkpt lat="64.087692261" lon="-19.711093903">
<ele>247.972656</ele>
<time>2012-07-21T15:40:44Z</time>
<speed>2.050000</speed>
<extensions>
<speed>2.1</speed>
<temp>0.00</temp>
<bpm>0</bpm>
<rpm>0.00</rpm>
</extensions>
</trkpt>
<trkpt lat="64.087677002" lon="-19.710897446">
<ele>247.925781</ele>
<time>2012-07-21T15:40:49Z</time>
<speed>2.580000</speed>
<extensions>
<speed>2.6</speed>
<temp>0.00</temp>
<bpm>0</bpm>
<rpm>0.00</rpm>
</extensions>
</trkpt>
<trkpt lat="64.087654114" lon="-19.710599899">
<ele>247.878906</ele>
<time>2012-07-21T15:40:54Z</time>
<speed>3.150000</speed>
<extensions>
<speed>3.2</speed>
<temp>0.00</temp>
<bpm>0</bpm>
<rpm>0.00</rpm>
</extensions>
</trkpt>
<trkpt lat="64.087631226" lon="-19.710273743">
<ele>247.550781</ele>
<time>2012-07-21T15:40:59Z</time>
<speed>3.220000</speed>
<extensions>
<speed>3.2</speed>
<temp>0.00</temp>
<bpm>0</bpm>
<rpm>0.00</rpm>
</extensions>
</trkpt>
<trkpt lat="64.087608337" lon="-19.709932327">
<ele>247.367188</ele>
<time>2012-07-21T15:41:04Z</time>
<speed>3.620000</speed>
<extensions>
<speed>3.6</speed>
<temp>0.00</temp>
<bpm>0</bpm>
<rpm>0.00</rpm>
</extensions>
</trkpt>
<trkpt lat="64.087593079" lon="-19.709571838">
<ele>247.441406</ele>
<time>2012-07-21T15:41:09Z</time>
<speed>3.420000</speed>
<extensions>
<speed>3.4</speed>
<temp>0.00</temp>
<bpm>0</bpm>
<rpm>0.00</rpm>
</extensions>
</trkpt>
<trkpt lat="64.087570190" lon="-19.709287643">
<ele>246.972656</ele>
<time>2012-07-21T15:41:14Z</time>
<speed>2.910000</speed>
<extensions>
<speed>2.9</speed>
<temp>0.00</temp>
<bpm>0</bpm>
<rpm>0.00</rpm>
</extensions>
</trkpt>
<trkpt lat="64.087554932" lon="-19.708934784">
<ele>246.582031</ele>
<time>2012-07-21T15:41:19Z</time>
<speed>3.700000</speed>
<extensions>
<speed>3.7</speed>
<temp>0.00</temp>
<bpm>0</bpm>
<rpm>0.00</rpm>
</extensions>
</trkpt>
<trkpt lat="64.087539673" lon="-19.708564758">
<ele>246.242188</ele>
<time>2012-07-21T15:41:24Z</time>
<speed>3.830000</speed>
<extensions>
<speed>3.8</speed>
<temp>0.00</temp>
<bpm>0</bpm>
<rpm>0.00</rpm>
</extensions>
</trkpt>
<trkpt lat="64.087516785" lon="-19.708171844">
<ele>245.722656</ele>
<time>2012-07-21T15:41:29Z</time>
<speed>3.920000</speed>
<extensions>
<speed>3.9</speed>
<temp>0.00</temp>
<bpm>0</bpm>
<rpm>0.00</rpm>
</extensions>
</trkpt>
<trkpt lat="64.087486267" lon="-19.707748413">
<ele>245.285156</ele>
<time>2012-07-21T15:41:34Z</time>
<speed>3.990000</speed>
<extensions>
<speed>4.0</speed>
<temp>0.00</temp>
<bpm>0</bpm>
<rpm>0.00</rpm>
</extensions>
</trkpt>
<trkpt lat="64.087463379" lon="-19.707359314">
<ele>245.601563</ele>
<time>2012-07-21T15:41:39Z</time>
<speed>3.410000</speed>
<extensions>
<speed>3.4</speed>
<temp>0.00</temp>
<bpm>0</bpm>
<rpm>0.00</rpm>
</extensions>
</trkpt>
<trkpt lat="64.087440491" lon="-19.707099915">
<ele>244.929688</ele>
<time>2012-07-21T15:41:44Z</time>
<speed>1.950000</speed>
<extensions>
<speed>1.9</speed>
<temp>0.00</temp>
<bpm>0</bpm>
<rpm>0.00</rpm>
</extensions>
</trkpt>
<trkpt lat="64.087425232" lon="-19.706916809">
<ele>245.199219</ele>
<time>2012-07-21T15:41:49Z</time>
<speed>2.010000</speed>
<extensions>
<speed>2.0</speed>
<temp>0.00</temp>
<bpm>0</bpm>
<rpm>0.00</rpm>
</extensions>
</trkpt>
<trkpt lat="64.087402344" lon="-19.706783295">
<ele>244.960938</ele>
<time>2012-07-21T15:41:54Z</time>
<speed>1.470000</speed>
<extensions>
<speed>1.5</speed>
<temp>0.00</temp>
<bpm>0</bpm>
<rpm>0.00</rpm>
</extensions>
</trkpt>
<trkpt lat="64.087402344" lon="-19.706609726">
<ele>244.929688</ele>
<time>2012-07-21T15:41:59Z</time>
<speed>1.980000</speed>
<extensions>
<speed>2.0</speed>
<temp>0.00</temp>
<bpm>0</bpm>
<rpm>0.00</rpm>
</extensions>
</trkpt>
<trkpt lat="64.087394714" lon="-19.706420898">
<ele>244.714844</ele>
<time>2012-07-21T15:42:04Z</time>
<speed>2.000000</speed>
<extensions>
<speed>2.0</speed>
<temp>0.00</temp>
<bpm>0</bpm>
<rpm>0.00</rpm>
</extensions>
</trkpt>
<trkpt lat="64.087394714" lon="-19.706201553">
<ele>245.109375</ele>
<time>2012-07-21T15:42:09Z</time>
<speed>2.230000</speed>
<extensions>
<speed>2.2</speed>
<temp>0.00</temp>
<bpm>0</bpm>
<rpm>0.00</rpm>
</extensions>
</trkpt>
<trkpt lat="64.087387085" lon="-19.705991745">
<ele>245.906250</ele>
<time>2012-07-21T15:42:14Z</time>
<speed>2.050000</speed>
<extensions>
<speed>2.1</speed>
<temp>0.00</temp>
<bpm>0</bpm>
<rpm>0.00</rpm>
</extensions>
</trkpt>
<trkpt lat="64.087379456" lon="-19.705776215">
<ele>246.910156</ele>
<time>2012-07-21T15:42:19Z</time>
<speed>2.170000</speed>
<extensions>
<speed>2.2</speed>
<temp>0.00</temp>
<bpm>0</bpm>
<rpm>0.00</rpm>
</extensions>
</trkpt>
<trkpt lat="64.087379456" lon="-19.705537796">
<ele>247.195313</ele>
<time>2012-07-21T15:42:24Z</time>
<speed>2.280000</speed>
<extensions>
<speed>2.3</speed>
<temp>0.00</temp>
<bpm>0</bpm>
<rpm>0.00</rpm>
</extensions>
</trkpt>
<trkpt lat="64.087371826" lon="-19.705272675">
<ele>247.480469</ele>
<time>2012-07-21T15:42:29Z</time>
<speed>2.650000</speed>
<extensions>
<speed>2.6</speed>
<temp>0.00</temp>
<bpm>0</bpm>
<rpm>0.00</rpm>
</extensions>
</trkpt>
<trkpt lat="64.087371826" lon="-19.704996109">
<ele>247.531250</ele>
<time>2012-07-21T15:42:34Z</time>
<speed>2.710000</speed>
<extensions>
<speed>2.7</speed>
<temp>0.00</temp>
<bpm>0</bpm>
<rpm>0.00</rpm>
</extensions>
</trkpt>
<trkpt lat="64.087371826" lon="-19.704727173">
<ele>247.812500</ele>
<time>2012-07-21T15:42:39Z</time>
<speed>2.660000</speed>
<extensions>
<speed>2.7</speed>
<temp>0.00</temp>
<bpm>0</bpm>
<rpm>0.00</rpm>
</extensions>
</trkpt>
<trkpt lat="64.087364197" lon="-19.704458237">
<ele>247.613281</ele>
<time>2012-07-21T15:42:44Z</time>
<speed>2.730000</speed>
<extensions>
<speed>2.7</speed>
<temp>0.00</temp>
<bpm>0</bpm>
<rpm>0.00</rpm>
</extensions>
</trkpt>
<trkpt lat="64.087371826" lon="-19.704229355">
<ele>248.191406</ele>
<time>2012-07-21T15:42:49Z</time>
<speed>1.740000</speed>
<extensions>
<speed>1.7</speed>
<temp>0.00</temp>
<bpm>0</bpm>
<rpm>0.00</rpm>
</extensions>
</trkpt>
<trkpt lat="64.087364197" lon="-19.703983307">
<ele>248.265625</ele>
<time>2012-07-21T15:42:54Z</time>
<speed>2.580000</speed>
<extensions>
<speed>2.6</speed>
<temp>0.00</temp>
<bpm>0</bpm>
<rpm>0.00</rpm>
</extensions>
</trkpt>
<trkpt lat="64.087371826" lon="-19.703710556">
<ele>247.843750</ele>
<time>2012-07-21T15:42:59Z</time>
<speed>3.020000</speed>
<extensions>
<speed>3.0</speed>
<temp>0.00</temp>
<bpm>0</bpm>
<rpm>0.00</rpm>
</extensions>
</trkpt>
<trkpt lat="64.087379456" lon="-19.703395844">
<ele>248.234375</ele>
<time>2012-07-21T15:43:04Z</time>
<speed>3.170000</speed>
<extensions>
<speed>3.2</speed>
<temp>0.00</temp>
<bpm>0</bpm>
<rpm>0.00</rpm>
</extensions>
</trkpt>
<trkpt lat="64.087394714" lon="-19.703071594">
<ele>247.933594</ele>
<time>2012-07-21T15:43:09Z</time>
<speed>2.710000</speed>
<extensions>
<speed>2.7</speed>
<temp>0.00</temp>
<bpm>0</bpm>
<rpm>0.00</rpm>
</extensions>
</trkpt>
<trkpt lat="64.087402344" lon="-19.702810287">
<ele>247.761719</ele>
<time>2012-07-21T15:43:14Z</time>
<speed>2.570000</speed>
<extensions>
<speed>2.6</speed>
<temp>0.00</temp>
<bpm>0</bpm>
<rpm>0.00</rpm>
</extensions>
</trkpt>
<trkpt lat="64.087402344" lon="-19.702575684">
<ele>248.050781</ele>
<time>2012-07-21T15:43:19Z</time>
<speed>2.080000</speed>
<extensions>
<speed>2.1</speed>
<temp>0.00</temp>
<bpm>0</bpm>
<rpm>0.00</rpm>
</extensions>
</trkpt>
<trkpt lat="64.087387085" lon="-19.702358246">
<ele>248.296875</ele>
<time>2012-07-21T15:43:24Z</time>
<speed>2.100000</speed>
<extensions>
<speed>2.1</speed>
<temp>0.00</temp>
<bpm>0</bpm>
<rpm>0.00</rpm>
</extensions>
</trkpt>
<trkpt lat="64.087409973" lon="-19.702169418">
<ele>248.550781</ele>
<time>2012-07-21T15:43:29Z</time>
<speed>1.920000</speed>
<extensions>
<speed>1.9</speed>
<temp>0.00</temp>
<bpm>0</bpm>
<rpm>0.00</rpm>
</extensions>
</trkpt>
<trkpt lat="64.087417603" lon="-19.701986313">
<ele>248.425781</ele>
<time>2012-07-21T15:43:34Z</time>
<speed>1.830000</speed>
<extensions>
<speed>1.8</speed>
<temp>0.00</temp>
<bpm>0</bpm>
<rpm>0.00</rpm>
</extensions>
</trkpt>
<trkpt lat="64.087448120" lon="-19.701807022">
<ele>247.933594</ele>
<time>2012-07-21T15:43:39Z</time>
<speed>2.020000</speed>
<extensions>
<speed>2.0</speed>
<temp>0.00</temp>
<bpm>0</bpm>
<rpm>0.00</rpm>
</extensions>
</trkpt>
<trkpt lat="64.087463379" lon="-19.701595306">
<ele>246.835938</ele>
<time>2012-07-21T15:43:44Z</time>
<speed>2.400000</speed>
<extensions>
<speed>2.4</speed>
<temp>0.00</temp>
<bpm>0</bpm>
<rpm>0.00</rpm>
</extensions>
</trkpt>
<trkpt lat="64.087463379" lon="-19.701360703">
<ele>246.800781</ele>
<time>2012-07-21T15:43:49Z</time>
<speed>2.070000</speed>
<extensions>
<speed>2.1</speed>
<temp>0.00</temp>
<bpm>0</bpm>
<rpm>0.00</rpm>
</extensions>
</trkpt>
<trkpt lat="64.087493896" lon="-19.701156616">
<ele>244.617188</ele>
<time>2012-07-21T15:43:54Z</time>
<speed>2.430000</speed>
<extensions>
<speed>2.4</speed>
<temp>0.00</temp>
<bpm>0</bpm>
<rpm>0.00</rpm>
</extensions>
</trkpt>
<trkpt lat="64.087501526" lon="-19.700893402">
<ele>245.945313</ele>
<time>2012-07-21T15:43:59Z</time>
<speed>2.530000</speed>
<extensions>
<speed>2.5</speed>
<temp>0.00</temp>
<bpm>0</bpm>
<rpm>0.00</rpm>
</extensions>
</trkpt>
<trkpt lat="64.087501526" lon="-19.700618744">
<ele>246.007813</ele>
<time>2012-07-21T15:44:04Z</time>
<speed>2.490000</speed>
<extensions>
<speed>2.5</speed>
<temp>0.00</temp>
<bpm>0</bpm>
<rpm>0.00</rpm>
</extensions>
</trkpt>
<trkpt lat="64.087501526" lon="-19.700340271">
<ele>244.890625</ele>
<time>2012-07-21T15:44:09Z</time>
<speed>2.760000</speed>
<extensions>
<speed>2.8</speed>
<temp>0.00</temp>
<bpm>0</bpm>
<rpm>0.00</rpm>
</extensions>
</trkpt>
<trkpt lat="64.087501526" lon="-19.700057983">
<ele>245.660156</ele>
<time>2012-07-21T15:44:14Z</time>
<speed>1.990000</speed>
<extensions>
<speed>2.0</speed>
<temp>0.00</temp>
<bpm>0</bpm>
<rpm>0.00</rpm>
</extensions>
</trkpt>
<trkpt lat="64.087501526" lon="-19.699798584">
<ele>246.351563</ele>
<time>2012-07-21T15:44:19Z</time>
<speed>2.680000</speed>
<extensions>
<speed>2.7</speed>
<temp>0.00</temp>
<bpm>0</bpm>
<rpm>0.00</rpm>
</extensions>
</trkpt>
<trkpt lat="64.087486267" lon="-19.699506760">
<ele>246.554688</ele>
<time>2012-07-21T15:44:24Z</time>
<speed>2.820000</speed>
<extensions>
<speed>2.8</speed>
<temp>0.00</temp>
<bpm>0</bpm>
<rpm>0.00</rpm>
</extensions>
</trkpt>
<trkpt lat="64.087471008" lon="-19.699234009">
<ele>246.453125</ele>
<time>2012-07-21T15:44:29Z</time>
<speed>2.000000</speed>
<extensions>
<speed>2.0</speed>
<temp>0.00</temp>
<bpm>0</bpm>
<rpm>0.00</rpm>
</extensions>
</trkpt>
<trkpt lat="64.087463379" lon="-19.699054718">
<ele>249.457031</ele>
<time>2012-07-21T15:44:34Z</time>
<speed>2.030000</speed>
<extensions>
<speed>2.0</speed>
<temp>0.00</temp>
<bpm>0</bpm>
<rpm>0.00</rpm>
</extensions>
</trkpt>
<trkpt lat="64.087448120" lon="-19.698801041">
<ele>249.335938</ele>
<time>2012-07-21T15:44:39Z</time>
<speed>2.500000</speed>
<extensions>
<speed>2.5</speed>
<temp>0.00</temp>
<bpm>0</bpm>
<rpm>0.00</rpm>
</extensions>
</trkpt>
<trkpt lat="64.087440491" lon="-19.698532104">
<ele>249.429688</ele>
<time>2012-07-21T15:44:44Z</time>
<speed>2.520000</speed>
<extensions>
<speed>2.5</speed>
<temp>0.00</temp>
<bpm>0</bpm>
<rpm>0.00</rpm>
</extensions>
</trkpt>
<trkpt lat="64.087432861" lon="-19.698261261">
<ele>249.429688</ele>
<time>2012-07-21T15:44:49Z</time>
<speed>2.680000</speed>
<extensions>
<speed>2.7</speed>
<temp>0.00</temp>
<bpm>0</bpm>
<rpm>0.00</rpm>
</extensions>
</trkpt>
<trkpt lat="64.087425232" lon="-19.697984695">
<ele>249.082031</ele>
<time>2012-07-21T15:44:54Z</time>
<speed>2.840000</speed>
<extensions>
<speed>2.8</speed>
<temp>0.00</temp>
<bpm>0</bpm>
<rpm>0.00</rpm>
</extensions>
</trkpt>
<trkpt lat="64.087409973" lon="-19.697694778">
<ele>248.550781</ele>
<time>2012-07-21T15:44:59Z</time>
<speed>3.000000</speed>
<extensions>
<speed>3.0</speed>
<temp>0.00</temp>
<bpm>0</bpm>
<rpm>0.00</rpm>
</extensions>
</trkpt>
<trkpt lat="64.087394714" lon="-19.697353363">
<ele>248.097656</ele>
<time>2012-07-21T15:45:04Z</time>
<speed>3.290000</speed>
<extensions>
<speed>3.3</speed>
<temp>0.00</temp>
<bpm>0</bpm>
<rpm>0.00</rpm>
</extensions>
</trkpt>
<trkpt lat="64.087379456" lon="-19.697046280">
<ele>247.554688</ele>
<time>2012-07-21T15:45:09Z</time>
<speed>2.390000</speed>
<extensions>
<speed>2.4</speed>
<temp>0.00</temp>
<bpm>0</bpm>
<rpm>0.00</rpm>
</extensions>
</trkpt>
<trkpt lat="64.087371826" lon="-19.696786880">
<ele>247.421875</ele>
<time>2012-07-21T15:45:14Z</time>
<speed>2.830000</speed>
<extensions>
<speed>2.8</speed>
<temp>0.00</temp>
<bpm>0</bpm>
<rpm>0.00</rpm>
</extensions>
</trkpt>
<trkpt lat="64.087364197" lon="-19.696479797">
<ele>246.882813</ele>
<time>2012-07-21T15:45:19Z</time>
<speed>3.110000</speed>
<extensions>
<speed>3.1</speed>
<temp>0.00</temp>
<bpm>0</bpm>
<rpm>0.00</rpm>
</extensions>
</trkpt>
<trkpt lat="64.087364197" lon="-19.696149826">
<ele>246.687500</ele>
<time>2012-07-21T15:45:24Z</time>
<speed>3.300000</speed>
<extensions>
<speed>3.3</speed>
<temp>0.00</temp>
<bpm>0</bpm>
<rpm>0.00</rpm>
</extensions>
</trkpt>
<trkpt lat="64.087364197" lon="-19.695842743">
<ele>247.253906</ele>
<time>2012-07-21T15:45:29Z</time>
<speed>2.980000</speed>
<extensions>
<speed>3.0</speed>
<temp>0.00</temp>
<bpm>0</bpm>
<rpm>0.00</rpm>
</extensions>
</trkpt>
<trkpt lat="64.087379456" lon="-19.695522308">
<ele>247.800781</ele>
<time>2012-07-21T15:45:34Z</time>
<speed>3.310000</speed>
<extensions>
<speed>3.3</speed>
<temp>0.00</temp>
<bpm>0</bpm>
<rpm>0.00</rpm>
</extensions>
</trkpt>
<trkpt lat="64.087387085" lon="-19.695226669">
<ele>247.332031</ele>
<time>2012-07-21T15:45:39Z</time>
<speed>1.890000</speed>
<extensions>
<speed>1.9</speed>
<temp>0.00</temp>
<bpm>0</bpm>
<rpm>0.00</rpm>
</extensions>
</trkpt>
<trkpt lat="64.087387085" lon="-19.695051193">
<ele>247.222656</ele>
<time>2012-07-21T15:45:44Z</time>
<speed>2.210000</speed>
<extensions>
<speed>2.2</speed>
<temp>0.00</temp>
<bpm>0</bpm>
<rpm>0.00</rpm>
</extensions>
</trkpt>
<trkpt lat="64.087394714" lon="-19.694816589">
<ele>246.992188</ele>
<time>2012-07-21T15:45:49Z</time>
<speed>2.560000</speed>
<extensions>
<speed>2.6</speed>
<temp>0.00</temp>
<bpm>0</bpm>
<rpm>0.00</rpm>
</extensions>
</trkpt>
<trkpt lat="64.087387085" lon="-19.694559097">
<ele>247.265625</ele>
<time>2012-07-21T15:45:54Z</time>
<speed>2.360000</speed>
<extensions>
<speed>2.4</speed>
<temp>0.00</temp>
<bpm>0</bpm>
<rpm>0.00</rpm>
</extensions>
</trkpt>
<trkpt lat="64.087394714" lon="-19.694335938">
<ele>247.437500</ele>
<time>2012-07-21T15:45:59Z</time>
<speed>2.040000</speed>
<extensions>
<speed>2.0</speed>
<temp>0.00</temp>
<bpm>0</bpm>
<rpm>0.00</rpm>
</extensions>
</trkpt>
<trkpt lat="64.087394714" lon="-19.694137573">
<ele>247.296875</ele>
<time>2012-07-21T15:46:04Z</time>
<speed>2.150000</speed>
<extensions>
<speed>2.1</speed>
<temp>0.00</temp>
<bpm>0</bpm>
<rpm>0.00</rpm>
</extensions>
</trkpt>
<trkpt lat="64.087394714" lon="-19.693899155">
<ele>247.335938</ele>
<time>2012-07-21T15:46:09Z</time>
<speed>2.290000</speed>
<extensions>
<speed>2.3</speed>
<temp>0.00</temp>
<bpm>0</bpm>
<rpm>0.00</rpm>
</extensions>
</trkpt>
<trkpt lat="64.087394714" lon="-19.693672180">
<ele>247.730469</ele>
<time>2012-07-21T15:46:14Z</time>
<speed>2.040000</speed>
<extensions>
<speed>2.0</speed>
<temp>0.00</temp>
<bpm>0</bpm>
<rpm>0.00</rpm>
</extensions>
</trkpt>
<trkpt lat="64.087409973" lon="-19.693452835">
<ele>247.980469</ele>
<time>2012-07-21T15:46:19Z</time>
<speed>2.270000</speed>
<extensions>
<speed>2.3</speed>
<temp>0.00</temp>
<bpm>0</bpm>
<rpm>0.00</rpm>
</extensions>
</trkpt>
<trkpt lat="64.087409973" lon="-19.693233490">
<ele>247.949219</ele>
<time>2012-07-21T15:46:24Z</time>
<speed>2.270000</speed>
<extensions>
<speed>2.3</speed>
<temp>0.00</temp>
<bpm>0</bpm>
<rpm>0.00</rpm>
</extensions>
</trkpt>
<trkpt lat="64.087409973" lon="-19.692996979">
<ele>247.511719</ele>
<time>2012-07-21T15:46:29Z</time>
<speed>2.240000</speed>
<extensions>
<speed>2.2</speed>
<temp>0.00</temp>
<bpm>0</bpm>
<rpm>0.00</rpm>
</extensions>
</trkpt>
<trkpt lat="64.087387085" lon="-19.692771912">
<ele>247.675781</ele>
<time>2012-07-21T15:46:34Z</time>
<speed>2.190000</speed>
<extensions>
<speed>2.2</speed>
<temp>0.00</temp>
<bpm>0</bpm>
<rpm>0.00</rpm>
</extensions>
</trkpt>
<trkpt lat="64.087387085" lon="-19.692529678">
<ele>248.105469</ele>
<time>2012-07-21T15:46:39Z</time>
<speed>2.320000</speed>
<extensions>
<speed>2.3</speed>
<temp>0.00</temp>
<bpm>0</bpm>
<rpm>0.00</rpm>
</extensions>
</trkpt>
<trkpt lat="64.087379456" lon="-19.692289352">
<ele>248.074219</ele>
<time>2012-07-21T15:46:44Z</time>
<speed>2.450000</speed>
<extensions>
<speed>2.4</speed>
<temp>0.00</temp>
<bpm>0</bpm>
<rpm>0.00</rpm>
</extensions>
</trkpt>
<trkpt lat="64.087371826" lon="-19.692041397">
<ele>248.074219</ele>
<time>2012-07-21T15:46:49Z</time>
<speed>2.410000</speed>
<extensions>
<speed>2.4</speed>
<temp>0.00</temp>
<bpm>0</bpm>
<rpm>0.00</rpm>
</extensions>
</trkpt>
<trkpt lat="64.087371826" lon="-19.691797256">
<ele>247.816406</ele>
<time>2012-07-21T15:46:54Z</time>
<speed>2.220000</speed>
<extensions>
<speed>2.2</speed>
<temp>0.00</temp>
<bpm>0</bpm>
<rpm>0.00</rpm>
</extensions>
</trkpt>
<trkpt lat="64.087364197" lon="-19.691562653">
<ele>247.394531</ele>
<time>2012-07-21T15:46:59Z</time>
<speed>2.350000</speed>
<extensions>
<speed>2.4</speed>
<temp>0.00</temp>
<bpm>0</bpm>
<rpm>0.00</rpm>
</extensions>
</trkpt>
<trkpt lat="64.087356567" lon="-19.691329956">
<ele>247.488281</ele>
<time>2012-07-21T15:47:04Z</time>
<speed>2.330000</speed>
<extensions>
<speed>2.3</speed>
<temp>0.00</temp>
<bpm>0</bpm>
<rpm>0.00</rpm>
</extensions>
</trkpt>
<trkpt lat="64.087341309" lon="-19.691123962">
<ele>247.691406</ele>
<time>2012-07-21T15:47:09Z</time>
<speed>1.620000</speed>
<extensions>
<speed>1.6</speed>
<temp>0.00</temp>
<bpm>0</bpm>
<rpm>0.00</rpm>
</extensions>
</trkpt>
<trkpt lat="64.087280273" lon="-19.690998077">
<ele>247.839844</ele>
<time>2012-07-21T15:47:14Z</time>
<speed>1.930000</speed>
<extensions>
<speed>1.9</speed>
<temp>0.00</temp>
<bpm>0</bpm>
<rpm>0.00</rpm>
</extensions>
</trkpt>
<trkpt lat="64.087295532" lon="-19.690782547">
<ele>248.058594</ele>
<time>2012-07-21T15:47:19Z</time>
<speed>2.230000</speed>
<extensions>
<speed>2.2</speed>
<temp>0.00</temp>
<bpm>0</bpm>
<rpm>0.00</rpm>
</extensions>
</trkpt>
<trkpt lat="64.087272644" lon="-19.690540314">
<ele>248.585938</ele>
<time>2012-07-21T15:47:24Z</time>
<speed>2.470000</speed>
<extensions>
<speed>2.5</speed>
<temp>0.00</temp>
<bpm>0</bpm>
<rpm>0.00</rpm>
</extensions>
</trkpt>
<trkpt lat="64.087265015" lon="-19.690324783">
<ele>248.871094</ele>
<time>2012-07-21T15:47:29Z</time>
<speed>2.110000</speed>
<extensions>
<speed>2.1</speed>
<temp>0.00</temp>
<bpm>0</bpm>
<rpm>0.00</rpm>
</extensions>
</trkpt>
<trkpt lat="64.087257385" lon="-19.690124512">
<ele>248.863281</ele>
<time>2012-07-21T15:47:34Z</time>
<speed>2.110000</speed>
<extensions>
<speed>2.1</speed>
<temp>0.00</temp>
<bpm>0</bpm>
<rpm>0.00</rpm>
</extensions>
</trkpt>
<trkpt lat="64.087226868" lon="-19.689949036">
<ele>249.292969</ele>
<time>2012-07-21T15:47:39Z</time>
<speed>1.780000</speed>
<extensions>
<speed>1.8</speed>
<temp>0.00</temp>
<bpm>0</bpm>
<rpm>0.00</rpm>
</extensions>
</trkpt>
<trkpt lat="64.087219238" lon="-19.689767838">
<ele>249.628906</ele>
<time>2012-07-21T15:47:44Z</time>
<speed>1.830000</speed>
<extensions>
<speed>1.8</speed>
<temp>0.00</temp>
<bpm>0</bpm>
<rpm>0.00</rpm>
</extensions>
</trkpt>
<trkpt lat="64.087203979" lon="-19.689588547">
<ele>249.597656</ele>
<time>2012-07-21T15:47:49Z</time>
<speed>1.840000</speed>
<extensions>
<speed>1.8</speed>
<temp>0.00</temp>
<bpm>0</bpm>
<rpm>0.00</rpm>
</extensions>
</trkpt>
<trkpt lat="64.087188721" lon="-19.689405441">
<ele>249.218750</ele>
<time>2012-07-21T15:47:54Z</time>
<speed>1.830000</speed>
<extensions>
<speed>1.8</speed>
<temp>0.00</temp>
<bpm>0</bpm>
<rpm>0.00</rpm>
</extensions>
</trkpt>
<trkpt lat="64.087181091" lon="-19.689231873">
<ele>249.644531</ele>
<time>2012-07-21T15:47:59Z</time>
<speed>1.810000</speed>
<extensions>
<speed>1.8</speed>
<temp>0.00</temp>
<bpm>0</bpm>
<rpm>0.00</rpm>
</extensions>
</trkpt>
<trkpt lat="64.087165833" lon="-19.689025879">
<ele>250.500000</ele>
<time>2012-07-21T15:48:04Z</time>
<speed>2.140000</speed>
<extensions>
<speed>2.1</speed>
<temp>0.00</temp>
<bpm>0</bpm>
<rpm>0.00</rpm>
</extensions>
</trkpt>
<trkpt lat="64.087150574" lon="-19.688821793">
<ele>251.210938</ele>
<time>2012-07-21T15:48:09Z</time>
<speed>2.000000</speed>
<extensions>
<speed>2.0</speed>
<temp>0.00</temp>
<bpm>0</bpm>
<rpm>0.00</rpm>
</extensions>
</trkpt>
<trkpt lat="64.087142944" lon="-19.688613892">
<ele>251.683594</ele>
<time>2012-07-21T15:48:14Z</time>
<speed>1.770000</speed>
<extensions>
<speed>1.8</speed>
<temp>0.00</temp>
<bpm>0</bpm>
<rpm>0.00</rpm>
</extensions>
</trkpt>
<trkpt lat="64.087142944" lon="-19.688591003">
<ele>251.664063</ele>
<time>2012-07-21T15:48:19Z</time>
<speed>0.070000</speed>
<extensions>
<speed>0.1</speed>
<temp>0.00</temp>
<bpm>0</bpm>
<rpm>0.00</rpm>
</extensions>
</trkpt>
<trkpt lat="64.087142944" lon="-19.688518524">
<ele>251.597656</ele>
<time>2012-07-21T15:48:24Z</time>
<speed>1.600000</speed>
<extensions>
<speed>1.6</speed>
<temp>0.00</temp>
<bpm>0</bpm>
<rpm>0.00</rpm>
</extensions>
</trkpt>
<trkpt lat="64.087127686" lon="-19.688339233">
<ele>252.257813</ele>
<time>2012-07-21T15:48:29Z</time>
<speed>2.480000</speed>
<extensions>
<speed>2.5</speed>
<temp>0.00</temp>
<bpm>0</bpm>
<rpm>0.00</rpm>
</extensions>
</trkpt>
<trkpt lat="64.087120056" lon="-19.688135147">
<ele>253.125000</ele>
<time>2012-07-21T15:48:34Z</time>
<speed>1.860000</speed>
<extensions>
<speed>1.9</speed>
<temp>0.00</temp>
<bpm>0</bpm>
<rpm>0.00</rpm>
</extensions>
</trkpt>
<trkpt lat="64.087104797" lon="-19.687925339">
<ele>253.585938</ele>
<time>2012-07-21T15:48:39Z</time>
<speed>1.950000</speed>
<extensions>
<speed>1.9</speed>
<temp>0.00</temp>
<bpm>0</bpm>
<rpm>0.00</rpm>
</extensions>
</trkpt>
<trkpt lat="64.087104797" lon="-19.687726974">
<ele>253.925781</ele>
<time>2012-07-21T15:48:44Z</time>
<speed>1.770000</speed>
<extensions>
<speed>1.8</speed>
<temp>0.00</temp>
<bpm>0</bpm>
<rpm>0.00</rpm>
</extensions>
</trkpt>
<trkpt lat="64.087104797" lon="-19.687658310">
<ele>254.078125</ele>
<time>2012-07-21T15:48:49Z</time>
<speed>0.120000</speed>
<extensions>
<speed>0.1</speed>
<temp>0.00</temp>
<bpm>0</bpm>
<rpm>0.00</rpm>
</extensions>
</trkpt>
<trkpt lat="64.087097168" lon="-19.687610626">
<ele>253.765625</ele>
<time>2012-07-21T15:48:54Z</time>
<speed>0.940000</speed>
<extensions>
<speed>0.9</speed>
<temp>0.00</temp>
<bpm>0</bpm>
<rpm>0.00</rpm>
</extensions>
</trkpt>
<trkpt lat="64.087097168" lon="-19.687498093">
<ele>253.929688</ele>
<time>2012-07-21T15:48:59Z</time>
<speed>1.200000</speed>
<extensions>
<speed>1.2</speed>
<temp>0.00</temp>
<bpm>0</bpm>
<rpm>0.00</rpm>
</extensions>
</trkpt>
<trkpt lat="64.087089539" lon="-19.687383652">
<ele>254.503906</ele>
<time>2012-07-21T15:49:04Z</time>
<speed>1.120000</speed>
<extensions>
<speed>1.1</speed>
<temp>0.00</temp>
<bpm>0</bpm>
<rpm>0.00</rpm>
</extensions>
</trkpt>
<trkpt lat="64.087089539" lon="-19.687330246">
<ele>254.066406</ele>
<time>2012-07-21T15:49:09Z</time>
<speed>0.130000</speed>
<extensions>
<speed>0.1</speed>
<temp>0.00</temp>
<bpm>0</bpm>
<rpm>0.00</rpm>
</extensions>
</trkpt>
<trkpt lat="64.087081909" lon="-19.687330246">
<ele>253.812500</ele>
<time>2012-07-21T15:49:14Z</time>
<extensions>
<speed>0.0</speed>
<temp>0.00</temp>
<bpm>0</bpm>
<rpm>0.00</rpm>
</extensions>
</trkpt>
<trkpt lat="64.087081909" lon="-19.687326431">
<ele>253.832031</ele>
<time>2012-07-21T15:49:19Z</time>
<speed>0.870000</speed>
<extensions>
<speed>0.9</speed>
<temp>0.00</temp>
<bpm>0</bpm>
<rpm>0.00</rpm>
</extensions>
</trkpt>
<trkpt lat="64.087081909" lon="-19.687318802">
<ele>254.148438</ele>
<time>2012-07-21T15:49:24Z</time>
<speed>0.140000</speed>
<extensions>
<speed>0.1</speed>
<temp>0.00</temp>
<bpm>0</bpm>
<rpm>0.00</rpm>
</extensions>
</trkpt>
<trkpt lat="64.087081909" lon="-19.687236786">
<ele>254.406250</ele>
<time>2012-07-21T15:49:29Z</time>
<speed>0.820000</speed>
<extensions>
<speed>0.8</speed>
<temp>0.00</temp>
<bpm>0</bpm>
<rpm>0.00</rpm>
</extensions>
</trkpt>
<trkpt lat="64.087081909" lon="-19.687139511">
<ele>254.421875</ele>
<time>2012-07-21T15:49:34Z</time>
<speed>1.020000</speed>
<extensions>
<speed>1.0</speed>
<temp>0.00</temp>
<bpm>0</bpm>
<rpm>0.00</rpm>
</extensions>
</trkpt>
<trkpt lat="64.087074280" lon="-19.687030792">
<ele>254.632813</ele>
<time>2012-07-21T15:49:39Z</time>
<speed>1.000000</speed>
<extensions>
<speed>1.0</speed>
<temp>0.00</temp>
<bpm>0</bpm>
<rpm>0.00</rpm>
</extensions>
</trkpt>
<trkpt lat="64.087066650" lon="-19.686937332">
<ele>255.406250</ele>
<time>2012-07-21T15:49:44Z</time>
<speed>0.880000</speed>
<extensions>
<speed>0.9</speed>
<temp>0.00</temp>
<bpm>0</bpm>
<rpm>0.00</rpm>
</extensions>
</trkpt>
<trkpt lat="64.087059021" lon="-19.686845779">
<ele>256.203125</ele>
<time>2012-07-21T15:49:49Z</time>
<speed>0.830000</speed>
<extensions>
<speed>0.8</speed>
<temp>0.00</temp>
<bpm>0</bpm>
<rpm>0.00</rpm>
</extensions>
</trkpt>
<trkpt lat="64.087059021" lon="-19.686773300">
<ele>257.218750</ele>
<time>2012-07-21T15:49:54Z</time>
<speed>0.490000</speed>
<extensions>
<speed>0.5</speed>
<temp>0.00</temp>
<bpm>0</bpm>
<rpm>0.00</rpm>
</extensions>
</trkpt>
<trkpt lat="64.087059021" lon="-19.686763763">
<ele>256.898438</ele>
<time>2012-07-21T15:49:59Z</time>
<extensions>
<speed>0.0</speed>
<temp>0.00</temp>
<bpm>0</bpm>
<rpm>0.00</rpm>
</extensions>
</trkpt>
<trkpt lat="64.087059021" lon="-19.686763763">
<ele>256.960938</ele>
<time>2012-07-21T15:50:04Z</time>
<speed>0.350000</speed>
<extensions>
<speed>0.3</speed>
<temp>0.00</temp>
<bpm>0</bpm>
<rpm>0.00</rpm>
</extensions>
</trkpt>
<trkpt lat="64.087059021" lon="-19.686693192">
<ele>257.656250</ele>
<time>2012-07-21T15:50:09Z</time>
<speed>0.890000</speed>
<extensions>
<speed>0.9</speed>
<temp>0.00</temp>
<bpm>0</bpm>
<rpm>0.00</rpm>
</extensions>
</trkpt>
<trkpt lat="64.087051392" lon="-19.686582565">
<ele>258.625000</ele>
<time>2012-07-21T15:50:14Z</time>
<speed>1.160000</speed>
<extensions>
<speed>1.2</speed>
<temp>0.00</temp>
<bpm>0</bpm>
<rpm>0.00</rpm>
</extensions>
</trkpt>
<trkpt lat="64.087043762" lon="-19.686479568">
<ele>259.156250</ele>
<time>2012-07-21T15:50:19Z</time>
<speed>1.140000</speed>
<extensions>
<speed>1.1</speed>
<temp>0.00</temp>
<bpm>0</bpm>
<rpm>0.00</rpm>
</extensions>
</trkpt>
<trkpt lat="64.087043762" lon="-19.686372757">
<ele>259.734375</ele>
<time>2012-07-21T15:50:24Z</time>
<speed>0.970000</speed>
<extensions>
<speed>1.0</speed>
<temp>0.00</temp>
<bpm>0</bpm>
<rpm>0.00</rpm>
</extensions>
</trkpt>
<trkpt lat="64.087051392" lon="-19.686254501">
<ele>260.773438</ele>
<time>2012-07-21T15:50:29Z</time>
<speed>1.190000</speed>
<extensions>
<speed>1.2</speed>
<temp>0.00</temp>
<bpm>0</bpm>
<rpm>0.00</rpm>
</extensions>
</trkpt>
<trkpt lat="64.087051392" lon="-19.686126709">
<ele>261.273438</ele>
<time>2012-07-21T15:50:34Z</time>
<speed>1.240000</speed>
<extensions>
<speed>1.2</speed>
<temp>0.00</temp>
<bpm>0</bpm>
<rpm>0.00</rpm>
</extensions>
</trkpt>
<trkpt lat="64.087059021" lon="-19.685995102">
<ele>261.398438</ele>
<time>2012-07-21T15:50:39Z</time>
<speed>1.290000</speed>
<extensions>
<speed>1.3</speed>
<temp>0.00</temp>
<bpm>0</bpm>
<rpm>0.00</rpm>
</extensions>
</trkpt>
<trkpt lat="64.087066650" lon="-19.685861588">
<ele>261.375000</ele>
<time>2012-07-21T15:50:44Z</time>
<speed>1.120000</speed>
<extensions>
<speed>1.1</speed>
<temp>0.00</temp>
<bpm>0</bpm>
<rpm>0.00</rpm>
</extensions>
</trkpt>
<trkpt lat="64.087074280" lon="-19.685729980">
<ele>261.726563</ele>
<time>2012-07-21T15:50:49Z</time>
<speed>1.280000</speed>
<extensions>
<speed>1.3</speed>
<temp>0.00</temp>
<bpm>0</bpm>
<rpm>0.00</rpm>
</extensions>
</trkpt>
<trkpt lat="64.087089539" lon="-19.685606003">
<ele>261.953125</ele>
<time>2012-07-21T15:50:54Z</time>
<speed>1.330000</speed>
<extensions>
<speed>1.3</speed>
<temp>0.00</temp>
<bpm>0</bpm>
<rpm>0.00</rpm>
</extensions>
</trkpt>
<trkpt lat="64.087097168" lon="-19.685483932">
<ele>261.781250</ele>
<time>2012-07-21T15:50:59Z</time>
<speed>1.270000</speed>
<extensions>
<speed>1.3</speed>
<temp>0.00</temp>
<bpm>0</bpm>
<rpm>0.00</rpm>
</extensions>
</trkpt>
<trkpt lat="64.087104797" lon="-19.685356140">
<ele>262.007813</ele>
<time>2012-07-21T15:51:04Z</time>
<speed>1.130000</speed>
<extensions>
<speed>1.1</speed>
<temp>0.00</temp>
<bpm>0</bpm>
<rpm>0.00</rpm>
</extensions>
</trkpt>
<trkpt lat="64.087104797" lon="-19.685247421">
<ele>261.640625</ele>
<time>2012-07-21T15:51:09Z</time>
<speed>1.220000</speed>
<extensions>
<speed>1.2</speed>
<temp>0.00</temp>
<bpm>0</bpm>
<rpm>0.00</rpm>
</extensions>
</trkpt>
<trkpt lat="64.087097168" lon="-19.685131073">
<ele>261.390625</ele>
<time>2012-07-21T15:51:14Z</time>
<speed>1.160000</speed>
<extensions>
<speed>1.2</speed>
<temp>0.00</temp>
<bpm>0</bpm>
<rpm>0.00</rpm>
</extensions>
</trkpt>
<trkpt lat="64.087089539" lon="-19.685033798">
<ele>261.023438</ele>
<time>2012-07-21T15:51:19Z</time>
<speed>0.040000</speed>
<extensions>
<speed>0.0</speed>
<temp>0.00</temp>
<bpm>0</bpm>
<rpm>0.00</rpm>
</extensions>
</trkpt>
<trkpt lat="64.087089539" lon="-19.685037613">
<ele>261.156250</ele>
<time>2012-07-21T15:51:24Z</time>
<speed>0.030000</speed>
<extensions>
<speed>0.0</speed>
<temp>0.00</temp>
<bpm>0</bpm>
<rpm>0.00</rpm>
</extensions>
</trkpt>
<trkpt lat="64.087074280" lon="-19.684930801">
<ele>261.187500</ele>
<time>2012-07-21T15:51:29Z</time>
<speed>1.850000</speed>
<extensions>
<speed>1.8</speed>
<temp>0.00</temp>
<bpm>0</bpm>
<rpm>0.00</rpm>
</extensions>
</trkpt>
<trkpt lat="64.087051392" lon="-19.684722900">
<ele>260.679688</ele>
<time>2012-07-21T15:51:34Z</time>
<speed>1.880000</speed>
<extensions>
<speed>1.9</speed>
<temp>0.00</temp>
<bpm>0</bpm>
<rpm>0.00</rpm>
</extensions>
</trkpt>
<trkpt lat="64.087036133" lon="-19.684530258">
<ele>260.671875</ele>
<time>2012-07-21T15:51:39Z</time>
<speed>1.910000</speed>
<extensions>
<speed>1.9</speed>
<temp>0.00</temp>
<bpm>0</bpm>
<rpm>0.00</rpm>
</extensions>
</trkpt>
<trkpt lat="64.087020874" lon="-19.684364319">
<ele>260.781250</ele>
<time>2012-07-21T15:51:44Z</time>
<speed>1.570000</speed>
<extensions>
<speed>1.6</speed>
<temp>0.00</temp>
<bpm>0</bpm>
<rpm>0.00</rpm>
</extensions>
</trkpt>
<trkpt lat="64.087005615" lon="-19.684223175">
<ele>260.835938</ele>
<time>2012-07-21T15:51:49Z</time>
<speed>1.860000</speed>
<extensions>
<speed>1.9</speed>
<temp>0.00</temp>
<bpm>0</bpm>
<rpm>0.00</rpm>
</extensions>
</trkpt>
<trkpt lat="64.086997986" lon="-19.684062958">
<ele>260.656250</ele>
<time>2012-07-21T15:51:54Z</time>
<speed>2.010000</speed>
<extensions>
<speed>2.0</speed>
<temp>0.00</temp>
<bpm>0</bpm>
<rpm>0.00</rpm>
</extensions>
</trkpt>
<trkpt lat="64.086990356" lon="-19.683855057">
<ele>260.789063</ele>
<time>2012-07-21T15:51:59Z</time>
<speed>1.730000</speed>
<extensions>
<speed>1.7</speed>
<temp>0.00</temp>
<bpm>0</bpm>
<rpm>0.00</rpm>
</extensions>
</trkpt>
<trkpt lat="64.086982727" lon="-19.683654785">
<ele>261.109375</ele>
<time>2012-07-21T15:52:04Z</time>
<speed>1.880000</speed>
<extensions>
<speed>1.9</speed>
<temp>0.00</temp>
<bpm>0</bpm>
<rpm>0.00</rpm>
</extensions>
</trkpt>
<trkpt lat="64.086967468" lon="-19.683443069">
<ele>261.179688</ele>
<time>2012-07-21T15:52:09Z</time>
<speed>2.240000</speed>
<extensions>
<speed>2.2</speed>
<temp>0.00</temp>
<bpm>0</bpm>
<rpm>0.00</rpm>
</extensions>
</trkpt>
<trkpt lat="64.086959839" lon="-19.683214188">
<ele>261.664063</ele>
<time>2012-07-21T15:52:14Z</time>
<speed>2.230000</speed>
<extensions>
<speed>2.2</speed>
<temp>0.00</temp>
<bpm>0</bpm>
<rpm>0.00</rpm>
</extensions>
</trkpt>
<trkpt lat="64.086944580" lon="-19.683059692">
<ele>262.023438</ele>
<time>2012-07-21T15:52:19Z</time>
<speed>1.490000</speed>
<extensions>
<speed>1.5</speed>
<temp>0.00</temp>
<bpm>0</bpm>
<rpm>0.00</rpm>
</extensions>
</trkpt>
<trkpt lat="64.086944580" lon="-19.682897568">
<ele>262.460938</ele>
<time>2012-07-21T15:52:24Z</time>
<speed>1.660000</speed>
<extensions>
<speed>1.7</speed>
<temp>0.00</temp>
<bpm>0</bpm>
<rpm>0.00</rpm>
</extensions>
</trkpt>
<trkpt lat="64.086936951" lon="-19.682735443">
<ele>262.554688</ele>
<time>2012-07-21T15:52:29Z</time>
<speed>1.720000</speed>
<extensions>
<speed>1.7</speed>
<temp>0.00</temp>
<bpm>0</bpm>
<rpm>0.00</rpm>
</extensions>
</trkpt>
<trkpt lat="64.086929321" lon="-19.682548523">
<ele>262.406250</ele>
<time>2012-07-21T15:52:34Z</time>
<speed>1.550000</speed>
<extensions>
<speed>1.5</speed>
<temp>0.00</temp>
<bpm>0</bpm>
<rpm>0.00</rpm>
</extensions>
</trkpt>
<trkpt lat="64.086929321" lon="-19.682386398">
<ele>263.335938</ele>
<time>2012-07-21T15:52:39Z</time>
<speed>1.690000</speed>
<extensions>
<speed>1.7</speed>
<temp>0.00</temp>
<bpm>0</bpm>
<rpm>0.00</rpm>
</extensions>
</trkpt>
<trkpt lat="64.086906433" lon="-19.682193756">
<ele>263.734375</ele>
<time>2012-07-21T15:52:44Z</time>
<speed>2.040000</speed>
<extensions>
<speed>2.0</speed>
<temp>0.00</temp>
<bpm>0</bpm>
<rpm>0.00</rpm>
</extensions>
</trkpt>
<trkpt lat="64.086898804" lon="-19.681993484">
<ele>264.023438</ele>
<time>2012-07-21T15:52:49Z</time>
<speed>1.680000</speed>
<extensions>
<speed>1.7</speed>
<temp>0.00</temp>
<bpm>0</bpm>
<rpm>0.00</rpm>
</extensions>
</trkpt>
<trkpt lat="64.086898804" lon="-19.681972504">
<ele>263.820313</ele>
<time>2012-07-21T15:52:54Z</time>
<speed>0.010000</speed>
<extensions>
<speed>0.0</speed>
<temp>0.00</temp>
<bpm>0</bpm>
<rpm>0.00</rpm>
</extensions>
</trkpt>
<trkpt lat="64.086898804" lon="-19.681972504">
<ele>263.820313</ele>
<time>2012-07-21T15:52:59Z</time>
<extensions>
<speed>0.0</speed>
<temp>0.00</temp>
<bpm>0</bpm>
<rpm>0.00</rpm>
</extensions>
</trkpt>
<trkpt lat="64.086898804" lon="-19.681972504">
<ele>263.812500</ele>
<time>2012-07-21T15:53:04Z</time>
<extensions>
<speed>0.0</speed>
<temp>0.00</temp>
<bpm>0</bpm>
<rpm>0.00</rpm>
</extensions>
</trkpt>
<trkpt lat="64.086898804" lon="-19.681972504">
<ele>263.804688</ele>
<time>2012-07-21T15:53:09Z</time>
<extensions>
<speed>0.0</speed>
<temp>0.00</temp>
<bpm>0</bpm>
<rpm>0.00</rpm>
</extensions>
</trkpt>
<trkpt lat="64.086898804" lon="-19.681972504">
<ele>263.796875</ele>
<time>2012-07-21T15:53:14Z</time>
<speed>0.030000</speed>
<extensions>
<speed>0.0</speed>
<temp>0.00</temp>
<bpm>0</bpm>
<rpm>0.00</rpm>
</extensions>
</trkpt>
<trkpt lat="64.086891174" lon="-19.681879044">
<ele>263.796875</ele>
<time>2012-07-21T15:53:19Z</time>
<speed>1.700000</speed>
<extensions>
<speed>1.7</speed>
<temp>0.00</temp>
<bpm>0</bpm>
<rpm>0.00</rpm>
</extensions>
</trkpt>
<trkpt lat="64.086875916" lon="-19.681699753">
<ele>264.179688</ele>
<time>2012-07-21T15:53:24Z</time>
<speed>1.740000</speed>
<extensions>
<speed>1.7</speed>
<temp>0.00</temp>
<bpm>0</bpm>
<rpm>0.00</rpm>
</extensions>
</trkpt>
<trkpt lat="64.086868286" lon="-19.681518555">
<ele>264.421875</ele>
<time>2012-07-21T15:53:29Z</time>
<speed>1.740000</speed>
<extensions>
<speed>1.7</speed>
<temp>0.00</temp>
<bpm>0</bpm>
<rpm>0.00</rpm>
</extensions>
</trkpt>
<trkpt lat="64.086860657" lon="-19.681337357">
<ele>264.328125</ele>
<time>2012-07-21T15:53:34Z</time>
<speed>1.810000</speed>
<extensions>
<speed>1.8</speed>
<temp>0.00</temp>
<bpm>0</bpm>
<rpm>0.00</rpm>
</extensions>
</trkpt>
<trkpt lat="64.086853027" lon="-19.681186676">
<ele>265.773438</ele>
<time>2012-07-21T15:53:39Z</time>
<speed>1.360000</speed>
<extensions>
<speed>1.4</speed>
<temp>0.00</temp>
<bpm>0</bpm>
<rpm>0.00</rpm>
</extensions>
</trkpt>
<trkpt lat="64.086845398" lon="-19.681007385">
<ele>266.187500</ele>
<time>2012-07-21T15:53:44Z</time>
<speed>1.990000</speed>
<extensions>
<speed>2.0</speed>
<temp>0.00</temp>
<bpm>0</bpm>
<rpm>0.00</rpm>
</extensions>
</trkpt>
<trkpt lat="64.086845398" lon="-19.680822372">
<ele>265.953125</ele>
<time>2012-07-21T15:53:49Z</time>
<speed>1.440000</speed>
<extensions>
<speed>1.4</speed>
<temp>0.00</temp>
<bpm>0</bpm>
<rpm>0.00</rpm>
</extensions>
</trkpt>
<trkpt lat="64.086845398" lon="-19.680644989">
<ele>265.914063</ele>
<time>2012-07-21T15:53:54Z</time>
<speed>1.590000</speed>
<extensions>
<speed>1.6</speed>
<temp>0.00</temp>
<bpm>0</bpm>
<rpm>0.00</rpm>
</extensions>
</trkpt>
<trkpt lat="64.086837769" lon="-19.680528641">
<ele>266.398438</ele>
<time>2012-07-21T15:53:59Z</time>
<speed>1.170000</speed>
<extensions>
<speed>1.2</speed>
<temp>0.00</temp>
<bpm>0</bpm>
<rpm>0.00</rpm>
</extensions>
</trkpt>
<trkpt lat="64.086845398" lon="-19.680374146">
<ele>267.062500</ele>
<time>2012-07-21T15:54:04Z</time>
<speed>1.500000</speed>
<extensions>
<speed>1.5</speed>
<temp>0.00</temp>
<bpm>0</bpm>
<rpm>0.00</rpm>
</extensions>
</trkpt>
<trkpt lat="64.086845398" lon="-19.680192947">
<ele>267.320313</ele>
<time>2012-07-21T15:54:09Z</time>
<speed>1.620000</speed>
<extensions>
<speed>1.6</speed>
<temp>0.00</temp>
<bpm>0</bpm>
<rpm>0.00</rpm>
</extensions>
</trkpt>
<trkpt lat="64.086853027" lon="-19.680063248">
<ele>267.632813</ele>
<time>2012-07-21T15:54:14Z</time>
<speed>1.200000</speed>
<extensions>
<speed>1.2</speed>
<temp>0.00</temp>
<bpm>0</bpm>
<rpm>0.00</rpm>
</extensions>
</trkpt>
<trkpt lat="64.086868286" lon="-19.679920197">
<ele>268.359375</ele>
<time>2012-07-21T15:54:19Z</time>
<speed>1.480000</speed>
<extensions>
<speed>1.5</speed>
<temp>0.00</temp>
<bpm>0</bpm>
<rpm>0.00</rpm>
</extensions>
</trkpt>
<trkpt lat="64.086875916" lon="-19.679754257">
<ele>268.914063</ele>
<time>2012-07-21T15:54:24Z</time>
<speed>1.770000</speed>
<extensions>
<speed>1.8</speed>
<temp>0.00</temp>
<bpm>0</bpm>
<rpm>0.00</rpm>
</extensions>
</trkpt>
<trkpt lat="64.086891174" lon="-19.679571152">
<ele>269.500000</ele>
<time>2012-07-21T15:54:29Z</time>
<speed>1.380000</speed>
<extensions>
<speed>1.4</speed>
<temp>0.00</temp>
<bpm>0</bpm>
<rpm>0.00</rpm>
</extensions>
</trkpt>
<trkpt lat="64.086898804" lon="-19.679424286">
<ele>270.007813</ele>
<time>2012-07-21T15:54:34Z</time>
<speed>1.760000</speed>
<extensions>
<speed>1.8</speed>
<temp>0.00</temp>
<bpm>0</bpm>
<rpm>0.00</rpm>
</extensions>
</trkpt>
<trkpt lat="64.086921692" lon="-19.679243088">
<ele>270.687500</ele>
<time>2012-07-21T15:54:39Z</time>
<speed>1.790000</speed>
<extensions>
<speed>1.8</speed>
<temp>0.00</temp>
<bpm>0</bpm>
<rpm>0.00</rpm>
</extensions>
</trkpt>
<trkpt lat="64.086944580" lon="-19.679046631">
<ele>271.632813</ele>
<time>2012-07-21T15:54:44Z</time>
<speed>1.200000</speed>
<extensions>
<speed>1.2</speed>
<temp>0.00</temp>
<bpm>0</bpm>
<rpm>0.00</rpm>
</extensions>
</trkpt>
<trkpt lat="64.086975098" lon="-19.678928375">
<ele>272.023438</ele>
<time>2012-07-21T15:54:49Z</time>
<speed>1.620000</speed>
<extensions>
<speed>1.6</speed>
<temp>0.00</temp>
<bpm>0</bpm>
<rpm>0.00</rpm>
</extensions>
</trkpt>
<trkpt lat="64.087013245" lon="-19.678775787">
<ele>272.195313</ele>
<time>2012-07-21T15:54:54Z</time>
<speed>1.570000</speed>
<extensions>
<speed>1.6</speed>
<temp>0.00</temp>
<bpm>0</bpm>
<rpm>0.00</rpm>
</extensions>
</trkpt>
<trkpt lat="64.087051392" lon="-19.678613663">
<ele>271.554688</ele>
<time>2012-07-21T15:54:59Z</time>
<speed>2.020000</speed>
<extensions>
<speed>2.0</speed>
<temp>0.00</temp>
<bpm>0</bpm>
<rpm>0.00</rpm>
</extensions>
</trkpt>
<trkpt lat="64.087089539" lon="-19.678442001">
<ele>271.875000</ele>
<time>2012-07-21T15:55:04Z</time>
<speed>2.090000</speed>
<extensions>
<speed>2.1</speed>
<temp>0.00</temp>
<bpm>0</bpm>
<rpm>0.00</rpm>
</extensions>
</trkpt>
<trkpt lat="64.087127686" lon="-19.678285599">
<ele>272.906250</ele>
<time>2012-07-21T15:55:09Z</time>
<speed>1.630000</speed>
<extensions>
<speed>1.6</speed>
<temp>0.00</temp>
<bpm>0</bpm>
<rpm>0.00</rpm>
</extensions>
</trkpt>
<trkpt lat="64.087142944" lon="-19.678146362">
<ele>274.000000</ele>
<time>2012-07-21T15:55:14Z</time>
<speed>1.530000</speed>
<extensions>
<speed>1.5</speed>
<temp>0.00</temp>
<bpm>0</bpm>
<rpm>0.00</rpm>
</extensions>
</trkpt>
<trkpt lat="64.087181091" lon="-19.677991867">
<ele>274.218750</ele>
<time>2012-07-21T15:55:19Z</time>
<speed>1.590000</speed>
<extensions>
<speed>1.6</speed>
<temp>0.00</temp>
<bpm>0</bpm>
<rpm>0.00</rpm>
</extensions>
</trkpt>
<trkpt lat="64.087203979" lon="-19.677829742">
<ele>275.523438</ele>
<time>2012-07-21T15:55:24Z</time>
<speed>1.830000</speed>
<extensions>
<speed>1.8</speed>
<temp>0.00</temp>
<bpm>0</bpm>
<rpm>0.00</rpm>
</extensions>
</trkpt>
<trkpt lat="64.087219238" lon="-19.677661896">
<ele>276.882813</ele>
<time>2012-07-21T15:55:29Z</time>
<speed>1.820000</speed>
<extensions>
<speed>1.8</speed>
<temp>0.00</temp>
<bpm>0</bpm>
<rpm>0.00</rpm>
</extensions>
</trkpt>
<trkpt lat="64.087249756" lon="-19.677495956">
<ele>278.265625</ele>
<time>2012-07-21T15:55:34Z</time>
<speed>1.620000</speed>
<extensions>
<speed>1.6</speed>
<temp>0.00</temp>
<bpm>0</bpm>
<rpm>0.00</rpm>
</extensions>
</trkpt>
<trkpt lat="64.087265015" lon="-19.677345276">
<ele>277.976563</ele>
<time>2012-07-21T15:55:39Z</time>
<speed>1.740000</speed>
<extensions>
<speed>1.7</speed>
<temp>0.00</temp>
<bpm>0</bpm>
<rpm>0.00</rpm>
</extensions>
</trkpt>
<trkpt lat="64.087287903" lon="-19.677179337">
<ele>277.859375</ele>
<time>2012-07-21T15:55:44Z</time>
<speed>1.570000</speed>
<extensions>
<speed>1.6</speed>
<temp>0.00</temp>
<bpm>0</bpm>
<rpm>0.00</rpm>
</extensions>
</trkpt>
<trkpt lat="64.087303162" lon="-19.677011490">
<ele>278.000000</ele>
<time>2012-07-21T15:55:49Z</time>
<speed>1.890000</speed>
<extensions>
<speed>1.9</speed>
<temp>0.00</temp>
<bpm>0</bpm>
<rpm>0.00</rpm>
</extensions>
</trkpt>
<trkpt lat="64.087318420" lon="-19.676824570">
<ele>277.882813</ele>
<time>2012-07-21T15:55:54Z</time>
<speed>1.800000</speed>
<extensions>
<speed>1.8</speed>
<temp>0.00</temp>
<bpm>0</bpm>
<rpm>0.00</rpm>
</extensions>
</trkpt>
<trkpt lat="64.087333679" lon="-19.676660538">
<ele>277.281250</ele>
<time>2012-07-21T15:55:59Z</time>
<speed>1.590000</speed>
<extensions>
<speed>1.6</speed>
<temp>0.00</temp>
<bpm>0</bpm>
<rpm>0.00</rpm>
</extensions>
</trkpt>
<trkpt lat="64.087341309" lon="-19.676494598">
<ele>277.382813</ele>
<time>2012-07-21T15:56:04Z</time>
<speed>1.480000</speed>
<extensions>
<speed>1.5</speed>
<temp>0.00</temp>
<bpm>0</bpm>
<rpm>0.00</rpm>
</extensions>
</trkpt>
<trkpt lat="64.087341309" lon="-19.676378250">
<ele>276.882813</ele>
<time>2012-07-21T15:56:09Z</time>
<speed>1.490000</speed>
<extensions>
<speed>1.5</speed>
<temp>0.00</temp>
<bpm>0</bpm>
<rpm>0.00</rpm>
</extensions>
</trkpt>
<trkpt lat="64.087341309" lon="-19.676195145">
<ele>277.632813</ele>
<time>2012-07-21T15:56:14Z</time>
<speed>2.030000</speed>
<extensions>
<speed>2.0</speed>
<temp>0.00</temp>
<bpm>0</bpm>
<rpm>0.00</rpm>
</extensions>
</trkpt>
<trkpt lat="64.087310791" lon="-19.676034927">
<ele>278.007813</ele>
<time>2012-07-21T15:56:19Z</time>
<speed>1.320000</speed>
<extensions>
<speed>1.3</speed>
<temp>0.00</temp>
<bpm>0</bpm>
<rpm>0.00</rpm>
</extensions>
</trkpt>
<trkpt lat="64.087242126" lon="-19.675979614">
<ele>277.546875</ele>
<time>2012-07-21T15:56:24Z</time>
<speed>1.930000</speed>
<extensions>
<speed>1.9</speed>
<temp>0.00</temp>
<bpm>0</bpm>
<rpm>0.00</rpm>
</extensions>
</trkpt>
<trkpt lat="64.087181091" lon="-19.675874710">
<ele>277.609375</ele>
<time>2012-07-21T15:56:29Z</time>
<speed>1.850000</speed>
<extensions>
<speed>1.8</speed>
<temp>0.00</temp>
<bpm>0</bpm>
<rpm>0.00</rpm>
</extensions>
</trkpt>
<trkpt lat="64.087135315" lon="-19.675745010">
<ele>277.375000</ele>
<time>2012-07-21T15:56:34Z</time>
<speed>1.900000</speed>
<extensions>
<speed>1.9</speed>
<temp>0.00</temp>
<bpm>0</bpm>
<rpm>0.00</rpm>
</extensions>
</trkpt>
<trkpt lat="64.087104797" lon="-19.675579071">
<ele>277.117188</ele>
<time>2012-07-21T15:56:39Z</time>
<speed>1.650000</speed>
<extensions>
<speed>1.7</speed>
<temp>0.00</temp>
<bpm>0</bpm>
<rpm>0.00</rpm>
</extensions>
</trkpt>
<trkpt lat="64.087112427" lon="-19.675449371">
<ele>277.445313</ele>
<time>2012-07-21T15:56:44Z</time>
<speed>0.220000</speed>
<extensions>
<speed>0.2</speed>
<temp>0.00</temp>
<bpm>0</bpm>
<rpm>0.00</rpm>
</extensions>
</trkpt>
<trkpt lat="64.087112427" lon="-19.675441742">
<ele>277.226563</ele>
<time>2012-07-21T15:56:49Z</time>
<extensions>
<speed>0.0</speed>
<temp>0.00</temp>
<bpm>0</bpm>
<rpm>0.00</rpm>
</extensions>
</trkpt>
<trkpt lat="64.087112427" lon="-19.675447464">
<ele>276.796875</ele>
<time>2012-07-21T15:56:54Z</time>
<speed>0.110000</speed>
<extensions>
<speed>0.1</speed>
<temp>0.00</temp>
<bpm>0</bpm>
<rpm>0.00</rpm>
</extensions>
</trkpt>
<trkpt lat="64.087112427" lon="-19.675449371">
<ele>276.031250</ele>
<time>2012-07-21T15:56:59Z</time>
<speed>0.020000</speed>
<extensions>
<speed>0.0</speed>
<temp>0.00</temp>
<bpm>0</bpm>
<rpm>0.00</rpm>
</extensions>
</trkpt>
<trkpt lat="64.087112427" lon="-19.675449371">
<ele>275.937500</ele>
<time>2012-07-21T15:57:04Z</time>
<extensions>
<speed>0.0</speed>
<temp>0.00</temp>
<bpm>0</bpm>
<rpm>0.00</rpm>
</extensions>
</trkpt>
<trkpt lat="64.087112427" lon="-19.675449371">
<ele>275.953125</ele>
<time>2012-07-21T15:57:09Z</time>
<extensions>
<speed>0.0</speed>
<temp>0.00</temp>
<bpm>0</bpm>
<rpm>0.00</rpm>
</extensions>
</trkpt>
<trkpt lat="64.087112427" lon="-19.675449371">
<ele>275.953125</ele>
<time>2012-07-21T15:57:14Z</time>
<extensions>
<speed>0.0</speed>
<temp>0.00</temp>
<bpm>0</bpm>
<rpm>0.00</rpm>
</extensions>
</trkpt>
<trkpt lat="64.087112427" lon="-19.675449371">
<ele>275.960938</ele>
<time>2012-07-21T15:57:19Z</time>
<speed>0.010000</speed>
<extensions>
<speed>0.0</speed>
<temp>0.00</temp>
<bpm>0</bpm>
<rpm>0.00</rpm>
</extensions>
</trkpt>
<trkpt lat="64.087112427" lon="-19.675449371">
<ele>275.953125</ele>
<time>2012-07-21T15:57:24Z</time>
<speed>0.020000</speed>
<extensions>
<speed>0.0</speed>
<temp>0.00</temp>
<bpm>0</bpm>
<rpm>0.00</rpm>
</extensions>
</trkpt>
<trkpt lat="64.087112427" lon="-19.675449371">
<ele>275.960938</ele>
<time>2012-07-21T15:57:29Z</time>
<speed>0.010000</speed>
<extensions>
<speed>0.0</speed>
<temp>0.00</temp>
<bpm>0</bpm>
<rpm>0.00</rpm>
</extensions>
</trkpt>
<trkpt lat="64.087112427" lon="-19.675449371">
<ele>275.976563</ele>
<time>2012-07-21T15:57:34Z</time>
<speed>0.010000</speed>
<extensions>
<speed>0.0</speed>
<temp>0.00</temp>
<bpm>0</bpm>
<rpm>0.00</rpm>
</extensions>
</trkpt>
<trkpt lat="64.087120056" lon="-19.675424576">
<ele>276.085938</ele>
<time>2012-07-21T15:57:39Z</time>
<speed>0.670000</speed>
<extensions>
<speed>0.7</speed>
<temp>0.00</temp>
<bpm>0</bpm>
<rpm>0.00</rpm>
</extensions>
</trkpt>
<trkpt lat="64.087173462" lon="-19.675474167">
<ele>276.351563</ele>
<time>2012-07-21T15:57:44Z</time>
<speed>1.550000</speed>
<extensions>
<speed>1.5</speed>
<temp>0.00</temp>
<bpm>0</bpm>
<rpm>0.00</rpm>
</extensions>
</trkpt>
<trkpt lat="64.087242126" lon="-19.675558090">
<ele>276.710938</ele>
<time>2012-07-21T15:57:49Z</time>
<speed>1.300000</speed>
<extensions>
<speed>1.3</speed>
<temp>0.00</temp>
<bpm>0</bpm>
<rpm>0.00</rpm>
</extensions>
</trkpt>
<trkpt lat="64.087272644" lon="-19.675508499">
<ele>278.210938</ele>
<time>2012-07-21T15:57:54Z</time>
<speed>1.500000</speed>
<extensions>
<speed>1.5</speed>
<temp>0.00</temp>
<bpm>0</bpm>
<rpm>0.00</rpm>
</extensions>
</trkpt>
<trkpt lat="64.087318420" lon="-19.675355911">
<ele>277.906250</ele>
<time>2012-07-21T15:57:59Z</time>
<speed>1.800000</speed>
<extensions>
<speed>1.8</speed>
<temp>0.00</temp>
<bpm>0</bpm>
<rpm>0.00</rpm>
</extensions>
</trkpt>
<trkpt lat="64.087341309" lon="-19.675153732">
<ele>278.250000</ele>
<time>2012-07-21T15:58:04Z</time>
<speed>1.800000</speed>
<extensions>
<speed>1.8</speed>
<temp>0.00</temp>
<bpm>0</bpm>
<rpm>0.00</rpm>
</extensions>
</trkpt>
<trkpt lat="64.087364197" lon="-19.674953461">
<ele>277.664063</ele>
<time>2012-07-21T15:58:09Z</time>
<speed>2.430000</speed>
<extensions>
<speed>2.4</speed>
<temp>0.00</temp>
<bpm>0</bpm>
<rpm>0.00</rpm>
</extensions>
</trkpt>
<trkpt lat="64.087387085" lon="-19.674732208">
<ele>277.210938</ele>
<time>2012-07-21T15:58:14Z</time>
<speed>1.840000</speed>
<extensions>
<speed>1.8</speed>
<temp>0.00</temp>
<bpm>0</bpm>
<rpm>0.00</rpm>
</extensions>
</trkpt>
<trkpt lat="64.087394714" lon="-19.674676895">
<ele>276.898438</ele>
<time>2012-07-21T15:58:19Z</time>
<speed>0.110000</speed>
<extensions>
<speed>0.1</speed>
<temp>0.00</temp>
<bpm>0</bpm>
<rpm>0.00</rpm>
</extensions>
</trkpt>
<trkpt lat="64.087387085" lon="-19.674674988">
<ele>276.789063</ele>
<time>2012-07-21T15:58:24Z</time>
<speed>0.080000</speed>
<extensions>
<speed>0.1</speed>
<temp>0.00</temp>
<bpm>0</bpm>
<rpm>0.00</rpm>
</extensions>
</trkpt>
<trkpt lat="64.087387085" lon="-19.674680710">
<ele>276.984375</ele>
<time>2012-07-21T15:58:29Z</time>
<speed>0.040000</speed>
<extensions>
<speed>0.0</speed>
<temp>0.00</temp>
<bpm>0</bpm>
<rpm>0.00</rpm>
</extensions>
</trkpt>
<trkpt lat="64.087387085" lon="-19.674682617">
<ele>277.203125</ele>
<time>2012-07-21T15:58:34Z</time>
<speed>0.070000</speed>
<extensions>
<speed>0.1</speed>
<temp>0.00</temp>
<bpm>0</bpm>
<rpm>0.00</rpm>
</extensions>
</trkpt>
<trkpt lat="64.087387085" lon="-19.674682617">
<ele>277.242188</ele>
<time>2012-07-21T15:58:39Z</time>
<extensions>
<speed>0.0</speed>
<temp>0.00</temp>
<bpm>0</bpm>
<rpm>0.00</rpm>
</extensions>
</trkpt>
<trkpt lat="64.087387085" lon="-19.674682617">
<ele>277.242188</ele>
<time>2012-07-21T15:58:44Z</time>
<extensions>
<speed>0.0</speed>
<temp>0.00</temp>
<bpm>0</bpm>
<rpm>0.00</rpm>
</extensions>
</trkpt>
<trkpt lat="64.087387085" lon="-19.674682617">
<ele>277.226563</ele>
<time>2012-07-21T15:58:49Z</time>
<speed>0.010000</speed>
<extensions>
<speed>0.0</speed>
<temp>0.00</temp>
<bpm>0</bpm>
<rpm>0.00</rpm>
</extensions>
</trkpt>
<trkpt lat="64.087387085" lon="-19.674682617">
<ele>277.210938</ele>
<time>2012-07-21T15:58:54Z</time>
<extensions>
<speed>0.0</speed>
<temp>0.00</temp>
<bpm>0</bpm>
<rpm>0.00</rpm>
</extensions>
</trkpt>
<trkpt lat="64.087387085" lon="-19.674682617">
<ele>277.203125</ele>
<time>2012-07-21T15:58:59Z</time>
<speed>0.020000</speed>
<extensions>
<speed>0.0</speed>
<temp>0.00</temp>
<bpm>0</bpm>
<rpm>0.00</rpm>
</extensions>
</trkpt>
<trkpt lat="64.087387085" lon="-19.674682617">
<ele>277.179688</ele>
<time>2012-07-21T15:59:04Z</time>
<speed>0.010000</speed>
<extensions>
<speed>0.0</speed>
<temp>0.00</temp>
<bpm>0</bpm>
<rpm>0.00</rpm>
</extensions>
</trkpt>
<trkpt lat="64.087387085" lon="-19.674682617">
<ele>277.164063</ele>
<time>2012-07-21T15:59:09Z</time>
<speed>0.010000</speed>
<extensions>
<speed>0.0</speed>
<temp>0.00</temp>
<bpm>0</bpm>
<rpm>0.00</rpm>
</extensions>
</trkpt>
<trkpt lat="64.087387085" lon="-19.674682617">
<ele>277.148438</ele>
<time>2012-07-21T15:59:14Z</time>
<speed>0.020000</speed>
<extensions>
<speed>0.0</speed>
<temp>0.00</temp>
<bpm>0</bpm>
<rpm>0.00</rpm>
</extensions>
</trkpt>
<trkpt lat="64.087387085" lon="-19.674680710">
<ele>277.117188</ele>
<time>2012-07-21T15:59:19Z</time>
<speed>0.010000</speed>
<extensions>
<speed>0.0</speed>
<temp>0.00</temp>
<bpm>0</bpm>
<rpm>0.00</rpm>
</extensions>
</trkpt>
<trkpt lat="64.087387085" lon="-19.674680710">
<ele>277.085938</ele>
<time>2012-07-21T15:59:24Z</time>
<speed>0.030000</speed>
<extensions>
<speed>0.0</speed>
<temp>0.00</temp>
<bpm>0</bpm>
<rpm>0.00</rpm>
</extensions>
</trkpt>
<trkpt lat="64.087387085" lon="-19.674680710">
<ele>277.070313</ele>
<time>2012-07-21T15:59:29Z</time>
<extensions>
<speed>0.0</speed>
<temp>0.00</temp>
<bpm>0</bpm>
<rpm>0.00</rpm>
</extensions>
</trkpt>
<trkpt lat="64.087387085" lon="-19.674680710">
<ele>277.039063</ele>
<time>2012-07-21T15:59:34Z</time>
<speed>0.010000</speed>
<extensions>
<speed>0.0</speed>
<temp>0.00</temp>
<bpm>0</bpm>
<rpm>0.00</rpm>
</extensions>
</trkpt>
<trkpt lat="64.087387085" lon="-19.674680710">
<ele>277.046875</ele>
<time>2012-07-21T15:59:39Z</time>
<extensions>
<speed>0.0</speed>
<temp>0.00</temp>
<bpm>0</bpm>
<rpm>0.00</rpm>
</extensions>
</trkpt>
<trkpt lat="64.087387085" lon="-19.674680710">
<ele>277.031250</ele>
<time>2012-07-21T15:59:44Z</time>
<speed>0.010000</speed>
<extensions>
<speed>0.0</speed>
<temp>0.00</temp>
<bpm>0</bpm>
<rpm>0.00</rpm>
</extensions>
</trkpt>
<trkpt lat="64.087387085" lon="-19.674680710">
<ele>277.023438</ele>
<time>2012-07-21T15:59:49Z</time>
<speed>0.010000</speed>
<extensions>
<speed>0.0</speed>
<temp>0.00</temp>
<bpm>0</bpm>
<rpm>0.00</rpm>
</extensions>
</trkpt>
<trkpt lat="64.087387085" lon="-19.674680710">
<ele>277.015625</ele>
<time>2012-07-21T15:59:54Z</time>
<extensions>
<speed>0.0</speed>
<temp>0.00</temp>
<bpm>0</bpm>
<rpm>0.00</rpm>
</extensions>
</trkpt>
<trkpt lat="64.087387085" lon="-19.674680710">
<ele>277.007813</ele>
<time>2012-07-21T15:59:59Z</time>
<speed>0.030000</speed>
<extensions>
<speed>0.0</speed>
<temp>0.00</temp>
<bpm>0</bpm>
<rpm>0.00</rpm>
</extensions>
</trkpt>
<trkpt lat="64.087387085" lon="-19.674680710">
<ele>276.992188</ele>
<time>2012-07-21T16:00:04Z</time>
<speed>0.010000</speed>
<extensions>
<speed>0.0</speed>
<temp>0.00</temp>
<bpm>0</bpm>
<rpm>0.00</rpm>
</extensions>
</trkpt>
<trkpt lat="64.087387085" lon="-19.674680710">
<ele>276.960938</ele>
<time>2012-07-21T16:00:09Z</time>
<speed>0.010000</speed>
<extensions>
<speed>0.0</speed>
<temp>0.00</temp>
<bpm>0</bpm>
<rpm>0.00</rpm>
</extensions>
</trkpt>
<trkpt lat="64.087387085" lon="-19.674680710">
<ele>276.945313</ele>
<time>2012-07-21T16:00:14Z</time>
<speed>0.010000</speed>
<extensions>
<speed>0.0</speed>
<temp>0.00</temp>
<bpm>0</bpm>
<rpm>0.00</rpm>
</extensions>
</trkpt>
<trkpt lat="64.087387085" lon="-19.674680710">
<ele>276.914063</ele>
<time>2012-07-21T16:00:19Z</time>
<speed>0.020000</speed>
<extensions>
<speed>0.0</speed>
<temp>0.00</temp>
<bpm>0</bpm>
<rpm>0.00</rpm>
</extensions>
</trkpt>
<trkpt lat="64.087387085" lon="-19.674678802">
<ele>276.906250</ele>
<time>2012-07-21T16:00:24Z</time>
<speed>0.010000</speed>
<extensions>
<speed>0.0</speed>
<temp>0.00</temp>
<bpm>0</bpm>
<rpm>0.00</rpm>
</extensions>
</trkpt>
<trkpt lat="64.087387085" lon="-19.674680710">
<ele>276.898438</ele>
<time>2012-07-21T16:00:29Z</time>
<speed>0.010000</speed>
<extensions>
<speed>0.0</speed>
<temp>0.00</temp>
<bpm>0</bpm>
<rpm>0.00</rpm>
</extensions>
</trkpt>
<trkpt lat="64.087387085" lon="-19.674680710">
<ele>276.867188</ele>
<time>2012-07-21T16:00:34Z</time>
<speed>0.010000</speed>
<extensions>
<speed>0.0</speed>
<temp>0.00</temp>
<bpm>0</bpm>
<rpm>0.00</rpm>
</extensions>
</trkpt>
<trkpt lat="64.087387085" lon="-19.674678802">
<ele>276.851563</ele>
<time>2012-07-21T16:00:39Z</time>
<speed>0.010000</speed>
<extensions>
<speed>0.0</speed>
<temp>0.00</temp>
<bpm>0</bpm>
<rpm>0.00</rpm>
</extensions>
</trkpt>
<trkpt lat="64.087387085" lon="-19.674678802">
<ele>276.828125</ele>
<time>2012-07-21T16:00:44Z</time>
<extensions>
<speed>0.0</speed>
<temp>0.00</temp>
<bpm>0</bpm>
<rpm>0.00</rpm>
</extensions>
</trkpt>
<trkpt lat="64.087387085" lon="-19.674678802">
<ele>276.820313</ele>
<time>2012-07-21T16:00:49Z</time>
<speed>0.010000</speed>
<extensions>
<speed>0.0</speed>
<temp>0.00</temp>
<bpm>0</bpm>
<rpm>0.00</rpm>
</extensions>
</trkpt>
<trkpt lat="64.087387085" lon="-19.674678802">
<ele>276.804688</ele>
<time>2012-07-21T16:00:54Z</time>
<speed>0.010000</speed>
<extensions>
<speed>0.0</speed>
<temp>0.00</temp>
<bpm>0</bpm>
<rpm>0.00</rpm>
</extensions>
</trkpt>
<trkpt lat="64.087387085" lon="-19.674678802">
<ele>276.781250</ele>
<time>2012-07-21T16:00:59Z</time>
<speed>0.020000</speed>
<extensions>
<speed>0.0</speed>
<temp>0.00</temp>
<bpm>0</bpm>
<rpm>0.00</rpm>
</extensions>
</trkpt>
<trkpt lat="64.087387085" lon="-19.674678802">
<ele>276.757813</ele>
<time>2012-07-21T16:01:04Z</time>
<speed>0.020000</speed>
<extensions>
<speed>0.0</speed>
<temp>0.00</temp>
<bpm>0</bpm>
<rpm>0.00</rpm>
</extensions>
</trkpt>
<trkpt lat="64.087387085" lon="-19.674678802">
<ele>276.742188</ele>
<time>2012-07-21T16:01:09Z</time>
<extensions>
<speed>0.0</speed>
<temp>0.00</temp>
<bpm>0</bpm>
<rpm>0.00</rpm>
</extensions>
</trkpt>
<trkpt lat="64.087387085" lon="-19.674678802">
<ele>276.710938</ele>
<time>2012-07-21T16:01:14Z</time>
<speed>0.010000</speed>
<extensions>
<speed>0.0</speed>
<temp>0.00</temp>
<bpm>0</bpm>
<rpm>0.00</rpm>
</extensions>
</trkpt>
<trkpt lat="64.087387085" lon="-19.674678802">
<ele>276.703125</ele>
<time>2012-07-21T16:01:19Z</time>
<speed>0.010000</speed>
<extensions>
<speed>0.0</speed>
<temp>0.00</temp>
<bpm>0</bpm>
<rpm>0.00</rpm>
</extensions>
</trkpt>
<trkpt lat="64.087387085" lon="-19.674678802">
<ele>276.679688</ele>
<time>2012-07-21T16:01:24Z</time>
<speed>0.010000</speed>
<extensions>
<speed>0.0</speed>
<temp>0.00</temp>
<bpm>0</bpm>
<rpm>0.00</rpm>
</extensions>
</trkpt>
<trkpt lat="64.087387085" lon="-19.674678802">
<ele>276.656250</ele>
<time>2012-07-21T16:01:29Z</time>
<extensions>
<speed>0.0</speed>
<temp>0.00</temp>
<bpm>0</bpm>
<rpm>0.00</rpm>
</extensions>
</trkpt>
<trkpt lat="64.087387085" lon="-19.674678802">
<ele>276.648438</ele>
<time>2012-07-21T16:01:34Z</time>
<speed>0.020000</speed>
<extensions>
<speed>0.0</speed>
<temp>0.00</temp>
<bpm>0</bpm>
<rpm>0.00</rpm>
</extensions>
</trkpt>
<trkpt lat="64.087387085" lon="-19.674678802">
<ele>276.632813</ele>
<time>2012-07-21T16:01:39Z</time>
<speed>0.010000</speed>
<extensions>
<speed>0.0</speed>
<temp>0.00</temp>
<bpm>0</bpm>
<rpm>0.00</rpm>
</extensions>
</trkpt>
<trkpt lat="64.087387085" lon="-19.674678802">
<ele>276.617188</ele>
<time>2012-07-21T16:01:44Z</time>
<speed>0.010000</speed>
<extensions>
<speed>0.0</speed>
<temp>0.00</temp>
<bpm>0</bpm>
<rpm>0.00</rpm>
</extensions>
</trkpt>
<trkpt lat="64.087387085" lon="-19.674678802">
<ele>276.609375</ele>
<time>2012-07-21T16:01:49Z</time>
<speed>0.010000</speed>
<extensions>
<speed>0.0</speed>
<temp>0.00</temp>
<bpm>0</bpm>
<rpm>0.00</rpm>
</extensions>
</trkpt>
<trkpt lat="64.087387085" lon="-19.674678802">
<ele>276.593750</ele>
<time>2012-07-21T16:01:54Z</time>
<extensions>
<speed>0.0</speed>
<temp>0.00</temp>
<bpm>0</bpm>
<rpm>0.00</rpm>
</extensions>
</trkpt>
<trkpt lat="64.087387085" lon="-19.674678802">
<ele>276.578125</ele>
<time>2012-07-21T16:01:59Z</time>
<extensions>
<speed>0.0</speed>
<temp>0.00</temp>
<bpm>0</bpm>
<rpm>0.00</rpm>
</extensions>
</trkpt>
<trkpt lat="64.087387085" lon="-19.674678802">
<ele>276.562500</ele>
<time>2012-07-21T16:02:04Z</time>
<speed>0.010000</speed>
<extensions>
<speed>0.0</speed>
<temp>0.00</temp>
<bpm>0</bpm>
<rpm>0.00</rpm>
</extensions>
</trkpt>
<trkpt lat="64.087387085" lon="-19.674678802">
<ele>276.531250</ele>
<time>2012-07-21T16:02:09Z</time>
<speed>0.020000</speed>
<extensions>
<speed>0.0</speed>
<temp>0.00</temp>
<bpm>0</bpm>
<rpm>0.00</rpm>
</extensions>
</trkpt>
<trkpt lat="64.087387085" lon="-19.674678802">
<ele>276.523438</ele>
<time>2012-07-21T16:02:14Z</time>
<speed>0.020000</speed>
<extensions>
<speed>0.0</speed>
<temp>0.00</temp>
<bpm>0</bpm>
<rpm>0.00</rpm>
</extensions>
</trkpt>
<trkpt lat="64.087387085" lon="-19.674678802">
<ele>276.531250</ele>
<time>2012-07-21T16:02:19Z</time>
<speed>0.020000</speed>
<extensions>
<speed>0.0</speed>
<temp>0.00</temp>
<bpm>0</bpm>
<rpm>0.00</rpm>
</extensions>
</trkpt>
<trkpt lat="64.087387085" lon="-19.674678802">
<ele>276.523438</ele>
<time>2012-07-21T16:02:24Z</time>
<speed>0.010000</speed>
<extensions>
<speed>0.0</speed>
<temp>0.00</temp>
<bpm>0</bpm>
<rpm>0.00</rpm>
</extensions>
</trkpt>
<trkpt lat="64.087387085" lon="-19.674678802">
<ele>276.531250</ele>
<time>2012-07-21T16:02:29Z</time>
<speed>0.030000</speed>
<extensions>
<speed>0.0</speed>
<temp>0.00</temp>
<bpm>0</bpm>
<rpm>0.00</rpm>
</extensions>
</trkpt>
<trkpt lat="64.087387085" lon="-19.674678802">
<ele>276.523438</ele>
<time>2012-07-21T16:02:34Z</time>
<extensions>
<speed>0.0</speed>
<temp>0.00</temp>
<bpm>0</bpm>
<rpm>0.00</rpm>
</extensions>
</trkpt>
<trkpt lat="64.087387085" lon="-19.674678802">
<ele>276.507813</ele>
<time>2012-07-21T16:02:39Z</time>
<speed>0.010000</speed>
<extensions>
<speed>0.0</speed>
<temp>0.00</temp>
<bpm>0</bpm>
<rpm>0.00</rpm>
</extensions>
</trkpt>
<trkpt lat="64.087387085" lon="-19.674678802">
<ele>276.500000</ele>
<time>2012-07-21T16:02:44Z</time>
<speed>0.010000</speed>
<extensions>
<speed>0.0</speed>
<temp>0.00</temp>
<bpm>0</bpm>
<rpm>0.00</rpm>
</extensions>
</trkpt>
<trkpt lat="64.087387085" lon="-19.674678802">
<ele>276.476563</ele>
<time>2012-07-21T16:02:49Z</time>
<speed>0.020000</speed>
<extensions>
<speed>0.0</speed>
<temp>0.00</temp>
<bpm>0</bpm>
<rpm>0.00</rpm>
</extensions>
</trkpt>
<trkpt lat="64.087387085" lon="-19.674678802">
<ele>276.460938</ele>
<time>2012-07-21T16:02:54Z</time>
<extensions>
<speed>0.0</speed>
<temp>0.00</temp>
<bpm>0</bpm>
<rpm>0.00</rpm>
</extensions>
</trkpt>
<trkpt lat="64.087387085" lon="-19.674678802">
<ele>276.460938</ele>
<time>2012-07-21T16:02:59Z</time>
<extensions>
<speed>0.0</speed>
<temp>0.00</temp>
<bpm>0</bpm>
<rpm>0.00</rpm>
</extensions>
</trkpt>
<trkpt lat="64.087387085" lon="-19.674678802">
<ele>276.445313</ele>
<time>2012-07-21T16:03:04Z</time>
<extensions>
<speed>0.0</speed>
<temp>0.00</temp>
<bpm>0</bpm>
<rpm>0.00</rpm>
</extensions>
</trkpt>
<trkpt lat="64.087387085" lon="-19.674678802">
<ele>276.429688</ele>
<time>2012-07-21T16:03:09Z</time>
<extensions>
<speed>0.0</speed>
<temp>0.00</temp>
<bpm>0</bpm>
<rpm>0.00</rpm>
</extensions>
</trkpt>
<trkpt lat="64.087387085" lon="-19.674678802">
<ele>276.414063</ele>
<time>2012-07-21T16:03:14Z</time>
<speed>0.010000</speed>
<extensions>
<speed>0.0</speed>
<temp>0.00</temp>
<bpm>0</bpm>
<rpm>0.00</rpm>
</extensions>
</trkpt>
<trkpt lat="64.087387085" lon="-19.674678802">
<ele>276.390625</ele>
<time>2012-07-21T16:03:19Z</time>
<speed>0.010000</speed>
<extensions>
<speed>0.0</speed>
<temp>0.00</temp>
<bpm>0</bpm>
<rpm>0.00</rpm>
</extensions>
</trkpt>
<trkpt lat="64.087387085" lon="-19.674678802">
<ele>276.382813</ele>
<time>2012-07-21T16:03:24Z</time>
<extensions>
<speed>0.0</speed>
<temp>0.00</temp>
<bpm>0</bpm>
<rpm>0.00</rpm>
</extensions>
</trkpt>
<trkpt lat="64.087387085" lon="-19.674678802">
<ele>276.382813</ele>
<time>2012-07-21T16:03:29Z</time>
<extensions>
<speed>0.0</speed>
<temp>0.00</temp>
<bpm>0</bpm>
<rpm>0.00</rpm>
</extensions>
</trkpt>
<trkpt lat="64.087387085" lon="-19.674678802">
<ele>276.367188</ele>
<time>2012-07-21T16:03:34Z</time>
<extensions>
<speed>0.0</speed>
<temp>0.00</temp>
<bpm>0</bpm>
<rpm>0.00</rpm>
</extensions>
</trkpt>
<trkpt lat="64.087387085" lon="-19.674678802">
<ele>276.359375</ele>
<time>2012-07-21T16:03:39Z</time>
<speed>0.010000</speed>
<extensions>
<speed>0.0</speed>
<temp>0.00</temp>
<bpm>0</bpm>
<rpm>0.00</rpm>
</extensions>
</trkpt>
<trkpt lat="64.087387085" lon="-19.674678802">
<ele>276.351563</ele>
<time>2012-07-21T16:03:44Z</time>
<speed>0.010000</speed>
<extensions>
<speed>0.0</speed>
<temp>0.00</temp>
<bpm>0</bpm>
<rpm>0.00</rpm>
</extensions>
</trkpt>
<trkpt lat="64.087387085" lon="-19.674678802">
<ele>276.343750</ele>
<time>2012-07-21T16:03:49Z</time>
<extensions>
<speed>0.0</speed>
<temp>0.00</temp>
<bpm>0</bpm>
<rpm>0.00</rpm>
</extensions>
</trkpt>
<trkpt lat="64.087387085" lon="-19.674678802">
<ele>276.343750</ele>
<time>2012-07-21T16:03:54Z</time>
<speed>0.010000</speed>
<extensions>
<speed>0.0</speed>
<temp>0.00</temp>
<bpm>0</bpm>
<rpm>0.00</rpm>
</extensions>
</trkpt>
<trkpt lat="64.087387085" lon="-19.674678802">
<ele>276.320313</ele>
<time>2012-07-21T16:03:59Z</time>
<extensions>
<speed>0.0</speed>
<temp>0.00</temp>
<bpm>0</bpm>
<rpm>0.00</rpm>
</extensions>
</trkpt>
<trkpt lat="64.087387085" lon="-19.674678802">
<ele>276.312500</ele>
<time>2012-07-21T16:04:04Z</time>
<extensions>
<speed>0.0</speed>
<temp>0.00</temp>
<bpm>0</bpm>
<rpm>0.00</rpm>
</extensions>
</trkpt>
<trkpt lat="64.087387085" lon="-19.674678802">
<ele>276.304688</ele>
<time>2012-07-21T16:04:09Z</time>
<extensions>
<speed>0.0</speed>
<temp>0.00</temp>
<bpm>0</bpm>
<rpm>0.00</rpm>
</extensions>
</trkpt>
<trkpt lat="64.087387085" lon="-19.674678802">
<ele>276.296875</ele>
<time>2012-07-21T16:04:14Z</time>
<speed>0.010000</speed>
<extensions>
<speed>0.0</speed>
<temp>0.00</temp>
<bpm>0</bpm>
<rpm>0.00</rpm>
</extensions>
</trkpt>
<trkpt lat="64.087387085" lon="-19.674678802">
<ele>276.281250</ele>
<time>2012-07-21T16:04:19Z</time>
<speed>0.020000</speed>
<extensions>
<speed>0.0</speed>
<temp>0.00</temp>
<bpm>0</bpm>
<rpm>0.00</rpm>
</extensions>
</trkpt>
<trkpt lat="64.087387085" lon="-19.674678802">
<ele>276.273438</ele>
<time>2012-07-21T16:04:24Z</time>
<extensions>
<speed>0.0</speed>
<temp>0.00</temp>
<bpm>0</bpm>
<rpm>0.00</rpm>
</extensions>
</trkpt>
<trkpt lat="64.087387085" lon="-19.674678802">
<ele>276.265625</ele>
<time>2012-07-21T16:04:29Z</time>
<speed>0.010000</speed>
<extensions>
<speed>0.0</speed>
<temp>0.00</temp>
<bpm>0</bpm>
<rpm>0.00</rpm>
</extensions>
</trkpt>
<trkpt lat="64.087387085" lon="-19.674678802">
<ele>276.257813</ele>
<time>2012-07-21T16:04:34Z</time>
<extensions>
<speed>0.0</speed>
<temp>0.00</temp>
<bpm>0</bpm>
<rpm>0.00</rpm>
</extensions>
</trkpt>
<trkpt lat="64.087387085" lon="-19.674678802">
<ele>276.250000</ele>
<time>2012-07-21T16:04:39Z</time>
<speed>0.010000</speed>
<extensions>
<speed>0.0</speed>
<temp>0.00</temp>
<bpm>0</bpm>
<rpm>0.00</rpm>
</extensions>
</trkpt>
<trkpt lat="64.087387085" lon="-19.674678802">
<ele>276.242188</ele>
<time>2012-07-21T16:04:44Z</time>
<speed>0.010000</speed>
<extensions>
<speed>0.0</speed>
<temp>0.00</temp>
<bpm>0</bpm>
<rpm>0.00</rpm>
</extensions>
</trkpt>
<trkpt lat="64.087387085" lon="-19.674678802">
<ele>276.234375</ele>
<time>2012-07-21T16:04:49Z</time>
<speed>0.030000</speed>
<extensions>
<speed>0.0</speed>
<temp>0.00</temp>
<bpm>0</bpm>
<rpm>0.00</rpm>
</extensions>
</trkpt>
<trkpt lat="64.087387085" lon="-19.674678802">
<ele>276.218750</ele>
<time>2012-07-21T16:04:54Z</time>
<speed>0.010000</speed>
<extensions>
<speed>0.0</speed>
<temp>0.00</temp>
<bpm>0</bpm>
<rpm>0.00</rpm>
</extensions>
</trkpt>
<trkpt lat="64.087387085" lon="-19.674678802">
<ele>276.218750</ele>
<time>2012-07-21T16:04:59Z</time>
<speed>0.010000</speed>
<extensions>
<speed>0.0</speed>
<temp>0.00</temp>
<bpm>0</bpm>
<rpm>0.00</rpm>
</extensions>
</trkpt>
<trkpt lat="64.087387085" lon="-19.674680710">
<ele>276.210938</ele>
<time>2012-07-21T16:05:04Z</time>
<speed>0.020000</speed>
<extensions>
<speed>0.0</speed>
<temp>0.00</temp>
<bpm>0</bpm>
<rpm>0.00</rpm>
</extensions>
</trkpt>
<trkpt lat="64.087387085" lon="-19.674680710">
<ele>276.203125</ele>
<time>2012-07-21T16:05:09Z</time>
<extensions>
<speed>0.0</speed>
<temp>0.00</temp>
<bpm>0</bpm>
<rpm>0.00</rpm>
</extensions>
</trkpt>
<trkpt lat="64.087387085" lon="-19.674680710">
<ele>276.195313</ele>
<time>2012-07-21T16:05:14Z</time>
<extensions>
<speed>0.0</speed>
<temp>0.00</temp>
<bpm>0</bpm>
<rpm>0.00</rpm>
</extensions>
</trkpt>
<trkpt lat="64.087387085" lon="-19.674680710">
<ele>276.187500</ele>
<time>2012-07-21T16:05:19Z</time>
<extensions>
<speed>0.0</speed>
<temp>0.00</temp>
<bpm>0</bpm>
<rpm>0.00</rpm>
</extensions>
</trkpt>
<trkpt lat="64.087387085" lon="-19.674680710">
<ele>276.171875</ele>
<time>2012-07-21T16:05:24Z</time>
<speed>0.010000</speed>
<extensions>
<speed>0.0</speed>
<temp>0.00</temp>
<bpm>0</bpm>
<rpm>0.00</rpm>
</extensions>
</trkpt>
<trkpt lat="64.087387085" lon="-19.674680710">
<ele>276.148438</ele>
<time>2012-07-21T16:05:29Z</time>
<extensions>
<speed>0.0</speed>
<temp>0.00</temp>
<bpm>0</bpm>
<rpm>0.00</rpm>
</extensions>
</trkpt>
<trkpt lat="64.087387085" lon="-19.674680710">
<ele>276.132813</ele>
<time>2012-07-21T16:05:34Z</time>
<speed>0.010000</speed>
<extensions>
<speed>0.0</speed>
<temp>0.00</temp>
<bpm>0</bpm>
<rpm>0.00</rpm>
</extensions>
</trkpt>
<trkpt lat="64.087387085" lon="-19.674680710">
<ele>276.125000</ele>
<time>2012-07-21T16:05:39Z</time>
<extensions>
<speed>0.0</speed>
<temp>0.00</temp>
<bpm>0</bpm>
<rpm>0.00</rpm>
</extensions>
</trkpt>
<trkpt lat="64.087387085" lon="-19.674680710">
<ele>276.109375</ele>
<time>2012-07-21T16:05:44Z</time>
<speed>0.010000</speed>
<extensions>
<speed>0.0</speed>
<temp>0.00</temp>
<bpm>0</bpm>
<rpm>0.00</rpm>
</extensions>
</trkpt>
<trkpt lat="64.087387085" lon="-19.674680710">
<ele>276.109375</ele>
<time>2012-07-21T16:05:49Z</time>
<speed>0.020000</speed>
<extensions>
<speed>0.0</speed>
<temp>0.00</temp>
<bpm>0</bpm>
<rpm>0.00</rpm>
</extensions>
</trkpt>
<trkpt lat="64.087387085" lon="-19.674680710">
<ele>276.109375</ele>
<time>2012-07-21T16:05:54Z</time>
<speed>0.010000</speed>
<extensions>
<speed>0.0</speed>
<temp>0.00</temp>
<bpm>0</bpm>
<rpm>0.00</rpm>
</extensions>
</trkpt>
<trkpt lat="64.087387085" lon="-19.674680710">
<ele>276.101563</ele>
<time>2012-07-21T16:05:59Z</time>
<speed>0.010000</speed>
<extensions>
<speed>0.0</speed>
<temp>0.00</temp>
<bpm>0</bpm>
<rpm>0.00</rpm>
</extensions>
</trkpt>
<trkpt lat="64.087387085" lon="-19.674682617">
<ele>276.093750</ele>
<time>2012-07-21T16:06:04Z</time>
<speed>0.010000</speed>
<extensions>
<speed>0.0</speed>
<temp>0.00</temp>
<bpm>0</bpm>
<rpm>0.00</rpm>
</extensions>
</trkpt>
<trkpt lat="64.087387085" lon="-19.674682617">
<ele>276.093750</ele>
<time>2012-07-21T16:06:09Z</time>
<extensions>
<speed>0.0</speed>
<temp>0.00</temp>
<bpm>0</bpm>
<rpm>0.00</rpm>
</extensions>
</trkpt>
<trkpt lat="64.087387085" lon="-19.674682617">
<ele>276.085938</ele>
<time>2012-07-21T16:06:14Z</time>
<speed>0.010000</speed>
<extensions>
<speed>0.0</speed>
<temp>0.00</temp>
<bpm>0</bpm>
<rpm>0.00</rpm>
</extensions>
</trkpt>
<trkpt lat="64.087387085" lon="-19.674682617">
<ele>276.085938</ele>
<time>2012-07-21T16:06:19Z</time>
<extensions>
<speed>0.0</speed>
<temp>0.00</temp>
<bpm>0</bpm>
<rpm>0.00</rpm>
</extensions>
</trkpt>
<trkpt lat="64.087387085" lon="-19.674682617">
<ele>276.078125</ele>
<time>2012-07-21T16:06:24Z</time>
<speed>0.010000</speed>
<extensions>
<speed>0.0</speed>
<temp>0.00</temp>
<bpm>0</bpm>
<rpm>0.00</rpm>
</extensions>
</trkpt>
<trkpt lat="64.087387085" lon="-19.674682617">
<ele>276.078125</ele>
<time>2012-07-21T16:06:29Z</time>
<speed>0.020000</speed>
<extensions>
<speed>0.0</speed>
<temp>0.00</temp>
<bpm>0</bpm>
<rpm>0.00</rpm>
</extensions>
</trkpt>
<trkpt lat="64.087387085" lon="-19.674682617">
<ele>276.070313</ele>
<time>2012-07-21T16:06:34Z</time>
<extensions>
<speed>0.0</speed>
<temp>0.00</temp>
<bpm>0</bpm>
<rpm>0.00</rpm>
</extensions>
</trkpt>
<trkpt lat="64.087387085" lon="-19.674682617">
<ele>276.062500</ele>
<time>2012-07-21T16:06:39Z</time>
<speed>0.010000</speed>
<extensions>
<speed>0.0</speed>
<temp>0.00</temp>
<bpm>0</bpm>
<rpm>0.00</rpm>
</extensions>
</trkpt>
<trkpt lat="64.087387085" lon="-19.674682617">
<ele>276.046875</ele>
<time>2012-07-21T16:06:44Z</time>
<extensions>
<speed>0.0</speed>
<temp>0.00</temp>
<bpm>0</bpm>
<rpm>0.00</rpm>
</extensions>
</trkpt>
<trkpt lat="64.087387085" lon="-19.674682617">
<ele>276.039063</ele>
<time>2012-07-21T16:06:49Z</time>
<extensions>
<speed>0.0</speed>
<temp>0.00</temp>
<bpm>0</bpm>
<rpm>0.00</rpm>
</extensions>
</trkpt>
<trkpt lat="64.087387085" lon="-19.674682617">
<ele>276.031250</ele>
<time>2012-07-21T16:06:54Z</time>
<speed>0.010000</speed>
<extensions>
<speed>0.0</speed>
<temp>0.00</temp>
<bpm>0</bpm>
<rpm>0.00</rpm>
</extensions>
</trkpt>
<trkpt lat="64.087387085" lon="-19.674684525">
<ele>276.023438</ele>
<time>2012-07-21T16:06:59Z</time>
<speed>0.030000</speed>
<extensions>
<speed>0.0</speed>
<temp>0.00</temp>
<bpm>0</bpm>
<rpm>0.00</rpm>
</extensions>
</trkpt>
<trkpt lat="64.087387085" lon="-19.674684525">
<ele>276.023438</ele>
<time>2012-07-21T16:07:04Z</time>
<speed>0.020000</speed>
<extensions>
<speed>0.0</speed>
<temp>0.00</temp>
<bpm>0</bpm>
<rpm>0.00</rpm>
</extensions>
</trkpt>
<trkpt lat="64.087387085" lon="-19.674684525">
<ele>276.015625</ele>
<time>2012-07-21T16:07:09Z</time>
<extensions>
<speed>0.0</speed>
<temp>0.00</temp>
<bpm>0</bpm>
<rpm>0.00</rpm>
</extensions>
</trkpt>
<trkpt lat="64.087387085" lon="-19.674684525">
<ele>276.007813</ele>
<time>2012-07-21T16:07:14Z</time>
<speed>0.010000</speed>
<extensions>
<speed>0.0</speed>
<temp>0.00</temp>
<bpm>0</bpm>
<rpm>0.00</rpm>
</extensions>
</trkpt>
<trkpt lat="64.087387085" lon="-19.674684525">
<ele>276.015625</ele>
<time>2012-07-21T16:07:19Z</time>
<extensions>
<speed>0.0</speed>
<temp>0.00</temp>
<bpm>0</bpm>
<rpm>0.00</rpm>
</extensions>
</trkpt>
<trkpt lat="64.087387085" lon="-19.674684525">
<ele>276.000000</ele>
<time>2012-07-21T16:07:24Z</time>
<speed>0.010000</speed>
<extensions>
<speed>0.0</speed>
<temp>0.00</temp>
<bpm>0</bpm>
<rpm>0.00</rpm>
</extensions>
</trkpt>
<trkpt lat="64.087387085" lon="-19.674682617">
<ele>275.984375</ele>
<time>2012-07-21T16:07:29Z</time>
<speed>0.010000</speed>
<extensions>
<speed>0.0</speed>
<temp>0.00</temp>
<bpm>0</bpm>
<rpm>0.00</rpm>
</extensions>
</trkpt>
<trkpt lat="64.087387085" lon="-19.674682617">
<ele>275.976563</ele>
<time>2012-07-21T16:07:34Z</time>
<speed>0.010000</speed>
<extensions>
<speed>0.0</speed>
<temp>0.00</temp>
<bpm>0</bpm>
<rpm>0.00</rpm>
</extensions>
</trkpt>
<trkpt lat="64.087387085" lon="-19.674682617">
<ele>275.960938</ele>
<time>2012-07-21T16:07:39Z</time>
<extensions>
<speed>0.0</speed>
<temp>0.00</temp>
<bpm>0</bpm>
<rpm>0.00</rpm>
</extensions>
</trkpt>
<trkpt lat="64.087387085" lon="-19.674684525">
<ele>275.953125</ele>
<time>2012-07-21T16:07:44Z</time>
<speed>0.100000</speed>
<extensions>
<speed>0.1</speed>
<temp>0.00</temp>
<bpm>0</bpm>
<rpm>0.00</rpm>
</extensions>
</trkpt>
<trkpt lat="64.087387085" lon="-19.674684525">
<ele>275.953125</ele>
<time>2012-07-21T16:07:49Z</time>
<speed>0.160000</speed>
<extensions>
<speed>0.2</speed>
<temp>0.00</temp>
<bpm>0</bpm>
<rpm>0.00</rpm>
</extensions>
</trkpt>
<trkpt lat="64.087402344" lon="-19.674526215">
<ele>276.226563</ele>
<time>2012-07-21T16:07:54Z</time>
<speed>2.200000</speed>
<extensions>
<speed>2.2</speed>
<temp>0.00</temp>
<bpm>0</bpm>
<rpm>0.00</rpm>
</extensions>
</trkpt>
<trkpt lat="64.087432861" lon="-19.674259186">
<ele>275.554688</ele>
<time>2012-07-21T16:07:59Z</time>
<speed>2.590000</speed>
<extensions>
<speed>2.6</speed>
<temp>0.00</temp>
<bpm>0</bpm>
<rpm>0.00</rpm>
</extensions>
</trkpt>
<trkpt lat="64.087478638" lon="-19.674026489">
<ele>274.929688</ele>
<time>2012-07-21T16:08:04Z</time>
<speed>2.540000</speed>
<extensions>
<speed>2.5</speed>
<temp>0.00</temp>
<bpm>0</bpm>
<rpm>0.00</rpm>
</extensions>
</trkpt>
<trkpt lat="64.087539673" lon="-19.673801422">
<ele>274.992188</ele>
<time>2012-07-21T16:08:09Z</time>
<speed>2.600000</speed>
<extensions>
<speed>2.6</speed>
<temp>0.00</temp>
<bpm>0</bpm>
<rpm>0.00</rpm>
</extensions>
</trkpt>
<trkpt lat="64.087600708" lon="-19.673559189">
<ele>274.367188</ele>
<time>2012-07-21T16:08:14Z</time>
<speed>2.460000</speed>
<extensions>
<speed>2.5</speed>
<temp>0.00</temp>
<bpm>0</bpm>
<rpm>0.00</rpm>
</extensions>
</trkpt>
<trkpt lat="64.087646484" lon="-19.673324585">
<ele>274.906250</ele>
<time>2012-07-21T16:08:19Z</time>
<speed>2.500000</speed>
<extensions>
<speed>2.5</speed>
<temp>0.00</temp>
<bpm>0</bpm>
<rpm>0.00</rpm>
</extensions>
</trkpt>
<trkpt lat="64.087684631" lon="-19.673093796">
<ele>273.273438</ele>
<time>2012-07-21T16:08:24Z</time>
<speed>2.340000</speed>
<extensions>
<speed>2.3</speed>
<temp>0.00</temp>
<bpm>0</bpm>
<rpm>0.00</rpm>
</extensions>
</trkpt>
<trkpt lat="64.087722778" lon="-19.672880173">
<ele>271.132813</ele>
<time>2012-07-21T16:08:29Z</time>
<speed>2.430000</speed>
<extensions>
<speed>2.4</speed>
<temp>0.00</temp>
<bpm>0</bpm>
<rpm>0.00</rpm>
</extensions>
</trkpt>
<trkpt lat="64.087745667" lon="-19.672624588">
<ele>272.804688</ele>
<time>2012-07-21T16:08:34Z</time>
<speed>2.540000</speed>
<extensions>
<speed>2.5</speed>
<temp>0.00</temp>
<bpm>0</bpm>
<rpm>0.00</rpm>
</extensions>
</trkpt>
<trkpt lat="64.087760925" lon="-19.672389984">
<ele>272.304688</ele>
<time>2012-07-21T16:08:39Z</time>
<speed>1.860000</speed>
<extensions>
<speed>1.9</speed>
<temp>0.00</temp>
<bpm>0</bpm>
<rpm>0.00</rpm>
</extensions>
</trkpt>
<trkpt lat="64.087745667" lon="-19.672183990">
<ele>272.179688</ele>
<time>2012-07-21T16:08:44Z</time>
<speed>1.950000</speed>
<extensions>
<speed>1.9</speed>
<temp>0.00</temp>
<bpm>0</bpm>
<rpm>0.00</rpm>
</extensions>
</trkpt>
<trkpt lat="64.087760925" lon="-19.672046661">
<ele>272.140625</ele>
<time>2012-07-21T16:08:49Z</time>
<speed>1.120000</speed>
<extensions>
<speed>1.1</speed>
<temp>0.00</temp>
<bpm>0</bpm>
<rpm>0.00</rpm>
</extensions>
</trkpt>
<trkpt lat="64.087760925" lon="-19.671878815">
<ele>272.015625</ele>
<time>2012-07-21T16:08:54Z</time>
<speed>1.720000</speed>
<extensions>
<speed>1.7</speed>
<temp>0.00</temp>
<bpm>0</bpm>
<rpm>0.00</rpm>
</extensions>
</trkpt>
<trkpt lat="64.087760925" lon="-19.671691895">
<ele>272.000000</ele>
<time>2012-07-21T16:08:59Z</time>
<speed>1.660000</speed>
<extensions>
<speed>1.7</speed>
<temp>0.00</temp>
<bpm>0</bpm>
<rpm>0.00</rpm>
</extensions>
</trkpt>
<trkpt lat="64.087791443" lon="-19.671550751">
<ele>273.054688</ele>
<time>2012-07-21T16:09:04Z</time>
<speed>1.610000</speed>
<extensions>
<speed>1.6</speed>
<temp>0.00</temp>
<bpm>0</bpm>
<rpm>0.00</rpm>
</extensions>
</trkpt>
<trkpt lat="64.087783813" lon="-19.671396255">
<ele>273.429688</ele>
<time>2012-07-21T16:09:09Z</time>
<speed>1.050000</speed>
<extensions>
<speed>1.0</speed>
<temp>0.00</temp>
<bpm>0</bpm>
<rpm>0.00</rpm>
</extensions>
</trkpt>
<trkpt lat="64.087791443" lon="-19.671260834">
<ele>273.343750</ele>
<time>2012-07-21T16:09:14Z</time>
<speed>1.470000</speed>
<extensions>
<speed>1.5</speed>
<temp>0.00</temp>
<bpm>0</bpm>
<rpm>0.00</rpm>
</extensions>
</trkpt>
<trkpt lat="64.087799072" lon="-19.671052933">
<ele>272.734375</ele>
<time>2012-07-21T16:09:19Z</time>
<speed>2.270000</speed>
<extensions>
<speed>2.3</speed>
<temp>0.00</temp>
<bpm>0</bpm>
<rpm>0.00</rpm>
</extensions>
</trkpt>
<trkpt lat="64.087783813" lon="-19.670846939">
<ele>272.437500</ele>
<time>2012-07-21T16:09:24Z</time>
<speed>2.010000</speed>
<extensions>
<speed>2.0</speed>
<temp>0.00</temp>
<bpm>0</bpm>
<rpm>0.00</rpm>
</extensions>
</trkpt>
<trkpt lat="64.087814331" lon="-19.670644760">
<ele>272.281250</ele>
<time>2012-07-21T16:09:29Z</time>
<speed>2.210000</speed>
<extensions>
<speed>2.2</speed>
<temp>0.00</temp>
<bpm>0</bpm>
<rpm>0.00</rpm>
</extensions>
</trkpt>
<trkpt lat="64.087829590" lon="-19.670427322">
<ele>272.054688</ele>
<time>2012-07-21T16:09:34Z</time>
<speed>2.290000</speed>
<extensions>
<speed>2.3</speed>
<temp>0.00</temp>
<bpm>0</bpm>
<rpm>0.00</rpm>
</extensions>
</trkpt>
<trkpt lat="64.087829590" lon="-19.670200348">
<ele>272.320313</ele>
<time>2012-07-21T16:09:39Z</time>
<speed>2.350000</speed>
<extensions>
<speed>2.4</speed>
<temp>0.00</temp>
<bpm>0</bpm>
<rpm>0.00</rpm>
</extensions>
</trkpt>
<trkpt lat="64.087829590" lon="-19.669933319">
<ele>272.757813</ele>
<time>2012-07-21T16:09:44Z</time>
<speed>2.670000</speed>
<extensions>
<speed>2.7</speed>
<temp>0.00</temp>
<bpm>0</bpm>
<rpm>0.00</rpm>
</extensions>
</trkpt>
<trkpt lat="64.087821960" lon="-19.669662476">
<ele>272.906250</ele>
<time>2012-07-21T16:09:49Z</time>
<speed>2.490000</speed>
<extensions>
<speed>2.5</speed>
<temp>0.00</temp>
<bpm>0</bpm>
<rpm>0.00</rpm>
</extensions>
</trkpt>
<trkpt lat="64.087837219" lon="-19.669408798">
<ele>272.679688</ele>
<time>2012-07-21T16:09:54Z</time>
<speed>2.670000</speed>
<extensions>
<speed>2.7</speed>
<temp>0.00</temp>
<bpm>0</bpm>
<rpm>0.00</rpm>
</extensions>
</trkpt>
<trkpt lat="64.087852478" lon="-19.669124603">
<ele>272.960938</ele>
<time>2012-07-21T16:09:59Z</time>
<speed>2.780000</speed>
<extensions>
<speed>2.8</speed>
<temp>0.00</temp>
<bpm>0</bpm>
<rpm>0.00</rpm>
</extensions>
</trkpt>
<trkpt lat="64.087875366" lon="-19.668846130">
<ele>272.734375</ele>
<time>2012-07-21T16:10:04Z</time>
<speed>2.570000</speed>
<extensions>
<speed>2.6</speed>
<temp>0.00</temp>
<bpm>0</bpm>
<rpm>0.00</rpm>
</extensions>
</trkpt>
<trkpt lat="64.087898254" lon="-19.668561935">
<ele>273.007813</ele>
<time>2012-07-21T16:10:09Z</time>
<speed>2.690000</speed>
<extensions>
<speed>2.7</speed>
<temp>0.00</temp>
<bpm>0</bpm>
<rpm>0.00</rpm>
</extensions>
</trkpt>
<trkpt lat="64.087951660" lon="-19.668323517">
<ele>272.742188</ele>
<time>2012-07-21T16:10:14Z</time>
<speed>2.220000</speed>
<extensions>
<speed>2.2</speed>
<temp>0.00</temp>
<bpm>0</bpm>
<rpm>0.00</rpm>
</extensions>
</trkpt>
<trkpt lat="64.087982178" lon="-19.668107986">
<ele>273.976563</ele>
<time>2012-07-21T16:10:19Z</time>
<speed>1.330000</speed>
<extensions>
<speed>1.3</speed>
<temp>0.00</temp>
<bpm>0</bpm>
<rpm>0.00</rpm>
</extensions>
</trkpt>
<trkpt lat="64.088005066" lon="-19.667936325">
<ele>274.960938</ele>
<time>2012-07-21T16:10:24Z</time>
<speed>2.010000</speed>
<extensions>
<speed>2.0</speed>
<temp>0.00</temp>
<bpm>0</bpm>
<rpm>0.00</rpm>
</extensions>
</trkpt>
<trkpt lat="64.088050842" lon="-19.667755127">
<ele>275.828125</ele>
<time>2012-07-21T16:10:29Z</time>
<speed>2.370000</speed>
<extensions>
<speed>2.4</speed>
<temp>0.00</temp>
<bpm>0</bpm>
<rpm>0.00</rpm>
</extensions>
</trkpt>
<trkpt lat="64.088104248" lon="-19.667549133">
<ele>275.093750</ele>
<time>2012-07-21T16:10:34Z</time>
<speed>2.470000</speed>
<extensions>
<speed>2.5</speed>
<temp>0.00</temp>
<bpm>0</bpm>
<rpm>0.00</rpm>
</extensions>
</trkpt>
<trkpt lat="64.088165283" lon="-19.667327881">
<ele>274.718750</ele>
<time>2012-07-21T16:10:39Z</time>
<speed>2.840000</speed>
<extensions>
<speed>2.8</speed>
<temp>0.00</temp>
<bpm>0</bpm>
<rpm>0.00</rpm>
</extensions>
</trkpt>
<trkpt lat="64.088218689" lon="-19.667060852">
<ele>274.765625</ele>
<time>2012-07-21T16:10:44Z</time>
<speed>2.910000</speed>
<extensions>
<speed>2.9</speed>
<temp>0.00</temp>
<bpm>0</bpm>
<rpm>0.00</rpm>
</extensions>
</trkpt>
<trkpt lat="64.088249207" lon="-19.666761398">
<ele>274.835938</ele>
<time>2012-07-21T16:10:49Z</time>
<speed>2.610000</speed>
<extensions>
<speed>2.6</speed>
<temp>0.00</temp>
<bpm>0</bpm>
<rpm>0.00</rpm>
</extensions>
</trkpt>
<trkpt lat="64.088264465" lon="-19.666564941">
<ele>274.531250</ele>
<time>2012-07-21T16:10:54Z</time>
<speed>1.680000</speed>
<extensions>
<speed>1.7</speed>
<temp>0.00</temp>
<bpm>0</bpm>
<rpm>0.00</rpm>
</extensions>
</trkpt>
<trkpt lat="64.088272095" lon="-19.666334152">
<ele>274.546875</ele>
<time>2012-07-21T16:10:59Z</time>
<speed>2.650000</speed>
<extensions>
<speed>2.6</speed>
<temp>0.00</temp>
<bpm>0</bpm>
<rpm>0.00</rpm>
</extensions>
</trkpt>
<trkpt lat="64.088279724" lon="-19.666078568">
<ele>274.664063</ele>
<time>2012-07-21T16:11:04Z</time>
<speed>2.150000</speed>
<extensions>
<speed>2.1</speed>
<temp>0.00</temp>
<bpm>0</bpm>
<rpm>0.00</rpm>
</extensions>
</trkpt>
<trkpt lat="64.088294983" lon="-19.665830612">
<ele>274.171875</ele>
<time>2012-07-21T16:11:09Z</time>
<speed>2.600000</speed>
<extensions>
<speed>2.6</speed>
<temp>0.00</temp>
<bpm>0</bpm>
<rpm>0.00</rpm>
</extensions>
</trkpt>
<trkpt lat="64.088302612" lon="-19.665554047">
<ele>273.812500</ele>
<time>2012-07-21T16:11:14Z</time>
<speed>2.690000</speed>
<extensions>
<speed>2.7</speed>
<temp>0.00</temp>
<bpm>0</bpm>
<rpm>0.00</rpm>
</extensions>
</trkpt>
<trkpt lat="64.088317871" lon="-19.665290833">
<ele>274.023438</ele>
<time>2012-07-21T16:11:19Z</time>
<speed>2.270000</speed>
<extensions>
<speed>2.3</speed>
<temp>0.00</temp>
<bpm>0</bpm>
<rpm>0.00</rpm>
</extensions>
</trkpt>
<trkpt lat="64.088317871" lon="-19.665065765">
<ele>273.156250</ele>
<time>2012-07-21T16:11:24Z</time>
<speed>2.110000</speed>
<extensions>
<speed>2.1</speed>
<temp>0.00</temp>
<bpm>0</bpm>
<rpm>0.00</rpm>
</extensions>
</trkpt>
<trkpt lat="64.088325500" lon="-19.664852142">
<ele>273.640625</ele>
<time>2012-07-21T16:11:29Z</time>
<speed>1.980000</speed>
<extensions>
<speed>2.0</speed>
<temp>0.00</temp>
<bpm>0</bpm>
<rpm>0.00</rpm>
</extensions>
</trkpt>
<trkpt lat="64.088325500" lon="-19.664619446">
<ele>273.265625</ele>
<time>2012-07-21T16:11:34Z</time>
<speed>2.370000</speed>
<extensions>
<speed>2.4</speed>
<temp>0.00</temp>
<bpm>0</bpm>
<rpm>0.00</rpm>
</extensions>
</trkpt>
<trkpt lat="64.088325500" lon="-19.664369583">
<ele>273.242188</ele>
<time>2012-07-21T16:11:39Z</time>
<speed>2.540000</speed>
<extensions>
<speed>2.5</speed>
<temp>0.00</temp>
<bpm>0</bpm>
<rpm>0.00</rpm>
</extensions>
</trkpt>
<trkpt lat="64.088333130" lon="-19.664127350">
<ele>273.140625</ele>
<time>2012-07-21T16:11:44Z</time>
<speed>2.350000</speed>
<extensions>
<speed>2.4</speed>
<temp>0.00</temp>
<bpm>0</bpm>
<rpm>0.00</rpm>
</extensions>
</trkpt>
<trkpt lat="64.088340759" lon="-19.663888931">
<ele>273.125000</ele>
<time>2012-07-21T16:11:49Z</time>
<speed>2.440000</speed>
<extensions>
<speed>2.4</speed>
<temp>0.00</temp>
<bpm>0</bpm>
<rpm>0.00</rpm>
</extensions>
</trkpt>
<trkpt lat="64.088356018" lon="-19.663640976">
<ele>273.070313</ele>
<time>2012-07-21T16:11:54Z</time>
<speed>2.480000</speed>
<extensions>
<speed>2.5</speed>
<temp>0.00</temp>
<bpm>0</bpm>
<rpm>0.00</rpm>
</extensions>
</trkpt>
<trkpt lat="64.088371277" lon="-19.663455963">
<ele>273.195313</ele>
<time>2012-07-21T16:11:59Z</time>
<speed>1.640000</speed>
<extensions>
<speed>1.6</speed>
<temp>0.00</temp>
<bpm>0</bpm>
<rpm>0.00</rpm>
</extensions>
</trkpt>
<trkpt lat="64.088386536" lon="-19.663249969">
<ele>273.468750</ele>
<time>2012-07-21T16:12:04Z</time>
<speed>2.330000</speed>
<extensions>
<speed>2.3</speed>
<temp>0.00</temp>
<bpm>0</bpm>
<rpm>0.00</rpm>
</extensions>
</trkpt>
<trkpt lat="64.088424683" lon="-19.663017273">
<ele>272.859375</ele>
<time>2012-07-21T16:12:09Z</time>
<speed>2.450000</speed>
<extensions>
<speed>2.4</speed>
<temp>0.00</temp>
<bpm>0</bpm>
<rpm>0.00</rpm>
</extensions>
</trkpt>
<trkpt lat="64.088470459" lon="-19.662769318">
<ele>272.125000</ele>
<time>2012-07-21T16:12:14Z</time>
<speed>2.840000</speed>
<extensions>
<speed>2.8</speed>
<temp>0.00</temp>
<bpm>0</bpm>
<rpm>0.00</rpm>
</extensions>
</trkpt>
<trkpt lat="64.088500977" lon="-19.662504196">
<ele>272.093750</ele>
<time>2012-07-21T16:12:19Z</time>
<speed>2.820000</speed>
<extensions>
<speed>2.8</speed>
<temp>0.00</temp>
<bpm>0</bpm>
<rpm>0.00</rpm>
</extensions>
</trkpt>
<trkpt lat="64.088531494" lon="-19.662294388">
<ele>272.585938</ele>
<time>2012-07-21T16:12:24Z</time>
<speed>1.940000</speed>
<extensions>
<speed>1.9</speed>
<temp>0.00</temp>
<bpm>0</bpm>
<rpm>0.00</rpm>
</extensions>
</trkpt>
<trkpt lat="64.088600159" lon="-19.662143707">
<ele>269.046875</ele>
<time>2012-07-21T16:12:29Z</time>
<speed>2.030000</speed>
<extensions>
<speed>2.0</speed>
<temp>0.00</temp>
<bpm>0</bpm>
<rpm>0.00</rpm>
</extensions>
</trkpt>
<trkpt lat="64.088615417" lon="-19.661899567">
<ele>269.421875</ele>
<time>2012-07-21T16:12:34Z</time>
<speed>2.450000</speed>
<extensions>
<speed>2.4</speed>
<temp>0.00</temp>
<bpm>0</bpm>
<rpm>0.00</rpm>
</extensions>
</trkpt>
<trkpt lat="64.088653564" lon="-19.661672592">
<ele>269.179688</ele>
<time>2012-07-21T16:12:39Z</time>
<speed>2.450000</speed>
<extensions>
<speed>2.4</speed>
<temp>0.00</temp>
<bpm>0</bpm>
<rpm>0.00</rpm>
</extensions>
</trkpt>
<trkpt lat="64.088699341" lon="-19.661418915">
<ele>270.382813</ele>
<time>2012-07-21T16:12:44Z</time>
<speed>2.800000</speed>
<extensions>
<speed>2.8</speed>
<temp>0.00</temp>
<bpm>0</bpm>
<rpm>0.00</rpm>
</extensions>
</trkpt>
<trkpt lat="64.088737488" lon="-19.661233902">
<ele>270.445313</ele>
<time>2012-07-21T16:12:49Z</time>
<speed>1.440000</speed>
<extensions>
<speed>1.4</speed>
<temp>0.00</temp>
<bpm>0</bpm>
<rpm>0.00</rpm>
</extensions>
</trkpt>
<trkpt lat="64.088775635" lon="-19.661014557">
<ele>272.000000</ele>
<time>2012-07-21T16:12:54Z</time>
<speed>2.530000</speed>
<extensions>
<speed>2.5</speed>
<temp>0.00</temp>
<bpm>0</bpm>
<rpm>0.00</rpm>
</extensions>
</trkpt>
<trkpt lat="64.088798523" lon="-19.660818100">
<ele>273.476563</ele>
<time>2012-07-21T16:12:59Z</time>
<speed>1.690000</speed>
<extensions>
<speed>1.7</speed>
<temp>0.00</temp>
<bpm>0</bpm>
<rpm>0.00</rpm>
</extensions>
</trkpt>
<trkpt lat="64.088813782" lon="-19.660657883">
<ele>273.554688</ele>
<time>2012-07-21T16:13:04Z</time>
<speed>1.780000</speed>
<extensions>
<speed>1.8</speed>
<temp>0.00</temp>
<bpm>0</bpm>
<rpm>0.00</rpm>
</extensions>
</trkpt>
<trkpt lat="64.088821411" lon="-19.660480499">
<ele>273.609375</ele>
<time>2012-07-21T16:13:09Z</time>
<speed>1.240000</speed>
<extensions>
<speed>1.2</speed>
<temp>0.00</temp>
<bpm>0</bpm>
<rpm>0.00</rpm>
</extensions>
</trkpt>
<trkpt lat="64.088836670" lon="-19.660314560">
<ele>273.554688</ele>
<time>2012-07-21T16:13:14Z</time>
<speed>1.600000</speed>
<extensions>
<speed>1.6</speed>
<temp>0.00</temp>
<bpm>0</bpm>
<rpm>0.00</rpm>
</extensions>
</trkpt>
<trkpt lat="64.088851929" lon="-19.660100937">
<ele>273.375000</ele>
<time>2012-07-21T16:13:19Z</time>
<speed>1.910000</speed>
<extensions>
<speed>1.9</speed>
<temp>0.00</temp>
<bpm>0</bpm>
<rpm>0.00</rpm>
</extensions>
</trkpt>
<trkpt lat="64.088867188" lon="-19.659921646">
<ele>272.539063</ele>
<time>2012-07-21T16:13:24Z</time>
<speed>2.290000</speed>
<extensions>
<speed>2.3</speed>
<temp>0.00</temp>
<bpm>0</bpm>
<rpm>0.00</rpm>
</extensions>
</trkpt>
<trkpt lat="64.088890076" lon="-19.659688950">
<ele>272.625000</ele>
<time>2012-07-21T16:13:29Z</time>
<speed>2.420000</speed>
<extensions>
<speed>2.4</speed>
<temp>0.00</temp>
<bpm>0</bpm>
<rpm>0.00</rpm>
</extensions>
</trkpt>
<trkpt lat="64.088905334" lon="-19.659458160">
<ele>273.750000</ele>
<time>2012-07-21T16:13:34Z</time>
<speed>2.270000</speed>
<extensions>
<speed>2.3</speed>
<temp>0.00</temp>
<bpm>0</bpm>
<rpm>0.00</rpm>
</extensions>
</trkpt>
<trkpt lat="64.088928223" lon="-19.659242630">
<ele>273.312500</ele>
<time>2012-07-21T16:13:39Z</time>
<speed>2.080000</speed>
<extensions>
<speed>2.1</speed>
<temp>0.00</temp>
<bpm>0</bpm>
<rpm>0.00</rpm>
</extensions>
</trkpt>
<trkpt lat="64.088951111" lon="-19.659042358">
<ele>272.601563</ele>
<time>2012-07-21T16:13:44Z</time>
<speed>2.150000</speed>
<extensions>
<speed>2.1</speed>
<temp>0.00</temp>
<bpm>0</bpm>
<rpm>0.00</rpm>
</extensions>
</trkpt>
<trkpt lat="64.088981628" lon="-19.658845901">
<ele>272.750000</ele>
<time>2012-07-21T16:13:49Z</time>
<speed>1.910000</speed>
<extensions>
<speed>1.9</speed>
<temp>0.00</temp>
<bpm>0</bpm>
<rpm>0.00</rpm>
</extensions>
</trkpt>
<trkpt lat="64.089012146" lon="-19.658655167">
<ele>274.117188</ele>
<time>2012-07-21T16:13:54Z</time>
<speed>2.590000</speed>
<extensions>
<speed>2.6</speed>
<temp>0.00</temp>
<bpm>0</bpm>
<rpm>0.00</rpm>
</extensions>
</trkpt>
<trkpt lat="64.089065552" lon="-19.658432007">
<ele>274.085938</ele>
<time>2012-07-21T16:13:59Z</time>
<speed>2.640000</speed>
<extensions>
<speed>2.6</speed>
<temp>0.00</temp>
<bpm>0</bpm>
<rpm>0.00</rpm>
</extensions>
</trkpt>
<trkpt lat="64.089103699" lon="-19.658233643">
<ele>274.046875</ele>
<time>2012-07-21T16:14:04Z</time>
<speed>1.870000</speed>
<extensions>
<speed>1.9</speed>
<temp>0.00</temp>
<bpm>0</bpm>
<rpm>0.00</rpm>
</extensions>
</trkpt>
<trkpt lat="64.089126587" lon="-19.658103943">
<ele>273.242188</ele>
<time>2012-07-21T16:14:09Z</time>
<speed>1.560000</speed>
<extensions>
<speed>1.6</speed>
<temp>0.00</temp>
<bpm>0</bpm>
<rpm>0.00</rpm>
</extensions>
</trkpt>
<trkpt lat="64.089149475" lon="-19.657897949">
<ele>272.187500</ele>
<time>2012-07-21T16:14:14Z</time>
<speed>2.540000</speed>
<extensions>
<speed>2.5</speed>
<temp>0.00</temp>
<bpm>0</bpm>
<rpm>0.00</rpm>
</extensions>
</trkpt>
<trkpt lat="64.089164734" lon="-19.657623291">
<ele>271.773438</ele>
<time>2012-07-21T16:14:19Z</time>
<speed>2.630000</speed>
<extensions>
<speed>2.6</speed>
<temp>0.00</temp>
<bpm>0</bpm>
<rpm>0.00</rpm>
</extensions>
</trkpt>
<trkpt lat="64.089172363" lon="-19.657329559">
<ele>272.789063</ele>
<time>2012-07-21T16:14:24Z</time>
<speed>2.320000</speed>
<extensions>
<speed>2.3</speed>
<temp>0.00</temp>
<bpm>0</bpm>
<rpm>0.00</rpm>
</extensions>
</trkpt>
<trkpt lat="64.089172363" lon="-19.657087326">
<ele>273.546875</ele>
<time>2012-07-21T16:14:29Z</time>
<speed>2.750000</speed>
<extensions>
<speed>2.7</speed>
<temp>0.00</temp>
<bpm>0</bpm>
<rpm>0.00</rpm>
</extensions>
</trkpt>
<trkpt lat="64.089179993" lon="-19.656816483">
<ele>274.210938</ele>
<time>2012-07-21T16:14:34Z</time>
<speed>2.520000</speed>
<extensions>
<speed>2.5</speed>
<temp>0.00</temp>
<bpm>0</bpm>
<rpm>0.00</rpm>
</extensions>
</trkpt>
<trkpt lat="64.089187622" lon="-19.656562805">
<ele>273.921875</ele>
<time>2012-07-21T16:14:39Z</time>
<speed>2.470000</speed>
<extensions>
<speed>2.5</speed>
<temp>0.00</temp>
<bpm>0</bpm>
<rpm>0.00</rpm>
</extensions>
</trkpt>
<trkpt lat="64.089195251" lon="-19.656341553">
<ele>274.187500</ele>
<time>2012-07-21T16:14:44Z</time>
<speed>2.440000</speed>
<extensions>
<speed>2.4</speed>
<temp>0.00</temp>
<bpm>0</bpm>
<rpm>0.00</rpm>
</extensions>
</trkpt>
<trkpt lat="64.089218140" lon="-19.656070709">
<ele>273.929688</ele>
<time>2012-07-21T16:14:49Z</time>
<speed>2.780000</speed>
<extensions>
<speed>2.8</speed>
<temp>0.00</temp>
<bpm>0</bpm>
<rpm>0.00</rpm>
</extensions>
</trkpt>
<trkpt lat="64.089233398" lon="-19.655784607">
<ele>273.750000</ele>
<time>2012-07-21T16:14:54Z</time>
<speed>2.220000</speed>
<extensions>
<speed>2.2</speed>
<temp>0.00</temp>
<bpm>0</bpm>
<rpm>0.00</rpm>
</extensions>
</trkpt>
<trkpt lat="64.089256287" lon="-19.655523300">
<ele>271.203125</ele>
<time>2012-07-21T16:14:59Z</time>
<speed>3.040000</speed>
<extensions>
<speed>3.0</speed>
<temp>0.00</temp>
<bpm>0</bpm>
<rpm>0.00</rpm>
</extensions>
</trkpt>
<trkpt lat="64.089279175" lon="-19.655233383">
<ele>271.523438</ele>
<time>2012-07-21T16:15:04Z</time>
<speed>2.850000</speed>
<extensions>
<speed>2.9</speed>
<temp>0.00</temp>
<bpm>0</bpm>
<rpm>0.00</rpm>
</extensions>
</trkpt>
<trkpt lat="64.089294434" lon="-19.654939651">
<ele>271.890625</ele>
<time>2012-07-21T16:15:09Z</time>
<speed>3.020000</speed>
<extensions>
<speed>3.0</speed>
<temp>0.00</temp>
<bpm>0</bpm>
<rpm>0.00</rpm>
</extensions>
</trkpt>
<trkpt lat="64.089302063" lon="-19.654724121">
<ele>272.195313</ele>
<time>2012-07-21T16:15:14Z</time>
<speed>1.280000</speed>
<extensions>
<speed>1.3</speed>
<temp>0.00</temp>
<bpm>0</bpm>
<rpm>0.00</rpm>
</extensions>
</trkpt>
<trkpt lat="64.089309692" lon="-19.654552460">
<ele>272.117188</ele>
<time>2012-07-21T16:15:19Z</time>
<speed>2.110000</speed>
<extensions>
<speed>2.1</speed>
<temp>0.00</temp>
<bpm>0</bpm>
<rpm>0.00</rpm>
</extensions>
</trkpt>
<trkpt lat="64.089302063" lon="-19.654312134">
<ele>272.054688</ele>
<time>2012-07-21T16:15:24Z</time>
<speed>2.250000</speed>
<extensions>
<speed>2.3</speed>
<temp>0.00</temp>
<bpm>0</bpm>
<rpm>0.00</rpm>
</extensions>
</trkpt>
<trkpt lat="64.089294434" lon="-19.654117584">
<ele>271.414063</ele>
<time>2012-07-21T16:15:29Z</time>
<speed>1.700000</speed>
<extensions>
<speed>1.7</speed>
<temp>0.00</temp>
<bpm>0</bpm>
<rpm>0.00</rpm>
</extensions>
</trkpt>
<trkpt lat="64.089279175" lon="-19.653917313">
<ele>271.484375</ele>
<time>2012-07-21T16:15:34Z</time>
<speed>2.310000</speed>
<extensions>
<speed>2.3</speed>
<temp>0.00</temp>
<bpm>0</bpm>
<rpm>0.00</rpm>
</extensions>
</trkpt>
<trkpt lat="64.089256287" lon="-19.653699875">
<ele>272.125000</ele>
<time>2012-07-21T16:15:39Z</time>
<speed>2.090000</speed>
<extensions>
<speed>2.1</speed>
<temp>0.00</temp>
<bpm>0</bpm>
<rpm>0.00</rpm>
</extensions>
</trkpt>
<trkpt lat="64.089225769" lon="-19.653482437">
<ele>272.914063</ele>
<time>2012-07-21T16:15:44Z</time>
<speed>2.250000</speed>
<extensions>
<speed>2.3</speed>
<temp>0.00</temp>
<bpm>0</bpm>
<rpm>0.00</rpm>
</extensions>
</trkpt>
<trkpt lat="64.089210510" lon="-19.653268814">
<ele>273.617188</ele>
<time>2012-07-21T16:15:49Z</time>
<speed>2.110000</speed>
<extensions>
<speed>2.1</speed>
<temp>0.00</temp>
<bpm>0</bpm>
<rpm>0.00</rpm>
</extensions>
</trkpt>
<trkpt lat="64.089187622" lon="-19.653030396">
<ele>273.710938</ele>
<time>2012-07-21T16:15:54Z</time>
<speed>2.300000</speed>
<extensions>
<speed>2.3</speed>
<temp>0.00</temp>
<bpm>0</bpm>
<rpm>0.00</rpm>
</extensions>
</trkpt>
<trkpt lat="64.089172363" lon="-19.652769089">
<ele>272.890625</ele>
<time>2012-07-21T16:15:59Z</time>
<speed>2.440000</speed>
<extensions>
<speed>2.4</speed>
<temp>0.00</temp>
<bpm>0</bpm>
<rpm>0.00</rpm>
</extensions>
</trkpt>
<trkpt lat="64.089149475" lon="-19.652519226">
<ele>273.187500</ele>
<time>2012-07-21T16:16:04Z</time>
<speed>2.290000</speed>
<extensions>
<speed>2.3</speed>
<temp>0.00</temp>
<bpm>0</bpm>
<rpm>0.00</rpm>
</extensions>
</trkpt>
<trkpt lat="64.089126587" lon="-19.652355194">
<ele>272.742188</ele>
<time>2012-07-21T16:16:09Z</time>
<speed>1.590000</speed>
<extensions>
<speed>1.6</speed>
<temp>0.00</temp>
<bpm>0</bpm>
<rpm>0.00</rpm>
</extensions>
</trkpt>
<trkpt lat="64.089118958" lon="-19.652183533">
<ele>273.000000</ele>
<time>2012-07-21T16:16:14Z</time>
<speed>1.600000</speed>
<extensions>
<speed>1.6</speed>
<temp>0.00</temp>
<bpm>0</bpm>
<rpm>0.00</rpm>
</extensions>
</trkpt>
<trkpt lat="64.089096069" lon="-19.652025223">
<ele>272.914063</ele>
<time>2012-07-21T16:16:19Z</time>
<speed>1.570000</speed>
<extensions>
<speed>1.6</speed>
<temp>0.00</temp>
<bpm>0</bpm>
<rpm>0.00</rpm>
</extensions>
</trkpt>
<trkpt lat="64.089096069" lon="-19.651868820">
<ele>272.593750</ele>
<time>2012-07-21T16:16:24Z</time>
<speed>1.780000</speed>
<extensions>
<speed>1.8</speed>
<temp>0.00</temp>
<bpm>0</bpm>
<rpm>0.00</rpm>
</extensions>
</trkpt>
<trkpt lat="64.089080811" lon="-19.651693344">
<ele>273.656250</ele>
<time>2012-07-21T16:16:29Z</time>
<speed>1.800000</speed>
<extensions>
<speed>1.8</speed>
<temp>0.00</temp>
<bpm>0</bpm>
<rpm>0.00</rpm>
</extensions>
</trkpt>
<trkpt lat="64.089065552" lon="-19.651525497">
<ele>273.921875</ele>
<time>2012-07-21T16:16:34Z</time>
<speed>1.550000</speed>
<extensions>
<speed>1.5</speed>
<temp>0.00</temp>
<bpm>0</bpm>
<rpm>0.00</rpm>
</extensions>
</trkpt>
<trkpt lat="64.089050293" lon="-19.651390076">
<ele>273.789063</ele>
<time>2012-07-21T16:16:39Z</time>
<speed>1.710000</speed>
<extensions>
<speed>1.7</speed>
<temp>0.00</temp>
<bpm>0</bpm>
<rpm>0.00</rpm>
</extensions>
</trkpt>
<trkpt lat="64.089027405" lon="-19.651208878">
<ele>273.570313</ele>
<time>2012-07-21T16:16:44Z</time>
<speed>1.700000</speed>
<extensions>
<speed>1.7</speed>
<temp>0.00</temp>
<bpm>0</bpm>
<rpm>0.00</rpm>
</extensions>
</trkpt>
<trkpt lat="64.089042664" lon="-19.651029587">
<ele>272.148438</ele>
<time>2012-07-21T16:16:49Z</time>
<speed>1.690000</speed>
<extensions>
<speed>1.7</speed>
<temp>0.00</temp>
<bpm>0</bpm>
<rpm>0.00</rpm>
</extensions>
</trkpt>
<trkpt lat="64.089050293" lon="-19.650859833">
<ele>271.656250</ele>
<time>2012-07-21T16:16:54Z</time>
<speed>1.500000</speed>
<extensions>
<speed>1.5</speed>
<temp>0.00</temp>
<bpm>0</bpm>
<rpm>0.00</rpm>
</extensions>
</trkpt>
<trkpt lat="64.089050293" lon="-19.650709152">
<ele>272.335938</ele>
<time>2012-07-21T16:16:59Z</time>
<speed>1.130000</speed>
<extensions>
<speed>1.1</speed>
<temp>0.00</temp>
<bpm>0</bpm>
<rpm>0.00</rpm>
</extensions>
</trkpt>
<trkpt lat="64.089042664" lon="-19.650562286">
<ele>273.062500</ele>
<time>2012-07-21T16:17:04Z</time>
<speed>1.730000</speed>
<extensions>
<speed>1.7</speed>
<temp>0.00</temp>
<bpm>0</bpm>
<rpm>0.00</rpm>
</extensions>
</trkpt>
<trkpt lat="64.089050293" lon="-19.650411606">
<ele>272.031250</ele>
<time>2012-07-21T16:17:09Z</time>
<speed>1.720000</speed>
<extensions>
<speed>1.7</speed>
<temp>0.00</temp>
<bpm>0</bpm>
<rpm>0.00</rpm>
</extensions>
</trkpt>
<trkpt lat="64.089027405" lon="-19.650257111">
<ele>272.351563</ele>
<time>2012-07-21T16:17:14Z</time>
<speed>1.620000</speed>
<extensions>
<speed>1.6</speed>
<temp>0.00</temp>
<bpm>0</bpm>
<rpm>0.00</rpm>
</extensions>
</trkpt>
<trkpt lat="64.089012146" lon="-19.650100708">
<ele>273.226563</ele>
<time>2012-07-21T16:17:19Z</time>
<speed>1.240000</speed>
<extensions>
<speed>1.2</speed>
<temp>0.00</temp>
<bpm>0</bpm>
<rpm>0.00</rpm>
</extensions>
</trkpt>
<trkpt lat="64.089004517" lon="-19.649965286">
<ele>273.734375</ele>
<time>2012-07-21T16:17:24Z</time>
<speed>1.380000</speed>
<extensions>
<speed>1.4</speed>
<temp>0.00</temp>
<bpm>0</bpm>
<rpm>0.00</rpm>
</extensions>
</trkpt>
<trkpt lat="64.088981628" lon="-19.649820328">
<ele>274.921875</ele>
<time>2012-07-21T16:17:29Z</time>
<speed>1.400000</speed>
<extensions>
<speed>1.4</speed>
<temp>0.00</temp>
<bpm>0</bpm>
<rpm>0.00</rpm>
</extensions>
</trkpt>
<trkpt lat="64.088966370" lon="-19.649681091">
<ele>275.421875</ele>
<time>2012-07-21T16:17:34Z</time>
<speed>1.570000</speed>
<extensions>
<speed>1.6</speed>
<temp>0.00</temp>
<bpm>0</bpm>
<rpm>0.00</rpm>
</extensions>
</trkpt>
<trkpt lat="64.088920593" lon="-19.649515152">
<ele>276.109375</ele>
<time>2012-07-21T16:17:39Z</time>
<speed>1.620000</speed>
<extensions>
<speed>1.6</speed>
<temp>0.00</temp>
<bpm>0</bpm>
<rpm>0.00</rpm>
</extensions>
</trkpt>
<trkpt lat="64.088897705" lon="-19.649339676">
<ele>276.742188</ele>
<time>2012-07-21T16:17:44Z</time>
<speed>1.900000</speed>
<extensions>
<speed>1.9</speed>
<temp>0.00</temp>
<bpm>0</bpm>
<rpm>0.00</rpm>
</extensions>
</trkpt>
<trkpt lat="64.088844299" lon="-19.649164200">
<ele>277.468750</ele>
<time>2012-07-21T16:17:49Z</time>
<speed>2.540000</speed>
<extensions>
<speed>2.5</speed>
<temp>0.00</temp>
<bpm>0</bpm>
<rpm>0.00</rpm>
</extensions>
</trkpt>
<trkpt lat="64.088775635" lon="-19.649002075">
<ele>277.609375</ele>
<time>2012-07-21T16:17:54Z</time>
<speed>2.110000</speed>
<extensions>
<speed>2.1</speed>
<temp>0.00</temp>
<bpm>0</bpm>
<rpm>0.00</rpm>
</extensions>
</trkpt>
<trkpt lat="64.088760376" lon="-19.648839951">
<ele>278.804688</ele>
<time>2012-07-21T16:17:59Z</time>
<speed>1.210000</speed>
<extensions>
<speed>1.2</speed>
<temp>0.00</temp>
<bpm>0</bpm>
<rpm>0.00</rpm>
</extensions>
</trkpt>
<trkpt lat="64.088752747" lon="-19.648679733">
<ele>279.062500</ele>
<time>2012-07-21T16:18:04Z</time>
<speed>1.420000</speed>
<extensions>
<speed>1.4</speed>
<temp>0.00</temp>
<bpm>0</bpm>
<rpm>0.00</rpm>
</extensions>
</trkpt>
<trkpt lat="64.088745117" lon="-19.648557663">
<ele>279.585938</ele>
<time>2012-07-21T16:18:09Z</time>
<speed>1.350000</speed>
<extensions>
<speed>1.4</speed>
<temp>0.00</temp>
<bpm>0</bpm>
<rpm>0.00</rpm>
</extensions>
</trkpt>
<trkpt lat="64.088722229" lon="-19.648386002">
<ele>279.695313</ele>
<time>2012-07-21T16:18:14Z</time>
<speed>1.950000</speed>
<extensions>
<speed>1.9</speed>
<temp>0.00</temp>
<bpm>0</bpm>
<rpm>0.00</rpm>
</extensions>
</trkpt>
<trkpt lat="64.088714600" lon="-19.648178101">
<ele>279.828125</ele>
<time>2012-07-21T16:18:19Z</time>
<speed>2.250000</speed>
<extensions>
<speed>2.3</speed>
<temp>0.00</temp>
<bpm>0</bpm>
<rpm>0.00</rpm>
</extensions>
</trkpt>
<trkpt lat="64.088684082" lon="-19.647947311">
<ele>278.359375</ele>
<time>2012-07-21T16:18:24Z</time>
<speed>2.430000</speed>
<extensions>
<speed>2.4</speed>
<temp>0.00</temp>
<bpm>0</bpm>
<rpm>0.00</rpm>
</extensions>
</trkpt>
<trkpt lat="64.088676453" lon="-19.647729874">
<ele>277.734375</ele>
<time>2012-07-21T16:18:29Z</time>
<speed>2.490000</speed>
<extensions>
<speed>2.5</speed>
<temp>0.00</temp>
<bpm>0</bpm>
<rpm>0.00</rpm>
</extensions>
</trkpt>
<trkpt lat="64.088661194" lon="-19.647455215">
<ele>278.320313</ele>
<time>2012-07-21T16:18:34Z</time>
<speed>2.720000</speed>
<extensions>
<speed>2.7</speed>
<temp>0.00</temp>
<bpm>0</bpm>
<rpm>0.00</rpm>
</extensions>
</trkpt>
<trkpt lat="64.088630676" lon="-19.647195816">
<ele>279.406250</ele>
<time>2012-07-21T16:18:39Z</time>
<speed>2.330000</speed>
<extensions>
<speed>2.3</speed>
<temp>0.00</temp>
<bpm>0</bpm>
<rpm>0.00</rpm>
</extensions>
</trkpt>
<trkpt lat="64.088607788" lon="-19.647022247">
<ele>279.593750</ele>
<time>2012-07-21T16:18:44Z</time>
<speed>1.170000</speed>
<extensions>
<speed>1.2</speed>
<temp>0.00</temp>
<bpm>0</bpm>
<rpm>0.00</rpm>
</extensions>
</trkpt>
<trkpt lat="64.088600159" lon="-19.646842957">
<ele>280.156250</ele>
<time>2012-07-21T16:18:49Z</time>
<speed>0.530000</speed>
<extensions>
<speed>0.5</speed>
<temp>0.00</temp>
<bpm>0</bpm>
<rpm>0.00</rpm>
</extensions>
</trkpt>
<trkpt lat="64.088592529" lon="-19.646844864">
<ele>280.445313</ele>
<time>2012-07-21T16:18:54Z</time>
<speed>0.100000</speed>
<extensions>
<speed>0.1</speed>
<temp>0.00</temp>
<bpm>0</bpm>
<rpm>0.00</rpm>
</extensions>
</trkpt>
<trkpt lat="64.088600159" lon="-19.646842957">
<ele>280.414063</ele>
<time>2012-07-21T16:18:59Z</time>
<speed>0.020000</speed>
<extensions>
<speed>0.0</speed>
<temp>0.00</temp>
<bpm>0</bpm>
<rpm>0.00</rpm>
</extensions>
</trkpt>
<trkpt lat="64.088600159" lon="-19.646842957">
<ele>280.351563</ele>
<time>2012-07-21T16:19:04Z</time>
<extensions>
<speed>0.0</speed>
<temp>0.00</temp>
<bpm>0</bpm>
<rpm>0.00</rpm>
</extensions>
</trkpt>
<trkpt lat="64.088600159" lon="-19.646842957">
<ele>280.265625</ele>
<time>2012-07-21T16:19:09Z</time>
<extensions>
<speed>0.0</speed>
<temp>0.00</temp>
<bpm>0</bpm>
<rpm>0.00</rpm>
</extensions>
</trkpt>
<trkpt lat="64.088600159" lon="-19.646842957">
<ele>280.210938</ele>
<time>2012-07-21T16:19:14Z</time>
<speed>0.010000</speed>
<extensions>
<speed>0.0</speed>
<temp>0.00</temp>
<bpm>0</bpm>
<rpm>0.00</rpm>
</extensions>
</trkpt>
<trkpt lat="64.088600159" lon="-19.646842957">
<ele>280.171875</ele>
<time>2012-07-21T16:19:19Z</time>
<speed>0.010000</speed>
<extensions>
<speed>0.0</speed>
<temp>0.00</temp>
<bpm>0</bpm>
<rpm>0.00</rpm>
</extensions>
</trkpt>
<trkpt lat="64.088600159" lon="-19.646841049">
<ele>280.164063</ele>
<time>2012-07-21T16:19:24Z</time>
<extensions>
<speed>0.0</speed>
<temp>0.00</temp>
<bpm>0</bpm>
<rpm>0.00</rpm>
</extensions>
</trkpt>
<trkpt lat="64.088600159" lon="-19.646841049">
<ele>280.171875</ele>
<time>2012-07-21T16:19:29Z</time>
<speed>0.010000</speed>
<extensions>
<speed>0.0</speed>
<temp>0.00</temp>
<bpm>0</bpm>
<rpm>0.00</rpm>
</extensions>
</trkpt>
<trkpt lat="64.088600159" lon="-19.646841049">
<ele>280.171875</ele>
<time>2012-07-21T16:19:34Z</time>
<extensions>
<speed>0.0</speed>
<temp>0.00</temp>
<bpm>0</bpm>
<rpm>0.00</rpm>
</extensions>
</trkpt>
<trkpt lat="64.088592529" lon="-19.646841049">
<ele>280.171875</ele>
<time>2012-07-21T16:19:39Z</time>
<extensions>
<speed>0.0</speed>
<temp>0.00</temp>
<bpm>0</bpm>
<rpm>0.00</rpm>
</extensions>
</trkpt>
<trkpt lat="64.088592529" lon="-19.646841049">
<ele>280.171875</ele>
<time>2012-07-21T16:19:44Z</time>
<extensions>
<speed>0.0</speed>
<temp>0.00</temp>
<bpm>0</bpm>
<rpm>0.00</rpm>
</extensions>
</trkpt>
<trkpt lat="64.088592529" lon="-19.646841049">
<ele>280.171875</ele>
<time>2012-07-21T16:19:49Z</time>
<extensions>
<speed>0.0</speed>
<temp>0.00</temp>
<bpm>0</bpm>
<rpm>0.00</rpm>
</extensions>
</trkpt>
<trkpt lat="64.088592529" lon="-19.646841049">
<ele>280.171875</ele>
<time>2012-07-21T16:19:54Z</time>
<extensions>
<speed>0.0</speed>
<temp>0.00</temp>
<bpm>0</bpm>
<rpm>0.00</rpm>
</extensions>
</trkpt>
<trkpt lat="64.088592529" lon="-19.646841049">
<ele>280.187500</ele>
<time>2012-07-21T16:19:59Z</time>
<extensions>
<speed>0.0</speed>
<temp>0.00</temp>
<bpm>0</bpm>
<rpm>0.00</rpm>
</extensions>
</trkpt>
<trkpt lat="64.088592529" lon="-19.646841049">
<ele>280.179688</ele>
<time>2012-07-21T16:20:04Z</time>
<speed>0.010000</speed>
<extensions>
<speed>0.0</speed>
<temp>0.00</temp>
<bpm>0</bpm>
<rpm>0.00</rpm>
</extensions>
</trkpt>
<trkpt lat="64.088592529" lon="-19.646841049">
<ele>280.179688</ele>
<time>2012-07-21T16:20:09Z</time>
<extensions>
<speed>0.0</speed>
<temp>0.00</temp>
<bpm>0</bpm>
<rpm>0.00</rpm>
</extensions>
</trkpt>
<trkpt lat="64.088592529" lon="-19.646841049">
<ele>280.187500</ele>
<time>2012-07-21T16:20:14Z</time>
<speed>0.010000</speed>
<extensions>
<speed>0.0</speed>
<temp>0.00</temp>
<bpm>0</bpm>
<rpm>0.00</rpm>
</extensions>
</trkpt>
<trkpt lat="64.088592529" lon="-19.646841049">
<ele>280.195313</ele>
<time>2012-07-21T16:20:19Z</time>
<extensions>
<speed>0.0</speed>
<temp>0.00</temp>
<bpm>0</bpm>
<rpm>0.00</rpm>
</extensions>
</trkpt>
<trkpt lat="64.088592529" lon="-19.646841049">
<ele>280.195313</ele>
<time>2012-07-21T16:20:24Z</time>
<speed>0.010000</speed>
<extensions>
<speed>0.0</speed>
<temp>0.00</temp>
<bpm>0</bpm>
<rpm>0.00</rpm>
</extensions>
</trkpt>
<trkpt lat="64.088592529" lon="-19.646841049">
<ele>280.187500</ele>
<time>2012-07-21T16:20:29Z</time>
<speed>0.010000</speed>
<extensions>
<speed>0.0</speed>
<temp>0.00</temp>
<bpm>0</bpm>
<rpm>0.00</rpm>
</extensions>
</trkpt>
<trkpt lat="64.088592529" lon="-19.646841049">
<ele>280.195313</ele>
<time>2012-07-21T16:20:34Z</time>
<extensions>
<speed>0.0</speed>
<temp>0.00</temp>
<bpm>0</bpm>
<rpm>0.00</rpm>
</extensions>
</trkpt>
<trkpt lat="64.088592529" lon="-19.646841049">
<ele>280.195313</ele>
<time>2012-07-21T16:20:39Z</time>
<speed>0.010000</speed>
<extensions>
<speed>0.0</speed>
<temp>0.00</temp>
<bpm>0</bpm>
<rpm>0.00</rpm>
</extensions>
</trkpt>
<trkpt lat="64.088592529" lon="-19.646841049">
<ele>280.203125</ele>
<time>2012-07-21T16:20:44Z</time>
<speed>0.020000</speed>
<extensions>
<speed>0.0</speed>
<temp>0.00</temp>
<bpm>0</bpm>
<rpm>0.00</rpm>
</extensions>
</trkpt>
<trkpt lat="64.088592529" lon="-19.646841049">
<ele>280.203125</ele>
<time>2012-07-21T16:20:49Z</time>
<speed>0.010000</speed>
<extensions>
<speed>0.0</speed>
<temp>0.00</temp>
<bpm>0</bpm>
<rpm>0.00</rpm>
</extensions>
</trkpt>
<trkpt lat="64.088592529" lon="-19.646841049">
<ele>280.195313</ele>
<time>2012-07-21T16:20:54Z</time>
<extensions>
<speed>0.0</speed>
<temp>0.00</temp>
<bpm>0</bpm>
<rpm>0.00</rpm>
</extensions>
</trkpt>
<trkpt lat="64.088592529" lon="-19.646841049">
<ele>280.195313</ele>
<time>2012-07-21T16:20:59Z</time>
<speed>0.010000</speed>
<extensions>
<speed>0.0</speed>
<temp>0.00</temp>
<bpm>0</bpm>
<rpm>0.00</rpm>
</extensions>
</trkpt>
<trkpt lat="64.088592529" lon="-19.646841049">
<ele>280.195313</ele>
<time>2012-07-21T16:21:04Z</time>
<extensions>
<speed>0.0</speed>
<temp>0.00</temp>
<bpm>0</bpm>
<rpm>0.00</rpm>
</extensions>
</trkpt>
<trkpt lat="64.088592529" lon="-19.646841049">
<ele>280.187500</ele>
<time>2012-07-21T16:21:09Z</time>
<extensions>
<speed>0.0</speed>
<temp>0.00</temp>
<bpm>0</bpm>
<rpm>0.00</rpm>
</extensions>
</trkpt>
<trkpt lat="64.088592529" lon="-19.646841049">
<ele>280.195313</ele>
<time>2012-07-21T16:21:14Z</time>
<extensions>
<speed>0.0</speed>
<temp>0.00</temp>
<bpm>0</bpm>
<rpm>0.00</rpm>
</extensions>
</trkpt>
<trkpt lat="64.088592529" lon="-19.646841049">
<ele>280.195313</ele>
<time>2012-07-21T16:21:19Z</time>
<extensions>
<speed>0.0</speed>
<temp>0.00</temp>
<bpm>0</bpm>
<rpm>0.00</rpm>
</extensions>
</trkpt>
<trkpt lat="64.088592529" lon="-19.646841049">
<ele>280.195313</ele>
<time>2012-07-21T16:21:24Z</time>
<extensions>
<speed>0.0</speed>
<temp>0.00</temp>
<bpm>0</bpm>
<rpm>0.00</rpm>
</extensions>
</trkpt>
<trkpt lat="64.088592529" lon="-19.646841049">
<ele>280.203125</ele>
<time>2012-07-21T16:21:29Z</time>
<speed>0.010000</speed>
<extensions>
<speed>0.0</speed>
<temp>0.00</temp>
<bpm>0</bpm>
<rpm>0.00</rpm>
</extensions>
</trkpt>
<trkpt lat="64.088592529" lon="-19.646841049">
<ele>280.203125</ele>
<time>2012-07-21T16:21:34Z</time>
<extensions>
<speed>0.0</speed>
<temp>0.00</temp>
<bpm>0</bpm>
<rpm>0.00</rpm>
</extensions>
</trkpt>
<trkpt lat="64.088592529" lon="-19.646841049">
<ele>280.203125</ele>
<time>2012-07-21T16:21:39Z</time>
<extensions>
<speed>0.0</speed>
<temp>0.00</temp>
<bpm>0</bpm>
<rpm>0.00</rpm>
</extensions>
</trkpt>
<trkpt lat="64.088592529" lon="-19.646841049">
<ele>280.203125</ele>
<time>2012-07-21T16:21:44Z</time>
<speed>0.040000</speed>
<extensions>
<speed>0.0</speed>
<temp>0.00</temp>
<bpm>0</bpm>
<rpm>0.00</rpm>
</extensions>
</trkpt>
<trkpt lat="64.088592529" lon="-19.646841049">
<ele>280.195313</ele>
<time>2012-07-21T16:21:49Z</time>
<speed>0.080000</speed>
<extensions>
<speed>0.1</speed>
<temp>0.00</temp>
<bpm>0</bpm>
<rpm>0.00</rpm>
</extensions>
</trkpt>
<trkpt lat="64.088607788" lon="-19.646694183">
<ele>279.718750</ele>
<time>2012-07-21T16:21:54Z</time>
<speed>2.270000</speed>
<extensions>
<speed>2.3</speed>
<temp>0.00</temp>
<bpm>0</bpm>
<rpm>0.00</rpm>
</extensions>
</trkpt>
<trkpt lat="64.088607788" lon="-19.646411896">
<ele>278.984375</ele>
<time>2012-07-21T16:21:59Z</time>
<speed>2.250000</speed>
<extensions>
<speed>2.3</speed>
<temp>0.00</temp>
<bpm>0</bpm>
<rpm>0.00</rpm>
</extensions>
</trkpt>
<trkpt lat="64.088638306" lon="-19.646194458">
<ele>278.976563</ele>
<time>2012-07-21T16:22:04Z</time>
<speed>1.900000</speed>
<extensions>
<speed>1.9</speed>
<temp>0.00</temp>
<bpm>0</bpm>
<rpm>0.00</rpm>
</extensions>
</trkpt>
<trkpt lat="64.088661194" lon="-19.646018982">
<ele>278.679688</ele>
<time>2012-07-21T16:22:09Z</time>
<speed>1.650000</speed>
<extensions>
<speed>1.7</speed>
<temp>0.00</temp>
<bpm>0</bpm>
<rpm>0.00</rpm>
</extensions>
</trkpt>
<trkpt lat="64.088676453" lon="-19.645881653">
<ele>278.890625</ele>
<time>2012-07-21T16:22:14Z</time>
<speed>1.820000</speed>
<extensions>
<speed>1.8</speed>
<temp>0.00</temp>
<bpm>0</bpm>
<rpm>0.00</rpm>
</extensions>
</trkpt>
<trkpt lat="64.088714600" lon="-19.645715714">
<ele>278.953125</ele>
<time>2012-07-21T16:22:19Z</time>
<speed>2.220000</speed>
<extensions>
<speed>2.2</speed>
<temp>0.00</temp>
<bpm>0</bpm>
<rpm>0.00</rpm>
</extensions>
</trkpt>
<trkpt lat="64.088768005" lon="-19.645502090">
<ele>279.078125</ele>
<time>2012-07-21T16:22:24Z</time>
<speed>2.380000</speed>
<extensions>
<speed>2.4</speed>
<temp>0.00</temp>
<bpm>0</bpm>
<rpm>0.00</rpm>
</extensions>
</trkpt>
<trkpt lat="64.088790894" lon="-19.645280838">
<ele>279.351563</ele>
<time>2012-07-21T16:22:29Z</time>
<speed>1.700000</speed>
<extensions>
<speed>1.7</speed>
<temp>0.00</temp>
<bpm>0</bpm>
<rpm>0.00</rpm>
</extensions>
</trkpt>
<trkpt lat="64.088821411" lon="-19.645149231">
<ele>279.500000</ele>
<time>2012-07-21T16:22:34Z</time>
<speed>1.720000</speed>
<extensions>
<speed>1.7</speed>
<temp>0.00</temp>
<bpm>0</bpm>
<rpm>0.00</rpm>
</extensions>
</trkpt>
<trkpt lat="64.088867188" lon="-19.644987106">
<ele>279.765625</ele>
<time>2012-07-21T16:22:39Z</time>
<speed>2.040000</speed>
<extensions>
<speed>2.0</speed>
<temp>0.00</temp>
<bpm>0</bpm>
<rpm>0.00</rpm>
</extensions>
</trkpt>
<trkpt lat="64.088905334" lon="-19.644807816">
<ele>280.210938</ele>
<time>2012-07-21T16:22:44Z</time>
<speed>1.660000</speed>
<extensions>
<speed>1.7</speed>
<temp>0.00</temp>
<bpm>0</bpm>
<rpm>0.00</rpm>
</extensions>
</trkpt>
<trkpt lat="64.088920593" lon="-19.644630432">
<ele>280.703125</ele>
<time>2012-07-21T16:22:49Z</time>
<speed>1.850000</speed>
<extensions>
<speed>1.8</speed>
<temp>0.00</temp>
<bpm>0</bpm>
<rpm>0.00</rpm>
</extensions>
</trkpt>
<trkpt lat="64.088928223" lon="-19.644437790">
<ele>279.953125</ele>
<time>2012-07-21T16:22:54Z</time>
<speed>1.800000</speed>
<extensions>
<speed>1.8</speed>
<temp>0.00</temp>
<bpm>0</bpm>
<rpm>0.00</rpm>
</extensions>
</trkpt>
<trkpt lat="64.088928223" lon="-19.644250870">
<ele>279.453125</ele>
<time>2012-07-21T16:22:59Z</time>
<speed>1.890000</speed>
<extensions>
<speed>1.9</speed>
<temp>0.00</temp>
<bpm>0</bpm>
<rpm>0.00</rpm>
</extensions>
</trkpt>
<trkpt lat="64.088943481" lon="-19.644092560">
<ele>279.859375</ele>
<time>2012-07-21T16:23:04Z</time>
<speed>1.580000</speed>
<extensions>
<speed>1.6</speed>
<temp>0.00</temp>
<bpm>0</bpm>
<rpm>0.00</rpm>
</extensions>
</trkpt>
<trkpt lat="64.088951111" lon="-19.643926620">
<ele>279.726563</ele>
<time>2012-07-21T16:23:09Z</time>
<speed>1.460000</speed>
<extensions>
<speed>1.5</speed>
<temp>0.00</temp>
<bpm>0</bpm>
<rpm>0.00</rpm>
</extensions>
</trkpt>
<trkpt lat="64.088958740" lon="-19.643781662">
<ele>280.773438</ele>
<time>2012-07-21T16:23:14Z</time>
<speed>1.460000</speed>
<extensions>
<speed>1.5</speed>
<temp>0.00</temp>
<bpm>0</bpm>
<rpm>0.00</rpm>
</extensions>
</trkpt>
<trkpt lat="64.088966370" lon="-19.643629074">
<ele>281.632813</ele>
<time>2012-07-21T16:23:19Z</time>
<speed>1.430000</speed>
<extensions>
<speed>1.4</speed>
<temp>0.00</temp>
<bpm>0</bpm>
<rpm>0.00</rpm>
</extensions>
</trkpt>
<trkpt lat="64.088958740" lon="-19.643487930">
<ele>282.015625</ele>
<time>2012-07-21T16:23:24Z</time>
<speed>1.240000</speed>
<extensions>
<speed>1.2</speed>
<temp>0.00</temp>
<bpm>0</bpm>
<rpm>0.00</rpm>
</extensions>
</trkpt>
<trkpt lat="64.088966370" lon="-19.643362045">
<ele>281.742188</ele>
<time>2012-07-21T16:23:29Z</time>
<speed>1.340000</speed>
<extensions>
<speed>1.3</speed>
<temp>0.00</temp>
<bpm>0</bpm>
<rpm>0.00</rpm>
</extensions>
</trkpt>
<trkpt lat="64.088958740" lon="-19.643177032">
<ele>282.750000</ele>
<time>2012-07-21T16:23:34Z</time>
<speed>2.170000</speed>
<extensions>
<speed>2.2</speed>
<temp>0.00</temp>
<bpm>0</bpm>
<rpm>0.00</rpm>
</extensions>
</trkpt>
<trkpt lat="64.088935852" lon="-19.643035889">
<ele>284.093750</ele>
<time>2012-07-21T16:23:39Z</time>
<speed>1.780000</speed>
<extensions>
<speed>1.8</speed>
<temp>0.00</temp>
<bpm>0</bpm>
<rpm>0.00</rpm>
</extensions>
</trkpt>
<trkpt lat="64.088912964" lon="-19.642864227">
<ele>284.421875</ele>
<time>2012-07-21T16:23:44Z</time>
<speed>1.690000</speed>
<extensions>
<speed>1.7</speed>
<temp>0.00</temp>
<bpm>0</bpm>
<rpm>0.00</rpm>
</extensions>
</trkpt>
<trkpt lat="64.088897705" lon="-19.642679214">
<ele>284.609375</ele>
<time>2012-07-21T16:23:49Z</time>
<speed>1.690000</speed>
<extensions>
<speed>1.7</speed>
<temp>0.00</temp>
<bpm>0</bpm>
<rpm>0.00</rpm>
</extensions>
</trkpt>
<trkpt lat="64.088874817" lon="-19.642538071">
<ele>285.312500</ele>
<time>2012-07-21T16:23:54Z</time>
<speed>1.090000</speed>
<extensions>
<speed>1.1</speed>
<temp>0.00</temp>
<bpm>0</bpm>
<rpm>0.00</rpm>
</extensions>
</trkpt>
<trkpt lat="64.088851929" lon="-19.642478943">
<ele>285.015625</ele>
<time>2012-07-21T16:23:59Z</time>
<speed>1.210000</speed>
<extensions>
<speed>1.2</speed>
<temp>0.00</temp>
<bpm>0</bpm>
<rpm>0.00</rpm>
</extensions>
</trkpt>
<trkpt lat="64.088821411" lon="-19.642368317">
<ele>285.312500</ele>
<time>2012-07-21T16:24:04Z</time>
<speed>1.270000</speed>
<extensions>
<speed>1.3</speed>
<temp>0.00</temp>
<bpm>0</bpm>
<rpm>0.00</rpm>
</extensions>
</trkpt>
<trkpt lat="64.088768005" lon="-19.642269135">
<ele>286.265625</ele>
<time>2012-07-21T16:24:09Z</time>
<speed>1.450000</speed>
<extensions>
<speed>1.4</speed>
<temp>0.00</temp>
<bpm>0</bpm>
<rpm>0.00</rpm>
</extensions>
</trkpt>
<trkpt lat="64.088737488" lon="-19.642143250">
<ele>286.898438</ele>
<time>2012-07-21T16:24:14Z</time>
<speed>1.480000</speed>
<extensions>
<speed>1.5</speed>
<temp>0.00</temp>
<bpm>0</bpm>
<rpm>0.00</rpm>
</extensions>
</trkpt>
<trkpt lat="64.088691711" lon="-19.642019272">
<ele>286.210938</ele>
<time>2012-07-21T16:24:19Z</time>
<speed>1.500000</speed>
<extensions>
<speed>1.5</speed>
<temp>0.00</temp>
<bpm>0</bpm>
<rpm>0.00</rpm>
</extensions>
</trkpt>
<trkpt lat="64.088653564" lon="-19.641878128">
<ele>286.781250</ele>
<time>2012-07-21T16:24:24Z</time>
<speed>1.730000</speed>
<extensions>
<speed>1.7</speed>
<temp>0.00</temp>
<bpm>0</bpm>
<rpm>0.00</rpm>
</extensions>
</trkpt>
<trkpt lat="64.088600159" lon="-19.641733170">
<ele>288.304688</ele>
<time>2012-07-21T16:24:29Z</time>
<speed>1.650000</speed>
<extensions>
<speed>1.7</speed>
<temp>0.00</temp>
<bpm>0</bpm>
<rpm>0.00</rpm>
</extensions>
</trkpt>
<trkpt lat="64.088554382" lon="-19.641586304">
<ele>289.289063</ele>
<time>2012-07-21T16:24:34Z</time>
<speed>1.710000</speed>
<extensions>
<speed>1.7</speed>
<temp>0.00</temp>
<bpm>0</bpm>
<rpm>0.00</rpm>
</extensions>
</trkpt>
<trkpt lat="64.088500977" lon="-19.641483307">
<ele>289.015625</ele>
<time>2012-07-21T16:24:39Z</time>
<speed>0.300000</speed>
<extensions>
<speed>0.3</speed>
<temp>0.00</temp>
<bpm>0</bpm>
<rpm>0.00</rpm>
</extensions>
</trkpt>
<trkpt lat="64.088500977" lon="-19.641498566">
<ele>288.406250</ele>
<time>2012-07-21T16:24:44Z</time>
<speed>0.060000</speed>
<extensions>
<speed>0.1</speed>
<temp>0.00</temp>
<bpm>0</bpm>
<rpm>0.00</rpm>
</extensions>
</trkpt>
<trkpt lat="64.088500977" lon="-19.641500473">
<ele>288.273438</ele>
<time>2012-07-21T16:24:49Z</time>
<extensions>
<speed>0.0</speed>
<temp>0.00</temp>
<bpm>0</bpm>
<rpm>0.00</rpm>
</extensions>
</trkpt>
<trkpt lat="64.088500977" lon="-19.641500473">
<ele>288.257813</ele>
<time>2012-07-21T16:24:54Z</time>
<speed>0.010000</speed>
<extensions>
<speed>0.0</speed>
<temp>0.00</temp>
<bpm>0</bpm>
<rpm>0.00</rpm>
</extensions>
</trkpt>
<trkpt lat="64.088500977" lon="-19.641500473">
<ele>288.265625</ele>
<time>2012-07-21T16:24:59Z</time>
<extensions>
<speed>0.0</speed>
<temp>0.00</temp>
<bpm>0</bpm>
<rpm>0.00</rpm>
</extensions>
</trkpt>
<trkpt lat="64.088500977" lon="-19.641500473">
<ele>288.257813</ele>
<time>2012-07-21T16:25:04Z</time>
<speed>0.010000</speed>
<extensions>
<speed>0.0</speed>
<temp>0.00</temp>
<bpm>0</bpm>
<rpm>0.00</rpm>
</extensions>
</trkpt>
<trkpt lat="64.088500977" lon="-19.641500473">
<ele>288.250000</ele>
<time>2012-07-21T16:25:09Z</time>
<extensions>
<speed>0.0</speed>
<temp>0.00</temp>
<bpm>0</bpm>
<rpm>0.00</rpm>
</extensions>
</trkpt>
<trkpt lat="64.088500977" lon="-19.641500473">
<ele>288.242188</ele>
<time>2012-07-21T16:25:14Z</time>
<extensions>
<speed>0.0</speed>
<temp>0.00</temp>
<bpm>0</bpm>
<rpm>0.00</rpm>
</extensions>
</trkpt>
<trkpt lat="64.088500977" lon="-19.641502380">
<ele>288.242188</ele>
<time>2012-07-21T16:25:19Z</time>
<speed>0.240000</speed>
<extensions>
<speed>0.2</speed>
<temp>0.00</temp>
<bpm>0</bpm>
<rpm>0.00</rpm>
</extensions>
</trkpt>
<trkpt lat="64.088493347" lon="-19.641496658">
<ele>288.265625</ele>
<time>2012-07-21T16:25:24Z</time>
<speed>0.790000</speed>
<extensions>
<speed>0.8</speed>
<temp>0.00</temp>
<bpm>0</bpm>
<rpm>0.00</rpm>
</extensions>
</trkpt>
<trkpt lat="64.088455200" lon="-19.641353607">
<ele>288.015625</ele>
<time>2012-07-21T16:25:29Z</time>
<speed>1.940000</speed>
<extensions>
<speed>1.9</speed>
<temp>0.00</temp>
<bpm>0</bpm>
<rpm>0.00</rpm>
</extensions>
</trkpt>
<trkpt lat="64.088417053" lon="-19.641122818">
<ele>288.484375</ele>
<time>2012-07-21T16:25:34Z</time>
<speed>2.370000</speed>
<extensions>
<speed>2.4</speed>
<temp>0.00</temp>
<bpm>0</bpm>
<rpm>0.00</rpm>
</extensions>
</trkpt>
<trkpt lat="64.088363647" lon="-19.640924454">
<ele>290.398438</ele>
<time>2012-07-21T16:25:39Z</time>
<speed>2.280000</speed>
<extensions>
<speed>2.3</speed>
<temp>0.00</temp>
<bpm>0</bpm>
<rpm>0.00</rpm>
</extensions>
</trkpt>
<trkpt lat="64.088310242" lon="-19.640701294">
<ele>291.539063</ele>
<time>2012-07-21T16:25:44Z</time>
<speed>2.170000</speed>
<extensions>
<speed>2.2</speed>
<temp>0.00</temp>
<bpm>0</bpm>
<rpm>0.00</rpm>
</extensions>
</trkpt>
<trkpt lat="64.088272095" lon="-19.640485764">
<ele>291.789063</ele>
<time>2012-07-21T16:25:49Z</time>
<speed>2.170000</speed>
<extensions>
<speed>2.2</speed>
<temp>0.00</temp>
<bpm>0</bpm>
<rpm>0.00</rpm>
</extensions>
</trkpt>
<trkpt lat="64.088249207" lon="-19.640262604">
<ele>291.664063</ele>
<time>2012-07-21T16:25:54Z</time>
<speed>1.720000</speed>
<extensions>
<speed>1.7</speed>
<temp>0.00</temp>
<bpm>0</bpm>
<rpm>0.00</rpm>
</extensions>
</trkpt>
<trkpt lat="64.088241577" lon="-19.640069962">
<ele>293.203125</ele>
<time>2012-07-21T16:25:59Z</time>
<speed>1.840000</speed>
<extensions>
<speed>1.8</speed>
<temp>0.00</temp>
<bpm>0</bpm>
<rpm>0.00</rpm>
</extensions>
</trkpt>
<trkpt lat="64.088226318" lon="-19.639902115">
<ele>292.273438</ele>
<time>2012-07-21T16:26:04Z</time>
<speed>1.640000</speed>
<extensions>
<speed>1.6</speed>
<temp>0.00</temp>
<bpm>0</bpm>
<rpm>0.00</rpm>
</extensions>
</trkpt>
<trkpt lat="64.088203430" lon="-19.639713287">
<ele>292.007813</ele>
<time>2012-07-21T16:26:09Z</time>
<speed>1.490000</speed>
<extensions>
<speed>1.5</speed>
<temp>0.00</temp>
<bpm>0</bpm>
<rpm>0.00</rpm>
</extensions>
</trkpt>
<trkpt lat="64.088172913" lon="-19.639593124">
<ele>292.062500</ele>
<time>2012-07-21T16:26:14Z</time>
<speed>1.740000</speed>
<extensions>
<speed>1.7</speed>
<temp>0.00</temp>
<bpm>0</bpm>
<rpm>0.00</rpm>
</extensions>
</trkpt>
<trkpt lat="64.088134766" lon="-19.639461517">
<ele>291.359375</ele>
<time>2012-07-21T16:26:19Z</time>
<speed>1.000000</speed>
<extensions>
<speed>1.0</speed>
<temp>0.00</temp>
<bpm>0</bpm>
<rpm>0.00</rpm>
</extensions>
</trkpt>
<trkpt lat="64.088104248" lon="-19.639322281">
<ele>291.351563</ele>
<time>2012-07-21T16:26:24Z</time>
<speed>1.670000</speed>
<extensions>
<speed>1.7</speed>
<temp>0.00</temp>
<bpm>0</bpm>
<rpm>0.00</rpm>
</extensions>
</trkpt>
<trkpt lat="64.088088989" lon="-19.639152527">
<ele>291.554688</ele>
<time>2012-07-21T16:26:29Z</time>
<speed>1.860000</speed>
<extensions>
<speed>1.9</speed>
<temp>0.00</temp>
<bpm>0</bpm>
<rpm>0.00</rpm>
</extensions>
</trkpt>
<trkpt lat="64.088073730" lon="-19.638975143">
<ele>291.890625</ele>
<time>2012-07-21T16:26:34Z</time>
<speed>1.620000</speed>
<extensions>
<speed>1.6</speed>
<temp>0.00</temp>
<bpm>0</bpm>
<rpm>0.00</rpm>
</extensions>
</trkpt>
<trkpt lat="64.088066101" lon="-19.638820648">
<ele>291.640625</ele>
<time>2012-07-21T16:26:39Z</time>
<speed>1.360000</speed>
<extensions>
<speed>1.4</speed>
<temp>0.00</temp>
<bpm>0</bpm>
<rpm>0.00</rpm>
</extensions>
</trkpt>
<trkpt lat="64.088066101" lon="-19.638656616">
<ele>291.320313</ele>
<time>2012-07-21T16:26:44Z</time>
<speed>1.390000</speed>
<extensions>
<speed>1.4</speed>
<temp>0.00</temp>
<bpm>0</bpm>
<rpm>0.00</rpm>
</extensions>
</trkpt>
<trkpt lat="64.088058472" lon="-19.638481140">
<ele>291.023438</ele>
<time>2012-07-21T16:26:49Z</time>
<speed>1.840000</speed>
<extensions>
<speed>1.8</speed>
<temp>0.00</temp>
<bpm>0</bpm>
<rpm>0.00</rpm>
</extensions>
</trkpt>
<trkpt lat="64.088050842" lon="-19.638294220">
<ele>291.742188</ele>
<time>2012-07-21T16:26:54Z</time>
<speed>1.770000</speed>
<extensions>
<speed>1.8</speed>
<temp>0.00</temp>
<bpm>0</bpm>
<rpm>0.00</rpm>
</extensions>
</trkpt>
<trkpt lat="64.088043213" lon="-19.638126373">
<ele>292.484375</ele>
<time>2012-07-21T16:26:59Z</time>
<speed>1.570000</speed>
<extensions>
<speed>1.6</speed>
<temp>0.00</temp>
<bpm>0</bpm>
<rpm>0.00</rpm>
</extensions>
</trkpt>
<trkpt lat="64.088027954" lon="-19.637960434">
<ele>293.281250</ele>
<time>2012-07-21T16:27:04Z</time>
<speed>1.830000</speed>
<extensions>
<speed>1.8</speed>
<temp>0.00</temp>
<bpm>0</bpm>
<rpm>0.00</rpm>
</extensions>
</trkpt>
<trkpt lat="64.088012695" lon="-19.637832642">
<ele>293.710938</ele>
<time>2012-07-21T16:27:09Z</time>
<speed>1.370000</speed>
<extensions>
<speed>1.4</speed>
<temp>0.00</temp>
<bpm>0</bpm>
<rpm>0.00</rpm>
</extensions>
</trkpt>
<trkpt lat="64.087989807" lon="-19.637672424">
<ele>293.945313</ele>
<time>2012-07-21T16:27:14Z</time>
<speed>1.650000</speed>
<extensions>
<speed>1.7</speed>
<temp>0.00</temp>
<bpm>0</bpm>
<rpm>0.00</rpm>
</extensions>
</trkpt>
<trkpt lat="64.087951660" lon="-19.637538910">
<ele>294.500000</ele>
<time>2012-07-21T16:27:19Z</time>
<speed>1.540000</speed>
<extensions>
<speed>1.5</speed>
<temp>0.00</temp>
<bpm>0</bpm>
<rpm>0.00</rpm>
</extensions>
</trkpt>
<trkpt lat="64.087913513" lon="-19.637392044">
<ele>295.500000</ele>
<time>2012-07-21T16:27:24Z</time>
<speed>1.930000</speed>
<extensions>
<speed>1.9</speed>
<temp>0.00</temp>
<bpm>0</bpm>
<rpm>0.00</rpm>
</extensions>
</trkpt>
<trkpt lat="64.087860107" lon="-19.637243271">
<ele>295.515625</ele>
<time>2012-07-21T16:27:29Z</time>
<speed>1.560000</speed>
<extensions>
<speed>1.6</speed>
<temp>0.00</temp>
<bpm>0</bpm>
<rpm>0.00</rpm>
</extensions>
</trkpt>
<trkpt lat="64.087799072" lon="-19.637084961">
<ele>294.429688</ele>
<time>2012-07-21T16:27:34Z</time>
<speed>1.990000</speed>
<extensions>
<speed>2.0</speed>
<temp>0.00</temp>
<bpm>0</bpm>
<rpm>0.00</rpm>
</extensions>
</trkpt>
<trkpt lat="64.087738037" lon="-19.636934280">
<ele>293.429688</ele>
<time>2012-07-21T16:27:39Z</time>
<speed>1.990000</speed>
<extensions>
<speed>2.0</speed>
<temp>0.00</temp>
<bpm>0</bpm>
<rpm>0.00</rpm>
</extensions>
</trkpt>
<trkpt lat="64.087692261" lon="-19.636796951">
<ele>293.492188</ele>
<time>2012-07-21T16:27:44Z</time>
<speed>1.820000</speed>
<extensions>
<speed>1.8</speed>
<temp>0.00</temp>
<bpm>0</bpm>
<rpm>0.00</rpm>
</extensions>
</trkpt>
<trkpt lat="64.087631226" lon="-19.636644363">
<ele>292.726563</ele>
<time>2012-07-21T16:27:49Z</time>
<speed>1.930000</speed>
<extensions>
<speed>1.9</speed>
<temp>0.00</temp>
<bpm>0</bpm>
<rpm>0.00</rpm>
</extensions>
</trkpt>
<trkpt lat="64.087577820" lon="-19.636487961">
<ele>292.734375</ele>
<time>2012-07-21T16:27:54Z</time>
<speed>1.940000</speed>
<extensions>
<speed>1.9</speed>
<temp>0.00</temp>
<bpm>0</bpm>
<rpm>0.00</rpm>
</extensions>
</trkpt>
<trkpt lat="64.087524414" lon="-19.636341095">
<ele>292.875000</ele>
<time>2012-07-21T16:27:59Z</time>
<speed>1.880000</speed>
<extensions>
<speed>1.9</speed>
<temp>0.00</temp>
<bpm>0</bpm>
<rpm>0.00</rpm>
</extensions>
</trkpt>
<trkpt lat="64.087471008" lon="-19.636184692">
<ele>293.093750</ele>
<time>2012-07-21T16:28:04Z</time>
<speed>1.910000</speed>
<extensions>
<speed>1.9</speed>
<temp>0.00</temp>
<bpm>0</bpm>
<rpm>0.00</rpm>
</extensions>
</trkpt>
<trkpt lat="64.087425232" lon="-19.636054993">
<ele>293.351563</ele>
<time>2012-07-21T16:28:09Z</time>
<speed>1.550000</speed>
<extensions>
<speed>1.5</speed>
<temp>0.00</temp>
<bpm>0</bpm>
<rpm>0.00</rpm>
</extensions>
</trkpt>
<trkpt lat="64.087394714" lon="-19.635934830">
<ele>293.710938</ele>
<time>2012-07-21T16:28:14Z</time>
<speed>1.450000</speed>
<extensions>
<speed>1.4</speed>
<temp>0.00</temp>
<bpm>0</bpm>
<rpm>0.00</rpm>
</extensions>
</trkpt>
<trkpt lat="64.087356567" lon="-19.635803223">
<ele>295.085938</ele>
<time>2012-07-21T16:28:19Z</time>
<speed>1.630000</speed>
<extensions>
<speed>1.6</speed>
<temp>0.00</temp>
<bpm>0</bpm>
<rpm>0.00</rpm>
</extensions>
</trkpt>
<trkpt lat="64.087310791" lon="-19.635648727">
<ele>295.773438</ele>
<time>2012-07-21T16:28:24Z</time>
<speed>1.670000</speed>
<extensions>
<speed>1.7</speed>
<temp>0.00</temp>
<bpm>0</bpm>
<rpm>0.00</rpm>
</extensions>
</trkpt>
<trkpt lat="64.087265015" lon="-19.635524750">
<ele>297.085938</ele>
<time>2012-07-21T16:28:29Z</time>
<speed>1.610000</speed>
<extensions>
<speed>1.6</speed>
<temp>0.00</temp>
<bpm>0</bpm>
<rpm>0.00</rpm>
</extensions>
</trkpt>
<trkpt lat="64.087226868" lon="-19.635412216">
<ele>297.476563</ele>
<time>2012-07-21T16:28:34Z</time>
<speed>1.240000</speed>
<extensions>
<speed>1.2</speed>
<temp>0.00</temp>
<bpm>0</bpm>
<rpm>0.00</rpm>
</extensions>
</trkpt>
<trkpt lat="64.087181091" lon="-19.635381699">
<ele>297.187500</ele>
<time>2012-07-21T16:28:39Z</time>
<speed>0.120000</speed>
<extensions>
<speed>0.1</speed>
<temp>0.00</temp>
<bpm>0</bpm>
<rpm>0.00</rpm>
</extensions>
</trkpt>
<trkpt lat="64.087181091" lon="-19.635377884">
<ele>297.289063</ele>
<time>2012-07-21T16:28:44Z</time>
<speed>0.060000</speed>
<extensions>
<speed>0.1</speed>
<temp>0.00</temp>
<bpm>0</bpm>
<rpm>0.00</rpm>
</extensions>
</trkpt>
<trkpt lat="64.087181091" lon="-19.635375977">
<ele>297.218750</ele>
<time>2012-07-21T16:28:49Z</time>
<speed>0.020000</speed>
<extensions>
<speed>0.0</speed>
<temp>0.00</temp>
<bpm>0</bpm>
<rpm>0.00</rpm>
</extensions>
</trkpt>
<trkpt lat="64.087181091" lon="-19.635374069">
<ele>297.179688</ele>
<time>2012-07-21T16:28:54Z</time>
<speed>0.010000</speed>
<extensions>
<speed>0.0</speed>
<temp>0.00</temp>
<bpm>0</bpm>
<rpm>0.00</rpm>
</extensions>
</trkpt>
<trkpt lat="64.087181091" lon="-19.635374069">
<ele>297.187500</ele>
<time>2012-07-21T16:28:59Z</time>
<extensions>
<speed>0.0</speed>
<temp>0.00</temp>
<bpm>0</bpm>
<rpm>0.00</rpm>
</extensions>
</trkpt>
<trkpt lat="64.087181091" lon="-19.635374069">
<ele>297.187500</ele>
<time>2012-07-21T16:29:04Z</time>
<speed>0.010000</speed>
<extensions>
<speed>0.0</speed>
<temp>0.00</temp>
<bpm>0</bpm>
<rpm>0.00</rpm>
</extensions>
</trkpt>
<trkpt lat="64.087181091" lon="-19.635374069">
<ele>297.187500</ele>
<time>2012-07-21T16:29:09Z</time>
<extensions>
<speed>0.0</speed>
<temp>0.00</temp>
<bpm>0</bpm>
<rpm>0.00</rpm>
</extensions>
</trkpt>
<trkpt lat="64.087181091" lon="-19.635374069">
<ele>297.179688</ele>
<time>2012-07-21T16:29:14Z</time>
<extensions>
<speed>0.0</speed>
<temp>0.00</temp>
<bpm>0</bpm>
<rpm>0.00</rpm>
</extensions>
</trkpt>
<trkpt lat="64.087181091" lon="-19.635374069">
<ele>297.171875</ele>
<time>2012-07-21T16:29:19Z</time>
<extensions>
<speed>0.0</speed>
<temp>0.00</temp>
<bpm>0</bpm>
<rpm>0.00</rpm>
</extensions>
</trkpt>
<trkpt lat="64.087181091" lon="-19.635374069">
<ele>297.179688</ele>
<time>2012-07-21T16:29:24Z</time>
<extensions>
<speed>0.0</speed>
<temp>0.00</temp>
<bpm>0</bpm>
<rpm>0.00</rpm>
</extensions>
</trkpt>
<trkpt lat="64.087181091" lon="-19.635374069">
<ele>297.187500</ele>
<time>2012-07-21T16:29:29Z</time>
<extensions>
<speed>0.0</speed>
<temp>0.00</temp>
<bpm>0</bpm>
<rpm>0.00</rpm>
</extensions>
</trkpt>
<trkpt lat="64.087181091" lon="-19.635374069">
<ele>297.195313</ele>
<time>2012-07-21T16:29:34Z</time>
<extensions>
<speed>0.0</speed>
<temp>0.00</temp>
<bpm>0</bpm>
<rpm>0.00</rpm>
</extensions>
</trkpt>
<trkpt lat="64.087181091" lon="-19.635374069">
<ele>297.210938</ele>
<time>2012-07-21T16:29:39Z</time>
<speed>0.010000</speed>
<extensions>
<speed>0.0</speed>
<temp>0.00</temp>
<bpm>0</bpm>
<rpm>0.00</rpm>
</extensions>
</trkpt>
<trkpt lat="64.087181091" lon="-19.635374069">
<ele>297.210938</ele>
<time>2012-07-21T16:29:44Z</time>
<speed>0.010000</speed>
<extensions>
<speed>0.0</speed>
<temp>0.00</temp>
<bpm>0</bpm>
<rpm>0.00</rpm>
</extensions>
</trkpt>
<trkpt lat="64.087181091" lon="-19.635374069">
<ele>297.218750</ele>
<time>2012-07-21T16:29:49Z</time>
<speed>0.020000</speed>
<extensions>
<speed>0.0</speed>
<temp>0.00</temp>
<bpm>0</bpm>
<rpm>0.00</rpm>
</extensions>
</trkpt>
<trkpt lat="64.087181091" lon="-19.635374069">
<ele>297.210938</ele>
<time>2012-07-21T16:29:54Z</time>
<extensions>
<speed>0.0</speed>
<temp>0.00</temp>
<bpm>0</bpm>
<rpm>0.00</rpm>
</extensions>
</trkpt>
<trkpt lat="64.087181091" lon="-19.635374069">
<ele>297.203125</ele>
<time>2012-07-21T16:29:59Z</time>
<speed>0.010000</speed>
<extensions>
<speed>0.0</speed>
<temp>0.00</temp>
<bpm>0</bpm>
<rpm>0.00</rpm>
</extensions>
</trkpt>
<trkpt lat="64.087181091" lon="-19.635372162">
<ele>297.195313</ele>
<time>2012-07-21T16:30:04Z</time>
<speed>0.080000</speed>
<extensions>
<speed>0.1</speed>
<temp>0.00</temp>
<bpm>0</bpm>
<rpm>0.00</rpm>
</extensions>
</trkpt>
<trkpt lat="64.087181091" lon="-19.635368347">
<ele>297.156250</ele>
<time>2012-07-21T16:30:09Z</time>
<speed>0.870000</speed>
<extensions>
<speed>0.9</speed>
<temp>0.00</temp>
<bpm>0</bpm>
<rpm>0.00</rpm>
</extensions>
</trkpt>
<trkpt lat="64.087142944" lon="-19.635223389">
<ele>297.171875</ele>
<time>2012-07-21T16:30:14Z</time>
<speed>1.860000</speed>
<extensions>
<speed>1.9</speed>
<temp>0.00</temp>
<bpm>0</bpm>
<rpm>0.00</rpm>
</extensions>
</trkpt>
<trkpt lat="64.087089539" lon="-19.635057449">
<ele>297.289063</ele>
<time>2012-07-21T16:30:19Z</time>
<speed>1.870000</speed>
<extensions>
<speed>1.9</speed>
<temp>0.00</temp>
<bpm>0</bpm>
<rpm>0.00</rpm>
</extensions>
</trkpt>
<trkpt lat="64.087036133" lon="-19.634891510">
<ele>297.210938</ele>
<time>2012-07-21T16:30:24Z</time>
<speed>1.620000</speed>
<extensions>
<speed>1.6</speed>
<temp>0.00</temp>
<bpm>0</bpm>
<rpm>0.00</rpm>
</extensions>
</trkpt>
<trkpt lat="64.086982727" lon="-19.634742737">
<ele>296.085938</ele>
<time>2012-07-21T16:30:29Z</time>
<speed>1.830000</speed>
<extensions>
<speed>1.8</speed>
<temp>0.00</temp>
<bpm>0</bpm>
<rpm>0.00</rpm>
</extensions>
</trkpt>
<trkpt lat="64.086952209" lon="-19.634601593">
<ele>295.945313</ele>
<time>2012-07-21T16:30:34Z</time>
<speed>1.600000</speed>
<extensions>
<speed>1.6</speed>
<temp>0.00</temp>
<bpm>0</bpm>
<rpm>0.00</rpm>
</extensions>
</trkpt>
<trkpt lat="64.086921692" lon="-19.634441376">
<ele>296.351563</ele>
<time>2012-07-21T16:30:39Z</time>
<speed>1.790000</speed>
<extensions>
<speed>1.8</speed>
<temp>0.00</temp>
<bpm>0</bpm>
<rpm>0.00</rpm>
</extensions>
</trkpt>
<trkpt lat="64.086898804" lon="-19.634239197">
<ele>296.234375</ele>
<time>2012-07-21T16:30:44Z</time>
<speed>1.710000</speed>
<extensions>
<speed>1.7</speed>
<temp>0.00</temp>
<bpm>0</bpm>
<rpm>0.00</rpm>
</extensions>
</trkpt>
<trkpt lat="64.086883545" lon="-19.634061813">
<ele>296.273438</ele>
<time>2012-07-21T16:30:49Z</time>
<speed>2.000000</speed>
<extensions>
<speed>2.0</speed>
<temp>0.00</temp>
<bpm>0</bpm>
<rpm>0.00</rpm>
</extensions>
</trkpt>
<trkpt lat="64.086883545" lon="-19.633876801">
<ele>297.289063</ele>
<time>2012-07-21T16:30:54Z</time>
<speed>1.910000</speed>
<extensions>
<speed>1.9</speed>
<temp>0.00</temp>
<bpm>0</bpm>
<rpm>0.00</rpm>
</extensions>
</trkpt>
<trkpt lat="64.086891174" lon="-19.633659363">
<ele>296.882813</ele>
<time>2012-07-21T16:30:59Z</time>
<speed>2.070000</speed>
<extensions>
<speed>2.1</speed>
<temp>0.00</temp>
<bpm>0</bpm>
<rpm>0.00</rpm>
</extensions>
</trkpt>
<trkpt lat="64.086898804" lon="-19.633445740">
<ele>298.187500</ele>
<time>2012-07-21T16:31:04Z</time>
<speed>2.310000</speed>
<extensions>
<speed>2.3</speed>
<temp>0.00</temp>
<bpm>0</bpm>
<rpm>0.00</rpm>
</extensions>
</trkpt>
<trkpt lat="64.086906433" lon="-19.633220673">
<ele>298.625000</ele>
<time>2012-07-21T16:31:09Z</time>
<speed>1.910000</speed>
<extensions>
<speed>1.9</speed>
<temp>0.00</temp>
<bpm>0</bpm>
<rpm>0.00</rpm>
</extensions>
</trkpt>
<trkpt lat="64.086914063" lon="-19.633007050">
<ele>298.304688</ele>
<time>2012-07-21T16:31:14Z</time>
<speed>1.910000</speed>
<extensions>
<speed>1.9</speed>
<temp>0.00</temp>
<bpm>0</bpm>
<rpm>0.00</rpm>
</extensions>
</trkpt>
<trkpt lat="64.086914063" lon="-19.632850647">
<ele>298.289063</ele>
<time>2012-07-21T16:31:19Z</time>
<speed>1.730000</speed>
<extensions>
<speed>1.7</speed>
<temp>0.00</temp>
<bpm>0</bpm>
<rpm>0.00</rpm>
</extensions>
</trkpt>
<trkpt lat="64.086921692" lon="-19.632663727">
<ele>297.695313</ele>
<time>2012-07-21T16:31:24Z</time>
<speed>1.950000</speed>
<extensions>
<speed>1.9</speed>
<temp>0.00</temp>
<bpm>0</bpm>
<rpm>0.00</rpm>
</extensions>
</trkpt>
<trkpt lat="64.086921692" lon="-19.632467270">
<ele>297.734375</ele>
<time>2012-07-21T16:31:29Z</time>
<speed>1.930000</speed>
<extensions>
<speed>1.9</speed>
<temp>0.00</temp>
<bpm>0</bpm>
<rpm>0.00</rpm>
</extensions>
</trkpt>
<trkpt lat="64.086929321" lon="-19.632289886">
<ele>297.429688</ele>
<time>2012-07-21T16:31:34Z</time>
<speed>1.690000</speed>
<extensions>
<speed>1.7</speed>
<temp>0.00</temp>
<bpm>0</bpm>
<rpm>0.00</rpm>
</extensions>
</trkpt>
<trkpt lat="64.086921692" lon="-19.632160187">
<ele>297.367188</ele>
<time>2012-07-21T16:31:39Z</time>
<speed>1.630000</speed>
<extensions>
<speed>1.6</speed>
<temp>0.00</temp>
<bpm>0</bpm>
<rpm>0.00</rpm>
</extensions>
</trkpt>
<trkpt lat="64.086921692" lon="-19.631963730">
<ele>297.812500</ele>
<time>2012-07-21T16:31:44Z</time>
<speed>1.890000</speed>
<extensions>
<speed>1.9</speed>
<temp>0.00</temp>
<bpm>0</bpm>
<rpm>0.00</rpm>
</extensions>
</trkpt>
<trkpt lat="64.086921692" lon="-19.631753922">
<ele>297.890625</ele>
<time>2012-07-21T16:31:49Z</time>
<speed>1.680000</speed>
<extensions>
<speed>1.7</speed>
<temp>0.00</temp>
<bpm>0</bpm>
<rpm>0.00</rpm>
</extensions>
</trkpt>
<trkpt lat="64.086921692" lon="-19.631593704">
<ele>299.140625</ele>
<time>2012-07-21T16:31:54Z</time>
<speed>1.070000</speed>
<extensions>
<speed>1.1</speed>
<temp>0.00</temp>
<bpm>0</bpm>
<rpm>0.00</rpm>
</extensions>
</trkpt>
<trkpt lat="64.086944580" lon="-19.631444931">
<ele>300.078125</ele>
<time>2012-07-21T16:31:59Z</time>
<speed>1.960000</speed>
<extensions>
<speed>2.0</speed>
<temp>0.00</temp>
<bpm>0</bpm>
<rpm>0.00</rpm>
</extensions>
</trkpt>
<trkpt lat="64.086952209" lon="-19.631259918">
<ele>301.429688</ele>
<time>2012-07-21T16:32:04Z</time>
<speed>1.770000</speed>
<extensions>
<speed>1.8</speed>
<temp>0.00</temp>
<bpm>0</bpm>
<rpm>0.00</rpm>
</extensions>
</trkpt>
<trkpt lat="64.086944580" lon="-19.631055832">
<ele>302.000000</ele>
<time>2012-07-21T16:32:09Z</time>
<speed>1.830000</speed>
<extensions>
<speed>1.8</speed>
<temp>0.00</temp>
<bpm>0</bpm>
<rpm>0.00</rpm>
</extensions>
</trkpt>
<trkpt lat="64.086914063" lon="-19.630863190">
<ele>302.054688</ele>
<time>2012-07-21T16:32:14Z</time>
<speed>2.300000</speed>
<extensions>
<speed>2.3</speed>
<temp>0.00</temp>
<bpm>0</bpm>
<rpm>0.00</rpm>
</extensions>
</trkpt>
<trkpt lat="64.086868286" lon="-19.630691528">
<ele>302.804688</ele>
<time>2012-07-21T16:32:19Z</time>
<speed>1.730000</speed>
<extensions>
<speed>1.7</speed>
<temp>0.00</temp>
<bpm>0</bpm>
<rpm>0.00</rpm>
</extensions>
</trkpt>
<trkpt lat="64.086822510" lon="-19.630523682">
<ele>302.960938</ele>
<time>2012-07-21T16:32:24Z</time>
<speed>2.080000</speed>
<extensions>
<speed>2.1</speed>
<temp>0.00</temp>
<bpm>0</bpm>
<rpm>0.00</rpm>
</extensions>
</trkpt>
<trkpt lat="64.086769104" lon="-19.630382538">
<ele>303.585938</ele>
<time>2012-07-21T16:32:29Z</time>
<speed>1.780000</speed>
<extensions>
<speed>1.8</speed>
<temp>0.00</temp>
<bpm>0</bpm>
<rpm>0.00</rpm>
</extensions>
</trkpt>
<trkpt lat="64.086715698" lon="-19.630243301">
<ele>303.757813</ele>
<time>2012-07-21T16:32:34Z</time>
<speed>1.790000</speed>
<extensions>
<speed>1.8</speed>
<temp>0.00</temp>
<bpm>0</bpm>
<rpm>0.00</rpm>
</extensions>
</trkpt>
<trkpt lat="64.086647034" lon="-19.630107880">
<ele>303.968750</ele>
<time>2012-07-21T16:32:39Z</time>
<speed>1.880000</speed>
<extensions>
<speed>1.9</speed>
<temp>0.00</temp>
<bpm>0</bpm>
<rpm>0.00</rpm>
</extensions>
</trkpt>
<trkpt lat="64.086601257" lon="-19.629978180">
<ele>304.085938</ele>
<time>2012-07-21T16:32:44Z</time>
<speed>1.540000</speed>
<extensions>
<speed>1.5</speed>
<temp>0.00</temp>
<bpm>0</bpm>
<rpm>0.00</rpm>
</extensions>
</trkpt>
<trkpt lat="64.086540222" lon="-19.629859924">
<ele>304.414063</ele>
<time>2012-07-21T16:32:49Z</time>
<speed>1.740000</speed>
<extensions>
<speed>1.7</speed>
<temp>0.00</temp>
<bpm>0</bpm>
<rpm>0.00</rpm>
</extensions>
</trkpt>
<trkpt lat="64.086486816" lon="-19.629743576">
<ele>304.453125</ele>
<time>2012-07-21T16:32:54Z</time>
<speed>1.710000</speed>
<extensions>
<speed>1.7</speed>
<temp>0.00</temp>
<bpm>0</bpm>
<rpm>0.00</rpm>
</extensions>
</trkpt>
<trkpt lat="64.086433411" lon="-19.629632950">
<ele>304.742188</ele>
<time>2012-07-21T16:32:59Z</time>
<speed>1.540000</speed>
<extensions>
<speed>1.5</speed>
<temp>0.00</temp>
<bpm>0</bpm>
<rpm>0.00</rpm>
</extensions>
</trkpt>
<trkpt lat="64.086380005" lon="-19.629528046">
<ele>305.468750</ele>
<time>2012-07-21T16:33:04Z</time>
<speed>1.610000</speed>
<extensions>
<speed>1.6</speed>
<temp>0.00</temp>
<bpm>0</bpm>
<rpm>0.00</rpm>
</extensions>
</trkpt>
<trkpt lat="64.086318970" lon="-19.629402161">
<ele>306.171875</ele>
<time>2012-07-21T16:33:09Z</time>
<speed>1.010000</speed>
<extensions>
<speed>1.0</speed>
<temp>0.00</temp>
<bpm>0</bpm>
<rpm>0.00</rpm>
</extensions>
</trkpt>
<trkpt lat="64.086273193" lon="-19.629327774">
<ele>306.539063</ele>
<time>2012-07-21T16:33:14Z</time>
<speed>1.680000</speed>
<extensions>
<speed>1.7</speed>
<temp>0.00</temp>
<bpm>0</bpm>
<rpm>0.00</rpm>
</extensions>
</trkpt>
<trkpt lat="64.086212158" lon="-19.629203796">
<ele>306.867188</ele>
<time>2012-07-21T16:33:19Z</time>
<speed>2.000000</speed>
<extensions>
<speed>2.0</speed>
<temp>0.00</temp>
<bpm>0</bpm>
<rpm>0.00</rpm>
</extensions>
</trkpt>
<trkpt lat="64.086158752" lon="-19.629070282">
<ele>306.992188</ele>
<time>2012-07-21T16:33:24Z</time>
<speed>1.710000</speed>
<extensions>
<speed>1.7</speed>
<temp>0.00</temp>
<bpm>0</bpm>
<rpm>0.00</rpm>
</extensions>
</trkpt>
<trkpt lat="64.086097717" lon="-19.628963470">
<ele>306.867188</ele>
<time>2012-07-21T16:33:29Z</time>
<speed>1.000000</speed>
<extensions>
<speed>1.0</speed>
<temp>0.00</temp>
<bpm>0</bpm>
<rpm>0.00</rpm>
</extensions>
</trkpt>
<trkpt lat="64.086090088" lon="-19.628957748">
<ele>306.992188</ele>
<time>2012-07-21T16:33:34Z</time>
<speed>0.620000</speed>
<extensions>
<speed>0.6</speed>
<temp>0.00</temp>
<bpm>0</bpm>
<rpm>0.00</rpm>
</extensions>
</trkpt>
<trkpt lat="64.086090088" lon="-19.628957748">
<ele>306.859375</ele>
<time>2012-07-21T16:33:39Z</time>
<speed>0.030000</speed>
<extensions>
<speed>0.0</speed>
<temp>0.00</temp>
<bpm>0</bpm>
<rpm>0.00</rpm>
</extensions>
</trkpt>
<trkpt lat="64.086090088" lon="-19.628955841">
<ele>306.882813</ele>
<time>2012-07-21T16:33:44Z</time>
<speed>0.020000</speed>
<extensions>
<speed>0.0</speed>
<temp>0.00</temp>
<bpm>0</bpm>
<rpm>0.00</rpm>
</extensions>
</trkpt>
<trkpt lat="64.086090088" lon="-19.628955841">
<ele>306.890625</ele>
<time>2012-07-21T16:33:49Z</time>
<extensions>
<speed>0.0</speed>
<temp>0.00</temp>
<bpm>0</bpm>
<rpm>0.00</rpm>
</extensions>
</trkpt>
<trkpt lat="64.086090088" lon="-19.628955841">
<ele>306.890625</ele>
<time>2012-07-21T16:33:54Z</time>
<extensions>
<speed>0.0</speed>
<temp>0.00</temp>
<bpm>0</bpm>
<rpm>0.00</rpm>
</extensions>
</trkpt>
<trkpt lat="64.086090088" lon="-19.628955841">
<ele>306.890625</ele>
<time>2012-07-21T16:33:59Z</time>
<extensions>
<speed>0.0</speed>
<temp>0.00</temp>
<bpm>0</bpm>
<rpm>0.00</rpm>
</extensions>
</trkpt>
<trkpt lat="64.086090088" lon="-19.628955841">
<ele>306.890625</ele>
<time>2012-07-21T16:34:04Z</time>
<speed>0.050000</speed>
<extensions>
<speed>0.1</speed>
<temp>0.00</temp>
<bpm>0</bpm>
<rpm>0.00</rpm>
</extensions>
</trkpt>
<trkpt lat="64.086082458" lon="-19.628925323">
<ele>306.937500</ele>
<time>2012-07-21T16:34:09Z</time>
<speed>1.370000</speed>
<extensions>
<speed>1.4</speed>
<temp>0.00</temp>
<bpm>0</bpm>
<rpm>0.00</rpm>
</extensions>
</trkpt>
<trkpt lat="64.086036682" lon="-19.628824234">
<ele>307.078125</ele>
<time>2012-07-21T16:34:14Z</time>
<speed>1.440000</speed>
<extensions>
<speed>1.4</speed>
<temp>0.00</temp>
<bpm>0</bpm>
<rpm>0.00</rpm>
</extensions>
</trkpt>
<trkpt lat="64.085983276" lon="-19.628684998">
<ele>307.367188</ele>
<time>2012-07-21T16:34:19Z</time>
<speed>1.740000</speed>
<extensions>
<speed>1.7</speed>
<temp>0.00</temp>
<bpm>0</bpm>
<rpm>0.00</rpm>
</extensions>
</trkpt>
<trkpt lat="64.085929871" lon="-19.628545761">
<ele>307.750000</ele>
<time>2012-07-21T16:34:24Z</time>
<speed>1.330000</speed>
<extensions>
<speed>1.3</speed>
<temp>0.00</temp>
<bpm>0</bpm>
<rpm>0.00</rpm>
</extensions>
</trkpt>
<trkpt lat="64.085891724" lon="-19.628410339">
<ele>307.804688</ele>
<time>2012-07-21T16:34:29Z</time>
<speed>1.700000</speed>
<extensions>
<speed>1.7</speed>
<temp>0.00</temp>
<bpm>0</bpm>
<rpm>0.00</rpm>
</extensions>
</trkpt>
<trkpt lat="64.085861206" lon="-19.628265381">
<ele>308.195313</ele>
<time>2012-07-21T16:34:34Z</time>
<speed>1.520000</speed>
<extensions>
<speed>1.5</speed>
<temp>0.00</temp>
<bpm>0</bpm>
<rpm>0.00</rpm>
</extensions>
</trkpt>
<trkpt lat="64.085823059" lon="-19.628112793">
<ele>308.117188</ele>
<time>2012-07-21T16:34:39Z</time>
<speed>1.760000</speed>
<extensions>
<speed>1.8</speed>
<temp>0.00</temp>
<bpm>0</bpm>
<rpm>0.00</rpm>
</extensions>
</trkpt>
<trkpt lat="64.085784912" lon="-19.627952576">
<ele>309.367188</ele>
<time>2012-07-21T16:34:44Z</time>
<speed>1.650000</speed>
<extensions>
<speed>1.7</speed>
<temp>0.00</temp>
<bpm>0</bpm>
<rpm>0.00</rpm>
</extensions>
</trkpt>
<trkpt lat="64.085754395" lon="-19.627782822">
<ele>309.359375</ele>
<time>2012-07-21T16:34:49Z</time>
<speed>1.660000</speed>
<extensions>
<speed>1.7</speed>
<temp>0.00</temp>
<bpm>0</bpm>
<rpm>0.00</rpm>
</extensions>
</trkpt>
<trkpt lat="64.085739136" lon="-19.627626419">
<ele>308.609375</ele>
<time>2012-07-21T16:34:54Z</time>
<speed>1.730000</speed>
<extensions>
<speed>1.7</speed>
<temp>0.00</temp>
<bpm>0</bpm>
<rpm>0.00</rpm>
</extensions>
</trkpt>
<trkpt lat="64.085723877" lon="-19.627447128">
<ele>308.359375</ele>
<time>2012-07-21T16:34:59Z</time>
<speed>1.700000</speed>
<extensions>
<speed>1.7</speed>
<temp>0.00</temp>
<bpm>0</bpm>
<rpm>0.00</rpm>
</extensions>
</trkpt>
<trkpt lat="64.085700989" lon="-19.627285004">
<ele>307.703125</ele>
<time>2012-07-21T16:35:04Z</time>
<speed>1.570000</speed>
<extensions>
<speed>1.6</speed>
<temp>0.00</temp>
<bpm>0</bpm>
<rpm>0.00</rpm>
</extensions>
</trkpt>
<trkpt lat="64.085708618" lon="-19.627141953">
<ele>307.539063</ele>
<time>2012-07-21T16:35:09Z</time>
<speed>1.550000</speed>
<extensions>
<speed>1.5</speed>
<temp>0.00</temp>
<bpm>0</bpm>
<rpm>0.00</rpm>
</extensions>
</trkpt>
<trkpt lat="64.085716248" lon="-19.626945496">
<ele>307.468750</ele>
<time>2012-07-21T16:35:14Z</time>
<speed>1.730000</speed>
<extensions>
<speed>1.7</speed>
<temp>0.00</temp>
<bpm>0</bpm>
<rpm>0.00</rpm>
</extensions>
</trkpt>
<trkpt lat="64.085716248" lon="-19.626758575">
<ele>306.570313</ele>
<time>2012-07-21T16:35:19Z</time>
<speed>1.880000</speed>
<extensions>
<speed>1.9</speed>
<temp>0.00</temp>
<bpm>0</bpm>
<rpm>0.00</rpm>
</extensions>
</trkpt>
<trkpt lat="64.085723877" lon="-19.626588821">
<ele>305.687500</ele>
<time>2012-07-21T16:35:24Z</time>
<speed>1.700000</speed>
<extensions>
<speed>1.7</speed>
<temp>0.00</temp>
<bpm>0</bpm>
<rpm>0.00</rpm>
</extensions>
</trkpt>
<trkpt lat="64.085739136" lon="-19.626388550">
<ele>305.429688</ele>
<time>2012-07-21T16:35:29Z</time>
<speed>1.940000</speed>
<extensions>
<speed>1.9</speed>
<temp>0.00</temp>
<bpm>0</bpm>
<rpm>0.00</rpm>
</extensions>
</trkpt>
<trkpt lat="64.085739136" lon="-19.626216888">
<ele>305.156250</ele>
<time>2012-07-21T16:35:34Z</time>
<speed>1.560000</speed>
<extensions>
<speed>1.6</speed>
<temp>0.00</temp>
<bpm>0</bpm>
<rpm>0.00</rpm>
</extensions>
</trkpt>
<trkpt lat="64.085723877" lon="-19.626039505">
<ele>305.000000</ele>
<time>2012-07-21T16:35:39Z</time>
<speed>1.770000</speed>
<extensions>
<speed>1.8</speed>
<temp>0.00</temp>
<bpm>0</bpm>
<rpm>0.00</rpm>
</extensions>
</trkpt>
<trkpt lat="64.085716248" lon="-19.625864029">
<ele>305.070313</ele>
<time>2012-07-21T16:35:44Z</time>
<speed>1.840000</speed>
<extensions>
<speed>1.8</speed>
<temp>0.00</temp>
<bpm>0</bpm>
<rpm>0.00</rpm>
</extensions>
</trkpt>
<trkpt lat="64.085708618" lon="-19.625661850">
<ele>305.789063</ele>
<time>2012-07-21T16:35:49Z</time>
<speed>1.770000</speed>
<extensions>
<speed>1.8</speed>
<temp>0.00</temp>
<bpm>0</bpm>
<rpm>0.00</rpm>
</extensions>
</trkpt>
<trkpt lat="64.085693359" lon="-19.625469208">
<ele>306.710938</ele>
<time>2012-07-21T16:35:54Z</time>
<speed>1.740000</speed>
<extensions>
<speed>1.7</speed>
<temp>0.00</temp>
<bpm>0</bpm>
<rpm>0.00</rpm>
</extensions>
</trkpt>
<trkpt lat="64.085685730" lon="-19.625339508">
<ele>308.398438</ele>
<time>2012-07-21T16:35:59Z</time>
<speed>1.250000</speed>
<extensions>
<speed>1.3</speed>
<temp>0.00</temp>
<bpm>0</bpm>
<rpm>0.00</rpm>
</extensions>
</trkpt>
<trkpt lat="64.085685730" lon="-19.625198364">
<ele>309.445313</ele>
<time>2012-07-21T16:36:04Z</time>
<speed>1.500000</speed>
<extensions>
<speed>1.5</speed>
<temp>0.00</temp>
<bpm>0</bpm>
<rpm>0.00</rpm>
</extensions>
</trkpt>
<trkpt lat="64.085678101" lon="-19.625070572">
<ele>311.023438</ele>
<time>2012-07-21T16:36:09Z</time>
<speed>1.270000</speed>
<extensions>
<speed>1.3</speed>
<temp>0.00</temp>
<bpm>0</bpm>
<rpm>0.00</rpm>
</extensions>
</trkpt>
<trkpt lat="64.085655212" lon="-19.624940872">
<ele>312.164063</ele>
<time>2012-07-21T16:36:14Z</time>
<speed>1.310000</speed>
<extensions>
<speed>1.3</speed>
<temp>0.00</temp>
<bpm>0</bpm>
<rpm>0.00</rpm>
</extensions>
</trkpt>
<trkpt lat="64.085639954" lon="-19.624795914">
<ele>313.125000</ele>
<time>2012-07-21T16:36:19Z</time>
<speed>1.660000</speed>
<extensions>
<speed>1.7</speed>
<temp>0.00</temp>
<bpm>0</bpm>
<rpm>0.00</rpm>
</extensions>
</trkpt>
<trkpt lat="64.085624695" lon="-19.624614716">
<ele>312.210938</ele>
<time>2012-07-21T16:36:24Z</time>
<speed>1.860000</speed>
<extensions>
<speed>1.9</speed>
<temp>0.00</temp>
<bpm>0</bpm>
<rpm>0.00</rpm>
</extensions>
</trkpt>
<trkpt lat="64.085624695" lon="-19.624431610">
<ele>312.617188</ele>
<time>2012-07-21T16:36:29Z</time>
<speed>1.970000</speed>
<extensions>
<speed>2.0</speed>
<temp>0.00</temp>
<bpm>0</bpm>
<rpm>0.00</rpm>
</extensions>
</trkpt>
<trkpt lat="64.085624695" lon="-19.624223709">
<ele>311.609375</ele>
<time>2012-07-21T16:36:34Z</time>
<speed>1.840000</speed>
<extensions>
<speed>1.8</speed>
<temp>0.00</temp>
<bpm>0</bpm>
<rpm>0.00</rpm>
</extensions>
</trkpt>
<trkpt lat="64.085624695" lon="-19.624044418">
<ele>311.531250</ele>
<time>2012-07-21T16:36:39Z</time>
<speed>1.480000</speed>
<extensions>
<speed>1.5</speed>
<temp>0.00</temp>
<bpm>0</bpm>
<rpm>0.00</rpm>
</extensions>
</trkpt>
<trkpt lat="64.085647583" lon="-19.623945236">
<ele>312.398438</ele>
<time>2012-07-21T16:36:44Z</time>
<speed>1.590000</speed>
<extensions>
<speed>1.6</speed>
<temp>0.00</temp>
<bpm>0</bpm>
<rpm>0.00</rpm>
</extensions>
</trkpt>
<trkpt lat="64.085647583" lon="-19.623762131">
<ele>312.375000</ele>
<time>2012-07-21T16:36:49Z</time>
<speed>1.810000</speed>
<extensions>
<speed>1.8</speed>
<temp>0.00</temp>
<bpm>0</bpm>
<rpm>0.00</rpm>
</extensions>
</trkpt>
<trkpt lat="64.085655212" lon="-19.623561859">
<ele>312.726563</ele>
<time>2012-07-21T16:36:54Z</time>
<speed>1.880000</speed>
<extensions>
<speed>1.9</speed>
<temp>0.00</temp>
<bpm>0</bpm>
<rpm>0.00</rpm>
</extensions>
</trkpt>
<trkpt lat="64.085655212" lon="-19.623363495">
<ele>313.710938</ele>
<time>2012-07-21T16:36:59Z</time>
<speed>1.940000</speed>
<extensions>
<speed>1.9</speed>
<temp>0.00</temp>
<bpm>0</bpm>
<rpm>0.00</rpm>
</extensions>
</trkpt>
<trkpt lat="64.085655212" lon="-19.623144150">
<ele>314.140625</ele>
<time>2012-07-21T16:37:04Z</time>
<speed>2.070000</speed>
<extensions>
<speed>2.1</speed>
<temp>0.00</temp>
<bpm>0</bpm>
<rpm>0.00</rpm>
</extensions>
</trkpt>
<trkpt lat="64.085647583" lon="-19.623014450">
<ele>314.390625</ele>
<time>2012-07-21T16:37:09Z</time>
<speed>1.430000</speed>
<extensions>
<speed>1.4</speed>
<temp>0.00</temp>
<bpm>0</bpm>
<rpm>0.00</rpm>
</extensions>
</trkpt>
<trkpt lat="64.085639954" lon="-19.622861862">
<ele>315.062500</ele>
<time>2012-07-21T16:37:14Z</time>
<speed>1.450000</speed>
<extensions>
<speed>1.4</speed>
<temp>0.00</temp>
<bpm>0</bpm>
<rpm>0.00</rpm>
</extensions>
</trkpt>
<trkpt lat="64.085647583" lon="-19.622695923">
<ele>315.109375</ele>
<time>2012-07-21T16:37:19Z</time>
<speed>1.550000</speed>
<extensions>
<speed>1.5</speed>
<temp>0.00</temp>
<bpm>0</bpm>
<rpm>0.00</rpm>
</extensions>
</trkpt>
<trkpt lat="64.085647583" lon="-19.622528076">
<ele>314.359375</ele>
<time>2012-07-21T16:37:24Z</time>
<speed>1.750000</speed>
<extensions>
<speed>1.8</speed>
<temp>0.00</temp>
<bpm>0</bpm>
<rpm>0.00</rpm>
</extensions>
</trkpt>
<trkpt lat="64.085632324" lon="-19.622335434">
<ele>313.546875</ele>
<time>2012-07-21T16:37:29Z</time>
<speed>2.060000</speed>
<extensions>
<speed>2.1</speed>
<temp>0.00</temp>
<bpm>0</bpm>
<rpm>0.00</rpm>
</extensions>
</trkpt>
<trkpt lat="64.085617065" lon="-19.622133255">
<ele>313.507813</ele>
<time>2012-07-21T16:37:34Z</time>
<speed>1.940000</speed>
<extensions>
<speed>1.9</speed>
<temp>0.00</temp>
<bpm>0</bpm>
<rpm>0.00</rpm>
</extensions>
</trkpt>
<trkpt lat="64.085594177" lon="-19.621950150">
<ele>314.218750</ele>
<time>2012-07-21T16:37:39Z</time>
<speed>2.030000</speed>
<extensions>
<speed>2.0</speed>
<temp>0.00</temp>
<bpm>0</bpm>
<rpm>0.00</rpm>
</extensions>
</trkpt>
<trkpt lat="64.085578918" lon="-19.621770859">
<ele>314.453125</ele>
<time>2012-07-21T16:37:44Z</time>
<speed>1.630000</speed>
<extensions>
<speed>1.6</speed>
<temp>0.00</temp>
<bpm>0</bpm>
<rpm>0.00</rpm>
</extensions>
</trkpt>
<trkpt lat="64.085563660" lon="-19.621603012">
<ele>314.859375</ele>
<time>2012-07-21T16:37:49Z</time>
<speed>1.490000</speed>
<extensions>
<speed>1.5</speed>
<temp>0.00</temp>
<bpm>0</bpm>
<rpm>0.00</rpm>
</extensions>
</trkpt>
<trkpt lat="64.085540771" lon="-19.621438980">
<ele>313.281250</ele>
<time>2012-07-21T16:37:54Z</time>
<speed>1.670000</speed>
<extensions>
<speed>1.7</speed>
<temp>0.00</temp>
<bpm>0</bpm>
<rpm>0.00</rpm>
</extensions>
</trkpt>
<trkpt lat="64.085533142" lon="-19.621269226">
<ele>312.734375</ele>
<time>2012-07-21T16:37:59Z</time>
<speed>1.640000</speed>
<extensions>
<speed>1.6</speed>
<temp>0.00</temp>
<bpm>0</bpm>
<rpm>0.00</rpm>
</extensions>
</trkpt>
<trkpt lat="64.085517883" lon="-19.621114731">
<ele>313.039063</ele>
<time>2012-07-21T16:38:04Z</time>
<speed>1.690000</speed>
<extensions>
<speed>1.7</speed>
<temp>0.00</temp>
<bpm>0</bpm>
<rpm>0.00</rpm>
</extensions>
</trkpt>
<trkpt lat="64.085502625" lon="-19.620950699">
<ele>313.671875</ele>
<time>2012-07-21T16:38:09Z</time>
<speed>1.730000</speed>
<extensions>
<speed>1.7</speed>
<temp>0.00</temp>
<bpm>0</bpm>
<rpm>0.00</rpm>
</extensions>
</trkpt>
<trkpt lat="64.085487366" lon="-19.620759964">
<ele>313.382813</ele>
<time>2012-07-21T16:38:14Z</time>
<speed>1.690000</speed>
<extensions>
<speed>1.7</speed>
<temp>0.00</temp>
<bpm>0</bpm>
<rpm>0.00</rpm>
</extensions>
</trkpt>
<trkpt lat="64.085472107" lon="-19.620586395">
<ele>313.109375</ele>
<time>2012-07-21T16:38:19Z</time>
<speed>1.480000</speed>
<extensions>
<speed>1.5</speed>
<temp>0.00</temp>
<bpm>0</bpm>
<rpm>0.00</rpm>
</extensions>
</trkpt>
<trkpt lat="64.085464478" lon="-19.620437622">
<ele>314.250000</ele>
<time>2012-07-21T16:38:24Z</time>
<speed>1.760000</speed>
<extensions>
<speed>1.8</speed>
<temp>0.00</temp>
<bpm>0</bpm>
<rpm>0.00</rpm>
</extensions>
</trkpt>
<trkpt lat="64.085441589" lon="-19.620262146">
<ele>313.609375</ele>
<time>2012-07-21T16:38:29Z</time>
<speed>1.570000</speed>
<extensions>
<speed>1.6</speed>
<temp>0.00</temp>
<bpm>0</bpm>
<rpm>0.00</rpm>
</extensions>
</trkpt>
<trkpt lat="64.085426331" lon="-19.620088577">
<ele>313.171875</ele>
<time>2012-07-21T16:38:34Z</time>
<speed>1.920000</speed>
<extensions>
<speed>1.9</speed>
<temp>0.00</temp>
<bpm>0</bpm>
<rpm>0.00</rpm>
</extensions>
</trkpt>
<trkpt lat="64.085388184" lon="-19.619920731">
<ele>313.359375</ele>
<time>2012-07-21T16:38:39Z</time>
<speed>1.710000</speed>
<extensions>
<speed>1.7</speed>
<temp>0.00</temp>
<bpm>0</bpm>
<rpm>0.00</rpm>
</extensions>
</trkpt>
<trkpt lat="64.085380554" lon="-19.619750977">
<ele>313.828125</ele>
<time>2012-07-21T16:38:44Z</time>
<speed>1.880000</speed>
<extensions>
<speed>1.9</speed>
<temp>0.00</temp>
<bpm>0</bpm>
<rpm>0.00</rpm>
</extensions>
</trkpt>
<trkpt lat="64.085365295" lon="-19.619613647">
<ele>314.281250</ele>
<time>2012-07-21T16:38:49Z</time>
<speed>1.320000</speed>
<extensions>
<speed>1.3</speed>
<temp>0.00</temp>
<bpm>0</bpm>
<rpm>0.00</rpm>
</extensions>
</trkpt>
<trkpt lat="64.085334778" lon="-19.619527817">
<ele>314.312500</ele>
<time>2012-07-21T16:38:54Z</time>
<speed>1.230000</speed>
<extensions>
<speed>1.2</speed>
<temp>0.00</temp>
<bpm>0</bpm>
<rpm>0.00</rpm>
</extensions>
</trkpt>
<trkpt lat="64.085311890" lon="-19.619373322">
<ele>313.414063</ele>
<time>2012-07-21T16:38:59Z</time>
<speed>1.540000</speed>
<extensions>
<speed>1.5</speed>
<temp>0.00</temp>
<bpm>0</bpm>
<rpm>0.00</rpm>
</extensions>
</trkpt>
<trkpt lat="64.085289001" lon="-19.619215012">
<ele>314.125000</ele>
<time>2012-07-21T16:39:04Z</time>
<speed>1.860000</speed>
<extensions>
<speed>1.9</speed>
<temp>0.00</temp>
<bpm>0</bpm>
<rpm>0.00</rpm>
</extensions>
</trkpt>
<trkpt lat="64.085266113" lon="-19.619037628">
<ele>314.375000</ele>
<time>2012-07-21T16:39:09Z</time>
<speed>1.930000</speed>
<extensions>
<speed>1.9</speed>
<temp>0.00</temp>
<bpm>0</bpm>
<rpm>0.00</rpm>
</extensions>
</trkpt>
<trkpt lat="64.085250854" lon="-19.618860245">
<ele>314.757813</ele>
<time>2012-07-21T16:39:14Z</time>
<speed>1.700000</speed>
<extensions>
<speed>1.7</speed>
<temp>0.00</temp>
<bpm>0</bpm>
<rpm>0.00</rpm>
</extensions>
</trkpt>
<trkpt lat="64.085235596" lon="-19.618682861">
<ele>315.062500</ele>
<time>2012-07-21T16:39:19Z</time>
<speed>1.620000</speed>
<extensions>
<speed>1.6</speed>
<temp>0.00</temp>
<bpm>0</bpm>
<rpm>0.00</rpm>
</extensions>
</trkpt>
<trkpt lat="64.085220337" lon="-19.618520737">
<ele>315.742188</ele>
<time>2012-07-21T16:39:24Z</time>
<speed>1.520000</speed>
<extensions>
<speed>1.5</speed>
<temp>0.00</temp>
<bpm>0</bpm>
<rpm>0.00</rpm>
</extensions>
</trkpt>
<trkpt lat="64.085212708" lon="-19.618356705">
<ele>315.484375</ele>
<time>2012-07-21T16:39:29Z</time>
<speed>1.360000</speed>
<extensions>
<speed>1.4</speed>
<temp>0.00</temp>
<bpm>0</bpm>
<rpm>0.00</rpm>
</extensions>
</trkpt>
<trkpt lat="64.085189819" lon="-19.618198395">
<ele>315.718750</ele>
<time>2012-07-21T16:39:34Z</time>
<speed>1.830000</speed>
<extensions>
<speed>1.8</speed>
<temp>0.00</temp>
<bpm>0</bpm>
<rpm>0.00</rpm>
</extensions>
</trkpt>
<trkpt lat="64.085174561" lon="-19.618041992">
<ele>316.242188</ele>
<time>2012-07-21T16:39:39Z</time>
<speed>1.760000</speed>
<extensions>
<speed>1.8</speed>
<temp>0.00</temp>
<bpm>0</bpm>
<rpm>0.00</rpm>
</extensions>
</trkpt>
<trkpt lat="64.085151672" lon="-19.617864609">
<ele>316.406250</ele>
<time>2012-07-21T16:39:44Z</time>
<speed>1.930000</speed>
<extensions>
<speed>1.9</speed>
<temp>0.00</temp>
<bpm>0</bpm>
<rpm>0.00</rpm>
</extensions>
</trkpt>
<trkpt lat="64.085136414" lon="-19.617683411">
<ele>317.742188</ele>
<time>2012-07-21T16:39:49Z</time>
<speed>1.670000</speed>
<extensions>
<speed>1.7</speed>
<temp>0.00</temp>
<bpm>0</bpm>
<rpm>0.00</rpm>
</extensions>
</trkpt>
<trkpt lat="64.085121155" lon="-19.617609024">
<ele>317.835938</ele>
<time>2012-07-21T16:39:54Z</time>
<speed>0.040000</speed>
<extensions>
<speed>0.0</speed>
<temp>0.00</temp>
<bpm>0</bpm>
<rpm>0.00</rpm>
</extensions>
</trkpt>
<trkpt lat="64.085121155" lon="-19.617614746">
<ele>318.015625</ele>
<time>2012-07-21T16:39:59Z</time>
<speed>0.030000</speed>
<extensions>
<speed>0.0</speed>
<temp>0.00</temp>
<bpm>0</bpm>
<rpm>0.00</rpm>
</extensions>
</trkpt>
<trkpt lat="64.085121155" lon="-19.617612839">
<ele>318.109375</ele>
<time>2012-07-21T16:40:04Z</time>
<speed>0.010000</speed>
<extensions>
<speed>0.0</speed>
<temp>0.00</temp>
<bpm>0</bpm>
<rpm>0.00</rpm>
</extensions>
</trkpt>
<trkpt lat="64.085121155" lon="-19.617605209">
<ele>318.289063</ele>
<time>2012-07-21T16:40:09Z</time>
<speed>0.390000</speed>
<extensions>
<speed>0.4</speed>
<temp>0.00</temp>
<bpm>0</bpm>
<rpm>0.00</rpm>
</extensions>
</trkpt>
<trkpt lat="64.085121155" lon="-19.617576599">
<ele>317.632813</ele>
<time>2012-07-21T16:40:14Z</time>
<speed>0.500000</speed>
<extensions>
<speed>0.5</speed>
<temp>0.00</temp>
<bpm>0</bpm>
<rpm>0.00</rpm>
</extensions>
</trkpt>
<trkpt lat="64.085098267" lon="-19.617471695">
<ele>317.335938</ele>
<time>2012-07-21T16:40:19Z</time>
<speed>1.580000</speed>
<extensions>
<speed>1.6</speed>
<temp>0.00</temp>
<bpm>0</bpm>
<rpm>0.00</rpm>
</extensions>
</trkpt>
<trkpt lat="64.085083008" lon="-19.617305756">
<ele>318.125000</ele>
<time>2012-07-21T16:40:24Z</time>
<speed>1.620000</speed>
<extensions>
<speed>1.6</speed>
<temp>0.00</temp>
<bpm>0</bpm>
<rpm>0.00</rpm>
</extensions>
</trkpt>
<trkpt lat="64.085067749" lon="-19.617151260">
<ele>319.648438</ele>
<time>2012-07-21T16:40:29Z</time>
<speed>1.510000</speed>
<extensions>
<speed>1.5</speed>
<temp>0.00</temp>
<bpm>0</bpm>
<rpm>0.00</rpm>
</extensions>
</trkpt>
<trkpt lat="64.085052490" lon="-19.616956711">
<ele>320.562500</ele>
<time>2012-07-21T16:40:34Z</time>
<speed>1.830000</speed>
<extensions>
<speed>1.8</speed>
<temp>0.00</temp>
<bpm>0</bpm>
<rpm>0.00</rpm>
</extensions>
</trkpt>
<trkpt lat="64.085037231" lon="-19.616756439">
<ele>321.273438</ele>
<time>2012-07-21T16:40:39Z</time>
<speed>1.710000</speed>
<extensions>
<speed>1.7</speed>
<temp>0.00</temp>
<bpm>0</bpm>
<rpm>0.00</rpm>
</extensions>
</trkpt>
<trkpt lat="64.085014343" lon="-19.616607666">
<ele>322.578125</ele>
<time>2012-07-21T16:40:44Z</time>
<speed>0.320000</speed>
<extensions>
<speed>0.3</speed>
<temp>0.00</temp>
<bpm>0</bpm>
<rpm>0.00</rpm>
</extensions>
</trkpt>
<trkpt lat="64.085014343" lon="-19.616609573">
<ele>323.000000</ele>
<time>2012-07-21T16:40:49Z</time>
<speed>0.790000</speed>
<extensions>
<speed>0.8</speed>
<temp>0.00</temp>
<bpm>0</bpm>
<rpm>0.00</rpm>
</extensions>
</trkpt>
<trkpt lat="64.085037231" lon="-19.616491318">
<ele>324.554688</ele>
<time>2012-07-21T16:40:54Z</time>
<speed>1.260000</speed>
<extensions>
<speed>1.3</speed>
<temp>0.00</temp>
<bpm>0</bpm>
<rpm>0.00</rpm>
</extensions>
</trkpt>
<trkpt lat="64.085021973" lon="-19.616352081">
<ele>324.578125</ele>
<time>2012-07-21T16:40:59Z</time>
<speed>1.400000</speed>
<extensions>
<speed>1.4</speed>
<temp>0.00</temp>
<bpm>0</bpm>
<rpm>0.00</rpm>
</extensions>
</trkpt>
<trkpt lat="64.085014343" lon="-19.616300583">
<ele>323.968750</ele>
<time>2012-07-21T16:41:04Z</time>
<speed>0.070000</speed>
<extensions>
<speed>0.1</speed>
<temp>0.00</temp>
<bpm>0</bpm>
<rpm>0.00</rpm>
</extensions>
</trkpt>
<trkpt lat="64.085014343" lon="-19.616306305">
<ele>323.820313</ele>
<time>2012-07-21T16:41:09Z</time>
<speed>0.010000</speed>
<extensions>
<speed>0.0</speed>
<temp>0.00</temp>
<bpm>0</bpm>
<rpm>0.00</rpm>
</extensions>
</trkpt>
<trkpt lat="64.085014343" lon="-19.616306305">
<ele>323.796875</ele>
<time>2012-07-21T16:41:14Z</time>
<speed>0.010000</speed>
<extensions>
<speed>0.0</speed>
<temp>0.00</temp>
<bpm>0</bpm>
<rpm>0.00</rpm>
</extensions>
</trkpt>
<trkpt lat="64.085014343" lon="-19.616306305">
<ele>323.773438</ele>
<time>2012-07-21T16:41:19Z</time>
<speed>0.010000</speed>
<extensions>
<speed>0.0</speed>
<temp>0.00</temp>
<bpm>0</bpm>
<rpm>0.00</rpm>
</extensions>
</trkpt>
<trkpt lat="64.085014343" lon="-19.616306305">
<ele>323.796875</ele>
<time>2012-07-21T16:41:24Z</time>
<speed>0.010000</speed>
<extensions>
<speed>0.0</speed>
<temp>0.00</temp>
<bpm>0</bpm>
<rpm>0.00</rpm>
</extensions>
</trkpt>
<trkpt lat="64.085014343" lon="-19.616308212">
<ele>323.796875</ele>
<time>2012-07-21T16:41:29Z</time>
<speed>0.010000</speed>
<extensions>
<speed>0.0</speed>
<temp>0.00</temp>
<bpm>0</bpm>
<rpm>0.00</rpm>
</extensions>
</trkpt>
<trkpt lat="64.085014343" lon="-19.616308212">
<ele>323.804688</ele>
<time>2012-07-21T16:41:34Z</time>
<speed>0.010000</speed>
<extensions>
<speed>0.0</speed>
<temp>0.00</temp>
<bpm>0</bpm>
<rpm>0.00</rpm>
</extensions>
</trkpt>
<trkpt lat="64.085006714" lon="-19.616296768">
<ele>323.875000</ele>
<time>2012-07-21T16:41:39Z</time>
<speed>0.050000</speed>
<extensions>
<speed>0.1</speed>
<temp>0.00</temp>
<bpm>0</bpm>
<rpm>0.00</rpm>
</extensions>
</trkpt>
<trkpt lat="64.085014343" lon="-19.616292953">
<ele>323.882813</ele>
<time>2012-07-21T16:41:44Z</time>
<speed>0.010000</speed>
<extensions>
<speed>0.0</speed>
<temp>0.00</temp>
<bpm>0</bpm>
<rpm>0.00</rpm>
</extensions>
</trkpt>
<trkpt lat="64.085014343" lon="-19.616292953">
<ele>323.882813</ele>
<time>2012-07-21T16:41:49Z</time>
<extensions>
<speed>0.0</speed>
<temp>0.00</temp>
<bpm>0</bpm>
<rpm>0.00</rpm>
</extensions>
</trkpt>
<trkpt lat="64.085014343" lon="-19.616292953">
<ele>323.867188</ele>
<time>2012-07-21T16:41:54Z</time>
<speed>0.020000</speed>
<extensions>
<speed>0.0</speed>
<temp>0.00</temp>
<bpm>0</bpm>
<rpm>0.00</rpm>
</extensions>
</trkpt>
<trkpt lat="64.085014343" lon="-19.616292953">
<ele>323.867188</ele>
<time>2012-07-21T16:41:59Z</time>
<extensions>
<speed>0.0</speed>
<temp>0.00</temp>
<bpm>0</bpm>
<rpm>0.00</rpm>
</extensions>
</trkpt>
<trkpt lat="64.085014343" lon="-19.616292953">
<ele>323.859375</ele>
<time>2012-07-21T16:42:04Z</time>
<extensions>
<speed>0.0</speed>
<temp>0.00</temp>
<bpm>0</bpm>
<rpm>0.00</rpm>
</extensions>
</trkpt>
<trkpt lat="64.085014343" lon="-19.616292953">
<ele>323.851563</ele>
<time>2012-07-21T16:42:09Z</time>
<extensions>
<speed>0.0</speed>
<temp>0.00</temp>
<bpm>0</bpm>
<rpm>0.00</rpm>
</extensions>
</trkpt>
<trkpt lat="64.085014343" lon="-19.616292953">
<ele>323.851563</ele>
<time>2012-07-21T16:42:14Z</time>
<extensions>
<speed>0.0</speed>
<temp>0.00</temp>
<bpm>0</bpm>
<rpm>0.00</rpm>
</extensions>
</trkpt>
<trkpt lat="64.085014343" lon="-19.616292953">
<ele>323.851563</ele>
<time>2012-07-21T16:42:19Z</time>
<speed>0.010000</speed>
<extensions>
<speed>0.0</speed>
<temp>0.00</temp>
<bpm>0</bpm>
<rpm>0.00</rpm>
</extensions>
</trkpt>
<trkpt lat="64.085014343" lon="-19.616292953">
<ele>323.843750</ele>
<time>2012-07-21T16:42:24Z</time>
<extensions>
<speed>0.0</speed>
<temp>0.00</temp>
<bpm>0</bpm>
<rpm>0.00</rpm>
</extensions>
</trkpt>
<trkpt lat="64.085014343" lon="-19.616292953">
<ele>323.843750</ele>
<time>2012-07-21T16:42:29Z</time>
<extensions>
<speed>0.0</speed>
<temp>0.00</temp>
<bpm>0</bpm>
<rpm>0.00</rpm>
</extensions>
</trkpt>
<trkpt lat="64.085014343" lon="-19.616292953">
<ele>323.835938</ele>
<time>2012-07-21T16:42:34Z</time>
<extensions>
<speed>0.0</speed>
<temp>0.00</temp>
<bpm>0</bpm>
<rpm>0.00</rpm>
</extensions>
</trkpt>
<trkpt lat="64.085014343" lon="-19.616294861">
<ele>323.835938</ele>
<time>2012-07-21T16:42:39Z</time>
<extensions>
<speed>0.0</speed>
<temp>0.00</temp>
<bpm>0</bpm>
<rpm>0.00</rpm>
</extensions>
</trkpt>
<trkpt lat="64.085014343" lon="-19.616294861">
<ele>323.828125</ele>
<time>2012-07-21T16:42:44Z</time>
<extensions>
<speed>0.0</speed>
<temp>0.00</temp>
<bpm>0</bpm>
<rpm>0.00</rpm>
</extensions>
</trkpt>
<trkpt lat="64.085014343" lon="-19.616294861">
<ele>323.828125</ele>
<time>2012-07-21T16:42:49Z</time>
<extensions>
<speed>0.0</speed>
<temp>0.00</temp>
<bpm>0</bpm>
<rpm>0.00</rpm>
</extensions>
</trkpt>
<trkpt lat="64.085014343" lon="-19.616294861">
<ele>323.828125</ele>
<time>2012-07-21T16:42:54Z</time>
<extensions>
<speed>0.0</speed>
<temp>0.00</temp>
<bpm>0</bpm>
<rpm>0.00</rpm>
</extensions>
</trkpt>
<trkpt lat="64.085014343" lon="-19.616294861">
<ele>323.828125</ele>
<time>2012-07-21T16:42:59Z</time>
<speed>0.010000</speed>
<extensions>
<speed>0.0</speed>
<temp>0.00</temp>
<bpm>0</bpm>
<rpm>0.00</rpm>
</extensions>
</trkpt>
<trkpt lat="64.085014343" lon="-19.616294861">
<ele>323.820313</ele>
<time>2012-07-21T16:43:04Z</time>
<speed>0.020000</speed>
<extensions>
<speed>0.0</speed>
<temp>0.00</temp>
<bpm>0</bpm>
<rpm>0.00</rpm>
</extensions>
</trkpt>
<trkpt lat="64.085014343" lon="-19.616294861">
<ele>323.812500</ele>
<time>2012-07-21T16:43:09Z</time>
<speed>0.010000</speed>
<extensions>
<speed>0.0</speed>
<temp>0.00</temp>
<bpm>0</bpm>
<rpm>0.00</rpm>
</extensions>
</trkpt>
<trkpt lat="64.085014343" lon="-19.616294861">
<ele>323.812500</ele>
<time>2012-07-21T16:43:14Z</time>
<extensions>
<speed>0.0</speed>
<temp>0.00</temp>
<bpm>0</bpm>
<rpm>0.00</rpm>
</extensions>
</trkpt>
<trkpt lat="64.085014343" lon="-19.616294861">
<ele>323.812500</ele>
<time>2012-07-21T16:43:19Z</time>
<speed>0.260000</speed>
<extensions>
<speed>0.3</speed>
<temp>0.00</temp>
<bpm>0</bpm>
<rpm>0.00</rpm>
</extensions>
</trkpt>
<trkpt lat="64.085029602" lon="-19.616218567">
<ele>323.812500</ele>
<time>2012-07-21T16:43:24Z</time>
<speed>1.320000</speed>
<extensions>
<speed>1.3</speed>
<temp>0.00</temp>
<bpm>0</bpm>
<rpm>0.00</rpm>
</extensions>
</trkpt>
<trkpt lat="64.085044861" lon="-19.616125107">
<ele>324.398438</ele>
<time>2012-07-21T16:43:29Z</time>
<speed>1.100000</speed>
<extensions>
<speed>1.1</speed>
<temp>0.00</temp>
<bpm>0</bpm>
<rpm>0.00</rpm>
</extensions>
</trkpt>
<trkpt lat="64.085037231" lon="-19.616035461">
<ele>324.101563</ele>
<time>2012-07-21T16:43:34Z</time>
<speed>1.300000</speed>
<extensions>
<speed>1.3</speed>
<temp>0.00</temp>
<bpm>0</bpm>
<rpm>0.00</rpm>
</extensions>
</trkpt>
<trkpt lat="64.085060120" lon="-19.615892410">
<ele>324.734375</ele>
<time>2012-07-21T16:43:39Z</time>
<speed>1.260000</speed>
<extensions>
<speed>1.3</speed>
<temp>0.00</temp>
<bpm>0</bpm>
<rpm>0.00</rpm>
</extensions>
</trkpt>
<trkpt lat="64.085052490" lon="-19.615736008">
<ele>324.671875</ele>
<time>2012-07-21T16:43:44Z</time>
<speed>1.630000</speed>
<extensions>
<speed>1.6</speed>
<temp>0.00</temp>
<bpm>0</bpm>
<rpm>0.00</rpm>
</extensions>
</trkpt>
<trkpt lat="64.085044861" lon="-19.615556717">
<ele>324.445313</ele>
<time>2012-07-21T16:43:49Z</time>
<speed>1.810000</speed>
<extensions>
<speed>1.8</speed>
<temp>0.00</temp>
<bpm>0</bpm>
<rpm>0.00</rpm>
</extensions>
</trkpt>
<trkpt lat="64.085052490" lon="-19.615335464">
<ele>323.945313</ele>
<time>2012-07-21T16:43:54Z</time>
<speed>2.040000</speed>
<extensions>
<speed>2.0</speed>
<temp>0.00</temp>
<bpm>0</bpm>
<rpm>0.00</rpm>
</extensions>
</trkpt>
<trkpt lat="64.085060120" lon="-19.615154266">
<ele>323.828125</ele>
<time>2012-07-21T16:43:59Z</time>
<speed>1.500000</speed>
<extensions>
<speed>1.5</speed>
<temp>0.00</temp>
<bpm>0</bpm>
<rpm>0.00</rpm>
</extensions>
</trkpt>
<trkpt lat="64.085044861" lon="-19.614971161">
<ele>323.687500</ele>
<time>2012-07-21T16:44:04Z</time>
<speed>1.870000</speed>
<extensions>
<speed>1.9</speed>
<temp>0.00</temp>
<bpm>0</bpm>
<rpm>0.00</rpm>
</extensions>
</trkpt>
<trkpt lat="64.085037231" lon="-19.614830017">
<ele>324.007813</ele>
<time>2012-07-21T16:44:09Z</time>
<speed>0.870000</speed>
<extensions>
<speed>0.9</speed>
<temp>0.00</temp>
<bpm>0</bpm>
<rpm>0.00</rpm>
</extensions>
</trkpt>
<trkpt lat="64.085021973" lon="-19.614725113">
<ele>322.546875</ele>
<time>2012-07-21T16:44:14Z</time>
<speed>1.500000</speed>
<extensions>
<speed>1.5</speed>
<temp>0.00</temp>
<bpm>0</bpm>
<rpm>0.00</rpm>
</extensions>
</trkpt>
<trkpt lat="64.084999084" lon="-19.614585876">
<ele>322.671875</ele>
<time>2012-07-21T16:44:19Z</time>
<speed>1.490000</speed>
<extensions>
<speed>1.5</speed>
<temp>0.00</temp>
<bpm>0</bpm>
<rpm>0.00</rpm>
</extensions>
</trkpt>
<trkpt lat="64.084968567" lon="-19.614475250">
<ele>323.195313</ele>
<time>2012-07-21T16:44:24Z</time>
<speed>1.370000</speed>
<extensions>
<speed>1.4</speed>
<temp>0.00</temp>
<bpm>0</bpm>
<rpm>0.00</rpm>
</extensions>
</trkpt>
<trkpt lat="64.084938049" lon="-19.614355087">
<ele>323.398438</ele>
<time>2012-07-21T16:44:29Z</time>
<speed>1.330000</speed>
<extensions>
<speed>1.3</speed>
<temp>0.00</temp>
<bpm>0</bpm>
<rpm>0.00</rpm>
</extensions>
</trkpt>
<trkpt lat="64.084915161" lon="-19.614238739">
<ele>323.679688</ele>
<time>2012-07-21T16:44:34Z</time>
<speed>1.320000</speed>
<extensions>
<speed>1.3</speed>
<temp>0.00</temp>
<bpm>0</bpm>
<rpm>0.00</rpm>
</extensions>
</trkpt>
<trkpt lat="64.084892273" lon="-19.614122391">
<ele>323.914063</ele>
<time>2012-07-21T16:44:39Z</time>
<speed>1.240000</speed>
<extensions>
<speed>1.2</speed>
<temp>0.00</temp>
<bpm>0</bpm>
<rpm>0.00</rpm>
</extensions>
</trkpt>
<trkpt lat="64.084869385" lon="-19.614002228">
<ele>324.179688</ele>
<time>2012-07-21T16:44:44Z</time>
<speed>1.210000</speed>
<extensions>
<speed>1.2</speed>
<temp>0.00</temp>
<bpm>0</bpm>
<rpm>0.00</rpm>
</extensions>
</trkpt>
<trkpt lat="64.084861755" lon="-19.613851547">
<ele>323.765625</ele>
<time>2012-07-21T16:44:49Z</time>
<speed>1.510000</speed>
<extensions>
<speed>1.5</speed>
<temp>0.00</temp>
<bpm>0</bpm>
<rpm>0.00</rpm>
</extensions>
</trkpt>
<trkpt lat="64.084846497" lon="-19.613698959">
<ele>324.375000</ele>
<time>2012-07-21T16:44:54Z</time>
<speed>1.520000</speed>
<extensions>
<speed>1.5</speed>
<temp>0.00</temp>
<bpm>0</bpm>
<rpm>0.00</rpm>
</extensions>
</trkpt>
<trkpt lat="64.084831238" lon="-19.613542557">
<ele>325.250000</ele>
<time>2012-07-21T16:44:59Z</time>
<speed>1.670000</speed>
<extensions>
<speed>1.7</speed>
<temp>0.00</temp>
<bpm>0</bpm>
<rpm>0.00</rpm>
</extensions>
</trkpt>
<trkpt lat="64.084815979" lon="-19.613401413">
<ele>325.796875</ele>
<time>2012-07-21T16:45:04Z</time>
<speed>1.570000</speed>
<extensions>
<speed>1.6</speed>
<temp>0.00</temp>
<bpm>0</bpm>
<rpm>0.00</rpm>
</extensions>
</trkpt>
<trkpt lat="64.084793091" lon="-19.613241196">
<ele>326.539063</ele>
<time>2012-07-21T16:45:09Z</time>
<speed>1.710000</speed>
<extensions>
<speed>1.7</speed>
<temp>0.00</temp>
<bpm>0</bpm>
<rpm>0.00</rpm>
</extensions>
</trkpt>
<trkpt lat="64.084770203" lon="-19.613079071">
<ele>326.789063</ele>
<time>2012-07-21T16:45:14Z</time>
<speed>1.580000</speed>
<extensions>
<speed>1.6</speed>
<temp>0.00</temp>
<bpm>0</bpm>
<rpm>0.00</rpm>
</extensions>
</trkpt>
<trkpt lat="64.084754944" lon="-19.612905502">
<ele>326.562500</ele>
<time>2012-07-21T16:45:19Z</time>
<speed>1.530000</speed>
<extensions>
<speed>1.5</speed>
<temp>0.00</temp>
<bpm>0</bpm>
<rpm>0.00</rpm>
</extensions>
</trkpt>
<trkpt lat="64.084754944" lon="-19.612855911">
<ele>326.265625</ele>
<time>2012-07-21T16:45:24Z</time>
<speed>0.220000</speed>
<extensions>
<speed>0.2</speed>
<temp>0.00</temp>
<bpm>0</bpm>
<rpm>0.00</rpm>
</extensions>
</trkpt>
<trkpt lat="64.084747314" lon="-19.612836838">
<ele>326.054688</ele>
<time>2012-07-21T16:45:29Z</time>
<speed>1.000000</speed>
<extensions>
<speed>1.0</speed>
<temp>0.00</temp>
<bpm>0</bpm>
<rpm>0.00</rpm>
</extensions>
</trkpt>
<trkpt lat="64.084732056" lon="-19.612741470">
<ele>326.375000</ele>
<time>2012-07-21T16:45:34Z</time>
<speed>1.050000</speed>
<extensions>
<speed>1.0</speed>
<temp>0.00</temp>
<bpm>0</bpm>
<rpm>0.00</rpm>
</extensions>
</trkpt>
<trkpt lat="64.084716797" lon="-19.612638474">
<ele>326.867188</ele>
<time>2012-07-21T16:45:39Z</time>
<speed>1.090000</speed>
<extensions>
<speed>1.1</speed>
<temp>0.00</temp>
<bpm>0</bpm>
<rpm>0.00</rpm>
</extensions>
</trkpt>
<trkpt lat="64.084716797" lon="-19.612548828">
<ele>327.546875</ele>
<time>2012-07-21T16:45:44Z</time>
<speed>0.260000</speed>
<extensions>
<speed>0.3</speed>
<temp>0.00</temp>
<bpm>0</bpm>
<rpm>0.00</rpm>
</extensions>
</trkpt>
<trkpt lat="64.084716797" lon="-19.612504959">
<ele>328.117188</ele>
<time>2012-07-21T16:45:49Z</time>
<speed>0.810000</speed>
<extensions>
<speed>0.8</speed>
<temp>0.00</temp>
<bpm>0</bpm>
<rpm>0.00</rpm>
</extensions>
</trkpt>
<trkpt lat="64.084701538" lon="-19.612432480">
<ele>328.570313</ele>
<time>2012-07-21T16:45:54Z</time>
<speed>0.690000</speed>
<extensions>
<speed>0.7</speed>
<temp>0.00</temp>
<bpm>0</bpm>
<rpm>0.00</rpm>
</extensions>
</trkpt>
<trkpt lat="64.084693909" lon="-19.612348557">
<ele>328.453125</ele>
<time>2012-07-21T16:45:59Z</time>
<speed>0.790000</speed>
<extensions>
<speed>0.8</speed>
<temp>0.00</temp>
<bpm>0</bpm>
<rpm>0.00</rpm>
</extensions>
</trkpt>
<trkpt lat="64.084686279" lon="-19.612262726">
<ele>328.734375</ele>
<time>2012-07-21T16:46:04Z</time>
<speed>0.710000</speed>
<extensions>
<speed>0.7</speed>
<temp>0.00</temp>
<bpm>0</bpm>
<rpm>0.00</rpm>
</extensions>
</trkpt>
<trkpt lat="64.084678650" lon="-19.612165451">
<ele>329.203125</ele>
<time>2012-07-21T16:46:09Z</time>
<speed>0.930000</speed>
<extensions>
<speed>0.9</speed>
<temp>0.00</temp>
<bpm>0</bpm>
<rpm>0.00</rpm>
</extensions>
</trkpt>
<trkpt lat="64.084671021" lon="-19.612089157">
<ele>329.187500</ele>
<time>2012-07-21T16:46:14Z</time>
<speed>0.740000</speed>
<extensions>
<speed>0.7</speed>
<temp>0.00</temp>
<bpm>0</bpm>
<rpm>0.00</rpm>
</extensions>
</trkpt>
<trkpt lat="64.084663391" lon="-19.612009048">
<ele>329.726563</ele>
<time>2012-07-21T16:46:19Z</time>
<speed>0.760000</speed>
<extensions>
<speed>0.8</speed>
<temp>0.00</temp>
<bpm>0</bpm>
<rpm>0.00</rpm>
</extensions>
</trkpt>
<trkpt lat="64.084640503" lon="-19.611948013">
<ele>330.156250</ele>
<time>2012-07-21T16:46:24Z</time>
<speed>0.670000</speed>
<extensions>
<speed>0.7</speed>
<temp>0.00</temp>
<bpm>0</bpm>
<rpm>0.00</rpm>
</extensions>
</trkpt>
<trkpt lat="64.084632874" lon="-19.611864090">
<ele>330.476563</ele>
<time>2012-07-21T16:46:29Z</time>
<speed>0.920000</speed>
<extensions>
<speed>0.9</speed>
<temp>0.00</temp>
<bpm>0</bpm>
<rpm>0.00</rpm>
</extensions>
</trkpt>
<trkpt lat="64.084625244" lon="-19.611776352">
<ele>330.945313</ele>
<time>2012-07-21T16:46:34Z</time>
<speed>0.980000</speed>
<extensions>
<speed>1.0</speed>
<temp>0.00</temp>
<bpm>0</bpm>
<rpm>0.00</rpm>
</extensions>
</trkpt>
<trkpt lat="64.084609985" lon="-19.611675262">
<ele>331.289063</ele>
<time>2012-07-21T16:46:39Z</time>
<speed>0.910000</speed>
<extensions>
<speed>0.9</speed>
<temp>0.00</temp>
<bpm>0</bpm>
<rpm>0.00</rpm>
</extensions>
</trkpt>
<trkpt lat="64.084609985" lon="-19.611608505">
<ele>331.695313</ele>
<time>2012-07-21T16:46:44Z</time>
<speed>0.110000</speed>
<extensions>
<speed>0.1</speed>
<temp>0.00</temp>
<bpm>0</bpm>
<rpm>0.00</rpm>
</extensions>
</trkpt>
<trkpt lat="64.084609985" lon="-19.611568451">
<ele>331.726563</ele>
<time>2012-07-21T16:46:49Z</time>
<speed>1.010000</speed>
<extensions>
<speed>1.0</speed>
<temp>0.00</temp>
<bpm>0</bpm>
<rpm>0.00</rpm>
</extensions>
</trkpt>
<trkpt lat="64.084602356" lon="-19.611450195">
<ele>331.031250</ele>
<time>2012-07-21T16:46:54Z</time>
<speed>1.010000</speed>
<extensions>
<speed>1.0</speed>
<temp>0.00</temp>
<bpm>0</bpm>
<rpm>0.00</rpm>
</extensions>
</trkpt>
<trkpt lat="64.084594727" lon="-19.611335754">
<ele>331.343750</ele>
<time>2012-07-21T16:46:59Z</time>
<speed>1.240000</speed>
<extensions>
<speed>1.2</speed>
<temp>0.00</temp>
<bpm>0</bpm>
<rpm>0.00</rpm>
</extensions>
</trkpt>
<trkpt lat="64.084579468" lon="-19.611213684">
<ele>331.546875</ele>
<time>2012-07-21T16:47:04Z</time>
<speed>1.260000</speed>
<extensions>
<speed>1.3</speed>
<temp>0.00</temp>
<bpm>0</bpm>
<rpm>0.00</rpm>
</extensions>
</trkpt>
<trkpt lat="64.084564209" lon="-19.611101151">
<ele>332.101563</ele>
<time>2012-07-21T16:47:09Z</time>
<speed>1.170000</speed>
<extensions>
<speed>1.2</speed>
<temp>0.00</temp>
<bpm>0</bpm>
<rpm>0.00</rpm>
</extensions>
</trkpt>
<trkpt lat="64.084541321" lon="-19.610990524">
<ele>332.296875</ele>
<time>2012-07-21T16:47:14Z</time>
<speed>1.230000</speed>
<extensions>
<speed>1.2</speed>
<temp>0.00</temp>
<bpm>0</bpm>
<rpm>0.00</rpm>
</extensions>
</trkpt>
<trkpt lat="64.084526062" lon="-19.610912323">
<ele>333.148438</ele>
<time>2012-07-21T16:47:19Z</time>
<speed>0.900000</speed>
<extensions>
<speed>0.9</speed>
<temp>0.00</temp>
<bpm>0</bpm>
<rpm>0.00</rpm>
</extensions>
</trkpt>
<trkpt lat="64.084503174" lon="-19.610895157">
<ele>333.156250</ele>
<time>2012-07-21T16:47:24Z</time>
<speed>0.190000</speed>
<extensions>
<speed>0.2</speed>
<temp>0.00</temp>
<bpm>0</bpm>
<rpm>0.00</rpm>
</extensions>
</trkpt>
<trkpt lat="64.084503174" lon="-19.610897064">
<ele>333.289063</ele>
<time>2012-07-21T16:47:29Z</time>
<speed>0.020000</speed>
<extensions>
<speed>0.0</speed>
<temp>0.00</temp>
<bpm>0</bpm>
<rpm>0.00</rpm>
</extensions>
</trkpt>
<trkpt lat="64.084503174" lon="-19.610898972">
<ele>333.382813</ele>
<time>2012-07-21T16:47:34Z</time>
<speed>0.050000</speed>
<extensions>
<speed>0.1</speed>
<temp>0.00</temp>
<bpm>0</bpm>
<rpm>0.00</rpm>
</extensions>
</trkpt>
<trkpt lat="64.084503174" lon="-19.610900879">
<ele>333.414063</ele>
<time>2012-07-21T16:47:39Z</time>
<speed>0.060000</speed>
<extensions>
<speed>0.1</speed>
<temp>0.00</temp>
<bpm>0</bpm>
<rpm>0.00</rpm>
</extensions>
</trkpt>
<trkpt lat="64.084503174" lon="-19.610900879">
<ele>333.414063</ele>
<time>2012-07-21T16:47:44Z</time>
<speed>0.010000</speed>
<extensions>
<speed>0.0</speed>
<temp>0.00</temp>
<bpm>0</bpm>
<rpm>0.00</rpm>
</extensions>
</trkpt>
<trkpt lat="64.084503174" lon="-19.610900879">
<ele>333.421875</ele>
<time>2012-07-21T16:47:49Z</time>
<speed>0.010000</speed>
<extensions>
<speed>0.0</speed>
<temp>0.00</temp>
<bpm>0</bpm>
<rpm>0.00</rpm>
</extensions>
</trkpt>
<trkpt lat="64.084503174" lon="-19.610900879">
<ele>333.414063</ele>
<time>2012-07-21T16:47:54Z</time>
<speed>0.020000</speed>
<extensions>
<speed>0.0</speed>
<temp>0.00</temp>
<bpm>0</bpm>
<rpm>0.00</rpm>
</extensions>
</trkpt>
<trkpt lat="64.084503174" lon="-19.610895157">
<ele>333.367188</ele>
<time>2012-07-21T16:47:59Z</time>
<speed>0.540000</speed>
<extensions>
<speed>0.5</speed>
<temp>0.00</temp>
<bpm>0</bpm>
<rpm>0.00</rpm>
</extensions>
</trkpt>
<trkpt lat="64.084480286" lon="-19.610818863">
<ele>333.312500</ele>
<time>2012-07-21T16:48:04Z</time>
<speed>0.390000</speed>
<extensions>
<speed>0.4</speed>
<temp>0.00</temp>
<bpm>0</bpm>
<rpm>0.00</rpm>
</extensions>
</trkpt>
<trkpt lat="64.084487915" lon="-19.610818863">
<ele>333.609375</ele>
<time>2012-07-21T16:48:09Z</time>
<speed>0.080000</speed>
<extensions>
<speed>0.1</speed>
<temp>0.00</temp>
<bpm>0</bpm>
<rpm>0.00</rpm>
</extensions>
</trkpt>
<trkpt lat="64.084480286" lon="-19.610759735">
<ele>333.609375</ele>
<time>2012-07-21T16:48:14Z</time>
<speed>0.940000</speed>
<extensions>
<speed>0.9</speed>
<temp>0.00</temp>
<bpm>0</bpm>
<rpm>0.00</rpm>
</extensions>
</trkpt>
<trkpt lat="64.084449768" lon="-19.610664368">
<ele>333.734375</ele>
<time>2012-07-21T16:48:19Z</time>
<speed>1.010000</speed>
<extensions>
<speed>1.0</speed>
<temp>0.00</temp>
<bpm>0</bpm>
<rpm>0.00</rpm>
</extensions>
</trkpt>
<trkpt lat="64.084442139" lon="-19.610557556">
<ele>333.789063</ele>
<time>2012-07-21T16:48:24Z</time>
<speed>0.870000</speed>
<extensions>
<speed>0.9</speed>
<temp>0.00</temp>
<bpm>0</bpm>
<rpm>0.00</rpm>
</extensions>
</trkpt>
<trkpt lat="64.084411621" lon="-19.610452652">
<ele>333.992188</ele>
<time>2012-07-21T16:48:29Z</time>
<speed>1.090000</speed>
<extensions>
<speed>1.1</speed>
<temp>0.00</temp>
<bpm>0</bpm>
<rpm>0.00</rpm>
</extensions>
</trkpt>
<trkpt lat="64.084403992" lon="-19.610349655">
<ele>335.101563</ele>
<time>2012-07-21T16:48:34Z</time>
<speed>1.060000</speed>
<extensions>
<speed>1.1</speed>
<temp>0.00</temp>
<bpm>0</bpm>
<rpm>0.00</rpm>
</extensions>
</trkpt>
<trkpt lat="64.084381104" lon="-19.610242844">
<ele>335.695313</ele>
<time>2012-07-21T16:48:39Z</time>
<speed>1.090000</speed>
<extensions>
<speed>1.1</speed>
<temp>0.00</temp>
<bpm>0</bpm>
<rpm>0.00</rpm>
</extensions>
</trkpt>
<trkpt lat="64.084373474" lon="-19.610202789">
<ele>336.085938</ele>
<time>2012-07-21T16:48:44Z</time>
<speed>0.330000</speed>
<extensions>
<speed>0.3</speed>
<temp>0.00</temp>
<bpm>0</bpm>
<rpm>0.00</rpm>
</extensions>
</trkpt>
<trkpt lat="64.084358215" lon="-19.610134125">
<ele>336.593750</ele>
<time>2012-07-21T16:48:49Z</time>
<speed>0.400000</speed>
<extensions>
<speed>0.4</speed>
<temp>0.00</temp>
<bpm>0</bpm>
<rpm>0.00</rpm>
</extensions>
</trkpt>
<trkpt lat="64.084350586" lon="-19.610067368">
<ele>337.281250</ele>
<time>2012-07-21T16:48:54Z</time>
<speed>0.990000</speed>
<extensions>
<speed>1.0</speed>
<temp>0.00</temp>
<bpm>0</bpm>
<rpm>0.00</rpm>
</extensions>
</trkpt>
<trkpt lat="64.084335327" lon="-19.609952927">
<ele>337.148438</ele>
<time>2012-07-21T16:48:59Z</time>
<speed>1.010000</speed>
<extensions>
<speed>1.0</speed>
<temp>0.00</temp>
<bpm>0</bpm>
<rpm>0.00</rpm>
</extensions>
</trkpt>
<trkpt lat="64.084327698" lon="-19.609836578">
<ele>337.234375</ele>
<time>2012-07-21T16:49:04Z</time>
<speed>1.080000</speed>
<extensions>
<speed>1.1</speed>
<temp>0.00</temp>
<bpm>0</bpm>
<rpm>0.00</rpm>
</extensions>
</trkpt>
<trkpt lat="64.084304810" lon="-19.609745026">
<ele>337.453125</ele>
<time>2012-07-21T16:49:09Z</time>
<speed>0.940000</speed>
<extensions>
<speed>0.9</speed>
<temp>0.00</temp>
<bpm>0</bpm>
<rpm>0.00</rpm>
</extensions>
</trkpt>
<trkpt lat="64.084297180" lon="-19.609638214">
<ele>337.664063</ele>
<time>2012-07-21T16:49:14Z</time>
<speed>0.950000</speed>
<extensions>
<speed>1.0</speed>
<temp>0.00</temp>
<bpm>0</bpm>
<rpm>0.00</rpm>
</extensions>
</trkpt>
<trkpt lat="64.084281921" lon="-19.609539032">
<ele>338.218750</ele>
<time>2012-07-21T16:49:19Z</time>
<speed>1.100000</speed>
<extensions>
<speed>1.1</speed>
<temp>0.00</temp>
<bpm>0</bpm>
<rpm>0.00</rpm>
</extensions>
</trkpt>
<trkpt lat="64.084274292" lon="-19.609426498">
<ele>338.539063</ele>
<time>2012-07-21T16:49:24Z</time>
<speed>1.050000</speed>
<extensions>
<speed>1.0</speed>
<temp>0.00</temp>
<bpm>0</bpm>
<rpm>0.00</rpm>
</extensions>
</trkpt>
<trkpt lat="64.084259033" lon="-19.609308243">
<ele>338.343750</ele>
<time>2012-07-21T16:49:29Z</time>
<speed>1.060000</speed>
<extensions>
<speed>1.1</speed>
<temp>0.00</temp>
<bpm>0</bpm>
<rpm>0.00</rpm>
</extensions>
</trkpt>
<trkpt lat="64.084236145" lon="-19.609193802">
<ele>337.640625</ele>
<time>2012-07-21T16:49:34Z</time>
<speed>1.100000</speed>
<extensions>
<speed>1.1</speed>
<temp>0.00</temp>
<bpm>0</bpm>
<rpm>0.00</rpm>
</extensions>
</trkpt>
<trkpt lat="64.084220886" lon="-19.609067917">
<ele>337.375000</ele>
<time>2012-07-21T16:49:39Z</time>
<speed>1.120000</speed>
<extensions>
<speed>1.1</speed>
<temp>0.00</temp>
<bpm>0</bpm>
<rpm>0.00</rpm>
</extensions>
</trkpt>
<trkpt lat="64.084205627" lon="-19.608959198">
<ele>336.804688</ele>
<time>2012-07-21T16:49:44Z</time>
<speed>1.070000</speed>
<extensions>
<speed>1.1</speed>
<temp>0.00</temp>
<bpm>0</bpm>
<rpm>0.00</rpm>
</extensions>
</trkpt>
<trkpt lat="64.084190369" lon="-19.608852386">
<ele>336.921875</ele>
<time>2012-07-21T16:49:49Z</time>
<speed>1.060000</speed>
<extensions>
<speed>1.1</speed>
<temp>0.00</temp>
<bpm>0</bpm>
<rpm>0.00</rpm>
</extensions>
</trkpt>
<trkpt lat="64.084182739" lon="-19.608745575">
<ele>337.179688</ele>
<time>2012-07-21T16:49:54Z</time>
<speed>0.930000</speed>
<extensions>
<speed>0.9</speed>
<temp>0.00</temp>
<bpm>0</bpm>
<rpm>0.00</rpm>
</extensions>
</trkpt>
<trkpt lat="64.084175110" lon="-19.608655930">
<ele>336.562500</ele>
<time>2012-07-21T16:49:59Z</time>
<speed>0.960000</speed>
<extensions>
<speed>1.0</speed>
<temp>0.00</temp>
<bpm>0</bpm>
<rpm>0.00</rpm>
</extensions>
</trkpt>
<trkpt lat="64.084175110" lon="-19.608539581">
<ele>337.343750</ele>
<time>2012-07-21T16:50:04Z</time>
<speed>1.080000</speed>
<extensions>
<speed>1.1</speed>
<temp>0.00</temp>
<bpm>0</bpm>
<rpm>0.00</rpm>
</extensions>
</trkpt>
<trkpt lat="64.084175110" lon="-19.608444214">
<ele>337.968750</ele>
<time>2012-07-21T16:50:09Z</time>
<speed>1.060000</speed>
<extensions>
<speed>1.1</speed>
<temp>0.00</temp>
<bpm>0</bpm>
<rpm>0.00</rpm>
</extensions>
</trkpt>
<trkpt lat="64.084167480" lon="-19.608343124">
<ele>337.390625</ele>
<time>2012-07-21T16:50:14Z</time>
<speed>0.610000</speed>
<extensions>
<speed>0.6</speed>
<temp>0.00</temp>
<bpm>0</bpm>
<rpm>0.00</rpm>
</extensions>
</trkpt>
<trkpt lat="64.084144592" lon="-19.608236313">
<ele>336.421875</ele>
<time>2012-07-21T16:50:19Z</time>
<speed>1.120000</speed>
<extensions>
<speed>1.1</speed>
<temp>0.00</temp>
<bpm>0</bpm>
<rpm>0.00</rpm>
</extensions>
</trkpt>
<trkpt lat="64.084152222" lon="-19.608118057">
<ele>337.351563</ele>
<time>2012-07-21T16:50:24Z</time>
<speed>0.960000</speed>
<extensions>
<speed>1.0</speed>
<temp>0.00</temp>
<bpm>0</bpm>
<rpm>0.00</rpm>
</extensions>
</trkpt>
<trkpt lat="64.084144592" lon="-19.608015060">
<ele>338.320313</ele>
<time>2012-07-21T16:50:29Z</time>
<speed>0.930000</speed>
<extensions>
<speed>0.9</speed>
<temp>0.00</temp>
<bpm>0</bpm>
<rpm>0.00</rpm>
</extensions>
</trkpt>
<trkpt lat="64.084129333" lon="-19.607902527">
<ele>338.312500</ele>
<time>2012-07-21T16:50:34Z</time>
<speed>1.050000</speed>
<extensions>
<speed>1.0</speed>
<temp>0.00</temp>
<bpm>0</bpm>
<rpm>0.00</rpm>
</extensions>
</trkpt>
<trkpt lat="64.084114075" lon="-19.607810974">
<ele>338.929688</ele>
<time>2012-07-21T16:50:39Z</time>
<speed>1.080000</speed>
<extensions>
<speed>1.1</speed>
<temp>0.00</temp>
<bpm>0</bpm>
<rpm>0.00</rpm>
</extensions>
</trkpt>
<trkpt lat="64.084098816" lon="-19.607681274">
<ele>338.781250</ele>
<time>2012-07-21T16:50:44Z</time>
<speed>1.040000</speed>
<extensions>
<speed>1.0</speed>
<temp>0.00</temp>
<bpm>0</bpm>
<rpm>0.00</rpm>
</extensions>
</trkpt>
<trkpt lat="64.084098816" lon="-19.607582092">
<ele>339.695313</ele>
<time>2012-07-21T16:50:49Z</time>
<speed>1.000000</speed>
<extensions>
<speed>1.0</speed>
<temp>0.00</temp>
<bpm>0</bpm>
<rpm>0.00</rpm>
</extensions>
</trkpt>
<trkpt lat="64.084083557" lon="-19.607456207">
<ele>339.007813</ele>
<time>2012-07-21T16:50:54Z</time>
<speed>1.100000</speed>
<extensions>
<speed>1.1</speed>
<temp>0.00</temp>
<bpm>0</bpm>
<rpm>0.00</rpm>
</extensions>
</trkpt>
<trkpt lat="64.084083557" lon="-19.607395172">
<ele>338.515625</ele>
<time>2012-07-21T16:50:59Z</time>
<speed>1.080000</speed>
<extensions>
<speed>1.1</speed>
<temp>0.00</temp>
<bpm>0</bpm>
<rpm>0.00</rpm>
</extensions>
</trkpt>
<trkpt lat="64.084060669" lon="-19.607263565">
<ele>338.070313</ele>
<time>2012-07-21T16:51:04Z</time>
<speed>1.200000</speed>
<extensions>
<speed>1.2</speed>
<temp>0.00</temp>
<bpm>0</bpm>
<rpm>0.00</rpm>
</extensions>
</trkpt>
<trkpt lat="64.084053040" lon="-19.607137680">
<ele>337.937500</ele>
<time>2012-07-21T16:51:09Z</time>
<speed>1.100000</speed>
<extensions>
<speed>1.1</speed>
<temp>0.00</temp>
<bpm>0</bpm>
<rpm>0.00</rpm>
</extensions>
</trkpt>
<trkpt lat="64.084045410" lon="-19.607019424">
<ele>337.664063</ele>
<time>2012-07-21T16:51:14Z</time>
<speed>0.980000</speed>
<extensions>
<speed>1.0</speed>
<temp>0.00</temp>
<bpm>0</bpm>
<rpm>0.00</rpm>
</extensions>
</trkpt>
<trkpt lat="64.084022522" lon="-19.606943130">
<ele>337.390625</ele>
<time>2012-07-21T16:51:19Z</time>
<speed>1.100000</speed>
<extensions>
<speed>1.1</speed>
<temp>0.00</temp>
<bpm>0</bpm>
<rpm>0.00</rpm>
</extensions>
</trkpt>
<trkpt lat="64.084007263" lon="-19.606857300">
<ele>337.312500</ele>
<time>2012-07-21T16:51:24Z</time>
<speed>1.000000</speed>
<extensions>
<speed>1.0</speed>
<temp>0.00</temp>
<bpm>0</bpm>
<rpm>0.00</rpm>
</extensions>
</trkpt>
<trkpt lat="64.083984375" lon="-19.606765747">
<ele>337.531250</ele>
<time>2012-07-21T16:51:29Z</time>
<speed>0.960000</speed>
<extensions>
<speed>1.0</speed>
<temp>0.00</temp>
<bpm>0</bpm>
<rpm>0.00</rpm>
</extensions>
</trkpt>
<trkpt lat="64.083976746" lon="-19.606662750">
<ele>337.812500</ele>
<time>2012-07-21T16:51:34Z</time>
<speed>0.950000</speed>
<extensions>
<speed>1.0</speed>
<temp>0.00</temp>
<bpm>0</bpm>
<rpm>0.00</rpm>
</extensions>
</trkpt>
<trkpt lat="64.083969116" lon="-19.606599808">
<ele>338.859375</ele>
<time>2012-07-21T16:51:39Z</time>
<speed>0.020000</speed>
<extensions>
<speed>0.0</speed>
<temp>0.00</temp>
<bpm>0</bpm>
<rpm>0.00</rpm>
</extensions>
</trkpt>
<trkpt lat="64.083961487" lon="-19.606536865">
<ele>338.554688</ele>
<time>2012-07-21T16:51:44Z</time>
<speed>0.840000</speed>
<extensions>
<speed>0.8</speed>
<temp>0.00</temp>
<bpm>0</bpm>
<rpm>0.00</rpm>
</extensions>
</trkpt>
<trkpt lat="64.083946228" lon="-19.606420517">
<ele>338.273438</ele>
<time>2012-07-21T16:51:49Z</time>
<speed>0.930000</speed>
<extensions>
<speed>0.9</speed>
<temp>0.00</temp>
<bpm>0</bpm>
<rpm>0.00</rpm>
</extensions>
</trkpt>
<trkpt lat="64.083938599" lon="-19.606313705">
<ele>339.093750</ele>
<time>2012-07-21T16:51:54Z</time>
<speed>0.970000</speed>
<extensions>
<speed>1.0</speed>
<temp>0.00</temp>
<bpm>0</bpm>
<rpm>0.00</rpm>
</extensions>
</trkpt>
<trkpt lat="64.083930969" lon="-19.606204987">
<ele>339.242188</ele>
<time>2012-07-21T16:51:59Z</time>
<speed>1.000000</speed>
<extensions>
<speed>1.0</speed>
<temp>0.00</temp>
<bpm>0</bpm>
<rpm>0.00</rpm>
</extensions>
</trkpt>
<trkpt lat="64.083915710" lon="-19.606086731">
<ele>339.453125</ele>
<time>2012-07-21T16:52:04Z</time>
<speed>1.050000</speed>
<extensions>
<speed>1.0</speed>
<temp>0.00</temp>
<bpm>0</bpm>
<rpm>0.00</rpm>
</extensions>
</trkpt>
<trkpt lat="64.083900452" lon="-19.605972290">
<ele>339.195313</ele>
<time>2012-07-21T16:52:09Z</time>
<speed>1.020000</speed>
<extensions>
<speed>1.0</speed>
<temp>0.00</temp>
<bpm>0</bpm>
<rpm>0.00</rpm>
</extensions>
</trkpt>
<trkpt lat="64.083877563" lon="-19.605854034">
<ele>338.679688</ele>
<time>2012-07-21T16:52:14Z</time>
<speed>1.130000</speed>
<extensions>
<speed>1.1</speed>
<temp>0.00</temp>
<bpm>0</bpm>
<rpm>0.00</rpm>
</extensions>
</trkpt>
<trkpt lat="64.083862305" lon="-19.605726242">
<ele>338.039063</ele>
<time>2012-07-21T16:52:19Z</time>
<speed>1.130000</speed>
<extensions>
<speed>1.1</speed>
<temp>0.00</temp>
<bpm>0</bpm>
<rpm>0.00</rpm>
</extensions>
</trkpt>
<trkpt lat="64.083839417" lon="-19.605585098">
<ele>336.859375</ele>
<time>2012-07-21T16:52:24Z</time>
<speed>1.200000</speed>
<extensions>
<speed>1.2</speed>
<temp>0.00</temp>
<bpm>0</bpm>
<rpm>0.00</rpm>
</extensions>
</trkpt>
<trkpt lat="64.083831787" lon="-19.605457306">
<ele>336.710938</ele>
<time>2012-07-21T16:52:29Z</time>
<speed>0.970000</speed>
<extensions>
<speed>1.0</speed>
<temp>0.00</temp>
<bpm>0</bpm>
<rpm>0.00</rpm>
</extensions>
</trkpt>
<trkpt lat="64.083816528" lon="-19.605386734">
<ele>336.929688</ele>
<time>2012-07-21T16:52:34Z</time>
<speed>0.840000</speed>
<extensions>
<speed>0.8</speed>
<temp>0.00</temp>
<bpm>0</bpm>
<rpm>0.00</rpm>
</extensions>
</trkpt>
<trkpt lat="64.083808899" lon="-19.605306625">
<ele>337.687500</ele>
<time>2012-07-21T16:52:39Z</time>
<speed>0.850000</speed>
<extensions>
<speed>0.8</speed>
<temp>0.00</temp>
<bpm>0</bpm>
<rpm>0.00</rpm>
</extensions>
</trkpt>
<trkpt lat="64.083793640" lon="-19.605207443">
<ele>337.304688</ele>
<time>2012-07-21T16:52:44Z</time>
<speed>0.970000</speed>
<extensions>
<speed>1.0</speed>
<temp>0.00</temp>
<bpm>0</bpm>
<rpm>0.00</rpm>
</extensions>
</trkpt>
<trkpt lat="64.083801270" lon="-19.605112076">
<ele>338.242188</ele>
<time>2012-07-21T16:52:49Z</time>
<speed>1.370000</speed>
<extensions>
<speed>1.4</speed>
<temp>0.00</temp>
<bpm>0</bpm>
<rpm>0.00</rpm>
</extensions>
</trkpt>
<trkpt lat="64.083793640" lon="-19.604986191">
<ele>338.273438</ele>
<time>2012-07-21T16:52:54Z</time>
<speed>0.980000</speed>
<extensions>
<speed>1.0</speed>
<temp>0.00</temp>
<bpm>0</bpm>
<rpm>0.00</rpm>
</extensions>
</trkpt>
<trkpt lat="64.083793640" lon="-19.604877472">
<ele>338.171875</ele>
<time>2012-07-21T16:52:59Z</time>
<speed>1.210000</speed>
<extensions>
<speed>1.2</speed>
<temp>0.00</temp>
<bpm>0</bpm>
<rpm>0.00</rpm>
</extensions>
</trkpt>
<trkpt lat="64.083793640" lon="-19.604757309">
<ele>338.062500</ele>
<time>2012-07-21T16:53:04Z</time>
<speed>1.090000</speed>
<extensions>
<speed>1.1</speed>
<temp>0.00</temp>
<bpm>0</bpm>
<rpm>0.00</rpm>
</extensions>
</trkpt>
<trkpt lat="64.083786011" lon="-19.604648590">
<ele>338.421875</ele>
<time>2012-07-21T16:53:09Z</time>
<speed>1.080000</speed>
<extensions>
<speed>1.1</speed>
<temp>0.00</temp>
<bpm>0</bpm>
<rpm>0.00</rpm>
</extensions>
</trkpt>
<trkpt lat="64.083770752" lon="-19.604534149">
<ele>339.093750</ele>
<time>2012-07-21T16:53:14Z</time>
<speed>0.970000</speed>
<extensions>
<speed>1.0</speed>
<temp>0.00</temp>
<bpm>0</bpm>
<rpm>0.00</rpm>
</extensions>
</trkpt>
<trkpt lat="64.083770752" lon="-19.604518890">
<ele>339.320313</ele>
<time>2012-07-21T16:53:19Z</time>
<speed>0.020000</speed>
<extensions>
<speed>0.0</speed>
<temp>0.00</temp>
<bpm>0</bpm>
<rpm>0.00</rpm>
</extensions>
</trkpt>
<trkpt lat="64.083770752" lon="-19.604520798">
<ele>339.320313</ele>
<time>2012-07-21T16:53:24Z</time>
<speed>0.010000</speed>
<extensions>
<speed>0.0</speed>
<temp>0.00</temp>
<bpm>0</bpm>
<rpm>0.00</rpm>
</extensions>
</trkpt>
<trkpt lat="64.083770752" lon="-19.604520798">
<ele>339.242188</ele>
<time>2012-07-21T16:53:29Z</time>
<speed>0.030000</speed>
<extensions>
<speed>0.0</speed>
<temp>0.00</temp>
<bpm>0</bpm>
<rpm>0.00</rpm>
</extensions>
</trkpt>
<trkpt lat="64.083763123" lon="-19.604499817">
<ele>339.625000</ele>
<time>2012-07-21T16:53:34Z</time>
<speed>0.080000</speed>
<extensions>
<speed>0.1</speed>
<temp>0.00</temp>
<bpm>0</bpm>
<rpm>0.00</rpm>
</extensions>
</trkpt>
<trkpt lat="64.083763123" lon="-19.604507446">
<ele>339.789063</ele>
<time>2012-07-21T16:53:39Z</time>
<speed>0.040000</speed>
<extensions>
<speed>0.0</speed>
<temp>0.00</temp>
<bpm>0</bpm>
<rpm>0.00</rpm>
</extensions>
</trkpt>
<trkpt lat="64.083763123" lon="-19.604513168">
<ele>339.929688</ele>
<time>2012-07-21T16:53:44Z</time>
<speed>0.040000</speed>
<extensions>
<speed>0.0</speed>
<temp>0.00</temp>
<bpm>0</bpm>
<rpm>0.00</rpm>
</extensions>
</trkpt>
<trkpt lat="64.083763123" lon="-19.604513168">
<ele>339.906250</ele>
<time>2012-07-21T16:53:49Z</time>
<speed>0.020000</speed>
<extensions>
<speed>0.0</speed>
<temp>0.00</temp>
<bpm>0</bpm>
<rpm>0.00</rpm>
</extensions>
</trkpt>
<trkpt lat="64.083763123" lon="-19.604455948">
<ele>339.859375</ele>
<time>2012-07-21T16:53:54Z</time>
<speed>0.440000</speed>
<extensions>
<speed>0.4</speed>
<temp>0.00</temp>
<bpm>0</bpm>
<rpm>0.00</rpm>
</extensions>
</trkpt>
<trkpt lat="64.083747864" lon="-19.604362488">
<ele>339.992188</ele>
<time>2012-07-21T16:53:59Z</time>
<speed>0.870000</speed>
<extensions>
<speed>0.9</speed>
<temp>0.00</temp>
<bpm>0</bpm>
<rpm>0.00</rpm>
</extensions>
</trkpt>
<trkpt lat="64.083732605" lon="-19.604276657">
<ele>340.601563</ele>
<time>2012-07-21T16:54:04Z</time>
<speed>0.830000</speed>
<extensions>
<speed>0.8</speed>
<temp>0.00</temp>
<bpm>0</bpm>
<rpm>0.00</rpm>
</extensions>
</trkpt>
<trkpt lat="64.083724976" lon="-19.604198456">
<ele>341.328125</ele>
<time>2012-07-21T16:54:09Z</time>
<speed>0.730000</speed>
<extensions>
<speed>0.7</speed>
<temp>0.00</temp>
<bpm>0</bpm>
<rpm>0.00</rpm>
</extensions>
</trkpt>
<trkpt lat="64.083717346" lon="-19.604120255">
<ele>342.507813</ele>
<time>2012-07-21T16:54:14Z</time>
<speed>0.970000</speed>
<extensions>
<speed>1.0</speed>
<temp>0.00</temp>
<bpm>0</bpm>
<rpm>0.00</rpm>
</extensions>
</trkpt>
<trkpt lat="64.083702087" lon="-19.604011536">
<ele>343.054688</ele>
<time>2012-07-21T16:54:19Z</time>
<speed>0.780000</speed>
<extensions>
<speed>0.8</speed>
<temp>0.00</temp>
<bpm>0</bpm>
<rpm>0.00</rpm>
</extensions>
</trkpt>
<trkpt lat="64.083679199" lon="-19.603935242">
<ele>343.953125</ele>
<time>2012-07-21T16:54:24Z</time>
<speed>0.920000</speed>
<extensions>
<speed>0.9</speed>
<temp>0.00</temp>
<bpm>0</bpm>
<rpm>0.00</rpm>
</extensions>
</trkpt>
<trkpt lat="64.083656311" lon="-19.603855133">
<ele>344.703125</ele>
<time>2012-07-21T16:54:29Z</time>
<speed>0.950000</speed>
<extensions>
<speed>1.0</speed>
<temp>0.00</temp>
<bpm>0</bpm>
<rpm>0.00</rpm>
</extensions>
</trkpt>
<trkpt lat="64.083641052" lon="-19.603790283">
<ele>345.460938</ele>
<time>2012-07-21T16:54:34Z</time>
<speed>0.540000</speed>
<extensions>
<speed>0.5</speed>
<temp>0.00</temp>
<bpm>0</bpm>
<rpm>0.00</rpm>
</extensions>
</trkpt>
<trkpt lat="64.083633423" lon="-19.603731155">
<ele>345.828125</ele>
<time>2012-07-21T16:54:39Z</time>
<speed>0.590000</speed>
<extensions>
<speed>0.6</speed>
<temp>0.00</temp>
<bpm>0</bpm>
<rpm>0.00</rpm>
</extensions>
</trkpt>
<trkpt lat="64.083595276" lon="-19.603652954">
<ele>346.539063</ele>
<time>2012-07-21T16:54:44Z</time>
<speed>0.770000</speed>
<extensions>
<speed>0.8</speed>
<temp>0.00</temp>
<bpm>0</bpm>
<rpm>0.00</rpm>
</extensions>
</trkpt>
<trkpt lat="64.083580017" lon="-19.603570938">
<ele>346.929688</ele>
<time>2012-07-21T16:54:49Z</time>
<speed>0.470000</speed>
<extensions>
<speed>0.5</speed>
<temp>0.00</temp>
<bpm>0</bpm>
<rpm>0.00</rpm>
</extensions>
</trkpt>
<trkpt lat="64.083580017" lon="-19.603570938">
<ele>346.585938</ele>
<time>2012-07-21T16:54:54Z</time>
<speed>0.050000</speed>
<extensions>
<speed>0.1</speed>
<temp>0.00</temp>
<bpm>0</bpm>
<rpm>0.00</rpm>
</extensions>
</trkpt>
<trkpt lat="64.083572388" lon="-19.603557587">
<ele>346.609375</ele>
<time>2012-07-21T16:54:59Z</time>
<speed>0.770000</speed>
<extensions>
<speed>0.8</speed>
<temp>0.00</temp>
<bpm>0</bpm>
<rpm>0.00</rpm>
</extensions>
</trkpt>
<trkpt lat="64.083541870" lon="-19.603481293">
<ele>347.023438</ele>
<time>2012-07-21T16:55:04Z</time>
<speed>0.970000</speed>
<extensions>
<speed>1.0</speed>
<temp>0.00</temp>
<bpm>0</bpm>
<rpm>0.00</rpm>
</extensions>
</trkpt>
<trkpt lat="64.083511353" lon="-19.603416443">
<ele>347.726563</ele>
<time>2012-07-21T16:55:09Z</time>
<speed>0.930000</speed>
<extensions>
<speed>0.9</speed>
<temp>0.00</temp>
<bpm>0</bpm>
<rpm>0.00</rpm>
</extensions>
</trkpt>
<trkpt lat="64.083480835" lon="-19.603340149">
<ele>347.820313</ele>
<time>2012-07-21T16:55:14Z</time>
<speed>1.050000</speed>
<extensions>
<speed>1.0</speed>
<temp>0.00</temp>
<bpm>0</bpm>
<rpm>0.00</rpm>
</extensions>
</trkpt>
<trkpt lat="64.083457947" lon="-19.603248596">
<ele>347.343750</ele>
<time>2012-07-21T16:55:19Z</time>
<speed>1.030000</speed>
<extensions>
<speed>1.0</speed>
<temp>0.00</temp>
<bpm>0</bpm>
<rpm>0.00</rpm>
</extensions>
</trkpt>
<trkpt lat="64.083427429" lon="-19.603149414">
<ele>347.531250</ele>
<time>2012-07-21T16:55:24Z</time>
<speed>1.170000</speed>
<extensions>
<speed>1.2</speed>
<temp>0.00</temp>
<bpm>0</bpm>
<rpm>0.00</rpm>
</extensions>
</trkpt>
<trkpt lat="64.083396912" lon="-19.603073120">
<ele>348.523438</ele>
<time>2012-07-21T16:55:29Z</time>
<speed>1.020000</speed>
<extensions>
<speed>1.0</speed>
<temp>0.00</temp>
<bpm>0</bpm>
<rpm>0.00</rpm>
</extensions>
</trkpt>
<trkpt lat="64.083366394" lon="-19.602996826">
<ele>349.093750</ele>
<time>2012-07-21T16:55:34Z</time>
<speed>0.830000</speed>
<extensions>
<speed>0.8</speed>
<temp>0.00</temp>
<bpm>0</bpm>
<rpm>0.00</rpm>
</extensions>
</trkpt>
<trkpt lat="64.083328247" lon="-19.602905273">
<ele>348.726563</ele>
<time>2012-07-21T16:55:39Z</time>
<speed>1.130000</speed>
<extensions>
<speed>1.1</speed>
<temp>0.00</temp>
<bpm>0</bpm>
<rpm>0.00</rpm>
</extensions>
</trkpt>
<trkpt lat="64.083305359" lon="-19.602827072">
<ele>348.781250</ele>
<time>2012-07-21T16:55:44Z</time>
<speed>1.190000</speed>
<extensions>
<speed>1.2</speed>
<temp>0.00</temp>
<bpm>0</bpm>
<rpm>0.00</rpm>
</extensions>
</trkpt>
<trkpt lat="64.083274841" lon="-19.602720261">
<ele>348.453125</ele>
<time>2012-07-21T16:55:49Z</time>
<speed>1.210000</speed>
<extensions>
<speed>1.2</speed>
<temp>0.00</temp>
<bpm>0</bpm>
<rpm>0.00</rpm>
</extensions>
</trkpt>
<trkpt lat="64.083244324" lon="-19.602621078">
<ele>348.453125</ele>
<time>2012-07-21T16:55:54Z</time>
<speed>1.210000</speed>
<extensions>
<speed>1.2</speed>
<temp>0.00</temp>
<bpm>0</bpm>
<rpm>0.00</rpm>
</extensions>
</trkpt>
<trkpt lat="64.083213806" lon="-19.602535248">
<ele>348.585938</ele>
<time>2012-07-21T16:55:59Z</time>
<speed>0.330000</speed>
<extensions>
<speed>0.3</speed>
<temp>0.00</temp>
<bpm>0</bpm>
<rpm>0.00</rpm>
</extensions>
</trkpt>
<trkpt lat="64.083221436" lon="-19.602521896">
<ele>347.914063</ele>
<time>2012-07-21T16:56:04Z</time>
<speed>0.020000</speed>
<extensions>
<speed>0.0</speed>
<temp>0.00</temp>
<bpm>0</bpm>
<rpm>0.00</rpm>
</extensions>
</trkpt>
<trkpt lat="64.083221436" lon="-19.602523804">
<ele>347.945313</ele>
<time>2012-07-21T16:56:09Z</time>
<speed>0.120000</speed>
<extensions>
<speed>0.1</speed>
<temp>0.00</temp>
<bpm>0</bpm>
<rpm>0.00</rpm>
</extensions>
</trkpt>
<trkpt lat="64.083198547" lon="-19.602483749">
<ele>347.726563</ele>
<time>2012-07-21T16:56:14Z</time>
<speed>0.920000</speed>
<extensions>
<speed>0.9</speed>
<temp>0.00</temp>
<bpm>0</bpm>
<rpm>0.00</rpm>
</extensions>
</trkpt>
<trkpt lat="64.083175659" lon="-19.602411270">
<ele>347.789063</ele>
<time>2012-07-21T16:56:19Z</time>
<speed>0.900000</speed>
<extensions>
<speed>0.9</speed>
<temp>0.00</temp>
<bpm>0</bpm>
<rpm>0.00</rpm>
</extensions>
</trkpt>
<trkpt lat="64.083175659" lon="-19.602308273">
<ele>347.578125</ele>
<time>2012-07-21T16:56:24Z</time>
<speed>1.170000</speed>
<extensions>
<speed>1.2</speed>
<temp>0.00</temp>
<bpm>0</bpm>
<rpm>0.00</rpm>
</extensions>
</trkpt>
<trkpt lat="64.083160400" lon="-19.602212906">
<ele>347.914063</ele>
<time>2012-07-21T16:56:29Z</time>
<speed>1.180000</speed>
<extensions>
<speed>1.2</speed>
<temp>0.00</temp>
<bpm>0</bpm>
<rpm>0.00</rpm>
</extensions>
</trkpt>
<trkpt lat="64.083137512" lon="-19.602123260">
<ele>348.125000</ele>
<time>2012-07-21T16:56:34Z</time>
<speed>0.970000</speed>
<extensions>
<speed>1.0</speed>
<temp>0.00</temp>
<bpm>0</bpm>
<rpm>0.00</rpm>
</extensions>
</trkpt>
<trkpt lat="64.083099365" lon="-19.602008820">
<ele>349.007813</ele>
<time>2012-07-21T16:56:39Z</time>
<speed>1.430000</speed>
<extensions>
<speed>1.4</speed>
<temp>0.00</temp>
<bpm>0</bpm>
<rpm>0.00</rpm>
</extensions>
</trkpt>
<trkpt lat="64.083068848" lon="-19.601900101">
<ele>349.273438</ele>
<time>2012-07-21T16:56:44Z</time>
<speed>0.910000</speed>
<extensions>
<speed>0.9</speed>
<temp>0.00</temp>
<bpm>0</bpm>
<rpm>0.00</rpm>
</extensions>
</trkpt>
<trkpt lat="64.083053589" lon="-19.601827621">
<ele>348.234375</ele>
<time>2012-07-21T16:56:49Z</time>
<speed>1.040000</speed>
<extensions>
<speed>1.0</speed>
<temp>0.00</temp>
<bpm>0</bpm>
<rpm>0.00</rpm>
</extensions>
</trkpt>
<trkpt lat="64.083015442" lon="-19.601711273">
<ele>349.250000</ele>
<time>2012-07-21T16:56:54Z</time>
<speed>1.290000</speed>
<extensions>
<speed>1.3</speed>
<temp>0.00</temp>
<bpm>0</bpm>
<rpm>0.00</rpm>
</extensions>
</trkpt>
<trkpt lat="64.082992554" lon="-19.601615906">
<ele>349.171875</ele>
<time>2012-07-21T16:56:59Z</time>
<speed>1.280000</speed>
<extensions>
<speed>1.3</speed>
<temp>0.00</temp>
<bpm>0</bpm>
<rpm>0.00</rpm>
</extensions>
</trkpt>
<trkpt lat="64.082962036" lon="-19.601543427">
<ele>349.210938</ele>
<time>2012-07-21T16:57:04Z</time>
<speed>1.190000</speed>
<extensions>
<speed>1.2</speed>
<temp>0.00</temp>
<bpm>0</bpm>
<rpm>0.00</rpm>
</extensions>
</trkpt>
<trkpt lat="64.082939148" lon="-19.601469040">
<ele>349.109375</ele>
<time>2012-07-21T16:57:09Z</time>
<speed>0.990000</speed>
<extensions>
<speed>1.0</speed>
<temp>0.00</temp>
<bpm>0</bpm>
<rpm>0.00</rpm>
</extensions>
</trkpt>
<trkpt lat="64.082916260" lon="-19.601392746">
<ele>348.953125</ele>
<time>2012-07-21T16:57:14Z</time>
<speed>0.890000</speed>
<extensions>
<speed>0.9</speed>
<temp>0.00</temp>
<bpm>0</bpm>
<rpm>0.00</rpm>
</extensions>
</trkpt>
<trkpt lat="64.082901001" lon="-19.601358414">
<ele>349.046875</ele>
<time>2012-07-21T16:57:19Z</time>
<speed>0.920000</speed>
<extensions>
<speed>0.9</speed>
<temp>0.00</temp>
<bpm>0</bpm>
<rpm>0.00</rpm>
</extensions>
</trkpt>
<trkpt lat="64.082878113" lon="-19.601289749">
<ele>349.367188</ele>
<time>2012-07-21T16:57:24Z</time>
<speed>0.900000</speed>
<extensions>
<speed>0.9</speed>
<temp>0.00</temp>
<bpm>0</bpm>
<rpm>0.00</rpm>
</extensions>
</trkpt>
<trkpt lat="64.082847595" lon="-19.601224899">
<ele>349.367188</ele>
<time>2012-07-21T16:57:29Z</time>
<speed>1.140000</speed>
<extensions>
<speed>1.1</speed>
<temp>0.00</temp>
<bpm>0</bpm>
<rpm>0.00</rpm>
</extensions>
</trkpt>
<trkpt lat="64.082817078" lon="-19.601133347">
<ele>349.078125</ele>
<time>2012-07-21T16:57:34Z</time>
<speed>1.250000</speed>
<extensions>
<speed>1.3</speed>
<temp>0.00</temp>
<bpm>0</bpm>
<rpm>0.00</rpm>
</extensions>
</trkpt>
<trkpt lat="64.082794189" lon="-19.601068497">
<ele>349.031250</ele>
<time>2012-07-21T16:57:39Z</time>
<speed>0.970000</speed>
<extensions>
<speed>1.0</speed>
<temp>0.00</temp>
<bpm>0</bpm>
<rpm>0.00</rpm>
</extensions>
</trkpt>
<trkpt lat="64.082763672" lon="-19.600990295">
<ele>349.570313</ele>
<time>2012-07-21T16:57:44Z</time>
<speed>1.230000</speed>
<extensions>
<speed>1.2</speed>
<temp>0.00</temp>
<bpm>0</bpm>
<rpm>0.00</rpm>
</extensions>
</trkpt>
<trkpt lat="64.082733154" lon="-19.600927353">
<ele>350.109375</ele>
<time>2012-07-21T16:57:49Z</time>
<speed>0.840000</speed>
<extensions>
<speed>0.8</speed>
<temp>0.00</temp>
<bpm>0</bpm>
<rpm>0.00</rpm>
</extensions>
</trkpt>
<trkpt lat="64.082710266" lon="-19.600866318">
<ele>350.078125</ele>
<time>2012-07-21T16:57:54Z</time>
<speed>0.270000</speed>
<extensions>
<speed>0.3</speed>
<temp>0.00</temp>
<bpm>0</bpm>
<rpm>0.00</rpm>
</extensions>
</trkpt>
<trkpt lat="64.082702637" lon="-19.600875854">
<ele>349.906250</ele>
<time>2012-07-21T16:57:59Z</time>
<speed>0.040000</speed>
<extensions>
<speed>0.0</speed>
<temp>0.00</temp>
<bpm>0</bpm>
<rpm>0.00</rpm>
</extensions>
</trkpt>
<trkpt lat="64.082702637" lon="-19.600875854">
<ele>349.929688</ele>
<time>2012-07-21T16:58:04Z</time>
<speed>0.040000</speed>
<extensions>
<speed>0.0</speed>
<temp>0.00</temp>
<bpm>0</bpm>
<rpm>0.00</rpm>
</extensions>
</trkpt>
<trkpt lat="64.082687378" lon="-19.600818634">
<ele>350.101563</ele>
<time>2012-07-21T16:58:09Z</time>
<speed>1.040000</speed>
<extensions>
<speed>1.0</speed>
<temp>0.00</temp>
<bpm>0</bpm>
<rpm>0.00</rpm>
</extensions>
</trkpt>
<trkpt lat="64.082656860" lon="-19.600728989">
<ele>350.179688</ele>
<time>2012-07-21T16:58:14Z</time>
<speed>1.050000</speed>
<extensions>
<speed>1.0</speed>
<temp>0.00</temp>
<bpm>0</bpm>
<rpm>0.00</rpm>
</extensions>
</trkpt>
<trkpt lat="64.082633972" lon="-19.600618362">
<ele>349.843750</ele>
<time>2012-07-21T16:58:19Z</time>
<speed>1.160000</speed>
<extensions>
<speed>1.2</speed>
<temp>0.00</temp>
<bpm>0</bpm>
<rpm>0.00</rpm>
</extensions>
</trkpt>
<trkpt lat="64.082611084" lon="-19.600530624">
<ele>350.593750</ele>
<time>2012-07-21T16:58:24Z</time>
<speed>1.040000</speed>
<extensions>
<speed>1.0</speed>
<temp>0.00</temp>
<bpm>0</bpm>
<rpm>0.00</rpm>
</extensions>
</trkpt>
<trkpt lat="64.082611084" lon="-19.600416183">
<ele>349.984375</ele>
<time>2012-07-21T16:58:29Z</time>
<speed>1.130000</speed>
<extensions>
<speed>1.1</speed>
<temp>0.00</temp>
<bpm>0</bpm>
<rpm>0.00</rpm>
</extensions>
</trkpt>
<trkpt lat="64.082588196" lon="-19.600292206">
<ele>349.460938</ele>
<time>2012-07-21T16:58:34Z</time>
<speed>1.200000</speed>
<extensions>
<speed>1.2</speed>
<temp>0.00</temp>
<bpm>0</bpm>
<rpm>0.00</rpm>
</extensions>
</trkpt>
<trkpt lat="64.082572937" lon="-19.600170135">
<ele>349.500000</ele>
<time>2012-07-21T16:58:39Z</time>
<speed>1.200000</speed>
<extensions>
<speed>1.2</speed>
<temp>0.00</temp>
<bpm>0</bpm>
<rpm>0.00</rpm>
</extensions>
</trkpt>
<trkpt lat="64.082565308" lon="-19.600017548">
<ele>348.500000</ele>
<time>2012-07-21T16:58:44Z</time>
<speed>1.210000</speed>
<extensions>
<speed>1.2</speed>
<temp>0.00</temp>
<bpm>0</bpm>
<rpm>0.00</rpm>
</extensions>
</trkpt>
<trkpt lat="64.082557678" lon="-19.599895477">
<ele>348.031250</ele>
<time>2012-07-21T16:58:49Z</time>
<speed>1.050000</speed>
<extensions>
<speed>1.0</speed>
<temp>0.00</temp>
<bpm>0</bpm>
<rpm>0.00</rpm>
</extensions>
</trkpt>
<trkpt lat="64.082550049" lon="-19.599800110">
<ele>347.882813</ele>
<time>2012-07-21T16:58:54Z</time>
<speed>1.160000</speed>
<extensions>
<speed>1.2</speed>
<temp>0.00</temp>
<bpm>0</bpm>
<rpm>0.00</rpm>
</extensions>
</trkpt>
<trkpt lat="64.082542419" lon="-19.599689484">
<ele>347.945313</ele>
<time>2012-07-21T16:58:59Z</time>
<speed>1.060000</speed>
<extensions>
<speed>1.1</speed>
<temp>0.00</temp>
<bpm>0</bpm>
<rpm>0.00</rpm>
</extensions>
</trkpt>
<trkpt lat="64.082534790" lon="-19.599599838">
<ele>348.117188</ele>
<time>2012-07-21T16:59:04Z</time>
<speed>0.880000</speed>
<extensions>
<speed>0.9</speed>
<temp>0.00</temp>
<bpm>0</bpm>
<rpm>0.00</rpm>
</extensions>
</trkpt>
<trkpt lat="64.082527161" lon="-19.599620819">
<ele>348.890625</ele>
<time>2012-07-21T16:59:09Z</time>
<speed>0.020000</speed>
<extensions>
<speed>0.0</speed>
<temp>0.00</temp>
<bpm>0</bpm>
<rpm>0.00</rpm>
</extensions>
</trkpt>
<trkpt lat="64.082527161" lon="-19.599622726">
<ele>348.914063</ele>
<time>2012-07-21T16:59:14Z</time>
<speed>0.010000</speed>
<extensions>
<speed>0.0</speed>
<temp>0.00</temp>
<bpm>0</bpm>
<rpm>0.00</rpm>
</extensions>
</trkpt>
<trkpt lat="64.082527161" lon="-19.599628448">
<ele>348.984375</ele>
<time>2012-07-21T16:59:19Z</time>
<speed>0.190000</speed>
<extensions>
<speed>0.2</speed>
<temp>0.00</temp>
<bpm>0</bpm>
<rpm>0.00</rpm>
</extensions>
</trkpt>
<trkpt lat="64.082519531" lon="-19.599542618">
<ele>348.539063</ele>
<time>2012-07-21T16:59:24Z</time>
<speed>0.920000</speed>
<extensions>
<speed>0.9</speed>
<temp>0.00</temp>
<bpm>0</bpm>
<rpm>0.00</rpm>
</extensions>
</trkpt>
<trkpt lat="64.082519531" lon="-19.599433899">
<ele>349.382813</ele>
<time>2012-07-21T16:59:29Z</time>
<speed>0.840000</speed>
<extensions>
<speed>0.8</speed>
<temp>0.00</temp>
<bpm>0</bpm>
<rpm>0.00</rpm>
</extensions>
</trkpt>
<trkpt lat="64.082511902" lon="-19.599321365">
<ele>349.703125</ele>
<time>2012-07-21T16:59:34Z</time>
<speed>0.930000</speed>
<extensions>
<speed>0.9</speed>
<temp>0.00</temp>
<bpm>0</bpm>
<rpm>0.00</rpm>
</extensions>
</trkpt>
<trkpt lat="64.082496643" lon="-19.599199295">
<ele>349.710938</ele>
<time>2012-07-21T16:59:39Z</time>
<speed>1.070000</speed>
<extensions>
<speed>1.1</speed>
<temp>0.00</temp>
<bpm>0</bpm>
<rpm>0.00</rpm>
</extensions>
</trkpt>
<trkpt lat="64.082481384" lon="-19.599060059">
<ele>349.351563</ele>
<time>2012-07-21T16:59:44Z</time>
<speed>1.310000</speed>
<extensions>
<speed>1.3</speed>
<temp>0.00</temp>
<bpm>0</bpm>
<rpm>0.00</rpm>
</extensions>
</trkpt>
<trkpt lat="64.082481384" lon="-19.598941803">
<ele>349.210938</ele>
<time>2012-07-21T16:59:49Z</time>
<speed>1.140000</speed>
<extensions>
<speed>1.1</speed>
<temp>0.00</temp>
<bpm>0</bpm>
<rpm>0.00</rpm>
</extensions>
</trkpt>
<trkpt lat="64.082481384" lon="-19.598833084">
<ele>349.765625</ele>
<time>2012-07-21T16:59:54Z</time>
<speed>0.950000</speed>
<extensions>
<speed>1.0</speed>
<temp>0.00</temp>
<bpm>0</bpm>
<rpm>0.00</rpm>
</extensions>
</trkpt>
<trkpt lat="64.082466125" lon="-19.598716736">
<ele>349.523438</ele>
<time>2012-07-21T16:59:59Z</time>
<speed>1.130000</speed>
<extensions>
<speed>1.1</speed>
<temp>0.00</temp>
<bpm>0</bpm>
<rpm>0.00</rpm>
</extensions>
</trkpt>
<trkpt lat="64.082466125" lon="-19.598583221">
<ele>349.320313</ele>
<time>2012-07-21T17:00:04Z</time>
<speed>1.270000</speed>
<extensions>
<speed>1.3</speed>
<temp>0.00</temp>
<bpm>0</bpm>
<rpm>0.00</rpm>
</extensions>
</trkpt>
<trkpt lat="64.082458496" lon="-19.598453522">
<ele>348.453125</ele>
<time>2012-07-21T17:00:09Z</time>
<speed>1.190000</speed>
<extensions>
<speed>1.2</speed>
<temp>0.00</temp>
<bpm>0</bpm>
<rpm>0.00</rpm>
</extensions>
</trkpt>
<trkpt lat="64.082450867" lon="-19.598346710">
<ele>349.062500</ele>
<time>2012-07-21T17:00:14Z</time>
<speed>1.070000</speed>
<extensions>
<speed>1.1</speed>
<temp>0.00</temp>
<bpm>0</bpm>
<rpm>0.00</rpm>
</extensions>
</trkpt>
<trkpt lat="64.082435608" lon="-19.598215103">
<ele>348.703125</ele>
<time>2012-07-21T17:00:19Z</time>
<speed>1.170000</speed>
<extensions>
<speed>1.2</speed>
<temp>0.00</temp>
<bpm>0</bpm>
<rpm>0.00</rpm>
</extensions>
</trkpt>
<trkpt lat="64.082435608" lon="-19.598096848">
<ele>349.101563</ele>
<time>2012-07-21T17:00:24Z</time>
<speed>1.050000</speed>
<extensions>
<speed>1.0</speed>
<temp>0.00</temp>
<bpm>0</bpm>
<rpm>0.00</rpm>
</extensions>
</trkpt>
<trkpt lat="64.082435608" lon="-19.598081589">
<ele>349.179688</ele>
<time>2012-07-21T17:00:29Z</time>
<speed>0.020000</speed>
<extensions>
<speed>0.0</speed>
<temp>0.00</temp>
<bpm>0</bpm>
<rpm>0.00</rpm>
</extensions>
</trkpt>
<trkpt lat="64.082435608" lon="-19.598081589">
<ele>349.171875</ele>
<time>2012-07-21T17:00:34Z</time>
<speed>0.080000</speed>
<extensions>
<speed>0.1</speed>
<temp>0.00</temp>
<bpm>0</bpm>
<rpm>0.00</rpm>
</extensions>
</trkpt>
<trkpt lat="64.082435608" lon="-19.598045349">
<ele>349.125000</ele>
<time>2012-07-21T17:00:39Z</time>
<speed>0.730000</speed>
<extensions>
<speed>0.7</speed>
<temp>0.00</temp>
<bpm>0</bpm>
<rpm>0.00</rpm>
</extensions>
</trkpt>
<trkpt lat="64.082420349" lon="-19.597949982">
<ele>349.171875</ele>
<time>2012-07-21T17:00:44Z</time>
<speed>1.040000</speed>
<extensions>
<speed>1.0</speed>
<temp>0.00</temp>
<bpm>0</bpm>
<rpm>0.00</rpm>
</extensions>
</trkpt>
<trkpt lat="64.082420349" lon="-19.597829819">
<ele>349.476563</ele>
<time>2012-07-21T17:00:49Z</time>
<speed>1.020000</speed>
<extensions>
<speed>1.0</speed>
<temp>0.00</temp>
<bpm>0</bpm>
<rpm>0.00</rpm>
</extensions>
</trkpt>
<trkpt lat="64.082427979" lon="-19.597780228">
<ele>352.093750</ele>
<time>2012-07-21T17:00:54Z</time>
<speed>0.620000</speed>
<extensions>
<speed>0.6</speed>
<temp>0.00</temp>
<bpm>0</bpm>
<rpm>0.00</rpm>
</extensions>
</trkpt>
<trkpt lat="64.082420349" lon="-19.597665787">
<ele>352.484375</ele>
<time>2012-07-21T17:00:59Z</time>
<speed>0.950000</speed>
<extensions>
<speed>1.0</speed>
<temp>0.00</temp>
<bpm>0</bpm>
<rpm>0.00</rpm>
</extensions>
</trkpt>
<trkpt lat="64.082405090" lon="-19.597572327">
<ele>353.125000</ele>
<time>2012-07-21T17:01:04Z</time>
<speed>0.740000</speed>
<extensions>
<speed>0.7</speed>
<temp>0.00</temp>
<bpm>0</bpm>
<rpm>0.00</rpm>
</extensions>
</trkpt>
<trkpt lat="64.082397461" lon="-19.597452164">
<ele>352.156250</ele>
<time>2012-07-21T17:01:09Z</time>
<speed>0.980000</speed>
<extensions>
<speed>1.0</speed>
<temp>0.00</temp>
<bpm>0</bpm>
<rpm>0.00</rpm>
</extensions>
</trkpt>
<trkpt lat="64.082382202" lon="-19.597343445">
<ele>351.632813</ele>
<time>2012-07-21T17:01:14Z</time>
<speed>1.120000</speed>
<extensions>
<speed>1.1</speed>
<temp>0.00</temp>
<bpm>0</bpm>
<rpm>0.00</rpm>
</extensions>
</trkpt>
<trkpt lat="64.082374573" lon="-19.597232819">
<ele>351.593750</ele>
<time>2012-07-21T17:01:19Z</time>
<speed>1.050000</speed>
<extensions>
<speed>1.0</speed>
<temp>0.00</temp>
<bpm>0</bpm>
<rpm>0.00</rpm>
</extensions>
</trkpt>
<trkpt lat="64.082374573" lon="-19.597204208">
<ele>351.359375</ele>
<time>2012-07-21T17:01:24Z</time>
<speed>0.070000</speed>
<extensions>
<speed>0.1</speed>
<temp>0.00</temp>
<bpm>0</bpm>
<rpm>0.00</rpm>
</extensions>
</trkpt>
<trkpt lat="64.082374573" lon="-19.597185135">
<ele>351.375000</ele>
<time>2012-07-21T17:01:29Z</time>
<speed>0.720000</speed>
<extensions>
<speed>0.7</speed>
<temp>0.00</temp>
<bpm>0</bpm>
<rpm>0.00</rpm>
</extensions>
</trkpt>
<trkpt lat="64.082359314" lon="-19.597106934">
<ele>351.625000</ele>
<time>2012-07-21T17:01:34Z</time>
<speed>1.070000</speed>
<extensions>
<speed>1.1</speed>
<temp>0.00</temp>
<bpm>0</bpm>
<rpm>0.00</rpm>
</extensions>
</trkpt>
<trkpt lat="64.082366943" lon="-19.596998215">
<ele>351.757813</ele>
<time>2012-07-21T17:01:39Z</time>
<speed>0.760000</speed>
<extensions>
<speed>0.8</speed>
<temp>0.00</temp>
<bpm>0</bpm>
<rpm>0.00</rpm>
</extensions>
</trkpt>
<trkpt lat="64.082366943" lon="-19.596902847">
<ele>351.976563</ele>
<time>2012-07-21T17:01:44Z</time>
<speed>0.760000</speed>
<extensions>
<speed>0.8</speed>
<temp>0.00</temp>
<bpm>0</bpm>
<rpm>0.00</rpm>
</extensions>
</trkpt>
<trkpt lat="64.082359314" lon="-19.596817017">
<ele>351.812500</ele>
<time>2012-07-21T17:01:49Z</time>
<speed>0.920000</speed>
<extensions>
<speed>0.9</speed>
<temp>0.00</temp>
<bpm>0</bpm>
<rpm>0.00</rpm>
</extensions>
</trkpt>
<trkpt lat="64.082351685" lon="-19.596717834">
<ele>351.359375</ele>
<time>2012-07-21T17:01:54Z</time>
<speed>1.140000</speed>
<extensions>
<speed>1.1</speed>
<temp>0.00</temp>
<bpm>0</bpm>
<rpm>0.00</rpm>
</extensions>
</trkpt>
<trkpt lat="64.082344055" lon="-19.596612930">
<ele>351.515625</ele>
<time>2012-07-21T17:01:59Z</time>
<speed>1.290000</speed>
<extensions>
<speed>1.3</speed>
<temp>0.00</temp>
<bpm>0</bpm>
<rpm>0.00</rpm>
</extensions>
</trkpt>
<trkpt lat="64.082351685" lon="-19.596504211">
<ele>351.828125</ele>
<time>2012-07-21T17:02:04Z</time>
<speed>1.190000</speed>
<extensions>
<speed>1.2</speed>
<temp>0.00</temp>
<bpm>0</bpm>
<rpm>0.00</rpm>
</extensions>
</trkpt>
<trkpt lat="64.082344055" lon="-19.596467972">
<ele>352.000000</ele>
<time>2012-07-21T17:02:09Z</time>
<speed>0.150000</speed>
<extensions>
<speed>0.2</speed>
<temp>0.00</temp>
<bpm>0</bpm>
<rpm>0.00</rpm>
</extensions>
</trkpt>
<trkpt lat="64.082344055" lon="-19.596473694">
<ele>352.312500</ele>
<time>2012-07-21T17:02:14Z</time>
<speed>0.030000</speed>
<extensions>
<speed>0.0</speed>
<temp>0.00</temp>
<bpm>0</bpm>
<rpm>0.00</rpm>
</extensions>
</trkpt>
<trkpt lat="64.082344055" lon="-19.596475601">
<ele>352.351563</ele>
<time>2012-07-21T17:02:19Z</time>
<speed>0.250000</speed>
<extensions>
<speed>0.2</speed>
<temp>0.00</temp>
<bpm>0</bpm>
<rpm>0.00</rpm>
</extensions>
</trkpt>
<trkpt lat="64.082344055" lon="-19.596479416">
<ele>352.359375</ele>
<time>2012-07-21T17:02:24Z</time>
<speed>0.030000</speed>
<extensions>
<speed>0.0</speed>
<temp>0.00</temp>
<bpm>0</bpm>
<rpm>0.00</rpm>
</extensions>
</trkpt>
<trkpt lat="64.082344055" lon="-19.596466064">
<ele>352.578125</ele>
<time>2012-07-21T17:02:29Z</time>
<speed>0.720000</speed>
<extensions>
<speed>0.7</speed>
<temp>0.00</temp>
<bpm>0</bpm>
<rpm>0.00</rpm>
</extensions>
</trkpt>
<trkpt lat="64.082336426" lon="-19.596372604">
<ele>352.750000</ele>
<time>2012-07-21T17:02:34Z</time>
<speed>0.830000</speed>
<extensions>
<speed>0.8</speed>
<temp>0.00</temp>
<bpm>0</bpm>
<rpm>0.00</rpm>
</extensions>
</trkpt>
<trkpt lat="64.082336426" lon="-19.596273422">
<ele>352.929688</ele>
<time>2012-07-21T17:02:39Z</time>
<speed>0.930000</speed>
<extensions>
<speed>0.9</speed>
<temp>0.00</temp>
<bpm>0</bpm>
<rpm>0.00</rpm>
</extensions>
</trkpt>
<trkpt lat="64.082351685" lon="-19.596164703">
<ele>352.898438</ele>
<time>2012-07-21T17:02:44Z</time>
<speed>1.020000</speed>
<extensions>
<speed>1.0</speed>
<temp>0.00</temp>
<bpm>0</bpm>
<rpm>0.00</rpm>
</extensions>
</trkpt>
<trkpt lat="64.082351685" lon="-19.596055984">
<ele>353.023438</ele>
<time>2012-07-21T17:02:49Z</time>
<speed>1.040000</speed>
<extensions>
<speed>1.0</speed>
<temp>0.00</temp>
<bpm>0</bpm>
<rpm>0.00</rpm>
</extensions>
</trkpt>
<trkpt lat="64.082351685" lon="-19.595924377">
<ele>352.984375</ele>
<time>2012-07-21T17:02:54Z</time>
<speed>0.970000</speed>
<extensions>
<speed>1.0</speed>
<temp>0.00</temp>
<bpm>0</bpm>
<rpm>0.00</rpm>
</extensions>
</trkpt>
<trkpt lat="64.082359314" lon="-19.595811844">
<ele>353.203125</ele>
<time>2012-07-21T17:02:59Z</time>
<speed>0.910000</speed>
<extensions>
<speed>0.9</speed>
<temp>0.00</temp>
<bpm>0</bpm>
<rpm>0.00</rpm>
</extensions>
</trkpt>
<trkpt lat="64.082366943" lon="-19.595684052">
<ele>353.359375</ele>
<time>2012-07-21T17:03:04Z</time>
<speed>1.210000</speed>
<extensions>
<speed>1.2</speed>
<temp>0.00</temp>
<bpm>0</bpm>
<rpm>0.00</rpm>
</extensions>
</trkpt>
<trkpt lat="64.082359314" lon="-19.595558167">
<ele>353.562500</ele>
<time>2012-07-21T17:03:09Z</time>
<speed>1.260000</speed>
<extensions>
<speed>1.3</speed>
<temp>0.00</temp>
<bpm>0</bpm>
<rpm>0.00</rpm>
</extensions>
</trkpt>
<trkpt lat="64.082359314" lon="-19.595438004">
<ele>354.000000</ele>
<time>2012-07-21T17:03:14Z</time>
<speed>0.980000</speed>
<extensions>
<speed>1.0</speed>
<temp>0.00</temp>
<bpm>0</bpm>
<rpm>0.00</rpm>
</extensions>
</trkpt>
<trkpt lat="64.082351685" lon="-19.595325470">
<ele>354.046875</ele>
<time>2012-07-21T17:03:19Z</time>
<speed>1.050000</speed>
<extensions>
<speed>1.0</speed>
<temp>0.00</temp>
<bpm>0</bpm>
<rpm>0.00</rpm>
</extensions>
</trkpt>
<trkpt lat="64.082351685" lon="-19.595205307">
<ele>353.812500</ele>
<time>2012-07-21T17:03:24Z</time>
<speed>1.190000</speed>
<extensions>
<speed>1.2</speed>
<temp>0.00</temp>
<bpm>0</bpm>
<rpm>0.00</rpm>
</extensions>
</trkpt>
<trkpt lat="64.082344055" lon="-19.595087051">
<ele>354.023438</ele>
<time>2012-07-21T17:03:29Z</time>
<speed>1.970000</speed>
<extensions>
<speed>2.0</speed>
<temp>0.00</temp>
<bpm>0</bpm>
<rpm>0.00</rpm>
</extensions>
</trkpt>
<trkpt lat="64.082344055" lon="-19.594964981">
<ele>354.312500</ele>
<time>2012-07-21T17:03:34Z</time>
<speed>1.260000</speed>
<extensions>
<speed>1.3</speed>
<temp>0.00</temp>
<bpm>0</bpm>
<rpm>0.00</rpm>
</extensions>
</trkpt>
<trkpt lat="64.082336426" lon="-19.594846725">
<ele>354.734375</ele>
<time>2012-07-21T17:03:39Z</time>
<speed>1.160000</speed>
<extensions>
<speed>1.2</speed>
<temp>0.00</temp>
<bpm>0</bpm>
<rpm>0.00</rpm>
</extensions>
</trkpt>
<trkpt lat="64.082321167" lon="-19.594743729">
<ele>355.265625</ele>
<time>2012-07-21T17:03:44Z</time>
<speed>1.040000</speed>
<extensions>
<speed>1.0</speed>
<temp>0.00</temp>
<bpm>0</bpm>
<rpm>0.00</rpm>
</extensions>
</trkpt>
<trkpt lat="64.082321167" lon="-19.594636917">
<ele>355.804688</ele>
<time>2012-07-21T17:03:49Z</time>
<speed>1.120000</speed>
<extensions>
<speed>1.1</speed>
<temp>0.00</temp>
<bpm>0</bpm>
<rpm>0.00</rpm>
</extensions>
</trkpt>
<trkpt lat="64.082305908" lon="-19.594533920">
<ele>356.093750</ele>
<time>2012-07-21T17:03:54Z</time>
<speed>1.020000</speed>
<extensions>
<speed>1.0</speed>
<temp>0.00</temp>
<bpm>0</bpm>
<rpm>0.00</rpm>
</extensions>
</trkpt>
<trkpt lat="64.082290649" lon="-19.594448090">
<ele>356.648438</ele>
<time>2012-07-21T17:03:59Z</time>
<speed>0.920000</speed>
<extensions>
<speed>0.9</speed>
<temp>0.00</temp>
<bpm>0</bpm>
<rpm>0.00</rpm>
</extensions>
</trkpt>
<trkpt lat="64.082290649" lon="-19.594364166">
<ele>356.421875</ele>
<time>2012-07-21T17:04:04Z</time>
<speed>0.410000</speed>
<extensions>
<speed>0.4</speed>
<temp>0.00</temp>
<bpm>0</bpm>
<rpm>0.00</rpm>
</extensions>
</trkpt>
<trkpt lat="64.082275391" lon="-19.594291687">
<ele>357.328125</ele>
<time>2012-07-21T17:04:09Z</time>
<speed>0.980000</speed>
<extensions>
<speed>1.0</speed>
<temp>0.00</temp>
<bpm>0</bpm>
<rpm>0.00</rpm>
</extensions>
</trkpt>
<trkpt lat="64.082260132" lon="-19.594219208">
<ele>359.203125</ele>
<time>2012-07-21T17:04:14Z</time>
<speed>1.000000</speed>
<extensions>
<speed>1.0</speed>
<temp>0.00</temp>
<bpm>0</bpm>
<rpm>0.00</rpm>
</extensions>
</trkpt>
<trkpt lat="64.082252502" lon="-19.594100952">
<ele>360.882813</ele>
<time>2012-07-21T17:04:19Z</time>
<speed>1.320000</speed>
<extensions>
<speed>1.3</speed>
<temp>0.00</temp>
<bpm>0</bpm>
<rpm>0.00</rpm>
</extensions>
</trkpt>
<trkpt lat="64.082244873" lon="-19.593997955">
<ele>362.250000</ele>
<time>2012-07-21T17:04:24Z</time>
<speed>1.000000</speed>
<extensions>
<speed>1.0</speed>
<temp>0.00</temp>
<bpm>0</bpm>
<rpm>0.00</rpm>
</extensions>
</trkpt>
<trkpt lat="64.082221985" lon="-19.593847275">
<ele>361.140625</ele>
<time>2012-07-21T17:04:29Z</time>
<speed>0.850000</speed>
<extensions>
<speed>0.8</speed>
<temp>0.00</temp>
<bpm>0</bpm>
<rpm>0.00</rpm>
</extensions>
</trkpt>
<trkpt lat="64.082214355" lon="-19.593751907">
<ele>360.609375</ele>
<time>2012-07-21T17:04:34Z</time>
<speed>0.890000</speed>
<extensions>
<speed>0.9</speed>
<temp>0.00</temp>
<bpm>0</bpm>
<rpm>0.00</rpm>
</extensions>
</trkpt>
<trkpt lat="64.082191467" lon="-19.593633652">
<ele>359.656250</ele>
<time>2012-07-21T17:04:39Z</time>
<speed>1.400000</speed>
<extensions>
<speed>1.4</speed>
<temp>0.00</temp>
<bpm>0</bpm>
<rpm>0.00</rpm>
</extensions>
</trkpt>
<trkpt lat="64.082160950" lon="-19.593513489">
<ele>358.789063</ele>
<time>2012-07-21T17:04:44Z</time>
<speed>1.000000</speed>
<extensions>
<speed>1.0</speed>
<temp>0.00</temp>
<bpm>0</bpm>
<rpm>0.00</rpm>
</extensions>
</trkpt>
<trkpt lat="64.082153320" lon="-19.593427658">
<ele>358.976563</ele>
<time>2012-07-21T17:04:49Z</time>
<speed>0.730000</speed>
<extensions>
<speed>0.7</speed>
<temp>0.00</temp>
<bpm>0</bpm>
<rpm>0.00</rpm>
</extensions>
</trkpt>
<trkpt lat="64.082145691" lon="-19.593397141">
<ele>359.476563</ele>
<time>2012-07-21T17:04:54Z</time>
<speed>0.150000</speed>
<extensions>
<speed>0.2</speed>
<temp>0.00</temp>
<bpm>0</bpm>
<rpm>0.00</rpm>
</extensions>
</trkpt>
<trkpt lat="64.082145691" lon="-19.593389511">
<ele>359.679688</ele>
<time>2012-07-21T17:04:59Z</time>
<speed>0.190000</speed>
<extensions>
<speed>0.2</speed>
<temp>0.00</temp>
<bpm>0</bpm>
<rpm>0.00</rpm>
</extensions>
</trkpt>
<trkpt lat="64.082122803" lon="-19.593362808">
<ele>360.359375</ele>
<time>2012-07-21T17:05:04Z</time>
<speed>0.970000</speed>
<extensions>
<speed>1.0</speed>
<temp>0.00</temp>
<bpm>0</bpm>
<rpm>0.00</rpm>
</extensions>
</trkpt>
<trkpt lat="64.082084656" lon="-19.593362808">
<ele>362.148438</ele>
<time>2012-07-21T17:05:09Z</time>
<speed>0.970000</speed>
<extensions>
<speed>1.0</speed>
<temp>0.00</temp>
<bpm>0</bpm>
<rpm>0.00</rpm>
</extensions>
</trkpt>
<trkpt lat="64.082038879" lon="-19.593362808">
<ele>364.500000</ele>
<time>2012-07-21T17:05:14Z</time>
<speed>0.920000</speed>
<extensions>
<speed>0.9</speed>
<temp>0.00</temp>
<bpm>0</bpm>
<rpm>0.00</rpm>
</extensions>
</trkpt>
<trkpt lat="64.082015991" lon="-19.593332291">
<ele>364.796875</ele>
<time>2012-07-21T17:05:19Z</time>
<speed>0.110000</speed>
<extensions>
<speed>0.1</speed>
<temp>0.00</temp>
<bpm>0</bpm>
<rpm>0.00</rpm>
</extensions>
</trkpt>
<trkpt lat="64.082015991" lon="-19.593317032">
<ele>365.007813</ele>
<time>2012-07-21T17:05:24Z</time>
<speed>0.240000</speed>
<extensions>
<speed>0.2</speed>
<temp>0.00</temp>
<bpm>0</bpm>
<rpm>0.00</rpm>
</extensions>
</trkpt>
<trkpt lat="64.082031250" lon="-19.593254089">
<ele>364.757813</ele>
<time>2012-07-21T17:05:29Z</time>
<speed>0.940000</speed>
<extensions>
<speed>0.9</speed>
<temp>0.00</temp>
<bpm>0</bpm>
<rpm>0.00</rpm>
</extensions>
</trkpt>
<trkpt lat="64.082061768" lon="-19.593153000">
<ele>363.851563</ele>
<time>2012-07-21T17:05:34Z</time>
<speed>0.920000</speed>
<extensions>
<speed>0.9</speed>
<temp>0.00</temp>
<bpm>0</bpm>
<rpm>0.00</rpm>
</extensions>
</trkpt>
<trkpt lat="64.082054138" lon="-19.593042374">
<ele>362.453125</ele>
<time>2012-07-21T17:05:39Z</time>
<speed>0.960000</speed>
<extensions>
<speed>1.0</speed>
<temp>0.00</temp>
<bpm>0</bpm>
<rpm>0.00</rpm>
</extensions>
</trkpt>
<trkpt lat="64.082031250" lon="-19.592947006">
<ele>362.578125</ele>
<time>2012-07-21T17:05:44Z</time>
<speed>1.030000</speed>
<extensions>
<speed>1.0</speed>
<temp>0.00</temp>
<bpm>0</bpm>
<rpm>0.00</rpm>
</extensions>
</trkpt>
<trkpt lat="64.082000732" lon="-19.592864990">
<ele>362.312500</ele>
<time>2012-07-21T17:05:49Z</time>
<speed>0.930000</speed>
<extensions>
<speed>0.9</speed>
<temp>0.00</temp>
<bpm>0</bpm>
<rpm>0.00</rpm>
</extensions>
</trkpt>
<trkpt lat="64.081977844" lon="-19.592765808">
<ele>363.648438</ele>
<time>2012-07-21T17:05:54Z</time>
<speed>1.540000</speed>
<extensions>
<speed>1.5</speed>
<temp>0.00</temp>
<bpm>0</bpm>
<rpm>0.00</rpm>
</extensions>
</trkpt>
<trkpt lat="64.081977844" lon="-19.592660904">
<ele>363.851563</ele>
<time>2012-07-21T17:05:59Z</time>
<speed>1.070000</speed>
<extensions>
<speed>1.1</speed>
<temp>0.00</temp>
<bpm>0</bpm>
<rpm>0.00</rpm>
</extensions>
</trkpt>
<trkpt lat="64.081985474" lon="-19.592540741">
<ele>363.265625</ele>
<time>2012-07-21T17:06:04Z</time>
<speed>1.080000</speed>
<extensions>
<speed>1.1</speed>
<temp>0.00</temp>
<bpm>0</bpm>
<rpm>0.00</rpm>
</extensions>
</trkpt>
<trkpt lat="64.081977844" lon="-19.592428207">
<ele>362.453125</ele>
<time>2012-07-21T17:06:09Z</time>
<speed>1.080000</speed>
<extensions>
<speed>1.1</speed>
<temp>0.00</temp>
<bpm>0</bpm>
<rpm>0.00</rpm>
</extensions>
</trkpt>
<trkpt lat="64.081962585" lon="-19.592315674">
<ele>361.695313</ele>
<time>2012-07-21T17:06:14Z</time>
<speed>1.060000</speed>
<extensions>
<speed>1.1</speed>
<temp>0.00</temp>
<bpm>0</bpm>
<rpm>0.00</rpm>
</extensions>
</trkpt>
<trkpt lat="64.081939697" lon="-19.592206955">
<ele>361.648438</ele>
<time>2012-07-21T17:06:19Z</time>
<speed>1.260000</speed>
<extensions>
<speed>1.3</speed>
<temp>0.00</temp>
<bpm>0</bpm>
<rpm>0.00</rpm>
</extensions>
</trkpt>
<trkpt lat="64.081916809" lon="-19.592115402">
<ele>363.117188</ele>
<time>2012-07-21T17:06:24Z</time>
<speed>1.020000</speed>
<extensions>
<speed>1.0</speed>
<temp>0.00</temp>
<bpm>0</bpm>
<rpm>0.00</rpm>
</extensions>
</trkpt>
<trkpt lat="64.081901550" lon="-19.592031479">
<ele>363.179688</ele>
<time>2012-07-21T17:06:29Z</time>
<speed>0.810000</speed>
<extensions>
<speed>0.8</speed>
<temp>0.00</temp>
<bpm>0</bpm>
<rpm>0.00</rpm>
</extensions>
</trkpt>
<trkpt lat="64.081878662" lon="-19.591978073">
<ele>363.851563</ele>
<time>2012-07-21T17:06:34Z</time>
<speed>0.410000</speed>
<extensions>
<speed>0.4</speed>
<temp>0.00</temp>
<bpm>0</bpm>
<rpm>0.00</rpm>
</extensions>
</trkpt>
<trkpt lat="64.081863403" lon="-19.591918945">
<ele>364.101563</ele>
<time>2012-07-21T17:06:39Z</time>
<speed>1.040000</speed>
<extensions>
<speed>1.0</speed>
<temp>0.00</temp>
<bpm>0</bpm>
<rpm>0.00</rpm>
</extensions>
</trkpt>
<trkpt lat="64.081832886" lon="-19.591808319">
<ele>363.929688</ele>
<time>2012-07-21T17:06:44Z</time>
<speed>0.830000</speed>
<extensions>
<speed>0.8</speed>
<temp>0.00</temp>
<bpm>0</bpm>
<rpm>0.00</rpm>
</extensions>
</trkpt>
<trkpt lat="64.081817627" lon="-19.591686249">
<ele>363.507813</ele>
<time>2012-07-21T17:06:49Z</time>
<speed>1.090000</speed>
<extensions>
<speed>1.1</speed>
<temp>0.00</temp>
<bpm>0</bpm>
<rpm>0.00</rpm>
</extensions>
</trkpt>
<trkpt lat="64.081787109" lon="-19.591583252">
<ele>362.929688</ele>
<time>2012-07-21T17:06:54Z</time>
<speed>0.900000</speed>
<extensions>
<speed>0.9</speed>
<temp>0.00</temp>
<bpm>0</bpm>
<rpm>0.00</rpm>
</extensions>
</trkpt>
<trkpt lat="64.081771851" lon="-19.591524124">
<ele>363.250000</ele>
<time>2012-07-21T17:06:59Z</time>
<speed>0.800000</speed>
<extensions>
<speed>0.8</speed>
<temp>0.00</temp>
<bpm>0</bpm>
<rpm>0.00</rpm>
</extensions>
</trkpt>
<trkpt lat="64.081771851" lon="-19.591428757">
<ele>363.156250</ele>
<time>2012-07-21T17:07:04Z</time>
<speed>1.130000</speed>
<extensions>
<speed>1.1</speed>
<temp>0.00</temp>
<bpm>0</bpm>
<rpm>0.00</rpm>
</extensions>
</trkpt>
<trkpt lat="64.081794739" lon="-19.591325760">
<ele>363.023438</ele>
<time>2012-07-21T17:07:09Z</time>
<speed>1.040000</speed>
<extensions>
<speed>1.0</speed>
<temp>0.00</temp>
<bpm>0</bpm>
<rpm>0.00</rpm>
</extensions>
</trkpt>
<trkpt lat="64.081825256" lon="-19.591222763">
<ele>363.281250</ele>
<time>2012-07-21T17:07:14Z</time>
<speed>1.080000</speed>
<extensions>
<speed>1.1</speed>
<temp>0.00</temp>
<bpm>0</bpm>
<rpm>0.00</rpm>
</extensions>
</trkpt>
<trkpt lat="64.081863403" lon="-19.591125488">
<ele>363.601563</ele>
<time>2012-07-21T17:07:19Z</time>
<speed>1.350000</speed>
<extensions>
<speed>1.4</speed>
<temp>0.00</temp>
<bpm>0</bpm>
<rpm>0.00</rpm>
</extensions>
</trkpt>
<trkpt lat="64.081909180" lon="-19.591081619">
<ele>364.437500</ele>
<time>2012-07-21T17:07:24Z</time>
<speed>0.850000</speed>
<extensions>
<speed>0.8</speed>
<temp>0.00</temp>
<bpm>0</bpm>
<rpm>0.00</rpm>
</extensions>
</trkpt>
<trkpt lat="64.081947327" lon="-19.591098785">
<ele>364.750000</ele>
<time>2012-07-21T17:07:29Z</time>
<speed>0.660000</speed>
<extensions>
<speed>0.7</speed>
<temp>0.00</temp>
<bpm>0</bpm>
<rpm>0.00</rpm>
</extensions>
</trkpt>
<trkpt lat="64.081939697" lon="-19.591094971">
<ele>364.875000</ele>
<time>2012-07-21T17:07:34Z</time>
<speed>0.130000</speed>
<extensions>
<speed>0.1</speed>
<temp>0.00</temp>
<bpm>0</bpm>
<rpm>0.00</rpm>
</extensions>
</trkpt>
<trkpt lat="64.081947327" lon="-19.591100693">
<ele>365.023438</ele>
<time>2012-07-21T17:07:39Z</time>
<speed>0.070000</speed>
<extensions>
<speed>0.1</speed>
<temp>0.00</temp>
<bpm>0</bpm>
<rpm>0.00</rpm>
</extensions>
</trkpt>
<trkpt lat="64.081962585" lon="-19.591114044">
<ele>365.421875</ele>
<time>2012-07-21T17:07:44Z</time>
<speed>0.300000</speed>
<extensions>
<speed>0.3</speed>
<temp>0.00</temp>
<bpm>0</bpm>
<rpm>0.00</rpm>
</extensions>
</trkpt>
<trkpt lat="64.081977844" lon="-19.591102600">
<ele>366.289063</ele>
<time>2012-07-21T17:07:49Z</time>
<speed>0.110000</speed>
<extensions>
<speed>0.1</speed>
<temp>0.00</temp>
<bpm>0</bpm>
<rpm>0.00</rpm>
</extensions>
</trkpt>
<trkpt lat="64.081977844" lon="-19.591106415">
<ele>366.445313</ele>
<time>2012-07-21T17:07:54Z</time>
<speed>0.080000</speed>
<extensions>
<speed>0.1</speed>
<temp>0.00</temp>
<bpm>0</bpm>
<rpm>0.00</rpm>
</extensions>
</trkpt>
<trkpt lat="64.081977844" lon="-19.591102600">
<ele>366.625000</ele>
<time>2012-07-21T17:07:59Z</time>
<speed>0.030000</speed>
<extensions>
<speed>0.0</speed>
<temp>0.00</temp>
<bpm>0</bpm>
<rpm>0.00</rpm>
</extensions>
</trkpt>
<trkpt lat="64.081977844" lon="-19.591098785">
<ele>366.804688</ele>
<time>2012-07-21T17:08:04Z</time>
<speed>0.050000</speed>
<extensions>
<speed>0.1</speed>
<temp>0.00</temp>
<bpm>0</bpm>
<rpm>0.00</rpm>
</extensions>
</trkpt>
<trkpt lat="64.081985474" lon="-19.591091156">
<ele>367.031250</ele>
<time>2012-07-21T17:08:09Z</time>
<speed>0.120000</speed>
<extensions>
<speed>0.1</speed>
<temp>0.00</temp>
<bpm>0</bpm>
<rpm>0.00</rpm>
</extensions>
</trkpt>
<trkpt lat="64.081985474" lon="-19.591091156">
<ele>367.281250</ele>
<time>2012-07-21T17:08:14Z</time>
<speed>0.040000</speed>
<extensions>
<speed>0.0</speed>
<temp>0.00</temp>
<bpm>0</bpm>
<rpm>0.00</rpm>
</extensions>
</trkpt>
<trkpt lat="64.081985474" lon="-19.591093063">
<ele>367.554688</ele>
<time>2012-07-21T17:08:19Z</time>
<speed>0.060000</speed>
<extensions>
<speed>0.1</speed>
<temp>0.00</temp>
<bpm>0</bpm>
<rpm>0.00</rpm>
</extensions>
</trkpt>
<trkpt lat="64.081985474" lon="-19.591094971">
<ele>367.601563</ele>
<time>2012-07-21T17:08:24Z</time>
<speed>0.010000</speed>
<extensions>
<speed>0.0</speed>
<temp>0.00</temp>
<bpm>0</bpm>
<rpm>0.00</rpm>
</extensions>
</trkpt>
<trkpt lat="64.081985474" lon="-19.591094971">
<ele>367.601563</ele>
<time>2012-07-21T17:08:29Z</time>
<extensions>
<speed>0.0</speed>
<temp>0.00</temp>
<bpm>0</bpm>
<rpm>0.00</rpm>
</extensions>
</trkpt>
<trkpt lat="64.081985474" lon="-19.591094971">
<ele>367.609375</ele>
<time>2012-07-21T17:08:34Z</time>
<extensions>
<speed>0.0</speed>
<temp>0.00</temp>
<bpm>0</bpm>
<rpm>0.00</rpm>
</extensions>
</trkpt>
<trkpt lat="64.081985474" lon="-19.591094971">
<ele>367.609375</ele>
<time>2012-07-21T17:08:39Z</time>
<speed>0.010000</speed>
<extensions>
<speed>0.0</speed>
<temp>0.00</temp>
<bpm>0</bpm>
<rpm>0.00</rpm>
</extensions>
</trkpt>
<trkpt lat="64.081985474" lon="-19.591094971">
<ele>367.617188</ele>
<time>2012-07-21T17:08:44Z</time>
<speed>0.020000</speed>
<extensions>
<speed>0.0</speed>
<temp>0.00</temp>
<bpm>0</bpm>
<rpm>0.00</rpm>
</extensions>
</trkpt>
<trkpt lat="64.081985474" lon="-19.591094971">
<ele>367.617188</ele>
<time>2012-07-21T17:08:49Z</time>
<speed>0.020000</speed>
<extensions>
<speed>0.0</speed>
<temp>0.00</temp>
<bpm>0</bpm>
<rpm>0.00</rpm>
</extensions>
</trkpt>
<trkpt lat="64.081985474" lon="-19.591094971">
<ele>367.617188</ele>
<time>2012-07-21T17:08:54Z</time>
<extensions>
<speed>0.0</speed>
<temp>0.00</temp>
<bpm>0</bpm>
<rpm>0.00</rpm>
</extensions>
</trkpt>
<trkpt lat="64.081985474" lon="-19.591094971">
<ele>367.640625</ele>
<time>2012-07-21T17:08:59Z</time>
<speed>0.020000</speed>
<extensions>
<speed>0.0</speed>
<temp>0.00</temp>
<bpm>0</bpm>
<rpm>0.00</rpm>
</extensions>
</trkpt>
<trkpt lat="64.081985474" lon="-19.591094971">
<ele>367.664063</ele>
<time>2012-07-21T17:09:04Z</time>
<speed>0.020000</speed>
<extensions>
<speed>0.0</speed>
<temp>0.00</temp>
<bpm>0</bpm>
<rpm>0.00</rpm>
</extensions>
</trkpt>
<trkpt lat="64.081985474" lon="-19.591094971">
<ele>367.648438</ele>
<time>2012-07-21T17:09:09Z</time>
<speed>0.010000</speed>
<extensions>
<speed>0.0</speed>
<temp>0.00</temp>
<bpm>0</bpm>
<rpm>0.00</rpm>
</extensions>
</trkpt>
<trkpt lat="64.081985474" lon="-19.591094971">
<ele>367.640625</ele>
<time>2012-07-21T17:09:14Z</time>
<speed>0.020000</speed>
<extensions>
<speed>0.0</speed>
<temp>0.00</temp>
<bpm>0</bpm>
<rpm>0.00</rpm>
</extensions>
</trkpt>
<trkpt lat="64.081985474" lon="-19.591093063">
<ele>367.648438</ele>
<time>2012-07-21T17:09:19Z</time>
<extensions>
<speed>0.0</speed>
<temp>0.00</temp>
<bpm>0</bpm>
<rpm>0.00</rpm>
</extensions>
</trkpt>
<trkpt lat="64.081985474" lon="-19.591093063">
<ele>367.656250</ele>
<time>2012-07-21T17:09:24Z</time>
<extensions>
<speed>0.0</speed>
<temp>0.00</temp>
<bpm>0</bpm>
<rpm>0.00</rpm>
</extensions>
</trkpt>
<trkpt lat="64.081985474" lon="-19.591093063">
<ele>367.664063</ele>
<time>2012-07-21T17:09:29Z</time>
<speed>0.020000</speed>
<extensions>
<speed>0.0</speed>
<temp>0.00</temp>
<bpm>0</bpm>
<rpm>0.00</rpm>
</extensions>
</trkpt>
<trkpt lat="64.081985474" lon="-19.591093063">
<ele>367.656250</ele>
<time>2012-07-21T17:09:34Z</time>
<speed>0.010000</speed>
<extensions>
<speed>0.0</speed>
<temp>0.00</temp>
<bpm>0</bpm>
<rpm>0.00</rpm>
</extensions>
</trkpt>
<trkpt lat="64.081985474" lon="-19.591093063">
<ele>367.648438</ele>
<time>2012-07-21T17:09:39Z</time>
<speed>0.010000</speed>
<extensions>
<speed>0.0</speed>
<temp>0.00</temp>
<bpm>0</bpm>
<rpm>0.00</rpm>
</extensions>
</trkpt>
<trkpt lat="64.081985474" lon="-19.591093063">
<ele>367.648438</ele>
<time>2012-07-21T17:09:44Z</time>
<extensions>
<speed>0.0</speed>
<temp>0.00</temp>
<bpm>0</bpm>
<rpm>0.00</rpm>
</extensions>
</trkpt>
<trkpt lat="64.081985474" lon="-19.591093063">
<ele>367.648438</ele>
<time>2012-07-21T17:09:49Z</time>
<speed>0.010000</speed>
<extensions>
<speed>0.0</speed>
<temp>0.00</temp>
<bpm>0</bpm>
<rpm>0.00</rpm>
</extensions>
</trkpt>
<trkpt lat="64.081985474" lon="-19.591093063">
<ele>367.656250</ele>
<time>2012-07-21T17:09:54Z</time>
<extensions>
<speed>0.0</speed>
<temp>0.00</temp>
<bpm>0</bpm>
<rpm>0.00</rpm>
</extensions>
</trkpt>
<trkpt lat="64.081985474" lon="-19.591093063">
<ele>367.656250</ele>
<time>2012-07-21T17:09:59Z</time>
<speed>0.010000</speed>
<extensions>
<speed>0.0</speed>
<temp>0.00</temp>
<bpm>0</bpm>
<rpm>0.00</rpm>
</extensions>
</trkpt>
<trkpt lat="64.081985474" lon="-19.591091156">
<ele>367.632813</ele>
<time>2012-07-21T17:10:04Z</time>
<speed>0.020000</speed>
<extensions>
<speed>0.0</speed>
<temp>0.00</temp>
<bpm>0</bpm>
<rpm>0.00</rpm>
</extensions>
</trkpt>
<trkpt lat="64.081985474" lon="-19.591091156">
<ele>367.648438</ele>
<time>2012-07-21T17:10:09Z</time>
<speed>0.010000</speed>
<extensions>
<speed>0.0</speed>
<temp>0.00</temp>
<bpm>0</bpm>
<rpm>0.00</rpm>
</extensions>
</trkpt>
<trkpt lat="64.081985474" lon="-19.591091156">
<ele>367.648438</ele>
<time>2012-07-21T17:10:14Z</time>
<speed>0.010000</speed>
<extensions>
<speed>0.0</speed>
<temp>0.00</temp>
<bpm>0</bpm>
<rpm>0.00</rpm>
</extensions>
</trkpt>
<trkpt lat="64.081985474" lon="-19.591091156">
<ele>367.640625</ele>
<time>2012-07-21T17:10:19Z</time>
<extensions>
<speed>0.0</speed>
<temp>0.00</temp>
<bpm>0</bpm>
<rpm>0.00</rpm>
</extensions>
</trkpt>
<trkpt lat="64.081985474" lon="-19.591089249">
<ele>367.640625</ele>
<time>2012-07-21T17:10:24Z</time>
<extensions>
<speed>0.0</speed>
<temp>0.00</temp>
<bpm>0</bpm>
<rpm>0.00</rpm>
</extensions>
</trkpt>
<trkpt lat="64.081985474" lon="-19.591089249">
<ele>367.640625</ele>
<time>2012-07-21T17:10:29Z</time>
<speed>0.010000</speed>
<extensions>
<speed>0.0</speed>
<temp>0.00</temp>
<bpm>0</bpm>
<rpm>0.00</rpm>
</extensions>
</trkpt>
<trkpt lat="64.081985474" lon="-19.591089249">
<ele>367.632813</ele>
<time>2012-07-21T17:10:34Z</time>
<speed>0.010000</speed>
<extensions>
<speed>0.0</speed>
<temp>0.00</temp>
<bpm>0</bpm>
<rpm>0.00</rpm>
</extensions>
</trkpt>
<trkpt lat="64.081985474" lon="-19.591089249">
<ele>367.625000</ele>
<time>2012-07-21T17:10:39Z</time>
<speed>0.020000</speed>
<extensions>
<speed>0.0</speed>
<temp>0.00</temp>
<bpm>0</bpm>
<rpm>0.00</rpm>
</extensions>
</trkpt>
<trkpt lat="64.081985474" lon="-19.591089249">
<ele>367.617188</ele>
<time>2012-07-21T17:10:44Z</time>
<speed>0.010000</speed>
<extensions>
<speed>0.0</speed>
<temp>0.00</temp>
<bpm>0</bpm>
<rpm>0.00</rpm>
</extensions>
</trkpt>
<trkpt lat="64.081985474" lon="-19.591089249">
<ele>367.609375</ele>
<time>2012-07-21T17:10:49Z</time>
<extensions>
<speed>0.0</speed>
<temp>0.00</temp>
<bpm>0</bpm>
<rpm>0.00</rpm>
</extensions>
</trkpt>
<trkpt lat="64.081985474" lon="-19.591089249">
<ele>367.609375</ele>
<time>2012-07-21T17:10:54Z</time>
<extensions>
<speed>0.0</speed>
<temp>0.00</temp>
<bpm>0</bpm>
<rpm>0.00</rpm>
</extensions>
</trkpt>
<trkpt lat="64.081985474" lon="-19.591087341">
<ele>367.609375</ele>
<time>2012-07-21T17:10:59Z</time>
<speed>0.010000</speed>
<extensions>
<speed>0.0</speed>
<temp>0.00</temp>
<bpm>0</bpm>
<rpm>0.00</rpm>
</extensions>
</trkpt>
<trkpt lat="64.081985474" lon="-19.591087341">
<ele>367.617188</ele>
<time>2012-07-21T17:11:04Z</time>
<speed>0.010000</speed>
<extensions>
<speed>0.0</speed>
<temp>0.00</temp>
<bpm>0</bpm>
<rpm>0.00</rpm>
</extensions>
</trkpt>
<trkpt lat="64.081985474" lon="-19.591087341">
<ele>367.625000</ele>
<time>2012-07-21T17:11:09Z</time>
<speed>0.010000</speed>
<extensions>
<speed>0.0</speed>
<temp>0.00</temp>
<bpm>0</bpm>
<rpm>0.00</rpm>
</extensions>
</trkpt>
<trkpt lat="64.081985474" lon="-19.591087341">
<ele>367.632813</ele>
<time>2012-07-21T17:11:14Z</time>
<speed>0.020000</speed>
<extensions>
<speed>0.0</speed>
<temp>0.00</temp>
<bpm>0</bpm>
<rpm>0.00</rpm>
</extensions>
</trkpt>
<trkpt lat="64.081985474" lon="-19.591087341">
<ele>367.632813</ele>
<time>2012-07-21T17:11:19Z</time>
<extensions>
<speed>0.0</speed>
<temp>0.00</temp>
<bpm>0</bpm>
<rpm>0.00</rpm>
</extensions>
</trkpt>
<trkpt lat="64.081985474" lon="-19.591087341">
<ele>367.632813</ele>
<time>2012-07-21T17:11:24Z</time>
<extensions>
<speed>0.0</speed>
<temp>0.00</temp>
<bpm>0</bpm>
<rpm>0.00</rpm>
</extensions>
</trkpt>
<trkpt lat="64.081985474" lon="-19.591087341">
<ele>367.632813</ele>
<time>2012-07-21T17:11:29Z</time>
<speed>0.010000</speed>
<extensions>
<speed>0.0</speed>
<temp>0.00</temp>
<bpm>0</bpm>
<rpm>0.00</rpm>
</extensions>
</trkpt>
<trkpt lat="64.081985474" lon="-19.591085434">
<ele>367.640625</ele>
<time>2012-07-21T17:11:34Z</time>
<speed>0.010000</speed>
<extensions>
<speed>0.0</speed>
<temp>0.00</temp>
<bpm>0</bpm>
<rpm>0.00</rpm>
</extensions>
</trkpt>
<trkpt lat="64.081985474" lon="-19.591085434">
<ele>367.632813</ele>
<time>2012-07-21T17:11:39Z</time>
<extensions>
<speed>0.0</speed>
<temp>0.00</temp>
<bpm>0</bpm>
<rpm>0.00</rpm>
</extensions>
</trkpt>
<trkpt lat="64.081985474" lon="-19.591085434">
<ele>367.617188</ele>
<time>2012-07-21T17:11:44Z</time>
<speed>0.010000</speed>
<extensions>
<speed>0.0</speed>
<temp>0.00</temp>
<bpm>0</bpm>
<rpm>0.00</rpm>
</extensions>
</trkpt>
<trkpt lat="64.081985474" lon="-19.591085434">
<ele>367.593750</ele>
<time>2012-07-21T17:11:49Z</time>
<speed>0.020000</speed>
<extensions>
<speed>0.0</speed>
<temp>0.00</temp>
<bpm>0</bpm>
<rpm>0.00</rpm>
</extensions>
</trkpt>
<trkpt lat="64.081985474" lon="-19.591085434">
<ele>367.593750</ele>
<time>2012-07-21T17:11:54Z</time>
<speed>0.010000</speed>
<extensions>
<speed>0.0</speed>
<temp>0.00</temp>
<bpm>0</bpm>
<rpm>0.00</rpm>
</extensions>
</trkpt>
<trkpt lat="64.081985474" lon="-19.591085434">
<ele>367.585938</ele>
<time>2012-07-21T17:11:59Z</time>
<extensions>
<speed>0.0</speed>
<temp>0.00</temp>
<bpm>0</bpm>
<rpm>0.00</rpm>
</extensions>
</trkpt>
<trkpt lat="64.081985474" lon="-19.591083527">
<ele>367.585938</ele>
<time>2012-07-21T17:12:04Z</time>
<speed>0.020000</speed>
<extensions>
<speed>0.0</speed>
<temp>0.00</temp>
<bpm>0</bpm>
<rpm>0.00</rpm>
</extensions>
</trkpt>
<trkpt lat="64.081985474" lon="-19.591083527">
<ele>367.570313</ele>
<time>2012-07-21T17:12:09Z</time>
<speed>0.020000</speed>
<extensions>
<speed>0.0</speed>
<temp>0.00</temp>
<bpm>0</bpm>
<rpm>0.00</rpm>
</extensions>
</trkpt>
<trkpt lat="64.081985474" lon="-19.591083527">
<ele>367.554688</ele>
<time>2012-07-21T17:12:14Z</time>
<speed>0.010000</speed>
<extensions>
<speed>0.0</speed>
<temp>0.00</temp>
<bpm>0</bpm>
<rpm>0.00</rpm>
</extensions>
</trkpt>
<trkpt lat="64.081985474" lon="-19.591083527">
<ele>367.546875</ele>
<time>2012-07-21T17:12:19Z</time>
<extensions>
<speed>0.0</speed>
<temp>0.00</temp>
<bpm>0</bpm>
<rpm>0.00</rpm>
</extensions>
</trkpt>
<trkpt lat="64.081985474" lon="-19.591083527">
<ele>367.554688</ele>
<time>2012-07-21T17:12:24Z</time>
<speed>0.030000</speed>
<extensions>
<speed>0.0</speed>
<temp>0.00</temp>
<bpm>0</bpm>
<rpm>0.00</rpm>
</extensions>
</trkpt>
<trkpt lat="64.081985474" lon="-19.591083527">
<ele>367.554688</ele>
<time>2012-07-21T17:12:29Z</time>
<extensions>
<speed>0.0</speed>
<temp>0.00</temp>
<bpm>0</bpm>
<rpm>0.00</rpm>
</extensions>
</trkpt>
<trkpt lat="64.081977844" lon="-19.591083527">
<ele>367.554688</ele>
<time>2012-07-21T17:12:34Z</time>
<extensions>
<speed>0.0</speed>
<temp>0.00</temp>
<bpm>0</bpm>
<rpm>0.00</rpm>
</extensions>
</trkpt>
<trkpt lat="64.081977844" lon="-19.591083527">
<ele>367.539063</ele>
<time>2012-07-21T17:12:39Z</time>
<extensions>
<speed>0.0</speed>
<temp>0.00</temp>
<bpm>0</bpm>
<rpm>0.00</rpm>
</extensions>
</trkpt>
<trkpt lat="64.081977844" lon="-19.591083527">
<ele>367.523438</ele>
<time>2012-07-21T17:12:44Z</time>
<speed>0.010000</speed>
<extensions>
<speed>0.0</speed>
<temp>0.00</temp>
<bpm>0</bpm>
<rpm>0.00</rpm>
</extensions>
</trkpt>
<trkpt lat="64.081977844" lon="-19.591081619">
<ele>367.515625</ele>
<time>2012-07-21T17:12:49Z</time>
<speed>0.010000</speed>
<extensions>
<speed>0.0</speed>
<temp>0.00</temp>
<bpm>0</bpm>
<rpm>0.00</rpm>
</extensions>
</trkpt>
<trkpt lat="64.081977844" lon="-19.591081619">
<ele>367.539063</ele>
<time>2012-07-21T17:12:54Z</time>
<extensions>
<speed>0.0</speed>
<temp>0.00</temp>
<bpm>0</bpm>
<rpm>0.00</rpm>
</extensions>
</trkpt>
<trkpt lat="64.081977844" lon="-19.591081619">
<ele>367.539063</ele>
<time>2012-07-21T17:12:59Z</time>
<speed>0.020000</speed>
<extensions>
<speed>0.0</speed>
<temp>0.00</temp>
<bpm>0</bpm>
<rpm>0.00</rpm>
</extensions>
</trkpt>
<trkpt lat="64.081977844" lon="-19.591081619">
<ele>367.539063</ele>
<time>2012-07-21T17:13:04Z</time>
<speed>0.010000</speed>
<extensions>
<speed>0.0</speed>
<temp>0.00</temp>
<bpm>0</bpm>
<rpm>0.00</rpm>
</extensions>
</trkpt>
<trkpt lat="64.081977844" lon="-19.591081619">
<ele>367.531250</ele>
<time>2012-07-21T17:13:09Z</time>
<speed>0.020000</speed>
<extensions>
<speed>0.0</speed>
<temp>0.00</temp>
<bpm>0</bpm>
<rpm>0.00</rpm>
</extensions>
</trkpt>
<trkpt lat="64.081977844" lon="-19.591081619">
<ele>367.539063</ele>
<time>2012-07-21T17:13:14Z</time>
<speed>0.010000</speed>
<extensions>
<speed>0.0</speed>
<temp>0.00</temp>
<bpm>0</bpm>
<rpm>0.00</rpm>
</extensions>
</trkpt>
<trkpt lat="64.081977844" lon="-19.591081619">
<ele>367.546875</ele>
<time>2012-07-21T17:13:19Z</time>
<speed>0.010000</speed>
<extensions>
<speed>0.0</speed>
<temp>0.00</temp>
<bpm>0</bpm>
<rpm>0.00</rpm>
</extensions>
</trkpt>
<trkpt lat="64.081977844" lon="-19.591079712">
<ele>367.539063</ele>
<time>2012-07-21T17:13:24Z</time>
<speed>0.020000</speed>
<extensions>
<speed>0.0</speed>
<temp>0.00</temp>
<bpm>0</bpm>
<rpm>0.00</rpm>
</extensions>
</trkpt>
<trkpt lat="64.081977844" lon="-19.591079712">
<ele>367.539063</ele>
<time>2012-07-21T17:13:29Z</time>
<extensions>
<speed>0.0</speed>
<temp>0.00</temp>
<bpm>0</bpm>
<rpm>0.00</rpm>
</extensions>
</trkpt>
<trkpt lat="64.081977844" lon="-19.591079712">
<ele>367.539063</ele>
<time>2012-07-21T17:13:34Z</time>
<speed>0.010000</speed>
<extensions>
<speed>0.0</speed>
<temp>0.00</temp>
<bpm>0</bpm>
<rpm>0.00</rpm>
</extensions>
</trkpt>
<trkpt lat="64.081977844" lon="-19.591079712">
<ele>367.546875</ele>
<time>2012-07-21T17:13:39Z</time>
<speed>0.010000</speed>
<extensions>
<speed>0.0</speed>
<temp>0.00</temp>
<bpm>0</bpm>
<rpm>0.00</rpm>
</extensions>
</trkpt>
<trkpt lat="64.081977844" lon="-19.591079712">
<ele>367.546875</ele>
<time>2012-07-21T17:13:44Z</time>
<speed>0.020000</speed>
<extensions>
<speed>0.0</speed>
<temp>0.00</temp>
<bpm>0</bpm>
<rpm>0.00</rpm>
</extensions>
</trkpt>
<trkpt lat="64.081977844" lon="-19.591079712">
<ele>367.546875</ele>
<time>2012-07-21T17:13:49Z</time>
<speed>0.010000</speed>
<extensions>
<speed>0.0</speed>
<temp>0.00</temp>
<bpm>0</bpm>
<rpm>0.00</rpm>
</extensions>
</trkpt>
<trkpt lat="64.081977844" lon="-19.591081619">
<ele>367.554688</ele>
<time>2012-07-21T17:13:54Z</time>
<speed>0.030000</speed>
<extensions>
<speed>0.0</speed>
<temp>0.00</temp>
<bpm>0</bpm>
<rpm>0.00</rpm>
</extensions>
</trkpt>
<trkpt lat="64.081977844" lon="-19.591079712">
<ele>367.539063</ele>
<time>2012-07-21T17:13:59Z</time>
<speed>0.010000</speed>
<extensions>
<speed>0.0</speed>
<temp>0.00</temp>
<bpm>0</bpm>
<rpm>0.00</rpm>
</extensions>
</trkpt>
<trkpt lat="64.081977844" lon="-19.591079712">
<ele>367.539063</ele>
<time>2012-07-21T17:14:04Z</time>
<speed>0.010000</speed>
<extensions>
<speed>0.0</speed>
<temp>0.00</temp>
<bpm>0</bpm>
<rpm>0.00</rpm>
</extensions>
</trkpt>
<trkpt lat="64.081977844" lon="-19.591079712">
<ele>367.531250</ele>
<time>2012-07-21T17:14:09Z</time>
<speed>0.010000</speed>
<extensions>
<speed>0.0</speed>
<temp>0.00</temp>
<bpm>0</bpm>
<rpm>0.00</rpm>
</extensions>
</trkpt>
<trkpt lat="64.081977844" lon="-19.591079712">
<ele>367.515625</ele>
<time>2012-07-21T17:14:14Z</time>
<extensions>
<speed>0.0</speed>
<temp>0.00</temp>
<bpm>0</bpm>
<rpm>0.00</rpm>
</extensions>
</trkpt>
<trkpt lat="64.081977844" lon="-19.591077805">
<ele>367.515625</ele>
<time>2012-07-21T17:14:19Z</time>
<speed>0.010000</speed>
<extensions>
<speed>0.0</speed>
<temp>0.00</temp>
<bpm>0</bpm>
<rpm>0.00</rpm>
</extensions>
</trkpt>
<trkpt lat="64.081977844" lon="-19.591077805">
<ele>367.515625</ele>
<time>2012-07-21T17:14:24Z</time>
<speed>0.030000</speed>
<extensions>
<speed>0.0</speed>
<temp>0.00</temp>
<bpm>0</bpm>
<rpm>0.00</rpm>
</extensions>
</trkpt>
<trkpt lat="64.081977844" lon="-19.591077805">
<ele>367.507813</ele>
<time>2012-07-21T17:14:29Z</time>
<speed>0.010000</speed>
<extensions>
<speed>0.0</speed>
<temp>0.00</temp>
<bpm>0</bpm>
<rpm>0.00</rpm>
</extensions>
</trkpt>
<trkpt lat="64.081977844" lon="-19.591077805">
<ele>367.507813</ele>
<time>2012-07-21T17:14:34Z</time>
<extensions>
<speed>0.0</speed>
<temp>0.00</temp>
<bpm>0</bpm>
<rpm>0.00</rpm>
</extensions>
</trkpt>
<trkpt lat="64.081977844" lon="-19.591075897">
<ele>367.523438</ele>
<time>2012-07-21T17:14:39Z</time>
<extensions>
<speed>0.0</speed>
<temp>0.00</temp>
<bpm>0</bpm>
<rpm>0.00</rpm>
</extensions>
</trkpt>
<trkpt lat="64.081977844" lon="-19.591075897">
<ele>367.523438</ele>
<time>2012-07-21T17:14:44Z</time>
<speed>0.020000</speed>
<extensions>
<speed>0.0</speed>
<temp>0.00</temp>
<bpm>0</bpm>
<rpm>0.00</rpm>
</extensions>
</trkpt>
<trkpt lat="64.081977844" lon="-19.591075897">
<ele>367.515625</ele>
<time>2012-07-21T17:14:49Z</time>
<speed>0.020000</speed>
<extensions>
<speed>0.0</speed>
<temp>0.00</temp>
<bpm>0</bpm>
<rpm>0.00</rpm>
</extensions>
</trkpt>
<trkpt lat="64.081977844" lon="-19.591075897">
<ele>367.507813</ele>
<time>2012-07-21T17:14:54Z</time>
<speed>0.010000</speed>
<extensions>
<speed>0.0</speed>
<temp>0.00</temp>
<bpm>0</bpm>
<rpm>0.00</rpm>
</extensions>
</trkpt>
<trkpt lat="64.081977844" lon="-19.591073990">
<ele>367.484375</ele>
<time>2012-07-21T17:14:59Z</time>
<speed>0.010000</speed>
<extensions>
<speed>0.0</speed>
<temp>0.00</temp>
<bpm>0</bpm>
<rpm>0.00</rpm>
</extensions>
</trkpt>
<trkpt lat="64.081977844" lon="-19.591073990">
<ele>367.460938</ele>
<time>2012-07-21T17:15:04Z</time>
<extensions>
<speed>0.0</speed>
<temp>0.00</temp>
<bpm>0</bpm>
<rpm>0.00</rpm>
</extensions>
</trkpt>
<trkpt lat="64.081977844" lon="-19.591073990">
<ele>367.445313</ele>
<time>2012-07-21T17:15:09Z</time>
<extensions>
<speed>0.0</speed>
<temp>0.00</temp>
<bpm>0</bpm>
<rpm>0.00</rpm>
</extensions>
</trkpt>
<trkpt lat="64.081977844" lon="-19.591073990">
<ele>367.453125</ele>
<time>2012-07-21T17:15:14Z</time>
<speed>0.010000</speed>
<extensions>
<speed>0.0</speed>
<temp>0.00</temp>
<bpm>0</bpm>
<rpm>0.00</rpm>
</extensions>
</trkpt>
<trkpt lat="64.081977844" lon="-19.591073990">
<ele>367.445313</ele>
<time>2012-07-21T17:15:19Z</time>
<extensions>
<speed>0.0</speed>
<temp>0.00</temp>
<bpm>0</bpm>
<rpm>0.00</rpm>
</extensions>
</trkpt>
<trkpt lat="64.081977844" lon="-19.591072083">
<ele>367.421875</ele>
<time>2012-07-21T17:15:24Z</time>
<speed>0.020000</speed>
<extensions>
<speed>0.0</speed>
<temp>0.00</temp>
<bpm>0</bpm>
<rpm>0.00</rpm>
</extensions>
</trkpt>
<trkpt lat="64.081977844" lon="-19.591072083">
<ele>367.414063</ele>
<time>2012-07-21T17:15:29Z</time>
<extensions>
<speed>0.0</speed>
<temp>0.00</temp>
<bpm>0</bpm>
<rpm>0.00</rpm>
</extensions>
</trkpt>
<trkpt lat="64.081977844" lon="-19.591072083">
<ele>367.398438</ele>
<time>2012-07-21T17:15:34Z</time>
<speed>0.020000</speed>
<extensions>
<speed>0.0</speed>
<temp>0.00</temp>
<bpm>0</bpm>
<rpm>0.00</rpm>
</extensions>
</trkpt>
<trkpt lat="64.081977844" lon="-19.591072083">
<ele>367.398438</ele>
<time>2012-07-21T17:15:39Z</time>
<extensions>
<speed>0.0</speed>
<temp>0.00</temp>
<bpm>0</bpm>
<rpm>0.00</rpm>
</extensions>
</trkpt>
<trkpt lat="64.081977844" lon="-19.591072083">
<ele>367.382813</ele>
<time>2012-07-21T17:15:44Z</time>
<speed>0.010000</speed>
<extensions>
<speed>0.0</speed>
<temp>0.00</temp>
<bpm>0</bpm>
<rpm>0.00</rpm>
</extensions>
</trkpt>
<trkpt lat="64.081977844" lon="-19.591072083">
<ele>367.367188</ele>
<time>2012-07-21T17:15:49Z</time>
<extensions>
<speed>0.0</speed>
<temp>0.00</temp>
<bpm>0</bpm>
<rpm>0.00</rpm>
</extensions>
</trkpt>
<trkpt lat="64.081977844" lon="-19.591072083">
<ele>367.343750</ele>
<time>2012-07-21T17:15:54Z</time>
<extensions>
<speed>0.0</speed>
<temp>0.00</temp>
<bpm>0</bpm>
<rpm>0.00</rpm>
</extensions>
</trkpt>
<trkpt lat="64.081977844" lon="-19.591072083">
<ele>367.351563</ele>
<time>2012-07-21T17:15:59Z</time>
<speed>0.010000</speed>
<extensions>
<speed>0.0</speed>
<temp>0.00</temp>
<bpm>0</bpm>
<rpm>0.00</rpm>
</extensions>
</trkpt>
<trkpt lat="64.081977844" lon="-19.591070175">
<ele>367.382813</ele>
<time>2012-07-21T17:16:04Z</time>
<speed>0.020000</speed>
<extensions>
<speed>0.0</speed>
<temp>0.00</temp>
<bpm>0</bpm>
<rpm>0.00</rpm>
</extensions>
</trkpt>
<trkpt lat="64.081977844" lon="-19.591070175">
<ele>367.390625</ele>
<time>2012-07-21T17:16:09Z</time>
<speed>0.010000</speed>
<extensions>
<speed>0.0</speed>
<temp>0.00</temp>
<bpm>0</bpm>
<rpm>0.00</rpm>
</extensions>
</trkpt>
<trkpt lat="64.081977844" lon="-19.591070175">
<ele>367.414063</ele>
<time>2012-07-21T17:16:14Z</time>
<extensions>
<speed>0.0</speed>
<temp>0.00</temp>
<bpm>0</bpm>
<rpm>0.00</rpm>
</extensions>
</trkpt>
<trkpt lat="64.081977844" lon="-19.591070175">
<ele>367.421875</ele>
<time>2012-07-21T17:16:19Z</time>
<speed>0.010000</speed>
<extensions>
<speed>0.0</speed>
<temp>0.00</temp>
<bpm>0</bpm>
<rpm>0.00</rpm>
</extensions>
</trkpt>
<trkpt lat="64.081977844" lon="-19.591070175">
<ele>367.421875</ele>
<time>2012-07-21T17:16:24Z</time>
<speed>0.010000</speed>
<extensions>
<speed>0.0</speed>
<temp>0.00</temp>
<bpm>0</bpm>
<rpm>0.00</rpm>
</extensions>
</trkpt>
<trkpt lat="64.081977844" lon="-19.591070175">
<ele>367.414063</ele>
<time>2012-07-21T17:16:29Z</time>
<extensions>
<speed>0.0</speed>
<temp>0.00</temp>
<bpm>0</bpm>
<rpm>0.00</rpm>
</extensions>
</trkpt>
<trkpt lat="64.081977844" lon="-19.591070175">
<ele>367.398438</ele>
<time>2012-07-21T17:16:34Z</time>
<extensions>
<speed>0.0</speed>
<temp>0.00</temp>
<bpm>0</bpm>
<rpm>0.00</rpm>
</extensions>
</trkpt>
<trkpt lat="64.081977844" lon="-19.591070175">
<ele>367.382813</ele>
<time>2012-07-21T17:16:39Z</time>
<extensions>
<speed>0.0</speed>
<temp>0.00</temp>
<bpm>0</bpm>
<rpm>0.00</rpm>
</extensions>
</trkpt>
<trkpt lat="64.081977844" lon="-19.591070175">
<ele>367.359375</ele>
<time>2012-07-21T17:16:44Z</time>
<speed>0.010000</speed>
<extensions>
<speed>0.0</speed>
<temp>0.00</temp>
<bpm>0</bpm>
<rpm>0.00</rpm>
</extensions>
</trkpt>
<trkpt lat="64.081977844" lon="-19.591068268">
<ele>367.359375</ele>
<time>2012-07-21T17:16:49Z</time>
<speed>0.010000</speed>
<extensions>
<speed>0.0</speed>
<temp>0.00</temp>
<bpm>0</bpm>
<rpm>0.00</rpm>
</extensions>
</trkpt>
<trkpt lat="64.081977844" lon="-19.591068268">
<ele>367.359375</ele>
<time>2012-07-21T17:16:54Z</time>
<extensions>
<speed>0.0</speed>
<temp>0.00</temp>
<bpm>0</bpm>
<rpm>0.00</rpm>
</extensions>
</trkpt>
<trkpt lat="64.081977844" lon="-19.591068268">
<ele>367.367188</ele>
<time>2012-07-21T17:16:59Z</time>
<extensions>
<speed>0.0</speed>
<temp>0.00</temp>
<bpm>0</bpm>
<rpm>0.00</rpm>
</extensions>
</trkpt>
<trkpt lat="64.081977844" lon="-19.591068268">
<ele>367.359375</ele>
<time>2012-07-21T17:17:04Z</time>
<extensions>
<speed>0.0</speed>
<temp>0.00</temp>
<bpm>0</bpm>
<rpm>0.00</rpm>
</extensions>
</trkpt>
<trkpt lat="64.081977844" lon="-19.591068268">
<ele>367.367188</ele>
<time>2012-07-21T17:17:09Z</time>
<extensions>
<speed>0.0</speed>
<temp>0.00</temp>
<bpm>0</bpm>
<rpm>0.00</rpm>
</extensions>
</trkpt>
<trkpt lat="64.081977844" lon="-19.591068268">
<ele>367.390625</ele>
<time>2012-07-21T17:17:14Z</time>
<speed>0.010000</speed>
<extensions>
<speed>0.0</speed>
<temp>0.00</temp>
<bpm>0</bpm>
<rpm>0.00</rpm>
</extensions>
</trkpt>
<trkpt lat="64.081977844" lon="-19.591068268">
<ele>367.390625</ele>
<time>2012-07-21T17:17:19Z</time>
<extensions>
<speed>0.0</speed>
<temp>0.00</temp>
<bpm>0</bpm>
<rpm>0.00</rpm>
</extensions>
</trkpt>
<trkpt lat="64.081977844" lon="-19.591068268">
<ele>367.390625</ele>
<time>2012-07-21T17:17:24Z</time>
<speed>0.020000</speed>
<extensions>
<speed>0.0</speed>
<temp>0.00</temp>
<bpm>0</bpm>
<rpm>0.00</rpm>
</extensions>
</trkpt>
<trkpt lat="64.081977844" lon="-19.591068268">
<ele>367.375000</ele>
<time>2012-07-21T17:17:29Z</time>
<speed>0.010000</speed>
<extensions>
<speed>0.0</speed>
<temp>0.00</temp>
<bpm>0</bpm>
<rpm>0.00</rpm>
</extensions>
</trkpt>
<trkpt lat="64.081977844" lon="-19.591068268">
<ele>367.382813</ele>
<time>2012-07-21T17:17:34Z</time>
<speed>0.010000</speed>
<extensions>
<speed>0.0</speed>
<temp>0.00</temp>
<bpm>0</bpm>
<rpm>0.00</rpm>
</extensions>
</trkpt>
<trkpt lat="64.081977844" lon="-19.591068268">
<ele>367.390625</ele>
<time>2012-07-21T17:17:39Z</time>
<extensions>
<speed>0.0</speed>
<temp>0.00</temp>
<bpm>0</bpm>
<rpm>0.00</rpm>
</extensions>
</trkpt>
<trkpt lat="64.081977844" lon="-19.591068268">
<ele>367.406250</ele>
<time>2012-07-21T17:17:44Z</time>
<extensions>
<speed>0.0</speed>
<temp>0.00</temp>
<bpm>0</bpm>
<rpm>0.00</rpm>
</extensions>
</trkpt>
<trkpt lat="64.081977844" lon="-19.591066360">
<ele>367.429688</ele>
<time>2012-07-21T17:17:49Z</time>
<extensions>
<speed>0.0</speed>
<temp>0.00</temp>
<bpm>0</bpm>
<rpm>0.00</rpm>
</extensions>
</trkpt>
<trkpt lat="64.081977844" lon="-19.591066360">
<ele>367.406250</ele>
<time>2012-07-21T17:17:54Z</time>
<extensions>
<speed>0.0</speed>
<temp>0.00</temp>
<bpm>0</bpm>
<rpm>0.00</rpm>
</extensions>
</trkpt>
<trkpt lat="64.081977844" lon="-19.591066360">
<ele>367.390625</ele>
<time>2012-07-21T17:17:59Z</time>
<extensions>
<speed>0.0</speed>
<temp>0.00</temp>
<bpm>0</bpm>
<rpm>0.00</rpm>
</extensions>
</trkpt>
<trkpt lat="64.081977844" lon="-19.591066360">
<ele>367.390625</ele>
<time>2012-07-21T17:18:04Z</time>
<extensions>
<speed>0.0</speed>
<temp>0.00</temp>
<bpm>0</bpm>
<rpm>0.00</rpm>
</extensions>
</trkpt>
<trkpt lat="64.081977844" lon="-19.591066360">
<ele>367.375000</ele>
<time>2012-07-21T17:18:09Z</time>
<speed>0.010000</speed>
<extensions>
<speed>0.0</speed>
<temp>0.00</temp>
<bpm>0</bpm>
<rpm>0.00</rpm>
</extensions>
</trkpt>
<trkpt lat="64.081977844" lon="-19.591066360">
<ele>367.398438</ele>
<time>2012-07-21T17:18:14Z</time>
<speed>0.020000</speed>
<extensions>
<speed>0.0</speed>
<temp>0.00</temp>
<bpm>0</bpm>
<rpm>0.00</rpm>
</extensions>
</trkpt>
<trkpt lat="64.081977844" lon="-19.591068268">
<ele>367.421875</ele>
<time>2012-07-21T17:18:19Z</time>
<speed>0.140000</speed>
<extensions>
<speed>0.1</speed>
<temp>0.00</temp>
<bpm>0</bpm>
<rpm>0.00</rpm>
</extensions>
</trkpt>
<trkpt lat="64.081962585" lon="-19.591163635">
<ele>368.039063</ele>
<time>2012-07-21T17:18:24Z</time>
<speed>1.330000</speed>
<extensions>
<speed>1.3</speed>
<temp>0.00</temp>
<bpm>0</bpm>
<rpm>0.00</rpm>
</extensions>
</trkpt>
<trkpt lat="64.081916809" lon="-19.591289520">
<ele>367.875000</ele>
<time>2012-07-21T17:18:29Z</time>
<speed>1.380000</speed>
<extensions>
<speed>1.4</speed>
<temp>0.00</temp>
<bpm>0</bpm>
<rpm>0.00</rpm>
</extensions>
</trkpt>
<trkpt lat="64.081878662" lon="-19.591373444">
<ele>367.250000</ele>
<time>2012-07-21T17:18:34Z</time>
<speed>0.610000</speed>
<extensions>
<speed>0.6</speed>
<temp>0.00</temp>
<bpm>0</bpm>
<rpm>0.00</rpm>
</extensions>
</trkpt>
<trkpt lat="64.081855774" lon="-19.591419220">
<ele>367.382813</ele>
<time>2012-07-21T17:18:39Z</time>
<speed>0.730000</speed>
<extensions>
<speed>0.7</speed>
<temp>0.00</temp>
<bpm>0</bpm>
<rpm>0.00</rpm>
</extensions>
</trkpt>
<trkpt lat="64.081817627" lon="-19.591447830">
<ele>366.515625</ele>
<time>2012-07-21T17:18:44Z</time>
<speed>1.120000</speed>
<extensions>
<speed>1.1</speed>
<temp>0.00</temp>
<bpm>0</bpm>
<rpm>0.00</rpm>
</extensions>
</trkpt>
<trkpt lat="64.081794739" lon="-19.591482162">
<ele>366.179688</ele>
<time>2012-07-21T17:18:49Z</time>
<speed>0.180000</speed>
<extensions>
<speed>0.2</speed>
<temp>0.00</temp>
<bpm>0</bpm>
<rpm>0.00</rpm>
</extensions>
</trkpt>
<trkpt lat="64.081787109" lon="-19.591501236">
<ele>366.664063</ele>
<time>2012-07-21T17:18:54Z</time>
<speed>0.010000</speed>
<extensions>
<speed>0.0</speed>
<temp>0.00</temp>
<bpm>0</bpm>
<rpm>0.00</rpm>
</extensions>
</trkpt>
<trkpt lat="64.081787109" lon="-19.591501236">
<ele>366.679688</ele>
<time>2012-07-21T17:18:59Z</time>
<speed>0.010000</speed>
<extensions>
<speed>0.0</speed>
<temp>0.00</temp>
<bpm>0</bpm>
<rpm>0.00</rpm>
</extensions>
</trkpt>
<trkpt lat="64.081787109" lon="-19.591501236">
<ele>366.687500</ele>
<time>2012-07-21T17:19:04Z</time>
<speed>0.030000</speed>
<extensions>
<speed>0.0</speed>
<temp>0.00</temp>
<bpm>0</bpm>
<rpm>0.00</rpm>
</extensions>
</trkpt>
<trkpt lat="64.081787109" lon="-19.591501236">
<ele>366.703125</ele>
<time>2012-07-21T17:19:09Z</time>
<extensions>
<speed>0.0</speed>
<temp>0.00</temp>
<bpm>0</bpm>
<rpm>0.00</rpm>
</extensions>
</trkpt>
<trkpt lat="64.081787109" lon="-19.591501236">
<ele>366.703125</ele>
<time>2012-07-21T17:19:14Z</time>
<extensions>
<speed>0.0</speed>
<temp>0.00</temp>
<bpm>0</bpm>
<rpm>0.00</rpm>
</extensions>
</trkpt>
<trkpt lat="64.081787109" lon="-19.591501236">
<ele>366.710938</ele>
<time>2012-07-21T17:19:19Z</time>
<speed>0.050000</speed>
<extensions>
<speed>0.1</speed>
<temp>0.00</temp>
<bpm>0</bpm>
<rpm>0.00</rpm>
</extensions>
</trkpt>
<trkpt lat="64.081787109" lon="-19.591510773">
<ele>366.804688</ele>
<time>2012-07-21T17:19:24Z</time>
<speed>0.330000</speed>
<extensions>
<speed>0.3</speed>
<temp>0.00</temp>
<bpm>0</bpm>
<rpm>0.00</rpm>
</extensions>
</trkpt>
<trkpt lat="64.081779480" lon="-19.591421127">
<ele>366.718750</ele>
<time>2012-07-21T17:19:29Z</time>
<speed>1.080000</speed>
<extensions>
<speed>1.1</speed>
<temp>0.00</temp>
<bpm>0</bpm>
<rpm>0.00</rpm>
</extensions>
</trkpt>
<trkpt lat="64.081771851" lon="-19.591314316">
<ele>366.093750</ele>
<time>2012-07-21T17:19:34Z</time>
<speed>0.360000</speed>
<extensions>
<speed>0.4</speed>
<temp>0.00</temp>
<bpm>0</bpm>
<rpm>0.00</rpm>
</extensions>
</trkpt>
<trkpt lat="64.081748962" lon="-19.591247559">
<ele>365.531250</ele>
<time>2012-07-21T17:19:39Z</time>
<speed>1.000000</speed>
<extensions>
<speed>1.0</speed>
<temp>0.00</temp>
<bpm>0</bpm>
<rpm>0.00</rpm>
</extensions>
</trkpt>
<trkpt lat="64.081726074" lon="-19.591182709">
<ele>365.718750</ele>
<time>2012-07-21T17:19:44Z</time>
<speed>1.050000</speed>
<extensions>
<speed>1.0</speed>
<temp>0.00</temp>
<bpm>0</bpm>
<rpm>0.00</rpm>
</extensions>
</trkpt>
<trkpt lat="64.081703186" lon="-19.591068268">
<ele>364.742188</ele>
<time>2012-07-21T17:19:49Z</time>
<speed>1.370000</speed>
<extensions>
<speed>1.4</speed>
<temp>0.00</temp>
<bpm>0</bpm>
<rpm>0.00</rpm>
</extensions>
</trkpt>
<trkpt lat="64.081680298" lon="-19.590963364">
<ele>364.648438</ele>
<time>2012-07-21T17:19:54Z</time>
<speed>1.040000</speed>
<extensions>
<speed>1.0</speed>
<temp>0.00</temp>
<bpm>0</bpm>
<rpm>0.00</rpm>
</extensions>
</trkpt>
<trkpt lat="64.081665039" lon="-19.590883255">
<ele>364.968750</ele>
<time>2012-07-21T17:19:59Z</time>
<speed>0.960000</speed>
<extensions>
<speed>1.0</speed>
<temp>0.00</temp>
<bpm>0</bpm>
<rpm>0.00</rpm>
</extensions>
</trkpt>
<trkpt lat="64.081642151" lon="-19.590806961">
<ele>364.984375</ele>
<time>2012-07-21T17:20:04Z</time>
<speed>0.990000</speed>
<extensions>
<speed>1.0</speed>
<temp>0.00</temp>
<bpm>0</bpm>
<rpm>0.00</rpm>
</extensions>
</trkpt>
<trkpt lat="64.081611633" lon="-19.590726852">
<ele>366.750000</ele>
<time>2012-07-21T17:20:09Z</time>
<speed>1.150000</speed>
<extensions>
<speed>1.1</speed>
<temp>0.00</temp>
<bpm>0</bpm>
<rpm>0.00</rpm>
</extensions>
</trkpt>
<trkpt lat="64.081596375" lon="-19.590625763">
<ele>368.484375</ele>
<time>2012-07-21T17:20:14Z</time>
<speed>1.110000</speed>
<extensions>
<speed>1.1</speed>
<temp>0.00</temp>
<bpm>0</bpm>
<rpm>0.00</rpm>
</extensions>
</trkpt>
<trkpt lat="64.081581116" lon="-19.590494156">
<ele>366.679688</ele>
<time>2012-07-21T17:20:19Z</time>
<speed>1.360000</speed>
<extensions>
<speed>1.4</speed>
<temp>0.00</temp>
<bpm>0</bpm>
<rpm>0.00</rpm>
</extensions>
</trkpt>
<trkpt lat="64.081565857" lon="-19.590362549">
<ele>366.257813</ele>
<time>2012-07-21T17:20:24Z</time>
<speed>1.410000</speed>
<extensions>
<speed>1.4</speed>
<temp>0.00</temp>
<bpm>0</bpm>
<rpm>0.00</rpm>
</extensions>
</trkpt>
<trkpt lat="64.081535339" lon="-19.590269089">
<ele>366.718750</ele>
<time>2012-07-21T17:20:29Z</time>
<speed>1.070000</speed>
<extensions>
<speed>1.1</speed>
<temp>0.00</temp>
<bpm>0</bpm>
<rpm>0.00</rpm>
</extensions>
</trkpt>
<trkpt lat="64.081520081" lon="-19.590154648">
<ele>366.750000</ele>
<time>2012-07-21T17:20:34Z</time>
<speed>1.180000</speed>
<extensions>
<speed>1.2</speed>
<temp>0.00</temp>
<bpm>0</bpm>
<rpm>0.00</rpm>
</extensions>
</trkpt>
<trkpt lat="64.081497192" lon="-19.590068817">
<ele>368.007813</ele>
<time>2012-07-21T17:20:39Z</time>
<speed>0.670000</speed>
<extensions>
<speed>0.7</speed>
<temp>0.00</temp>
<bpm>0</bpm>
<rpm>0.00</rpm>
</extensions>
</trkpt>
<trkpt lat="64.081474304" lon="-19.589984894">
<ele>369.632813</ele>
<time>2012-07-21T17:20:44Z</time>
<speed>0.880000</speed>
<extensions>
<speed>0.9</speed>
<temp>0.00</temp>
<bpm>0</bpm>
<rpm>0.00</rpm>
</extensions>
</trkpt>
<trkpt lat="64.081459045" lon="-19.589889526">
<ele>370.773438</ele>
<time>2012-07-21T17:20:49Z</time>
<speed>0.940000</speed>
<extensions>
<speed>0.9</speed>
<temp>0.00</temp>
<bpm>0</bpm>
<rpm>0.00</rpm>
</extensions>
</trkpt>
<trkpt lat="64.081443787" lon="-19.589799881">
<ele>370.828125</ele>
<time>2012-07-21T17:20:54Z</time>
<speed>1.070000</speed>
<extensions>
<speed>1.1</speed>
<temp>0.00</temp>
<bpm>0</bpm>
<rpm>0.00</rpm>
</extensions>
</trkpt>
<trkpt lat="64.081436157" lon="-19.589687347">
<ele>370.734375</ele>
<time>2012-07-21T17:20:59Z</time>
<speed>0.720000</speed>
<extensions>
<speed>0.7</speed>
<temp>0.00</temp>
<bpm>0</bpm>
<rpm>0.00</rpm>
</extensions>
</trkpt>
<trkpt lat="64.081420898" lon="-19.589605331">
<ele>370.687500</ele>
<time>2012-07-21T17:21:04Z</time>
<speed>1.040000</speed>
<extensions>
<speed>1.0</speed>
<temp>0.00</temp>
<bpm>0</bpm>
<rpm>0.00</rpm>
</extensions>
</trkpt>
<trkpt lat="64.081405640" lon="-19.589496613">
<ele>370.531250</ele>
<time>2012-07-21T17:21:09Z</time>
<speed>0.880000</speed>
<extensions>
<speed>0.9</speed>
<temp>0.00</temp>
<bpm>0</bpm>
<rpm>0.00</rpm>
</extensions>
</trkpt>
<trkpt lat="64.081398010" lon="-19.589391708">
<ele>370.710938</ele>
<time>2012-07-21T17:21:14Z</time>
<speed>1.230000</speed>
<extensions>
<speed>1.2</speed>
<temp>0.00</temp>
<bpm>0</bpm>
<rpm>0.00</rpm>
</extensions>
</trkpt>
<trkpt lat="64.081390381" lon="-19.589303970">
<ele>370.460938</ele>
<time>2012-07-21T17:21:19Z</time>
<speed>0.730000</speed>
<extensions>
<speed>0.7</speed>
<temp>0.00</temp>
<bpm>0</bpm>
<rpm>0.00</rpm>
</extensions>
</trkpt>
<trkpt lat="64.081382751" lon="-19.589187622">
<ele>370.148438</ele>
<time>2012-07-21T17:21:24Z</time>
<speed>1.130000</speed>
<extensions>
<speed>1.1</speed>
<temp>0.00</temp>
<bpm>0</bpm>
<rpm>0.00</rpm>
</extensions>
</trkpt>
<trkpt lat="64.081359863" lon="-19.589078903">
<ele>370.515625</ele>
<time>2012-07-21T17:21:29Z</time>
<speed>1.090000</speed>
<extensions>
<speed>1.1</speed>
<temp>0.00</temp>
<bpm>0</bpm>
<rpm>0.00</rpm>
</extensions>
</trkpt>
<trkpt lat="64.081352234" lon="-19.588962555">
<ele>369.367188</ele>
<time>2012-07-21T17:21:34Z</time>
<speed>1.290000</speed>
<extensions>
<speed>1.3</speed>
<temp>0.00</temp>
<bpm>0</bpm>
<rpm>0.00</rpm>
</extensions>
</trkpt>
<trkpt lat="64.081336975" lon="-19.588851929">
<ele>368.664063</ele>
<time>2012-07-21T17:21:39Z</time>
<speed>0.940000</speed>
<extensions>
<speed>0.9</speed>
<temp>0.00</temp>
<bpm>0</bpm>
<rpm>0.00</rpm>
</extensions>
</trkpt>
<trkpt lat="64.081321716" lon="-19.588745117">
<ele>368.648438</ele>
<time>2012-07-21T17:21:44Z</time>
<speed>1.030000</speed>
<extensions>
<speed>1.0</speed>
<temp>0.00</temp>
<bpm>0</bpm>
<rpm>0.00</rpm>
</extensions>
</trkpt>
<trkpt lat="64.081321716" lon="-19.588626862">
<ele>368.679688</ele>
<time>2012-07-21T17:21:49Z</time>
<speed>1.180000</speed>
<extensions>
<speed>1.2</speed>
<temp>0.00</temp>
<bpm>0</bpm>
<rpm>0.00</rpm>
</extensions>
</trkpt>
<trkpt lat="64.081306458" lon="-19.588502884">
<ele>369.859375</ele>
<time>2012-07-21T17:21:54Z</time>
<speed>1.160000</speed>
<extensions>
<speed>1.2</speed>
<temp>0.00</temp>
<bpm>0</bpm>
<rpm>0.00</rpm>
</extensions>
</trkpt>
<trkpt lat="64.081298828" lon="-19.588457108">
<ele>370.484375</ele>
<time>2012-07-21T17:21:59Z</time>
<speed>1.080000</speed>
<extensions>
<speed>1.1</speed>
<temp>0.00</temp>
<bpm>0</bpm>
<rpm>0.00</rpm>
</extensions>
</trkpt>
<trkpt lat="64.081283569" lon="-19.588331223">
<ele>369.445313</ele>
<time>2012-07-21T17:22:04Z</time>
<speed>1.080000</speed>
<extensions>
<speed>1.1</speed>
<temp>0.00</temp>
<bpm>0</bpm>
<rpm>0.00</rpm>
</extensions>
</trkpt>
<trkpt lat="64.081268311" lon="-19.588205338">
<ele>368.281250</ele>
<time>2012-07-21T17:22:09Z</time>
<speed>1.180000</speed>
<extensions>
<speed>1.2</speed>
<temp>0.00</temp>
<bpm>0</bpm>
<rpm>0.00</rpm>
</extensions>
</trkpt>
<trkpt lat="64.081253052" lon="-19.588098526">
<ele>368.015625</ele>
<time>2012-07-21T17:22:14Z</time>
<speed>1.200000</speed>
<extensions>
<speed>1.2</speed>
<temp>0.00</temp>
<bpm>0</bpm>
<rpm>0.00</rpm>
</extensions>
</trkpt>
<trkpt lat="64.081245422" lon="-19.587978363">
<ele>368.117188</ele>
<time>2012-07-21T17:22:19Z</time>
<speed>1.160000</speed>
<extensions>
<speed>1.2</speed>
<temp>0.00</temp>
<bpm>0</bpm>
<rpm>0.00</rpm>
</extensions>
</trkpt>
<trkpt lat="64.081245422" lon="-19.587865829">
<ele>368.484375</ele>
<time>2012-07-21T17:22:24Z</time>
<speed>1.150000</speed>
<extensions>
<speed>1.1</speed>
<temp>0.00</temp>
<bpm>0</bpm>
<rpm>0.00</rpm>
</extensions>
</trkpt>
<trkpt lat="64.081230164" lon="-19.587818146">
<ele>368.429688</ele>
<time>2012-07-21T17:22:29Z</time>
<speed>0.020000</speed>
<extensions>
<speed>0.0</speed>
<temp>0.00</temp>
<bpm>0</bpm>
<rpm>0.00</rpm>
</extensions>
</trkpt>
<trkpt lat="64.081214905" lon="-19.587709427">
<ele>367.203125</ele>
<time>2012-07-21T17:22:34Z</time>
<speed>1.160000</speed>
<extensions>
<speed>1.2</speed>
<temp>0.00</temp>
<bpm>0</bpm>
<rpm>0.00</rpm>
</extensions>
</trkpt>
<trkpt lat="64.081214905" lon="-19.587697983">
<ele>367.492188</ele>
<time>2012-07-21T17:22:39Z</time>
<speed>0.070000</speed>
<extensions>
<speed>0.1</speed>
<temp>0.00</temp>
<bpm>0</bpm>
<rpm>0.00</rpm>
</extensions>
</trkpt>
<trkpt lat="64.081207275" lon="-19.587591171">
<ele>366.976563</ele>
<time>2012-07-21T17:22:44Z</time>
<speed>2.050000</speed>
<extensions>
<speed>2.1</speed>
<temp>0.00</temp>
<bpm>0</bpm>
<rpm>0.00</rpm>
</extensions>
</trkpt>
<trkpt lat="64.081207275" lon="-19.587326050">
<ele>365.539063</ele>
<time>2012-07-21T17:22:49Z</time>
<speed>2.730000</speed>
<extensions>
<speed>2.7</speed>
<temp>0.00</temp>
<bpm>0</bpm>
<rpm>0.00</rpm>
</extensions>
</trkpt>
<trkpt lat="64.081199646" lon="-19.587076187">
<ele>363.789063</ele>
<time>2012-07-21T17:22:54Z</time>
<speed>2.500000</speed>
<extensions>
<speed>2.5</speed>
<temp>0.00</temp>
<bpm>0</bpm>
<rpm>0.00</rpm>
</extensions>
</trkpt>
<trkpt lat="64.081199646" lon="-19.586862564">
<ele>363.187500</ele>
<time>2012-07-21T17:22:59Z</time>
<speed>2.120000</speed>
<extensions>
<speed>2.1</speed>
<temp>0.00</temp>
<bpm>0</bpm>
<rpm>0.00</rpm>
</extensions>
</trkpt>
<trkpt lat="64.081192017" lon="-19.586633682">
<ele>362.570313</ele>
<time>2012-07-21T17:23:04Z</time>
<speed>2.000000</speed>
<extensions>
<speed>2.0</speed>
<temp>0.00</temp>
<bpm>0</bpm>
<rpm>0.00</rpm>
</extensions>
</trkpt>
<trkpt lat="64.081192017" lon="-19.586433411">
<ele>362.773438</ele>
<time>2012-07-21T17:23:09Z</time>
<speed>1.960000</speed>
<extensions>
<speed>2.0</speed>
<temp>0.00</temp>
<bpm>0</bpm>
<rpm>0.00</rpm>
</extensions>
</trkpt>
<trkpt lat="64.081192017" lon="-19.586221695">
<ele>362.710938</ele>
<time>2012-07-21T17:23:14Z</time>
<speed>1.750000</speed>
<extensions>
<speed>1.8</speed>
<temp>0.00</temp>
<bpm>0</bpm>
<rpm>0.00</rpm>
</extensions>
</trkpt>
<trkpt lat="64.081176758" lon="-19.586044312">
<ele>362.851563</ele>
<time>2012-07-21T17:23:19Z</time>
<speed>1.960000</speed>
<extensions>
<speed>2.0</speed>
<temp>0.00</temp>
<bpm>0</bpm>
<rpm>0.00</rpm>
</extensions>
</trkpt>
<trkpt lat="64.081169128" lon="-19.585834503">
<ele>363.070313</ele>
<time>2012-07-21T17:23:24Z</time>
<speed>2.020000</speed>
<extensions>
<speed>2.0</speed>
<temp>0.00</temp>
<bpm>0</bpm>
<rpm>0.00</rpm>
</extensions>
</trkpt>
<trkpt lat="64.081161499" lon="-19.585653305">
<ele>363.609375</ele>
<time>2012-07-21T17:23:29Z</time>
<speed>1.590000</speed>
<extensions>
<speed>1.6</speed>
<temp>0.00</temp>
<bpm>0</bpm>
<rpm>0.00</rpm>
</extensions>
</trkpt>
<trkpt lat="64.081146240" lon="-19.585487366">
<ele>363.773438</ele>
<time>2012-07-21T17:23:34Z</time>
<speed>0.650000</speed>
<extensions>
<speed>0.6</speed>
<temp>0.00</temp>
<bpm>0</bpm>
<rpm>0.00</rpm>
</extensions>
</trkpt>
<trkpt lat="64.081146240" lon="-19.585487366">
<ele>362.859375</ele>
<time>2012-07-21T17:23:39Z</time>
<speed>0.030000</speed>
<extensions>
<speed>0.0</speed>
<temp>0.00</temp>
<bpm>0</bpm>
<rpm>0.00</rpm>
</extensions>
</trkpt>
<trkpt lat="64.081153870" lon="-19.585508347">
<ele>362.796875</ele>
<time>2012-07-21T17:23:44Z</time>
<speed>0.230000</speed>
<extensions>
<speed>0.2</speed>
<temp>0.00</temp>
<bpm>0</bpm>
<rpm>0.00</rpm>
</extensions>
</trkpt>
<trkpt lat="64.081153870" lon="-19.585487366">
<ele>362.492188</ele>
<time>2012-07-21T17:23:49Z</time>
<speed>1.140000</speed>
<extensions>
<speed>1.1</speed>
<temp>0.00</temp>
<bpm>0</bpm>
<rpm>0.00</rpm>
</extensions>
</trkpt>
<trkpt lat="64.081146240" lon="-19.585393906">
<ele>362.140625</ele>
<time>2012-07-21T17:23:54Z</time>
<speed>1.110000</speed>
<extensions>
<speed>1.1</speed>
<temp>0.00</temp>
<bpm>0</bpm>
<rpm>0.00</rpm>
</extensions>
</trkpt>
<trkpt lat="64.081130981" lon="-19.585285187">
<ele>361.515625</ele>
<time>2012-07-21T17:23:59Z</time>
<speed>1.050000</speed>
<extensions>
<speed>1.0</speed>
<temp>0.00</temp>
<bpm>0</bpm>
<rpm>0.00</rpm>
</extensions>
</trkpt>
<trkpt lat="64.081115723" lon="-19.585172653">
<ele>361.585938</ele>
<time>2012-07-21T17:24:04Z</time>
<speed>1.100000</speed>
<extensions>
<speed>1.1</speed>
<temp>0.00</temp>
<bpm>0</bpm>
<rpm>0.00</rpm>
</extensions>
</trkpt>
<trkpt lat="64.081115723" lon="-19.585056305">
<ele>361.835938</ele>
<time>2012-07-21T17:24:09Z</time>
<speed>1.030000</speed>
<extensions>
<speed>1.0</speed>
<temp>0.00</temp>
<bpm>0</bpm>
<rpm>0.00</rpm>
</extensions>
</trkpt>
<trkpt lat="64.081108093" lon="-19.584947586">
<ele>362.523438</ele>
<time>2012-07-21T17:24:14Z</time>
<speed>1.170000</speed>
<extensions>
<speed>1.2</speed>
<temp>0.00</temp>
<bpm>0</bpm>
<rpm>0.00</rpm>
</extensions>
</trkpt>
<trkpt lat="64.081108093" lon="-19.584838867">
<ele>363.109375</ele>
<time>2012-07-21T17:24:19Z</time>
<speed>0.800000</speed>
<extensions>
<speed>0.8</speed>
<temp>0.00</temp>
<bpm>0</bpm>
<rpm>0.00</rpm>
</extensions>
</trkpt>
<trkpt lat="64.081108093" lon="-19.584777832">
<ele>363.226563</ele>
<time>2012-07-21T17:24:24Z</time>
<speed>0.390000</speed>
<extensions>
<speed>0.4</speed>
<temp>0.00</temp>
<bpm>0</bpm>
<rpm>0.00</rpm>
</extensions>
</trkpt>
<trkpt lat="64.081092834" lon="-19.584682465">
<ele>363.351563</ele>
<time>2012-07-21T17:24:29Z</time>
<speed>1.170000</speed>
<extensions>
<speed>1.2</speed>
<temp>0.00</temp>
<bpm>0</bpm>
<rpm>0.00</rpm>
</extensions>
</trkpt>
<trkpt lat="64.081100464" lon="-19.584569931">
<ele>363.296875</ele>
<time>2012-07-21T17:24:34Z</time>
<speed>1.060000</speed>
<extensions>
<speed>1.1</speed>
<temp>0.00</temp>
<bpm>0</bpm>
<rpm>0.00</rpm>
</extensions>
</trkpt>
<trkpt lat="64.081100464" lon="-19.584466934">
<ele>363.453125</ele>
<time>2012-07-21T17:24:39Z</time>
<speed>1.280000</speed>
<extensions>
<speed>1.3</speed>
<temp>0.00</temp>
<bpm>0</bpm>
<rpm>0.00</rpm>
</extensions>
</trkpt>
<trkpt lat="64.081085205" lon="-19.584337234">
<ele>362.726563</ele>
<time>2012-07-21T17:24:44Z</time>
<speed>1.150000</speed>
<extensions>
<speed>1.1</speed>
<temp>0.00</temp>
<bpm>0</bpm>
<rpm>0.00</rpm>
</extensions>
</trkpt>
<trkpt lat="64.081085205" lon="-19.584209442">
<ele>362.703125</ele>
<time>2012-07-21T17:24:49Z</time>
<speed>1.210000</speed>
<extensions>
<speed>1.2</speed>
<temp>0.00</temp>
<bpm>0</bpm>
<rpm>0.00</rpm>
</extensions>
</trkpt>
<trkpt lat="64.081069946" lon="-19.584091187">
<ele>362.679688</ele>
<time>2012-07-21T17:24:54Z</time>
<speed>1.230000</speed>
<extensions>
<speed>1.2</speed>
<temp>0.00</temp>
<bpm>0</bpm>
<rpm>0.00</rpm>
</extensions>
</trkpt>
<trkpt lat="64.081077576" lon="-19.583982468">
<ele>362.734375</ele>
<time>2012-07-21T17:24:59Z</time>
<speed>1.240000</speed>
<extensions>
<speed>1.2</speed>
<temp>0.00</temp>
<bpm>0</bpm>
<rpm>0.00</rpm>
</extensions>
</trkpt>
<trkpt lat="64.081077576" lon="-19.583898544">
<ele>362.695313</ele>
<time>2012-07-21T17:25:04Z</time>
<speed>0.770000</speed>
<extensions>
<speed>0.8</speed>
<temp>0.00</temp>
<bpm>0</bpm>
<rpm>0.00</rpm>
</extensions>
</trkpt>
<trkpt lat="64.081077576" lon="-19.583866119">
<ele>362.734375</ele>
<time>2012-07-21T17:25:09Z</time>
<speed>0.190000</speed>
<extensions>
<speed>0.2</speed>
<temp>0.00</temp>
<bpm>0</bpm>
<rpm>0.00</rpm>
</extensions>
</trkpt>
<trkpt lat="64.081077576" lon="-19.583787918">
<ele>363.023438</ele>
<time>2012-07-21T17:25:14Z</time>
<speed>1.140000</speed>
<extensions>
<speed>1.1</speed>
<temp>0.00</temp>
<bpm>0</bpm>
<rpm>0.00</rpm>
</extensions>
</trkpt>
<trkpt lat="64.081085205" lon="-19.583677292">
<ele>363.320313</ele>
<time>2012-07-21T17:25:19Z</time>
<speed>1.060000</speed>
<extensions>
<speed>1.1</speed>
<temp>0.00</temp>
<bpm>0</bpm>
<rpm>0.00</rpm>
</extensions>
</trkpt>
<trkpt lat="64.081085205" lon="-19.583564758">
<ele>363.789063</ele>
<time>2012-07-21T17:25:24Z</time>
<speed>1.130000</speed>
<extensions>
<speed>1.1</speed>
<temp>0.00</temp>
<bpm>0</bpm>
<rpm>0.00</rpm>
</extensions>
</trkpt>
<trkpt lat="64.081069946" lon="-19.583440781">
<ele>363.312500</ele>
<time>2012-07-21T17:25:29Z</time>
<speed>1.320000</speed>
<extensions>
<speed>1.3</speed>
<temp>0.00</temp>
<bpm>0</bpm>
<rpm>0.00</rpm>
</extensions>
</trkpt>
<trkpt lat="64.081077576" lon="-19.583309174">
<ele>363.578125</ele>
<time>2012-07-21T17:25:34Z</time>
<speed>1.280000</speed>
<extensions>
<speed>1.3</speed>
<temp>0.00</temp>
<bpm>0</bpm>
<rpm>0.00</rpm>
</extensions>
</trkpt>
<trkpt lat="64.081077576" lon="-19.583168030">
<ele>363.312500</ele>
<time>2012-07-21T17:25:39Z</time>
<speed>1.210000</speed>
<extensions>
<speed>1.2</speed>
<temp>0.00</temp>
<bpm>0</bpm>
<rpm>0.00</rpm>
</extensions>
</trkpt>
<trkpt lat="64.081069946" lon="-19.583122253">
<ele>363.156250</ele>
<time>2012-07-21T17:25:44Z</time>
<extensions>
<speed>0.0</speed>
<temp>0.00</temp>
<bpm>0</bpm>
<rpm>0.00</rpm>
</extensions>
</trkpt>
<trkpt lat="64.081069946" lon="-19.583051682">
<ele>363.234375</ele>
<time>2012-07-21T17:25:49Z</time>
<speed>1.210000</speed>
<extensions>
<speed>1.2</speed>
<temp>0.00</temp>
<bpm>0</bpm>
<rpm>0.00</rpm>
</extensions>
</trkpt>
<trkpt lat="64.081077576" lon="-19.582916260">
<ele>363.585938</ele>
<time>2012-07-21T17:25:54Z</time>
<speed>1.270000</speed>
<extensions>
<speed>1.3</speed>
<temp>0.00</temp>
<bpm>0</bpm>
<rpm>0.00</rpm>
</extensions>
</trkpt>
<trkpt lat="64.081077576" lon="-19.582784653">
<ele>363.375000</ele>
<time>2012-07-21T17:25:59Z</time>
<speed>1.270000</speed>
<extensions>
<speed>1.3</speed>
<temp>0.00</temp>
<bpm>0</bpm>
<rpm>0.00</rpm>
</extensions>
</trkpt>
<trkpt lat="64.081085205" lon="-19.582672119">
<ele>363.648438</ele>
<time>2012-07-21T17:26:04Z</time>
<speed>1.280000</speed>
<extensions>
<speed>1.3</speed>
<temp>0.00</temp>
<bpm>0</bpm>
<rpm>0.00</rpm>
</extensions>
</trkpt>
<trkpt lat="64.081085205" lon="-19.582546234">
<ele>363.375000</ele>
<time>2012-07-21T17:26:09Z</time>
<speed>1.080000</speed>
<extensions>
<speed>1.1</speed>
<temp>0.00</temp>
<bpm>0</bpm>
<rpm>0.00</rpm>
</extensions>
</trkpt>
<trkpt lat="64.081085205" lon="-19.582431793">
<ele>363.523438</ele>
<time>2012-07-21T17:26:14Z</time>
<speed>1.050000</speed>
<extensions>
<speed>1.0</speed>
<temp>0.00</temp>
<bpm>0</bpm>
<rpm>0.00</rpm>
</extensions>
</trkpt>
<trkpt lat="64.081085205" lon="-19.582305908">
<ele>363.171875</ele>
<time>2012-07-21T17:26:19Z</time>
<speed>0.900000</speed>
<extensions>
<speed>0.9</speed>
<temp>0.00</temp>
<bpm>0</bpm>
<rpm>0.00</rpm>
</extensions>
</trkpt>
<trkpt lat="64.081092834" lon="-19.582191467">
<ele>362.671875</ele>
<time>2012-07-21T17:26:24Z</time>
<speed>1.150000</speed>
<extensions>
<speed>1.1</speed>
<temp>0.00</temp>
<bpm>0</bpm>
<rpm>0.00</rpm>
</extensions>
</trkpt>
<trkpt lat="64.081100464" lon="-19.582086563">
<ele>362.695313</ele>
<time>2012-07-21T17:26:29Z</time>
<speed>0.860000</speed>
<extensions>
<speed>0.9</speed>
<temp>0.00</temp>
<bpm>0</bpm>
<rpm>0.00</rpm>
</extensions>
</trkpt>
<trkpt lat="64.081115723" lon="-19.581983566">
<ele>362.679688</ele>
<time>2012-07-21T17:26:34Z</time>
<speed>0.820000</speed>
<extensions>
<speed>0.8</speed>
<temp>0.00</temp>
<bpm>0</bpm>
<rpm>0.00</rpm>
</extensions>
</trkpt>
<trkpt lat="64.081123352" lon="-19.581983566">
<ele>362.523438</ele>
<time>2012-07-21T17:26:39Z</time>
<speed>0.060000</speed>
<extensions>
<speed>0.1</speed>
<temp>0.00</temp>
<bpm>0</bpm>
<rpm>0.00</rpm>
</extensions>
</trkpt>
<trkpt lat="64.081123352" lon="-19.581943512">
<ele>362.406250</ele>
<time>2012-07-21T17:26:44Z</time>
<speed>0.020000</speed>
<extensions>
<speed>0.0</speed>
<temp>0.00</temp>
<bpm>0</bpm>
<rpm>0.00</rpm>
</extensions>
</trkpt>
<trkpt lat="64.081123352" lon="-19.581941605">
<ele>362.570313</ele>
<time>2012-07-21T17:26:49Z</time>
<speed>0.030000</speed>
<extensions>
<speed>0.0</speed>
<temp>0.00</temp>
<bpm>0</bpm>
<rpm>0.00</rpm>
</extensions>
</trkpt>
<trkpt lat="64.081123352" lon="-19.581939697">
<ele>362.570313</ele>
<time>2012-07-21T17:26:54Z</time>
<extensions>
<speed>0.0</speed>
<temp>0.00</temp>
<bpm>0</bpm>
<rpm>0.00</rpm>
</extensions>
</trkpt>
<trkpt lat="64.081123352" lon="-19.581922531">
<ele>362.718750</ele>
<time>2012-07-21T17:26:59Z</time>
<speed>0.840000</speed>
<extensions>
<speed>0.8</speed>
<temp>0.00</temp>
<bpm>0</bpm>
<rpm>0.00</rpm>
</extensions>
</trkpt>
<trkpt lat="64.081138611" lon="-19.581798553">
<ele>363.085938</ele>
<time>2012-07-21T17:27:04Z</time>
<speed>1.340000</speed>
<extensions>
<speed>1.3</speed>
<temp>0.00</temp>
<bpm>0</bpm>
<rpm>0.00</rpm>
</extensions>
</trkpt>
<trkpt lat="64.081146240" lon="-19.581682205">
<ele>363.476563</ele>
<time>2012-07-21T17:27:09Z</time>
<speed>1.180000</speed>
<extensions>
<speed>1.2</speed>
<temp>0.00</temp>
<bpm>0</bpm>
<rpm>0.00</rpm>
</extensions>
</trkpt>
<trkpt lat="64.081169128" lon="-19.581562042">
<ele>363.187500</ele>
<time>2012-07-21T17:27:14Z</time>
<speed>1.370000</speed>
<extensions>
<speed>1.4</speed>
<temp>0.00</temp>
<bpm>0</bpm>
<rpm>0.00</rpm>
</extensions>
</trkpt>
<trkpt lat="64.081199646" lon="-19.581443787">
<ele>363.054688</ele>
<time>2012-07-21T17:27:19Z</time>
<speed>1.380000</speed>
<extensions>
<speed>1.4</speed>
<temp>0.00</temp>
<bpm>0</bpm>
<rpm>0.00</rpm>
</extensions>
</trkpt>
<trkpt lat="64.081222534" lon="-19.581369400">
<ele>362.632813</ele>
<time>2012-07-21T17:27:24Z</time>
<speed>0.490000</speed>
<extensions>
<speed>0.5</speed>
<temp>0.00</temp>
<bpm>0</bpm>
<rpm>0.00</rpm>
</extensions>
</trkpt>
<trkpt lat="64.081245422" lon="-19.581306458">
<ele>362.859375</ele>
<time>2012-07-21T17:27:29Z</time>
<speed>1.210000</speed>
<extensions>
<speed>1.2</speed>
<temp>0.00</temp>
<bpm>0</bpm>
<rpm>0.00</rpm>
</extensions>
</trkpt>
<trkpt lat="64.081283569" lon="-19.581201553">
<ele>362.851563</ele>
<time>2012-07-21T17:27:34Z</time>
<speed>1.160000</speed>
<extensions>
<speed>1.2</speed>
<temp>0.00</temp>
<bpm>0</bpm>
<rpm>0.00</rpm>
</extensions>
</trkpt>
<trkpt lat="64.081314087" lon="-19.581100464">
<ele>363.257813</ele>
<time>2012-07-21T17:27:39Z</time>
<speed>1.060000</speed>
<extensions>
<speed>1.1</speed>
<temp>0.00</temp>
<bpm>0</bpm>
<rpm>0.00</rpm>
</extensions>
</trkpt>
<trkpt lat="64.081344604" lon="-19.581027985">
<ele>363.468750</ele>
<time>2012-07-21T17:27:44Z</time>
<speed>1.370000</speed>
<extensions>
<speed>1.4</speed>
<temp>0.00</temp>
<bpm>0</bpm>
<rpm>0.00</rpm>
</extensions>
</trkpt>
<trkpt lat="64.081382751" lon="-19.580930710">
<ele>363.515625</ele>
<time>2012-07-21T17:27:49Z</time>
<speed>1.480000</speed>
<extensions>
<speed>1.5</speed>
<temp>0.00</temp>
<bpm>0</bpm>
<rpm>0.00</rpm>
</extensions>
</trkpt>
<trkpt lat="64.081390381" lon="-19.580898285">
<ele>364.007813</ele>
<time>2012-07-21T17:27:54Z</time>
<speed>0.060000</speed>
<extensions>
<speed>0.1</speed>
<temp>0.00</temp>
<bpm>0</bpm>
<rpm>0.00</rpm>
</extensions>
</trkpt>
<trkpt lat="64.081398010" lon="-19.580896378">
<ele>364.210938</ele>
<time>2012-07-21T17:27:59Z</time>
<speed>0.180000</speed>
<extensions>
<speed>0.2</speed>
<temp>0.00</temp>
<bpm>0</bpm>
<rpm>0.00</rpm>
</extensions>
</trkpt>
<trkpt lat="64.081405640" lon="-19.580896378">
<ele>364.484375</ele>
<time>2012-07-21T17:28:04Z</time>
<speed>0.080000</speed>
<extensions>
<speed>0.1</speed>
<temp>0.00</temp>
<bpm>0</bpm>
<rpm>0.00</rpm>
</extensions>
</trkpt>
<trkpt lat="64.081413269" lon="-19.580894470">
<ele>364.757813</ele>
<time>2012-07-21T17:28:09Z</time>
<speed>0.050000</speed>
<extensions>
<speed>0.1</speed>
<temp>0.00</temp>
<bpm>0</bpm>
<rpm>0.00</rpm>
</extensions>
</trkpt>
<trkpt lat="64.081413269" lon="-19.580892563">
<ele>364.945313</ele>
<time>2012-07-21T17:28:14Z</time>
<extensions>
<speed>0.0</speed>
<temp>0.00</temp>
<bpm>0</bpm>
<rpm>0.00</rpm>
</extensions>
</trkpt>
<trkpt lat="64.081413269" lon="-19.580894470">
<ele>365.039063</ele>
<time>2012-07-21T17:28:19Z</time>
<speed>0.030000</speed>
<extensions>
<speed>0.0</speed>
<temp>0.00</temp>
<bpm>0</bpm>
<rpm>0.00</rpm>
</extensions>
</trkpt>
<trkpt lat="64.081413269" lon="-19.580894470">
<ele>365.054688</ele>
<time>2012-07-21T17:28:24Z</time>
<speed>0.010000</speed>
<extensions>
<speed>0.0</speed>
<temp>0.00</temp>
<bpm>0</bpm>
<rpm>0.00</rpm>
</extensions>
</trkpt>
<trkpt lat="64.081413269" lon="-19.580894470">
<ele>365.054688</ele>
<time>2012-07-21T17:28:29Z</time>
<speed>0.010000</speed>
<extensions>
<speed>0.0</speed>
<temp>0.00</temp>
<bpm>0</bpm>
<rpm>0.00</rpm>
</extensions>
</trkpt>
<trkpt lat="64.081413269" lon="-19.580894470">
<ele>365.062500</ele>
<time>2012-07-21T17:28:34Z</time>
<speed>0.030000</speed>
<extensions>
<speed>0.0</speed>
<temp>0.00</temp>
<bpm>0</bpm>
<rpm>0.00</rpm>
</extensions>
</trkpt>
<trkpt lat="64.081413269" lon="-19.580894470">
<ele>365.054688</ele>
<time>2012-07-21T17:28:39Z</time>
<speed>0.010000</speed>
<extensions>
<speed>0.0</speed>
<temp>0.00</temp>
<bpm>0</bpm>
<rpm>0.00</rpm>
</extensions>
</trkpt>
<trkpt lat="64.081413269" lon="-19.580894470">
<ele>365.039063</ele>
<time>2012-07-21T17:28:44Z</time>
<extensions>
<speed>0.0</speed>
<temp>0.00</temp>
<bpm>0</bpm>
<rpm>0.00</rpm>
</extensions>
</trkpt>
<trkpt lat="64.081413269" lon="-19.580894470">
<ele>365.023438</ele>
<time>2012-07-21T17:28:49Z</time>
<speed>0.010000</speed>
<extensions>
<speed>0.0</speed>
<temp>0.00</temp>
<bpm>0</bpm>
<rpm>0.00</rpm>
</extensions>
</trkpt>
<trkpt lat="64.081413269" lon="-19.580894470">
<ele>365.007813</ele>
<time>2012-07-21T17:28:54Z</time>
<extensions>
<speed>0.0</speed>
<temp>0.00</temp>
<bpm>0</bpm>
<rpm>0.00</rpm>
</extensions>
</trkpt>
<trkpt lat="64.081413269" lon="-19.580894470">
<ele>365.023438</ele>
<time>2012-07-21T17:28:59Z</time>
<speed>0.090000</speed>
<extensions>
<speed>0.1</speed>
<temp>0.00</temp>
<bpm>0</bpm>
<rpm>0.00</rpm>
</extensions>
</trkpt>
<trkpt lat="64.081443787" lon="-19.580839157">
<ele>365.046875</ele>
<time>2012-07-21T17:29:04Z</time>
<speed>1.390000</speed>
<extensions>
<speed>1.4</speed>
<temp>0.00</temp>
<bpm>0</bpm>
<rpm>0.00</rpm>
</extensions>
</trkpt>
<trkpt lat="64.081512451" lon="-19.580728531">
<ele>365.718750</ele>
<time>2012-07-21T17:29:09Z</time>
<speed>1.440000</speed>
<extensions>
<speed>1.4</speed>
<temp>0.00</temp>
<bpm>0</bpm>
<rpm>0.00</rpm>
</extensions>
</trkpt>
<trkpt lat="64.081558228" lon="-19.580600739">
<ele>365.601563</ele>
<time>2012-07-21T17:29:14Z</time>
<speed>1.570000</speed>
<extensions>
<speed>1.6</speed>
<temp>0.00</temp>
<bpm>0</bpm>
<rpm>0.00</rpm>
</extensions>
</trkpt>
<trkpt lat="64.081596375" lon="-19.580484390">
<ele>364.914063</ele>
<time>2012-07-21T17:29:19Z</time>
<speed>1.540000</speed>
<extensions>
<speed>1.5</speed>
<temp>0.00</temp>
<bpm>0</bpm>
<rpm>0.00</rpm>
</extensions>
</trkpt>
<trkpt lat="64.081665039" lon="-19.580389023">
<ele>365.218750</ele>
<time>2012-07-21T17:29:24Z</time>
<speed>1.470000</speed>
<extensions>
<speed>1.5</speed>
<temp>0.00</temp>
<bpm>0</bpm>
<rpm>0.00</rpm>
</extensions>
</trkpt>
<trkpt lat="64.081695557" lon="-19.580348969">
<ele>365.835938</ele>
<time>2012-07-21T17:29:29Z</time>
<speed>0.750000</speed>
<extensions>
<speed>0.8</speed>
<temp>0.00</temp>
<bpm>0</bpm>
<rpm>0.00</rpm>
</extensions>
</trkpt>
<trkpt lat="64.081756592" lon="-19.580253601">
<ele>366.171875</ele>
<time>2012-07-21T17:29:34Z</time>
<speed>2.140000</speed>
<extensions>
<speed>2.1</speed>
<temp>0.00</temp>
<bpm>0</bpm>
<rpm>0.00</rpm>
</extensions>
</trkpt>
<trkpt lat="64.081855774" lon="-19.580087662">
<ele>366.500000</ele>
<time>2012-07-21T17:29:39Z</time>
<speed>2.850000</speed>
<extensions>
<speed>2.9</speed>
<temp>0.00</temp>
<bpm>0</bpm>
<rpm>0.00</rpm>
</extensions>
</trkpt>
<trkpt lat="64.081977844" lon="-19.579923630">
<ele>364.875000</ele>
<time>2012-07-21T17:29:44Z</time>
<speed>2.930000</speed>
<extensions>
<speed>2.9</speed>
<temp>0.00</temp>
<bpm>0</bpm>
<rpm>0.00</rpm>
</extensions>
</trkpt>
<trkpt lat="64.082069397" lon="-19.579826355">
<ele>363.718750</ele>
<time>2012-07-21T17:29:49Z</time>
<speed>2.230000</speed>
<extensions>
<speed>2.2</speed>
<temp>0.00</temp>
<bpm>0</bpm>
<rpm>0.00</rpm>
</extensions>
</trkpt>
<trkpt lat="64.082176208" lon="-19.579664230">
<ele>364.390625</ele>
<time>2012-07-21T17:29:54Z</time>
<speed>2.710000</speed>
<extensions>
<speed>2.7</speed>
<temp>0.00</temp>
<bpm>0</bpm>
<rpm>0.00</rpm>
</extensions>
</trkpt>
<trkpt lat="64.082275391" lon="-19.579524994">
<ele>364.476563</ele>
<time>2012-07-21T17:29:59Z</time>
<speed>2.530000</speed>
<extensions>
<speed>2.5</speed>
<temp>0.00</temp>
<bpm>0</bpm>
<rpm>0.00</rpm>
</extensions>
</trkpt>
<trkpt lat="64.082366943" lon="-19.579404831">
<ele>364.437500</ele>
<time>2012-07-21T17:30:04Z</time>
<speed>2.800000</speed>
<extensions>
<speed>2.8</speed>
<temp>0.00</temp>
<bpm>0</bpm>
<rpm>0.00</rpm>
</extensions>
</trkpt>
<trkpt lat="64.082473755" lon="-19.579240799">
<ele>365.054688</ele>
<time>2012-07-21T17:30:09Z</time>
<speed>3.170000</speed>
<extensions>
<speed>3.2</speed>
<temp>0.00</temp>
<bpm>0</bpm>
<rpm>0.00</rpm>
</extensions>
</trkpt>
<trkpt lat="64.082588196" lon="-19.579090118">
<ele>365.945313</ele>
<time>2012-07-21T17:30:14Z</time>
<speed>2.530000</speed>
<extensions>
<speed>2.5</speed>
<temp>0.00</temp>
<bpm>0</bpm>
<rpm>0.00</rpm>
</extensions>
</trkpt>
<trkpt lat="64.082695007" lon="-19.578939438">
<ele>367.460938</ele>
<time>2012-07-21T17:30:19Z</time>
<speed>2.910000</speed>
<extensions>
<speed>2.9</speed>
<temp>0.00</temp>
<bpm>0</bpm>
<rpm>0.00</rpm>
</extensions>
</trkpt>
<trkpt lat="64.082786560" lon="-19.578767776">
<ele>367.531250</ele>
<time>2012-07-21T17:30:24Z</time>
<speed>2.850000</speed>
<extensions>
<speed>2.9</speed>
<temp>0.00</temp>
<bpm>0</bpm>
<rpm>0.00</rpm>
</extensions>
</trkpt>
<trkpt lat="64.082908630" lon="-19.578611374">
<ele>368.828125</ele>
<time>2012-07-21T17:30:29Z</time>
<speed>3.480000</speed>
<extensions>
<speed>3.5</speed>
<temp>0.00</temp>
<bpm>0</bpm>
<rpm>0.00</rpm>
</extensions>
</trkpt>
<trkpt lat="64.083015442" lon="-19.578424454">
<ele>367.171875</ele>
<time>2012-07-21T17:30:34Z</time>
<speed>2.920000</speed>
<extensions>
<speed>2.9</speed>
<temp>0.00</temp>
<bpm>0</bpm>
<rpm>0.00</rpm>
</extensions>
</trkpt>
<trkpt lat="64.083145142" lon="-19.578252792">
<ele>367.593750</ele>
<time>2012-07-21T17:30:39Z</time>
<speed>3.160000</speed>
<extensions>
<speed>3.2</speed>
<temp>0.00</temp>
<bpm>0</bpm>
<rpm>0.00</rpm>
</extensions>
</trkpt>
<trkpt lat="64.083259583" lon="-19.578037262">
<ele>367.460938</ele>
<time>2012-07-21T17:30:44Z</time>
<speed>3.170000</speed>
<extensions>
<speed>3.2</speed>
<temp>0.00</temp>
<bpm>0</bpm>
<rpm>0.00</rpm>
</extensions>
</trkpt>
<trkpt lat="64.083328247" lon="-19.577854156">
<ele>365.039063</ele>
<time>2012-07-21T17:30:49Z</time>
<speed>2.380000</speed>
<extensions>
<speed>2.4</speed>
<temp>0.00</temp>
<bpm>0</bpm>
<rpm>0.00</rpm>
</extensions>
</trkpt>
<trkpt lat="64.083396912" lon="-19.577667236">
<ele>364.648438</ele>
<time>2012-07-21T17:30:54Z</time>
<speed>2.040000</speed>
<extensions>
<speed>2.0</speed>
<temp>0.00</temp>
<bpm>0</bpm>
<rpm>0.00</rpm>
</extensions>
</trkpt>
<trkpt lat="64.083450317" lon="-19.577514648">
<ele>363.789063</ele>
<time>2012-07-21T17:30:59Z</time>
<speed>2.120000</speed>
<extensions>
<speed>2.1</speed>
<temp>0.00</temp>
<bpm>0</bpm>
<rpm>0.00</rpm>
</extensions>
</trkpt>
<trkpt lat="64.083511353" lon="-19.577320099">
<ele>363.078125</ele>
<time>2012-07-21T17:31:04Z</time>
<speed>2.050000</speed>
<extensions>
<speed>2.1</speed>
<temp>0.00</temp>
<bpm>0</bpm>
<rpm>0.00</rpm>
</extensions>
</trkpt>
<trkpt lat="64.083541870" lon="-19.577180862">
<ele>362.765625</ele>
<time>2012-07-21T17:31:09Z</time>
<speed>1.600000</speed>
<extensions>
<speed>1.6</speed>
<temp>0.00</temp>
<bpm>0</bpm>
<rpm>0.00</rpm>
</extensions>
</trkpt>
<trkpt lat="64.083587646" lon="-19.577047348">
<ele>362.187500</ele>
<time>2012-07-21T17:31:14Z</time>
<speed>1.820000</speed>
<extensions>
<speed>1.8</speed>
<temp>0.00</temp>
<bpm>0</bpm>
<rpm>0.00</rpm>
</extensions>
</trkpt>
<trkpt lat="64.083625793" lon="-19.576887131">
<ele>361.960938</ele>
<time>2012-07-21T17:31:19Z</time>
<speed>1.860000</speed>
<extensions>
<speed>1.9</speed>
<temp>0.00</temp>
<bpm>0</bpm>
<rpm>0.00</rpm>
</extensions>
</trkpt>
<trkpt lat="64.083663940" lon="-19.576715469">
<ele>361.835938</ele>
<time>2012-07-21T17:31:24Z</time>
<speed>2.030000</speed>
<extensions>
<speed>2.0</speed>
<temp>0.00</temp>
<bpm>0</bpm>
<rpm>0.00</rpm>
</extensions>
</trkpt>
<trkpt lat="64.083694458" lon="-19.576519012">
<ele>361.718750</ele>
<time>2012-07-21T17:31:29Z</time>
<speed>2.040000</speed>
<extensions>
<speed>2.0</speed>
<temp>0.00</temp>
<bpm>0</bpm>
<rpm>0.00</rpm>
</extensions>
</trkpt>
<trkpt lat="64.083732605" lon="-19.576328278">
<ele>361.648438</ele>
<time>2012-07-21T17:31:34Z</time>
<speed>1.720000</speed>
<extensions>
<speed>1.7</speed>
<temp>0.00</temp>
<bpm>0</bpm>
<rpm>0.00</rpm>
</extensions>
</trkpt>
<trkpt lat="64.083763123" lon="-19.576150894">
<ele>361.265625</ele>
<time>2012-07-21T17:31:39Z</time>
<speed>1.780000</speed>
<extensions>
<speed>1.8</speed>
<temp>0.00</temp>
<bpm>0</bpm>
<rpm>0.00</rpm>
</extensions>
</trkpt>
<trkpt lat="64.083793640" lon="-19.575986862">
<ele>361.109375</ele>
<time>2012-07-21T17:31:44Z</time>
<speed>1.730000</speed>
<extensions>
<speed>1.7</speed>
<temp>0.00</temp>
<bpm>0</bpm>
<rpm>0.00</rpm>
</extensions>
</trkpt>
<trkpt lat="64.083808899" lon="-19.575839996">
<ele>361.015625</ele>
<time>2012-07-21T17:31:49Z</time>
<speed>1.720000</speed>
<extensions>
<speed>1.7</speed>
<temp>0.00</temp>
<bpm>0</bpm>
<rpm>0.00</rpm>
</extensions>
</trkpt>
<trkpt lat="64.083839417" lon="-19.575677872">
<ele>361.054688</ele>
<time>2012-07-21T17:31:54Z</time>
<speed>1.790000</speed>
<extensions>
<speed>1.8</speed>
<temp>0.00</temp>
<bpm>0</bpm>
<rpm>0.00</rpm>
</extensions>
</trkpt>
<trkpt lat="64.083877563" lon="-19.575508118">
<ele>361.031250</ele>
<time>2012-07-21T17:31:59Z</time>
<speed>1.800000</speed>
<extensions>
<speed>1.8</speed>
<temp>0.00</temp>
<bpm>0</bpm>
<rpm>0.00</rpm>
</extensions>
</trkpt>
<trkpt lat="64.083900452" lon="-19.575351715">
<ele>361.390625</ele>
<time>2012-07-21T17:32:04Z</time>
<speed>1.740000</speed>
<extensions>
<speed>1.7</speed>
<temp>0.00</temp>
<bpm>0</bpm>
<rpm>0.00</rpm>
</extensions>
</trkpt>
<trkpt lat="64.083938599" lon="-19.575178146">
<ele>361.375000</ele>
<time>2012-07-21T17:32:09Z</time>
<speed>1.870000</speed>
<extensions>
<speed>1.9</speed>
<temp>0.00</temp>
<bpm>0</bpm>
<rpm>0.00</rpm>
</extensions>
</trkpt>
<trkpt lat="64.083976746" lon="-19.574993134">
<ele>361.507813</ele>
<time>2012-07-21T17:32:14Z</time>
<speed>1.900000</speed>
<extensions>
<speed>1.9</speed>
<temp>0.00</temp>
<bpm>0</bpm>
<rpm>0.00</rpm>
</extensions>
</trkpt>
<trkpt lat="64.084014893" lon="-19.574796677">
<ele>361.851563</ele>
<time>2012-07-21T17:32:19Z</time>
<speed>1.870000</speed>
<extensions>
<speed>1.9</speed>
<temp>0.00</temp>
<bpm>0</bpm>
<rpm>0.00</rpm>
</extensions>
</trkpt>
<trkpt lat="64.084053040" lon="-19.574588776">
<ele>361.367188</ele>
<time>2012-07-21T17:32:24Z</time>
<speed>2.200000</speed>
<extensions>
<speed>2.2</speed>
<temp>0.00</temp>
<bpm>0</bpm>
<rpm>0.00</rpm>
</extensions>
</trkpt>
<trkpt lat="64.084091187" lon="-19.574375153">
<ele>361.289063</ele>
<time>2012-07-21T17:32:29Z</time>
<speed>2.250000</speed>
<extensions>
<speed>2.3</speed>
<temp>0.00</temp>
<bpm>0</bpm>
<rpm>0.00</rpm>
</extensions>
</trkpt>
<trkpt lat="64.084144592" lon="-19.574180603">
<ele>361.515625</ele>
<time>2012-07-21T17:32:34Z</time>
<speed>2.250000</speed>
<extensions>
<speed>2.3</speed>
<temp>0.00</temp>
<bpm>0</bpm>
<rpm>0.00</rpm>
</extensions>
</trkpt>
<trkpt lat="64.084175110" lon="-19.573974609">
<ele>361.632813</ele>
<time>2012-07-21T17:32:39Z</time>
<speed>2.160000</speed>
<extensions>
<speed>2.2</speed>
<temp>0.00</temp>
<bpm>0</bpm>
<rpm>0.00</rpm>
</extensions>
</trkpt>
<trkpt lat="64.084213257" lon="-19.573762894">
<ele>361.421875</ele>
<time>2012-07-21T17:32:44Z</time>
<speed>2.090000</speed>
<extensions>
<speed>2.1</speed>
<temp>0.00</temp>
<bpm>0</bpm>
<rpm>0.00</rpm>
</extensions>
</trkpt>
<trkpt lat="64.084236145" lon="-19.573568344">
<ele>361.296875</ele>
<time>2012-07-21T17:32:49Z</time>
<speed>1.890000</speed>
<extensions>
<speed>1.9</speed>
<temp>0.00</temp>
<bpm>0</bpm>
<rpm>0.00</rpm>
</extensions>
</trkpt>
<trkpt lat="64.084266663" lon="-19.573354721">
<ele>360.726563</ele>
<time>2012-07-21T17:32:54Z</time>
<speed>2.210000</speed>
<extensions>
<speed>2.2</speed>
<temp>0.00</temp>
<bpm>0</bpm>
<rpm>0.00</rpm>
</extensions>
</trkpt>
<trkpt lat="64.084304810" lon="-19.573152542">
<ele>360.914063</ele>
<time>2012-07-21T17:32:59Z</time>
<speed>2.160000</speed>
<extensions>
<speed>2.2</speed>
<temp>0.00</temp>
<bpm>0</bpm>
<rpm>0.00</rpm>
</extensions>
</trkpt>
<trkpt lat="64.084335327" lon="-19.572969437">
<ele>360.828125</ele>
<time>2012-07-21T17:33:04Z</time>
<speed>1.930000</speed>
<extensions>
<speed>1.9</speed>
<temp>0.00</temp>
<bpm>0</bpm>
<rpm>0.00</rpm>
</extensions>
</trkpt>
<trkpt lat="64.084365845" lon="-19.572769165">
<ele>360.593750</ele>
<time>2012-07-21T17:33:09Z</time>
<speed>2.090000</speed>
<extensions>
<speed>2.1</speed>
<temp>0.00</temp>
<bpm>0</bpm>
<rpm>0.00</rpm>
</extensions>
</trkpt>
<trkpt lat="64.084403992" lon="-19.572565079">
<ele>360.195313</ele>
<time>2012-07-21T17:33:14Z</time>
<speed>2.040000</speed>
<extensions>
<speed>2.0</speed>
<temp>0.00</temp>
<bpm>0</bpm>
<rpm>0.00</rpm>
</extensions>
</trkpt>
<trkpt lat="64.084434509" lon="-19.572360992">
<ele>360.250000</ele>
<time>2012-07-21T17:33:19Z</time>
<speed>2.120000</speed>
<extensions>
<speed>2.1</speed>
<temp>0.00</temp>
<bpm>0</bpm>
<rpm>0.00</rpm>
</extensions>
</trkpt>
<trkpt lat="64.084442139" lon="-19.572156906">
<ele>360.750000</ele>
<time>2012-07-21T17:33:24Z</time>
<speed>2.120000</speed>
<extensions>
<speed>2.1</speed>
<temp>0.00</temp>
<bpm>0</bpm>
<rpm>0.00</rpm>
</extensions>
</trkpt>
<trkpt lat="64.084472656" lon="-19.571928024">
<ele>360.656250</ele>
<time>2012-07-21T17:33:29Z</time>
<speed>2.320000</speed>
<extensions>
<speed>2.3</speed>
<temp>0.00</temp>
<bpm>0</bpm>
<rpm>0.00</rpm>
</extensions>
</trkpt>
<trkpt lat="64.084510803" lon="-19.571722031">
<ele>360.695313</ele>
<time>2012-07-21T17:33:34Z</time>
<speed>2.110000</speed>
<extensions>
<speed>2.1</speed>
<temp>0.00</temp>
<bpm>0</bpm>
<rpm>0.00</rpm>
</extensions>
</trkpt>
<trkpt lat="64.084518433" lon="-19.571519852">
<ele>361.500000</ele>
<time>2012-07-21T17:33:39Z</time>
<speed>1.840000</speed>
<extensions>
<speed>1.8</speed>
<temp>0.00</temp>
<bpm>0</bpm>
<rpm>0.00</rpm>
</extensions>
</trkpt>
<trkpt lat="64.084541321" lon="-19.571357727">
<ele>361.656250</ele>
<time>2012-07-21T17:33:44Z</time>
<speed>1.580000</speed>
<extensions>
<speed>1.6</speed>
<temp>0.00</temp>
<bpm>0</bpm>
<rpm>0.00</rpm>
</extensions>
</trkpt>
<trkpt lat="64.084556580" lon="-19.571193695">
<ele>361.734375</ele>
<time>2012-07-21T17:33:49Z</time>
<speed>1.690000</speed>
<extensions>
<speed>1.7</speed>
<temp>0.00</temp>
<bpm>0</bpm>
<rpm>0.00</rpm>
</extensions>
</trkpt>
<trkpt lat="64.084571838" lon="-19.571008682">
<ele>361.218750</ele>
<time>2012-07-21T17:33:54Z</time>
<speed>1.770000</speed>
<extensions>
<speed>1.8</speed>
<temp>0.00</temp>
<bpm>0</bpm>
<rpm>0.00</rpm>
</extensions>
</trkpt>
<trkpt lat="64.084587097" lon="-19.570848465">
<ele>361.203125</ele>
<time>2012-07-21T17:33:59Z</time>
<speed>1.740000</speed>
<extensions>
<speed>1.7</speed>
<temp>0.00</temp>
<bpm>0</bpm>
<rpm>0.00</rpm>
</extensions>
</trkpt>
<trkpt lat="64.084594727" lon="-19.570674896">
<ele>361.117188</ele>
<time>2012-07-21T17:34:04Z</time>
<speed>1.690000</speed>
<extensions>
<speed>1.7</speed>
<temp>0.00</temp>
<bpm>0</bpm>
<rpm>0.00</rpm>
</extensions>
</trkpt>
<trkpt lat="64.084609985" lon="-19.570510864">
<ele>360.796875</ele>
<time>2012-07-21T17:34:09Z</time>
<speed>1.580000</speed>
<extensions>
<speed>1.6</speed>
<temp>0.00</temp>
<bpm>0</bpm>
<rpm>0.00</rpm>
</extensions>
</trkpt>
<trkpt lat="64.084632874" lon="-19.570343018">
<ele>360.671875</ele>
<time>2012-07-21T17:34:14Z</time>
<speed>1.480000</speed>
<extensions>
<speed>1.5</speed>
<temp>0.00</temp>
<bpm>0</bpm>
<rpm>0.00</rpm>
</extensions>
</trkpt>
<trkpt lat="64.084648132" lon="-19.570232391">
<ele>360.546875</ele>
<time>2012-07-21T17:34:19Z</time>
<speed>1.400000</speed>
<extensions>
<speed>1.4</speed>
<temp>0.00</temp>
<bpm>0</bpm>
<rpm>0.00</rpm>
</extensions>
</trkpt>
<trkpt lat="64.084678650" lon="-19.570089340">
<ele>361.101563</ele>
<time>2012-07-21T17:34:24Z</time>
<speed>1.550000</speed>
<extensions>
<speed>1.5</speed>
<temp>0.00</temp>
<bpm>0</bpm>
<rpm>0.00</rpm>
</extensions>
</trkpt>
<trkpt lat="64.084686279" lon="-19.569980621">
<ele>361.218750</ele>
<time>2012-07-21T17:34:29Z</time>
<speed>1.160000</speed>
<extensions>
<speed>1.2</speed>
<temp>0.00</temp>
<bpm>0</bpm>
<rpm>0.00</rpm>
</extensions>
</trkpt>
<trkpt lat="64.084709167" lon="-19.569843292">
<ele>361.320313</ele>
<time>2012-07-21T17:34:34Z</time>
<speed>1.370000</speed>
<extensions>
<speed>1.4</speed>
<temp>0.00</temp>
<bpm>0</bpm>
<rpm>0.00</rpm>
</extensions>
</trkpt>
<trkpt lat="64.084724426" lon="-19.569746017">
<ele>361.585938</ele>
<time>2012-07-21T17:34:39Z</time>
<speed>1.270000</speed>
<extensions>
<speed>1.3</speed>
<temp>0.00</temp>
<bpm>0</bpm>
<rpm>0.00</rpm>
</extensions>
</trkpt>
<trkpt lat="64.084716797" lon="-19.569597244">
<ele>361.523438</ele>
<time>2012-07-21T17:34:44Z</time>
<speed>1.330000</speed>
<extensions>
<speed>1.3</speed>
<temp>0.00</temp>
<bpm>0</bpm>
<rpm>0.00</rpm>
</extensions>
</trkpt>
<trkpt lat="64.084709167" lon="-19.569438934">
<ele>362.093750</ele>
<time>2012-07-21T17:34:49Z</time>
<speed>1.480000</speed>
<extensions>
<speed>1.5</speed>
<temp>0.00</temp>
<bpm>0</bpm>
<rpm>0.00</rpm>
</extensions>
</trkpt>
<trkpt lat="64.084709167" lon="-19.569316864">
<ele>362.460938</ele>
<time>2012-07-21T17:34:54Z</time>
<speed>1.150000</speed>
<extensions>
<speed>1.1</speed>
<temp>0.00</temp>
<bpm>0</bpm>
<rpm>0.00</rpm>
</extensions>
</trkpt>
<trkpt lat="64.084686279" lon="-19.569301605">
<ele>362.562500</ele>
<time>2012-07-21T17:34:59Z</time>
<speed>0.080000</speed>
<extensions>
<speed>0.1</speed>
<temp>0.00</temp>
<bpm>0</bpm>
<rpm>0.00</rpm>
</extensions>
</trkpt>
<trkpt lat="64.084693909" lon="-19.569314957">
<ele>362.195313</ele>
<time>2012-07-21T17:35:04Z</time>
<speed>0.290000</speed>
<extensions>
<speed>0.3</speed>
<temp>0.00</temp>
<bpm>0</bpm>
<rpm>0.00</rpm>
</extensions>
</trkpt>
<trkpt lat="64.084693909" lon="-19.569263458">
<ele>361.109375</ele>
<time>2012-07-21T17:35:09Z</time>
<speed>0.930000</speed>
<extensions>
<speed>0.9</speed>
<temp>0.00</temp>
<bpm>0</bpm>
<rpm>0.00</rpm>
</extensions>
</trkpt>
<trkpt lat="64.084716797" lon="-19.569187164">
<ele>360.421875</ele>
<time>2012-07-21T17:35:14Z</time>
<speed>0.860000</speed>
<extensions>
<speed>0.9</speed>
<temp>0.00</temp>
<bpm>0</bpm>
<rpm>0.00</rpm>
</extensions>
</trkpt>
<trkpt lat="64.084716797" lon="-19.569091797">
<ele>360.218750</ele>
<time>2012-07-21T17:35:19Z</time>
<speed>0.960000</speed>
<extensions>
<speed>1.0</speed>
<temp>0.00</temp>
<bpm>0</bpm>
<rpm>0.00</rpm>
</extensions>
</trkpt>
<trkpt lat="64.084701538" lon="-19.569015503">
<ele>360.171875</ele>
<time>2012-07-21T17:35:24Z</time>
<speed>0.660000</speed>
<extensions>
<speed>0.7</speed>
<temp>0.00</temp>
<bpm>0</bpm>
<rpm>0.00</rpm>
</extensions>
</trkpt>
<trkpt lat="64.084693909" lon="-19.568923950">
<ele>359.968750</ele>
<time>2012-07-21T17:35:29Z</time>
<speed>0.840000</speed>
<extensions>
<speed>0.8</speed>
<temp>0.00</temp>
<bpm>0</bpm>
<rpm>0.00</rpm>
</extensions>
</trkpt>
<trkpt lat="64.084701538" lon="-19.568834305">
<ele>359.882813</ele>
<time>2012-07-21T17:35:34Z</time>
<speed>0.870000</speed>
<extensions>
<speed>0.9</speed>
<temp>0.00</temp>
<bpm>0</bpm>
<rpm>0.00</rpm>
</extensions>
</trkpt>
<trkpt lat="64.084693909" lon="-19.568723679">
<ele>360.304688</ele>
<time>2012-07-21T17:35:39Z</time>
<speed>1.010000</speed>
<extensions>
<speed>1.0</speed>
<temp>0.00</temp>
<bpm>0</bpm>
<rpm>0.00</rpm>
</extensions>
</trkpt>
<trkpt lat="64.084693909" lon="-19.568653107">
<ele>360.914063</ele>
<time>2012-07-21T17:35:44Z</time>
<speed>0.770000</speed>
<extensions>
<speed>0.8</speed>
<temp>0.00</temp>
<bpm>0</bpm>
<rpm>0.00</rpm>
</extensions>
</trkpt>
<trkpt lat="64.084693909" lon="-19.568582535">
<ele>361.734375</ele>
<time>2012-07-21T17:35:49Z</time>
<speed>0.850000</speed>
<extensions>
<speed>0.8</speed>
<temp>0.00</temp>
<bpm>0</bpm>
<rpm>0.00</rpm>
</extensions>
</trkpt>
<trkpt lat="64.084686279" lon="-19.568471909">
<ele>362.476563</ele>
<time>2012-07-21T17:35:54Z</time>
<speed>1.140000</speed>
<extensions>
<speed>1.1</speed>
<temp>0.00</temp>
<bpm>0</bpm>
<rpm>0.00</rpm>
</extensions>
</trkpt>
<trkpt lat="64.084671021" lon="-19.568370819">
<ele>363.242188</ele>
<time>2012-07-21T17:35:59Z</time>
<speed>1.200000</speed>
<extensions>
<speed>1.2</speed>
<temp>0.00</temp>
<bpm>0</bpm>
<rpm>0.00</rpm>
</extensions>
</trkpt>
<trkpt lat="64.084678650" lon="-19.568313599">
<ele>364.039063</ele>
<time>2012-07-21T17:36:04Z</time>
<speed>0.030000</speed>
<extensions>
<speed>0.0</speed>
<temp>0.00</temp>
<bpm>0</bpm>
<rpm>0.00</rpm>
</extensions>
</trkpt>
<trkpt lat="64.084686279" lon="-19.568243027">
<ele>363.843750</ele>
<time>2012-07-21T17:36:09Z</time>
<speed>0.870000</speed>
<extensions>
<speed>0.9</speed>
<temp>0.00</temp>
<bpm>0</bpm>
<rpm>0.00</rpm>
</extensions>
</trkpt>
<trkpt lat="64.084686279" lon="-19.568105698">
<ele>363.734375</ele>
<time>2012-07-21T17:36:14Z</time>
<speed>0.950000</speed>
<extensions>
<speed>1.0</speed>
<temp>0.00</temp>
<bpm>0</bpm>
<rpm>0.00</rpm>
</extensions>
</trkpt>
<trkpt lat="64.084678650" lon="-19.567995071">
<ele>363.843750</ele>
<time>2012-07-21T17:36:19Z</time>
<speed>1.060000</speed>
<extensions>
<speed>1.1</speed>
<temp>0.00</temp>
<bpm>0</bpm>
<rpm>0.00</rpm>
</extensions>
</trkpt>
<trkpt lat="64.084678650" lon="-19.567884445">
<ele>364.062500</ele>
<time>2012-07-21T17:36:24Z</time>
<speed>1.140000</speed>
<extensions>
<speed>1.1</speed>
<temp>0.00</temp>
<bpm>0</bpm>
<rpm>0.00</rpm>
</extensions>
</trkpt>
<trkpt lat="64.084678650" lon="-19.567783356">
<ele>364.484375</ele>
<time>2012-07-21T17:36:29Z</time>
<speed>1.300000</speed>
<extensions>
<speed>1.3</speed>
<temp>0.00</temp>
<bpm>0</bpm>
<rpm>0.00</rpm>
</extensions>
</trkpt>
<trkpt lat="64.084678650" lon="-19.567674637">
<ele>363.664063</ele>
<time>2012-07-21T17:36:34Z</time>
<speed>0.870000</speed>
<extensions>
<speed>0.9</speed>
<temp>0.00</temp>
<bpm>0</bpm>
<rpm>0.00</rpm>
</extensions>
</trkpt>
<trkpt lat="64.084693909" lon="-19.567558289">
<ele>364.484375</ele>
<time>2012-07-21T17:36:39Z</time>
<speed>1.450000</speed>
<extensions>
<speed>1.4</speed>
<temp>0.00</temp>
<bpm>0</bpm>
<rpm>0.00</rpm>
</extensions>
</trkpt>
<trkpt lat="64.084693909" lon="-19.567512512">
<ele>364.554688</ele>
<time>2012-07-21T17:36:44Z</time>
<speed>0.090000</speed>
<extensions>
<speed>0.1</speed>
<temp>0.00</temp>
<bpm>0</bpm>
<rpm>0.00</rpm>
</extensions>
</trkpt>
<trkpt lat="64.084693909" lon="-19.567512512">
<ele>364.148438</ele>
<time>2012-07-21T17:36:49Z</time>
<speed>0.070000</speed>
<extensions>
<speed>0.1</speed>
<temp>0.00</temp>
<bpm>0</bpm>
<rpm>0.00</rpm>
</extensions>
</trkpt>
<trkpt lat="64.084693909" lon="-19.567461014">
<ele>364.312500</ele>
<time>2012-07-21T17:36:54Z</time>
<speed>0.820000</speed>
<extensions>
<speed>0.8</speed>
<temp>0.00</temp>
<bpm>0</bpm>
<rpm>0.00</rpm>
</extensions>
</trkpt>
<trkpt lat="64.084693909" lon="-19.567358017">
<ele>364.945313</ele>
<time>2012-07-21T17:36:59Z</time>
<speed>1.110000</speed>
<extensions>
<speed>1.1</speed>
<temp>0.00</temp>
<bpm>0</bpm>
<rpm>0.00</rpm>
</extensions>
</trkpt>
<trkpt lat="64.084686279" lon="-19.567232132">
<ele>364.234375</ele>
<time>2012-07-21T17:37:04Z</time>
<speed>0.940000</speed>
<extensions>
<speed>0.9</speed>
<temp>0.00</temp>
<bpm>0</bpm>
<rpm>0.00</rpm>
</extensions>
</trkpt>
<trkpt lat="64.084686279" lon="-19.567127228">
<ele>365.140625</ele>
<time>2012-07-21T17:37:09Z</time>
<speed>1.080000</speed>
<extensions>
<speed>1.1</speed>
<temp>0.00</temp>
<bpm>0</bpm>
<rpm>0.00</rpm>
</extensions>
</trkpt>
<trkpt lat="64.084693909" lon="-19.566991806">
<ele>365.976563</ele>
<time>2012-07-21T17:37:14Z</time>
<speed>1.320000</speed>
<extensions>
<speed>1.3</speed>
<temp>0.00</temp>
<bpm>0</bpm>
<rpm>0.00</rpm>
</extensions>
</trkpt>
<trkpt lat="64.084701538" lon="-19.566917419">
<ele>365.171875</ele>
<time>2012-07-21T17:37:19Z</time>
<speed>0.440000</speed>
<extensions>
<speed>0.4</speed>
<temp>0.00</temp>
<bpm>0</bpm>
<rpm>0.00</rpm>
</extensions>
</trkpt>
<trkpt lat="64.084693909" lon="-19.566801071">
<ele>365.000000</ele>
<time>2012-07-21T17:37:24Z</time>
<speed>1.100000</speed>
<extensions>
<speed>1.1</speed>
<temp>0.00</temp>
<bpm>0</bpm>
<rpm>0.00</rpm>
</extensions>
</trkpt>
<trkpt lat="64.084686279" lon="-19.566701889">
<ele>364.812500</ele>
<time>2012-07-21T17:37:29Z</time>
<speed>0.990000</speed>
<extensions>
<speed>1.0</speed>
<temp>0.00</temp>
<bpm>0</bpm>
<rpm>0.00</rpm>
</extensions>
</trkpt>
<trkpt lat="64.084686279" lon="-19.566591263">
<ele>364.625000</ele>
<time>2012-07-21T17:37:34Z</time>
<speed>1.160000</speed>
<extensions>
<speed>1.2</speed>
<temp>0.00</temp>
<bpm>0</bpm>
<rpm>0.00</rpm>
</extensions>
</trkpt>
<trkpt lat="64.084678650" lon="-19.566474915">
<ele>364.734375</ele>
<time>2012-07-21T17:37:39Z</time>
<speed>1.100000</speed>
<extensions>
<speed>1.1</speed>
<temp>0.00</temp>
<bpm>0</bpm>
<rpm>0.00</rpm>
</extensions>
</trkpt>
<trkpt lat="64.084686279" lon="-19.566366196">
<ele>364.640625</ele>
<time>2012-07-21T17:37:44Z</time>
<speed>1.140000</speed>
<extensions>
<speed>1.1</speed>
<temp>0.00</temp>
<bpm>0</bpm>
<rpm>0.00</rpm>
</extensions>
</trkpt>
<trkpt lat="64.084693909" lon="-19.566259384">
<ele>364.687500</ele>
<time>2012-07-21T17:37:49Z</time>
<speed>0.930000</speed>
<extensions>
<speed>0.9</speed>
<temp>0.00</temp>
<bpm>0</bpm>
<rpm>0.00</rpm>
</extensions>
</trkpt>
<trkpt lat="64.084686279" lon="-19.566148758">
<ele>364.078125</ele>
<time>2012-07-21T17:37:54Z</time>
<speed>1.070000</speed>
<extensions>
<speed>1.1</speed>
<temp>0.00</temp>
<bpm>0</bpm>
<rpm>0.00</rpm>
</extensions>
</trkpt>
<trkpt lat="64.084678650" lon="-19.566049576">
<ele>363.156250</ele>
<time>2012-07-21T17:37:59Z</time>
<speed>0.940000</speed>
<extensions>
<speed>0.9</speed>
<temp>0.00</temp>
<bpm>0</bpm>
<rpm>0.00</rpm>
</extensions>
</trkpt>
<trkpt lat="64.084678650" lon="-19.565952301">
<ele>363.187500</ele>
<time>2012-07-21T17:38:04Z</time>
<speed>0.510000</speed>
<extensions>
<speed>0.5</speed>
<temp>0.00</temp>
<bpm>0</bpm>
<rpm>0.00</rpm>
</extensions>
</trkpt>
<trkpt lat="64.084678650" lon="-19.565879822">
<ele>363.046875</ele>
<time>2012-07-21T17:38:09Z</time>
<speed>0.980000</speed>
<extensions>
<speed>1.0</speed>
<temp>0.00</temp>
<bpm>0</bpm>
<rpm>0.00</rpm>
</extensions>
</trkpt>
<trkpt lat="64.084671021" lon="-19.565776825">
<ele>361.812500</ele>
<time>2012-07-21T17:38:14Z</time>
<speed>1.110000</speed>
<extensions>
<speed>1.1</speed>
<temp>0.00</temp>
<bpm>0</bpm>
<rpm>0.00</rpm>
</extensions>
</trkpt>
<trkpt lat="64.084678650" lon="-19.565689087">
<ele>361.859375</ele>
<time>2012-07-21T17:38:19Z</time>
<speed>0.980000</speed>
<extensions>
<speed>1.0</speed>
<temp>0.00</temp>
<bpm>0</bpm>
<rpm>0.00</rpm>
</extensions>
</trkpt>
<trkpt lat="64.084678650" lon="-19.565584183">
<ele>361.500000</ele>
<time>2012-07-21T17:38:24Z</time>
<speed>0.960000</speed>
<extensions>
<speed>1.0</speed>
<temp>0.00</temp>
<bpm>0</bpm>
<rpm>0.00</rpm>
</extensions>
</trkpt>
<trkpt lat="64.084678650" lon="-19.565471649">
<ele>362.023438</ele>
<time>2012-07-21T17:38:29Z</time>
<speed>1.060000</speed>
<extensions>
<speed>1.1</speed>
<temp>0.00</temp>
<bpm>0</bpm>
<rpm>0.00</rpm>
</extensions>
</trkpt>
<trkpt lat="64.084678650" lon="-19.565372467">
<ele>362.484375</ele>
<time>2012-07-21T17:38:34Z</time>
<speed>1.050000</speed>
<extensions>
<speed>1.0</speed>
<temp>0.00</temp>
<bpm>0</bpm>
<rpm>0.00</rpm>
</extensions>
</trkpt>
<trkpt lat="64.084678650" lon="-19.565254211">
<ele>362.335938</ele>
<time>2012-07-21T17:38:39Z</time>
<speed>1.180000</speed>
<extensions>
<speed>1.2</speed>
<temp>0.00</temp>
<bpm>0</bpm>
<rpm>0.00</rpm>
</extensions>
</trkpt>
<trkpt lat="64.084693909" lon="-19.565176010">
<ele>362.187500</ele>
<time>2012-07-21T17:38:44Z</time>
<speed>0.830000</speed>
<extensions>
<speed>0.8</speed>
<temp>0.00</temp>
<bpm>0</bpm>
<rpm>0.00</rpm>
</extensions>
</trkpt>
<trkpt lat="64.084701538" lon="-19.565109253">
<ele>363.726563</ele>
<time>2012-07-21T17:38:49Z</time>
<speed>0.570000</speed>
<extensions>
<speed>0.6</speed>
<temp>0.00</temp>
<bpm>0</bpm>
<rpm>0.00</rpm>
</extensions>
</trkpt>
<trkpt lat="64.084693909" lon="-19.565006256">
<ele>364.507813</ele>
<time>2012-07-21T17:38:54Z</time>
<speed>0.850000</speed>
<extensions>
<speed>0.8</speed>
<temp>0.00</temp>
<bpm>0</bpm>
<rpm>0.00</rpm>
</extensions>
</trkpt>
<trkpt lat="64.084678650" lon="-19.564897537">
<ele>364.601563</ele>
<time>2012-07-21T17:38:59Z</time>
<speed>0.980000</speed>
<extensions>
<speed>1.0</speed>
<temp>0.00</temp>
<bpm>0</bpm>
<rpm>0.00</rpm>
</extensions>
</trkpt>
<trkpt lat="64.084686279" lon="-19.564786911">
<ele>365.265625</ele>
<time>2012-07-21T17:39:04Z</time>
<speed>1.040000</speed>
<extensions>
<speed>1.0</speed>
<temp>0.00</temp>
<bpm>0</bpm>
<rpm>0.00</rpm>
</extensions>
</trkpt>
<trkpt lat="64.084686279" lon="-19.564682007">
<ele>363.765625</ele>
<time>2012-07-21T17:39:09Z</time>
<speed>0.980000</speed>
<extensions>
<speed>1.0</speed>
<temp>0.00</temp>
<bpm>0</bpm>
<rpm>0.00</rpm>
</extensions>
</trkpt>
<trkpt lat="64.084678650" lon="-19.564580917">
<ele>363.671875</ele>
<time>2012-07-21T17:39:14Z</time>
<speed>0.930000</speed>
<extensions>
<speed>0.9</speed>
<temp>0.00</temp>
<bpm>0</bpm>
<rpm>0.00</rpm>
</extensions>
</trkpt>
<trkpt lat="64.084686279" lon="-19.564477921">
<ele>363.945313</ele>
<time>2012-07-21T17:39:19Z</time>
<speed>1.140000</speed>
<extensions>
<speed>1.1</speed>
<temp>0.00</temp>
<bpm>0</bpm>
<rpm>0.00</rpm>
</extensions>
</trkpt>
<trkpt lat="64.084678650" lon="-19.564363480">
<ele>363.812500</ele>
<time>2012-07-21T17:39:24Z</time>
<speed>0.910000</speed>
<extensions>
<speed>0.9</speed>
<temp>0.00</temp>
<bpm>0</bpm>
<rpm>0.00</rpm>
</extensions>
</trkpt>
<trkpt lat="64.084693909" lon="-19.564260483">
<ele>364.429688</ele>
<time>2012-07-21T17:39:29Z</time>
<speed>0.990000</speed>
<extensions>
<speed>1.0</speed>
<temp>0.00</temp>
<bpm>0</bpm>
<rpm>0.00</rpm>
</extensions>
</trkpt>
<trkpt lat="64.084686279" lon="-19.564186096">
<ele>364.406250</ele>
<time>2012-07-21T17:39:34Z</time>
<speed>0.900000</speed>
<extensions>
<speed>0.9</speed>
<temp>0.00</temp>
<bpm>0</bpm>
<rpm>0.00</rpm>
</extensions>
</trkpt>
<trkpt lat="64.084678650" lon="-19.564086914">
<ele>364.851563</ele>
<time>2012-07-21T17:39:39Z</time>
<speed>1.060000</speed>
<extensions>
<speed>1.1</speed>
<temp>0.00</temp>
<bpm>0</bpm>
<rpm>0.00</rpm>
</extensions>
</trkpt>
<trkpt lat="64.084686279" lon="-19.563980103">
<ele>364.890625</ele>
<time>2012-07-21T17:39:44Z</time>
<speed>1.230000</speed>
<extensions>
<speed>1.2</speed>
<temp>0.00</temp>
<bpm>0</bpm>
<rpm>0.00</rpm>
</extensions>
</trkpt>
<trkpt lat="64.084693909" lon="-19.563863754">
<ele>366.125000</ele>
<time>2012-07-21T17:39:49Z</time>
<speed>1.050000</speed>
<extensions>
<speed>1.0</speed>
<temp>0.00</temp>
<bpm>0</bpm>
<rpm>0.00</rpm>
</extensions>
</trkpt>
<trkpt lat="64.084693909" lon="-19.563734055">
<ele>366.234375</ele>
<time>2012-07-21T17:39:54Z</time>
<speed>1.150000</speed>
<extensions>
<speed>1.1</speed>
<temp>0.00</temp>
<bpm>0</bpm>
<rpm>0.00</rpm>
</extensions>
</trkpt>
<trkpt lat="64.084686279" lon="-19.563627243">
<ele>366.242188</ele>
<time>2012-07-21T17:39:59Z</time>
<speed>0.930000</speed>
<extensions>
<speed>0.9</speed>
<temp>0.00</temp>
<bpm>0</bpm>
<rpm>0.00</rpm>
</extensions>
</trkpt>
<trkpt lat="64.084686279" lon="-19.563503265">
<ele>366.257813</ele>
<time>2012-07-21T17:40:04Z</time>
<speed>1.050000</speed>
<extensions>
<speed>1.0</speed>
<temp>0.00</temp>
<bpm>0</bpm>
<rpm>0.00</rpm>
</extensions>
</trkpt>
<trkpt lat="64.084686279" lon="-19.563400269">
<ele>366.093750</ele>
<time>2012-07-21T17:40:09Z</time>
<speed>0.980000</speed>
<extensions>
<speed>1.0</speed>
<temp>0.00</temp>
<bpm>0</bpm>
<rpm>0.00</rpm>
</extensions>
</trkpt>
<trkpt lat="64.084686279" lon="-19.563308716">
<ele>366.015625</ele>
<time>2012-07-21T17:40:14Z</time>
<speed>0.760000</speed>
<extensions>
<speed>0.8</speed>
<temp>0.00</temp>
<bpm>0</bpm>
<rpm>0.00</rpm>
</extensions>
</trkpt>
<trkpt lat="64.084686279" lon="-19.563209534">
<ele>365.007813</ele>
<time>2012-07-21T17:40:19Z</time>
<speed>1.010000</speed>
<extensions>
<speed>1.0</speed>
<temp>0.00</temp>
<bpm>0</bpm>
<rpm>0.00</rpm>
</extensions>
</trkpt>
<trkpt lat="64.084686279" lon="-19.563097000">
<ele>365.757813</ele>
<time>2012-07-21T17:40:24Z</time>
<speed>1.100000</speed>
<extensions>
<speed>1.1</speed>
<temp>0.00</temp>
<bpm>0</bpm>
<rpm>0.00</rpm>
</extensions>
</trkpt>
<trkpt lat="64.084686279" lon="-19.562994003">
<ele>366.210938</ele>
<time>2012-07-21T17:40:29Z</time>
<speed>0.950000</speed>
<extensions>
<speed>1.0</speed>
<temp>0.00</temp>
<bpm>0</bpm>
<rpm>0.00</rpm>
</extensions>
</trkpt>
<trkpt lat="64.084686279" lon="-19.562955856">
<ele>365.992188</ele>
<time>2012-07-21T17:40:34Z</time>
<speed>0.040000</speed>
<extensions>
<speed>0.0</speed>
<temp>0.00</temp>
<bpm>0</bpm>
<rpm>0.00</rpm>
</extensions>
</trkpt>
<trkpt lat="64.084678650" lon="-19.562936783">
<ele>366.781250</ele>
<time>2012-07-21T17:40:39Z</time>
<speed>0.540000</speed>
<extensions>
<speed>0.5</speed>
<temp>0.00</temp>
<bpm>0</bpm>
<rpm>0.00</rpm>
</extensions>
</trkpt>
<trkpt lat="64.084678650" lon="-19.562829971">
<ele>367.093750</ele>
<time>2012-07-21T17:40:44Z</time>
<speed>1.010000</speed>
<extensions>
<speed>1.0</speed>
<temp>0.00</temp>
<bpm>0</bpm>
<rpm>0.00</rpm>
</extensions>
</trkpt>
<trkpt lat="64.084671021" lon="-19.562702179">
<ele>367.359375</ele>
<time>2012-07-21T17:40:49Z</time>
<speed>1.220000</speed>
<extensions>
<speed>1.2</speed>
<temp>0.00</temp>
<bpm>0</bpm>
<rpm>0.00</rpm>
</extensions>
</trkpt>
<trkpt lat="64.084678650" lon="-19.562587738">
<ele>366.789063</ele>
<time>2012-07-21T17:40:54Z</time>
<speed>1.250000</speed>
<extensions>
<speed>1.3</speed>
<temp>0.00</temp>
<bpm>0</bpm>
<rpm>0.00</rpm>
</extensions>
</trkpt>
<trkpt lat="64.084678650" lon="-19.562471390">
<ele>366.843750</ele>
<time>2012-07-21T17:40:59Z</time>
<speed>1.150000</speed>
<extensions>
<speed>1.1</speed>
<temp>0.00</temp>
<bpm>0</bpm>
<rpm>0.00</rpm>
</extensions>
</trkpt>
<trkpt lat="64.084678650" lon="-19.562345505">
<ele>367.406250</ele>
<time>2012-07-21T17:41:04Z</time>
<speed>1.190000</speed>
<extensions>
<speed>1.2</speed>
<temp>0.00</temp>
<bpm>0</bpm>
<rpm>0.00</rpm>
</extensions>
</trkpt>
<trkpt lat="64.084671021" lon="-19.562219620">
<ele>367.015625</ele>
<time>2012-07-21T17:41:09Z</time>
<speed>1.200000</speed>
<extensions>
<speed>1.2</speed>
<temp>0.00</temp>
<bpm>0</bpm>
<rpm>0.00</rpm>
</extensions>
</trkpt>
<trkpt lat="64.084663391" lon="-19.562099457">
<ele>367.171875</ele>
<time>2012-07-21T17:41:14Z</time>
<speed>1.260000</speed>
<extensions>
<speed>1.3</speed>
<temp>0.00</temp>
<bpm>0</bpm>
<rpm>0.00</rpm>
</extensions>
</trkpt>
<trkpt lat="64.084632874" lon="-19.561969757">
<ele>366.679688</ele>
<time>2012-07-21T17:41:19Z</time>
<speed>1.310000</speed>
<extensions>
<speed>1.3</speed>
<temp>0.00</temp>
<bpm>0</bpm>
<rpm>0.00</rpm>
</extensions>
</trkpt>
<trkpt lat="64.084609985" lon="-19.561838150">
<ele>366.445313</ele>
<time>2012-07-21T17:41:24Z</time>
<speed>1.250000</speed>
<extensions>
<speed>1.3</speed>
<temp>0.00</temp>
<bpm>0</bpm>
<rpm>0.00</rpm>
</extensions>
</trkpt>
<trkpt lat="64.084579468" lon="-19.561727524">
<ele>367.171875</ele>
<time>2012-07-21T17:41:29Z</time>
<speed>1.350000</speed>
<extensions>
<speed>1.4</speed>
<temp>0.00</temp>
<bpm>0</bpm>
<rpm>0.00</rpm>
</extensions>
</trkpt>
<trkpt lat="64.084548950" lon="-19.561605453">
<ele>366.585938</ele>
<time>2012-07-21T17:41:34Z</time>
<speed>1.240000</speed>
<extensions>
<speed>1.2</speed>
<temp>0.00</temp>
<bpm>0</bpm>
<rpm>0.00</rpm>
</extensions>
</trkpt>
<trkpt lat="64.084526062" lon="-19.561494827">
<ele>365.710938</ele>
<time>2012-07-21T17:41:39Z</time>
<speed>1.360000</speed>
<extensions>
<speed>1.4</speed>
<temp>0.00</temp>
<bpm>0</bpm>
<rpm>0.00</rpm>
</extensions>
</trkpt>
<trkpt lat="64.084487915" lon="-19.561389923">
<ele>366.265625</ele>
<time>2012-07-21T17:41:44Z</time>
<speed>1.570000</speed>
<extensions>
<speed>1.6</speed>
<temp>0.00</temp>
<bpm>0</bpm>
<rpm>0.00</rpm>
</extensions>
</trkpt>
<trkpt lat="64.084449768" lon="-19.561283112">
<ele>366.531250</ele>
<time>2012-07-21T17:41:49Z</time>
<speed>1.450000</speed>
<extensions>
<speed>1.4</speed>
<temp>0.00</temp>
<bpm>0</bpm>
<rpm>0.00</rpm>
</extensions>
</trkpt>
<trkpt lat="64.084411621" lon="-19.561170578">
<ele>366.804688</ele>
<time>2012-07-21T17:41:54Z</time>
<speed>1.520000</speed>
<extensions>
<speed>1.5</speed>
<temp>0.00</temp>
<bpm>0</bpm>
<rpm>0.00</rpm>
</extensions>
</trkpt>
<trkpt lat="64.084365845" lon="-19.561077118">
<ele>367.093750</ele>
<time>2012-07-21T17:41:59Z</time>
<speed>0.710000</speed>
<extensions>
<speed>0.7</speed>
<temp>0.00</temp>
<bpm>0</bpm>
<rpm>0.00</rpm>
</extensions>
</trkpt>
<trkpt lat="64.084342957" lon="-19.561052322">
<ele>367.281250</ele>
<time>2012-07-21T17:42:04Z</time>
<speed>0.980000</speed>
<extensions>
<speed>1.0</speed>
<temp>0.00</temp>
<bpm>0</bpm>
<rpm>0.00</rpm>
</extensions>
</trkpt>
<trkpt lat="64.084297180" lon="-19.560962677">
<ele>367.445313</ele>
<time>2012-07-21T17:42:09Z</time>
<speed>1.370000</speed>
<extensions>
<speed>1.4</speed>
<temp>0.00</temp>
<bpm>0</bpm>
<rpm>0.00</rpm>
</extensions>
</trkpt>
<trkpt lat="64.084243774" lon="-19.560901642">
<ele>367.414063</ele>
<time>2012-07-21T17:42:14Z</time>
<speed>1.340000</speed>
<extensions>
<speed>1.3</speed>
<temp>0.00</temp>
<bpm>0</bpm>
<rpm>0.00</rpm>
</extensions>
</trkpt>
<trkpt lat="64.084197998" lon="-19.560855865">
<ele>368.093750</ele>
<time>2012-07-21T17:42:19Z</time>
<speed>1.270000</speed>
<extensions>
<speed>1.3</speed>
<temp>0.00</temp>
<bpm>0</bpm>
<rpm>0.00</rpm>
</extensions>
</trkpt>
<trkpt lat="64.084136963" lon="-19.560819626">
<ele>368.726563</ele>
<time>2012-07-21T17:42:24Z</time>
<speed>1.380000</speed>
<extensions>
<speed>1.4</speed>
<temp>0.00</temp>
<bpm>0</bpm>
<rpm>0.00</rpm>
</extensions>
</trkpt>
<trkpt lat="64.084083557" lon="-19.560779572">
<ele>368.765625</ele>
<time>2012-07-21T17:42:29Z</time>
<speed>1.270000</speed>
<extensions>
<speed>1.3</speed>
<temp>0.00</temp>
<bpm>0</bpm>
<rpm>0.00</rpm>
</extensions>
</trkpt>
<trkpt lat="64.084022522" lon="-19.560766220">
<ele>368.851563</ele>
<time>2012-07-21T17:42:34Z</time>
<speed>1.260000</speed>
<extensions>
<speed>1.3</speed>
<temp>0.00</temp>
<bpm>0</bpm>
<rpm>0.00</rpm>
</extensions>
</trkpt>
<trkpt lat="64.083961487" lon="-19.560739517">
<ele>368.640625</ele>
<time>2012-07-21T17:42:39Z</time>
<speed>1.500000</speed>
<extensions>
<speed>1.5</speed>
<temp>0.00</temp>
<bpm>0</bpm>
<rpm>0.00</rpm>
</extensions>
</trkpt>
<trkpt lat="64.083900452" lon="-19.560714722">
<ele>368.218750</ele>
<time>2012-07-21T17:42:44Z</time>
<speed>1.220000</speed>
<extensions>
<speed>1.2</speed>
<temp>0.00</temp>
<bpm>0</bpm>
<rpm>0.00</rpm>
</extensions>
</trkpt>
<trkpt lat="64.083847046" lon="-19.560707092">
<ele>367.859375</ele>
<time>2012-07-21T17:42:49Z</time>
<speed>1.400000</speed>
<extensions>
<speed>1.4</speed>
<temp>0.00</temp>
<bpm>0</bpm>
<rpm>0.00</rpm>
</extensions>
</trkpt>
<trkpt lat="64.083786011" lon="-19.560709000">
<ele>367.718750</ele>
<time>2012-07-21T17:42:54Z</time>
<speed>1.400000</speed>
<extensions>
<speed>1.4</speed>
<temp>0.00</temp>
<bpm>0</bpm>
<rpm>0.00</rpm>
</extensions>
</trkpt>
<trkpt lat="64.083732605" lon="-19.560724258">
<ele>368.085938</ele>
<time>2012-07-21T17:42:59Z</time>
<speed>1.210000</speed>
<extensions>
<speed>1.2</speed>
<temp>0.00</temp>
<bpm>0</bpm>
<rpm>0.00</rpm>
</extensions>
</trkpt>
<trkpt lat="64.083663940" lon="-19.560688019">
<ele>368.437500</ele>
<time>2012-07-21T17:43:04Z</time>
<speed>1.430000</speed>
<extensions>
<speed>1.4</speed>
<temp>0.00</temp>
<bpm>0</bpm>
<rpm>0.00</rpm>
</extensions>
</trkpt>
<trkpt lat="64.083610535" lon="-19.560682297">
<ele>368.320313</ele>
<time>2012-07-21T17:43:09Z</time>
<speed>1.540000</speed>
<extensions>
<speed>1.5</speed>
<temp>0.00</temp>
<bpm>0</bpm>
<rpm>0.00</rpm>
</extensions>
</trkpt>
<trkpt lat="64.083549500" lon="-19.560680389">
<ele>368.429688</ele>
<time>2012-07-21T17:43:14Z</time>
<speed>1.280000</speed>
<extensions>
<speed>1.3</speed>
<temp>0.00</temp>
<bpm>0</bpm>
<rpm>0.00</rpm>
</extensions>
</trkpt>
<trkpt lat="64.083488464" lon="-19.560682297">
<ele>368.304688</ele>
<time>2012-07-21T17:43:19Z</time>
<speed>1.560000</speed>
<extensions>
<speed>1.6</speed>
<temp>0.00</temp>
<bpm>0</bpm>
<rpm>0.00</rpm>
</extensions>
</trkpt>
<trkpt lat="64.083427429" lon="-19.560663223">
<ele>368.453125</ele>
<time>2012-07-21T17:43:24Z</time>
<speed>2.080000</speed>
<extensions>
<speed>2.1</speed>
<temp>0.00</temp>
<bpm>0</bpm>
<rpm>0.00</rpm>
</extensions>
</trkpt>
<trkpt lat="64.083366394" lon="-19.560661316">
<ele>368.789063</ele>
<time>2012-07-21T17:43:29Z</time>
<speed>1.390000</speed>
<extensions>
<speed>1.4</speed>
<temp>0.00</temp>
<bpm>0</bpm>
<rpm>0.00</rpm>
</extensions>
</trkpt>
<trkpt lat="64.083305359" lon="-19.560651779">
<ele>368.976563</ele>
<time>2012-07-21T17:43:34Z</time>
<speed>1.060000</speed>
<extensions>
<speed>1.1</speed>
<temp>0.00</temp>
<bpm>0</bpm>
<rpm>0.00</rpm>
</extensions>
</trkpt>
<trkpt lat="64.083259583" lon="-19.560674667">
<ele>369.437500</ele>
<time>2012-07-21T17:43:39Z</time>
<speed>1.340000</speed>
<extensions>
<speed>1.3</speed>
<temp>0.00</temp>
<bpm>0</bpm>
<rpm>0.00</rpm>
</extensions>
</trkpt>
<trkpt lat="64.083190918" lon="-19.560695648">
<ele>369.648438</ele>
<time>2012-07-21T17:43:44Z</time>
<speed>1.250000</speed>
<extensions>
<speed>1.3</speed>
<temp>0.00</temp>
<bpm>0</bpm>
<rpm>0.00</rpm>
</extensions>
</trkpt>
<trkpt lat="64.083122253" lon="-19.560709000">
<ele>369.367188</ele>
<time>2012-07-21T17:43:49Z</time>
<speed>1.360000</speed>
<extensions>
<speed>1.4</speed>
<temp>0.00</temp>
<bpm>0</bpm>
<rpm>0.00</rpm>
</extensions>
</trkpt>
<trkpt lat="64.083076477" lon="-19.560731888">
<ele>369.375000</ele>
<time>2012-07-21T17:43:54Z</time>
<speed>1.550000</speed>
<extensions>
<speed>1.5</speed>
<temp>0.00</temp>
<bpm>0</bpm>
<rpm>0.00</rpm>
</extensions>
</trkpt>
<trkpt lat="64.083023071" lon="-19.560798645">
<ele>370.554688</ele>
<time>2012-07-21T17:43:59Z</time>
<speed>1.440000</speed>
<extensions>
<speed>1.4</speed>
<temp>0.00</temp>
<bpm>0</bpm>
<rpm>0.00</rpm>
</extensions>
</trkpt>
<trkpt lat="64.083000183" lon="-19.560817719">
<ele>370.984375</ele>
<time>2012-07-21T17:44:04Z</time>
<speed>0.680000</speed>
<extensions>
<speed>0.7</speed>
<temp>0.00</temp>
<bpm>0</bpm>
<rpm>0.00</rpm>
</extensions>
</trkpt>
<trkpt lat="64.082992554" lon="-19.560813904">
<ele>370.820313</ele>
<time>2012-07-21T17:44:09Z</time>
<speed>0.030000</speed>
<extensions>
<speed>0.0</speed>
<temp>0.00</temp>
<bpm>0</bpm>
<rpm>0.00</rpm>
</extensions>
</trkpt>
<trkpt lat="64.082962036" lon="-19.560855865">
<ele>370.867188</ele>
<time>2012-07-21T17:44:14Z</time>
<speed>1.610000</speed>
<extensions>
<speed>1.6</speed>
<temp>0.00</temp>
<bpm>0</bpm>
<rpm>0.00</rpm>
</extensions>
</trkpt>
<trkpt lat="64.082878113" lon="-19.560974121">
<ele>371.328125</ele>
<time>2012-07-21T17:44:19Z</time>
<speed>2.930000</speed>
<extensions>
<speed>2.9</speed>
<temp>0.00</temp>
<bpm>0</bpm>
<rpm>0.00</rpm>
</extensions>
</trkpt>
<trkpt lat="64.082763672" lon="-19.561094284">
<ele>371.359375</ele>
<time>2012-07-21T17:44:24Z</time>
<speed>2.550000</speed>
<extensions>
<speed>2.6</speed>
<temp>0.00</temp>
<bpm>0</bpm>
<rpm>0.00</rpm>
</extensions>
</trkpt>
<trkpt lat="64.082664490" lon="-19.561233521">
<ele>371.851563</ele>
<time>2012-07-21T17:44:29Z</time>
<speed>2.530000</speed>
<extensions>
<speed>2.5</speed>
<temp>0.00</temp>
<bpm>0</bpm>
<rpm>0.00</rpm>
</extensions>
</trkpt>
<trkpt lat="64.082565308" lon="-19.561330795">
<ele>372.078125</ele>
<time>2012-07-21T17:44:34Z</time>
<speed>2.420000</speed>
<extensions>
<speed>2.4</speed>
<temp>0.00</temp>
<bpm>0</bpm>
<rpm>0.00</rpm>
</extensions>
</trkpt>
<trkpt lat="64.082458496" lon="-19.561393738">
<ele>371.929688</ele>
<time>2012-07-21T17:44:39Z</time>
<speed>2.370000</speed>
<extensions>
<speed>2.4</speed>
<temp>0.00</temp>
<bpm>0</bpm>
<rpm>0.00</rpm>
</extensions>
</trkpt>
<trkpt lat="64.082351685" lon="-19.561439514">
<ele>371.085938</ele>
<time>2012-07-21T17:44:44Z</time>
<speed>2.230000</speed>
<extensions>
<speed>2.2</speed>
<temp>0.00</temp>
<bpm>0</bpm>
<rpm>0.00</rpm>
</extensions>
</trkpt>
<trkpt lat="64.082252502" lon="-19.561424255">
<ele>370.820313</ele>
<time>2012-07-21T17:44:49Z</time>
<speed>1.860000</speed>
<extensions>
<speed>1.9</speed>
<temp>0.00</temp>
<bpm>0</bpm>
<rpm>0.00</rpm>
</extensions>
</trkpt>
<trkpt lat="64.082168579" lon="-19.561412811">
<ele>371.070313</ele>
<time>2012-07-21T17:44:54Z</time>
<speed>0.370000</speed>
<extensions>
<speed>0.4</speed>
<temp>0.00</temp>
<bpm>0</bpm>
<rpm>0.00</rpm>
</extensions>
</trkpt>
<trkpt lat="64.082168579" lon="-19.561407089">
<ele>371.375000</ele>
<time>2012-07-21T17:44:59Z</time>
<speed>0.920000</speed>
<extensions>
<speed>0.9</speed>
<temp>0.00</temp>
<bpm>0</bpm>
<rpm>0.00</rpm>
</extensions>
</trkpt>
<trkpt lat="64.082107544" lon="-19.561420441">
<ele>371.773438</ele>
<time>2012-07-21T17:45:04Z</time>
<speed>1.360000</speed>
<extensions>
<speed>1.4</speed>
<temp>0.00</temp>
<bpm>0</bpm>
<rpm>0.00</rpm>
</extensions>
</trkpt>
<trkpt lat="64.082054138" lon="-19.561380386">
<ele>372.453125</ele>
<time>2012-07-21T17:45:09Z</time>
<speed>1.130000</speed>
<extensions>
<speed>1.1</speed>
<temp>0.00</temp>
<bpm>0</bpm>
<rpm>0.00</rpm>
</extensions>
</trkpt>
<trkpt lat="64.082000732" lon="-19.561342239">
<ele>373.054688</ele>
<time>2012-07-21T17:45:14Z</time>
<speed>1.000000</speed>
<extensions>
<speed>1.0</speed>
<temp>0.00</temp>
<bpm>0</bpm>
<rpm>0.00</rpm>
</extensions>
</trkpt>
<trkpt lat="64.081954956" lon="-19.561311722">
<ele>373.773438</ele>
<time>2012-07-21T17:45:19Z</time>
<speed>1.030000</speed>
<extensions>
<speed>1.0</speed>
<temp>0.00</temp>
<bpm>0</bpm>
<rpm>0.00</rpm>
</extensions>
</trkpt>
<trkpt lat="64.081916809" lon="-19.561290741">
<ele>374.468750</ele>
<time>2012-07-21T17:45:24Z</time>
<speed>1.250000</speed>
<extensions>
<speed>1.3</speed>
<temp>0.00</temp>
<bpm>0</bpm>
<rpm>0.00</rpm>
</extensions>
</trkpt>
<trkpt lat="64.081871033" lon="-19.561248779">
<ele>375.101563</ele>
<time>2012-07-21T17:45:29Z</time>
<speed>1.050000</speed>
<extensions>
<speed>1.0</speed>
<temp>0.00</temp>
<bpm>0</bpm>
<rpm>0.00</rpm>
</extensions>
</trkpt>
<trkpt lat="64.081832886" lon="-19.561191559">
<ele>376.250000</ele>
<time>2012-07-21T17:45:34Z</time>
<speed>1.100000</speed>
<extensions>
<speed>1.1</speed>
<temp>0.00</temp>
<bpm>0</bpm>
<rpm>0.00</rpm>
</extensions>
</trkpt>
<trkpt lat="64.081794739" lon="-19.561157227">
<ele>377.335938</ele>
<time>2012-07-21T17:45:39Z</time>
<speed>0.890000</speed>
<extensions>
<speed>0.9</speed>
<temp>0.00</temp>
<bpm>0</bpm>
<rpm>0.00</rpm>
</extensions>
</trkpt>
<trkpt lat="64.081764221" lon="-19.561117172">
<ele>378.296875</ele>
<time>2012-07-21T17:45:44Z</time>
<speed>0.430000</speed>
<extensions>
<speed>0.4</speed>
<temp>0.00</temp>
<bpm>0</bpm>
<rpm>0.00</rpm>
</extensions>
</trkpt>
<trkpt lat="64.081748962" lon="-19.561050415">
<ele>379.109375</ele>
<time>2012-07-21T17:45:49Z</time>
<speed>0.810000</speed>
<extensions>
<speed>0.8</speed>
<temp>0.00</temp>
<bpm>0</bpm>
<rpm>0.00</rpm>
</extensions>
</trkpt>
<trkpt lat="64.081741333" lon="-19.561027527">
<ele>379.914063</ele>
<time>2012-07-21T17:45:54Z</time>
<speed>0.390000</speed>
<extensions>
<speed>0.4</speed>
<temp>0.00</temp>
<bpm>0</bpm>
<rpm>0.00</rpm>
</extensions>
</trkpt>
<trkpt lat="64.081718445" lon="-19.560976028">
<ele>380.398438</ele>
<time>2012-07-21T17:45:59Z</time>
<speed>0.610000</speed>
<extensions>
<speed>0.6</speed>
<temp>0.00</temp>
<bpm>0</bpm>
<rpm>0.00</rpm>
</extensions>
</trkpt>
<trkpt lat="64.081703186" lon="-19.560935974">
<ele>380.945313</ele>
<time>2012-07-21T17:46:04Z</time>
<speed>0.860000</speed>
<extensions>
<speed>0.9</speed>
<temp>0.00</temp>
<bpm>0</bpm>
<rpm>0.00</rpm>
</extensions>
</trkpt>
<trkpt lat="64.081687927" lon="-19.560865402">
<ele>381.257813</ele>
<time>2012-07-21T17:46:09Z</time>
<speed>0.610000</speed>
<extensions>
<speed>0.6</speed>
<temp>0.00</temp>
<bpm>0</bpm>
<rpm>0.00</rpm>
</extensions>
</trkpt>
<trkpt lat="64.081672668" lon="-19.560804367">
<ele>381.937500</ele>
<time>2012-07-21T17:46:14Z</time>
<speed>0.620000</speed>
<extensions>
<speed>0.6</speed>
<temp>0.00</temp>
<bpm>0</bpm>
<rpm>0.00</rpm>
</extensions>
</trkpt>
<trkpt lat="64.081649780" lon="-19.560752869">
<ele>382.703125</ele>
<time>2012-07-21T17:46:19Z</time>
<speed>0.770000</speed>
<extensions>
<speed>0.8</speed>
<temp>0.00</temp>
<bpm>0</bpm>
<rpm>0.00</rpm>
</extensions>
</trkpt>
<trkpt lat="64.081634521" lon="-19.560667038">
<ele>382.476563</ele>
<time>2012-07-21T17:46:24Z</time>
<speed>0.930000</speed>
<extensions>
<speed>0.9</speed>
<temp>0.00</temp>
<bpm>0</bpm>
<rpm>0.00</rpm>
</extensions>
</trkpt>
<trkpt lat="64.081619263" lon="-19.560594559">
<ele>382.789063</ele>
<time>2012-07-21T17:46:29Z</time>
<speed>0.750000</speed>
<extensions>
<speed>0.8</speed>
<temp>0.00</temp>
<bpm>0</bpm>
<rpm>0.00</rpm>
</extensions>
</trkpt>
<trkpt lat="64.081596375" lon="-19.560541153">
<ele>383.312500</ele>
<time>2012-07-21T17:46:34Z</time>
<speed>0.510000</speed>
<extensions>
<speed>0.5</speed>
<temp>0.00</temp>
<bpm>0</bpm>
<rpm>0.00</rpm>
</extensions>
</trkpt>
<trkpt lat="64.081581116" lon="-19.560453415">
<ele>383.671875</ele>
<time>2012-07-21T17:46:39Z</time>
<speed>0.680000</speed>
<extensions>
<speed>0.7</speed>
<temp>0.00</temp>
<bpm>0</bpm>
<rpm>0.00</rpm>
</extensions>
</trkpt>
<trkpt lat="64.081573486" lon="-19.560392380">
<ele>384.734375</ele>
<time>2012-07-21T17:46:44Z</time>
<speed>0.770000</speed>
<extensions>
<speed>0.8</speed>
<temp>0.00</temp>
<bpm>0</bpm>
<rpm>0.00</rpm>
</extensions>
</trkpt>
<trkpt lat="64.081558228" lon="-19.560354233">
<ele>384.804688</ele>
<time>2012-07-21T17:46:49Z</time>
<speed>0.030000</speed>
<extensions>
<speed>0.0</speed>
<temp>0.00</temp>
<bpm>0</bpm>
<rpm>0.00</rpm>
</extensions>
</trkpt>
<trkpt lat="64.081550598" lon="-19.560276031">
<ele>384.203125</ele>
<time>2012-07-21T17:46:54Z</time>
<speed>0.940000</speed>
<extensions>
<speed>0.9</speed>
<temp>0.00</temp>
<bpm>0</bpm>
<rpm>0.00</rpm>
</extensions>
</trkpt>
<trkpt lat="64.081565857" lon="-19.560188293">
<ele>384.640625</ele>
<time>2012-07-21T17:46:59Z</time>
<speed>0.780000</speed>
<extensions>
<speed>0.8</speed>
<temp>0.00</temp>
<bpm>0</bpm>
<rpm>0.00</rpm>
</extensions>
</trkpt>
<trkpt lat="64.081565857" lon="-19.560085297">
<ele>385.359375</ele>
<time>2012-07-21T17:47:04Z</time>
<speed>0.940000</speed>
<extensions>
<speed>0.9</speed>
<temp>0.00</temp>
<bpm>0</bpm>
<rpm>0.00</rpm>
</extensions>
</trkpt>
<trkpt lat="64.081573486" lon="-19.560009003">
<ele>385.976563</ele>
<time>2012-07-21T17:47:09Z</time>
<speed>0.630000</speed>
<extensions>
<speed>0.6</speed>
<temp>0.00</temp>
<bpm>0</bpm>
<rpm>0.00</rpm>
</extensions>
</trkpt>
<trkpt lat="64.081581116" lon="-19.559919357">
<ele>386.406250</ele>
<time>2012-07-21T17:47:14Z</time>
<speed>0.860000</speed>
<extensions>
<speed>0.9</speed>
<temp>0.00</temp>
<bpm>0</bpm>
<rpm>0.00</rpm>
</extensions>
</trkpt>
<trkpt lat="64.081588745" lon="-19.559835434">
<ele>386.554688</ele>
<time>2012-07-21T17:47:19Z</time>
<speed>0.530000</speed>
<extensions>
<speed>0.5</speed>
<temp>0.00</temp>
<bpm>0</bpm>
<rpm>0.00</rpm>
</extensions>
</trkpt>
<trkpt lat="64.081596375" lon="-19.559749603">
<ele>386.320313</ele>
<time>2012-07-21T17:47:24Z</time>
<speed>0.790000</speed>
<extensions>
<speed>0.8</speed>
<temp>0.00</temp>
<bpm>0</bpm>
<rpm>0.00</rpm>
</extensions>
</trkpt>
<trkpt lat="64.081588745" lon="-19.559724808">
<ele>386.101563</ele>
<time>2012-07-21T17:47:29Z</time>
<extensions>
<speed>0.0</speed>
<temp>0.00</temp>
<bpm>0</bpm>
<rpm>0.00</rpm>
</extensions>
</trkpt>
<trkpt lat="64.081588745" lon="-19.559717178">
<ele>385.796875</ele>
<time>2012-07-21T17:47:34Z</time>
<speed>0.040000</speed>
<extensions>
<speed>0.0</speed>
<temp>0.00</temp>
<bpm>0</bpm>
<rpm>0.00</rpm>
</extensions>
</trkpt>
<trkpt lat="64.081588745" lon="-19.559694290">
<ele>385.914063</ele>
<time>2012-07-21T17:47:39Z</time>
<speed>0.520000</speed>
<extensions>
<speed>0.5</speed>
<temp>0.00</temp>
<bpm>0</bpm>
<rpm>0.00</rpm>
</extensions>
</trkpt>
<trkpt lat="64.081588745" lon="-19.559617996">
<ele>386.234375</ele>
<time>2012-07-21T17:47:44Z</time>
<speed>0.720000</speed>
<extensions>
<speed>0.7</speed>
<temp>0.00</temp>
<bpm>0</bpm>
<rpm>0.00</rpm>
</extensions>
</trkpt>
<trkpt lat="64.081588745" lon="-19.559549332">
<ele>386.898438</ele>
<time>2012-07-21T17:47:49Z</time>
<speed>0.850000</speed>
<extensions>
<speed>0.8</speed>
<temp>0.00</temp>
<bpm>0</bpm>
<rpm>0.00</rpm>
</extensions>
</trkpt>
<trkpt lat="64.081604004" lon="-19.559457779">
<ele>387.390625</ele>
<time>2012-07-21T17:47:54Z</time>
<speed>0.930000</speed>
<extensions>
<speed>0.9</speed>
<temp>0.00</temp>
<bpm>0</bpm>
<rpm>0.00</rpm>
</extensions>
</trkpt>
<trkpt lat="64.081611633" lon="-19.559364319">
<ele>388.164063</ele>
<time>2012-07-21T17:47:59Z</time>
<speed>0.850000</speed>
<extensions>
<speed>0.8</speed>
<temp>0.00</temp>
<bpm>0</bpm>
<rpm>0.00</rpm>
</extensions>
</trkpt>
<trkpt lat="64.081626892" lon="-19.559309006">
<ele>389.937500</ele>
<time>2012-07-21T17:48:04Z</time>
<speed>0.500000</speed>
<extensions>
<speed>0.5</speed>
<temp>0.00</temp>
<bpm>0</bpm>
<rpm>0.00</rpm>
</extensions>
</trkpt>
<trkpt lat="64.081626892" lon="-19.559242249">
<ele>389.585938</ele>
<time>2012-07-21T17:48:09Z</time>
<speed>0.930000</speed>
<extensions>
<speed>0.9</speed>
<temp>0.00</temp>
<bpm>0</bpm>
<rpm>0.00</rpm>
</extensions>
</trkpt>
<trkpt lat="64.081634521" lon="-19.559152603">
<ele>390.437500</ele>
<time>2012-07-21T17:48:14Z</time>
<speed>0.910000</speed>
<extensions>
<speed>0.9</speed>
<temp>0.00</temp>
<bpm>0</bpm>
<rpm>0.00</rpm>
</extensions>
</trkpt>
<trkpt lat="64.081634521" lon="-19.559059143">
<ele>390.515625</ele>
<time>2012-07-21T17:48:19Z</time>
<speed>0.780000</speed>
<extensions>
<speed>0.8</speed>
<temp>0.00</temp>
<bpm>0</bpm>
<rpm>0.00</rpm>
</extensions>
</trkpt>
<trkpt lat="64.081634521" lon="-19.559082031">
<ele>390.742188</ele>
<time>2012-07-21T17:48:24Z</time>
<speed>0.030000</speed>
<extensions>
<speed>0.0</speed>
<temp>0.00</temp>
<bpm>0</bpm>
<rpm>0.00</rpm>
</extensions>
</trkpt>
<trkpt lat="64.081634521" lon="-19.559013367">
<ele>390.968750</ele>
<time>2012-07-21T17:48:29Z</time>
<speed>0.810000</speed>
<extensions>
<speed>0.8</speed>
<temp>0.00</temp>
<bpm>0</bpm>
<rpm>0.00</rpm>
</extensions>
</trkpt>
<trkpt lat="64.081642151" lon="-19.558973312">
<ele>391.078125</ele>
<time>2012-07-21T17:48:34Z</time>
<speed>0.470000</speed>
<extensions>
<speed>0.5</speed>
<temp>0.00</temp>
<bpm>0</bpm>
<rpm>0.00</rpm>
</extensions>
</trkpt>
<trkpt lat="64.081649780" lon="-19.558904648">
<ele>391.835938</ele>
<time>2012-07-21T17:48:39Z</time>
<speed>0.800000</speed>
<extensions>
<speed>0.8</speed>
<temp>0.00</temp>
<bpm>0</bpm>
<rpm>0.00</rpm>
</extensions>
</trkpt>
<trkpt lat="64.081657410" lon="-19.558834076">
<ele>392.156250</ele>
<time>2012-07-21T17:48:44Z</time>
<speed>0.730000</speed>
<extensions>
<speed>0.7</speed>
<temp>0.00</temp>
<bpm>0</bpm>
<rpm>0.00</rpm>
</extensions>
</trkpt>
<trkpt lat="64.081649780" lon="-19.558776855">
<ele>391.625000</ele>
<time>2012-07-21T17:48:49Z</time>
<speed>0.130000</speed>
<extensions>
<speed>0.1</speed>
<temp>0.00</temp>
<bpm>0</bpm>
<rpm>0.00</rpm>
</extensions>
</trkpt>
<trkpt lat="64.081649780" lon="-19.558715820">
<ele>391.796875</ele>
<time>2012-07-21T17:48:54Z</time>
<speed>0.760000</speed>
<extensions>
<speed>0.8</speed>
<temp>0.00</temp>
<bpm>0</bpm>
<rpm>0.00</rpm>
</extensions>
</trkpt>
<trkpt lat="64.081657410" lon="-19.558635712">
<ele>392.593750</ele>
<time>2012-07-21T17:48:59Z</time>
<speed>0.750000</speed>
<extensions>
<speed>0.8</speed>
<temp>0.00</temp>
<bpm>0</bpm>
<rpm>0.00</rpm>
</extensions>
</trkpt>
<trkpt lat="64.081665039" lon="-19.558591843">
<ele>392.476563</ele>
<time>2012-07-21T17:49:04Z</time>
<speed>0.110000</speed>
<extensions>
<speed>0.1</speed>
<temp>0.00</temp>
<bpm>0</bpm>
<rpm>0.00</rpm>
</extensions>
</trkpt>
<trkpt lat="64.081665039" lon="-19.558593750">
<ele>392.460938</ele>
<time>2012-07-21T17:49:09Z</time>
<speed>0.260000</speed>
<extensions>
<speed>0.3</speed>
<temp>0.00</temp>
<bpm>0</bpm>
<rpm>0.00</rpm>
</extensions>
</trkpt>
<trkpt lat="64.081672668" lon="-19.558528900">
<ele>393.031250</ele>
<time>2012-07-21T17:49:14Z</time>
<speed>0.820000</speed>
<extensions>
<speed>0.8</speed>
<temp>0.00</temp>
<bpm>0</bpm>
<rpm>0.00</rpm>
</extensions>
</trkpt>
<trkpt lat="64.081680298" lon="-19.558439255">
<ele>393.390625</ele>
<time>2012-07-21T17:49:19Z</time>
<speed>0.840000</speed>
<extensions>
<speed>0.8</speed>
<temp>0.00</temp>
<bpm>0</bpm>
<rpm>0.00</rpm>
</extensions>
</trkpt>
<trkpt lat="64.081687927" lon="-19.558351517">
<ele>392.875000</ele>
<time>2012-07-21T17:49:24Z</time>
<speed>1.000000</speed>
<extensions>
<speed>1.0</speed>
<temp>0.00</temp>
<bpm>0</bpm>
<rpm>0.00</rpm>
</extensions>
</trkpt>
<trkpt lat="64.081695557" lon="-19.558258057">
<ele>393.250000</ele>
<time>2012-07-21T17:49:29Z</time>
<speed>0.900000</speed>
<extensions>
<speed>0.9</speed>
<temp>0.00</temp>
<bpm>0</bpm>
<rpm>0.00</rpm>
</extensions>
</trkpt>
<trkpt lat="64.081687927" lon="-19.558206558">
<ele>395.156250</ele>
<time>2012-07-21T17:49:34Z</time>
<speed>0.030000</speed>
<extensions>
<speed>0.0</speed>
<temp>0.00</temp>
<bpm>0</bpm>
<rpm>0.00</rpm>
</extensions>
</trkpt>
<trkpt lat="64.081680298" lon="-19.558158875">
<ele>394.890625</ele>
<time>2012-07-21T17:49:39Z</time>
<speed>0.870000</speed>
<extensions>
<speed>0.9</speed>
<temp>0.00</temp>
<bpm>0</bpm>
<rpm>0.00</rpm>
</extensions>
</trkpt>
<trkpt lat="64.081680298" lon="-19.558071136">
<ele>394.382813</ele>
<time>2012-07-21T17:49:44Z</time>
<speed>0.050000</speed>
<extensions>
<speed>0.1</speed>
<temp>0.00</temp>
<bpm>0</bpm>
<rpm>0.00</rpm>
</extensions>
</trkpt>
<trkpt lat="64.081672668" lon="-19.558052063">
<ele>394.164063</ele>
<time>2012-07-21T17:49:49Z</time>
<speed>0.600000</speed>
<extensions>
<speed>0.6</speed>
<temp>0.00</temp>
<bpm>0</bpm>
<rpm>0.00</rpm>
</extensions>
</trkpt>
<trkpt lat="64.081687927" lon="-19.557971954">
<ele>395.273438</ele>
<time>2012-07-21T17:49:54Z</time>
<speed>0.920000</speed>
<extensions>
<speed>0.9</speed>
<temp>0.00</temp>
<bpm>0</bpm>
<rpm>0.00</rpm>
</extensions>
</trkpt>
<trkpt lat="64.081703186" lon="-19.557870865">
<ele>395.421875</ele>
<time>2012-07-21T17:49:59Z</time>
<speed>0.950000</speed>
<extensions>
<speed>1.0</speed>
<temp>0.00</temp>
<bpm>0</bpm>
<rpm>0.00</rpm>
</extensions>
</trkpt>
<trkpt lat="64.081718445" lon="-19.557785034">
<ele>396.851563</ele>
<time>2012-07-21T17:50:04Z</time>
<speed>0.780000</speed>
<extensions>
<speed>0.8</speed>
<temp>0.00</temp>
<bpm>0</bpm>
<rpm>0.00</rpm>
</extensions>
</trkpt>
<trkpt lat="64.081726074" lon="-19.557716370">
<ele>397.421875</ele>
<time>2012-07-21T17:50:09Z</time>
<speed>0.930000</speed>
<extensions>
<speed>0.9</speed>
<temp>0.00</temp>
<bpm>0</bpm>
<rpm>0.00</rpm>
</extensions>
</trkpt>
<trkpt lat="64.081733704" lon="-19.557626724">
<ele>399.101563</ele>
<time>2012-07-21T17:50:14Z</time>
<speed>0.580000</speed>
<extensions>
<speed>0.6</speed>
<temp>0.00</temp>
<bpm>0</bpm>
<rpm>0.00</rpm>
</extensions>
</trkpt>
<trkpt lat="64.081733704" lon="-19.557622910">
<ele>399.851563</ele>
<time>2012-07-21T17:50:19Z</time>
<speed>0.050000</speed>
<extensions>
<speed>0.1</speed>
<temp>0.00</temp>
<bpm>0</bpm>
<rpm>0.00</rpm>
</extensions>
</trkpt>
<trkpt lat="64.081733704" lon="-19.557624817">
<ele>399.703125</ele>
<time>2012-07-21T17:50:24Z</time>
<speed>0.020000</speed>
<extensions>
<speed>0.0</speed>
<temp>0.00</temp>
<bpm>0</bpm>
<rpm>0.00</rpm>
</extensions>
</trkpt>
<trkpt lat="64.081733704" lon="-19.557624817">
<ele>399.640625</ele>
<time>2012-07-21T17:50:29Z</time>
<speed>0.180000</speed>
<extensions>
<speed>0.2</speed>
<temp>0.00</temp>
<bpm>0</bpm>
<rpm>0.00</rpm>
</extensions>
</trkpt>
<trkpt lat="64.081741333" lon="-19.557559967">
<ele>400.031250</ele>
<time>2012-07-21T17:50:34Z</time>
<speed>0.770000</speed>
<extensions>
<speed>0.8</speed>
<temp>0.00</temp>
<bpm>0</bpm>
<rpm>0.00</rpm>
</extensions>
</trkpt>
<trkpt lat="64.081756592" lon="-19.557460785">
<ele>399.937500</ele>
<time>2012-07-21T17:50:39Z</time>
<speed>0.870000</speed>
<extensions>
<speed>0.9</speed>
<temp>0.00</temp>
<bpm>0</bpm>
<rpm>0.00</rpm>
</extensions>
</trkpt>
<trkpt lat="64.081764221" lon="-19.557386398">
<ele>400.375000</ele>
<time>2012-07-21T17:50:44Z</time>
<speed>0.700000</speed>
<extensions>
<speed>0.7</speed>
<temp>0.00</temp>
<bpm>0</bpm>
<rpm>0.00</rpm>
</extensions>
</trkpt>
<trkpt lat="64.081779480" lon="-19.557342529">
<ele>399.250000</ele>
<time>2012-07-21T17:50:49Z</time>
<speed>0.110000</speed>
<extensions>
<speed>0.1</speed>
<temp>0.00</temp>
<bpm>0</bpm>
<rpm>0.00</rpm>
</extensions>
</trkpt>
<trkpt lat="64.081771851" lon="-19.557342529">
<ele>399.210938</ele>
<time>2012-07-21T17:50:54Z</time>
<speed>0.020000</speed>
<extensions>
<speed>0.0</speed>
<temp>0.00</temp>
<bpm>0</bpm>
<rpm>0.00</rpm>
</extensions>
</trkpt>
<trkpt lat="64.081771851" lon="-19.557346344">
<ele>399.148438</ele>
<time>2012-07-21T17:50:59Z</time>
<speed>0.070000</speed>
<extensions>
<speed>0.1</speed>
<temp>0.00</temp>
<bpm>0</bpm>
<rpm>0.00</rpm>
</extensions>
</trkpt>
<trkpt lat="64.081787109" lon="-19.557296753">
<ele>399.632813</ele>
<time>2012-07-21T17:51:04Z</time>
<speed>0.630000</speed>
<extensions>
<speed>0.6</speed>
<temp>0.00</temp>
<bpm>0</bpm>
<rpm>0.00</rpm>
</extensions>
</trkpt>
<trkpt lat="64.081787109" lon="-19.557237625">
<ele>400.234375</ele>
<time>2012-07-21T17:51:09Z</time>
<speed>0.810000</speed>
<extensions>
<speed>0.8</speed>
<temp>0.00</temp>
<bpm>0</bpm>
<rpm>0.00</rpm>
</extensions>
</trkpt>
<trkpt lat="64.081802368" lon="-19.557153702">
<ele>400.890625</ele>
<time>2012-07-21T17:51:14Z</time>
<speed>0.930000</speed>
<extensions>
<speed>0.9</speed>
<temp>0.00</temp>
<bpm>0</bpm>
<rpm>0.00</rpm>
</extensions>
</trkpt>
<trkpt lat="64.081809998" lon="-19.557073593">
<ele>401.921875</ele>
<time>2012-07-21T17:51:19Z</time>
<speed>0.630000</speed>
<extensions>
<speed>0.6</speed>
<temp>0.00</temp>
<bpm>0</bpm>
<rpm>0.00</rpm>
</extensions>
</trkpt>
<trkpt lat="64.081825256" lon="-19.557008743">
<ele>402.726563</ele>
<time>2012-07-21T17:51:24Z</time>
<speed>0.800000</speed>
<extensions>
<speed>0.8</speed>
<temp>0.00</temp>
<bpm>0</bpm>
<rpm>0.00</rpm>
</extensions>
</trkpt>
<trkpt lat="64.081832886" lon="-19.556907654">
<ele>403.539063</ele>
<time>2012-07-21T17:51:29Z</time>
<speed>1.010000</speed>
<extensions>
<speed>1.0</speed>
<temp>0.00</temp>
<bpm>0</bpm>
<rpm>0.00</rpm>
</extensions>
</trkpt>
<trkpt lat="64.081848145" lon="-19.556852341">
<ele>403.945313</ele>
<time>2012-07-21T17:51:34Z</time>
<speed>0.370000</speed>
<extensions>
<speed>0.4</speed>
<temp>0.00</temp>
<bpm>0</bpm>
<rpm>0.00</rpm>
</extensions>
</trkpt>
<trkpt lat="64.081840515" lon="-19.556800842">
<ele>404.664063</ele>
<time>2012-07-21T17:51:39Z</time>
<speed>0.940000</speed>
<extensions>
<speed>0.9</speed>
<temp>0.00</temp>
<bpm>0</bpm>
<rpm>0.00</rpm>
</extensions>
</trkpt>
<trkpt lat="64.081848145" lon="-19.556713104">
<ele>406.265625</ele>
<time>2012-07-21T17:51:44Z</time>
<speed>0.850000</speed>
<extensions>
<speed>0.8</speed>
<temp>0.00</temp>
<bpm>0</bpm>
<rpm>0.00</rpm>
</extensions>
</trkpt>
<trkpt lat="64.081855774" lon="-19.556638718">
<ele>407.093750</ele>
<time>2012-07-21T17:51:49Z</time>
<speed>0.700000</speed>
<extensions>
<speed>0.7</speed>
<temp>0.00</temp>
<bpm>0</bpm>
<rpm>0.00</rpm>
</extensions>
</trkpt>
<trkpt lat="64.081855774" lon="-19.556604385">
<ele>406.570313</ele>
<time>2012-07-21T17:51:54Z</time>
<speed>0.010000</speed>
<extensions>
<speed>0.0</speed>
<temp>0.00</temp>
<bpm>0</bpm>
<rpm>0.00</rpm>
</extensions>
</trkpt>
<trkpt lat="64.081848145" lon="-19.556602478">
<ele>406.343750</ele>
<time>2012-07-21T17:51:59Z</time>
<speed>0.020000</speed>
<extensions>
<speed>0.0</speed>
<temp>0.00</temp>
<bpm>0</bpm>
<rpm>0.00</rpm>
</extensions>
</trkpt>
<trkpt lat="64.081848145" lon="-19.556604385">
<ele>406.304688</ele>
<time>2012-07-21T17:52:04Z</time>
<speed>0.050000</speed>
<extensions>
<speed>0.1</speed>
<temp>0.00</temp>
<bpm>0</bpm>
<rpm>0.00</rpm>
</extensions>
</trkpt>
<trkpt lat="64.081855774" lon="-19.556587219">
<ele>406.015625</ele>
<time>2012-07-21T17:52:09Z</time>
<speed>1.150000</speed>
<extensions>
<speed>1.1</speed>
<temp>0.00</temp>
<bpm>0</bpm>
<rpm>0.00</rpm>
</extensions>
</trkpt>
<trkpt lat="64.081878662" lon="-19.556495667">
<ele>405.843750</ele>
<time>2012-07-21T17:52:14Z</time>
<speed>0.870000</speed>
<extensions>
<speed>0.9</speed>
<temp>0.00</temp>
<bpm>0</bpm>
<rpm>0.00</rpm>
</extensions>
</trkpt>
<trkpt lat="64.081901550" lon="-19.556404114">
<ele>406.585938</ele>
<time>2012-07-21T17:52:19Z</time>
<speed>1.130000</speed>
<extensions>
<speed>1.1</speed>
<temp>0.00</temp>
<bpm>0</bpm>
<rpm>0.00</rpm>
</extensions>
</trkpt>
<trkpt lat="64.081924438" lon="-19.556283951">
<ele>406.804688</ele>
<time>2012-07-21T17:52:24Z</time>
<speed>1.100000</speed>
<extensions>
<speed>1.1</speed>
<temp>0.00</temp>
<bpm>0</bpm>
<rpm>0.00</rpm>
</extensions>
</trkpt>
<trkpt lat="64.081932068" lon="-19.556167603">
<ele>407.617188</ele>
<time>2012-07-21T17:52:29Z</time>
<speed>0.600000</speed>
<extensions>
<speed>0.6</speed>
<temp>0.00</temp>
<bpm>0</bpm>
<rpm>0.00</rpm>
</extensions>
</trkpt>
<trkpt lat="64.081939697" lon="-19.556142807">
<ele>407.234375</ele>
<time>2012-07-21T17:52:34Z</time>
<speed>0.070000</speed>
<extensions>
<speed>0.1</speed>
<temp>0.00</temp>
<bpm>0</bpm>
<rpm>0.00</rpm>
</extensions>
</trkpt>
<trkpt lat="64.081954956" lon="-19.556072235">
<ele>407.710938</ele>
<time>2012-07-21T17:52:39Z</time>
<speed>0.990000</speed>
<extensions>
<speed>1.0</speed>
<temp>0.00</temp>
<bpm>0</bpm>
<rpm>0.00</rpm>
</extensions>
</trkpt>
<trkpt lat="64.081962585" lon="-19.555982590">
<ele>408.179688</ele>
<time>2012-07-21T17:52:44Z</time>
<speed>1.010000</speed>
<extensions>
<speed>1.0</speed>
<temp>0.00</temp>
<bpm>0</bpm>
<rpm>0.00</rpm>
</extensions>
</trkpt>
<trkpt lat="64.081977844" lon="-19.555904388">
<ele>408.828125</ele>
<time>2012-07-21T17:52:49Z</time>
<speed>0.630000</speed>
<extensions>
<speed>0.6</speed>
<temp>0.00</temp>
<bpm>0</bpm>
<rpm>0.00</rpm>
</extensions>
</trkpt>
<trkpt lat="64.082000732" lon="-19.555841446">
<ele>408.914063</ele>
<time>2012-07-21T17:52:54Z</time>
<speed>0.570000</speed>
<extensions>
<speed>0.6</speed>
<temp>0.00</temp>
<bpm>0</bpm>
<rpm>0.00</rpm>
</extensions>
</trkpt>
<trkpt lat="64.082015991" lon="-19.555780411">
<ele>409.492188</ele>
<time>2012-07-21T17:52:59Z</time>
<speed>0.890000</speed>
<extensions>
<speed>0.9</speed>
<temp>0.00</temp>
<bpm>0</bpm>
<rpm>0.00</rpm>
</extensions>
</trkpt>
<trkpt lat="64.082023621" lon="-19.555679321">
<ele>410.640625</ele>
<time>2012-07-21T17:53:04Z</time>
<speed>1.320000</speed>
<extensions>
<speed>1.3</speed>
<temp>0.00</temp>
<bpm>0</bpm>
<rpm>0.00</rpm>
</extensions>
</trkpt>
<trkpt lat="64.082031250" lon="-19.555646896">
<ele>411.226563</ele>
<time>2012-07-21T17:53:09Z</time>
<speed>0.050000</speed>
<extensions>
<speed>0.1</speed>
<temp>0.00</temp>
<bpm>0</bpm>
<rpm>0.00</rpm>
</extensions>
</trkpt>
<trkpt lat="64.082023621" lon="-19.555650711">
<ele>411.531250</ele>
<time>2012-07-21T17:53:14Z</time>
<extensions>
<speed>0.0</speed>
<temp>0.00</temp>
<bpm>0</bpm>
<rpm>0.00</rpm>
</extensions>
</trkpt>
<trkpt lat="64.082015991" lon="-19.555650711">
<ele>411.648438</ele>
<time>2012-07-21T17:53:19Z</time>
<speed>0.030000</speed>
<extensions>
<speed>0.0</speed>
<temp>0.00</temp>
<bpm>0</bpm>
<rpm>0.00</rpm>
</extensions>
</trkpt>
<trkpt lat="64.082015991" lon="-19.555654526">
<ele>411.710938</ele>
<time>2012-07-21T17:53:24Z</time>
<extensions>
<speed>0.0</speed>
<temp>0.00</temp>
<bpm>0</bpm>
<rpm>0.00</rpm>
</extensions>
</trkpt>
<trkpt lat="64.082015991" lon="-19.555648804">
<ele>411.710938</ele>
<time>2012-07-21T17:53:29Z</time>
<speed>0.080000</speed>
<extensions>
<speed>0.1</speed>
<temp>0.00</temp>
<bpm>0</bpm>
<rpm>0.00</rpm>
</extensions>
</trkpt>
<trkpt lat="64.082015991" lon="-19.555646896">
<ele>411.734375</ele>
<time>2012-07-21T17:53:34Z</time>
<speed>0.040000</speed>
<extensions>
<speed>0.0</speed>
<temp>0.00</temp>
<bpm>0</bpm>
<rpm>0.00</rpm>
</extensions>
</trkpt>
<trkpt lat="64.082008362" lon="-19.555643082">
<ele>411.750000</ele>
<time>2012-07-21T17:53:39Z</time>
<speed>0.080000</speed>
<extensions>
<speed>0.1</speed>
<temp>0.00</temp>
<bpm>0</bpm>
<rpm>0.00</rpm>
</extensions>
</trkpt>
<trkpt lat="64.082008362" lon="-19.555643082">
<ele>411.765625</ele>
<time>2012-07-21T17:53:44Z</time>
<speed>0.040000</speed>
<extensions>
<speed>0.0</speed>
<temp>0.00</temp>
<bpm>0</bpm>
<rpm>0.00</rpm>
</extensions>
</trkpt>
<trkpt lat="64.082008362" lon="-19.555646896">
<ele>411.765625</ele>
<time>2012-07-21T17:53:49Z</time>
<speed>0.070000</speed>
<extensions>
<speed>0.1</speed>
<temp>0.00</temp>
<bpm>0</bpm>
<rpm>0.00</rpm>
</extensions>
</trkpt>
<trkpt lat="64.082008362" lon="-19.555641174">
<ele>411.757813</ele>
<time>2012-07-21T17:53:54Z</time>
<speed>0.050000</speed>
<extensions>
<speed>0.1</speed>
<temp>0.00</temp>
<bpm>0</bpm>
<rpm>0.00</rpm>
</extensions>
</trkpt>
<trkpt lat="64.082008362" lon="-19.555637360">
<ele>411.742188</ele>
<time>2012-07-21T17:53:59Z</time>
<speed>0.060000</speed>
<extensions>
<speed>0.1</speed>
<temp>0.00</temp>
<bpm>0</bpm>
<rpm>0.00</rpm>
</extensions>
</trkpt>
<trkpt lat="64.082000732" lon="-19.555633545">
<ele>411.750000</ele>
<time>2012-07-21T17:54:04Z</time>
<speed>0.090000</speed>
<extensions>
<speed>0.1</speed>
<temp>0.00</temp>
<bpm>0</bpm>
<rpm>0.00</rpm>
</extensions>
</trkpt>
<trkpt lat="64.082000732" lon="-19.555624008">
<ele>411.757813</ele>
<time>2012-07-21T17:54:09Z</time>
<speed>0.040000</speed>
<extensions>
<speed>0.0</speed>
<temp>0.00</temp>
<bpm>0</bpm>
<rpm>0.00</rpm>
</extensions>
</trkpt>
<trkpt lat="64.082000732" lon="-19.555631638">
<ele>411.781250</ele>
<time>2012-07-21T17:54:14Z</time>
<speed>0.080000</speed>
<extensions>
<speed>0.1</speed>
<temp>0.00</temp>
<bpm>0</bpm>
<rpm>0.00</rpm>
</extensions>
</trkpt>
<trkpt lat="64.082000732" lon="-19.555639267">
<ele>411.828125</ele>
<time>2012-07-21T17:54:19Z</time>
<speed>0.050000</speed>
<extensions>
<speed>0.1</speed>
<temp>0.00</temp>
<bpm>0</bpm>
<rpm>0.00</rpm>
</extensions>
</trkpt>
<trkpt lat="64.082000732" lon="-19.555637360">
<ele>411.875000</ele>
<time>2012-07-21T17:54:24Z</time>
<speed>0.060000</speed>
<extensions>
<speed>0.1</speed>
<temp>0.00</temp>
<bpm>0</bpm>
<rpm>0.00</rpm>
</extensions>
</trkpt>
<trkpt lat="64.082000732" lon="-19.555635452">
<ele>411.898438</ele>
<time>2012-07-21T17:54:29Z</time>
<speed>0.040000</speed>
<extensions>
<speed>0.0</speed>
<temp>0.00</temp>
<bpm>0</bpm>
<rpm>0.00</rpm>
</extensions>
</trkpt>
<trkpt lat="64.082000732" lon="-19.555641174">
<ele>411.867188</ele>
<time>2012-07-21T17:54:34Z</time>
<speed>0.070000</speed>
<extensions>
<speed>0.1</speed>
<temp>0.00</temp>
<bpm>0</bpm>
<rpm>0.00</rpm>
</extensions>
</trkpt>
<trkpt lat="64.082000732" lon="-19.555641174">
<ele>411.796875</ele>
<time>2012-07-21T17:54:39Z</time>
<speed>0.090000</speed>
<extensions>
<speed>0.1</speed>
<temp>0.00</temp>
<bpm>0</bpm>
<rpm>0.00</rpm>
</extensions>
</trkpt>
<trkpt lat="64.082008362" lon="-19.555646896">
<ele>411.726563</ele>
<time>2012-07-21T17:54:44Z</time>
<speed>0.130000</speed>
<extensions>
<speed>0.1</speed>
<temp>0.00</temp>
<bpm>0</bpm>
<rpm>0.00</rpm>
</extensions>
</trkpt>
<trkpt lat="64.082008362" lon="-19.555654526">
<ele>411.679688</ele>
<time>2012-07-21T17:54:49Z</time>
<speed>0.190000</speed>
<extensions>
<speed>0.2</speed>
<temp>0.00</temp>
<bpm>0</bpm>
<rpm>0.00</rpm>
</extensions>
</trkpt>
<trkpt lat="64.082015991" lon="-19.555658340">
<ele>411.632813</ele>
<time>2012-07-21T17:54:54Z</time>
<speed>0.040000</speed>
<extensions>
<speed>0.0</speed>
<temp>0.00</temp>
<bpm>0</bpm>
<rpm>0.00</rpm>
</extensions>
</trkpt>
<trkpt lat="64.082008362" lon="-19.555652618">
<ele>411.593750</ele>
<time>2012-07-21T17:54:59Z</time>
<speed>0.080000</speed>
<extensions>
<speed>0.1</speed>
<temp>0.00</temp>
<bpm>0</bpm>
<rpm>0.00</rpm>
</extensions>
</trkpt>
<trkpt lat="64.082008362" lon="-19.555648804">
<ele>411.593750</ele>
<time>2012-07-21T17:55:04Z</time>
<speed>0.090000</speed>
<extensions>
<speed>0.1</speed>
<temp>0.00</temp>
<bpm>0</bpm>
<rpm>0.00</rpm>
</extensions>
</trkpt>
<trkpt lat="64.082008362" lon="-19.555641174">
<ele>411.601563</ele>
<time>2012-07-21T17:55:09Z</time>
<speed>0.040000</speed>
<extensions>
<speed>0.0</speed>
<temp>0.00</temp>
<bpm>0</bpm>
<rpm>0.00</rpm>
</extensions>
</trkpt>
<trkpt lat="64.082000732" lon="-19.555646896">
<ele>411.609375</ele>
<time>2012-07-21T17:55:14Z</time>
<speed>0.310000</speed>
<extensions>
<speed>0.3</speed>
<temp>0.00</temp>
<bpm>0</bpm>
<rpm>0.00</rpm>
</extensions>
</trkpt>
<trkpt lat="64.082000732" lon="-19.555654526">
<ele>411.445313</ele>
<time>2012-07-21T17:55:19Z</time>
<speed>0.090000</speed>
<extensions>
<speed>0.1</speed>
<temp>0.00</temp>
<bpm>0</bpm>
<rpm>0.00</rpm>
</extensions>
</trkpt>
<trkpt lat="64.081993103" lon="-19.555650711">
<ele>411.429688</ele>
<time>2012-07-21T17:55:24Z</time>
<speed>0.200000</speed>
<extensions>
<speed>0.2</speed>
<temp>0.00</temp>
<bpm>0</bpm>
<rpm>0.00</rpm>
</extensions>
</trkpt>
<trkpt lat="64.081993103" lon="-19.555660248">
<ele>411.414063</ele>
<time>2012-07-21T17:55:29Z</time>
<speed>0.140000</speed>
<extensions>
<speed>0.1</speed>
<temp>0.00</temp>
<bpm>0</bpm>
<rpm>0.00</rpm>
</extensions>
</trkpt>
<trkpt lat="64.081985474" lon="-19.555664063">
<ele>411.414063</ele>
<time>2012-07-21T17:55:34Z</time>
<speed>0.130000</speed>
<extensions>
<speed>0.1</speed>
<temp>0.00</temp>
<bpm>0</bpm>
<rpm>0.00</rpm>
</extensions>
</trkpt>
<trkpt lat="64.081985474" lon="-19.555660248">
<ele>411.421875</ele>
<time>2012-07-21T17:55:39Z</time>
<speed>0.040000</speed>
<extensions>
<speed>0.0</speed>
<temp>0.00</temp>
<bpm>0</bpm>
<rpm>0.00</rpm>
</extensions>
</trkpt>
<trkpt lat="64.081985474" lon="-19.555658340">
<ele>411.421875</ele>
<time>2012-07-21T17:55:44Z</time>
<speed>0.140000</speed>
<extensions>
<speed>0.1</speed>
<temp>0.00</temp>
<bpm>0</bpm>
<rpm>0.00</rpm>
</extensions>
</trkpt>
<trkpt lat="64.081985474" lon="-19.555652618">
<ele>411.406250</ele>
<time>2012-07-21T17:55:49Z</time>
<speed>0.110000</speed>
<extensions>
<speed>0.1</speed>
<temp>0.00</temp>
<bpm>0</bpm>
<rpm>0.00</rpm>
</extensions>
</trkpt>
<trkpt lat="64.081985474" lon="-19.555650711">
<ele>411.398438</ele>
<time>2012-07-21T17:55:54Z</time>
<speed>0.040000</speed>
<extensions>
<speed>0.0</speed>
<temp>0.00</temp>
<bpm>0</bpm>
<rpm>0.00</rpm>
</extensions>
</trkpt>
<trkpt lat="64.081985474" lon="-19.555624008">
<ele>411.296875</ele>
<time>2012-07-21T17:55:59Z</time>
<speed>0.160000</speed>
<extensions>
<speed>0.2</speed>
<temp>0.00</temp>
<bpm>0</bpm>
<rpm>0.00</rpm>
</extensions>
</trkpt>
<trkpt lat="64.081977844" lon="-19.555601120">
<ele>411.109375</ele>
<time>2012-07-21T17:56:04Z</time>
<speed>0.110000</speed>
<extensions>
<speed>0.1</speed>
<temp>0.00</temp>
<bpm>0</bpm>
<rpm>0.00</rpm>
</extensions>
</trkpt>
<trkpt lat="64.081985474" lon="-19.555597305">
<ele>411.093750</ele>
<time>2012-07-21T17:56:09Z</time>
<speed>0.140000</speed>
<extensions>
<speed>0.1</speed>
<temp>0.00</temp>
<bpm>0</bpm>
<rpm>0.00</rpm>
</extensions>
</trkpt>
<trkpt lat="64.081993103" lon="-19.555601120">
<ele>411.054688</ele>
<time>2012-07-21T17:56:14Z</time>
<speed>0.180000</speed>
<extensions>
<speed>0.2</speed>
<temp>0.00</temp>
<bpm>0</bpm>
<rpm>0.00</rpm>
</extensions>
</trkpt>
<trkpt lat="64.081993103" lon="-19.555606842">
<ele>411.046875</ele>
<time>2012-07-21T17:56:19Z</time>
<speed>0.040000</speed>
<extensions>
<speed>0.0</speed>
<temp>0.00</temp>
<bpm>0</bpm>
<rpm>0.00</rpm>
</extensions>
</trkpt>
<trkpt lat="64.081993103" lon="-19.555606842">
<ele>411.023438</ele>
<time>2012-07-21T17:56:24Z</time>
<speed>0.100000</speed>
<extensions>
<speed>0.1</speed>
<temp>0.00</temp>
<bpm>0</bpm>
<rpm>0.00</rpm>
</extensions>
</trkpt>
<trkpt lat="64.081993103" lon="-19.555620193">
<ele>411.007813</ele>
<time>2012-07-21T17:56:29Z</time>
<speed>0.110000</speed>
<extensions>
<speed>0.1</speed>
<temp>0.00</temp>
<bpm>0</bpm>
<rpm>0.00</rpm>
</extensions>
</trkpt>
<trkpt lat="64.081993103" lon="-19.555635452">
<ele>410.992188</ele>
<time>2012-07-21T17:56:34Z</time>
<speed>0.090000</speed>
<extensions>
<speed>0.1</speed>
<temp>0.00</temp>
<bpm>0</bpm>
<rpm>0.00</rpm>
</extensions>
</trkpt>
<trkpt lat="64.081993103" lon="-19.555641174">
<ele>410.976563</ele>
<time>2012-07-21T17:56:39Z</time>
<speed>0.020000</speed>
<extensions>
<speed>0.0</speed>
<temp>0.00</temp>
<bpm>0</bpm>
<rpm>0.00</rpm>
</extensions>
</trkpt>
<trkpt lat="64.081985474" lon="-19.555637360">
<ele>410.976563</ele>
<time>2012-07-21T17:56:44Z</time>
<speed>0.080000</speed>
<extensions>
<speed>0.1</speed>
<temp>0.00</temp>
<bpm>0</bpm>
<rpm>0.00</rpm>
</extensions>
</trkpt>
<trkpt lat="64.081985474" lon="-19.555635452">
<ele>410.976563</ele>
<time>2012-07-21T17:56:49Z</time>
<speed>0.010000</speed>
<extensions>
<speed>0.0</speed>
<temp>0.00</temp>
<bpm>0</bpm>
<rpm>0.00</rpm>
</extensions>
</trkpt>
<trkpt lat="64.081985474" lon="-19.555633545">
<ele>410.968750</ele>
<time>2012-07-21T17:56:54Z</time>
<speed>0.160000</speed>
<extensions>
<speed>0.2</speed>
<temp>0.00</temp>
<bpm>0</bpm>
<rpm>0.00</rpm>
</extensions>
</trkpt>
<trkpt lat="64.081985474" lon="-19.555625916">
<ele>410.953125</ele>
<time>2012-07-21T17:56:59Z</time>
<speed>0.080000</speed>
<extensions>
<speed>0.1</speed>
<temp>0.00</temp>
<bpm>0</bpm>
<rpm>0.00</rpm>
</extensions>
</trkpt>
<trkpt lat="64.081985474" lon="-19.555633545">
<ele>410.960938</ele>
<time>2012-07-21T17:57:04Z</time>
<speed>0.090000</speed>
<extensions>
<speed>0.1</speed>
<temp>0.00</temp>
<bpm>0</bpm>
<rpm>0.00</rpm>
</extensions>
</trkpt>
<trkpt lat="64.081985474" lon="-19.555650711">
<ele>410.968750</ele>
<time>2012-07-21T17:57:09Z</time>
<speed>0.190000</speed>
<extensions>
<speed>0.2</speed>
<temp>0.00</temp>
<bpm>0</bpm>
<rpm>0.00</rpm>
</extensions>
</trkpt>
<trkpt lat="64.081985474" lon="-19.555654526">
<ele>410.960938</ele>
<time>2012-07-21T17:57:14Z</time>
<speed>0.080000</speed>
<extensions>
<speed>0.1</speed>
<temp>0.00</temp>
<bpm>0</bpm>
<rpm>0.00</rpm>
</extensions>
</trkpt>
<trkpt lat="64.081985474" lon="-19.555662155">
<ele>410.953125</ele>
<time>2012-07-21T17:57:19Z</time>
<speed>0.030000</speed>
<extensions>
<speed>0.0</speed>
<temp>0.00</temp>
<bpm>0</bpm>
<rpm>0.00</rpm>
</extensions>
</trkpt>
<trkpt lat="64.081985474" lon="-19.555667877">
<ele>410.960938</ele>
<time>2012-07-21T17:57:24Z</time>
<speed>0.040000</speed>
<extensions>
<speed>0.0</speed>
<temp>0.00</temp>
<bpm>0</bpm>
<rpm>0.00</rpm>
</extensions>
</trkpt>
<trkpt lat="64.081985474" lon="-19.555660248">
<ele>410.960938</ele>
<time>2012-07-21T17:57:29Z</time>
<speed>0.060000</speed>
<extensions>
<speed>0.1</speed>
<temp>0.00</temp>
<bpm>0</bpm>
<rpm>0.00</rpm>
</extensions>
</trkpt>
<trkpt lat="64.081993103" lon="-19.555662155">
<ele>410.968750</ele>
<time>2012-07-21T17:57:34Z</time>
<speed>0.040000</speed>
<extensions>
<speed>0.0</speed>
<temp>0.00</temp>
<bpm>0</bpm>
<rpm>0.00</rpm>
</extensions>
</trkpt>
<trkpt lat="64.081985474" lon="-19.555660248">
<ele>410.953125</ele>
<time>2012-07-21T17:57:39Z</time>
<speed>0.090000</speed>
<extensions>
<speed>0.1</speed>
<temp>0.00</temp>
<bpm>0</bpm>
<rpm>0.00</rpm>
</extensions>
</trkpt>
<trkpt lat="64.081985474" lon="-19.555662155">
<ele>410.921875</ele>
<time>2012-07-21T17:57:44Z</time>
<speed>0.090000</speed>
<extensions>
<speed>0.1</speed>
<temp>0.00</temp>
<bpm>0</bpm>
<rpm>0.00</rpm>
</extensions>
</trkpt>
<trkpt lat="64.081985474" lon="-19.555667877">
<ele>410.890625</ele>
<time>2012-07-21T17:57:49Z</time>
<speed>0.070000</speed>
<extensions>
<speed>0.1</speed>
<temp>0.00</temp>
<bpm>0</bpm>
<rpm>0.00</rpm>
</extensions>
</trkpt>
<trkpt lat="64.081985474" lon="-19.555671692">
<ele>410.859375</ele>
<time>2012-07-21T17:57:54Z</time>
<speed>0.070000</speed>
<extensions>
<speed>0.1</speed>
<temp>0.00</temp>
<bpm>0</bpm>
<rpm>0.00</rpm>
</extensions>
</trkpt>
<trkpt lat="64.081985474" lon="-19.555685043">
<ele>410.851563</ele>
<time>2012-07-21T17:57:59Z</time>
<speed>0.110000</speed>
<extensions>
<speed>0.1</speed>
<temp>0.00</temp>
<bpm>0</bpm>
<rpm>0.00</rpm>
</extensions>
</trkpt>
<trkpt lat="64.081985474" lon="-19.555669785">
<ele>410.812500</ele>
<time>2012-07-21T17:58:04Z</time>
<speed>0.070000</speed>
<extensions>
<speed>0.1</speed>
<temp>0.00</temp>
<bpm>0</bpm>
<rpm>0.00</rpm>
</extensions>
</trkpt>
<trkpt lat="64.081985474" lon="-19.555683136">
<ele>410.796875</ele>
<time>2012-07-21T17:58:09Z</time>
<speed>0.060000</speed>
<extensions>
<speed>0.1</speed>
<temp>0.00</temp>
<bpm>0</bpm>
<rpm>0.00</rpm>
</extensions>
</trkpt>
<trkpt lat="64.081993103" lon="-19.555681229">
<ele>410.765625</ele>
<time>2012-07-21T17:58:14Z</time>
<speed>0.110000</speed>
<extensions>
<speed>0.1</speed>
<temp>0.00</temp>
<bpm>0</bpm>
<rpm>0.00</rpm>
</extensions>
</trkpt>
<trkpt lat="64.081993103" lon="-19.555686951">
<ele>410.750000</ele>
<time>2012-07-21T17:58:19Z</time>
<speed>0.070000</speed>
<extensions>
<speed>0.1</speed>
<temp>0.00</temp>
<bpm>0</bpm>
<rpm>0.00</rpm>
</extensions>
</trkpt>
<trkpt lat="64.081993103" lon="-19.555686951">
<ele>410.742188</ele>
<time>2012-07-21T17:58:24Z</time>
<speed>0.030000</speed>
<extensions>
<speed>0.0</speed>
<temp>0.00</temp>
<bpm>0</bpm>
<rpm>0.00</rpm>
</extensions>
</trkpt>
<trkpt lat="64.082000732" lon="-19.555688858">
<ele>410.773438</ele>
<time>2012-07-21T17:58:29Z</time>
<speed>0.020000</speed>
<extensions>
<speed>0.0</speed>
<temp>0.00</temp>
<bpm>0</bpm>
<rpm>0.00</rpm>
</extensions>
</trkpt>
<trkpt lat="64.082000732" lon="-19.555688858">
<ele>410.773438</ele>
<time>2012-07-21T17:58:34Z</time>
<speed>0.030000</speed>
<extensions>
<speed>0.0</speed>
<temp>0.00</temp>
<bpm>0</bpm>
<rpm>0.00</rpm>
</extensions>
</trkpt>
<trkpt lat="64.082000732" lon="-19.555681229">
<ele>410.750000</ele>
<time>2012-07-21T17:58:39Z</time>
<speed>0.050000</speed>
<extensions>
<speed>0.1</speed>
<temp>0.00</temp>
<bpm>0</bpm>
<rpm>0.00</rpm>
</extensions>
</trkpt>
<trkpt lat="64.082000732" lon="-19.555681229">
<ele>410.687500</ele>
<time>2012-07-21T17:58:44Z</time>
<speed>0.080000</speed>
<extensions>
<speed>0.1</speed>
<temp>0.00</temp>
<bpm>0</bpm>
<rpm>0.00</rpm>
</extensions>
</trkpt>
<trkpt lat="64.082008362" lon="-19.555681229">
<ele>410.640625</ele>
<time>2012-07-21T17:58:49Z</time>
<extensions>
<speed>0.0</speed>
<temp>0.00</temp>
<bpm>0</bpm>
<rpm>0.00</rpm>
</extensions>
</trkpt>
<trkpt lat="64.082008362" lon="-19.555681229">
<ele>410.601563</ele>
<time>2012-07-21T17:58:54Z</time>
<speed>0.020000</speed>
<extensions>
<speed>0.0</speed>
<temp>0.00</temp>
<bpm>0</bpm>
<rpm>0.00</rpm>
</extensions>
</trkpt>
<trkpt lat="64.082008362" lon="-19.555681229">
<ele>410.585938</ele>
<time>2012-07-21T17:58:59Z</time>
<speed>0.010000</speed>
<extensions>
<speed>0.0</speed>
<temp>0.00</temp>
<bpm>0</bpm>
<rpm>0.00</rpm>
</extensions>
</trkpt>
<trkpt lat="64.082008362" lon="-19.555681229">
<ele>410.578125</ele>
<time>2012-07-21T17:59:04Z</time>
<speed>0.010000</speed>
<extensions>
<speed>0.0</speed>
<temp>0.00</temp>
<bpm>0</bpm>
<rpm>0.00</rpm>
</extensions>
</trkpt>
<trkpt lat="64.082008362" lon="-19.555681229">
<ele>410.585938</ele>
<time>2012-07-21T17:59:09Z</time>
<speed>0.010000</speed>
<extensions>
<speed>0.0</speed>
<temp>0.00</temp>
<bpm>0</bpm>
<rpm>0.00</rpm>
</extensions>
</trkpt>
<trkpt lat="64.082008362" lon="-19.555681229">
<ele>410.578125</ele>
<time>2012-07-21T17:59:14Z</time>
<extensions>
<speed>0.0</speed>
<temp>0.00</temp>
<bpm>0</bpm>
<rpm>0.00</rpm>
</extensions>
</trkpt>
<trkpt lat="64.082008362" lon="-19.555681229">
<ele>410.585938</ele>
<time>2012-07-21T17:59:19Z</time>
<speed>0.010000</speed>
<extensions>
<speed>0.0</speed>
<temp>0.00</temp>
<bpm>0</bpm>
<rpm>0.00</rpm>
</extensions>
</trkpt>
<trkpt lat="64.082008362" lon="-19.555681229">
<ele>410.546875</ele>
<time>2012-07-21T17:59:24Z</time>
<extensions>
<speed>0.0</speed>
<temp>0.00</temp>
<bpm>0</bpm>
<rpm>0.00</rpm>
</extensions>
</trkpt>
<trkpt lat="64.082008362" lon="-19.555681229">
<ele>410.546875</ele>
<time>2012-07-21T17:59:29Z</time>
<speed>0.010000</speed>
<extensions>
<speed>0.0</speed>
<temp>0.00</temp>
<bpm>0</bpm>
<rpm>0.00</rpm>
</extensions>
</trkpt>
<trkpt lat="64.082008362" lon="-19.555681229">
<ele>410.562500</ele>
<time>2012-07-21T17:59:34Z</time>
<extensions>
<speed>0.0</speed>
<temp>0.00</temp>
<bpm>0</bpm>
<rpm>0.00</rpm>
</extensions>
</trkpt>
<trkpt lat="64.082008362" lon="-19.555681229">
<ele>410.554688</ele>
<time>2012-07-21T17:59:39Z</time>
<extensions>
<speed>0.0</speed>
<temp>0.00</temp>
<bpm>0</bpm>
<rpm>0.00</rpm>
</extensions>
</trkpt>
<trkpt lat="64.082008362" lon="-19.555681229">
<ele>410.531250</ele>
<time>2012-07-21T17:59:44Z</time>
<speed>0.010000</speed>
<extensions>
<speed>0.0</speed>
<temp>0.00</temp>
<bpm>0</bpm>
<rpm>0.00</rpm>
</extensions>
</trkpt>
<trkpt lat="64.082008362" lon="-19.555681229">
<ele>410.523438</ele>
<time>2012-07-21T17:59:49Z</time>
<speed>0.020000</speed>
<extensions>
<speed>0.0</speed>
<temp>0.00</temp>
<bpm>0</bpm>
<rpm>0.00</rpm>
</extensions>
</trkpt>
<trkpt lat="64.082008362" lon="-19.555681229">
<ele>410.523438</ele>
<time>2012-07-21T17:59:54Z</time>
<speed>0.010000</speed>
<extensions>
<speed>0.0</speed>
<temp>0.00</temp>
<bpm>0</bpm>
<rpm>0.00</rpm>
</extensions>
</trkpt>
<trkpt lat="64.082008362" lon="-19.555681229">
<ele>410.531250</ele>
<time>2012-07-21T17:59:59Z</time>
<speed>0.010000</speed>
<extensions>
<speed>0.0</speed>
<temp>0.00</temp>
<bpm>0</bpm>
<rpm>0.00</rpm>
</extensions>
</trkpt>
<trkpt lat="64.082008362" lon="-19.555681229">
<ele>410.523438</ele>
<time>2012-07-21T18:00:04Z</time>
<speed>0.010000</speed>
<extensions>
<speed>0.0</speed>
<temp>0.00</temp>
<bpm>0</bpm>
<rpm>0.00</rpm>
</extensions>
</trkpt>
<trkpt lat="64.082008362" lon="-19.555681229">
<ele>410.500000</ele>
<time>2012-07-21T18:00:09Z</time>
<speed>0.030000</speed>
<extensions>
<speed>0.0</speed>
<temp>0.00</temp>
<bpm>0</bpm>
<rpm>0.00</rpm>
</extensions>
</trkpt>
<trkpt lat="64.082008362" lon="-19.555681229">
<ele>410.492188</ele>
<time>2012-07-21T18:00:14Z</time>
<speed>0.010000</speed>
<extensions>
<speed>0.0</speed>
<temp>0.00</temp>
<bpm>0</bpm>
<rpm>0.00</rpm>
</extensions>
</trkpt>
<trkpt lat="64.082008362" lon="-19.555681229">
<ele>410.468750</ele>
<time>2012-07-21T18:00:19Z</time>
<extensions>
<speed>0.0</speed>
<temp>0.00</temp>
<bpm>0</bpm>
<rpm>0.00</rpm>
</extensions>
</trkpt>
<trkpt lat="64.082008362" lon="-19.555681229">
<ele>410.453125</ele>
<time>2012-07-21T18:00:24Z</time>
<speed>0.010000</speed>
<extensions>
<speed>0.0</speed>
<temp>0.00</temp>
<bpm>0</bpm>
<rpm>0.00</rpm>
</extensions>
</trkpt>
<trkpt lat="64.082008362" lon="-19.555681229">
<ele>410.445313</ele>
<time>2012-07-21T18:00:29Z</time>
<speed>0.010000</speed>
<extensions>
<speed>0.0</speed>
<temp>0.00</temp>
<bpm>0</bpm>
<rpm>0.00</rpm>
</extensions>
</trkpt>
<trkpt lat="64.082008362" lon="-19.555681229">
<ele>410.414063</ele>
<time>2012-07-21T18:00:34Z</time>
<extensions>
<speed>0.0</speed>
<temp>0.00</temp>
<bpm>0</bpm>
<rpm>0.00</rpm>
</extensions>
</trkpt>
<trkpt lat="64.082008362" lon="-19.555681229">
<ele>410.382813</ele>
<time>2012-07-21T18:00:39Z</time>
<speed>0.010000</speed>
<extensions>
<speed>0.0</speed>
<temp>0.00</temp>
<bpm>0</bpm>
<rpm>0.00</rpm>
</extensions>
</trkpt>
<trkpt lat="64.082008362" lon="-19.555681229">
<ele>410.367188</ele>
<time>2012-07-21T18:00:44Z</time>
<speed>0.020000</speed>
<extensions>
<speed>0.0</speed>
<temp>0.00</temp>
<bpm>0</bpm>
<rpm>0.00</rpm>
</extensions>
</trkpt>
<trkpt lat="64.082008362" lon="-19.555681229">
<ele>410.367188</ele>
<time>2012-07-21T18:00:49Z</time>
<extensions>
<speed>0.0</speed>
<temp>0.00</temp>
<bpm>0</bpm>
<rpm>0.00</rpm>
</extensions>
</trkpt>
<trkpt lat="64.082008362" lon="-19.555681229">
<ele>410.382813</ele>
<time>2012-07-21T18:00:54Z</time>
<extensions>
<speed>0.0</speed>
<temp>0.00</temp>
<bpm>0</bpm>
<rpm>0.00</rpm>
</extensions>
</trkpt>
<trkpt lat="64.082008362" lon="-19.555681229">
<ele>410.382813</ele>
<time>2012-07-21T18:00:59Z</time>
<speed>0.010000</speed>
<extensions>
<speed>0.0</speed>
<temp>0.00</temp>
<bpm>0</bpm>
<rpm>0.00</rpm>
</extensions>
</trkpt>
<trkpt lat="64.082008362" lon="-19.555679321">
<ele>410.382813</ele>
<time>2012-07-21T18:01:04Z</time>
<speed>0.010000</speed>
<extensions>
<speed>0.0</speed>
<temp>0.00</temp>
<bpm>0</bpm>
<rpm>0.00</rpm>
</extensions>
</trkpt>
<trkpt lat="64.082008362" lon="-19.555679321">
<ele>410.367188</ele>
<time>2012-07-21T18:01:09Z</time>
<speed>0.010000</speed>
<extensions>
<speed>0.0</speed>
<temp>0.00</temp>
<bpm>0</bpm>
<rpm>0.00</rpm>
</extensions>
</trkpt>
<trkpt lat="64.082008362" lon="-19.555681229">
<ele>410.382813</ele>
<time>2012-07-21T18:01:14Z</time>
<speed>0.010000</speed>
<extensions>
<speed>0.0</speed>
<temp>0.00</temp>
<bpm>0</bpm>
<rpm>0.00</rpm>
</extensions>
</trkpt>
<trkpt lat="64.082008362" lon="-19.555681229">
<ele>410.390625</ele>
<time>2012-07-21T18:01:19Z</time>
<speed>0.010000</speed>
<extensions>
<speed>0.0</speed>
<temp>0.00</temp>
<bpm>0</bpm>
<rpm>0.00</rpm>
</extensions>
</trkpt>
<trkpt lat="64.082008362" lon="-19.555681229">
<ele>410.382813</ele>
<time>2012-07-21T18:01:24Z</time>
<speed>0.010000</speed>
<extensions>
<speed>0.0</speed>
<temp>0.00</temp>
<bpm>0</bpm>
<rpm>0.00</rpm>
</extensions>
</trkpt>
<trkpt lat="64.082008362" lon="-19.555681229">
<ele>410.390625</ele>
<time>2012-07-21T18:01:29Z</time>
<extensions>
<speed>0.0</speed>
<temp>0.00</temp>
<bpm>0</bpm>
<rpm>0.00</rpm>
</extensions>
</trkpt>
<trkpt lat="64.082008362" lon="-19.555681229">
<ele>410.390625</ele>
<time>2012-07-21T18:01:34Z</time>
<speed>0.010000</speed>
<extensions>
<speed>0.0</speed>
<temp>0.00</temp>
<bpm>0</bpm>
<rpm>0.00</rpm>
</extensions>
</trkpt>
<trkpt lat="64.082008362" lon="-19.555681229">
<ele>410.382813</ele>
<time>2012-07-21T18:01:39Z</time>
<speed>0.010000</speed>
<extensions>
<speed>0.0</speed>
<temp>0.00</temp>
<bpm>0</bpm>
<rpm>0.00</rpm>
</extensions>
</trkpt>
<trkpt lat="64.082008362" lon="-19.555679321">
<ele>410.390625</ele>
<time>2012-07-21T18:01:44Z</time>
<speed>0.010000</speed>
<extensions>
<speed>0.0</speed>
<temp>0.00</temp>
<bpm>0</bpm>
<rpm>0.00</rpm>
</extensions>
</trkpt>
<trkpt lat="64.082008362" lon="-19.555679321">
<ele>410.382813</ele>
<time>2012-07-21T18:01:49Z</time>
<speed>0.010000</speed>
<extensions>
<speed>0.0</speed>
<temp>0.00</temp>
<bpm>0</bpm>
<rpm>0.00</rpm>
</extensions>
</trkpt>
<trkpt lat="64.082008362" lon="-19.555679321">
<ele>410.382813</ele>
<time>2012-07-21T18:01:54Z</time>
<extensions>
<speed>0.0</speed>
<temp>0.00</temp>
<bpm>0</bpm>
<rpm>0.00</rpm>
</extensions>
</trkpt>
<trkpt lat="64.082008362" lon="-19.555679321">
<ele>410.375000</ele>
<time>2012-07-21T18:01:59Z</time>
<extensions>
<speed>0.0</speed>
<temp>0.00</temp>
<bpm>0</bpm>
<rpm>0.00</rpm>
</extensions>
</trkpt>
<trkpt lat="64.082008362" lon="-19.555679321">
<ele>410.367188</ele>
<time>2012-07-21T18:02:04Z</time>
<extensions>
<speed>0.0</speed>
<temp>0.00</temp>
<bpm>0</bpm>
<rpm>0.00</rpm>
</extensions>
</trkpt>
<trkpt lat="64.082008362" lon="-19.555679321">
<ele>410.367188</ele>
<time>2012-07-21T18:02:09Z</time>
<extensions>
<speed>0.0</speed>
<temp>0.00</temp>
<bpm>0</bpm>
<rpm>0.00</rpm>
</extensions>
</trkpt>
<trkpt lat="64.082008362" lon="-19.555679321">
<ele>410.375000</ele>
<time>2012-07-21T18:02:14Z</time>
<speed>0.010000</speed>
<extensions>
<speed>0.0</speed>
<temp>0.00</temp>
<bpm>0</bpm>
<rpm>0.00</rpm>
</extensions>
</trkpt>
<trkpt lat="64.082008362" lon="-19.555679321">
<ele>410.367188</ele>
<time>2012-07-21T18:02:19Z</time>
<extensions>
<speed>0.0</speed>
<temp>0.00</temp>
<bpm>0</bpm>
<rpm>0.00</rpm>
</extensions>
</trkpt>
<trkpt lat="64.082008362" lon="-19.555679321">
<ele>410.375000</ele>
<time>2012-07-21T18:02:24Z</time>
<speed>0.010000</speed>
<extensions>
<speed>0.0</speed>
<temp>0.00</temp>
<bpm>0</bpm>
<rpm>0.00</rpm>
</extensions>
</trkpt>
<trkpt lat="64.082008362" lon="-19.555679321">
<ele>410.367188</ele>
<time>2012-07-21T18:02:29Z</time>
<extensions>
<speed>0.0</speed>
<temp>0.00</temp>
<bpm>0</bpm>
<rpm>0.00</rpm>
</extensions>
</trkpt>
<trkpt lat="64.082008362" lon="-19.555679321">
<ele>410.367188</ele>
<time>2012-07-21T18:02:34Z</time>
<extensions>
<speed>0.0</speed>
<temp>0.00</temp>
<bpm>0</bpm>
<rpm>0.00</rpm>
</extensions>
</trkpt>
<trkpt lat="64.082008362" lon="-19.555679321">
<ele>410.359375</ele>
<time>2012-07-21T18:02:39Z</time>
<extensions>
<speed>0.0</speed>
<temp>0.00</temp>
<bpm>0</bpm>
<rpm>0.00</rpm>
</extensions>
</trkpt>
<trkpt lat="64.082008362" lon="-19.555679321">
<ele>410.359375</ele>
<time>2012-07-21T18:02:44Z</time>
<extensions>
<speed>0.0</speed>
<temp>0.00</temp>
<bpm>0</bpm>
<rpm>0.00</rpm>
</extensions>
</trkpt>
<trkpt lat="64.082008362" lon="-19.555677414">
<ele>410.367188</ele>
<time>2012-07-21T18:02:49Z</time>
<extensions>
<speed>0.0</speed>
<temp>0.00</temp>
<bpm>0</bpm>
<rpm>0.00</rpm>
</extensions>
</trkpt>
<trkpt lat="64.082008362" lon="-19.555677414">
<ele>410.367188</ele>
<time>2012-07-21T18:02:54Z</time>
<speed>0.010000</speed>
<extensions>
<speed>0.0</speed>
<temp>0.00</temp>
<bpm>0</bpm>
<rpm>0.00</rpm>
</extensions>
</trkpt>
<trkpt lat="64.082008362" lon="-19.555677414">
<ele>410.359375</ele>
<time>2012-07-21T18:02:59Z</time>
<speed>0.010000</speed>
<extensions>
<speed>0.0</speed>
<temp>0.00</temp>
<bpm>0</bpm>
<rpm>0.00</rpm>
</extensions>
</trkpt>
<trkpt lat="64.082008362" lon="-19.555677414">
<ele>410.359375</ele>
<time>2012-07-21T18:03:04Z</time>
<extensions>
<speed>0.0</speed>
<temp>0.00</temp>
<bpm>0</bpm>
<rpm>0.00</rpm>
</extensions>
</trkpt>
<trkpt lat="64.082008362" lon="-19.555677414">
<ele>410.359375</ele>
<time>2012-07-21T18:03:09Z</time>
<extensions>
<speed>0.0</speed>
<temp>0.00</temp>
<bpm>0</bpm>
<rpm>0.00</rpm>
</extensions>
</trkpt>
<trkpt lat="64.082008362" lon="-19.555677414">
<ele>410.359375</ele>
<time>2012-07-21T18:03:14Z</time>
<extensions>
<speed>0.0</speed>
<temp>0.00</temp>
<bpm>0</bpm>
<rpm>0.00</rpm>
</extensions>
</trkpt>
<trkpt lat="64.082008362" lon="-19.555679321">
<ele>410.359375</ele>
<time>2012-07-21T18:03:19Z</time>
<speed>0.010000</speed>
<extensions>
<speed>0.0</speed>
<temp>0.00</temp>
<bpm>0</bpm>
<rpm>0.00</rpm>
</extensions>
</trkpt>
<trkpt lat="64.082008362" lon="-19.555677414">
<ele>410.351563</ele>
<time>2012-07-21T18:03:24Z</time>
<extensions>
<speed>0.0</speed>
<temp>0.00</temp>
<bpm>0</bpm>
<rpm>0.00</rpm>
</extensions>
</trkpt>
<trkpt lat="64.082008362" lon="-19.555677414">
<ele>410.351563</ele>
<time>2012-07-21T18:03:29Z</time>
<extensions>
<speed>0.0</speed>
<temp>0.00</temp>
<bpm>0</bpm>
<rpm>0.00</rpm>
</extensions>
</trkpt>
<trkpt lat="64.082008362" lon="-19.555677414">
<ele>410.351563</ele>
<time>2012-07-21T18:03:34Z</time>
<extensions>
<speed>0.0</speed>
<temp>0.00</temp>
<bpm>0</bpm>
<rpm>0.00</rpm>
</extensions>
</trkpt>
<trkpt lat="64.082008362" lon="-19.555677414">
<ele>410.351563</ele>
<time>2012-07-21T18:03:39Z</time>
<speed>0.010000</speed>
<extensions>
<speed>0.0</speed>
<temp>0.00</temp>
<bpm>0</bpm>
<rpm>0.00</rpm>
</extensions>
</trkpt>
<trkpt lat="64.082008362" lon="-19.555677414">
<ele>410.351563</ele>
<time>2012-07-21T18:03:44Z</time>
<speed>0.010000</speed>
<extensions>
<speed>0.0</speed>
<temp>0.00</temp>
<bpm>0</bpm>
<rpm>0.00</rpm>
</extensions>
</trkpt>
<trkpt lat="64.082008362" lon="-19.555677414">
<ele>410.343750</ele>
<time>2012-07-21T18:03:49Z</time>
<extensions>
<speed>0.0</speed>
<temp>0.00</temp>
<bpm>0</bpm>
<rpm>0.00</rpm>
</extensions>
</trkpt>
<trkpt lat="64.082008362" lon="-19.555677414">
<ele>410.343750</ele>
<time>2012-07-21T18:03:54Z</time>
<extensions>
<speed>0.0</speed>
<temp>0.00</temp>
<bpm>0</bpm>
<rpm>0.00</rpm>
</extensions>
</trkpt>
<trkpt lat="64.082008362" lon="-19.555677414">
<ele>410.335938</ele>
<time>2012-07-21T18:03:59Z</time>
<extensions>
<speed>0.0</speed>
<temp>0.00</temp>
<bpm>0</bpm>
<rpm>0.00</rpm>
</extensions>
</trkpt>
<trkpt lat="64.082008362" lon="-19.555677414">
<ele>410.328125</ele>
<time>2012-07-21T18:04:04Z</time>
<speed>0.010000</speed>
<extensions>
<speed>0.0</speed>
<temp>0.00</temp>
<bpm>0</bpm>
<rpm>0.00</rpm>
</extensions>
</trkpt>
<trkpt lat="64.082008362" lon="-19.555677414">
<ele>410.328125</ele>
<time>2012-07-21T18:04:09Z</time>
<extensions>
<speed>0.0</speed>
<temp>0.00</temp>
<bpm>0</bpm>
<rpm>0.00</rpm>
</extensions>
</trkpt>
<trkpt lat="64.082008362" lon="-19.555677414">
<ele>410.320313</ele>
<time>2012-07-21T18:04:14Z</time>
<extensions>
<speed>0.0</speed>
<temp>0.00</temp>
<bpm>0</bpm>
<rpm>0.00</rpm>
</extensions>
</trkpt>
<trkpt lat="64.082008362" lon="-19.555677414">
<ele>410.320313</ele>
<time>2012-07-21T18:04:19Z</time>
<speed>0.020000</speed>
<extensions>
<speed>0.0</speed>
<temp>0.00</temp>
<bpm>0</bpm>
<rpm>0.00</rpm>
</extensions>
</trkpt>
<trkpt lat="64.082008362" lon="-19.555677414">
<ele>410.320313</ele>
<time>2012-07-21T18:04:24Z</time>
<extensions>
<speed>0.0</speed>
<temp>0.00</temp>
<bpm>0</bpm>
<rpm>0.00</rpm>
</extensions>
</trkpt>
<trkpt lat="64.082008362" lon="-19.555677414">
<ele>410.328125</ele>
<time>2012-07-21T18:04:29Z</time>
<speed>0.010000</speed>
<extensions>
<speed>0.0</speed>
<temp>0.00</temp>
<bpm>0</bpm>
<rpm>0.00</rpm>
</extensions>
</trkpt>
<trkpt lat="64.082008362" lon="-19.555677414">
<ele>410.328125</ele>
<time>2012-07-21T18:04:34Z</time>
<extensions>
<speed>0.0</speed>
<temp>0.00</temp>
<bpm>0</bpm>
<rpm>0.00</rpm>
</extensions>
</trkpt>
<trkpt lat="64.082008362" lon="-19.555677414">
<ele>410.328125</ele>
<time>2012-07-21T18:04:39Z</time>
<speed>0.010000</speed>
<extensions>
<speed>0.0</speed>
<temp>0.00</temp>
<bpm>0</bpm>
<rpm>0.00</rpm>
</extensions>
</trkpt>
<trkpt lat="64.082008362" lon="-19.555677414">
<ele>410.335938</ele>
<time>2012-07-21T18:04:44Z</time>
<extensions>
<speed>0.0</speed>
<temp>0.00</temp>
<bpm>0</bpm>
<rpm>0.00</rpm>
</extensions>
</trkpt>
<trkpt lat="64.082008362" lon="-19.555677414">
<ele>410.335938</ele>
<time>2012-07-21T18:04:49Z</time>
<extensions>
<speed>0.0</speed>
<temp>0.00</temp>
<bpm>0</bpm>
<rpm>0.00</rpm>
</extensions>
</trkpt>
<trkpt lat="64.082008362" lon="-19.555677414">
<ele>410.335938</ele>
<time>2012-07-21T18:04:54Z</time>
<speed>0.010000</speed>
<extensions>
<speed>0.0</speed>
<temp>0.00</temp>
<bpm>0</bpm>
<rpm>0.00</rpm>
</extensions>
</trkpt>
<trkpt lat="64.082008362" lon="-19.555677414">
<ele>410.328125</ele>
<time>2012-07-21T18:04:59Z</time>
<speed>0.010000</speed>
<extensions>
<speed>0.0</speed>
<temp>0.00</temp>
<bpm>0</bpm>
<rpm>0.00</rpm>
</extensions>
</trkpt>
<trkpt lat="64.082008362" lon="-19.555677414">
<ele>410.328125</ele>
<time>2012-07-21T18:05:04Z</time>
<extensions>
<speed>0.0</speed>
<temp>0.00</temp>
<bpm>0</bpm>
<rpm>0.00</rpm>
</extensions>
</trkpt>
<trkpt lat="64.082008362" lon="-19.555677414">
<ele>410.320313</ele>
<time>2012-07-21T18:05:09Z</time>
<speed>0.010000</speed>
<extensions>
<speed>0.0</speed>
<temp>0.00</temp>
<bpm>0</bpm>
<rpm>0.00</rpm>
</extensions>
</trkpt>
<trkpt lat="64.082008362" lon="-19.555677414">
<ele>410.320313</ele>
<time>2012-07-21T18:05:14Z</time>
<extensions>
<speed>0.0</speed>
<temp>0.00</temp>
<bpm>0</bpm>
<rpm>0.00</rpm>
</extensions>
</trkpt>
<trkpt lat="64.082008362" lon="-19.555677414">
<ele>410.320313</ele>
<time>2012-07-21T18:05:19Z</time>
<extensions>
<speed>0.0</speed>
<temp>0.00</temp>
<bpm>0</bpm>
<rpm>0.00</rpm>
</extensions>
</trkpt>
<trkpt lat="64.082008362" lon="-19.555677414">
<ele>410.320313</ele>
<time>2012-07-21T18:05:24Z</time>
<speed>0.010000</speed>
<extensions>
<speed>0.0</speed>
<temp>0.00</temp>
<bpm>0</bpm>
<rpm>0.00</rpm>
</extensions>
</trkpt>
<trkpt lat="64.082008362" lon="-19.555677414">
<ele>410.320313</ele>
<time>2012-07-21T18:05:29Z</time>
<extensions>
<speed>0.0</speed>
<temp>0.00</temp>
<bpm>0</bpm>
<rpm>0.00</rpm>
</extensions>
</trkpt>
<trkpt lat="64.082008362" lon="-19.555677414">
<ele>410.312500</ele>
<time>2012-07-21T18:05:34Z</time>
<extensions>
<speed>0.0</speed>
<temp>0.00</temp>
<bpm>0</bpm>
<rpm>0.00</rpm>
</extensions>
</trkpt>
<trkpt lat="64.082008362" lon="-19.555677414">
<ele>410.312500</ele>
<time>2012-07-21T18:05:39Z</time>
<speed>0.010000</speed>
<extensions>
<speed>0.0</speed>
<temp>0.00</temp>
<bpm>0</bpm>
<rpm>0.00</rpm>
</extensions>
</trkpt>
<trkpt lat="64.082008362" lon="-19.555675507">
<ele>410.304688</ele>
<time>2012-07-21T18:05:44Z</time>
<speed>0.010000</speed>
<extensions>
<speed>0.0</speed>
<temp>0.00</temp>
<bpm>0</bpm>
<rpm>0.00</rpm>
</extensions>
</trkpt>
<trkpt lat="64.082008362" lon="-19.555675507">
<ele>410.304688</ele>
<time>2012-07-21T18:05:49Z</time>
<extensions>
<speed>0.0</speed>
<temp>0.00</temp>
<bpm>0</bpm>
<rpm>0.00</rpm>
</extensions>
</trkpt>
<trkpt lat="64.082008362" lon="-19.555677414">
<ele>410.296875</ele>
<time>2012-07-21T18:05:54Z</time>
<extensions>
<speed>0.0</speed>
<temp>0.00</temp>
<bpm>0</bpm>
<rpm>0.00</rpm>
</extensions>
</trkpt>
<trkpt lat="64.082008362" lon="-19.555677414">
<ele>410.304688</ele>
<time>2012-07-21T18:05:59Z</time>
<extensions>
<speed>0.0</speed>
<temp>0.00</temp>
<bpm>0</bpm>
<rpm>0.00</rpm>
</extensions>
</trkpt>
<trkpt lat="64.082008362" lon="-19.555677414">
<ele>410.304688</ele>
<time>2012-07-21T18:06:04Z</time>
<extensions>
<speed>0.0</speed>
<temp>0.00</temp>
<bpm>0</bpm>
<rpm>0.00</rpm>
</extensions>
</trkpt>
<trkpt lat="64.082008362" lon="-19.555677414">
<ele>410.304688</ele>
<time>2012-07-21T18:06:09Z</time>
<extensions>
<speed>0.0</speed>
<temp>0.00</temp>
<bpm>0</bpm>
<rpm>0.00</rpm>
</extensions>
</trkpt>
<trkpt lat="64.082008362" lon="-19.555677414">
<ele>410.304688</ele>
<time>2012-07-21T18:06:14Z</time>
<extensions>
<speed>0.0</speed>
<temp>0.00</temp>
<bpm>0</bpm>
<rpm>0.00</rpm>
</extensions>
</trkpt>
<trkpt lat="64.082008362" lon="-19.555677414">
<ele>410.304688</ele>
<time>2012-07-21T18:06:19Z</time>
<speed>0.010000</speed>
<extensions>
<speed>0.0</speed>
<temp>0.00</temp>
<bpm>0</bpm>
<rpm>0.00</rpm>
</extensions>
</trkpt>
<trkpt lat="64.082008362" lon="-19.555677414">
<ele>410.304688</ele>
<time>2012-07-21T18:06:24Z</time>
<extensions>
<speed>0.0</speed>
<temp>0.00</temp>
<bpm>0</bpm>
<rpm>0.00</rpm>
</extensions>
</trkpt>
<trkpt lat="64.082008362" lon="-19.555677414">
<ele>410.304688</ele>
<time>2012-07-21T18:06:29Z</time>
<extensions>
<speed>0.0</speed>
<temp>0.00</temp>
<bpm>0</bpm>
<rpm>0.00</rpm>
</extensions>
</trkpt>
<trkpt lat="64.082008362" lon="-19.555677414">
<ele>410.312500</ele>
<time>2012-07-21T18:06:34Z</time>
<speed>0.010000</speed>
<extensions>
<speed>0.0</speed>
<temp>0.00</temp>
<bpm>0</bpm>
<rpm>0.00</rpm>
</extensions>
</trkpt>
<trkpt lat="64.082008362" lon="-19.555677414">
<ele>410.320313</ele>
<time>2012-07-21T18:06:39Z</time>
<speed>0.010000</speed>
<extensions>
<speed>0.0</speed>
<temp>0.00</temp>
<bpm>0</bpm>
<rpm>0.00</rpm>
</extensions>
</trkpt>
<trkpt lat="64.082008362" lon="-19.555677414">
<ele>410.320313</ele>
<time>2012-07-21T18:06:44Z</time>
<speed>0.010000</speed>
<extensions>
<speed>0.0</speed>
<temp>0.00</temp>
<bpm>0</bpm>
<rpm>0.00</rpm>
</extensions>
</trkpt>
<trkpt lat="64.082008362" lon="-19.555677414">
<ele>410.320313</ele>
<time>2012-07-21T18:06:49Z</time>
<extensions>
<speed>0.0</speed>
<temp>0.00</temp>
<bpm>0</bpm>
<rpm>0.00</rpm>
</extensions>
</trkpt>
<trkpt lat="64.082008362" lon="-19.555677414">
<ele>410.320313</ele>
<time>2012-07-21T18:06:54Z</time>
<speed>0.010000</speed>
<extensions>
<speed>0.0</speed>
<temp>0.00</temp>
<bpm>0</bpm>
<rpm>0.00</rpm>
</extensions>
</trkpt>
<trkpt lat="64.082008362" lon="-19.555677414">
<ele>410.320313</ele>
<time>2012-07-21T18:06:59Z</time>
<extensions>
<speed>0.0</speed>
<temp>0.00</temp>
<bpm>0</bpm>
<rpm>0.00</rpm>
</extensions>
</trkpt>
<trkpt lat="64.082008362" lon="-19.555677414">
<ele>410.320313</ele>
<time>2012-07-21T18:07:04Z</time>
<speed>0.010000</speed>
<extensions>
<speed>0.0</speed>
<temp>0.00</temp>
<bpm>0</bpm>
<rpm>0.00</rpm>
</extensions>
</trkpt>
<trkpt lat="64.082008362" lon="-19.555677414">
<ele>410.320313</ele>
<time>2012-07-21T18:07:09Z</time>
<speed>0.010000</speed>
<extensions>
<speed>0.0</speed>
<temp>0.00</temp>
<bpm>0</bpm>
<rpm>0.00</rpm>
</extensions>
</trkpt>
<trkpt lat="64.082008362" lon="-19.555677414">
<ele>410.335938</ele>
<time>2012-07-21T18:07:14Z</time>
<extensions>
<speed>0.0</speed>
<temp>0.00</temp>
<bpm>0</bpm>
<rpm>0.00</rpm>
</extensions>
</trkpt>
<trkpt lat="64.082008362" lon="-19.555677414">
<ele>410.335938</ele>
<time>2012-07-21T18:07:19Z</time>
<speed>0.010000</speed>
<extensions>
<speed>0.0</speed>
<temp>0.00</temp>
<bpm>0</bpm>
<rpm>0.00</rpm>
</extensions>
</trkpt>
<trkpt lat="64.082008362" lon="-19.555677414">
<ele>410.351563</ele>
<time>2012-07-21T18:07:24Z</time>
<speed>0.010000</speed>
<extensions>
<speed>0.0</speed>
<temp>0.00</temp>
<bpm>0</bpm>
<rpm>0.00</rpm>
</extensions>
</trkpt>
<trkpt lat="64.082008362" lon="-19.555677414">
<ele>410.351563</ele>
<time>2012-07-21T18:07:29Z</time>
<speed>0.010000</speed>
<extensions>
<speed>0.0</speed>
<temp>0.00</temp>
<bpm>0</bpm>
<rpm>0.00</rpm>
</extensions>
</trkpt>
<trkpt lat="64.082008362" lon="-19.555677414">
<ele>410.343750</ele>
<time>2012-07-21T18:07:34Z</time>
<extensions>
<speed>0.0</speed>
<temp>0.00</temp>
<bpm>0</bpm>
<rpm>0.00</rpm>
</extensions>
</trkpt>
<trkpt lat="64.082008362" lon="-19.555677414">
<ele>410.351563</ele>
<time>2012-07-21T18:07:39Z</time>
<extensions>
<speed>0.0</speed>
<temp>0.00</temp>
<bpm>0</bpm>
<rpm>0.00</rpm>
</extensions>
</trkpt>
<trkpt lat="64.082008362" lon="-19.555677414">
<ele>410.351563</ele>
<time>2012-07-21T18:07:44Z</time>
<extensions>
<speed>0.0</speed>
<temp>0.00</temp>
<bpm>0</bpm>
<rpm>0.00</rpm>
</extensions>
</trkpt>
<trkpt lat="64.082008362" lon="-19.555677414">
<ele>410.343750</ele>
<time>2012-07-21T18:07:49Z</time>
<speed>0.010000</speed>
<extensions>
<speed>0.0</speed>
<temp>0.00</temp>
<bpm>0</bpm>
<rpm>0.00</rpm>
</extensions>
</trkpt>
<trkpt lat="64.082008362" lon="-19.555677414">
<ele>410.359375</ele>
<time>2012-07-21T18:07:54Z</time>
<extensions>
<speed>0.0</speed>
<temp>0.00</temp>
<bpm>0</bpm>
<rpm>0.00</rpm>
</extensions>
</trkpt>
<trkpt lat="64.082008362" lon="-19.555677414">
<ele>410.343750</ele>
<time>2012-07-21T18:07:59Z</time>
<speed>0.010000</speed>
<extensions>
<speed>0.0</speed>
<temp>0.00</temp>
<bpm>0</bpm>
<rpm>0.00</rpm>
</extensions>
</trkpt>
<trkpt lat="64.082008362" lon="-19.555677414">
<ele>410.328125</ele>
<time>2012-07-21T18:08:04Z</time>
<speed>0.010000</speed>
<extensions>
<speed>0.0</speed>
<temp>0.00</temp>
<bpm>0</bpm>
<rpm>0.00</rpm>
</extensions>
</trkpt>
<trkpt lat="64.082008362" lon="-19.555677414">
<ele>410.335938</ele>
<time>2012-07-21T18:08:09Z</time>
<speed>0.010000</speed>
<extensions>
<speed>0.0</speed>
<temp>0.00</temp>
<bpm>0</bpm>
<rpm>0.00</rpm>
</extensions>
</trkpt>
<trkpt lat="64.082008362" lon="-19.555677414">
<ele>410.328125</ele>
<time>2012-07-21T18:08:14Z</time>
<extensions>
<speed>0.0</speed>
<temp>0.00</temp>
<bpm>0</bpm>
<rpm>0.00</rpm>
</extensions>
</trkpt>
<trkpt lat="64.082008362" lon="-19.555677414">
<ele>410.312500</ele>
<time>2012-07-21T18:08:19Z</time>
<speed>0.010000</speed>
<extensions>
<speed>0.0</speed>
<temp>0.00</temp>
<bpm>0</bpm>
<rpm>0.00</rpm>
</extensions>
</trkpt>
<trkpt lat="64.082008362" lon="-19.555677414">
<ele>410.304688</ele>
<time>2012-07-21T18:08:24Z</time>
<extensions>
<speed>0.0</speed>
<temp>0.00</temp>
<bpm>0</bpm>
<rpm>0.00</rpm>
</extensions>
</trkpt>
<trkpt lat="64.082008362" lon="-19.555677414">
<ele>410.304688</ele>
<time>2012-07-21T18:08:29Z</time>
<extensions>
<speed>0.0</speed>
<temp>0.00</temp>
<bpm>0</bpm>
<rpm>0.00</rpm>
</extensions>
</trkpt>
<trkpt lat="64.082008362" lon="-19.555677414">
<ele>410.296875</ele>
<time>2012-07-21T18:08:34Z</time>
<speed>0.010000</speed>
<extensions>
<speed>0.0</speed>
<temp>0.00</temp>
<bpm>0</bpm>
<rpm>0.00</rpm>
</extensions>
</trkpt>
<trkpt lat="64.082008362" lon="-19.555675507">
<ele>410.281250</ele>
<time>2012-07-21T18:08:39Z</time>
<extensions>
<speed>0.0</speed>
<temp>0.00</temp>
<bpm>0</bpm>
<rpm>0.00</rpm>
</extensions>
</trkpt>
<trkpt lat="64.082008362" lon="-19.555677414">
<ele>410.273438</ele>
<time>2012-07-21T18:08:44Z</time>
<speed>0.010000</speed>
<extensions>
<speed>0.0</speed>
<temp>0.00</temp>
<bpm>0</bpm>
<rpm>0.00</rpm>
</extensions>
</trkpt>
<trkpt lat="64.082008362" lon="-19.555675507">
<ele>410.250000</ele>
<time>2012-07-21T18:08:49Z</time>
<extensions>
<speed>0.0</speed>
<temp>0.00</temp>
<bpm>0</bpm>
<rpm>0.00</rpm>
</extensions>
</trkpt>
<trkpt lat="64.082008362" lon="-19.555675507">
<ele>410.242188</ele>
<time>2012-07-21T18:08:54Z</time>
<extensions>
<speed>0.0</speed>
<temp>0.00</temp>
<bpm>0</bpm>
<rpm>0.00</rpm>
</extensions>
</trkpt>
<trkpt lat="64.082008362" lon="-19.555675507">
<ele>410.250000</ele>
<time>2012-07-21T18:08:59Z</time>
<extensions>
<speed>0.0</speed>
<temp>0.00</temp>
<bpm>0</bpm>
<rpm>0.00</rpm>
</extensions>
</trkpt>
<trkpt lat="64.082008362" lon="-19.555675507">
<ele>410.234375</ele>
<time>2012-07-21T18:09:04Z</time>
<extensions>
<speed>0.0</speed>
<temp>0.00</temp>
<bpm>0</bpm>
<rpm>0.00</rpm>
</extensions>
</trkpt>
<trkpt lat="64.082008362" lon="-19.555675507">
<ele>410.250000</ele>
<time>2012-07-21T18:09:09Z</time>
<speed>0.010000</speed>
<extensions>
<speed>0.0</speed>
<temp>0.00</temp>
<bpm>0</bpm>
<rpm>0.00</rpm>
</extensions>
</trkpt>
<trkpt lat="64.082008362" lon="-19.555675507">
<ele>410.242188</ele>
<time>2012-07-21T18:09:14Z</time>
<speed>0.010000</speed>
<extensions>
<speed>0.0</speed>
<temp>0.00</temp>
<bpm>0</bpm>
<rpm>0.00</rpm>
</extensions>
</trkpt>
<trkpt lat="64.082008362" lon="-19.555675507">
<ele>410.242188</ele>
<time>2012-07-21T18:09:19Z</time>
<speed>0.010000</speed>
<extensions>
<speed>0.0</speed>
<temp>0.00</temp>
<bpm>0</bpm>
<rpm>0.00</rpm>
</extensions>
</trkpt>
<trkpt lat="64.082008362" lon="-19.555675507">
<ele>410.234375</ele>
<time>2012-07-21T18:09:24Z</time>
<extensions>
<speed>0.0</speed>
<temp>0.00</temp>
<bpm>0</bpm>
<rpm>0.00</rpm>
</extensions>
</trkpt>
<trkpt lat="64.082008362" lon="-19.555675507">
<ele>410.226563</ele>
<time>2012-07-21T18:09:29Z</time>
<extensions>
<speed>0.0</speed>
<temp>0.00</temp>
<bpm>0</bpm>
<rpm>0.00</rpm>
</extensions>
</trkpt>
<trkpt lat="64.082008362" lon="-19.555675507">
<ele>410.250000</ele>
<time>2012-07-21T18:09:34Z</time>
<extensions>
<speed>0.0</speed>
<temp>0.00</temp>
<bpm>0</bpm>
<rpm>0.00</rpm>
</extensions>
</trkpt>
<trkpt lat="64.082008362" lon="-19.555675507">
<ele>410.250000</ele>
<time>2012-07-21T18:09:39Z</time>
<extensions>
<speed>0.0</speed>
<temp>0.00</temp>
<bpm>0</bpm>
<rpm>0.00</rpm>
</extensions>
</trkpt>
<trkpt lat="64.082008362" lon="-19.555675507">
<ele>410.250000</ele>
<time>2012-07-21T18:09:44Z</time>
<speed>0.010000</speed>
<extensions>
<speed>0.0</speed>
<temp>0.00</temp>
<bpm>0</bpm>
<rpm>0.00</rpm>
</extensions>
</trkpt>
<trkpt lat="64.082008362" lon="-19.555675507">
<ele>410.250000</ele>
<time>2012-07-21T18:09:49Z</time>
<extensions>
<speed>0.0</speed>
<temp>0.00</temp>
<bpm>0</bpm>
<rpm>0.00</rpm>
</extensions>
</trkpt>
<trkpt lat="64.082008362" lon="-19.555675507">
<ele>410.242188</ele>
<time>2012-07-21T18:09:54Z</time>
<extensions>
<speed>0.0</speed>
<temp>0.00</temp>
<bpm>0</bpm>
<rpm>0.00</rpm>
</extensions>
</trkpt>
<trkpt lat="64.082008362" lon="-19.555675507">
<ele>410.234375</ele>
<time>2012-07-21T18:09:59Z</time>
<extensions>
<speed>0.0</speed>
<temp>0.00</temp>
<bpm>0</bpm>
<rpm>0.00</rpm>
</extensions>
</trkpt>
<trkpt lat="64.082008362" lon="-19.555675507">
<ele>410.226563</ele>
<time>2012-07-21T18:10:04Z</time>
<extensions>
<speed>0.0</speed>
<temp>0.00</temp>
<bpm>0</bpm>
<rpm>0.00</rpm>
</extensions>
</trkpt>
<trkpt lat="64.082008362" lon="-19.555677414">
<ele>410.226563</ele>
<time>2012-07-21T18:10:09Z</time>
<speed>0.010000</speed>
<extensions>
<speed>0.0</speed>
<temp>0.00</temp>
<bpm>0</bpm>
<rpm>0.00</rpm>
</extensions>
</trkpt>
<trkpt lat="64.082008362" lon="-19.555677414">
<ele>410.218750</ele>
<time>2012-07-21T18:10:14Z</time>
<speed>0.020000</speed>
<extensions>
<speed>0.0</speed>
<temp>0.00</temp>
<bpm>0</bpm>
<rpm>0.00</rpm>
</extensions>
</trkpt>
<trkpt lat="64.082008362" lon="-19.555677414">
<ele>410.203125</ele>
<time>2012-07-21T18:10:19Z</time>
<extensions>
<speed>0.0</speed>
<temp>0.00</temp>
<bpm>0</bpm>
<rpm>0.00</rpm>
</extensions>
</trkpt>
<trkpt lat="64.082008362" lon="-19.555677414">
<ele>410.210938</ele>
<time>2012-07-21T18:10:24Z</time>
<extensions>
<speed>0.0</speed>
<temp>0.00</temp>
<bpm>0</bpm>
<rpm>0.00</rpm>
</extensions>
</trkpt>
<trkpt lat="64.082008362" lon="-19.555677414">
<ele>410.195313</ele>
<time>2012-07-21T18:10:29Z</time>
<speed>0.020000</speed>
<extensions>
<speed>0.0</speed>
<temp>0.00</temp>
<bpm>0</bpm>
<rpm>0.00</rpm>
</extensions>
</trkpt>
<trkpt lat="64.082008362" lon="-19.555677414">
<ele>410.187500</ele>
<time>2012-07-21T18:10:34Z</time>
<extensions>
<speed>0.0</speed>
<temp>0.00</temp>
<bpm>0</bpm>
<rpm>0.00</rpm>
</extensions>
</trkpt>
<trkpt lat="64.082008362" lon="-19.555677414">
<ele>410.187500</ele>
<time>2012-07-21T18:10:39Z</time>
<extensions>
<speed>0.0</speed>
<temp>0.00</temp>
<bpm>0</bpm>
<rpm>0.00</rpm>
</extensions>
</trkpt>
<trkpt lat="64.082008362" lon="-19.555677414">
<ele>410.179688</ele>
<time>2012-07-21T18:10:44Z</time>
<extensions>
<speed>0.0</speed>
<temp>0.00</temp>
<bpm>0</bpm>
<rpm>0.00</rpm>
</extensions>
</trkpt>
<trkpt lat="64.082008362" lon="-19.555677414">
<ele>410.187500</ele>
<time>2012-07-21T18:10:49Z</time>
<speed>0.010000</speed>
<extensions>
<speed>0.0</speed>
<temp>0.00</temp>
<bpm>0</bpm>
<rpm>0.00</rpm>
</extensions>
</trkpt>
<trkpt lat="64.082008362" lon="-19.555677414">
<ele>410.171875</ele>
<time>2012-07-21T18:10:54Z</time>
<extensions>
<speed>0.0</speed>
<temp>0.00</temp>
<bpm>0</bpm>
<rpm>0.00</rpm>
</extensions>
</trkpt>
<trkpt lat="64.082008362" lon="-19.555677414">
<ele>410.164063</ele>
<time>2012-07-21T18:10:59Z</time>
<extensions>
<speed>0.0</speed>
<temp>0.00</temp>
<bpm>0</bpm>
<rpm>0.00</rpm>
</extensions>
</trkpt>
<trkpt lat="64.082008362" lon="-19.555677414">
<ele>410.171875</ele>
<time>2012-07-21T18:11:04Z</time>
<extensions>
<speed>0.0</speed>
<temp>0.00</temp>
<bpm>0</bpm>
<rpm>0.00</rpm>
</extensions>
</trkpt>
<trkpt lat="64.082008362" lon="-19.555677414">
<ele>410.148438</ele>
<time>2012-07-21T18:11:09Z</time>
<extensions>
<speed>0.0</speed>
<temp>0.00</temp>
<bpm>0</bpm>
<rpm>0.00</rpm>
</extensions>
</trkpt>
<trkpt lat="64.082008362" lon="-19.555677414">
<ele>410.140625</ele>
<time>2012-07-21T18:11:14Z</time>
<extensions>
<speed>0.0</speed>
<temp>0.00</temp>
<bpm>0</bpm>
<rpm>0.00</rpm>
</extensions>
</trkpt>
<trkpt lat="64.082008362" lon="-19.555677414">
<ele>410.117188</ele>
<time>2012-07-21T18:11:19Z</time>
<extensions>
<speed>0.0</speed>
<temp>0.00</temp>
<bpm>0</bpm>
<rpm>0.00</rpm>
</extensions>
</trkpt>
<trkpt lat="64.082008362" lon="-19.555675507">
<ele>410.109375</ele>
<time>2012-07-21T18:11:24Z</time>
<speed>0.010000</speed>
<extensions>
<speed>0.0</speed>
<temp>0.00</temp>
<bpm>0</bpm>
<rpm>0.00</rpm>
</extensions>
</trkpt>
<trkpt lat="64.082008362" lon="-19.555675507">
<ele>410.101563</ele>
<time>2012-07-21T18:11:29Z</time>
<extensions>
<speed>0.0</speed>
<temp>0.00</temp>
<bpm>0</bpm>
<rpm>0.00</rpm>
</extensions>
</trkpt>
<trkpt lat="64.082008362" lon="-19.555675507">
<ele>410.093750</ele>
<time>2012-07-21T18:11:34Z</time>
<extensions>
<speed>0.0</speed>
<temp>0.00</temp>
<bpm>0</bpm>
<rpm>0.00</rpm>
</extensions>
</trkpt>
<trkpt lat="64.082008362" lon="-19.555675507">
<ele>410.093750</ele>
<time>2012-07-21T18:11:39Z</time>
<speed>0.010000</speed>
<extensions>
<speed>0.0</speed>
<temp>0.00</temp>
<bpm>0</bpm>
<rpm>0.00</rpm>
</extensions>
</trkpt>
<trkpt lat="64.082008362" lon="-19.555675507">
<ele>410.078125</ele>
<time>2012-07-21T18:11:44Z</time>
<extensions>
<speed>0.0</speed>
<temp>0.00</temp>
<bpm>0</bpm>
<rpm>0.00</rpm>
</extensions>
</trkpt>
<trkpt lat="64.082008362" lon="-19.555675507">
<ele>410.062500</ele>
<time>2012-07-21T18:11:49Z</time>
<speed>0.010000</speed>
<extensions>
<speed>0.0</speed>
<temp>0.00</temp>
<bpm>0</bpm>
<rpm>0.00</rpm>
</extensions>
</trkpt>
<trkpt lat="64.082008362" lon="-19.555675507">
<ele>410.039063</ele>
<time>2012-07-21T18:11:54Z</time>
<speed>0.010000</speed>
<extensions>
<speed>0.0</speed>
<temp>0.00</temp>
<bpm>0</bpm>
<rpm>0.00</rpm>
</extensions>
</trkpt>
<trkpt lat="64.082008362" lon="-19.555675507">
<ele>410.031250</ele>
<time>2012-07-21T18:11:59Z</time>
<extensions>
<speed>0.0</speed>
<temp>0.00</temp>
<bpm>0</bpm>
<rpm>0.00</rpm>
</extensions>
</trkpt>
<trkpt lat="64.082008362" lon="-19.555675507">
<ele>410.015625</ele>
<time>2012-07-21T18:12:04Z</time>
<speed>0.010000</speed>
<extensions>
<speed>0.0</speed>
<temp>0.00</temp>
<bpm>0</bpm>
<rpm>0.00</rpm>
</extensions>
</trkpt>
<trkpt lat="64.082008362" lon="-19.555675507">
<ele>410.015625</ele>
<time>2012-07-21T18:12:09Z</time>
<speed>0.010000</speed>
<extensions>
<speed>0.0</speed>
<temp>0.00</temp>
<bpm>0</bpm>
<rpm>0.00</rpm>
</extensions>
</trkpt>
<trkpt lat="64.082008362" lon="-19.555675507">
<ele>410.007813</ele>
<time>2012-07-21T18:12:14Z</time>
<speed>0.010000</speed>
<extensions>
<speed>0.0</speed>
<temp>0.00</temp>
<bpm>0</bpm>
<rpm>0.00</rpm>
</extensions>
</trkpt>
<trkpt lat="64.082008362" lon="-19.555675507">
<ele>410.007813</ele>
<time>2012-07-21T18:12:19Z</time>
<extensions>
<speed>0.0</speed>
<temp>0.00</temp>
<bpm>0</bpm>
<rpm>0.00</rpm>
</extensions>
</trkpt>
<trkpt lat="64.082008362" lon="-19.555675507">
<ele>409.992188</ele>
<time>2012-07-21T18:12:24Z</time>
<extensions>
<speed>0.0</speed>
<temp>0.00</temp>
<bpm>0</bpm>
<rpm>0.00</rpm>
</extensions>
</trkpt>
<trkpt lat="64.082008362" lon="-19.555675507">
<ele>409.968750</ele>
<time>2012-07-21T18:12:29Z</time>
<extensions>
<speed>0.0</speed>
<temp>0.00</temp>
<bpm>0</bpm>
<rpm>0.00</rpm>
</extensions>
</trkpt>
<trkpt lat="64.082008362" lon="-19.555675507">
<ele>409.960938</ele>
<time>2012-07-21T18:12:34Z</time>
<extensions>
<speed>0.0</speed>
<temp>0.00</temp>
<bpm>0</bpm>
<rpm>0.00</rpm>
</extensions>
</trkpt>
<trkpt lat="64.082008362" lon="-19.555675507">
<ele>409.929688</ele>
<time>2012-07-21T18:12:39Z</time>
<speed>0.010000</speed>
<extensions>
<speed>0.0</speed>
<temp>0.00</temp>
<bpm>0</bpm>
<rpm>0.00</rpm>
</extensions>
</trkpt>
<trkpt lat="64.082008362" lon="-19.555675507">
<ele>409.929688</ele>
<time>2012-07-21T18:12:44Z</time>
<extensions>
<speed>0.0</speed>
<temp>0.00</temp>
<bpm>0</bpm>
<rpm>0.00</rpm>
</extensions>
</trkpt>
<trkpt lat="64.082008362" lon="-19.555675507">
<ele>409.929688</ele>
<time>2012-07-21T18:12:49Z</time>
<extensions>
<speed>0.0</speed>
<temp>0.00</temp>
<bpm>0</bpm>
<rpm>0.00</rpm>
</extensions>
</trkpt>
<trkpt lat="64.082008362" lon="-19.555675507">
<ele>409.929688</ele>
<time>2012-07-21T18:12:54Z</time>
<extensions>
<speed>0.0</speed>
<temp>0.00</temp>
<bpm>0</bpm>
<rpm>0.00</rpm>
</extensions>
</trkpt>
<trkpt lat="64.082008362" lon="-19.555675507">
<ele>409.937500</ele>
<time>2012-07-21T18:12:59Z</time>
<speed>0.010000</speed>
<extensions>
<speed>0.0</speed>
<temp>0.00</temp>
<bpm>0</bpm>
<rpm>0.00</rpm>
</extensions>
</trkpt>
<trkpt lat="64.082008362" lon="-19.555675507">
<ele>409.929688</ele>
<time>2012-07-21T18:13:04Z</time>
<extensions>
<speed>0.0</speed>
<temp>0.00</temp>
<bpm>0</bpm>
<rpm>0.00</rpm>
</extensions>
</trkpt>
<trkpt lat="64.082008362" lon="-19.555675507">
<ele>409.906250</ele>
<time>2012-07-21T18:13:09Z</time>
<extensions>
<speed>0.0</speed>
<temp>0.00</temp>
<bpm>0</bpm>
<rpm>0.00</rpm>
</extensions>
</trkpt>
<trkpt lat="64.082008362" lon="-19.555675507">
<ele>409.875000</ele>
<time>2012-07-21T18:13:14Z</time>
<extensions>
<speed>0.0</speed>
<temp>0.00</temp>
<bpm>0</bpm>
<rpm>0.00</rpm>
</extensions>
</trkpt>
<trkpt lat="64.082008362" lon="-19.555675507">
<ele>409.851563</ele>
<time>2012-07-21T18:13:19Z</time>
<speed>0.010000</speed>
<extensions>
<speed>0.0</speed>
<temp>0.00</temp>
<bpm>0</bpm>
<rpm>0.00</rpm>
</extensions>
</trkpt>
<trkpt lat="64.082008362" lon="-19.555675507">
<ele>409.851563</ele>
<time>2012-07-21T18:13:24Z</time>
<extensions>
<speed>0.0</speed>
<temp>0.00</temp>
<bpm>0</bpm>
<rpm>0.00</rpm>
</extensions>
</trkpt>
<trkpt lat="64.082008362" lon="-19.555673599">
<ele>409.843750</ele>
<time>2012-07-21T18:13:29Z</time>
<speed>0.020000</speed>
<extensions>
<speed>0.0</speed>
<temp>0.00</temp>
<bpm>0</bpm>
<rpm>0.00</rpm>
</extensions>
</trkpt>
<trkpt lat="64.082008362" lon="-19.555675507">
<ele>409.843750</ele>
<time>2012-07-21T18:13:34Z</time>
<extensions>
<speed>0.0</speed>
<temp>0.00</temp>
<bpm>0</bpm>
<rpm>0.00</rpm>
</extensions>
</trkpt>
<trkpt lat="64.082008362" lon="-19.555675507">
<ele>409.828125</ele>
<time>2012-07-21T18:13:39Z</time>
<speed>0.020000</speed>
<extensions>
<speed>0.0</speed>
<temp>0.00</temp>
<bpm>0</bpm>
<rpm>0.00</rpm>
</extensions>
</trkpt>
<trkpt lat="64.082008362" lon="-19.555675507">
<ele>409.820313</ele>
<time>2012-07-21T18:13:44Z</time>
<extensions>
<speed>0.0</speed>
<temp>0.00</temp>
<bpm>0</bpm>
<rpm>0.00</rpm>
</extensions>
</trkpt>
<trkpt lat="64.082008362" lon="-19.555675507">
<ele>409.835938</ele>
<time>2012-07-21T18:13:49Z</time>
<extensions>
<speed>0.0</speed>
<temp>0.00</temp>
<bpm>0</bpm>
<rpm>0.00</rpm>
</extensions>
</trkpt>
<trkpt lat="64.082008362" lon="-19.555675507">
<ele>409.828125</ele>
<time>2012-07-21T18:13:54Z</time>
<speed>0.010000</speed>
<extensions>
<speed>0.0</speed>
<temp>0.00</temp>
<bpm>0</bpm>
<rpm>0.00</rpm>
</extensions>
</trkpt>
<trkpt lat="64.082008362" lon="-19.555675507">
<ele>409.820313</ele>
<time>2012-07-21T18:13:59Z</time>
<speed>0.010000</speed>
<extensions>
<speed>0.0</speed>
<temp>0.00</temp>
<bpm>0</bpm>
<rpm>0.00</rpm>
</extensions>
</trkpt>
<trkpt lat="64.082008362" lon="-19.555673599">
<ele>409.796875</ele>
<time>2012-07-21T18:14:04Z</time>
<speed>0.010000</speed>
<extensions>
<speed>0.0</speed>
<temp>0.00</temp>
<bpm>0</bpm>
<rpm>0.00</rpm>
</extensions>
</trkpt>
<trkpt lat="64.082008362" lon="-19.555673599">
<ele>409.789063</ele>
<time>2012-07-21T18:14:09Z</time>
<speed>0.010000</speed>
<extensions>
<speed>0.0</speed>
<temp>0.00</temp>
<bpm>0</bpm>
<rpm>0.00</rpm>
</extensions>
</trkpt>
<trkpt lat="64.082008362" lon="-19.555673599">
<ele>409.773438</ele>
<time>2012-07-21T18:14:14Z</time>
<extensions>
<speed>0.0</speed>
<temp>0.00</temp>
<bpm>0</bpm>
<rpm>0.00</rpm>
</extensions>
</trkpt>
<trkpt lat="64.082008362" lon="-19.555673599">
<ele>409.781250</ele>
<time>2012-07-21T18:14:19Z</time>
<extensions>
<speed>0.0</speed>
<temp>0.00</temp>
<bpm>0</bpm>
<rpm>0.00</rpm>
</extensions>
</trkpt>
<trkpt lat="64.082008362" lon="-19.555673599">
<ele>409.781250</ele>
<time>2012-07-21T18:14:24Z</time>
<extensions>
<speed>0.0</speed>
<temp>0.00</temp>
<bpm>0</bpm>
<rpm>0.00</rpm>
</extensions>
</trkpt>
<trkpt lat="64.082008362" lon="-19.555673599">
<ele>409.773438</ele>
<time>2012-07-21T18:14:29Z</time>
<extensions>
<speed>0.0</speed>
<temp>0.00</temp>
<bpm>0</bpm>
<rpm>0.00</rpm>
</extensions>
</trkpt>
<trkpt lat="64.082008362" lon="-19.555673599">
<ele>409.765625</ele>
<time>2012-07-21T18:14:34Z</time>
<speed>0.010000</speed>
<extensions>
<speed>0.0</speed>
<temp>0.00</temp>
<bpm>0</bpm>
<rpm>0.00</rpm>
</extensions>
</trkpt>
<trkpt lat="64.082008362" lon="-19.555673599">
<ele>409.773438</ele>
<time>2012-07-21T18:14:39Z</time>
<speed>0.010000</speed>
<extensions>
<speed>0.0</speed>
<temp>0.00</temp>
<bpm>0</bpm>
<rpm>0.00</rpm>
</extensions>
</trkpt>
<trkpt lat="64.082008362" lon="-19.555673599">
<ele>409.765625</ele>
<time>2012-07-21T18:14:44Z</time>
<speed>0.020000</speed>
<extensions>
<speed>0.0</speed>
<temp>0.00</temp>
<bpm>0</bpm>
<rpm>0.00</rpm>
</extensions>
</trkpt>
<trkpt lat="64.082008362" lon="-19.555673599">
<ele>409.765625</ele>
<time>2012-07-21T18:14:49Z</time>
<extensions>
<speed>0.0</speed>
<temp>0.00</temp>
<bpm>0</bpm>
<rpm>0.00</rpm>
</extensions>
</trkpt>
<trkpt lat="64.082008362" lon="-19.555673599">
<ele>409.765625</ele>
<time>2012-07-21T18:14:54Z</time>
<speed>0.010000</speed>
<extensions>
<speed>0.0</speed>
<temp>0.00</temp>
<bpm>0</bpm>
<rpm>0.00</rpm>
</extensions>
</trkpt>
<trkpt lat="64.082008362" lon="-19.555673599">
<ele>409.765625</ele>
<time>2012-07-21T18:14:59Z</time>
<extensions>
<speed>0.0</speed>
<temp>0.00</temp>
<bpm>0</bpm>
<rpm>0.00</rpm>
</extensions>
</trkpt>
<trkpt lat="64.082008362" lon="-19.555673599">
<ele>409.773438</ele>
<time>2012-07-21T18:15:04Z</time>
<speed>0.010000</speed>
<extensions>
<speed>0.0</speed>
<temp>0.00</temp>
<bpm>0</bpm>
<rpm>0.00</rpm>
</extensions>
</trkpt>
<trkpt lat="64.082008362" lon="-19.555673599">
<ele>409.750000</ele>
<time>2012-07-21T18:15:09Z</time>
<speed>0.010000</speed>
<extensions>
<speed>0.0</speed>
<temp>0.00</temp>
<bpm>0</bpm>
<rpm>0.00</rpm>
</extensions>
</trkpt>
<trkpt lat="64.082008362" lon="-19.555673599">
<ele>409.742188</ele>
<time>2012-07-21T18:15:14Z</time>
<extensions>
<speed>0.0</speed>
<temp>0.00</temp>
<bpm>0</bpm>
<rpm>0.00</rpm>
</extensions>
</trkpt>
<trkpt lat="64.082008362" lon="-19.555673599">
<ele>409.734375</ele>
<time>2012-07-21T18:15:19Z</time>
<extensions>
<speed>0.0</speed>
<temp>0.00</temp>
<bpm>0</bpm>
<rpm>0.00</rpm>
</extensions>
</trkpt>
<trkpt lat="64.082008362" lon="-19.555673599">
<ele>409.726563</ele>
<time>2012-07-21T18:15:24Z</time>
<extensions>
<speed>0.0</speed>
<temp>0.00</temp>
<bpm>0</bpm>
<rpm>0.00</rpm>
</extensions>
</trkpt>
<trkpt lat="64.082008362" lon="-19.555673599">
<ele>409.710938</ele>
<time>2012-07-21T18:15:29Z</time>
<extensions>
<speed>0.0</speed>
<temp>0.00</temp>
<bpm>0</bpm>
<rpm>0.00</rpm>
</extensions>
</trkpt>
<trkpt lat="64.082008362" lon="-19.555673599">
<ele>409.703125</ele>
<time>2012-07-21T18:15:34Z</time>
<extensions>
<speed>0.0</speed>
<temp>0.00</temp>
<bpm>0</bpm>
<rpm>0.00</rpm>
</extensions>
</trkpt>
<trkpt lat="64.082008362" lon="-19.555673599">
<ele>409.703125</ele>
<time>2012-07-21T18:15:39Z</time>
<speed>0.010000</speed>
<extensions>
<speed>0.0</speed>
<temp>0.00</temp>
<bpm>0</bpm>
<rpm>0.00</rpm>
</extensions>
</trkpt>
<trkpt lat="64.082008362" lon="-19.555673599">
<ele>409.703125</ele>
<time>2012-07-21T18:15:44Z</time>
<extensions>
<speed>0.0</speed>
<temp>0.00</temp>
<bpm>0</bpm>
<rpm>0.00</rpm>
</extensions>
</trkpt>
<trkpt lat="64.082008362" lon="-19.555673599">
<ele>409.695313</ele>
<time>2012-07-21T18:15:49Z</time>
<speed>0.010000</speed>
<extensions>
<speed>0.0</speed>
<temp>0.00</temp>
<bpm>0</bpm>
<rpm>0.00</rpm>
</extensions>
</trkpt>
<trkpt lat="64.082008362" lon="-19.555673599">
<ele>409.687500</ele>
<time>2012-07-21T18:15:54Z</time>
<extensions>
<speed>0.0</speed>
<temp>0.00</temp>
<bpm>0</bpm>
<rpm>0.00</rpm>
</extensions>
</trkpt>
<trkpt lat="64.082008362" lon="-19.555673599">
<ele>409.671875</ele>
<time>2012-07-21T18:15:59Z</time>
<extensions>
<speed>0.0</speed>
<temp>0.00</temp>
<bpm>0</bpm>
<rpm>0.00</rpm>
</extensions>
</trkpt>
<trkpt lat="64.082008362" lon="-19.555673599">
<ele>409.664063</ele>
<time>2012-07-21T18:16:04Z</time>
<extensions>
<speed>0.0</speed>
<temp>0.00</temp>
<bpm>0</bpm>
<rpm>0.00</rpm>
</extensions>
</trkpt>
<trkpt lat="64.082008362" lon="-19.555673599">
<ele>409.648438</ele>
<time>2012-07-21T18:16:09Z</time>
<extensions>
<speed>0.0</speed>
<temp>0.00</temp>
<bpm>0</bpm>
<rpm>0.00</rpm>
</extensions>
</trkpt>
<trkpt lat="64.082008362" lon="-19.555671692">
<ele>409.640625</ele>
<time>2012-07-21T18:16:14Z</time>
<extensions>
<speed>0.0</speed>
<temp>0.00</temp>
<bpm>0</bpm>
<rpm>0.00</rpm>
</extensions>
</trkpt>
<trkpt lat="64.082008362" lon="-19.555671692">
<ele>409.632813</ele>
<time>2012-07-21T18:16:19Z</time>
<extensions>
<speed>0.0</speed>
<temp>0.00</temp>
<bpm>0</bpm>
<rpm>0.00</rpm>
</extensions>
</trkpt>
<trkpt lat="64.082008362" lon="-19.555671692">
<ele>409.648438</ele>
<time>2012-07-21T18:16:24Z</time>
<speed>0.010000</speed>
<extensions>
<speed>0.0</speed>
<temp>0.00</temp>
<bpm>0</bpm>
<rpm>0.00</rpm>
</extensions>
</trkpt>
<trkpt lat="64.082008362" lon="-19.555671692">
<ele>409.648438</ele>
<time>2012-07-21T18:16:29Z</time>
<extensions>
<speed>0.0</speed>
<temp>0.00</temp>
<bpm>0</bpm>
<rpm>0.00</rpm>
</extensions>
</trkpt>
<trkpt lat="64.082008362" lon="-19.555671692">
<ele>409.632813</ele>
<time>2012-07-21T18:16:34Z</time>
<extensions>
<speed>0.0</speed>
<temp>0.00</temp>
<bpm>0</bpm>
<rpm>0.00</rpm>
</extensions>
</trkpt>
<trkpt lat="64.082008362" lon="-19.555671692">
<ele>409.632813</ele>
<time>2012-07-21T18:16:39Z</time>
<extensions>
<speed>0.0</speed>
<temp>0.00</temp>
<bpm>0</bpm>
<rpm>0.00</rpm>
</extensions>
</trkpt>
<trkpt lat="64.082008362" lon="-19.555673599">
<ele>409.632813</ele>
<time>2012-07-21T18:16:44Z</time>
<extensions>
<speed>0.0</speed>
<temp>0.00</temp>
<bpm>0</bpm>
<rpm>0.00</rpm>
</extensions>
</trkpt>
<trkpt lat="64.082008362" lon="-19.555671692">
<ele>409.640625</ele>
<time>2012-07-21T18:16:49Z</time>
<extensions>
<speed>0.0</speed>
<temp>0.00</temp>
<bpm>0</bpm>
<rpm>0.00</rpm>
</extensions>
</trkpt>
<trkpt lat="64.082008362" lon="-19.555671692">
<ele>409.609375</ele>
<time>2012-07-21T18:16:54Z</time>
<speed>0.030000</speed>
<extensions>
<speed>0.0</speed>
<temp>0.00</temp>
<bpm>0</bpm>
<rpm>0.00</rpm>
</extensions>
</trkpt>
<trkpt lat="64.082008362" lon="-19.555671692">
<ele>409.585938</ele>
<time>2012-07-21T18:16:59Z</time>
<extensions>
<speed>0.0</speed>
<temp>0.00</temp>
<bpm>0</bpm>
<rpm>0.00</rpm>
</extensions>
</trkpt>
<trkpt lat="64.082008362" lon="-19.555671692">
<ele>409.578125</ele>
<time>2012-07-21T18:17:04Z</time>
<speed>0.010000</speed>
<extensions>
<speed>0.0</speed>
<temp>0.00</temp>
<bpm>0</bpm>
<rpm>0.00</rpm>
</extensions>
</trkpt>
<trkpt lat="64.082008362" lon="-19.555671692">
<ele>409.578125</ele>
<time>2012-07-21T18:17:09Z</time>
<speed>0.010000</speed>
<extensions>
<speed>0.0</speed>
<temp>0.00</temp>
<bpm>0</bpm>
<rpm>0.00</rpm>
</extensions>
</trkpt>
<trkpt lat="64.082008362" lon="-19.555671692">
<ele>409.562500</ele>
<time>2012-07-21T18:17:14Z</time>
<speed>0.010000</speed>
<extensions>
<speed>0.0</speed>
<temp>0.00</temp>
<bpm>0</bpm>
<rpm>0.00</rpm>
</extensions>
</trkpt>
<trkpt lat="64.082008362" lon="-19.555671692">
<ele>409.554688</ele>
<time>2012-07-21T18:17:19Z</time>
<extensions>
<speed>0.0</speed>
<temp>0.00</temp>
<bpm>0</bpm>
<rpm>0.00</rpm>
</extensions>
</trkpt>
<trkpt lat="64.082008362" lon="-19.555671692">
<ele>409.554688</ele>
<time>2012-07-21T18:17:24Z</time>
<extensions>
<speed>0.0</speed>
<temp>0.00</temp>
<bpm>0</bpm>
<rpm>0.00</rpm>
</extensions>
</trkpt>
<trkpt lat="64.082008362" lon="-19.555671692">
<ele>409.554688</ele>
<time>2012-07-21T18:17:29Z</time>
<extensions>
<speed>0.0</speed>
<temp>0.00</temp>
<bpm>0</bpm>
<rpm>0.00</rpm>
</extensions>
</trkpt>
<trkpt lat="64.082008362" lon="-19.555671692">
<ele>409.546875</ele>
<time>2012-07-21T18:17:34Z</time>
<extensions>
<speed>0.0</speed>
<temp>0.00</temp>
<bpm>0</bpm>
<rpm>0.00</rpm>
</extensions>
</trkpt>
<trkpt lat="64.082008362" lon="-19.555671692">
<ele>409.539063</ele>
<time>2012-07-21T18:17:39Z</time>
<extensions>
<speed>0.0</speed>
<temp>0.00</temp>
<bpm>0</bpm>
<rpm>0.00</rpm>
</extensions>
</trkpt>
<trkpt lat="64.082008362" lon="-19.555671692">
<ele>409.539063</ele>
<time>2012-07-21T18:17:44Z</time>
<speed>0.010000</speed>
<extensions>
<speed>0.0</speed>
<temp>0.00</temp>
<bpm>0</bpm>
<rpm>0.00</rpm>
</extensions>
</trkpt>
<trkpt lat="64.082008362" lon="-19.555669785">
<ele>409.531250</ele>
<time>2012-07-21T18:17:49Z</time>
<extensions>
<speed>0.0</speed>
<temp>0.00</temp>
<bpm>0</bpm>
<rpm>0.00</rpm>
</extensions>
</trkpt>
<trkpt lat="64.082008362" lon="-19.555669785">
<ele>409.531250</ele>
<time>2012-07-21T18:17:54Z</time>
<extensions>
<speed>0.0</speed>
<temp>0.00</temp>
<bpm>0</bpm>
<rpm>0.00</rpm>
</extensions>
</trkpt>
<trkpt lat="64.082008362" lon="-19.555671692">
<ele>409.515625</ele>
<time>2012-07-21T18:17:59Z</time>
<extensions>
<speed>0.0</speed>
<temp>0.00</temp>
<bpm>0</bpm>
<rpm>0.00</rpm>
</extensions>
</trkpt>
<trkpt lat="64.082008362" lon="-19.555671692">
<ele>409.515625</ele>
<time>2012-07-21T18:18:04Z</time>
<speed>0.010000</speed>
<extensions>
<speed>0.0</speed>
<temp>0.00</temp>
<bpm>0</bpm>
<rpm>0.00</rpm>
</extensions>
</trkpt>
<trkpt lat="64.082008362" lon="-19.555671692">
<ele>409.515625</ele>
<time>2012-07-21T18:18:09Z</time>
<speed>0.010000</speed>
<extensions>
<speed>0.0</speed>
<temp>0.00</temp>
<bpm>0</bpm>
<rpm>0.00</rpm>
</extensions>
</trkpt>
<trkpt lat="64.082008362" lon="-19.555669785">
<ele>409.500000</ele>
<time>2012-07-21T18:18:14Z</time>
<extensions>
<speed>0.0</speed>
<temp>0.00</temp>
<bpm>0</bpm>
<rpm>0.00</rpm>
</extensions>
</trkpt>
<trkpt lat="64.082008362" lon="-19.555669785">
<ele>409.484375</ele>
<time>2012-07-21T18:18:19Z</time>
<speed>0.010000</speed>
<extensions>
<speed>0.0</speed>
<temp>0.00</temp>
<bpm>0</bpm>
<rpm>0.00</rpm>
</extensions>
</trkpt>
<trkpt lat="64.082008362" lon="-19.555669785">
<ele>409.460938</ele>
<time>2012-07-21T18:18:24Z</time>
<extensions>
<speed>0.0</speed>
<temp>0.00</temp>
<bpm>0</bpm>
<rpm>0.00</rpm>
</extensions>
</trkpt>
<trkpt lat="64.082008362" lon="-19.555669785">
<ele>409.453125</ele>
<time>2012-07-21T18:18:29Z</time>
<extensions>
<speed>0.0</speed>
<temp>0.00</temp>
<bpm>0</bpm>
<rpm>0.00</rpm>
</extensions>
</trkpt>
<trkpt lat="64.082008362" lon="-19.555669785">
<ele>409.445313</ele>
<time>2012-07-21T18:18:34Z</time>
<extensions>
<speed>0.0</speed>
<temp>0.00</temp>
<bpm>0</bpm>
<rpm>0.00</rpm>
</extensions>
</trkpt>
<trkpt lat="64.082008362" lon="-19.555669785">
<ele>409.437500</ele>
<time>2012-07-21T18:18:39Z</time>
<extensions>
<speed>0.0</speed>
<temp>0.00</temp>
<bpm>0</bpm>
<rpm>0.00</rpm>
</extensions>
</trkpt>
<trkpt lat="64.082008362" lon="-19.555669785">
<ele>409.429688</ele>
<time>2012-07-21T18:18:44Z</time>
<extensions>
<speed>0.0</speed>
<temp>0.00</temp>
<bpm>0</bpm>
<rpm>0.00</rpm>
</extensions>
</trkpt>
<trkpt lat="64.082008362" lon="-19.555669785">
<ele>409.429688</ele>
<time>2012-07-21T18:18:49Z</time>
<extensions>
<speed>0.0</speed>
<temp>0.00</temp>
<bpm>0</bpm>
<rpm>0.00</rpm>
</extensions>
</trkpt>
<trkpt lat="64.082008362" lon="-19.555669785">
<ele>409.421875</ele>
<time>2012-07-21T18:18:54Z</time>
<extensions>
<speed>0.0</speed>
<temp>0.00</temp>
<bpm>0</bpm>
<rpm>0.00</rpm>
</extensions>
</trkpt>
<trkpt lat="64.082008362" lon="-19.555669785">
<ele>409.406250</ele>
<time>2012-07-21T18:18:59Z</time>
<extensions>
<speed>0.0</speed>
<temp>0.00</temp>
<bpm>0</bpm>
<rpm>0.00</rpm>
</extensions>
</trkpt>
<trkpt lat="64.082008362" lon="-19.555669785">
<ele>409.398438</ele>
<time>2012-07-21T18:19:04Z</time>
<extensions>
<speed>0.0</speed>
<temp>0.00</temp>
<bpm>0</bpm>
<rpm>0.00</rpm>
</extensions>
</trkpt>
<trkpt lat="64.082008362" lon="-19.555669785">
<ele>409.406250</ele>
<time>2012-07-21T18:19:09Z</time>
<extensions>
<speed>0.0</speed>
<temp>0.00</temp>
<bpm>0</bpm>
<rpm>0.00</rpm>
</extensions>
</trkpt>
<trkpt lat="64.082008362" lon="-19.555669785">
<ele>409.382813</ele>
<time>2012-07-21T18:19:14Z</time>
<speed>0.020000</speed>
<extensions>
<speed>0.0</speed>
<temp>0.00</temp>
<bpm>0</bpm>
<rpm>0.00</rpm>
</extensions>
</trkpt>
<trkpt lat="64.082008362" lon="-19.555669785">
<ele>409.359375</ele>
<time>2012-07-21T18:19:19Z</time>
<extensions>
<speed>0.0</speed>
<temp>0.00</temp>
<bpm>0</bpm>
<rpm>0.00</rpm>
</extensions>
</trkpt>
<trkpt lat="64.082008362" lon="-19.555669785">
<ele>409.328125</ele>
<time>2012-07-21T18:19:24Z</time>
<speed>0.010000</speed>
<extensions>
<speed>0.0</speed>
<temp>0.00</temp>
<bpm>0</bpm>
<rpm>0.00</rpm>
</extensions>
</trkpt>
<trkpt lat="64.082008362" lon="-19.555669785">
<ele>409.312500</ele>
<time>2012-07-21T18:19:29Z</time>
<extensions>
<speed>0.0</speed>
<temp>0.00</temp>
<bpm>0</bpm>
<rpm>0.00</rpm>
</extensions>
</trkpt>
<trkpt lat="64.082008362" lon="-19.555669785">
<ele>409.320313</ele>
<time>2012-07-21T18:19:34Z</time>
<speed>0.010000</speed>
<extensions>
<speed>0.0</speed>
<temp>0.00</temp>
<bpm>0</bpm>
<rpm>0.00</rpm>
</extensions>
</trkpt>
<trkpt lat="64.082008362" lon="-19.555669785">
<ele>409.296875</ele>
<time>2012-07-21T18:19:39Z</time>
<extensions>
<speed>0.0</speed>
<temp>0.00</temp>
<bpm>0</bpm>
<rpm>0.00</rpm>
</extensions>
</trkpt>
<trkpt lat="64.082008362" lon="-19.555669785">
<ele>409.273438</ele>
<time>2012-07-21T18:19:44Z</time>
<extensions>
<speed>0.0</speed>
<temp>0.00</temp>
<bpm>0</bpm>
<rpm>0.00</rpm>
</extensions>
</trkpt>
<trkpt lat="64.082008362" lon="-19.555669785">
<ele>409.250000</ele>
<time>2012-07-21T18:19:49Z</time>
<extensions>
<speed>0.0</speed>
<temp>0.00</temp>
<bpm>0</bpm>
<rpm>0.00</rpm>
</extensions>
</trkpt>
<trkpt lat="64.082008362" lon="-19.555669785">
<ele>409.242188</ele>
<time>2012-07-21T18:19:54Z</time>
<speed>0.010000</speed>
<extensions>
<speed>0.0</speed>
<temp>0.00</temp>
<bpm>0</bpm>
<rpm>0.00</rpm>
</extensions>
</trkpt>
<trkpt lat="64.082008362" lon="-19.555669785">
<ele>409.242188</ele>
<time>2012-07-21T18:19:59Z</time>
<extensions>
<speed>0.0</speed>
<temp>0.00</temp>
<bpm>0</bpm>
<rpm>0.00</rpm>
</extensions>
</trkpt>
<trkpt lat="64.082008362" lon="-19.555669785">
<ele>409.234375</ele>
<time>2012-07-21T18:20:04Z</time>
<speed>0.020000</speed>
<extensions>
<speed>0.0</speed>
<temp>0.00</temp>
<bpm>0</bpm>
<rpm>0.00</rpm>
</extensions>
</trkpt>
<trkpt lat="64.082008362" lon="-19.555669785">
<ele>409.226563</ele>
<time>2012-07-21T18:20:09Z</time>
<speed>0.010000</speed>
<extensions>
<speed>0.0</speed>
<temp>0.00</temp>
<bpm>0</bpm>
<rpm>0.00</rpm>
</extensions>
</trkpt>
<trkpt lat="64.082008362" lon="-19.555669785">
<ele>409.203125</ele>
<time>2012-07-21T18:20:14Z</time>
<extensions>
<speed>0.0</speed>
<temp>0.00</temp>
<bpm>0</bpm>
<rpm>0.00</rpm>
</extensions>
</trkpt>
<trkpt lat="64.082008362" lon="-19.555669785">
<ele>409.195313</ele>
<time>2012-07-21T18:20:19Z</time>
<extensions>
<speed>0.0</speed>
<temp>0.00</temp>
<bpm>0</bpm>
<rpm>0.00</rpm>
</extensions>
</trkpt>
<trkpt lat="64.082008362" lon="-19.555669785">
<ele>409.164063</ele>
<time>2012-07-21T18:20:24Z</time>
<speed>0.010000</speed>
<extensions>
<speed>0.0</speed>
<temp>0.00</temp>
<bpm>0</bpm>
<rpm>0.00</rpm>
</extensions>
</trkpt>
<trkpt lat="64.082008362" lon="-19.555669785">
<ele>409.148438</ele>
<time>2012-07-21T18:20:29Z</time>
<speed>0.030000</speed>
<extensions>
<speed>0.0</speed>
<temp>0.00</temp>
<bpm>0</bpm>
<rpm>0.00</rpm>
</extensions>
</trkpt>
<trkpt lat="64.082008362" lon="-19.555669785">
<ele>409.140625</ele>
<time>2012-07-21T18:20:34Z</time>
<speed>0.010000</speed>
<extensions>
<speed>0.0</speed>
<temp>0.00</temp>
<bpm>0</bpm>
<rpm>0.00</rpm>
</extensions>
</trkpt>
<trkpt lat="64.082008362" lon="-19.555669785">
<ele>409.117188</ele>
<time>2012-07-21T18:20:39Z</time>
<extensions>
<speed>0.0</speed>
<temp>0.00</temp>
<bpm>0</bpm>
<rpm>0.00</rpm>
</extensions>
</trkpt>
<trkpt lat="64.082008362" lon="-19.555669785">
<ele>409.093750</ele>
<time>2012-07-21T18:20:44Z</time>
<extensions>
<speed>0.0</speed>
<temp>0.00</temp>
<bpm>0</bpm>
<rpm>0.00</rpm>
</extensions>
</trkpt>
<trkpt lat="64.082008362" lon="-19.555669785">
<ele>409.070313</ele>
<time>2012-07-21T18:20:49Z</time>
<extensions>
<speed>0.0</speed>
<temp>0.00</temp>
<bpm>0</bpm>
<rpm>0.00</rpm>
</extensions>
</trkpt>
<trkpt lat="64.082008362" lon="-19.555669785">
<ele>409.078125</ele>
<time>2012-07-21T18:20:54Z</time>
<speed>0.010000</speed>
<extensions>
<speed>0.0</speed>
<temp>0.00</temp>
<bpm>0</bpm>
<rpm>0.00</rpm>
</extensions>
</trkpt>
<trkpt lat="64.082008362" lon="-19.555669785">
<ele>409.062500</ele>
<time>2012-07-21T18:20:59Z</time>
<extensions>
<speed>0.0</speed>
<temp>0.00</temp>
<bpm>0</bpm>
<rpm>0.00</rpm>
</extensions>
</trkpt>
<trkpt lat="64.082008362" lon="-19.555669785">
<ele>409.039063</ele>
<time>2012-07-21T18:21:04Z</time>
<speed>0.010000</speed>
<extensions>
<speed>0.0</speed>
<temp>0.00</temp>
<bpm>0</bpm>
<rpm>0.00</rpm>
</extensions>
</trkpt>
<trkpt lat="64.082008362" lon="-19.555669785">
<ele>409.000000</ele>
<time>2012-07-21T18:21:09Z</time>
<extensions>
<speed>0.0</speed>
<temp>0.00</temp>
<bpm>0</bpm>
<rpm>0.00</rpm>
</extensions>
</trkpt>
<trkpt lat="64.082008362" lon="-19.555669785">
<ele>408.992188</ele>
<time>2012-07-21T18:21:14Z</time>
<speed>0.010000</speed>
<extensions>
<speed>0.0</speed>
<temp>0.00</temp>
<bpm>0</bpm>
<rpm>0.00</rpm>
</extensions>
</trkpt>
<trkpt lat="64.082008362" lon="-19.555667877">
<ele>408.984375</ele>
<time>2012-07-21T18:21:19Z</time>
<speed>0.010000</speed>
<extensions>
<speed>0.0</speed>
<temp>0.00</temp>
<bpm>0</bpm>
<rpm>0.00</rpm>
</extensions>
</trkpt>
<trkpt lat="64.082008362" lon="-19.555667877">
<ele>408.953125</ele>
<time>2012-07-21T18:21:24Z</time>
<speed>0.010000</speed>
<extensions>
<speed>0.0</speed>
<temp>0.00</temp>
<bpm>0</bpm>
<rpm>0.00</rpm>
</extensions>
</trkpt>
<trkpt lat="64.082008362" lon="-19.555667877">
<ele>408.937500</ele>
<time>2012-07-21T18:21:29Z</time>
<extensions>
<speed>0.0</speed>
<temp>0.00</temp>
<bpm>0</bpm>
<rpm>0.00</rpm>
</extensions>
</trkpt>
<trkpt lat="64.082008362" lon="-19.555667877">
<ele>408.890625</ele>
<time>2012-07-21T18:21:34Z</time>
<extensions>
<speed>0.0</speed>
<temp>0.00</temp>
<bpm>0</bpm>
<rpm>0.00</rpm>
</extensions>
</trkpt>
<trkpt lat="64.082008362" lon="-19.555667877">
<ele>408.867188</ele>
<time>2012-07-21T18:21:39Z</time>
<extensions>
<speed>0.0</speed>
<temp>0.00</temp>
<bpm>0</bpm>
<rpm>0.00</rpm>
</extensions>
</trkpt>
<trkpt lat="64.082008362" lon="-19.555667877">
<ele>408.851563</ele>
<time>2012-07-21T18:21:44Z</time>
<extensions>
<speed>0.0</speed>
<temp>0.00</temp>
<bpm>0</bpm>
<rpm>0.00</rpm>
</extensions>
</trkpt>
<trkpt lat="64.082008362" lon="-19.555667877">
<ele>408.828125</ele>
<time>2012-07-21T18:21:49Z</time>
<extensions>
<speed>0.0</speed>
<temp>0.00</temp>
<bpm>0</bpm>
<rpm>0.00</rpm>
</extensions>
</trkpt>
<trkpt lat="64.082008362" lon="-19.555667877">
<ele>408.812500</ele>
<time>2012-07-21T18:21:54Z</time>
<speed>0.010000</speed>
<extensions>
<speed>0.0</speed>
<temp>0.00</temp>
<bpm>0</bpm>
<rpm>0.00</rpm>
</extensions>
</trkpt>
<trkpt lat="64.082008362" lon="-19.555667877">
<ele>408.804688</ele>
<time>2012-07-21T18:21:59Z</time>
<extensions>
<speed>0.0</speed>
<temp>0.00</temp>
<bpm>0</bpm>
<rpm>0.00</rpm>
</extensions>
</trkpt>
<trkpt lat="64.082008362" lon="-19.555667877">
<ele>408.804688</ele>
<time>2012-07-21T18:22:04Z</time>
<speed>0.010000</speed>
<extensions>
<speed>0.0</speed>
<temp>0.00</temp>
<bpm>0</bpm>
<rpm>0.00</rpm>
</extensions>
</trkpt>
<trkpt lat="64.082008362" lon="-19.555667877">
<ele>408.812500</ele>
<time>2012-07-21T18:22:09Z</time>
<extensions>
<speed>0.0</speed>
<temp>0.00</temp>
<bpm>0</bpm>
<rpm>0.00</rpm>
</extensions>
</trkpt>
<trkpt lat="64.082008362" lon="-19.555667877">
<ele>408.812500</ele>
<time>2012-07-21T18:22:14Z</time>
<extensions>
<speed>0.0</speed>
<temp>0.00</temp>
<bpm>0</bpm>
<rpm>0.00</rpm>
</extensions>
</trkpt>
<trkpt lat="64.082008362" lon="-19.555667877">
<ele>408.789063</ele>
<time>2012-07-21T18:22:19Z</time>
<extensions>
<speed>0.0</speed>
<temp>0.00</temp>
<bpm>0</bpm>
<rpm>0.00</rpm>
</extensions>
</trkpt>
<trkpt lat="64.082008362" lon="-19.555667877">
<ele>408.765625</ele>
<time>2012-07-21T18:22:24Z</time>
<speed>0.010000</speed>
<extensions>
<speed>0.0</speed>
<temp>0.00</temp>
<bpm>0</bpm>
<rpm>0.00</rpm>
</extensions>
</trkpt>
<trkpt lat="64.082008362" lon="-19.555667877">
<ele>408.765625</ele>
<time>2012-07-21T18:22:29Z</time>
<speed>0.010000</speed>
<extensions>
<speed>0.0</speed>
<temp>0.00</temp>
<bpm>0</bpm>
<rpm>0.00</rpm>
</extensions>
</trkpt>
<trkpt lat="64.082008362" lon="-19.555667877">
<ele>408.742188</ele>
<time>2012-07-21T18:22:34Z</time>
<speed>0.010000</speed>
<extensions>
<speed>0.0</speed>
<temp>0.00</temp>
<bpm>0</bpm>
<rpm>0.00</rpm>
</extensions>
</trkpt>
<trkpt lat="64.082008362" lon="-19.555667877">
<ele>408.718750</ele>
<time>2012-07-21T18:22:39Z</time>
<speed>0.020000</speed>
<extensions>
<speed>0.0</speed>
<temp>0.00</temp>
<bpm>0</bpm>
<rpm>0.00</rpm>
</extensions>
</trkpt>
<trkpt lat="64.082008362" lon="-19.555667877">
<ele>408.710938</ele>
<time>2012-07-21T18:22:44Z</time>
<speed>0.010000</speed>
<extensions>
<speed>0.0</speed>
<temp>0.00</temp>
<bpm>0</bpm>
<rpm>0.00</rpm>
</extensions>
</trkpt>
<trkpt lat="64.082008362" lon="-19.555667877">
<ele>408.679688</ele>
<time>2012-07-21T18:22:49Z</time>
<extensions>
<speed>0.0</speed>
<temp>0.00</temp>
<bpm>0</bpm>
<rpm>0.00</rpm>
</extensions>
</trkpt>
<trkpt lat="64.082008362" lon="-19.555667877">
<ele>408.671875</ele>
<time>2012-07-21T18:22:54Z</time>
<speed>0.010000</speed>
<extensions>
<speed>0.0</speed>
<temp>0.00</temp>
<bpm>0</bpm>
<rpm>0.00</rpm>
</extensions>
</trkpt>
<trkpt lat="64.082008362" lon="-19.555667877">
<ele>408.664063</ele>
<time>2012-07-21T18:22:59Z</time>
<speed>0.020000</speed>
<extensions>
<speed>0.0</speed>
<temp>0.00</temp>
<bpm>0</bpm>
<rpm>0.00</rpm>
</extensions>
</trkpt>
<trkpt lat="64.082008362" lon="-19.555667877">
<ele>408.632813</ele>
<time>2012-07-21T18:23:04Z</time>
<speed>0.010000</speed>
<extensions>
<speed>0.0</speed>
<temp>0.00</temp>
<bpm>0</bpm>
<rpm>0.00</rpm>
</extensions>
</trkpt>
<trkpt lat="64.082008362" lon="-19.555667877">
<ele>408.632813</ele>
<time>2012-07-21T18:23:09Z</time>
<extensions>
<speed>0.0</speed>
<temp>0.00</temp>
<bpm>0</bpm>
<rpm>0.00</rpm>
</extensions>
</trkpt>
<trkpt lat="64.082008362" lon="-19.555667877">
<ele>408.632813</ele>
<time>2012-07-21T18:23:14Z</time>
<extensions>
<speed>0.0</speed>
<temp>0.00</temp>
<bpm>0</bpm>
<rpm>0.00</rpm>
</extensions>
</trkpt>
<trkpt lat="64.082008362" lon="-19.555667877">
<ele>408.632813</ele>
<time>2012-07-21T18:23:19Z</time>
<extensions>
<speed>0.0</speed>
<temp>0.00</temp>
<bpm>0</bpm>
<rpm>0.00</rpm>
</extensions>
</trkpt>
<trkpt lat="64.082008362" lon="-19.555667877">
<ele>408.617188</ele>
<time>2012-07-21T18:23:24Z</time>
<extensions>
<speed>0.0</speed>
<temp>0.00</temp>
<bpm>0</bpm>
<rpm>0.00</rpm>
</extensions>
</trkpt>
<trkpt lat="64.082008362" lon="-19.555667877">
<ele>408.609375</ele>
<time>2012-07-21T18:23:29Z</time>
<extensions>
<speed>0.0</speed>
<temp>0.00</temp>
<bpm>0</bpm>
<rpm>0.00</rpm>
</extensions>
</trkpt>
<trkpt lat="64.082008362" lon="-19.555667877">
<ele>408.570313</ele>
<time>2012-07-21T18:23:34Z</time>
<extensions>
<speed>0.0</speed>
<temp>0.00</temp>
<bpm>0</bpm>
<rpm>0.00</rpm>
</extensions>
</trkpt>
<trkpt lat="64.082008362" lon="-19.555667877">
<ele>408.562500</ele>
<time>2012-07-21T18:23:39Z</time>
<speed>0.010000</speed>
<extensions>
<speed>0.0</speed>
<temp>0.00</temp>
<bpm>0</bpm>
<rpm>0.00</rpm>
</extensions>
</trkpt>
<trkpt lat="64.082008362" lon="-19.555667877">
<ele>408.562500</ele>
<time>2012-07-21T18:23:44Z</time>
<extensions>
<speed>0.0</speed>
<temp>0.00</temp>
<bpm>0</bpm>
<rpm>0.00</rpm>
</extensions>
</trkpt>
<trkpt lat="64.082008362" lon="-19.555667877">
<ele>408.546875</ele>
<time>2012-07-21T18:23:49Z</time>
<speed>0.010000</speed>
<extensions>
<speed>0.0</speed>
<temp>0.00</temp>
<bpm>0</bpm>
<rpm>0.00</rpm>
</extensions>
</trkpt>
<trkpt lat="64.082008362" lon="-19.555665970">
<ele>408.523438</ele>
<time>2012-07-21T18:23:54Z</time>
<extensions>
<speed>0.0</speed>
<temp>0.00</temp>
<bpm>0</bpm>
<rpm>0.00</rpm>
</extensions>
</trkpt>
<trkpt lat="64.082008362" lon="-19.555665970">
<ele>408.500000</ele>
<time>2012-07-21T18:23:59Z</time>
<extensions>
<speed>0.0</speed>
<temp>0.00</temp>
<bpm>0</bpm>
<rpm>0.00</rpm>
</extensions>
</trkpt>
<trkpt lat="64.082008362" lon="-19.555665970">
<ele>408.492188</ele>
<time>2012-07-21T18:24:04Z</time>
<extensions>
<speed>0.0</speed>
<temp>0.00</temp>
<bpm>0</bpm>
<rpm>0.00</rpm>
</extensions>
</trkpt>
<trkpt lat="64.082008362" lon="-19.555665970">
<ele>408.460938</ele>
<time>2012-07-21T18:24:09Z</time>
<speed>0.030000</speed>
<extensions>
<speed>0.0</speed>
<temp>0.00</temp>
<bpm>0</bpm>
<rpm>0.00</rpm>
</extensions>
</trkpt>
<trkpt lat="64.082008362" lon="-19.555665970">
<ele>408.421875</ele>
<time>2012-07-21T18:24:14Z</time>
<extensions>
<speed>0.0</speed>
<temp>0.00</temp>
<bpm>0</bpm>
<rpm>0.00</rpm>
</extensions>
</trkpt>
<trkpt lat="64.082008362" lon="-19.555665970">
<ele>408.421875</ele>
<time>2012-07-21T18:24:19Z</time>
<speed>0.010000</speed>
<extensions>
<speed>0.0</speed>
<temp>0.00</temp>
<bpm>0</bpm>
<rpm>0.00</rpm>
</extensions>
</trkpt>
<trkpt lat="64.082008362" lon="-19.555665970">
<ele>408.414063</ele>
<time>2012-07-21T18:24:24Z</time>
<extensions>
<speed>0.0</speed>
<temp>0.00</temp>
<bpm>0</bpm>
<rpm>0.00</rpm>
</extensions>
</trkpt>
<trkpt lat="64.082008362" lon="-19.555665970">
<ele>408.382813</ele>
<time>2012-07-21T18:24:29Z</time>
<extensions>
<speed>0.0</speed>
<temp>0.00</temp>
<bpm>0</bpm>
<rpm>0.00</rpm>
</extensions>
</trkpt>
<trkpt lat="64.082008362" lon="-19.555664063">
<ele>408.335938</ele>
<time>2012-07-21T18:24:34Z</time>
<speed>0.010000</speed>
<extensions>
<speed>0.0</speed>
<temp>0.00</temp>
<bpm>0</bpm>
<rpm>0.00</rpm>
</extensions>
</trkpt>
<trkpt lat="64.082008362" lon="-19.555664063">
<ele>408.328125</ele>
<time>2012-07-21T18:24:39Z</time>
<speed>0.010000</speed>
<extensions>
<speed>0.0</speed>
<temp>0.00</temp>
<bpm>0</bpm>
<rpm>0.00</rpm>
</extensions>
</trkpt>
<trkpt lat="64.082008362" lon="-19.555664063">
<ele>408.296875</ele>
<time>2012-07-21T18:24:44Z</time>
<speed>0.010000</speed>
<extensions>
<speed>0.0</speed>
<temp>0.00</temp>
<bpm>0</bpm>
<rpm>0.00</rpm>
</extensions>
</trkpt>
<trkpt lat="64.082008362" lon="-19.555664063">
<ele>408.265625</ele>
<time>2012-07-21T18:24:49Z</time>
<speed>0.010000</speed>
<extensions>
<speed>0.0</speed>
<temp>0.00</temp>
<bpm>0</bpm>
<rpm>0.00</rpm>
</extensions>
</trkpt>
<trkpt lat="64.082008362" lon="-19.555664063">
<ele>408.226563</ele>
<time>2012-07-21T18:24:54Z</time>
<extensions>
<speed>0.0</speed>
<temp>0.00</temp>
<bpm>0</bpm>
<rpm>0.00</rpm>
</extensions>
</trkpt>
<trkpt lat="64.082008362" lon="-19.555664063">
<ele>408.234375</ele>
<time>2012-07-21T18:24:59Z</time>
<extensions>
<speed>0.0</speed>
<temp>0.00</temp>
<bpm>0</bpm>
<rpm>0.00</rpm>
</extensions>
</trkpt>
<trkpt lat="64.082008362" lon="-19.555664063">
<ele>408.234375</ele>
<time>2012-07-21T18:25:04Z</time>
<speed>0.020000</speed>
<extensions>
<speed>0.0</speed>
<temp>0.00</temp>
<bpm>0</bpm>
<rpm>0.00</rpm>
</extensions>
</trkpt>
<trkpt lat="64.082008362" lon="-19.555664063">
<ele>408.242188</ele>
<time>2012-07-21T18:25:09Z</time>
<extensions>
<speed>0.0</speed>
<temp>0.00</temp>
<bpm>0</bpm>
<rpm>0.00</rpm>
</extensions>
</trkpt>
<trkpt lat="64.082008362" lon="-19.555664063">
<ele>408.218750</ele>
<time>2012-07-21T18:25:14Z</time>
<speed>0.010000</speed>
<extensions>
<speed>0.0</speed>
<temp>0.00</temp>
<bpm>0</bpm>
<rpm>0.00</rpm>
</extensions>
</trkpt>
<trkpt lat="64.082008362" lon="-19.555664063">
<ele>408.187500</ele>
<time>2012-07-21T18:25:19Z</time>
<speed>0.010000</speed>
<extensions>
<speed>0.0</speed>
<temp>0.00</temp>
<bpm>0</bpm>
<rpm>0.00</rpm>
</extensions>
</trkpt>
<trkpt lat="64.082008362" lon="-19.555664063">
<ele>408.179688</ele>
<time>2012-07-21T18:25:24Z</time>
<speed>0.010000</speed>
<extensions>
<speed>0.0</speed>
<temp>0.00</temp>
<bpm>0</bpm>
<rpm>0.00</rpm>
</extensions>
</trkpt>
<trkpt lat="64.082008362" lon="-19.555664063">
<ele>408.148438</ele>
<time>2012-07-21T18:25:29Z</time>
<extensions>
<speed>0.0</speed>
<temp>0.00</temp>
<bpm>0</bpm>
<rpm>0.00</rpm>
</extensions>
</trkpt>
<trkpt lat="64.082008362" lon="-19.555664063">
<ele>408.117188</ele>
<time>2012-07-21T18:25:34Z</time>
<speed>0.010000</speed>
<extensions>
<speed>0.0</speed>
<temp>0.00</temp>
<bpm>0</bpm>
<rpm>0.00</rpm>
</extensions>
</trkpt>
<trkpt lat="64.082008362" lon="-19.555664063">
<ele>408.054688</ele>
<time>2012-07-21T18:25:39Z</time>
<extensions>
<speed>0.0</speed>
<temp>0.00</temp>
<bpm>0</bpm>
<rpm>0.00</rpm>
</extensions>
</trkpt>
<trkpt lat="64.082008362" lon="-19.555664063">
<ele>408.031250</ele>
<time>2012-07-21T18:25:44Z</time>
<extensions>
<speed>0.0</speed>
<temp>0.00</temp>
<bpm>0</bpm>
<rpm>0.00</rpm>
</extensions>
</trkpt>
<trkpt lat="64.082008362" lon="-19.555664063">
<ele>408.015625</ele>
<time>2012-07-21T18:25:49Z</time>
<speed>0.010000</speed>
<extensions>
<speed>0.0</speed>
<temp>0.00</temp>
<bpm>0</bpm>
<rpm>0.00</rpm>
</extensions>
</trkpt>
<trkpt lat="64.082008362" lon="-19.555664063">
<ele>407.976563</ele>
<time>2012-07-21T18:25:54Z</time>
<speed>0.010000</speed>
<extensions>
<speed>0.0</speed>
<temp>0.00</temp>
<bpm>0</bpm>
<rpm>0.00</rpm>
</extensions>
</trkpt>
<trkpt lat="64.082008362" lon="-19.555664063">
<ele>407.929688</ele>
<time>2012-07-21T18:25:59Z</time>
<speed>0.020000</speed>
<extensions>
<speed>0.0</speed>
<temp>0.00</temp>
<bpm>0</bpm>
<rpm>0.00</rpm>
</extensions>
</trkpt>
<trkpt lat="64.082008362" lon="-19.555664063">
<ele>407.890625</ele>
<time>2012-07-21T18:26:04Z</time>
<speed>0.010000</speed>
<extensions>
<speed>0.0</speed>
<temp>0.00</temp>
<bpm>0</bpm>
<rpm>0.00</rpm>
</extensions>
</trkpt>
<trkpt lat="64.082008362" lon="-19.555664063">
<ele>407.867188</ele>
<time>2012-07-21T18:26:09Z</time>
<extensions>
<speed>0.0</speed>
<temp>0.00</temp>
<bpm>0</bpm>
<rpm>0.00</rpm>
</extensions>
</trkpt>
<trkpt lat="64.082008362" lon="-19.555664063">
<ele>407.867188</ele>
<time>2012-07-21T18:26:14Z</time>
<speed>0.010000</speed>
<extensions>
<speed>0.0</speed>
<temp>0.00</temp>
<bpm>0</bpm>
<rpm>0.00</rpm>
</extensions>
</trkpt>
<trkpt lat="64.082008362" lon="-19.555662155">
<ele>407.828125</ele>
<time>2012-07-21T18:26:19Z</time>
<speed>0.010000</speed>
<extensions>
<speed>0.0</speed>
<temp>0.00</temp>
<bpm>0</bpm>
<rpm>0.00</rpm>
</extensions>
</trkpt>
<trkpt lat="64.082008362" lon="-19.555662155">
<ele>407.789063</ele>
<time>2012-07-21T18:26:24Z</time>
<extensions>
<speed>0.0</speed>
<temp>0.00</temp>
<bpm>0</bpm>
<rpm>0.00</rpm>
</extensions>
</trkpt>
<trkpt lat="64.082008362" lon="-19.555662155">
<ele>407.765625</ele>
<time>2012-07-21T18:26:29Z</time>
<speed>0.010000</speed>
<extensions>
<speed>0.0</speed>
<temp>0.00</temp>
<bpm>0</bpm>
<rpm>0.00</rpm>
</extensions>
</trkpt>
<trkpt lat="64.082008362" lon="-19.555662155">
<ele>407.757813</ele>
<time>2012-07-21T18:26:34Z</time>
<speed>0.010000</speed>
<extensions>
<speed>0.0</speed>
<temp>0.00</temp>
<bpm>0</bpm>
<rpm>0.00</rpm>
</extensions>
</trkpt>
<trkpt lat="64.082008362" lon="-19.555662155">
<ele>407.734375</ele>
<time>2012-07-21T18:26:39Z</time>
<speed>0.020000</speed>
<extensions>
<speed>0.0</speed>
<temp>0.00</temp>
<bpm>0</bpm>
<rpm>0.00</rpm>
</extensions>
</trkpt>
<trkpt lat="64.082008362" lon="-19.555662155">
<ele>407.695313</ele>
<time>2012-07-21T18:26:44Z</time>
<speed>0.020000</speed>
<extensions>
<speed>0.0</speed>
<temp>0.00</temp>
<bpm>0</bpm>
<rpm>0.00</rpm>
</extensions>
</trkpt>
<trkpt lat="64.082008362" lon="-19.555662155">
<ele>407.664063</ele>
<time>2012-07-21T18:26:49Z</time>
<speed>0.010000</speed>
<extensions>
<speed>0.0</speed>
<temp>0.00</temp>
<bpm>0</bpm>
<rpm>0.00</rpm>
</extensions>
</trkpt>
<trkpt lat="64.082008362" lon="-19.555662155">
<ele>407.648438</ele>
<time>2012-07-21T18:26:54Z</time>
<speed>0.020000</speed>
<extensions>
<speed>0.0</speed>
<temp>0.00</temp>
<bpm>0</bpm>
<rpm>0.00</rpm>
</extensions>
</trkpt>
<trkpt lat="64.082008362" lon="-19.555662155">
<ele>407.632813</ele>
<time>2012-07-21T18:26:59Z</time>
<speed>0.020000</speed>
<extensions>
<speed>0.0</speed>
<temp>0.00</temp>
<bpm>0</bpm>
<rpm>0.00</rpm>
</extensions>
</trkpt>
<trkpt lat="64.082008362" lon="-19.555662155">
<ele>407.648438</ele>
<time>2012-07-21T18:27:04Z</time>
<speed>0.030000</speed>
<extensions>
<speed>0.0</speed>
<temp>0.00</temp>
<bpm>0</bpm>
<rpm>0.00</rpm>
</extensions>
</trkpt>
<trkpt lat="64.082000732" lon="-19.555662155">
<ele>407.617188</ele>
<time>2012-07-21T18:27:09Z</time>
<speed>0.370000</speed>
<extensions>
<speed>0.4</speed>
<temp>0.00</temp>
<bpm>0</bpm>
<rpm>0.00</rpm>
</extensions>
</trkpt>
<trkpt lat="64.081993103" lon="-19.555664063">
<ele>406.734375</ele>
<time>2012-07-21T18:27:14Z</time>
<speed>0.080000</speed>
<extensions>
<speed>0.1</speed>
<temp>0.00</temp>
<bpm>0</bpm>
<rpm>0.00</rpm>
</extensions>
</trkpt>
<trkpt lat="64.081993103" lon="-19.555669785">
<ele>405.914063</ele>
<time>2012-07-21T18:27:19Z</time>
<speed>0.080000</speed>
<extensions>
<speed>0.1</speed>
<temp>0.00</temp>
<bpm>0</bpm>
<rpm>0.00</rpm>
</extensions>
</trkpt>
<trkpt lat="64.081993103" lon="-19.555671692">
<ele>405.109375</ele>
<time>2012-07-21T18:27:24Z</time>
<speed>0.060000</speed>
<extensions>
<speed>0.1</speed>
<temp>0.00</temp>
<bpm>0</bpm>
<rpm>0.00</rpm>
</extensions>
</trkpt>
<trkpt lat="64.081993103" lon="-19.555667877">
<ele>404.398438</ele>
<time>2012-07-21T18:27:29Z</time>
<speed>0.040000</speed>
<extensions>
<speed>0.0</speed>
<temp>0.00</temp>
<bpm>0</bpm>
<rpm>0.00</rpm>
</extensions>
</trkpt>
<trkpt lat="64.081985474" lon="-19.555664063">
<ele>403.734375</ele>
<time>2012-07-21T18:27:34Z</time>
<speed>0.050000</speed>
<extensions>
<speed>0.1</speed>
<temp>0.00</temp>
<bpm>0</bpm>
<rpm>0.00</rpm>
</extensions>
</trkpt>
<trkpt lat="64.081985474" lon="-19.555660248">
<ele>403.164063</ele>
<time>2012-07-21T18:27:39Z</time>
<speed>0.040000</speed>
<extensions>
<speed>0.0</speed>
<temp>0.00</temp>
<bpm>0</bpm>
<rpm>0.00</rpm>
</extensions>
</trkpt>
<trkpt lat="64.081985474" lon="-19.555658340">
<ele>402.671875</ele>
<time>2012-07-21T18:27:44Z</time>
<speed>0.040000</speed>
<extensions>
<speed>0.0</speed>
<temp>0.00</temp>
<bpm>0</bpm>
<rpm>0.00</rpm>
</extensions>
</trkpt>
<trkpt lat="64.081985474" lon="-19.555656433">
<ele>402.148438</ele>
<time>2012-07-21T18:27:49Z</time>
<speed>0.040000</speed>
<extensions>
<speed>0.0</speed>
<temp>0.00</temp>
<bpm>0</bpm>
<rpm>0.00</rpm>
</extensions>
</trkpt>
<trkpt lat="64.081985474" lon="-19.555652618">
<ele>401.601563</ele>
<time>2012-07-21T18:27:54Z</time>
<speed>0.050000</speed>
<extensions>
<speed>0.1</speed>
<temp>0.00</temp>
<bpm>0</bpm>
<rpm>0.00</rpm>
</extensions>
</trkpt>
<trkpt lat="64.081977844" lon="-19.555650711">
<ele>401.070313</ele>
<time>2012-07-21T18:27:59Z</time>
<speed>0.020000</speed>
<extensions>
<speed>0.0</speed>
<temp>0.00</temp>
<bpm>0</bpm>
<rpm>0.00</rpm>
</extensions>
</trkpt>
<trkpt lat="64.081977844" lon="-19.555652618">
<ele>400.546875</ele>
<time>2012-07-21T18:28:04Z</time>
<speed>0.030000</speed>
<extensions>
<speed>0.0</speed>
<temp>0.00</temp>
<bpm>0</bpm>
<rpm>0.00</rpm>
</extensions>
</trkpt>
<trkpt lat="64.081977844" lon="-19.555654526">
<ele>400.000000</ele>
<time>2012-07-21T18:28:09Z</time>
<speed>0.050000</speed>
<extensions>
<speed>0.1</speed>
<temp>0.00</temp>
<bpm>0</bpm>
<rpm>0.00</rpm>
</extensions>
</trkpt>
<trkpt lat="64.081977844" lon="-19.555656433">
<ele>399.546875</ele>
<time>2012-07-21T18:28:14Z</time>
<speed>0.010000</speed>
<extensions>
<speed>0.0</speed>
<temp>0.00</temp>
<bpm>0</bpm>
<rpm>0.00</rpm>
</extensions>
</trkpt>
<trkpt lat="64.081977844" lon="-19.555658340">
<ele>399.109375</ele>
<time>2012-07-21T18:28:19Z</time>
<speed>0.030000</speed>
<extensions>
<speed>0.0</speed>
<temp>0.00</temp>
<bpm>0</bpm>
<rpm>0.00</rpm>
</extensions>
</trkpt>
<trkpt lat="64.081977844" lon="-19.555660248">
<ele>398.703125</ele>
<time>2012-07-21T18:28:24Z</time>
<speed>0.080000</speed>
<extensions>
<speed>0.1</speed>
<temp>0.00</temp>
<bpm>0</bpm>
<rpm>0.00</rpm>
</extensions>
</trkpt>
<trkpt lat="64.081970215" lon="-19.555660248">
<ele>398.375000</ele>
<time>2012-07-21T18:28:29Z</time>
<speed>0.040000</speed>
<extensions>
<speed>0.0</speed>
<temp>0.00</temp>
<bpm>0</bpm>
<rpm>0.00</rpm>
</extensions>
</trkpt>
<trkpt lat="64.081970215" lon="-19.555660248">
<ele>398.304688</ele>
<time>2012-07-21T18:28:34Z</time>
<speed>0.020000</speed>
<extensions>
<speed>0.0</speed>
<temp>0.00</temp>
<bpm>0</bpm>
<rpm>0.00</rpm>
</extensions>
</trkpt>
<trkpt lat="64.081970215" lon="-19.555660248">
<ele>398.304688</ele>
<time>2012-07-21T18:28:39Z</time>
<extensions>
<speed>0.0</speed>
<temp>0.00</temp>
<bpm>0</bpm>
<rpm>0.00</rpm>
</extensions>
</trkpt>
<trkpt lat="64.081970215" lon="-19.555660248">
<ele>398.296875</ele>
<time>2012-07-21T18:28:44Z</time>
<speed>0.060000</speed>
<extensions>
<speed>0.1</speed>
<temp>0.00</temp>
<bpm>0</bpm>
<rpm>0.00</rpm>
</extensions>
</trkpt>
<trkpt lat="64.081970215" lon="-19.555660248">
<ele>398.296875</ele>
<time>2012-07-21T18:28:49Z</time>
<extensions>
<speed>0.0</speed>
<temp>0.00</temp>
<bpm>0</bpm>
<rpm>0.00</rpm>
</extensions>
</trkpt>
<trkpt lat="64.081970215" lon="-19.555660248">
<ele>398.296875</ele>
<time>2012-07-21T18:28:54Z</time>
<speed>0.010000</speed>
<extensions>
<speed>0.0</speed>
<temp>0.00</temp>
<bpm>0</bpm>
<rpm>0.00</rpm>
</extensions>
</trkpt>
<trkpt lat="64.081970215" lon="-19.555660248">
<ele>398.289063</ele>
<time>2012-07-21T18:28:59Z</time>
<speed>0.010000</speed>
<extensions>
<speed>0.0</speed>
<temp>0.00</temp>
<bpm>0</bpm>
<rpm>0.00</rpm>
</extensions>
</trkpt>
<trkpt lat="64.081970215" lon="-19.555660248">
<ele>398.289063</ele>
<time>2012-07-21T18:29:04Z</time>
<extensions>
<speed>0.0</speed>
<temp>0.00</temp>
<bpm>0</bpm>
<rpm>0.00</rpm>
</extensions>
</trkpt>
<trkpt lat="64.081970215" lon="-19.555660248">
<ele>398.304688</ele>
<time>2012-07-21T18:29:09Z</time>
<extensions>
<speed>0.0</speed>
<temp>0.00</temp>
<bpm>0</bpm>
<rpm>0.00</rpm>
</extensions>
</trkpt>
<trkpt lat="64.081970215" lon="-19.555662155">
<ele>398.289063</ele>
<time>2012-07-21T18:29:14Z</time>
<extensions>
<speed>0.0</speed>
<temp>0.00</temp>
<bpm>0</bpm>
<rpm>0.00</rpm>
</extensions>
</trkpt>
<trkpt lat="64.081970215" lon="-19.555662155">
<ele>398.289063</ele>
<time>2012-07-21T18:29:19Z</time>
<speed>0.020000</speed>
<extensions>
<speed>0.0</speed>
<temp>0.00</temp>
<bpm>0</bpm>
<rpm>0.00</rpm>
</extensions>
</trkpt>
<trkpt lat="64.081970215" lon="-19.555662155">
<ele>398.304688</ele>
<time>2012-07-21T18:29:24Z</time>
<extensions>
<speed>0.0</speed>
<temp>0.00</temp>
<bpm>0</bpm>
<rpm>0.00</rpm>
</extensions>
</trkpt>
<trkpt lat="64.081970215" lon="-19.555662155">
<ele>398.312500</ele>
<time>2012-07-21T18:29:29Z</time>
<extensions>
<speed>0.0</speed>
<temp>0.00</temp>
<bpm>0</bpm>
<rpm>0.00</rpm>
</extensions>
</trkpt>
<trkpt lat="64.081970215" lon="-19.555662155">
<ele>398.320313</ele>
<time>2012-07-21T18:29:34Z</time>
<extensions>
<speed>0.0</speed>
<temp>0.00</temp>
<bpm>0</bpm>
<rpm>0.00</rpm>
</extensions>
</trkpt>
<trkpt lat="64.081970215" lon="-19.555662155">
<ele>398.335938</ele>
<time>2012-07-21T18:29:39Z</time>
<speed>0.010000</speed>
<extensions>
<speed>0.0</speed>
<temp>0.00</temp>
<bpm>0</bpm>
<rpm>0.00</rpm>
</extensions>
</trkpt>
<trkpt lat="64.081970215" lon="-19.555662155">
<ele>398.335938</ele>
<time>2012-07-21T18:29:44Z</time>
<speed>0.020000</speed>
<extensions>
<speed>0.0</speed>
<temp>0.00</temp>
<bpm>0</bpm>
<rpm>0.00</rpm>
</extensions>
</trkpt>
<trkpt lat="64.081970215" lon="-19.555662155">
<ele>398.328125</ele>
<time>2012-07-21T18:29:49Z</time>
<speed>0.010000</speed>
<extensions>
<speed>0.0</speed>
<temp>0.00</temp>
<bpm>0</bpm>
<rpm>0.00</rpm>
</extensions>
</trkpt>
<trkpt lat="64.081970215" lon="-19.555664063">
<ele>398.328125</ele>
<time>2012-07-21T18:29:54Z</time>
<extensions>
<speed>0.0</speed>
<temp>0.00</temp>
<bpm>0</bpm>
<rpm>0.00</rpm>
</extensions>
</trkpt>
<trkpt lat="64.081970215" lon="-19.555664063">
<ele>398.320313</ele>
<time>2012-07-21T18:29:59Z</time>
<speed>0.030000</speed>
<extensions>
<speed>0.0</speed>
<temp>0.00</temp>
<bpm>0</bpm>
<rpm>0.00</rpm>
</extensions>
</trkpt>
<trkpt lat="64.081970215" lon="-19.555664063">
<ele>398.289063</ele>
<time>2012-07-21T18:30:04Z</time>
<speed>0.010000</speed>
<extensions>
<speed>0.0</speed>
<temp>0.00</temp>
<bpm>0</bpm>
<rpm>0.00</rpm>
</extensions>
</trkpt>
<trkpt lat="64.081970215" lon="-19.555664063">
<ele>398.304688</ele>
<time>2012-07-21T18:30:09Z</time>
<extensions>
<speed>0.0</speed>
<temp>0.00</temp>
<bpm>0</bpm>
<rpm>0.00</rpm>
</extensions>
</trkpt>
<trkpt lat="64.081970215" lon="-19.555664063">
<ele>398.328125</ele>
<time>2012-07-21T18:30:14Z</time>
<extensions>
<speed>0.0</speed>
<temp>0.00</temp>
<bpm>0</bpm>
<rpm>0.00</rpm>
</extensions>
</trkpt>
<trkpt lat="64.081970215" lon="-19.555664063">
<ele>398.320313</ele>
<time>2012-07-21T18:30:19Z</time>
<speed>0.010000</speed>
<extensions>
<speed>0.0</speed>
<temp>0.00</temp>
<bpm>0</bpm>
<rpm>0.00</rpm>
</extensions>
</trkpt>
<trkpt lat="64.081970215" lon="-19.555664063">
<ele>398.320313</ele>
<time>2012-07-21T18:30:24Z</time>
<speed>0.010000</speed>
<extensions>
<speed>0.0</speed>
<temp>0.00</temp>
<bpm>0</bpm>
<rpm>0.00</rpm>
</extensions>
</trkpt>
<trkpt lat="64.081970215" lon="-19.555664063">
<ele>398.343750</ele>
<time>2012-07-21T18:30:29Z</time>
<speed>0.010000</speed>
<extensions>
<speed>0.0</speed>
<temp>0.00</temp>
<bpm>0</bpm>
<rpm>0.00</rpm>
</extensions>
</trkpt>
<trkpt lat="64.081970215" lon="-19.555664063">
<ele>398.390625</ele>
<time>2012-07-21T18:30:34Z</time>
<speed>0.020000</speed>
<extensions>
<speed>0.0</speed>
<temp>0.00</temp>
<bpm>0</bpm>
<rpm>0.00</rpm>
</extensions>
</trkpt>
<trkpt lat="64.081970215" lon="-19.555664063">
<ele>398.414063</ele>
<time>2012-07-21T18:30:39Z</time>
<speed>0.020000</speed>
<extensions>
<speed>0.0</speed>
<temp>0.00</temp>
<bpm>0</bpm>
<rpm>0.00</rpm>
</extensions>
</trkpt>
<trkpt lat="64.081970215" lon="-19.555664063">
<ele>398.429688</ele>
<time>2012-07-21T18:30:44Z</time>
<speed>0.010000</speed>
<extensions>
<speed>0.0</speed>
<temp>0.00</temp>
<bpm>0</bpm>
<rpm>0.00</rpm>
</extensions>
</trkpt>
<trkpt lat="64.081970215" lon="-19.555665970">
<ele>398.460938</ele>
<time>2012-07-21T18:30:49Z</time>
<extensions>
<speed>0.0</speed>
<temp>0.00</temp>
<bpm>0</bpm>
<rpm>0.00</rpm>
</extensions>
</trkpt>
<trkpt lat="64.081970215" lon="-19.555665970">
<ele>398.460938</ele>
<time>2012-07-21T18:30:54Z</time>
<extensions>
<speed>0.0</speed>
<temp>0.00</temp>
<bpm>0</bpm>
<rpm>0.00</rpm>
</extensions>
</trkpt>
<trkpt lat="64.081970215" lon="-19.555665970">
<ele>398.460938</ele>
<time>2012-07-21T18:30:59Z</time>
<speed>0.010000</speed>
<extensions>
<speed>0.0</speed>
<temp>0.00</temp>
<bpm>0</bpm>
<rpm>0.00</rpm>
</extensions>
</trkpt>
<trkpt lat="64.081970215" lon="-19.555665970">
<ele>398.468750</ele>
<time>2012-07-21T18:31:04Z</time>
<speed>0.010000</speed>
<extensions>
<speed>0.0</speed>
<temp>0.00</temp>
<bpm>0</bpm>
<rpm>0.00</rpm>
</extensions>
</trkpt>
<trkpt lat="64.081970215" lon="-19.555665970">
<ele>398.476563</ele>
<time>2012-07-21T18:31:09Z</time>
<speed>0.020000</speed>
<extensions>
<speed>0.0</speed>
<temp>0.00</temp>
<bpm>0</bpm>
<rpm>0.00</rpm>
</extensions>
</trkpt>
<trkpt lat="64.081970215" lon="-19.555665970">
<ele>398.492188</ele>
<time>2012-07-21T18:31:14Z</time>
<extensions>
<speed>0.0</speed>
<temp>0.00</temp>
<bpm>0</bpm>
<rpm>0.00</rpm>
</extensions>
</trkpt>
<trkpt lat="64.081970215" lon="-19.555665970">
<ele>398.515625</ele>
<time>2012-07-21T18:31:19Z</time>
<speed>0.010000</speed>
<extensions>
<speed>0.0</speed>
<temp>0.00</temp>
<bpm>0</bpm>
<rpm>0.00</rpm>
</extensions>
</trkpt>
<trkpt lat="64.081970215" lon="-19.555665970">
<ele>398.492188</ele>
<time>2012-07-21T18:31:24Z</time>
<extensions>
<speed>0.0</speed>
<temp>0.00</temp>
<bpm>0</bpm>
<rpm>0.00</rpm>
</extensions>
</trkpt>
<trkpt lat="64.081970215" lon="-19.555665970">
<ele>398.515625</ele>
<time>2012-07-21T18:31:29Z</time>
<speed>0.020000</speed>
<extensions>
<speed>0.0</speed>
<temp>0.00</temp>
<bpm>0</bpm>
<rpm>0.00</rpm>
</extensions>
</trkpt>
<trkpt lat="64.081970215" lon="-19.555665970">
<ele>398.562500</ele>
<time>2012-07-21T18:31:34Z</time>
<extensions>
<speed>0.0</speed>
<temp>0.00</temp>
<bpm>0</bpm>
<rpm>0.00</rpm>
</extensions>
</trkpt>
<trkpt lat="64.081970215" lon="-19.555665970">
<ele>398.585938</ele>
<time>2012-07-21T18:31:39Z</time>
<speed>0.020000</speed>
<extensions>
<speed>0.0</speed>
<temp>0.00</temp>
<bpm>0</bpm>
<rpm>0.00</rpm>
</extensions>
</trkpt>
<trkpt lat="64.081970215" lon="-19.555665970">
<ele>398.601563</ele>
<time>2012-07-21T18:31:44Z</time>
<extensions>
<speed>0.0</speed>
<temp>0.00</temp>
<bpm>0</bpm>
<rpm>0.00</rpm>
</extensions>
</trkpt>
<trkpt lat="64.081970215" lon="-19.555667877">
<ele>398.593750</ele>
<time>2012-07-21T18:31:49Z</time>
<extensions>
<speed>0.0</speed>
<temp>0.00</temp>
<bpm>0</bpm>
<rpm>0.00</rpm>
</extensions>
</trkpt>
<trkpt lat="64.081970215" lon="-19.555667877">
<ele>398.578125</ele>
<time>2012-07-21T18:31:54Z</time>
<speed>0.010000</speed>
<extensions>
<speed>0.0</speed>
<temp>0.00</temp>
<bpm>0</bpm>
<rpm>0.00</rpm>
</extensions>
</trkpt>
<trkpt lat="64.081970215" lon="-19.555667877">
<ele>398.578125</ele>
<time>2012-07-21T18:31:59Z</time>
<extensions>
<speed>0.0</speed>
<temp>0.00</temp>
<bpm>0</bpm>
<rpm>0.00</rpm>
</extensions>
</trkpt>
<trkpt lat="64.081970215" lon="-19.555667877">
<ele>398.539063</ele>
<time>2012-07-21T18:32:04Z</time>
<speed>0.020000</speed>
<extensions>
<speed>0.0</speed>
<temp>0.00</temp>
<bpm>0</bpm>
<rpm>0.00</rpm>
</extensions>
</trkpt>
<trkpt lat="64.081970215" lon="-19.555667877">
<ele>398.515625</ele>
<time>2012-07-21T18:32:09Z</time>
<speed>0.010000</speed>
<extensions>
<speed>0.0</speed>
<temp>0.00</temp>
<bpm>0</bpm>
<rpm>0.00</rpm>
</extensions>
</trkpt>
<trkpt lat="64.081970215" lon="-19.555667877">
<ele>398.539063</ele>
<time>2012-07-21T18:32:14Z</time>
<extensions>
<speed>0.0</speed>
<temp>0.00</temp>
<bpm>0</bpm>
<rpm>0.00</rpm>
</extensions>
</trkpt>
<trkpt lat="64.081970215" lon="-19.555667877">
<ele>398.554688</ele>
<time>2012-07-21T18:32:19Z</time>
<speed>0.020000</speed>
<extensions>
<speed>0.0</speed>
<temp>0.00</temp>
<bpm>0</bpm>
<rpm>0.00</rpm>
</extensions>
</trkpt>
<trkpt lat="64.081970215" lon="-19.555667877">
<ele>398.546875</ele>
<time>2012-07-21T18:32:24Z</time>
<speed>0.020000</speed>
<extensions>
<speed>0.0</speed>
<temp>0.00</temp>
<bpm>0</bpm>
<rpm>0.00</rpm>
</extensions>
</trkpt>
<trkpt lat="64.081970215" lon="-19.555667877">
<ele>398.539063</ele>
<time>2012-07-21T18:32:29Z</time>
<extensions>
<speed>0.0</speed>
<temp>0.00</temp>
<bpm>0</bpm>
<rpm>0.00</rpm>
</extensions>
</trkpt>
<trkpt lat="64.081970215" lon="-19.555667877">
<ele>398.593750</ele>
<time>2012-07-21T18:32:34Z</time>
<speed>0.010000</speed>
<extensions>
<speed>0.0</speed>
<temp>0.00</temp>
<bpm>0</bpm>
<rpm>0.00</rpm>
</extensions>
</trkpt>
<trkpt lat="64.081970215" lon="-19.555667877">
<ele>398.617188</ele>
<time>2012-07-21T18:32:39Z</time>
<speed>0.010000</speed>
<extensions>
<speed>0.0</speed>
<temp>0.00</temp>
<bpm>0</bpm>
<rpm>0.00</rpm>
</extensions>
</trkpt>
<trkpt lat="64.081970215" lon="-19.555667877">
<ele>398.609375</ele>
<time>2012-07-21T18:32:44Z</time>
<speed>0.010000</speed>
<extensions>
<speed>0.0</speed>
<temp>0.00</temp>
<bpm>0</bpm>
<rpm>0.00</rpm>
</extensions>
</trkpt>
<trkpt lat="64.081970215" lon="-19.555667877">
<ele>398.656250</ele>
<time>2012-07-21T18:32:49Z</time>
<speed>0.010000</speed>
<extensions>
<speed>0.0</speed>
<temp>0.00</temp>
<bpm>0</bpm>
<rpm>0.00</rpm>
</extensions>
</trkpt>
<trkpt lat="64.081970215" lon="-19.555667877">
<ele>398.695313</ele>
<time>2012-07-21T18:32:54Z</time>
<speed>0.010000</speed>
<extensions>
<speed>0.0</speed>
<temp>0.00</temp>
<bpm>0</bpm>
<rpm>0.00</rpm>
</extensions>
</trkpt>
<trkpt lat="64.081970215" lon="-19.555667877">
<ele>398.710938</ele>
<time>2012-07-21T18:32:59Z</time>
<speed>0.010000</speed>
<extensions>
<speed>0.0</speed>
<temp>0.00</temp>
<bpm>0</bpm>
<rpm>0.00</rpm>
</extensions>
</trkpt>
<trkpt lat="64.081970215" lon="-19.555667877">
<ele>398.710938</ele>
<time>2012-07-21T18:33:04Z</time>
<speed>0.010000</speed>
<extensions>
<speed>0.0</speed>
<temp>0.00</temp>
<bpm>0</bpm>
<rpm>0.00</rpm>
</extensions>
</trkpt>
<trkpt lat="64.081970215" lon="-19.555667877">
<ele>398.718750</ele>
<time>2012-07-21T18:33:09Z</time>
<extensions>
<speed>0.0</speed>
<temp>0.00</temp>
<bpm>0</bpm>
<rpm>0.00</rpm>
</extensions>
</trkpt>
<trkpt lat="64.081970215" lon="-19.555669785">
<ele>398.742188</ele>
<time>2012-07-21T18:33:14Z</time>
<extensions>
<speed>0.0</speed>
<temp>0.00</temp>
<bpm>0</bpm>
<rpm>0.00</rpm>
</extensions>
</trkpt>
<trkpt lat="64.081970215" lon="-19.555667877">
<ele>398.734375</ele>
<time>2012-07-21T18:33:19Z</time>
<extensions>
<speed>0.0</speed>
<temp>0.00</temp>
<bpm>0</bpm>
<rpm>0.00</rpm>
</extensions>
</trkpt>
<trkpt lat="64.081970215" lon="-19.555667877">
<ele>398.757813</ele>
<time>2012-07-21T18:33:24Z</time>
<speed>0.010000</speed>
<extensions>
<speed>0.0</speed>
<temp>0.00</temp>
<bpm>0</bpm>
<rpm>0.00</rpm>
</extensions>
</trkpt>
<trkpt lat="64.081970215" lon="-19.555667877">
<ele>398.757813</ele>
<time>2012-07-21T18:33:29Z</time>
<speed>0.020000</speed>
<extensions>
<speed>0.0</speed>
<temp>0.00</temp>
<bpm>0</bpm>
<rpm>0.00</rpm>
</extensions>
</trkpt>
<trkpt lat="64.081970215" lon="-19.555667877">
<ele>398.773438</ele>
<time>2012-07-21T18:33:34Z</time>
<speed>0.010000</speed>
<extensions>
<speed>0.0</speed>
<temp>0.00</temp>
<bpm>0</bpm>
<rpm>0.00</rpm>
</extensions>
</trkpt>
<trkpt lat="64.081970215" lon="-19.555669785">
<ele>398.789063</ele>
<time>2012-07-21T18:33:39Z</time>
<extensions>
<speed>0.0</speed>
<temp>0.00</temp>
<bpm>0</bpm>
<rpm>0.00</rpm>
</extensions>
</trkpt>
<trkpt lat="64.081970215" lon="-19.555669785">
<ele>398.804688</ele>
<time>2012-07-21T18:33:44Z</time>
<speed>0.020000</speed>
<extensions>
<speed>0.0</speed>
<temp>0.00</temp>
<bpm>0</bpm>
<rpm>0.00</rpm>
</extensions>
</trkpt>
<trkpt lat="64.081970215" lon="-19.555669785">
<ele>398.812500</ele>
<time>2012-07-21T18:33:49Z</time>
<extensions>
<speed>0.0</speed>
<temp>0.00</temp>
<bpm>0</bpm>
<rpm>0.00</rpm>
</extensions>
</trkpt>
<trkpt lat="64.081970215" lon="-19.555669785">
<ele>398.843750</ele>
<time>2012-07-21T18:33:54Z</time>
<speed>0.020000</speed>
<extensions>
<speed>0.0</speed>
<temp>0.00</temp>
<bpm>0</bpm>
<rpm>0.00</rpm>
</extensions>
</trkpt>
<trkpt lat="64.081970215" lon="-19.555669785">
<ele>398.859375</ele>
<time>2012-07-21T18:33:59Z</time>
<speed>0.010000</speed>
<extensions>
<speed>0.0</speed>
<temp>0.00</temp>
<bpm>0</bpm>
<rpm>0.00</rpm>
</extensions>
</trkpt>
<trkpt lat="64.081970215" lon="-19.555669785">
<ele>398.890625</ele>
<time>2012-07-21T18:34:04Z</time>
<speed>0.010000</speed>
<extensions>
<speed>0.0</speed>
<temp>0.00</temp>
<bpm>0</bpm>
<rpm>0.00</rpm>
</extensions>
</trkpt>
<trkpt lat="64.081970215" lon="-19.555669785">
<ele>398.929688</ele>
<time>2012-07-21T18:34:09Z</time>
<extensions>
<speed>0.0</speed>
<temp>0.00</temp>
<bpm>0</bpm>
<rpm>0.00</rpm>
</extensions>
</trkpt>
<trkpt lat="64.081970215" lon="-19.555669785">
<ele>398.953125</ele>
<time>2012-07-21T18:34:14Z</time>
<speed>0.010000</speed>
<extensions>
<speed>0.0</speed>
<temp>0.00</temp>
<bpm>0</bpm>
<rpm>0.00</rpm>
</extensions>
</trkpt>
<trkpt lat="64.081970215" lon="-19.555669785">
<ele>398.976563</ele>
<time>2012-07-21T18:34:19Z</time>
<speed>0.010000</speed>
<extensions>
<speed>0.0</speed>
<temp>0.00</temp>
<bpm>0</bpm>
<rpm>0.00</rpm>
</extensions>
</trkpt>
<trkpt lat="64.081977844" lon="-19.555669785">
<ele>399.007813</ele>
<time>2012-07-21T18:34:24Z</time>
<extensions>
<speed>0.0</speed>
<temp>0.00</temp>
<bpm>0</bpm>
<rpm>0.00</rpm>
</extensions>
</trkpt>
<trkpt lat="64.081977844" lon="-19.555669785">
<ele>399.031250</ele>
<time>2012-07-21T18:34:29Z</time>
<speed>0.020000</speed>
<extensions>
<speed>0.0</speed>
<temp>0.00</temp>
<bpm>0</bpm>
<rpm>0.00</rpm>
</extensions>
</trkpt>
<trkpt lat="64.081977844" lon="-19.555669785">
<ele>399.046875</ele>
<time>2012-07-21T18:34:34Z</time>
<extensions>
<speed>0.0</speed>
<temp>0.00</temp>
<bpm>0</bpm>
<rpm>0.00</rpm>
</extensions>
</trkpt>
<trkpt lat="64.081977844" lon="-19.555669785">
<ele>399.078125</ele>
<time>2012-07-21T18:34:39Z</time>
<extensions>
<speed>0.0</speed>
<temp>0.00</temp>
<bpm>0</bpm>
<rpm>0.00</rpm>
</extensions>
</trkpt>
<trkpt lat="64.081977844" lon="-19.555669785">
<ele>399.117188</ele>
<time>2012-07-21T18:34:44Z</time>
<speed>0.010000</speed>
<extensions>
<speed>0.0</speed>
<temp>0.00</temp>
<bpm>0</bpm>
<rpm>0.00</rpm>
</extensions>
</trkpt>
<trkpt lat="64.081977844" lon="-19.555669785">
<ele>399.164063</ele>
<time>2012-07-21T18:34:49Z</time>
<extensions>
<speed>0.0</speed>
<temp>0.00</temp>
<bpm>0</bpm>
<rpm>0.00</rpm>
</extensions>
</trkpt>
<trkpt lat="64.081977844" lon="-19.555669785">
<ele>399.195313</ele>
<time>2012-07-21T18:34:54Z</time>
<extensions>
<speed>0.0</speed>
<temp>0.00</temp>
<bpm>0</bpm>
<rpm>0.00</rpm>
</extensions>
</trkpt>
<trkpt lat="64.081977844" lon="-19.555669785">
<ele>399.226563</ele>
<time>2012-07-21T18:34:59Z</time>
<speed>0.020000</speed>
<extensions>
<speed>0.0</speed>
<temp>0.00</temp>
<bpm>0</bpm>
<rpm>0.00</rpm>
</extensions>
</trkpt>
<trkpt lat="64.081977844" lon="-19.555669785">
<ele>399.289063</ele>
<time>2012-07-21T18:35:04Z</time>
<speed>0.040000</speed>
<extensions>
<speed>0.0</speed>
<temp>0.00</temp>
<bpm>0</bpm>
<rpm>0.00</rpm>
</extensions>
</trkpt>
<trkpt lat="64.081977844" lon="-19.555669785">
<ele>399.351563</ele>
<time>2012-07-21T18:35:09Z</time>
<speed>0.020000</speed>
<extensions>
<speed>0.0</speed>
<temp>0.00</temp>
<bpm>0</bpm>
<rpm>0.00</rpm>
</extensions>
</trkpt>
<trkpt lat="64.081977844" lon="-19.555669785">
<ele>399.382813</ele>
<time>2012-07-21T18:35:14Z</time>
<speed>0.040000</speed>
<extensions>
<speed>0.0</speed>
<temp>0.00</temp>
<bpm>0</bpm>
<rpm>0.00</rpm>
</extensions>
</trkpt>
<trkpt lat="64.081977844" lon="-19.555669785">
<ele>399.429688</ele>
<time>2012-07-21T18:35:19Z</time>
<speed>0.030000</speed>
<extensions>
<speed>0.0</speed>
<temp>0.00</temp>
<bpm>0</bpm>
<rpm>0.00</rpm>
</extensions>
</trkpt>
<trkpt lat="64.081977844" lon="-19.555669785">
<ele>399.468750</ele>
<time>2012-07-21T18:35:24Z</time>
<speed>0.020000</speed>
<extensions>
<speed>0.0</speed>
<temp>0.00</temp>
<bpm>0</bpm>
<rpm>0.00</rpm>
</extensions>
</trkpt>
<trkpt lat="64.081977844" lon="-19.555669785">
<ele>399.507813</ele>
<time>2012-07-21T18:35:29Z</time>
<speed>0.030000</speed>
<extensions>
<speed>0.0</speed>
<temp>0.00</temp>
<bpm>0</bpm>
<rpm>0.00</rpm>
</extensions>
</trkpt>
<trkpt lat="64.081977844" lon="-19.555669785">
<ele>399.554688</ele>
<time>2012-07-21T18:35:34Z</time>
<speed>0.010000</speed>
<extensions>
<speed>0.0</speed>
<temp>0.00</temp>
<bpm>0</bpm>
<rpm>0.00</rpm>
</extensions>
</trkpt>
<trkpt lat="64.081977844" lon="-19.555669785">
<ele>399.593750</ele>
<time>2012-07-21T18:35:39Z</time>
<extensions>
<speed>0.0</speed>
<temp>0.00</temp>
<bpm>0</bpm>
<rpm>0.00</rpm>
</extensions>
</trkpt>
<trkpt lat="64.081977844" lon="-19.555669785">
<ele>399.640625</ele>
<time>2012-07-21T18:35:44Z</time>
<speed>0.020000</speed>
<extensions>
<speed>0.0</speed>
<temp>0.00</temp>
<bpm>0</bpm>
<rpm>0.00</rpm>
</extensions>
</trkpt>
<trkpt lat="64.081977844" lon="-19.555669785">
<ele>399.695313</ele>
<time>2012-07-21T18:35:49Z</time>
<speed>0.010000</speed>
<extensions>
<speed>0.0</speed>
<temp>0.00</temp>
<bpm>0</bpm>
<rpm>0.00</rpm>
</extensions>
</trkpt>
<trkpt lat="64.081977844" lon="-19.555669785">
<ele>399.718750</ele>
<time>2012-07-21T18:35:54Z</time>
<speed>0.020000</speed>
<extensions>
<speed>0.0</speed>
<temp>0.00</temp>
<bpm>0</bpm>
<rpm>0.00</rpm>
</extensions>
</trkpt>
<trkpt lat="64.081977844" lon="-19.555669785">
<ele>399.742188</ele>
<time>2012-07-21T18:35:59Z</time>
<speed>0.020000</speed>
<extensions>
<speed>0.0</speed>
<temp>0.00</temp>
<bpm>0</bpm>
<rpm>0.00</rpm>
</extensions>
</trkpt>
<trkpt lat="64.081985474" lon="-19.555669785">
<ele>399.757813</ele>
<time>2012-07-21T18:36:04Z</time>
<speed>0.020000</speed>
<extensions>
<speed>0.0</speed>
<temp>0.00</temp>
<bpm>0</bpm>
<rpm>0.00</rpm>
</extensions>
</trkpt>
<trkpt lat="64.081985474" lon="-19.555669785">
<ele>399.804688</ele>
<time>2012-07-21T18:36:09Z</time>
<speed>0.010000</speed>
<extensions>
<speed>0.0</speed>
<temp>0.00</temp>
<bpm>0</bpm>
<rpm>0.00</rpm>
</extensions>
</trkpt>
<trkpt lat="64.081985474" lon="-19.555669785">
<ele>399.851563</ele>
<time>2012-07-21T18:36:14Z</time>
<speed>0.010000</speed>
<extensions>
<speed>0.0</speed>
<temp>0.00</temp>
<bpm>0</bpm>
<rpm>0.00</rpm>
</extensions>
</trkpt>
<trkpt lat="64.081985474" lon="-19.555669785">
<ele>399.875000</ele>
<time>2012-07-21T18:36:19Z</time>
<speed>0.020000</speed>
<extensions>
<speed>0.0</speed>
<temp>0.00</temp>
<bpm>0</bpm>
<rpm>0.00</rpm>
</extensions>
</trkpt>
<trkpt lat="64.081985474" lon="-19.555669785">
<ele>399.898438</ele>
<time>2012-07-21T18:36:24Z</time>
<speed>0.020000</speed>
<extensions>
<speed>0.0</speed>
<temp>0.00</temp>
<bpm>0</bpm>
<rpm>0.00</rpm>
</extensions>
</trkpt>
<trkpt lat="64.081985474" lon="-19.555669785">
<ele>399.937500</ele>
<time>2012-07-21T18:36:29Z</time>
<speed>0.030000</speed>
<extensions>
<speed>0.0</speed>
<temp>0.00</temp>
<bpm>0</bpm>
<rpm>0.00</rpm>
</extensions>
</trkpt>
<trkpt lat="64.081985474" lon="-19.555669785">
<ele>399.976563</ele>
<time>2012-07-21T18:36:34Z</time>
<speed>0.030000</speed>
<extensions>
<speed>0.0</speed>
<temp>0.00</temp>
<bpm>0</bpm>
<rpm>0.00</rpm>
</extensions>
</trkpt>
<trkpt lat="64.081985474" lon="-19.555669785">
<ele>400.007813</ele>
<time>2012-07-21T18:36:39Z</time>
<speed>0.040000</speed>
<extensions>
<speed>0.0</speed>
<temp>0.00</temp>
<bpm>0</bpm>
<rpm>0.00</rpm>
</extensions>
</trkpt>
<trkpt lat="64.081985474" lon="-19.555669785">
<ele>400.039063</ele>
<time>2012-07-21T18:36:44Z</time>
<speed>0.010000</speed>
<extensions>
<speed>0.0</speed>
<temp>0.00</temp>
<bpm>0</bpm>
<rpm>0.00</rpm>
</extensions>
</trkpt>
<trkpt lat="64.081985474" lon="-19.555669785">
<ele>400.062500</ele>
<time>2012-07-21T18:36:49Z</time>
<extensions>
<speed>0.0</speed>
<temp>0.00</temp>
<bpm>0</bpm>
<rpm>0.00</rpm>
</extensions>
</trkpt>
<trkpt lat="64.081985474" lon="-19.555669785">
<ele>400.125000</ele>
<time>2012-07-21T18:36:54Z</time>
<speed>0.020000</speed>
<extensions>
<speed>0.0</speed>
<temp>0.00</temp>
<bpm>0</bpm>
<rpm>0.00</rpm>
</extensions>
</trkpt>
<trkpt lat="64.081985474" lon="-19.555669785">
<ele>400.171875</ele>
<time>2012-07-21T18:36:59Z</time>
<speed>0.030000</speed>
<extensions>
<speed>0.0</speed>
<temp>0.00</temp>
<bpm>0</bpm>
<rpm>0.00</rpm>
</extensions>
</trkpt>
<trkpt lat="64.081985474" lon="-19.555669785">
<ele>400.203125</ele>
<time>2012-07-21T18:37:04Z</time>
<speed>0.010000</speed>
<extensions>
<speed>0.0</speed>
<temp>0.00</temp>
<bpm>0</bpm>
<rpm>0.00</rpm>
</extensions>
</trkpt>
<trkpt lat="64.081985474" lon="-19.555669785">
<ele>400.242188</ele>
<time>2012-07-21T18:37:09Z</time>
<speed>0.010000</speed>
<extensions>
<speed>0.0</speed>
<temp>0.00</temp>
<bpm>0</bpm>
<rpm>0.00</rpm>
</extensions>
</trkpt>
<trkpt lat="64.081985474" lon="-19.555669785">
<ele>400.265625</ele>
<time>2012-07-21T18:37:14Z</time>
<extensions>
<speed>0.0</speed>
<temp>0.00</temp>
<bpm>0</bpm>
<rpm>0.00</rpm>
</extensions>
</trkpt>
<trkpt lat="64.081985474" lon="-19.555667877">
<ele>400.304688</ele>
<time>2012-07-21T18:37:19Z</time>
<speed>0.020000</speed>
<extensions>
<speed>0.0</speed>
<temp>0.00</temp>
<bpm>0</bpm>
<rpm>0.00</rpm>
</extensions>
</trkpt>
<trkpt lat="64.081985474" lon="-19.555667877">
<ele>400.351563</ele>
<time>2012-07-21T18:37:24Z</time>
<speed>0.020000</speed>
<extensions>
<speed>0.0</speed>
<temp>0.00</temp>
<bpm>0</bpm>
<rpm>0.00</rpm>
</extensions>
</trkpt>
<trkpt lat="64.081985474" lon="-19.555667877">
<ele>400.367188</ele>
<time>2012-07-21T18:37:29Z</time>
<speed>0.010000</speed>
<extensions>
<speed>0.0</speed>
<temp>0.00</temp>
<bpm>0</bpm>
<rpm>0.00</rpm>
</extensions>
</trkpt>
<trkpt lat="64.081985474" lon="-19.555667877">
<ele>400.390625</ele>
<time>2012-07-21T18:37:34Z</time>
<extensions>
<speed>0.0</speed>
<temp>0.00</temp>
<bpm>0</bpm>
<rpm>0.00</rpm>
</extensions>
</trkpt>
<trkpt lat="64.081985474" lon="-19.555667877">
<ele>400.421875</ele>
<time>2012-07-21T18:37:39Z</time>
<speed>0.010000</speed>
<extensions>
<speed>0.0</speed>
<temp>0.00</temp>
<bpm>0</bpm>
<rpm>0.00</rpm>
</extensions>
</trkpt>
<trkpt lat="64.081993103" lon="-19.555667877">
<ele>400.468750</ele>
<time>2012-07-21T18:37:44Z</time>
<speed>0.020000</speed>
<extensions>
<speed>0.0</speed>
<temp>0.00</temp>
<bpm>0</bpm>
<rpm>0.00</rpm>
</extensions>
</trkpt>
<trkpt lat="64.081993103" lon="-19.555667877">
<ele>400.515625</ele>
<time>2012-07-21T18:37:49Z</time>
<speed>0.020000</speed>
<extensions>
<speed>0.0</speed>
<temp>0.00</temp>
<bpm>0</bpm>
<rpm>0.00</rpm>
</extensions>
</trkpt>
<trkpt lat="64.081993103" lon="-19.555665970">
<ele>400.546875</ele>
<time>2012-07-21T18:37:54Z</time>
<extensions>
<speed>0.0</speed>
<temp>0.00</temp>
<bpm>0</bpm>
<rpm>0.00</rpm>
</extensions>
</trkpt>
<trkpt lat="64.081993103" lon="-19.555665970">
<ele>400.585938</ele>
<time>2012-07-21T18:37:59Z</time>
<extensions>
<speed>0.0</speed>
<temp>0.00</temp>
<bpm>0</bpm>
<rpm>0.00</rpm>
</extensions>
</trkpt>
<trkpt lat="64.081993103" lon="-19.555665970">
<ele>400.632813</ele>
<time>2012-07-21T18:38:04Z</time>
<speed>0.010000</speed>
<extensions>
<speed>0.0</speed>
<temp>0.00</temp>
<bpm>0</bpm>
<rpm>0.00</rpm>
</extensions>
</trkpt>
<trkpt lat="64.081993103" lon="-19.555665970">
<ele>400.640625</ele>
<time>2012-07-21T18:38:09Z</time>
<speed>0.020000</speed>
<extensions>
<speed>0.0</speed>
<temp>0.00</temp>
<bpm>0</bpm>
<rpm>0.00</rpm>
</extensions>
</trkpt>
<trkpt lat="64.081993103" lon="-19.555665970">
<ele>400.671875</ele>
<time>2012-07-21T18:38:14Z</time>
<extensions>
<speed>0.0</speed>
<temp>0.00</temp>
<bpm>0</bpm>
<rpm>0.00</rpm>
</extensions>
</trkpt>
<trkpt lat="64.081993103" lon="-19.555665970">
<ele>400.718750</ele>
<time>2012-07-21T18:38:19Z</time>
<speed>0.020000</speed>
<extensions>
<speed>0.0</speed>
<temp>0.00</temp>
<bpm>0</bpm>
<rpm>0.00</rpm>
</extensions>
</trkpt>
<trkpt lat="64.081993103" lon="-19.555665970">
<ele>400.757813</ele>
<time>2012-07-21T18:38:24Z</time>
<speed>0.020000</speed>
<extensions>
<speed>0.0</speed>
<temp>0.00</temp>
<bpm>0</bpm>
<rpm>0.00</rpm>
</extensions>
</trkpt>
<trkpt lat="64.081993103" lon="-19.555664063">
<ele>400.820313</ele>
<time>2012-07-21T18:38:29Z</time>
<speed>0.040000</speed>
<extensions>
<speed>0.0</speed>
<temp>0.00</temp>
<bpm>0</bpm>
<rpm>0.00</rpm>
</extensions>
</trkpt>
<trkpt lat="64.081993103" lon="-19.555664063">
<ele>400.859375</ele>
<time>2012-07-21T18:38:34Z</time>
<speed>0.020000</speed>
<extensions>
<speed>0.0</speed>
<temp>0.00</temp>
<bpm>0</bpm>
<rpm>0.00</rpm>
</extensions>
</trkpt>
<trkpt lat="64.081993103" lon="-19.555664063">
<ele>400.898438</ele>
<time>2012-07-21T18:38:39Z</time>
<speed>0.020000</speed>
<extensions>
<speed>0.0</speed>
<temp>0.00</temp>
<bpm>0</bpm>
<rpm>0.00</rpm>
</extensions>
</trkpt>
<trkpt lat="64.081993103" lon="-19.555664063">
<ele>400.945313</ele>
<time>2012-07-21T18:38:44Z</time>
<speed>0.030000</speed>
<extensions>
<speed>0.0</speed>
<temp>0.00</temp>
<bpm>0</bpm>
<rpm>0.00</rpm>
</extensions>
</trkpt>
<trkpt lat="64.081993103" lon="-19.555664063">
<ele>401.015625</ele>
<time>2012-07-21T18:38:49Z</time>
<speed>0.030000</speed>
<extensions>
<speed>0.0</speed>
<temp>0.00</temp>
<bpm>0</bpm>
<rpm>0.00</rpm>
</extensions>
</trkpt>
<trkpt lat="64.081993103" lon="-19.555664063">
<ele>401.046875</ele>
<time>2012-07-21T18:38:54Z</time>
<speed>0.030000</speed>
<extensions>
<speed>0.0</speed>
<temp>0.00</temp>
<bpm>0</bpm>
<rpm>0.00</rpm>
</extensions>
</trkpt>
<trkpt lat="64.081993103" lon="-19.555662155">
<ele>401.085938</ele>
<time>2012-07-21T18:38:59Z</time>
<speed>0.020000</speed>
<extensions>
<speed>0.0</speed>
<temp>0.00</temp>
<bpm>0</bpm>
<rpm>0.00</rpm>
</extensions>
</trkpt>
<trkpt lat="64.081993103" lon="-19.555662155">
<ele>401.156250</ele>
<time>2012-07-21T18:39:04Z</time>
<speed>0.030000</speed>
<extensions>
<speed>0.0</speed>
<temp>0.00</temp>
<bpm>0</bpm>
<rpm>0.00</rpm>
</extensions>
</trkpt>
<trkpt lat="64.081993103" lon="-19.555662155">
<ele>401.226563</ele>
<time>2012-07-21T18:39:09Z</time>
<speed>0.020000</speed>
<extensions>
<speed>0.0</speed>
<temp>0.00</temp>
<bpm>0</bpm>
<rpm>0.00</rpm>
</extensions>
</trkpt>
<trkpt lat="64.081993103" lon="-19.555662155">
<ele>401.242188</ele>
<time>2012-07-21T18:39:14Z</time>
<speed>0.020000</speed>
<extensions>
<speed>0.0</speed>
<temp>0.00</temp>
<bpm>0</bpm>
<rpm>0.00</rpm>
</extensions>
</trkpt>
<trkpt lat="64.081993103" lon="-19.555660248">
<ele>401.281250</ele>
<time>2012-07-21T18:39:19Z</time>
<speed>0.030000</speed>
<extensions>
<speed>0.0</speed>
<temp>0.00</temp>
<bpm>0</bpm>
<rpm>0.00</rpm>
</extensions>
</trkpt>
<trkpt lat="64.081993103" lon="-19.555660248">
<ele>401.312500</ele>
<time>2012-07-21T18:39:24Z</time>
<speed>0.020000</speed>
<extensions>
<speed>0.0</speed>
<temp>0.00</temp>
<bpm>0</bpm>
<rpm>0.00</rpm>
</extensions>
</trkpt>
<trkpt lat="64.081993103" lon="-19.555660248">
<ele>401.343750</ele>
<time>2012-07-21T18:39:29Z</time>
<speed>0.040000</speed>
<extensions>
<speed>0.0</speed>
<temp>0.00</temp>
<bpm>0</bpm>
<rpm>0.00</rpm>
</extensions>
</trkpt>
<trkpt lat="64.081993103" lon="-19.555660248">
<ele>401.390625</ele>
<time>2012-07-21T18:39:34Z</time>
<speed>0.010000</speed>
<extensions>
<speed>0.0</speed>
<temp>0.00</temp>
<bpm>0</bpm>
<rpm>0.00</rpm>
</extensions>
</trkpt>
<trkpt lat="64.081993103" lon="-19.555660248">
<ele>401.437500</ele>
<time>2012-07-21T18:39:39Z</time>
<speed>0.050000</speed>
<extensions>
<speed>0.1</speed>
<temp>0.00</temp>
<bpm>0</bpm>
<rpm>0.00</rpm>
</extensions>
</trkpt>
<trkpt lat="64.081993103" lon="-19.555660248">
<ele>401.484375</ele>
<time>2012-07-21T18:39:44Z</time>
<speed>0.020000</speed>
<extensions>
<speed>0.0</speed>
<temp>0.00</temp>
<bpm>0</bpm>
<rpm>0.00</rpm>
</extensions>
</trkpt>
<trkpt lat="64.081993103" lon="-19.555660248">
<ele>401.500000</ele>
<time>2012-07-21T18:39:49Z</time>
<speed>0.010000</speed>
<extensions>
<speed>0.0</speed>
<temp>0.00</temp>
<bpm>0</bpm>
<rpm>0.00</rpm>
</extensions>
</trkpt>
<trkpt lat="64.081993103" lon="-19.555660248">
<ele>401.507813</ele>
<time>2012-07-21T18:39:54Z</time>
<speed>0.020000</speed>
<extensions>
<speed>0.0</speed>
<temp>0.00</temp>
<bpm>0</bpm>
<rpm>0.00</rpm>
</extensions>
</trkpt>
<trkpt lat="64.081993103" lon="-19.555658340">
<ele>401.546875</ele>
<time>2012-07-21T18:39:59Z</time>
<speed>0.030000</speed>
<extensions>
<speed>0.0</speed>
<temp>0.00</temp>
<bpm>0</bpm>
<rpm>0.00</rpm>
</extensions>
</trkpt>
<trkpt lat="64.081993103" lon="-19.555658340">
<ele>401.585938</ele>
<time>2012-07-21T18:40:04Z</time>
<speed>0.010000</speed>
<extensions>
<speed>0.0</speed>
<temp>0.00</temp>
<bpm>0</bpm>
<rpm>0.00</rpm>
</extensions>
</trkpt>
<trkpt lat="64.082000732" lon="-19.555658340">
<ele>401.656250</ele>
<time>2012-07-21T18:40:09Z</time>
<speed>0.010000</speed>
<extensions>
<speed>0.0</speed>
<temp>0.00</temp>
<bpm>0</bpm>
<rpm>0.00</rpm>
</extensions>
</trkpt>
<trkpt lat="64.082000732" lon="-19.555658340">
<ele>401.718750</ele>
<time>2012-07-21T18:40:14Z</time>
<speed>0.020000</speed>
<extensions>
<speed>0.0</speed>
<temp>0.00</temp>
<bpm>0</bpm>
<rpm>0.00</rpm>
</extensions>
</trkpt>
<trkpt lat="64.082000732" lon="-19.555658340">
<ele>401.757813</ele>
<time>2012-07-21T18:40:19Z</time>
<speed>0.020000</speed>
<extensions>
<speed>0.0</speed>
<temp>0.00</temp>
<bpm>0</bpm>
<rpm>0.00</rpm>
</extensions>
</trkpt>
<trkpt lat="64.082000732" lon="-19.555656433">
<ele>401.781250</ele>
<time>2012-07-21T18:40:24Z</time>
<speed>0.010000</speed>
<extensions>
<speed>0.0</speed>
<temp>0.00</temp>
<bpm>0</bpm>
<rpm>0.00</rpm>
</extensions>
</trkpt>
<trkpt lat="64.082000732" lon="-19.555656433">
<ele>401.804688</ele>
<time>2012-07-21T18:40:29Z</time>
<speed>0.030000</speed>
<extensions>
<speed>0.0</speed>
<temp>0.00</temp>
<bpm>0</bpm>
<rpm>0.00</rpm>
</extensions>
</trkpt>
<trkpt lat="64.082000732" lon="-19.555656433">
<ele>401.843750</ele>
<time>2012-07-21T18:40:34Z</time>
<speed>0.020000</speed>
<extensions>
<speed>0.0</speed>
<temp>0.00</temp>
<bpm>0</bpm>
<rpm>0.00</rpm>
</extensions>
</trkpt>
<trkpt lat="64.082000732" lon="-19.555656433">
<ele>401.890625</ele>
<time>2012-07-21T18:40:39Z</time>
<speed>0.050000</speed>
<extensions>
<speed>0.1</speed>
<temp>0.00</temp>
<bpm>0</bpm>
<rpm>0.00</rpm>
</extensions>
</trkpt>
<trkpt lat="64.082000732" lon="-19.555656433">
<ele>401.945313</ele>
<time>2012-07-21T18:40:44Z</time>
<speed>0.020000</speed>
<extensions>
<speed>0.0</speed>
<temp>0.00</temp>
<bpm>0</bpm>
<rpm>0.00</rpm>
</extensions>
</trkpt>
<trkpt lat="64.082000732" lon="-19.555656433">
<ele>401.992188</ele>
<time>2012-07-21T18:40:49Z</time>
<extensions>
<speed>0.0</speed>
<temp>0.00</temp>
<bpm>0</bpm>
<rpm>0.00</rpm>
</extensions>
</trkpt>
<trkpt lat="64.082000732" lon="-19.555656433">
<ele>402.039063</ele>
<time>2012-07-21T18:40:54Z</time>
<extensions>
<speed>0.0</speed>
<temp>0.00</temp>
<bpm>0</bpm>
<rpm>0.00</rpm>
</extensions>
</trkpt>
<trkpt lat="64.082000732" lon="-19.555656433">
<ele>402.078125</ele>
<time>2012-07-21T18:40:59Z</time>
<speed>0.010000</speed>
<extensions>
<speed>0.0</speed>
<temp>0.00</temp>
<bpm>0</bpm>
<rpm>0.00</rpm>
</extensions>
</trkpt>
<trkpt lat="64.082000732" lon="-19.555656433">
<ele>402.093750</ele>
<time>2012-07-21T18:41:04Z</time>
<extensions>
<speed>0.0</speed>
<temp>0.00</temp>
<bpm>0</bpm>
<rpm>0.00</rpm>
</extensions>
</trkpt>
<trkpt lat="64.082000732" lon="-19.555656433">
<ele>402.117188</ele>
<time>2012-07-21T18:41:09Z</time>
<speed>0.010000</speed>
<extensions>
<speed>0.0</speed>
<temp>0.00</temp>
<bpm>0</bpm>
<rpm>0.00</rpm>
</extensions>
</trkpt>
<trkpt lat="64.082000732" lon="-19.555656433">
<ele>402.125000</ele>
<time>2012-07-21T18:41:14Z</time>
<speed>0.020000</speed>
<extensions>
<speed>0.0</speed>
<temp>0.00</temp>
<bpm>0</bpm>
<rpm>0.00</rpm>
</extensions>
</trkpt>
<trkpt lat="64.082000732" lon="-19.555656433">
<ele>402.156250</ele>
<time>2012-07-21T18:41:19Z</time>
<speed>0.050000</speed>
<extensions>
<speed>0.1</speed>
<temp>0.00</temp>
<bpm>0</bpm>
<rpm>0.00</rpm>
</extensions>
</trkpt>
<trkpt lat="64.082000732" lon="-19.555656433">
<ele>402.195313</ele>
<time>2012-07-21T18:41:24Z</time>
<speed>0.010000</speed>
<extensions>
<speed>0.0</speed>
<temp>0.00</temp>
<bpm>0</bpm>
<rpm>0.00</rpm>
</extensions>
</trkpt>
<trkpt lat="64.082000732" lon="-19.555656433">
<ele>402.226563</ele>
<time>2012-07-21T18:41:29Z</time>
<speed>0.020000</speed>
<extensions>
<speed>0.0</speed>
<temp>0.00</temp>
<bpm>0</bpm>
<rpm>0.00</rpm>
</extensions>
</trkpt>
<trkpt lat="64.082000732" lon="-19.555656433">
<ele>402.265625</ele>
<time>2012-07-21T18:41:34Z</time>
<extensions>
<speed>0.0</speed>
<temp>0.00</temp>
<bpm>0</bpm>
<rpm>0.00</rpm>
</extensions>
</trkpt>
<trkpt lat="64.082000732" lon="-19.555656433">
<ele>402.273438</ele>
<time>2012-07-21T18:41:39Z</time>
<extensions>
<speed>0.0</speed>
<temp>0.00</temp>
<bpm>0</bpm>
<rpm>0.00</rpm>
</extensions>
</trkpt>
<trkpt lat="64.082000732" lon="-19.555656433">
<ele>402.289063</ele>
<time>2012-07-21T18:41:44Z</time>
<extensions>
<speed>0.0</speed>
<temp>0.00</temp>
<bpm>0</bpm>
<rpm>0.00</rpm>
</extensions>
</trkpt>
<trkpt lat="64.082000732" lon="-19.555656433">
<ele>402.343750</ele>
<time>2012-07-21T18:41:49Z</time>
<extensions>
<speed>0.0</speed>
<temp>0.00</temp>
<bpm>0</bpm>
<rpm>0.00</rpm>
</extensions>
</trkpt>
<trkpt lat="64.082000732" lon="-19.555656433">
<ele>402.390625</ele>
<time>2012-07-21T18:41:54Z</time>
<extensions>
<speed>0.0</speed>
<temp>0.00</temp>
<bpm>0</bpm>
<rpm>0.00</rpm>
</extensions>
</trkpt>
<trkpt lat="64.082000732" lon="-19.555656433">
<ele>402.414063</ele>
<time>2012-07-21T18:41:59Z</time>
<speed>0.020000</speed>
<extensions>
<speed>0.0</speed>
<temp>0.00</temp>
<bpm>0</bpm>
<rpm>0.00</rpm>
</extensions>
</trkpt>
<trkpt lat="64.082000732" lon="-19.555656433">
<ele>402.460938</ele>
<time>2012-07-21T18:42:04Z</time>
<speed>0.030000</speed>
<extensions>
<speed>0.0</speed>
<temp>0.00</temp>
<bpm>0</bpm>
<rpm>0.00</rpm>
</extensions>
</trkpt>
<trkpt lat="64.082000732" lon="-19.555656433">
<ele>402.507813</ele>
<time>2012-07-21T18:42:09Z</time>
<speed>0.030000</speed>
<extensions>
<speed>0.0</speed>
<temp>0.00</temp>
<bpm>0</bpm>
<rpm>0.00</rpm>
</extensions>
</trkpt>
<trkpt lat="64.082000732" lon="-19.555656433">
<ele>402.531250</ele>
<time>2012-07-21T18:42:14Z</time>
<extensions>
<speed>0.0</speed>
<temp>0.00</temp>
<bpm>0</bpm>
<rpm>0.00</rpm>
</extensions>
</trkpt>
<trkpt lat="64.082000732" lon="-19.555654526">
<ele>402.570313</ele>
<time>2012-07-21T18:42:19Z</time>
<speed>0.020000</speed>
<extensions>
<speed>0.0</speed>
<temp>0.00</temp>
<bpm>0</bpm>
<rpm>0.00</rpm>
</extensions>
</trkpt>
<trkpt lat="64.082000732" lon="-19.555654526">
<ele>402.593750</ele>
<time>2012-07-21T18:42:24Z</time>
<extensions>
<speed>0.0</speed>
<temp>0.00</temp>
<bpm>0</bpm>
<rpm>0.00</rpm>
</extensions>
</trkpt>
<trkpt lat="64.082000732" lon="-19.555654526">
<ele>402.609375</ele>
<time>2012-07-21T18:42:29Z</time>
<speed>0.010000</speed>
<extensions>
<speed>0.0</speed>
<temp>0.00</temp>
<bpm>0</bpm>
<rpm>0.00</rpm>
</extensions>
</trkpt>
<trkpt lat="64.082000732" lon="-19.555656433">
<ele>402.640625</ele>
<time>2012-07-21T18:42:34Z</time>
<speed>0.020000</speed>
<extensions>
<speed>0.0</speed>
<temp>0.00</temp>
<bpm>0</bpm>
<rpm>0.00</rpm>
</extensions>
</trkpt>
<trkpt lat="64.082000732" lon="-19.555656433">
<ele>402.656250</ele>
<time>2012-07-21T18:42:39Z</time>
<speed>0.010000</speed>
<extensions>
<speed>0.0</speed>
<temp>0.00</temp>
<bpm>0</bpm>
<rpm>0.00</rpm>
</extensions>
</trkpt>
<trkpt lat="64.082000732" lon="-19.555656433">
<ele>402.679688</ele>
<time>2012-07-21T18:42:44Z</time>
<speed>0.010000</speed>
<extensions>
<speed>0.0</speed>
<temp>0.00</temp>
<bpm>0</bpm>
<rpm>0.00</rpm>
</extensions>
</trkpt>
<trkpt lat="64.082000732" lon="-19.555656433">
<ele>402.718750</ele>
<time>2012-07-21T18:42:49Z</time>
<speed>0.010000</speed>
<extensions>
<speed>0.0</speed>
<temp>0.00</temp>
<bpm>0</bpm>
<rpm>0.00</rpm>
</extensions>
</trkpt>
<trkpt lat="64.082008362" lon="-19.555656433">
<ele>402.757813</ele>
<time>2012-07-21T18:42:54Z</time>
<speed>0.010000</speed>
<extensions>
<speed>0.0</speed>
<temp>0.00</temp>
<bpm>0</bpm>
<rpm>0.00</rpm>
</extensions>
</trkpt>
<trkpt lat="64.082008362" lon="-19.555656433">
<ele>402.765625</ele>
<time>2012-07-21T18:42:59Z</time>
<extensions>
<speed>0.0</speed>
<temp>0.00</temp>
<bpm>0</bpm>
<rpm>0.00</rpm>
</extensions>
</trkpt>
<trkpt lat="64.082008362" lon="-19.555656433">
<ele>402.796875</ele>
<time>2012-07-21T18:43:04Z</time>
<speed>0.020000</speed>
<extensions>
<speed>0.0</speed>
<temp>0.00</temp>
<bpm>0</bpm>
<rpm>0.00</rpm>
</extensions>
</trkpt>
<trkpt lat="64.082008362" lon="-19.555656433">
<ele>402.828125</ele>
<time>2012-07-21T18:43:09Z</time>
<speed>0.020000</speed>
<extensions>
<speed>0.0</speed>
<temp>0.00</temp>
<bpm>0</bpm>
<rpm>0.00</rpm>
</extensions>
</trkpt>
<trkpt lat="64.082008362" lon="-19.555656433">
<ele>402.851563</ele>
<time>2012-07-21T18:43:14Z</time>
<speed>0.020000</speed>
<extensions>
<speed>0.0</speed>
<temp>0.00</temp>
<bpm>0</bpm>
<rpm>0.00</rpm>
</extensions>
</trkpt>
<trkpt lat="64.082008362" lon="-19.555656433">
<ele>402.882813</ele>
<time>2012-07-21T18:43:19Z</time>
<speed>0.010000</speed>
<extensions>
<speed>0.0</speed>
<temp>0.00</temp>
<bpm>0</bpm>
<rpm>0.00</rpm>
</extensions>
</trkpt>
<trkpt lat="64.082008362" lon="-19.555656433">
<ele>402.898438</ele>
<time>2012-07-21T18:43:24Z</time>
<speed>0.010000</speed>
<extensions>
<speed>0.0</speed>
<temp>0.00</temp>
<bpm>0</bpm>
<rpm>0.00</rpm>
</extensions>
</trkpt>
<trkpt lat="64.082008362" lon="-19.555656433">
<ele>402.945313</ele>
<time>2012-07-21T18:43:29Z</time>
<speed>0.050000</speed>
<extensions>
<speed>0.1</speed>
<temp>0.00</temp>
<bpm>0</bpm>
<rpm>0.00</rpm>
</extensions>
</trkpt>
<trkpt lat="64.082008362" lon="-19.555656433">
<ele>403.023438</ele>
<time>2012-07-21T18:43:34Z</time>
<speed>0.030000</speed>
<extensions>
<speed>0.0</speed>
<temp>0.00</temp>
<bpm>0</bpm>
<rpm>0.00</rpm>
</extensions>
</trkpt>
<trkpt lat="64.082008362" lon="-19.555656433">
<ele>403.078125</ele>
<time>2012-07-21T18:43:39Z</time>
<extensions>
<speed>0.0</speed>
<temp>0.00</temp>
<bpm>0</bpm>
<rpm>0.00</rpm>
</extensions>
</trkpt>
<trkpt lat="64.082008362" lon="-19.555654526">
<ele>403.125000</ele>
<time>2012-07-21T18:43:44Z</time>
<speed>0.020000</speed>
<extensions>
<speed>0.0</speed>
<temp>0.00</temp>
<bpm>0</bpm>
<rpm>0.00</rpm>
</extensions>
</trkpt>
<trkpt lat="64.082008362" lon="-19.555654526">
<ele>403.140625</ele>
<time>2012-07-21T18:43:49Z</time>
<speed>0.010000</speed>
<extensions>
<speed>0.0</speed>
<temp>0.00</temp>
<bpm>0</bpm>
<rpm>0.00</rpm>
</extensions>
</trkpt>
<trkpt lat="64.082008362" lon="-19.555654526">
<ele>403.164063</ele>
<time>2012-07-21T18:43:54Z</time>
<extensions>
<speed>0.0</speed>
<temp>0.00</temp>
<bpm>0</bpm>
<rpm>0.00</rpm>
</extensions>
</trkpt>
<trkpt lat="64.082008362" lon="-19.555654526">
<ele>403.179688</ele>
<time>2012-07-21T18:43:59Z</time>
<extensions>
<speed>0.0</speed>
<temp>0.00</temp>
<bpm>0</bpm>
<rpm>0.00</rpm>
</extensions>
</trkpt>
<trkpt lat="64.082008362" lon="-19.555654526">
<ele>403.210938</ele>
<time>2012-07-21T18:44:04Z</time>
<extensions>
<speed>0.0</speed>
<temp>0.00</temp>
<bpm>0</bpm>
<rpm>0.00</rpm>
</extensions>
</trkpt>
<trkpt lat="64.082008362" lon="-19.555654526">
<ele>403.242188</ele>
<time>2012-07-21T18:44:09Z</time>
<speed>0.020000</speed>
<extensions>
<speed>0.0</speed>
<temp>0.00</temp>
<bpm>0</bpm>
<rpm>0.00</rpm>
</extensions>
</trkpt>
<trkpt lat="64.082008362" lon="-19.555654526">
<ele>403.265625</ele>
<time>2012-07-21T18:44:14Z</time>
<speed>0.050000</speed>
<extensions>
<speed>0.1</speed>
<temp>0.00</temp>
<bpm>0</bpm>
<rpm>0.00</rpm>
</extensions>
</trkpt>
<trkpt lat="64.082008362" lon="-19.555654526">
<ele>403.257813</ele>
<time>2012-07-21T18:44:19Z</time>
<extensions>
<speed>0.0</speed>
<temp>0.00</temp>
<bpm>0</bpm>
<rpm>0.00</rpm>
</extensions>
</trkpt>
<trkpt lat="64.082008362" lon="-19.555652618">
<ele>403.265625</ele>
<time>2012-07-21T18:44:24Z</time>
<extensions>
<speed>0.0</speed>
<temp>0.00</temp>
<bpm>0</bpm>
<rpm>0.00</rpm>
</extensions>
</trkpt>
<trkpt lat="64.082008362" lon="-19.555654526">
<ele>403.273438</ele>
<time>2012-07-21T18:44:29Z</time>
<extensions>
<speed>0.0</speed>
<temp>0.00</temp>
<bpm>0</bpm>
<rpm>0.00</rpm>
</extensions>
</trkpt>
<trkpt lat="64.082008362" lon="-19.555654526">
<ele>403.296875</ele>
<time>2012-07-21T18:44:34Z</time>
<extensions>
<speed>0.0</speed>
<temp>0.00</temp>
<bpm>0</bpm>
<rpm>0.00</rpm>
</extensions>
</trkpt>
<trkpt lat="64.082008362" lon="-19.555654526">
<ele>403.312500</ele>
<time>2012-07-21T18:44:39Z</time>
<speed>0.010000</speed>
<extensions>
<speed>0.0</speed>
<temp>0.00</temp>
<bpm>0</bpm>
<rpm>0.00</rpm>
</extensions>
</trkpt>
<trkpt lat="64.082008362" lon="-19.555654526">
<ele>403.312500</ele>
<time>2012-07-21T18:44:44Z</time>
<speed>0.020000</speed>
<extensions>
<speed>0.0</speed>
<temp>0.00</temp>
<bpm>0</bpm>
<rpm>0.00</rpm>
</extensions>
</trkpt>
<trkpt lat="64.082008362" lon="-19.555654526">
<ele>403.312500</ele>
<time>2012-07-21T18:44:49Z</time>
<extensions>
<speed>0.0</speed>
<temp>0.00</temp>
<bpm>0</bpm>
<rpm>0.00</rpm>
</extensions>
</trkpt>
<trkpt lat="64.082008362" lon="-19.555654526">
<ele>403.343750</ele>
<time>2012-07-21T18:44:54Z</time>
<extensions>
<speed>0.0</speed>
<temp>0.00</temp>
<bpm>0</bpm>
<rpm>0.00</rpm>
</extensions>
</trkpt>
<trkpt lat="64.082008362" lon="-19.555654526">
<ele>403.351563</ele>
<time>2012-07-21T18:44:59Z</time>
<extensions>
<speed>0.0</speed>
<temp>0.00</temp>
<bpm>0</bpm>
<rpm>0.00</rpm>
</extensions>
</trkpt>
<trkpt lat="64.082008362" lon="-19.555654526">
<ele>403.367188</ele>
<time>2012-07-21T18:45:04Z</time>
<extensions>
<speed>0.0</speed>
<temp>0.00</temp>
<bpm>0</bpm>
<rpm>0.00</rpm>
</extensions>
</trkpt>
<trkpt lat="64.082008362" lon="-19.555654526">
<ele>403.382813</ele>
<time>2012-07-21T18:45:09Z</time>
<extensions>
<speed>0.0</speed>
<temp>0.00</temp>
<bpm>0</bpm>
<rpm>0.00</rpm>
</extensions>
</trkpt>
<trkpt lat="64.082008362" lon="-19.555654526">
<ele>403.406250</ele>
<time>2012-07-21T18:45:14Z</time>
<speed>0.010000</speed>
<extensions>
<speed>0.0</speed>
<temp>0.00</temp>
<bpm>0</bpm>
<rpm>0.00</rpm>
</extensions>
</trkpt>
<trkpt lat="64.082008362" lon="-19.555654526">
<ele>403.421875</ele>
<time>2012-07-21T18:45:19Z</time>
<extensions>
<speed>0.0</speed>
<temp>0.00</temp>
<bpm>0</bpm>
<rpm>0.00</rpm>
</extensions>
</trkpt>
<trkpt lat="64.082008362" lon="-19.555654526">
<ele>403.429688</ele>
<time>2012-07-21T18:45:24Z</time>
<extensions>
<speed>0.0</speed>
<temp>0.00</temp>
<bpm>0</bpm>
<rpm>0.00</rpm>
</extensions>
</trkpt>
<trkpt lat="64.082008362" lon="-19.555654526">
<ele>403.445313</ele>
<time>2012-07-21T18:45:29Z</time>
<speed>0.040000</speed>
<extensions>
<speed>0.0</speed>
<temp>0.00</temp>
<bpm>0</bpm>
<rpm>0.00</rpm>
</extensions>
</trkpt>
<trkpt lat="64.082008362" lon="-19.555654526">
<ele>403.445313</ele>
<time>2012-07-21T18:45:34Z</time>
<speed>0.140000</speed>
<extensions>
<speed>0.1</speed>
<temp>0.00</temp>
<bpm>0</bpm>
<rpm>0.00</rpm>
</extensions>
</trkpt>
<trkpt lat="64.082000732" lon="-19.555654526">
<ele>403.312500</ele>
<time>2012-07-21T18:45:39Z</time>
<extensions>
<speed>0.0</speed>
<temp>0.00</temp>
<bpm>0</bpm>
<rpm>0.00</rpm>
</extensions>
</trkpt>
<trkpt lat="64.082000732" lon="-19.555654526">
<ele>403.328125</ele>
<time>2012-07-21T18:45:44Z</time>
<extensions>
<speed>0.0</speed>
<temp>0.00</temp>
<bpm>0</bpm>
<rpm>0.00</rpm>
</extensions>
</trkpt>
<trkpt lat="64.082000732" lon="-19.555654526">
<ele>403.335938</ele>
<time>2012-07-21T18:45:49Z</time>
<speed>0.010000</speed>
<extensions>
<speed>0.0</speed>
<temp>0.00</temp>
<bpm>0</bpm>
<rpm>0.00</rpm>
</extensions>
</trkpt>
<trkpt lat="64.082008362" lon="-19.555654526">
<ele>403.335938</ele>
<time>2012-07-21T18:45:54Z</time>
<speed>0.090000</speed>
<extensions>
<speed>0.1</speed>
<temp>0.00</temp>
<bpm>0</bpm>
<rpm>0.00</rpm>
</extensions>
</trkpt>
<trkpt lat="64.082008362" lon="-19.555654526">
<ele>403.351563</ele>
<time>2012-07-21T18:45:59Z</time>
<speed>0.010000</speed>
<extensions>
<speed>0.0</speed>
<temp>0.00</temp>
<bpm>0</bpm>
<rpm>0.00</rpm>
</extensions>
</trkpt>
<trkpt lat="64.082008362" lon="-19.555654526">
<ele>403.367188</ele>
<time>2012-07-21T18:46:04Z</time>
<speed>0.030000</speed>
<extensions>
<speed>0.0</speed>
<temp>0.00</temp>
<bpm>0</bpm>
<rpm>0.00</rpm>
</extensions>
</trkpt>
<trkpt lat="64.082008362" lon="-19.555654526">
<ele>403.468750</ele>
<time>2012-07-21T18:46:09Z</time>
<speed>0.150000</speed>
<extensions>
<speed>0.2</speed>
<temp>0.00</temp>
<bpm>0</bpm>
<rpm>0.00</rpm>
</extensions>
</trkpt>
<trkpt lat="64.082008362" lon="-19.555654526">
<ele>403.468750</ele>
<time>2012-07-21T18:46:14Z</time>
<extensions>
<speed>0.0</speed>
<temp>0.00</temp>
<bpm>0</bpm>
<rpm>0.00</rpm>
</extensions>
</trkpt>
<trkpt lat="64.082008362" lon="-19.555654526">
<ele>403.476563</ele>
<time>2012-07-21T18:46:19Z</time>
<speed>0.030000</speed>
<extensions>
<speed>0.0</speed>
<temp>0.00</temp>
<bpm>0</bpm>
<rpm>0.00</rpm>
</extensions>
</trkpt>
<trkpt lat="64.082008362" lon="-19.555654526">
<ele>403.492188</ele>
<time>2012-07-21T18:46:24Z</time>
<extensions>
<speed>0.0</speed>
<temp>0.00</temp>
<bpm>0</bpm>
<rpm>0.00</rpm>
</extensions>
</trkpt>
<trkpt lat="64.082008362" lon="-19.555656433">
<ele>403.500000</ele>
<time>2012-07-21T18:46:29Z</time>
<speed>0.030000</speed>
<extensions>
<speed>0.0</speed>
<temp>0.00</temp>
<bpm>0</bpm>
<rpm>0.00</rpm>
</extensions>
</trkpt>
<trkpt lat="64.082008362" lon="-19.555656433">
<ele>403.500000</ele>
<time>2012-07-21T18:46:34Z</time>
<speed>0.020000</speed>
<extensions>
<speed>0.0</speed>
<temp>0.00</temp>
<bpm>0</bpm>
<rpm>0.00</rpm>
</extensions>
</trkpt>
<trkpt lat="64.082008362" lon="-19.555656433">
<ele>403.507813</ele>
<time>2012-07-21T18:46:39Z</time>
<speed>0.010000</speed>
<extensions>
<speed>0.0</speed>
<temp>0.00</temp>
<bpm>0</bpm>
<rpm>0.00</rpm>
</extensions>
</trkpt>
<trkpt lat="64.082008362" lon="-19.555656433">
<ele>403.507813</ele>
<time>2012-07-21T18:46:44Z</time>
<speed>0.010000</speed>
<extensions>
<speed>0.0</speed>
<temp>0.00</temp>
<bpm>0</bpm>
<rpm>0.00</rpm>
</extensions>
</trkpt>
<trkpt lat="64.082008362" lon="-19.555656433">
<ele>403.531250</ele>
<time>2012-07-21T18:46:49Z</time>
<extensions>
<speed>0.0</speed>
<temp>0.00</temp>
<bpm>0</bpm>
<rpm>0.00</rpm>
</extensions>
</trkpt>
<trkpt lat="64.082008362" lon="-19.555656433">
<ele>403.539063</ele>
<time>2012-07-21T18:46:54Z</time>
<extensions>
<speed>0.0</speed>
<temp>0.00</temp>
<bpm>0</bpm>
<rpm>0.00</rpm>
</extensions>
</trkpt>
<trkpt lat="64.082008362" lon="-19.555656433">
<ele>403.539063</ele>
<time>2012-07-21T18:46:59Z</time>
<extensions>
<speed>0.0</speed>
<temp>0.00</temp>
<bpm>0</bpm>
<rpm>0.00</rpm>
</extensions>
</trkpt>
<trkpt lat="64.082008362" lon="-19.555656433">
<ele>403.546875</ele>
<time>2012-07-21T18:47:04Z</time>
<speed>0.030000</speed>
<extensions>
<speed>0.0</speed>
<temp>0.00</temp>
<bpm>0</bpm>
<rpm>0.00</rpm>
</extensions>
</trkpt>
<trkpt lat="64.082008362" lon="-19.555656433">
<ele>403.546875</ele>
<time>2012-07-21T18:47:09Z</time>
<speed>0.240000</speed>
<extensions>
<speed>0.2</speed>
<temp>0.00</temp>
<bpm>0</bpm>
<rpm>0.00</rpm>
</extensions>
</trkpt>
<trkpt lat="64.082008362" lon="-19.555662155">
<ele>403.718750</ele>
<time>2012-07-21T18:47:14Z</time>
<speed>0.530000</speed>
<extensions>
<speed>0.5</speed>
<temp>0.00</temp>
<bpm>0</bpm>
<rpm>0.00</rpm>
</extensions>
</trkpt>
<trkpt lat="64.082000732" lon="-19.555696487">
<ele>404.421875</ele>
<time>2012-07-21T18:47:19Z</time>
<speed>0.240000</speed>
<extensions>
<speed>0.2</speed>
<temp>0.00</temp>
<bpm>0</bpm>
<rpm>0.00</rpm>
</extensions>
</trkpt>
<trkpt lat="64.082000732" lon="-19.555696487">
<ele>404.726563</ele>
<time>2012-07-21T18:47:24Z</time>
<speed>0.420000</speed>
<extensions>
<speed>0.4</speed>
<temp>0.00</temp>
<bpm>0</bpm>
<rpm>0.00</rpm>
</extensions>
</trkpt>
<trkpt lat="64.081962585" lon="-19.555734634">
<ele>404.421875</ele>
<time>2012-07-21T18:47:29Z</time>
<speed>1.220000</speed>
<extensions>
<speed>1.2</speed>
<temp>0.00</temp>
<bpm>0</bpm>
<rpm>0.00</rpm>
</extensions>
</trkpt>
<trkpt lat="64.081954956" lon="-19.555734634">
<ele>404.890625</ele>
<time>2012-07-21T18:47:34Z</time>
<speed>0.100000</speed>
<extensions>
<speed>0.1</speed>
<temp>0.00</temp>
<bpm>0</bpm>
<rpm>0.00</rpm>
</extensions>
</trkpt>
<trkpt lat="64.081954956" lon="-19.555734634">
<ele>404.937500</ele>
<time>2012-07-21T18:47:39Z</time>
<speed>0.020000</speed>
<extensions>
<speed>0.0</speed>
<temp>0.00</temp>
<bpm>0</bpm>
<rpm>0.00</rpm>
</extensions>
</trkpt>
<trkpt lat="64.081954956" lon="-19.555732727">
<ele>404.898438</ele>
<time>2012-07-21T18:47:44Z</time>
<extensions>
<speed>0.0</speed>
<temp>0.00</temp>
<bpm>0</bpm>
<rpm>0.00</rpm>
</extensions>
</trkpt>
<trkpt lat="64.081954956" lon="-19.555734634">
<ele>404.921875</ele>
<time>2012-07-21T18:47:49Z</time>
<speed>0.580000</speed>
<extensions>
<speed>0.6</speed>
<temp>0.00</temp>
<bpm>0</bpm>
<rpm>0.00</rpm>
</extensions>
</trkpt>
<trkpt lat="64.081909180" lon="-19.555791855">
<ele>405.679688</ele>
<time>2012-07-21T18:47:54Z</time>
<speed>1.240000</speed>
<extensions>
<speed>1.2</speed>
<temp>0.00</temp>
<bpm>0</bpm>
<rpm>0.00</rpm>
</extensions>
</trkpt>
<trkpt lat="64.081886292" lon="-19.555870056">
<ele>405.671875</ele>
<time>2012-07-21T18:47:59Z</time>
<speed>1.370000</speed>
<extensions>
<speed>1.4</speed>
<temp>0.00</temp>
<bpm>0</bpm>
<rpm>0.00</rpm>
</extensions>
</trkpt>
<trkpt lat="64.081840515" lon="-19.555971146">
<ele>404.875000</ele>
<time>2012-07-21T18:48:04Z</time>
<speed>1.430000</speed>
<extensions>
<speed>1.4</speed>
<temp>0.00</temp>
<bpm>0</bpm>
<rpm>0.00</rpm>
</extensions>
</trkpt>
<trkpt lat="64.081787109" lon="-19.556049347">
<ele>404.289063</ele>
<time>2012-07-21T18:48:09Z</time>
<speed>1.450000</speed>
<extensions>
<speed>1.4</speed>
<temp>0.00</temp>
<bpm>0</bpm>
<rpm>0.00</rpm>
</extensions>
</trkpt>
<trkpt lat="64.081741333" lon="-19.556133270">
<ele>403.539063</ele>
<time>2012-07-21T18:48:14Z</time>
<speed>1.290000</speed>
<extensions>
<speed>1.3</speed>
<temp>0.00</temp>
<bpm>0</bpm>
<rpm>0.00</rpm>
</extensions>
</trkpt>
<trkpt lat="64.081726074" lon="-19.556154251">
<ele>403.460938</ele>
<time>2012-07-21T18:48:19Z</time>
<speed>0.140000</speed>
<extensions>
<speed>0.1</speed>
<temp>0.00</temp>
<bpm>0</bpm>
<rpm>0.00</rpm>
</extensions>
</trkpt>
<trkpt lat="64.081687927" lon="-19.556150436">
<ele>403.578125</ele>
<time>2012-07-21T18:48:24Z</time>
<speed>0.100000</speed>
<extensions>
<speed>0.1</speed>
<temp>0.00</temp>
<bpm>0</bpm>
<rpm>0.00</rpm>
</extensions>
</trkpt>
<trkpt lat="64.081687927" lon="-19.556140900">
<ele>403.578125</ele>
<time>2012-07-21T18:48:29Z</time>
<speed>0.020000</speed>
<extensions>
<speed>0.0</speed>
<temp>0.00</temp>
<bpm>0</bpm>
<rpm>0.00</rpm>
</extensions>
</trkpt>
<trkpt lat="64.081687927" lon="-19.556138992">
<ele>403.546875</ele>
<time>2012-07-21T18:48:34Z</time>
<speed>0.020000</speed>
<extensions>
<speed>0.0</speed>
<temp>0.00</temp>
<bpm>0</bpm>
<rpm>0.00</rpm>
</extensions>
</trkpt>
<trkpt lat="64.081665039" lon="-19.556102753">
<ele>403.390625</ele>
<time>2012-07-21T18:48:39Z</time>
<speed>1.210000</speed>
<extensions>
<speed>1.2</speed>
<temp>0.00</temp>
<bpm>0</bpm>
<rpm>0.00</rpm>
</extensions>
</trkpt>
<trkpt lat="64.081619263" lon="-19.556020737">
<ele>403.015625</ele>
<time>2012-07-21T18:48:44Z</time>
<speed>0.170000</speed>
<extensions>
<speed>0.2</speed>
<temp>0.00</temp>
<bpm>0</bpm>
<rpm>0.00</rpm>
</extensions>
</trkpt>
<trkpt lat="64.081619263" lon="-19.556011200">
<ele>402.867188</ele>
<time>2012-07-21T18:48:49Z</time>
<speed>0.020000</speed>
<extensions>
<speed>0.0</speed>
<temp>0.00</temp>
<bpm>0</bpm>
<rpm>0.00</rpm>
</extensions>
</trkpt>
<trkpt lat="64.081611633" lon="-19.555978775">
<ele>402.773438</ele>
<time>2012-07-21T18:48:54Z</time>
<speed>1.100000</speed>
<extensions>
<speed>1.1</speed>
<temp>0.00</temp>
<bpm>0</bpm>
<rpm>0.00</rpm>
</extensions>
</trkpt>
<trkpt lat="64.081604004" lon="-19.555955887">
<ele>403.031250</ele>
<time>2012-07-21T18:48:59Z</time>
<speed>0.120000</speed>
<extensions>
<speed>0.1</speed>
<temp>0.00</temp>
<bpm>0</bpm>
<rpm>0.00</rpm>
</extensions>
</trkpt>
<trkpt lat="64.081596375" lon="-19.555940628">
<ele>402.890625</ele>
<time>2012-07-21T18:49:04Z</time>
<speed>0.940000</speed>
<extensions>
<speed>0.9</speed>
<temp>0.00</temp>
<bpm>0</bpm>
<rpm>0.00</rpm>
</extensions>
</trkpt>
<trkpt lat="64.081596375" lon="-19.555932999">
<ele>403.179688</ele>
<time>2012-07-21T18:49:09Z</time>
<speed>0.010000</speed>
<extensions>
<speed>0.0</speed>
<temp>0.00</temp>
<bpm>0</bpm>
<rpm>0.00</rpm>
</extensions>
</trkpt>
<trkpt lat="64.081588745" lon="-19.555936813">
<ele>403.492188</ele>
<time>2012-07-21T18:49:14Z</time>
<speed>0.240000</speed>
<extensions>
<speed>0.2</speed>
<temp>0.00</temp>
<bpm>0</bpm>
<rpm>0.00</rpm>
</extensions>
</trkpt>
<trkpt lat="64.081588745" lon="-19.555934906">
<ele>403.750000</ele>
<time>2012-07-21T18:49:19Z</time>
<speed>0.010000</speed>
<extensions>
<speed>0.0</speed>
<temp>0.00</temp>
<bpm>0</bpm>
<rpm>0.00</rpm>
</extensions>
</trkpt>
<trkpt lat="64.081588745" lon="-19.555934906">
<ele>403.765625</ele>
<time>2012-07-21T18:49:24Z</time>
<extensions>
<speed>0.0</speed>
<temp>0.00</temp>
<bpm>0</bpm>
<rpm>0.00</rpm>
</extensions>
</trkpt>
<trkpt lat="64.081588745" lon="-19.555929184">
<ele>403.429688</ele>
<time>2012-07-21T18:49:29Z</time>
<speed>0.080000</speed>
<extensions>
<speed>0.1</speed>
<temp>0.00</temp>
<bpm>0</bpm>
<rpm>0.00</rpm>
</extensions>
</trkpt>
<trkpt lat="64.081596375" lon="-19.555929184">
<ele>403.265625</ele>
<time>2012-07-21T18:49:34Z</time>
<extensions>
<speed>0.0</speed>
<temp>0.00</temp>
<bpm>0</bpm>
<rpm>0.00</rpm>
</extensions>
</trkpt>
<trkpt lat="64.081596375" lon="-19.555929184">
<ele>403.265625</ele>
<time>2012-07-21T18:49:39Z</time>
<speed>0.010000</speed>
<extensions>
<speed>0.0</speed>
<temp>0.00</temp>
<bpm>0</bpm>
<rpm>0.00</rpm>
</extensions>
</trkpt>
<trkpt lat="64.081596375" lon="-19.555929184">
<ele>403.257813</ele>
<time>2012-07-21T18:49:44Z</time>
<speed>0.120000</speed>
<extensions>
<speed>0.1</speed>
<temp>0.00</temp>
<bpm>0</bpm>
<rpm>0.00</rpm>
</extensions>
</trkpt>
<trkpt lat="64.081573486" lon="-19.555818558">
<ele>403.203125</ele>
<time>2012-07-21T18:49:49Z</time>
<speed>1.320000</speed>
<extensions>
<speed>1.3</speed>
<temp>0.00</temp>
<bpm>0</bpm>
<rpm>0.00</rpm>
</extensions>
</trkpt>
<trkpt lat="64.081558228" lon="-19.555660248">
<ele>403.507813</ele>
<time>2012-07-21T18:49:54Z</time>
<speed>1.320000</speed>
<extensions>
<speed>1.3</speed>
<temp>0.00</temp>
<bpm>0</bpm>
<rpm>0.00</rpm>
</extensions>
</trkpt>
<trkpt lat="64.081542969" lon="-19.555505753">
<ele>404.109375</ele>
<time>2012-07-21T18:49:59Z</time>
<speed>1.350000</speed>
<extensions>
<speed>1.4</speed>
<temp>0.00</temp>
<bpm>0</bpm>
<rpm>0.00</rpm>
</extensions>
</trkpt>
<trkpt lat="64.081535339" lon="-19.555364609">
<ele>404.187500</ele>
<time>2012-07-21T18:50:04Z</time>
<speed>1.470000</speed>
<extensions>
<speed>1.5</speed>
<temp>0.00</temp>
<bpm>0</bpm>
<rpm>0.00</rpm>
</extensions>
</trkpt>
<trkpt lat="64.081542969" lon="-19.555213928">
<ele>404.562500</ele>
<time>2012-07-21T18:50:09Z</time>
<speed>1.350000</speed>
<extensions>
<speed>1.4</speed>
<temp>0.00</temp>
<bpm>0</bpm>
<rpm>0.00</rpm>
</extensions>
</trkpt>
<trkpt lat="64.081535339" lon="-19.555072784">
<ele>405.007813</ele>
<time>2012-07-21T18:50:14Z</time>
<speed>1.350000</speed>
<extensions>
<speed>1.4</speed>
<temp>0.00</temp>
<bpm>0</bpm>
<rpm>0.00</rpm>
</extensions>
</trkpt>
<trkpt lat="64.081542969" lon="-19.554935455">
<ele>405.460938</ele>
<time>2012-07-21T18:50:19Z</time>
<speed>1.140000</speed>
<extensions>
<speed>1.1</speed>
<temp>0.00</temp>
<bpm>0</bpm>
<rpm>0.00</rpm>
</extensions>
</trkpt>
<trkpt lat="64.081550598" lon="-19.554801941">
<ele>406.164063</ele>
<time>2012-07-21T18:50:24Z</time>
<speed>1.130000</speed>
<extensions>
<speed>1.1</speed>
<temp>0.00</temp>
<bpm>0</bpm>
<rpm>0.00</rpm>
</extensions>
</trkpt>
<trkpt lat="64.081558228" lon="-19.554649353">
<ele>405.710938</ele>
<time>2012-07-21T18:50:29Z</time>
<speed>1.450000</speed>
<extensions>
<speed>1.4</speed>
<temp>0.00</temp>
<bpm>0</bpm>
<rpm>0.00</rpm>
</extensions>
</trkpt>
<trkpt lat="64.081565857" lon="-19.554536819">
<ele>405.781250</ele>
<time>2012-07-21T18:50:34Z</time>
<speed>1.440000</speed>
<extensions>
<speed>1.4</speed>
<temp>0.00</temp>
<bpm>0</bpm>
<rpm>0.00</rpm>
</extensions>
</trkpt>
<trkpt lat="64.081573486" lon="-19.554389954">
<ele>405.960938</ele>
<time>2012-07-21T18:50:39Z</time>
<speed>1.500000</speed>
<extensions>
<speed>1.5</speed>
<temp>0.00</temp>
<bpm>0</bpm>
<rpm>0.00</rpm>
</extensions>
</trkpt>
<trkpt lat="64.081573486" lon="-19.554237366">
<ele>406.031250</ele>
<time>2012-07-21T18:50:44Z</time>
<speed>1.530000</speed>
<extensions>
<speed>1.5</speed>
<temp>0.00</temp>
<bpm>0</bpm>
<rpm>0.00</rpm>
</extensions>
</trkpt>
<trkpt lat="64.081573486" lon="-19.554058075">
<ele>406.210938</ele>
<time>2012-07-21T18:50:49Z</time>
<speed>1.530000</speed>
<extensions>
<speed>1.5</speed>
<temp>0.00</temp>
<bpm>0</bpm>
<rpm>0.00</rpm>
</extensions>
</trkpt>
<trkpt lat="64.081573486" lon="-19.553911209">
<ele>406.445313</ele>
<time>2012-07-21T18:50:54Z</time>
<speed>1.620000</speed>
<extensions>
<speed>1.6</speed>
<temp>0.00</temp>
<bpm>0</bpm>
<rpm>0.00</rpm>
</extensions>
</trkpt>
<trkpt lat="64.081581116" lon="-19.553766251">
<ele>407.304688</ele>
<time>2012-07-21T18:50:59Z</time>
<speed>1.530000</speed>
<extensions>
<speed>1.5</speed>
<temp>0.00</temp>
<bpm>0</bpm>
<rpm>0.00</rpm>
</extensions>
</trkpt>
<trkpt lat="64.081573486" lon="-19.553615570">
<ele>407.515625</ele>
<time>2012-07-21T18:51:04Z</time>
<speed>1.320000</speed>
<extensions>
<speed>1.3</speed>
<temp>0.00</temp>
<bpm>0</bpm>
<rpm>0.00</rpm>
</extensions>
</trkpt>
<trkpt lat="64.081573486" lon="-19.553462982">
<ele>407.664063</ele>
<time>2012-07-21T18:51:09Z</time>
<speed>1.420000</speed>
<extensions>
<speed>1.4</speed>
<temp>0.00</temp>
<bpm>0</bpm>
<rpm>0.00</rpm>
</extensions>
</trkpt>
<trkpt lat="64.081581116" lon="-19.553310394">
<ele>408.078125</ele>
<time>2012-07-21T18:51:14Z</time>
<speed>1.390000</speed>
<extensions>
<speed>1.4</speed>
<temp>0.00</temp>
<bpm>0</bpm>
<rpm>0.00</rpm>
</extensions>
</trkpt>
<trkpt lat="64.081588745" lon="-19.553161621">
<ele>407.156250</ele>
<time>2012-07-21T18:51:19Z</time>
<speed>1.830000</speed>
<extensions>
<speed>1.8</speed>
<temp>0.00</temp>
<bpm>0</bpm>
<rpm>0.00</rpm>
</extensions>
</trkpt>
<trkpt lat="64.081604004" lon="-19.553007126">
<ele>403.398438</ele>
<time>2012-07-21T18:51:24Z</time>
<speed>1.580000</speed>
<extensions>
<speed>1.6</speed>
<temp>0.00</temp>
<bpm>0</bpm>
<rpm>0.00</rpm>
</extensions>
</trkpt>
<trkpt lat="64.081604004" lon="-19.552852631">
<ele>400.695313</ele>
<time>2012-07-21T18:51:29Z</time>
<speed>1.500000</speed>
<extensions>
<speed>1.5</speed>
<temp>0.00</temp>
<bpm>0</bpm>
<rpm>0.00</rpm>
</extensions>
</trkpt>
<trkpt lat="64.081588745" lon="-19.552728653">
<ele>398.429688</ele>
<time>2012-07-21T18:51:34Z</time>
<speed>1.380000</speed>
<extensions>
<speed>1.4</speed>
<temp>0.00</temp>
<bpm>0</bpm>
<rpm>0.00</rpm>
</extensions>
</trkpt>
<trkpt lat="64.081588745" lon="-19.552583694">
<ele>397.812500</ele>
<time>2012-07-21T18:51:39Z</time>
<speed>1.410000</speed>
<extensions>
<speed>1.4</speed>
<temp>0.00</temp>
<bpm>0</bpm>
<rpm>0.00</rpm>
</extensions>
</trkpt>
<trkpt lat="64.081581116" lon="-19.552444458">
<ele>398.820313</ele>
<time>2012-07-21T18:51:44Z</time>
<speed>1.610000</speed>
<extensions>
<speed>1.6</speed>
<temp>0.00</temp>
<bpm>0</bpm>
<rpm>0.00</rpm>
</extensions>
</trkpt>
<trkpt lat="64.081581116" lon="-19.552303314">
<ele>400.390625</ele>
<time>2012-07-21T18:51:49Z</time>
<speed>1.340000</speed>
<extensions>
<speed>1.3</speed>
<temp>0.00</temp>
<bpm>0</bpm>
<rpm>0.00</rpm>
</extensions>
</trkpt>
<trkpt lat="64.081573486" lon="-19.552162170">
<ele>401.531250</ele>
<time>2012-07-21T18:51:54Z</time>
<speed>1.550000</speed>
<extensions>
<speed>1.5</speed>
<temp>0.00</temp>
<bpm>0</bpm>
<rpm>0.00</rpm>
</extensions>
</trkpt>
<trkpt lat="64.081581116" lon="-19.552019119">
<ele>404.164063</ele>
<time>2012-07-21T18:51:59Z</time>
<speed>1.250000</speed>
<extensions>
<speed>1.3</speed>
<temp>0.00</temp>
<bpm>0</bpm>
<rpm>0.00</rpm>
</extensions>
</trkpt>
<trkpt lat="64.081581116" lon="-19.551898956">
<ele>405.468750</ele>
<time>2012-07-21T18:52:04Z</time>
<speed>1.320000</speed>
<extensions>
<speed>1.3</speed>
<temp>0.00</temp>
<bpm>0</bpm>
<rpm>0.00</rpm>
</extensions>
</trkpt>
<trkpt lat="64.081588745" lon="-19.551860809">
<ele>406.882813</ele>
<time>2012-07-21T18:52:09Z</time>
<speed>0.050000</speed>
<extensions>
<speed>0.1</speed>
<temp>0.00</temp>
<bpm>0</bpm>
<rpm>0.00</rpm>
</extensions>
</trkpt>
<trkpt lat="64.081588745" lon="-19.551860809">
<ele>407.500000</ele>
<time>2012-07-21T18:52:14Z</time>
<speed>0.010000</speed>
<extensions>
<speed>0.0</speed>
<temp>0.00</temp>
<bpm>0</bpm>
<rpm>0.00</rpm>
</extensions>
</trkpt>
<trkpt lat="64.081581116" lon="-19.551822662">
<ele>408.609375</ele>
<time>2012-07-21T18:52:19Z</time>
<speed>0.040000</speed>
<extensions>
<speed>0.0</speed>
<temp>0.00</temp>
<bpm>0</bpm>
<rpm>0.00</rpm>
</extensions>
</trkpt>
<trkpt lat="64.081581116" lon="-19.551820755">
<ele>409.093750</ele>
<time>2012-07-21T18:52:24Z</time>
<speed>0.010000</speed>
<extensions>
<speed>0.0</speed>
<temp>0.00</temp>
<bpm>0</bpm>
<rpm>0.00</rpm>
</extensions>
</trkpt>
<trkpt lat="64.081581116" lon="-19.551815033">
<ele>409.171875</ele>
<time>2012-07-21T18:52:29Z</time>
<speed>0.220000</speed>
<extensions>
<speed>0.2</speed>
<temp>0.00</temp>
<bpm>0</bpm>
<rpm>0.00</rpm>
</extensions>
</trkpt>
<trkpt lat="64.081581116" lon="-19.551763535">
<ele>409.406250</ele>
<time>2012-07-21T18:52:34Z</time>
<speed>1.400000</speed>
<extensions>
<speed>1.4</speed>
<temp>0.00</temp>
<bpm>0</bpm>
<rpm>0.00</rpm>
</extensions>
</trkpt>
<trkpt lat="64.081581116" lon="-19.551607132">
<ele>410.640625</ele>
<time>2012-07-21T18:52:39Z</time>
<speed>1.310000</speed>
<extensions>
<speed>1.3</speed>
<temp>0.00</temp>
<bpm>0</bpm>
<rpm>0.00</rpm>
</extensions>
</trkpt>
<trkpt lat="64.081581116" lon="-19.551490784">
<ele>411.515625</ele>
<time>2012-07-21T18:52:44Z</time>
<speed>1.240000</speed>
<extensions>
<speed>1.2</speed>
<temp>0.00</temp>
<bpm>0</bpm>
<rpm>0.00</rpm>
</extensions>
</trkpt>
<trkpt lat="64.081573486" lon="-19.551362991">
<ele>411.453125</ele>
<time>2012-07-21T18:52:49Z</time>
<speed>1.360000</speed>
<extensions>
<speed>1.4</speed>
<temp>0.00</temp>
<bpm>0</bpm>
<rpm>0.00</rpm>
</extensions>
</trkpt>
<trkpt lat="64.081558228" lon="-19.551233292">
<ele>412.671875</ele>
<time>2012-07-21T18:52:54Z</time>
<speed>1.370000</speed>
<extensions>
<speed>1.4</speed>
<temp>0.00</temp>
<bpm>0</bpm>
<rpm>0.00</rpm>
</extensions>
</trkpt>
<trkpt lat="64.081558228" lon="-19.551078796">
<ele>413.898438</ele>
<time>2012-07-21T18:52:59Z</time>
<speed>1.240000</speed>
<extensions>
<speed>1.2</speed>
<temp>0.00</temp>
<bpm>0</bpm>
<rpm>0.00</rpm>
</extensions>
</trkpt>
<trkpt lat="64.081558228" lon="-19.550951004">
<ele>414.937500</ele>
<time>2012-07-21T18:53:04Z</time>
<speed>1.220000</speed>
<extensions>
<speed>1.2</speed>
<temp>0.00</temp>
<bpm>0</bpm>
<rpm>0.00</rpm>
</extensions>
</trkpt>
<trkpt lat="64.081558228" lon="-19.550907135">
<ele>415.117188</ele>
<time>2012-07-21T18:53:09Z</time>
<speed>0.820000</speed>
<extensions>
<speed>0.8</speed>
<temp>0.00</temp>
<bpm>0</bpm>
<rpm>0.00</rpm>
</extensions>
</trkpt>
<trkpt lat="64.081558228" lon="-19.550788879">
<ele>415.203125</ele>
<time>2012-07-21T18:53:14Z</time>
<speed>1.280000</speed>
<extensions>
<speed>1.3</speed>
<temp>0.00</temp>
<bpm>0</bpm>
<rpm>0.00</rpm>
</extensions>
</trkpt>
<trkpt lat="64.081558228" lon="-19.550699234">
<ele>416.445313</ele>
<time>2012-07-21T18:53:19Z</time>
<speed>0.060000</speed>
<extensions>
<speed>0.1</speed>
<temp>0.00</temp>
<bpm>0</bpm>
<rpm>0.00</rpm>
</extensions>
</trkpt>
<trkpt lat="64.081550598" lon="-19.550693512">
<ele>416.335938</ele>
<time>2012-07-21T18:53:24Z</time>
<speed>0.040000</speed>
<extensions>
<speed>0.0</speed>
<temp>0.00</temp>
<bpm>0</bpm>
<rpm>0.00</rpm>
</extensions>
</trkpt>
<trkpt lat="64.081550598" lon="-19.550680161">
<ele>416.375000</ele>
<time>2012-07-21T18:53:29Z</time>
<speed>0.770000</speed>
<extensions>
<speed>0.8</speed>
<temp>0.00</temp>
<bpm>0</bpm>
<rpm>0.00</rpm>
</extensions>
</trkpt>
<trkpt lat="64.081550598" lon="-19.550636292">
<ele>416.726563</ele>
<time>2012-07-21T18:53:34Z</time>
<speed>0.350000</speed>
<extensions>
<speed>0.3</speed>
<temp>0.00</temp>
<bpm>0</bpm>
<rpm>0.00</rpm>
</extensions>
</trkpt>
<trkpt lat="64.081542969" lon="-19.550514221">
<ele>416.898438</ele>
<time>2012-07-21T18:53:39Z</time>
<speed>1.420000</speed>
<extensions>
<speed>1.4</speed>
<temp>0.00</temp>
<bpm>0</bpm>
<rpm>0.00</rpm>
</extensions>
</trkpt>
<trkpt lat="64.081542969" lon="-19.550371170">
<ele>416.968750</ele>
<time>2012-07-21T18:53:44Z</time>
<speed>1.390000</speed>
<extensions>
<speed>1.4</speed>
<temp>0.00</temp>
<bpm>0</bpm>
<rpm>0.00</rpm>
</extensions>
</trkpt>
<trkpt lat="64.081550598" lon="-19.550220490">
<ele>417.359375</ele>
<time>2012-07-21T18:53:49Z</time>
<speed>1.170000</speed>
<extensions>
<speed>1.2</speed>
<temp>0.00</temp>
<bpm>0</bpm>
<rpm>0.00</rpm>
</extensions>
</trkpt>
<trkpt lat="64.081542969" lon="-19.550098419">
<ele>417.765625</ele>
<time>2012-07-21T18:53:54Z</time>
<speed>1.230000</speed>
<extensions>
<speed>1.2</speed>
<temp>0.00</temp>
<bpm>0</bpm>
<rpm>0.00</rpm>
</extensions>
</trkpt>
<trkpt lat="64.081550598" lon="-19.549957275">
<ele>418.523438</ele>
<time>2012-07-21T18:53:59Z</time>
<speed>1.500000</speed>
<extensions>
<speed>1.5</speed>
<temp>0.00</temp>
<bpm>0</bpm>
<rpm>0.00</rpm>
</extensions>
</trkpt>
<trkpt lat="64.081558228" lon="-19.549818039">
<ele>419.210938</ele>
<time>2012-07-21T18:54:04Z</time>
<speed>1.340000</speed>
<extensions>
<speed>1.3</speed>
<temp>0.00</temp>
<bpm>0</bpm>
<rpm>0.00</rpm>
</extensions>
</trkpt>
<trkpt lat="64.081558228" lon="-19.549671173">
<ele>419.578125</ele>
<time>2012-07-21T18:54:09Z</time>
<speed>1.470000</speed>
<extensions>
<speed>1.5</speed>
<temp>0.00</temp>
<bpm>0</bpm>
<rpm>0.00</rpm>
</extensions>
</trkpt>
<trkpt lat="64.081565857" lon="-19.549516678">
<ele>420.007813</ele>
<time>2012-07-21T18:54:14Z</time>
<speed>1.380000</speed>
<extensions>
<speed>1.4</speed>
<temp>0.00</temp>
<bpm>0</bpm>
<rpm>0.00</rpm>
</extensions>
</trkpt>
<trkpt lat="64.081558228" lon="-19.549365997">
<ele>420.671875</ele>
<time>2012-07-21T18:54:19Z</time>
<speed>1.550000</speed>
<extensions>
<speed>1.5</speed>
<temp>0.00</temp>
<bpm>0</bpm>
<rpm>0.00</rpm>
</extensions>
</trkpt>
<trkpt lat="64.081565857" lon="-19.549240112">
<ele>421.515625</ele>
<time>2012-07-21T18:54:24Z</time>
<speed>1.080000</speed>
<extensions>
<speed>1.1</speed>
<temp>0.00</temp>
<bpm>0</bpm>
<rpm>0.00</rpm>
</extensions>
</trkpt>
<trkpt lat="64.081573486" lon="-19.549116135">
<ele>421.281250</ele>
<time>2012-07-21T18:54:29Z</time>
<speed>1.090000</speed>
<extensions>
<speed>1.1</speed>
<temp>0.00</temp>
<bpm>0</bpm>
<rpm>0.00</rpm>
</extensions>
</trkpt>
<trkpt lat="64.081573486" lon="-19.548999786">
<ele>421.304688</ele>
<time>2012-07-21T18:54:34Z</time>
<speed>1.340000</speed>
<extensions>
<speed>1.3</speed>
<temp>0.00</temp>
<bpm>0</bpm>
<rpm>0.00</rpm>
</extensions>
</trkpt>
<trkpt lat="64.081581116" lon="-19.548868179">
<ele>421.984375</ele>
<time>2012-07-21T18:54:39Z</time>
<speed>1.310000</speed>
<extensions>
<speed>1.3</speed>
<temp>0.00</temp>
<bpm>0</bpm>
<rpm>0.00</rpm>
</extensions>
</trkpt>
<trkpt lat="64.081588745" lon="-19.548736572">
<ele>421.914063</ele>
<time>2012-07-21T18:54:44Z</time>
<speed>1.220000</speed>
<extensions>
<speed>1.2</speed>
<temp>0.00</temp>
<bpm>0</bpm>
<rpm>0.00</rpm>
</extensions>
</trkpt>
<trkpt lat="64.081588745" lon="-19.548603058">
<ele>422.242188</ele>
<time>2012-07-21T18:54:49Z</time>
<speed>1.330000</speed>
<extensions>
<speed>1.3</speed>
<temp>0.00</temp>
<bpm>0</bpm>
<rpm>0.00</rpm>
</extensions>
</trkpt>
<trkpt lat="64.081581116" lon="-19.548463821">
<ele>422.570313</ele>
<time>2012-07-21T18:54:54Z</time>
<speed>1.460000</speed>
<extensions>
<speed>1.5</speed>
<temp>0.00</temp>
<bpm>0</bpm>
<rpm>0.00</rpm>
</extensions>
</trkpt>
<trkpt lat="64.081581116" lon="-19.548315048">
<ele>422.656250</ele>
<time>2012-07-21T18:54:59Z</time>
<speed>1.360000</speed>
<extensions>
<speed>1.4</speed>
<temp>0.00</temp>
<bpm>0</bpm>
<rpm>0.00</rpm>
</extensions>
</trkpt>
<trkpt lat="64.081581116" lon="-19.548170090">
<ele>422.703125</ele>
<time>2012-07-21T18:55:04Z</time>
<speed>1.450000</speed>
<extensions>
<speed>1.4</speed>
<temp>0.00</temp>
<bpm>0</bpm>
<rpm>0.00</rpm>
</extensions>
</trkpt>
<trkpt lat="64.081581116" lon="-19.548030853">
<ele>422.898438</ele>
<time>2012-07-21T18:55:09Z</time>
<speed>1.300000</speed>
<extensions>
<speed>1.3</speed>
<temp>0.00</temp>
<bpm>0</bpm>
<rpm>0.00</rpm>
</extensions>
</trkpt>
<trkpt lat="64.081588745" lon="-19.547887802">
<ele>422.539063</ele>
<time>2012-07-21T18:55:14Z</time>
<speed>1.400000</speed>
<extensions>
<speed>1.4</speed>
<temp>0.00</temp>
<bpm>0</bpm>
<rpm>0.00</rpm>
</extensions>
</trkpt>
<trkpt lat="64.081588745" lon="-19.547763824">
<ele>423.226563</ele>
<time>2012-07-21T18:55:19Z</time>
<speed>1.190000</speed>
<extensions>
<speed>1.2</speed>
<temp>0.00</temp>
<bpm>0</bpm>
<rpm>0.00</rpm>
</extensions>
</trkpt>
<trkpt lat="64.081596375" lon="-19.547628403">
<ele>423.570313</ele>
<time>2012-07-21T18:55:24Z</time>
<speed>1.220000</speed>
<extensions>
<speed>1.2</speed>
<temp>0.00</temp>
<bpm>0</bpm>
<rpm>0.00</rpm>
</extensions>
</trkpt>
<trkpt lat="64.081596375" lon="-19.547489166">
<ele>423.351563</ele>
<time>2012-07-21T18:55:29Z</time>
<speed>1.310000</speed>
<extensions>
<speed>1.3</speed>
<temp>0.00</temp>
<bpm>0</bpm>
<rpm>0.00</rpm>
</extensions>
</trkpt>
<trkpt lat="64.081581116" lon="-19.547384262">
<ele>423.695313</ele>
<time>2012-07-21T18:55:34Z</time>
<speed>1.260000</speed>
<extensions>
<speed>1.3</speed>
<temp>0.00</temp>
<bpm>0</bpm>
<rpm>0.00</rpm>
</extensions>
</trkpt>
<trkpt lat="64.081588745" lon="-19.547252655">
<ele>423.648438</ele>
<time>2012-07-21T18:55:39Z</time>
<speed>1.210000</speed>
<extensions>
<speed>1.2</speed>
<temp>0.00</temp>
<bpm>0</bpm>
<rpm>0.00</rpm>
</extensions>
</trkpt>
<trkpt lat="64.081604004" lon="-19.547121048">
<ele>424.164063</ele>
<time>2012-07-21T18:55:44Z</time>
<speed>1.350000</speed>
<extensions>
<speed>1.4</speed>
<temp>0.00</temp>
<bpm>0</bpm>
<rpm>0.00</rpm>
</extensions>
</trkpt>
<trkpt lat="64.081611633" lon="-19.546987534">
<ele>423.929688</ele>
<time>2012-07-21T18:55:49Z</time>
<speed>1.150000</speed>
<extensions>
<speed>1.1</speed>
<temp>0.00</temp>
<bpm>0</bpm>
<rpm>0.00</rpm>
</extensions>
</trkpt>
<trkpt lat="64.081604004" lon="-19.546905518">
<ele>423.343750</ele>
<time>2012-07-21T18:55:54Z</time>
<speed>1.210000</speed>
<extensions>
<speed>1.2</speed>
<temp>0.00</temp>
<bpm>0</bpm>
<rpm>0.00</rpm>
</extensions>
</trkpt>
<trkpt lat="64.081604004" lon="-19.546756744">
<ele>423.375000</ele>
<time>2012-07-21T18:55:59Z</time>
<speed>1.240000</speed>
<extensions>
<speed>1.2</speed>
<temp>0.00</temp>
<bpm>0</bpm>
<rpm>0.00</rpm>
</extensions>
</trkpt>
<trkpt lat="64.081596375" lon="-19.546644211">
<ele>423.515625</ele>
<time>2012-07-21T18:56:04Z</time>
<speed>0.440000</speed>
<extensions>
<speed>0.4</speed>
<temp>0.00</temp>
<bpm>0</bpm>
<rpm>0.00</rpm>
</extensions>
</trkpt>
<trkpt lat="64.081588745" lon="-19.546644211">
<ele>423.718750</ele>
<time>2012-07-21T18:56:09Z</time>
<speed>0.070000</speed>
<extensions>
<speed>0.1</speed>
<temp>0.00</temp>
<bpm>0</bpm>
<rpm>0.00</rpm>
</extensions>
</trkpt>
<trkpt lat="64.081588745" lon="-19.546649933">
<ele>423.710938</ele>
<time>2012-07-21T18:56:14Z</time>
<speed>0.040000</speed>
<extensions>
<speed>0.0</speed>
<temp>0.00</temp>
<bpm>0</bpm>
<rpm>0.00</rpm>
</extensions>
</trkpt>
<trkpt lat="64.081581116" lon="-19.546667099">
<ele>423.601563</ele>
<time>2012-07-21T18:56:19Z</time>
<speed>0.290000</speed>
<extensions>
<speed>0.3</speed>
<temp>0.00</temp>
<bpm>0</bpm>
<rpm>0.00</rpm>
</extensions>
</trkpt>
<trkpt lat="64.081581116" lon="-19.546667099">
<ele>423.570313</ele>
<time>2012-07-21T18:56:24Z</time>
<speed>0.100000</speed>
<extensions>
<speed>0.1</speed>
<temp>0.00</temp>
<bpm>0</bpm>
<rpm>0.00</rpm>
</extensions>
</trkpt>
<trkpt lat="64.081573486" lon="-19.546674728">
<ele>423.648438</ele>
<time>2012-07-21T18:56:29Z</time>
<speed>0.160000</speed>
<extensions>
<speed>0.2</speed>
<temp>0.00</temp>
<bpm>0</bpm>
<rpm>0.00</rpm>
</extensions>
</trkpt>
<trkpt lat="64.081573486" lon="-19.546676636">
<ele>423.796875</ele>
<time>2012-07-21T18:56:34Z</time>
<speed>0.050000</speed>
<extensions>
<speed>0.1</speed>
<temp>0.00</temp>
<bpm>0</bpm>
<rpm>0.00</rpm>
</extensions>
</trkpt>
<trkpt lat="64.081573486" lon="-19.546680450">
<ele>423.960938</ele>
<time>2012-07-21T18:56:39Z</time>
<speed>0.170000</speed>
<extensions>
<speed>0.2</speed>
<temp>0.00</temp>
<bpm>0</bpm>
<rpm>0.00</rpm>
</extensions>
</trkpt>
<trkpt lat="64.081565857" lon="-19.546625137">
<ele>423.867188</ele>
<time>2012-07-21T18:56:44Z</time>
<speed>0.840000</speed>
<extensions>
<speed>0.8</speed>
<temp>0.00</temp>
<bpm>0</bpm>
<rpm>0.00</rpm>
</extensions>
</trkpt>
<trkpt lat="64.081565857" lon="-19.546499252">
<ele>423.664063</ele>
<time>2012-07-21T18:56:49Z</time>
<speed>1.340000</speed>
<extensions>
<speed>1.3</speed>
<temp>0.00</temp>
<bpm>0</bpm>
<rpm>0.00</rpm>
</extensions>
</trkpt>
<trkpt lat="64.081565857" lon="-19.546346664">
<ele>423.218750</ele>
<time>2012-07-21T18:56:54Z</time>
<speed>1.280000</speed>
<extensions>
<speed>1.3</speed>
<temp>0.00</temp>
<bpm>0</bpm>
<rpm>0.00</rpm>
</extensions>
</trkpt>
<trkpt lat="64.081565857" lon="-19.546195984">
<ele>422.984375</ele>
<time>2012-07-21T18:56:59Z</time>
<speed>1.530000</speed>
<extensions>
<speed>1.5</speed>
<temp>0.00</temp>
<bpm>0</bpm>
<rpm>0.00</rpm>
</extensions>
</trkpt>
<trkpt lat="64.081565857" lon="-19.546043396">
<ele>422.929688</ele>
<time>2012-07-21T18:57:04Z</time>
<speed>1.240000</speed>
<extensions>
<speed>1.2</speed>
<temp>0.00</temp>
<bpm>0</bpm>
<rpm>0.00</rpm>
</extensions>
</trkpt>
<trkpt lat="64.081550598" lon="-19.545923233">
<ele>422.718750</ele>
<time>2012-07-21T18:57:09Z</time>
<speed>1.400000</speed>
<extensions>
<speed>1.4</speed>
<temp>0.00</temp>
<bpm>0</bpm>
<rpm>0.00</rpm>
</extensions>
</trkpt>
<trkpt lat="64.081542969" lon="-19.545782089">
<ele>422.578125</ele>
<time>2012-07-21T18:57:14Z</time>
<speed>1.380000</speed>
<extensions>
<speed>1.4</speed>
<temp>0.00</temp>
<bpm>0</bpm>
<rpm>0.00</rpm>
</extensions>
</trkpt>
<trkpt lat="64.081535339" lon="-19.545629501">
<ele>422.335938</ele>
<time>2012-07-21T18:57:19Z</time>
<speed>1.530000</speed>
<extensions>
<speed>1.5</speed>
<temp>0.00</temp>
<bpm>0</bpm>
<rpm>0.00</rpm>
</extensions>
</trkpt>
<trkpt lat="64.081527710" lon="-19.545471191">
<ele>421.859375</ele>
<time>2012-07-21T18:57:24Z</time>
<speed>1.590000</speed>
<extensions>
<speed>1.6</speed>
<temp>0.00</temp>
<bpm>0</bpm>
<rpm>0.00</rpm>
</extensions>
</trkpt>
<trkpt lat="64.081504822" lon="-19.545310974">
<ele>421.710938</ele>
<time>2012-07-21T18:57:29Z</time>
<speed>1.430000</speed>
<extensions>
<speed>1.4</speed>
<temp>0.00</temp>
<bpm>0</bpm>
<rpm>0.00</rpm>
</extensions>
</trkpt>
<trkpt lat="64.081497192" lon="-19.545164108">
<ele>421.468750</ele>
<time>2012-07-21T18:57:34Z</time>
<speed>1.450000</speed>
<extensions>
<speed>1.4</speed>
<temp>0.00</temp>
<bpm>0</bpm>
<rpm>0.00</rpm>
</extensions>
</trkpt>
<trkpt lat="64.081489563" lon="-19.545013428">
<ele>422.164063</ele>
<time>2012-07-21T18:57:39Z</time>
<speed>1.630000</speed>
<extensions>
<speed>1.6</speed>
<temp>0.00</temp>
<bpm>0</bpm>
<rpm>0.00</rpm>
</extensions>
</trkpt>
<trkpt lat="64.081459045" lon="-19.544878006">
<ele>422.304688</ele>
<time>2012-07-21T18:57:44Z</time>
<speed>1.520000</speed>
<extensions>
<speed>1.5</speed>
<temp>0.00</temp>
<bpm>0</bpm>
<rpm>0.00</rpm>
</extensions>
</trkpt>
<trkpt lat="64.081436157" lon="-19.544731140">
<ele>422.406250</ele>
<time>2012-07-21T18:57:49Z</time>
<speed>1.400000</speed>
<extensions>
<speed>1.4</speed>
<temp>0.00</temp>
<bpm>0</bpm>
<rpm>0.00</rpm>
</extensions>
</trkpt>
<trkpt lat="64.081405640" lon="-19.544607162">
<ele>422.593750</ele>
<time>2012-07-21T18:57:54Z</time>
<speed>1.440000</speed>
<extensions>
<speed>1.4</speed>
<temp>0.00</temp>
<bpm>0</bpm>
<rpm>0.00</rpm>
</extensions>
</trkpt>
<trkpt lat="64.081382751" lon="-19.544488907">
<ele>422.187500</ele>
<time>2012-07-21T18:57:59Z</time>
<speed>1.280000</speed>
<extensions>
<speed>1.3</speed>
<temp>0.00</temp>
<bpm>0</bpm>
<rpm>0.00</rpm>
</extensions>
</trkpt>
<trkpt lat="64.081352234" lon="-19.544363022">
<ele>422.109375</ele>
<time>2012-07-21T18:58:04Z</time>
<speed>1.260000</speed>
<extensions>
<speed>1.3</speed>
<temp>0.00</temp>
<bpm>0</bpm>
<rpm>0.00</rpm>
</extensions>
</trkpt>
<trkpt lat="64.081321716" lon="-19.544229507">
<ele>422.382813</ele>
<time>2012-07-21T18:58:09Z</time>
<speed>1.470000</speed>
<extensions>
<speed>1.5</speed>
<temp>0.00</temp>
<bpm>0</bpm>
<rpm>0.00</rpm>
</extensions>
</trkpt>
<trkpt lat="64.081291199" lon="-19.544103622">
<ele>422.398438</ele>
<time>2012-07-21T18:58:14Z</time>
<speed>1.390000</speed>
<extensions>
<speed>1.4</speed>
<temp>0.00</temp>
<bpm>0</bpm>
<rpm>0.00</rpm>
</extensions>
</trkpt>
<trkpt lat="64.081253052" lon="-19.543970108">
<ele>422.609375</ele>
<time>2012-07-21T18:58:19Z</time>
<speed>1.530000</speed>
<extensions>
<speed>1.5</speed>
<temp>0.00</temp>
<bpm>0</bpm>
<rpm>0.00</rpm>
</extensions>
</trkpt>
<trkpt lat="64.081207275" lon="-19.543821335">
<ele>422.437500</ele>
<time>2012-07-21T18:58:24Z</time>
<speed>1.540000</speed>
<extensions>
<speed>1.5</speed>
<temp>0.00</temp>
<bpm>0</bpm>
<rpm>0.00</rpm>
</extensions>
</trkpt>
<trkpt lat="64.081169128" lon="-19.543691635">
<ele>422.039063</ele>
<time>2012-07-21T18:58:29Z</time>
<speed>1.560000</speed>
<extensions>
<speed>1.6</speed>
<temp>0.00</temp>
<bpm>0</bpm>
<rpm>0.00</rpm>
</extensions>
</trkpt>
<trkpt lat="64.081130981" lon="-19.543554306">
<ele>422.070313</ele>
<time>2012-07-21T18:58:34Z</time>
<speed>1.700000</speed>
<extensions>
<speed>1.7</speed>
<temp>0.00</temp>
<bpm>0</bpm>
<rpm>0.00</rpm>
</extensions>
</trkpt>
<trkpt lat="64.081085205" lon="-19.543451309">
<ele>422.546875</ele>
<time>2012-07-21T18:58:39Z</time>
<speed>1.230000</speed>
<extensions>
<speed>1.2</speed>
<temp>0.00</temp>
<bpm>0</bpm>
<rpm>0.00</rpm>
</extensions>
</trkpt>
<trkpt lat="64.081054688" lon="-19.543342590">
<ele>422.523438</ele>
<time>2012-07-21T18:58:44Z</time>
<speed>1.440000</speed>
<extensions>
<speed>1.4</speed>
<temp>0.00</temp>
<bpm>0</bpm>
<rpm>0.00</rpm>
</extensions>
</trkpt>
<trkpt lat="64.081008911" lon="-19.543222427">
<ele>422.250000</ele>
<time>2012-07-21T18:58:49Z</time>
<speed>1.650000</speed>
<extensions>
<speed>1.7</speed>
<temp>0.00</temp>
<bpm>0</bpm>
<rpm>0.00</rpm>
</extensions>
</trkpt>
<trkpt lat="64.080970764" lon="-19.543117523">
<ele>421.960938</ele>
<time>2012-07-21T18:58:54Z</time>
<speed>1.230000</speed>
<extensions>
<speed>1.2</speed>
<temp>0.00</temp>
<bpm>0</bpm>
<rpm>0.00</rpm>
</extensions>
</trkpt>
<trkpt lat="64.080932617" lon="-19.543022156">
<ele>421.679688</ele>
<time>2012-07-21T18:58:59Z</time>
<speed>1.460000</speed>
<extensions>
<speed>1.5</speed>
<temp>0.00</temp>
<bpm>0</bpm>
<rpm>0.00</rpm>
</extensions>
</trkpt>
<trkpt lat="64.080902100" lon="-19.542924881">
<ele>421.445313</ele>
<time>2012-07-21T18:59:04Z</time>
<speed>0.090000</speed>
<extensions>
<speed>0.1</speed>
<temp>0.00</temp>
<bpm>0</bpm>
<rpm>0.00</rpm>
</extensions>
</trkpt>
<trkpt lat="64.080879211" lon="-19.542881012">
<ele>421.500000</ele>
<time>2012-07-21T18:59:09Z</time>
<speed>1.480000</speed>
<extensions>
<speed>1.5</speed>
<temp>0.00</temp>
<bpm>0</bpm>
<rpm>0.00</rpm>
</extensions>
</trkpt>
<trkpt lat="64.080833435" lon="-19.542791367">
<ele>421.960938</ele>
<time>2012-07-21T18:59:14Z</time>
<speed>1.300000</speed>
<extensions>
<speed>1.3</speed>
<temp>0.00</temp>
<bpm>0</bpm>
<rpm>0.00</rpm>
</extensions>
</trkpt>
<trkpt lat="64.080787659" lon="-19.542688370">
<ele>422.468750</ele>
<time>2012-07-21T18:59:19Z</time>
<speed>1.480000</speed>
<extensions>
<speed>1.5</speed>
<temp>0.00</temp>
<bpm>0</bpm>
<rpm>0.00</rpm>
</extensions>
</trkpt>
<trkpt lat="64.080749512" lon="-19.542593002">
<ele>422.570313</ele>
<time>2012-07-21T18:59:24Z</time>
<speed>0.780000</speed>
<extensions>
<speed>0.8</speed>
<temp>0.00</temp>
<bpm>0</bpm>
<rpm>0.00</rpm>
</extensions>
</trkpt>
<trkpt lat="64.080726624" lon="-19.542545319">
<ele>422.718750</ele>
<time>2012-07-21T18:59:29Z</time>
<speed>1.190000</speed>
<extensions>
<speed>1.2</speed>
<temp>0.00</temp>
<bpm>0</bpm>
<rpm>0.00</rpm>
</extensions>
</trkpt>
<trkpt lat="64.080696106" lon="-19.542497635">
<ele>422.859375</ele>
<time>2012-07-21T18:59:34Z</time>
<speed>0.820000</speed>
<extensions>
<speed>0.8</speed>
<temp>0.00</temp>
<bpm>0</bpm>
<rpm>0.00</rpm>
</extensions>
</trkpt>
<trkpt lat="64.080673218" lon="-19.542444229">
<ele>423.250000</ele>
<time>2012-07-21T18:59:39Z</time>
<speed>0.830000</speed>
<extensions>
<speed>0.8</speed>
<temp>0.00</temp>
<bpm>0</bpm>
<rpm>0.00</rpm>
</extensions>
</trkpt>
<trkpt lat="64.080642700" lon="-19.542373657">
<ele>423.796875</ele>
<time>2012-07-21T18:59:44Z</time>
<speed>1.080000</speed>
<extensions>
<speed>1.1</speed>
<temp>0.00</temp>
<bpm>0</bpm>
<rpm>0.00</rpm>
</extensions>
</trkpt>
<trkpt lat="64.080596924" lon="-19.542270660">
<ele>424.195313</ele>
<time>2012-07-21T18:59:49Z</time>
<speed>1.320000</speed>
<extensions>
<speed>1.3</speed>
<temp>0.00</temp>
<bpm>0</bpm>
<rpm>0.00</rpm>
</extensions>
</trkpt>
<trkpt lat="64.080558777" lon="-19.542192459">
<ele>424.500000</ele>
<time>2012-07-21T18:59:54Z</time>
<speed>1.340000</speed>
<extensions>
<speed>1.3</speed>
<temp>0.00</temp>
<bpm>0</bpm>
<rpm>0.00</rpm>
</extensions>
</trkpt>
<trkpt lat="64.080520630" lon="-19.542087555">
<ele>424.609375</ele>
<time>2012-07-21T18:59:59Z</time>
<speed>1.440000</speed>
<extensions>
<speed>1.4</speed>
<temp>0.00</temp>
<bpm>0</bpm>
<rpm>0.00</rpm>
</extensions>
</trkpt>
<trkpt lat="64.080482483" lon="-19.542013168">
<ele>424.585938</ele>
<time>2012-07-21T19:00:04Z</time>
<speed>1.000000</speed>
<extensions>
<speed>1.0</speed>
<temp>0.00</temp>
<bpm>0</bpm>
<rpm>0.00</rpm>
</extensions>
</trkpt>
<trkpt lat="64.080451965" lon="-19.541913986">
<ele>424.578125</ele>
<time>2012-07-21T19:00:09Z</time>
<speed>1.380000</speed>
<extensions>
<speed>1.4</speed>
<temp>0.00</temp>
<bpm>0</bpm>
<rpm>0.00</rpm>
</extensions>
</trkpt>
<trkpt lat="64.080406189" lon="-19.541793823">
<ele>424.601563</ele>
<time>2012-07-21T19:00:14Z</time>
<speed>1.360000</speed>
<extensions>
<speed>1.4</speed>
<temp>0.00</temp>
<bpm>0</bpm>
<rpm>0.00</rpm>
</extensions>
</trkpt>
<trkpt lat="64.080375671" lon="-19.541679382">
<ele>424.804688</ele>
<time>2012-07-21T19:00:19Z</time>
<speed>1.200000</speed>
<extensions>
<speed>1.2</speed>
<temp>0.00</temp>
<bpm>0</bpm>
<rpm>0.00</rpm>
</extensions>
</trkpt>
<trkpt lat="64.080345154" lon="-19.541561127">
<ele>425.406250</ele>
<time>2012-07-21T19:00:24Z</time>
<speed>1.320000</speed>
<extensions>
<speed>1.3</speed>
<temp>0.00</temp>
<bpm>0</bpm>
<rpm>0.00</rpm>
</extensions>
</trkpt>
<trkpt lat="64.080307007" lon="-19.541484833">
<ele>425.273438</ele>
<time>2012-07-21T19:00:29Z</time>
<speed>1.240000</speed>
<extensions>
<speed>1.2</speed>
<temp>0.00</temp>
<bpm>0</bpm>
<rpm>0.00</rpm>
</extensions>
</trkpt>
<trkpt lat="64.080291748" lon="-19.541381836">
<ele>425.562500</ele>
<time>2012-07-21T19:00:34Z</time>
<speed>1.150000</speed>
<extensions>
<speed>1.1</speed>
<temp>0.00</temp>
<bpm>0</bpm>
<rpm>0.00</rpm>
</extensions>
</trkpt>
<trkpt lat="64.080253601" lon="-19.541297913">
<ele>425.585938</ele>
<time>2012-07-21T19:00:39Z</time>
<speed>1.360000</speed>
<extensions>
<speed>1.4</speed>
<temp>0.00</temp>
<bpm>0</bpm>
<rpm>0.00</rpm>
</extensions>
</trkpt>
<trkpt lat="64.080223083" lon="-19.541177750">
<ele>425.164063</ele>
<time>2012-07-21T19:00:44Z</time>
<speed>1.250000</speed>
<extensions>
<speed>1.3</speed>
<temp>0.00</temp>
<bpm>0</bpm>
<rpm>0.00</rpm>
</extensions>
</trkpt>
<trkpt lat="64.080192566" lon="-19.541093826">
<ele>425.039063</ele>
<time>2012-07-21T19:00:49Z</time>
<speed>1.000000</speed>
<extensions>
<speed>1.0</speed>
<temp>0.00</temp>
<bpm>0</bpm>
<rpm>0.00</rpm>
</extensions>
</trkpt>
<trkpt lat="64.080192566" lon="-19.541063309">
<ele>425.156250</ele>
<time>2012-07-21T19:00:54Z</time>
<extensions>
<speed>0.0</speed>
<temp>0.00</temp>
<bpm>0</bpm>
<rpm>0.00</rpm>
</extensions>
</trkpt>
<trkpt lat="64.080184937" lon="-19.541044235">
<ele>425.046875</ele>
<time>2012-07-21T19:00:59Z</time>
<speed>0.840000</speed>
<extensions>
<speed>0.8</speed>
<temp>0.00</temp>
<bpm>0</bpm>
<rpm>0.00</rpm>
</extensions>
</trkpt>
<trkpt lat="64.080162048" lon="-19.540954590">
<ele>425.171875</ele>
<time>2012-07-21T19:01:04Z</time>
<speed>1.140000</speed>
<extensions>
<speed>1.1</speed>
<temp>0.00</temp>
<bpm>0</bpm>
<rpm>0.00</rpm>
</extensions>
</trkpt>
<trkpt lat="64.080146790" lon="-19.540870667">
<ele>425.039063</ele>
<time>2012-07-21T19:01:09Z</time>
<speed>0.680000</speed>
<extensions>
<speed>0.7</speed>
<temp>0.00</temp>
<bpm>0</bpm>
<rpm>0.00</rpm>
</extensions>
</trkpt>
<trkpt lat="64.080123901" lon="-19.540790558">
<ele>424.710938</ele>
<time>2012-07-21T19:01:14Z</time>
<speed>0.940000</speed>
<extensions>
<speed>0.9</speed>
<temp>0.00</temp>
<bpm>0</bpm>
<rpm>0.00</rpm>
</extensions>
</trkpt>
<trkpt lat="64.080101013" lon="-19.540708542">
<ele>425.437500</ele>
<time>2012-07-21T19:01:19Z</time>
<speed>0.880000</speed>
<extensions>
<speed>0.9</speed>
<temp>0.00</temp>
<bpm>0</bpm>
<rpm>0.00</rpm>
</extensions>
</trkpt>
<trkpt lat="64.080070496" lon="-19.540643692">
<ele>425.718750</ele>
<time>2012-07-21T19:01:24Z</time>
<speed>0.810000</speed>
<extensions>
<speed>0.8</speed>
<temp>0.00</temp>
<bpm>0</bpm>
<rpm>0.00</rpm>
</extensions>
</trkpt>
<trkpt lat="64.080047607" lon="-19.540555954">
<ele>425.976563</ele>
<time>2012-07-21T19:01:29Z</time>
<speed>0.980000</speed>
<extensions>
<speed>1.0</speed>
<temp>0.00</temp>
<bpm>0</bpm>
<rpm>0.00</rpm>
</extensions>
</trkpt>
<trkpt lat="64.080017090" lon="-19.540491104">
<ele>426.343750</ele>
<time>2012-07-21T19:01:34Z</time>
<speed>0.750000</speed>
<extensions>
<speed>0.8</speed>
<temp>0.00</temp>
<bpm>0</bpm>
<rpm>0.00</rpm>
</extensions>
</trkpt>
<trkpt lat="64.079994202" lon="-19.540435791">
<ele>426.796875</ele>
<time>2012-07-21T19:01:39Z</time>
<speed>0.910000</speed>
<extensions>
<speed>0.9</speed>
<temp>0.00</temp>
<bpm>0</bpm>
<rpm>0.00</rpm>
</extensions>
</trkpt>
<trkpt lat="64.079948425" lon="-19.540388107">
<ele>427.148438</ele>
<time>2012-07-21T19:01:44Z</time>
<speed>0.800000</speed>
<extensions>
<speed>0.8</speed>
<temp>0.00</temp>
<bpm>0</bpm>
<rpm>0.00</rpm>
</extensions>
</trkpt>
<trkpt lat="64.079917908" lon="-19.540346146">
<ele>427.734375</ele>
<time>2012-07-21T19:01:49Z</time>
<speed>0.810000</speed>
<extensions>
<speed>0.8</speed>
<temp>0.00</temp>
<bpm>0</bpm>
<rpm>0.00</rpm>
</extensions>
</trkpt>
<trkpt lat="64.079887390" lon="-19.540287018">
<ele>428.140625</ele>
<time>2012-07-21T19:01:54Z</time>
<speed>0.890000</speed>
<extensions>
<speed>0.9</speed>
<temp>0.00</temp>
<bpm>0</bpm>
<rpm>0.00</rpm>
</extensions>
</trkpt>
<trkpt lat="64.079864502" lon="-19.540250778">
<ele>428.382813</ele>
<time>2012-07-21T19:01:59Z</time>
<speed>0.020000</speed>
<extensions>
<speed>0.0</speed>
<temp>0.00</temp>
<bpm>0</bpm>
<rpm>0.00</rpm>
</extensions>
</trkpt>
<trkpt lat="64.079826355" lon="-19.540205002">
<ele>428.796875</ele>
<time>2012-07-21T19:02:04Z</time>
<speed>1.200000</speed>
<extensions>
<speed>1.2</speed>
<temp>0.00</temp>
<bpm>0</bpm>
<rpm>0.00</rpm>
</extensions>
</trkpt>
<trkpt lat="64.079795837" lon="-19.540155411">
<ele>429.171875</ele>
<time>2012-07-21T19:02:09Z</time>
<speed>0.860000</speed>
<extensions>
<speed>0.9</speed>
<temp>0.00</temp>
<bpm>0</bpm>
<rpm>0.00</rpm>
</extensions>
</trkpt>
<trkpt lat="64.079750061" lon="-19.540086746">
<ele>428.820313</ele>
<time>2012-07-21T19:02:14Z</time>
<speed>1.200000</speed>
<extensions>
<speed>1.2</speed>
<temp>0.00</temp>
<bpm>0</bpm>
<rpm>0.00</rpm>
</extensions>
</trkpt>
<trkpt lat="64.079711914" lon="-19.540004730">
<ele>428.710938</ele>
<time>2012-07-21T19:02:19Z</time>
<speed>1.120000</speed>
<extensions>
<speed>1.1</speed>
<temp>0.00</temp>
<bpm>0</bpm>
<rpm>0.00</rpm>
</extensions>
</trkpt>
<trkpt lat="64.079696655" lon="-19.539987564">
<ele>428.898438</ele>
<time>2012-07-21T19:02:24Z</time>
<speed>0.080000</speed>
<extensions>
<speed>0.1</speed>
<temp>0.00</temp>
<bpm>0</bpm>
<rpm>0.00</rpm>
</extensions>
</trkpt>
<trkpt lat="64.079673767" lon="-19.539922714">
<ele>428.679688</ele>
<time>2012-07-21T19:02:29Z</time>
<speed>1.110000</speed>
<extensions>
<speed>1.1</speed>
<temp>0.00</temp>
<bpm>0</bpm>
<rpm>0.00</rpm>
</extensions>
</trkpt>
<trkpt lat="64.079627991" lon="-19.539836884">
<ele>428.367188</ele>
<time>2012-07-21T19:02:34Z</time>
<speed>1.380000</speed>
<extensions>
<speed>1.4</speed>
<temp>0.00</temp>
<bpm>0</bpm>
<rpm>0.00</rpm>
</extensions>
</trkpt>
<trkpt lat="64.079589844" lon="-19.539731979">
<ele>428.085938</ele>
<time>2012-07-21T19:02:39Z</time>
<speed>1.180000</speed>
<extensions>
<speed>1.2</speed>
<temp>0.00</temp>
<bpm>0</bpm>
<rpm>0.00</rpm>
</extensions>
</trkpt>
<trkpt lat="64.079544067" lon="-19.539665222">
<ele>428.015625</ele>
<time>2012-07-21T19:02:44Z</time>
<speed>1.230000</speed>
<extensions>
<speed>1.2</speed>
<temp>0.00</temp>
<bpm>0</bpm>
<rpm>0.00</rpm>
</extensions>
</trkpt>
<trkpt lat="64.079498291" lon="-19.539583206">
<ele>428.070313</ele>
<time>2012-07-21T19:02:49Z</time>
<speed>1.390000</speed>
<extensions>
<speed>1.4</speed>
<temp>0.00</temp>
<bpm>0</bpm>
<rpm>0.00</rpm>
</extensions>
</trkpt>
<trkpt lat="64.079444885" lon="-19.539501190">
<ele>428.226563</ele>
<time>2012-07-21T19:02:54Z</time>
<speed>1.450000</speed>
<extensions>
<speed>1.4</speed>
<temp>0.00</temp>
<bpm>0</bpm>
<rpm>0.00</rpm>
</extensions>
</trkpt>
<trkpt lat="64.079399109" lon="-19.539407730">
<ele>428.132813</ele>
<time>2012-07-21T19:02:59Z</time>
<speed>1.370000</speed>
<extensions>
<speed>1.4</speed>
<temp>0.00</temp>
<bpm>0</bpm>
<rpm>0.00</rpm>
</extensions>
</trkpt>
<trkpt lat="64.079353333" lon="-19.539344788">
<ele>428.281250</ele>
<time>2012-07-21T19:03:04Z</time>
<speed>1.250000</speed>
<extensions>
<speed>1.3</speed>
<temp>0.00</temp>
<bpm>0</bpm>
<rpm>0.00</rpm>
</extensions>
</trkpt>
<trkpt lat="64.079307556" lon="-19.539262772">
<ele>428.500000</ele>
<time>2012-07-21T19:03:09Z</time>
<speed>1.310000</speed>
<extensions>
<speed>1.3</speed>
<temp>0.00</temp>
<bpm>0</bpm>
<rpm>0.00</rpm>
</extensions>
</trkpt>
<trkpt lat="64.079254150" lon="-19.539207458">
<ele>428.812500</ele>
<time>2012-07-21T19:03:14Z</time>
<speed>1.250000</speed>
<extensions>
<speed>1.3</speed>
<temp>0.00</temp>
<bpm>0</bpm>
<rpm>0.00</rpm>
</extensions>
</trkpt>
<trkpt lat="64.079208374" lon="-19.539129257">
<ele>428.710938</ele>
<time>2012-07-21T19:03:19Z</time>
<speed>1.250000</speed>
<extensions>
<speed>1.3</speed>
<temp>0.00</temp>
<bpm>0</bpm>
<rpm>0.00</rpm>
</extensions>
</trkpt>
<trkpt lat="64.079154968" lon="-19.539072037">
<ele>428.757813</ele>
<time>2012-07-21T19:03:24Z</time>
<speed>1.350000</speed>
<extensions>
<speed>1.4</speed>
<temp>0.00</temp>
<bpm>0</bpm>
<rpm>0.00</rpm>
</extensions>
</trkpt>
<trkpt lat="64.079101563" lon="-19.539001465">
<ele>428.734375</ele>
<time>2012-07-21T19:03:29Z</time>
<speed>1.170000</speed>
<extensions>
<speed>1.2</speed>
<temp>0.00</temp>
<bpm>0</bpm>
<rpm>0.00</rpm>
</extensions>
</trkpt>
<trkpt lat="64.079055786" lon="-19.538965225">
<ele>428.929688</ele>
<time>2012-07-21T19:03:34Z</time>
<speed>0.990000</speed>
<extensions>
<speed>1.0</speed>
<temp>0.00</temp>
<bpm>0</bpm>
<rpm>0.00</rpm>
</extensions>
</trkpt>
<trkpt lat="64.079040527" lon="-19.538970947">
<ele>428.625000</ele>
<time>2012-07-21T19:03:39Z</time>
<speed>0.070000</speed>
<extensions>
<speed>0.1</speed>
<temp>0.00</temp>
<bpm>0</bpm>
<rpm>0.00</rpm>
</extensions>
</trkpt>
<trkpt lat="64.079040527" lon="-19.538970947">
<ele>428.625000</ele>
<time>2012-07-21T19:03:44Z</time>
<speed>0.060000</speed>
<extensions>
<speed>0.1</speed>
<temp>0.00</temp>
<bpm>0</bpm>
<rpm>0.00</rpm>
</extensions>
</trkpt>
<trkpt lat="64.078994751" lon="-19.538934708">
<ele>428.882813</ele>
<time>2012-07-21T19:03:49Z</time>
<speed>1.450000</speed>
<extensions>
<speed>1.4</speed>
<temp>0.00</temp>
<bpm>0</bpm>
<rpm>0.00</rpm>
</extensions>
</trkpt>
<trkpt lat="64.078948975" lon="-19.538887024">
<ele>429.500000</ele>
<time>2012-07-21T19:03:54Z</time>
<speed>1.530000</speed>
<extensions>
<speed>1.5</speed>
<temp>0.00</temp>
<bpm>0</bpm>
<rpm>0.00</rpm>
</extensions>
</trkpt>
<trkpt lat="64.078887939" lon="-19.538860321">
<ele>429.695313</ele>
<time>2012-07-21T19:03:59Z</time>
<speed>1.320000</speed>
<extensions>
<speed>1.3</speed>
<temp>0.00</temp>
<bpm>0</bpm>
<rpm>0.00</rpm>
</extensions>
</trkpt>
<trkpt lat="64.078834534" lon="-19.538825989">
<ele>429.773438</ele>
<time>2012-07-21T19:04:04Z</time>
<speed>1.050000</speed>
<extensions>
<speed>1.0</speed>
<temp>0.00</temp>
<bpm>0</bpm>
<rpm>0.00</rpm>
</extensions>
</trkpt>
<trkpt lat="64.078781128" lon="-19.538793564">
<ele>429.500000</ele>
<time>2012-07-21T19:04:09Z</time>
<speed>1.290000</speed>
<extensions>
<speed>1.3</speed>
<temp>0.00</temp>
<bpm>0</bpm>
<rpm>0.00</rpm>
</extensions>
</trkpt>
<trkpt lat="64.078712463" lon="-19.538753510">
<ele>429.593750</ele>
<time>2012-07-21T19:04:14Z</time>
<speed>1.260000</speed>
<extensions>
<speed>1.3</speed>
<temp>0.00</temp>
<bpm>0</bpm>
<rpm>0.00</rpm>
</extensions>
</trkpt>
<trkpt lat="64.078659058" lon="-19.538713455">
<ele>429.625000</ele>
<time>2012-07-21T19:04:19Z</time>
<speed>1.360000</speed>
<extensions>
<speed>1.4</speed>
<temp>0.00</temp>
<bpm>0</bpm>
<rpm>0.00</rpm>
</extensions>
</trkpt>
<trkpt lat="64.078605652" lon="-19.538682938">
<ele>429.437500</ele>
<time>2012-07-21T19:04:24Z</time>
<speed>1.320000</speed>
<extensions>
<speed>1.3</speed>
<temp>0.00</temp>
<bpm>0</bpm>
<rpm>0.00</rpm>
</extensions>
</trkpt>
<trkpt lat="64.078544617" lon="-19.538640976">
<ele>429.187500</ele>
<time>2012-07-21T19:04:29Z</time>
<speed>1.420000</speed>
<extensions>
<speed>1.4</speed>
<temp>0.00</temp>
<bpm>0</bpm>
<rpm>0.00</rpm>
</extensions>
</trkpt>
<trkpt lat="64.078483582" lon="-19.538595200">
<ele>429.132813</ele>
<time>2012-07-21T19:04:34Z</time>
<speed>1.400000</speed>
<extensions>
<speed>1.4</speed>
<temp>0.00</temp>
<bpm>0</bpm>
<rpm>0.00</rpm>
</extensions>
</trkpt>
<trkpt lat="64.078422546" lon="-19.538560867">
<ele>429.257813</ele>
<time>2012-07-21T19:04:39Z</time>
<speed>1.430000</speed>
<extensions>
<speed>1.4</speed>
<temp>0.00</temp>
<bpm>0</bpm>
<rpm>0.00</rpm>
</extensions>
</trkpt>
<trkpt lat="64.078361511" lon="-19.538537979">
<ele>429.429688</ele>
<time>2012-07-21T19:04:44Z</time>
<speed>1.470000</speed>
<extensions>
<speed>1.5</speed>
<temp>0.00</temp>
<bpm>0</bpm>
<rpm>0.00</rpm>
</extensions>
</trkpt>
<trkpt lat="64.078308105" lon="-19.538509369">
<ele>429.554688</ele>
<time>2012-07-21T19:04:49Z</time>
<speed>1.200000</speed>
<extensions>
<speed>1.2</speed>
<temp>0.00</temp>
<bpm>0</bpm>
<rpm>0.00</rpm>
</extensions>
</trkpt>
<trkpt lat="64.078247070" lon="-19.538484573">
<ele>429.546875</ele>
<time>2012-07-21T19:04:54Z</time>
<speed>1.370000</speed>
<extensions>
<speed>1.4</speed>
<temp>0.00</temp>
<bpm>0</bpm>
<rpm>0.00</rpm>
</extensions>
</trkpt>
<trkpt lat="64.078178406" lon="-19.538454056">
<ele>429.531250</ele>
<time>2012-07-21T19:04:59Z</time>
<speed>1.520000</speed>
<extensions>
<speed>1.5</speed>
<temp>0.00</temp>
<bpm>0</bpm>
<rpm>0.00</rpm>
</extensions>
</trkpt>
<trkpt lat="64.078117371" lon="-19.538414001">
<ele>429.468750</ele>
<time>2012-07-21T19:05:04Z</time>
<speed>1.490000</speed>
<extensions>
<speed>1.5</speed>
<temp>0.00</temp>
<bpm>0</bpm>
<rpm>0.00</rpm>
</extensions>
</trkpt>
<trkpt lat="64.078048706" lon="-19.538381577">
<ele>429.898438</ele>
<time>2012-07-21T19:05:09Z</time>
<speed>1.500000</speed>
<extensions>
<speed>1.5</speed>
<temp>0.00</temp>
<bpm>0</bpm>
<rpm>0.00</rpm>
</extensions>
</trkpt>
<trkpt lat="64.077987671" lon="-19.538362503">
<ele>429.945313</ele>
<time>2012-07-21T19:05:14Z</time>
<speed>1.510000</speed>
<extensions>
<speed>1.5</speed>
<temp>0.00</temp>
<bpm>0</bpm>
<rpm>0.00</rpm>
</extensions>
</trkpt>
<trkpt lat="64.077919006" lon="-19.538333893">
<ele>430.117188</ele>
<time>2012-07-21T19:05:19Z</time>
<speed>1.500000</speed>
<extensions>
<speed>1.5</speed>
<temp>0.00</temp>
<bpm>0</bpm>
<rpm>0.00</rpm>
</extensions>
</trkpt>
<trkpt lat="64.077850342" lon="-19.538297653">
<ele>430.429688</ele>
<time>2012-07-21T19:05:24Z</time>
<speed>1.500000</speed>
<extensions>
<speed>1.5</speed>
<temp>0.00</temp>
<bpm>0</bpm>
<rpm>0.00</rpm>
</extensions>
</trkpt>
<trkpt lat="64.077781677" lon="-19.538284302">
<ele>430.093750</ele>
<time>2012-07-21T19:05:29Z</time>
<speed>1.520000</speed>
<extensions>
<speed>1.5</speed>
<temp>0.00</temp>
<bpm>0</bpm>
<rpm>0.00</rpm>
</extensions>
</trkpt>
<trkpt lat="64.077758789" lon="-19.538290024">
<ele>429.593750</ele>
<time>2012-07-21T19:05:34Z</time>
<speed>0.010000</speed>
<extensions>
<speed>0.0</speed>
<temp>0.00</temp>
<bpm>0</bpm>
<rpm>0.00</rpm>
</extensions>
</trkpt>
<trkpt lat="64.077743530" lon="-19.538286209">
<ele>429.390625</ele>
<time>2012-07-21T19:05:39Z</time>
<speed>1.090000</speed>
<extensions>
<speed>1.1</speed>
<temp>0.00</temp>
<bpm>0</bpm>
<rpm>0.00</rpm>
</extensions>
</trkpt>
<trkpt lat="64.077690125" lon="-19.538270950">
<ele>429.679688</ele>
<time>2012-07-21T19:05:44Z</time>
<speed>1.290000</speed>
<extensions>
<speed>1.3</speed>
<temp>0.00</temp>
<bpm>0</bpm>
<rpm>0.00</rpm>
</extensions>
</trkpt>
<trkpt lat="64.077636719" lon="-19.538244247">
<ele>430.078125</ele>
<time>2012-07-21T19:05:49Z</time>
<speed>1.140000</speed>
<extensions>
<speed>1.1</speed>
<temp>0.00</temp>
<bpm>0</bpm>
<rpm>0.00</rpm>
</extensions>
</trkpt>
<trkpt lat="64.077583313" lon="-19.538236618">
<ele>430.578125</ele>
<time>2012-07-21T19:05:54Z</time>
<speed>1.150000</speed>
<extensions>
<speed>1.1</speed>
<temp>0.00</temp>
<bpm>0</bpm>
<rpm>0.00</rpm>
</extensions>
</trkpt>
<trkpt lat="64.077529907" lon="-19.538198471">
<ele>431.453125</ele>
<time>2012-07-21T19:05:59Z</time>
<speed>1.190000</speed>
<extensions>
<speed>1.2</speed>
<temp>0.00</temp>
<bpm>0</bpm>
<rpm>0.00</rpm>
</extensions>
</trkpt>
<trkpt lat="64.077476501" lon="-19.538217545">
<ele>432.187500</ele>
<time>2012-07-21T19:06:04Z</time>
<speed>0.990000</speed>
<extensions>
<speed>1.0</speed>
<temp>0.00</temp>
<bpm>0</bpm>
<rpm>0.00</rpm>
</extensions>
</trkpt>
<trkpt lat="64.077453613" lon="-19.538209915">
<ele>432.804688</ele>
<time>2012-07-21T19:06:09Z</time>
<speed>0.020000</speed>
<extensions>
<speed>0.0</speed>
<temp>0.00</temp>
<bpm>0</bpm>
<rpm>0.00</rpm>
</extensions>
</trkpt>
<trkpt lat="64.077453613" lon="-19.538209915">
<ele>432.875000</ele>
<time>2012-07-21T19:06:14Z</time>
<speed>0.010000</speed>
<extensions>
<speed>0.0</speed>
<temp>0.00</temp>
<bpm>0</bpm>
<rpm>0.00</rpm>
</extensions>
</trkpt>
<trkpt lat="64.077453613" lon="-19.538208008">
<ele>432.890625</ele>
<time>2012-07-21T19:06:19Z</time>
<speed>0.010000</speed>
<extensions>
<speed>0.0</speed>
<temp>0.00</temp>
<bpm>0</bpm>
<rpm>0.00</rpm>
</extensions>
</trkpt>
<trkpt lat="64.077453613" lon="-19.538209915">
<ele>432.859375</ele>
<time>2012-07-21T19:06:24Z</time>
<extensions>
<speed>0.0</speed>
<temp>0.00</temp>
<bpm>0</bpm>
<rpm>0.00</rpm>
</extensions>
</trkpt>
<trkpt lat="64.077453613" lon="-19.538209915">
<ele>432.835938</ele>
<time>2012-07-21T19:06:29Z</time>
<speed>0.020000</speed>
<extensions>
<speed>0.0</speed>
<temp>0.00</temp>
<bpm>0</bpm>
<rpm>0.00</rpm>
</extensions>
</trkpt>
<trkpt lat="64.077453613" lon="-19.538209915">
<ele>432.843750</ele>
<time>2012-07-21T19:06:34Z</time>
<speed>0.010000</speed>
<extensions>
<speed>0.0</speed>
<temp>0.00</temp>
<bpm>0</bpm>
<rpm>0.00</rpm>
</extensions>
</trkpt>
<trkpt lat="64.077453613" lon="-19.538230896">
<ele>433.171875</ele>
<time>2012-07-21T19:06:39Z</time>
<extensions>
<speed>0.0</speed>
<temp>0.00</temp>
<bpm>0</bpm>
<rpm>0.00</rpm>
</extensions>
</trkpt>
<trkpt lat="64.077453613" lon="-19.538234711">
<ele>433.109375</ele>
<time>2012-07-21T19:06:44Z</time>
<speed>0.010000</speed>
<extensions>
<speed>0.0</speed>
<temp>0.00</temp>
<bpm>0</bpm>
<rpm>0.00</rpm>
</extensions>
</trkpt>
<trkpt lat="64.077438354" lon="-19.538230896">
<ele>433.656250</ele>
<time>2012-07-21T19:06:49Z</time>
<speed>0.790000</speed>
<extensions>
<speed>0.8</speed>
<temp>0.00</temp>
<bpm>0</bpm>
<rpm>0.00</rpm>
</extensions>
</trkpt>
<trkpt lat="64.077400208" lon="-19.538242340">
<ele>433.992188</ele>
<time>2012-07-21T19:06:54Z</time>
<speed>0.760000</speed>
<extensions>
<speed>0.8</speed>
<temp>0.00</temp>
<bpm>0</bpm>
<rpm>0.00</rpm>
</extensions>
</trkpt>
<trkpt lat="64.077354431" lon="-19.538227081">
<ele>434.906250</ele>
<time>2012-07-21T19:06:59Z</time>
<speed>1.090000</speed>
<extensions>
<speed>1.1</speed>
<temp>0.00</temp>
<bpm>0</bpm>
<rpm>0.00</rpm>
</extensions>
</trkpt>
<trkpt lat="64.077308655" lon="-19.538240433">
<ele>435.265625</ele>
<time>2012-07-21T19:07:04Z</time>
<speed>1.100000</speed>
<extensions>
<speed>1.1</speed>
<temp>0.00</temp>
<bpm>0</bpm>
<rpm>0.00</rpm>
</extensions>
</trkpt>
<trkpt lat="64.077262878" lon="-19.538236618">
<ele>436.273438</ele>
<time>2012-07-21T19:07:09Z</time>
<speed>1.020000</speed>
<extensions>
<speed>1.0</speed>
<temp>0.00</temp>
<bpm>0</bpm>
<rpm>0.00</rpm>
</extensions>
</trkpt>
<trkpt lat="64.077217102" lon="-19.538227081">
<ele>437.125000</ele>
<time>2012-07-21T19:07:14Z</time>
<speed>0.990000</speed>
<extensions>
<speed>1.0</speed>
<temp>0.00</temp>
<bpm>0</bpm>
<rpm>0.00</rpm>
</extensions>
</trkpt>
<trkpt lat="64.077178955" lon="-19.538290024">
<ele>437.257813</ele>
<time>2012-07-21T19:07:19Z</time>
<speed>0.810000</speed>
<extensions>
<speed>0.8</speed>
<temp>0.00</temp>
<bpm>0</bpm>
<rpm>0.00</rpm>
</extensions>
</trkpt>
<trkpt lat="64.077140808" lon="-19.538312912">
<ele>437.546875</ele>
<time>2012-07-21T19:07:24Z</time>
<speed>0.470000</speed>
<extensions>
<speed>0.5</speed>
<temp>0.00</temp>
<bpm>0</bpm>
<rpm>0.00</rpm>
</extensions>
</trkpt>
<trkpt lat="64.077095032" lon="-19.538311005">
<ele>438.125000</ele>
<time>2012-07-21T19:07:29Z</time>
<speed>0.830000</speed>
<extensions>
<speed>0.8</speed>
<temp>0.00</temp>
<bpm>0</bpm>
<rpm>0.00</rpm>
</extensions>
</trkpt>
<trkpt lat="64.077041626" lon="-19.538335800">
<ele>438.500000</ele>
<time>2012-07-21T19:07:34Z</time>
<speed>1.240000</speed>
<extensions>
<speed>1.2</speed>
<temp>0.00</temp>
<bpm>0</bpm>
<rpm>0.00</rpm>
</extensions>
</trkpt>
<trkpt lat="64.076995850" lon="-19.538352966">
<ele>439.062500</ele>
<time>2012-07-21T19:07:39Z</time>
<speed>1.170000</speed>
<extensions>
<speed>1.2</speed>
<temp>0.00</temp>
<bpm>0</bpm>
<rpm>0.00</rpm>
</extensions>
</trkpt>
<trkpt lat="64.076934814" lon="-19.538391113">
<ele>439.164063</ele>
<time>2012-07-21T19:07:44Z</time>
<speed>1.250000</speed>
<extensions>
<speed>1.3</speed>
<temp>0.00</temp>
<bpm>0</bpm>
<rpm>0.00</rpm>
</extensions>
</trkpt>
<trkpt lat="64.076896667" lon="-19.538396835">
<ele>439.312500</ele>
<time>2012-07-21T19:07:49Z</time>
<speed>1.360000</speed>
<extensions>
<speed>1.4</speed>
<temp>0.00</temp>
<bpm>0</bpm>
<rpm>0.00</rpm>
</extensions>
</trkpt>
<trkpt lat="64.076843262" lon="-19.538414001">
<ele>439.515625</ele>
<time>2012-07-21T19:07:54Z</time>
<speed>1.110000</speed>
<extensions>
<speed>1.1</speed>
<temp>0.00</temp>
<bpm>0</bpm>
<rpm>0.00</rpm>
</extensions>
</trkpt>
<trkpt lat="64.076782227" lon="-19.538417816">
<ele>439.640625</ele>
<time>2012-07-21T19:07:59Z</time>
<speed>1.350000</speed>
<extensions>
<speed>1.4</speed>
<temp>0.00</temp>
<bpm>0</bpm>
<rpm>0.00</rpm>
</extensions>
</trkpt>
<trkpt lat="64.076705933" lon="-19.538446426">
<ele>439.453125</ele>
<time>2012-07-21T19:08:04Z</time>
<speed>1.200000</speed>
<extensions>
<speed>1.2</speed>
<temp>0.00</temp>
<bpm>0</bpm>
<rpm>0.00</rpm>
</extensions>
</trkpt>
<trkpt lat="64.076660156" lon="-19.538476944">
<ele>439.070313</ele>
<time>2012-07-21T19:08:09Z</time>
<speed>0.020000</speed>
<extensions>
<speed>0.0</speed>
<temp>0.00</temp>
<bpm>0</bpm>
<rpm>0.00</rpm>
</extensions>
</trkpt>
<trkpt lat="64.076660156" lon="-19.538488388">
<ele>438.570313</ele>
<time>2012-07-21T19:08:14Z</time>
<speed>0.790000</speed>
<extensions>
<speed>0.8</speed>
<temp>0.00</temp>
<bpm>0</bpm>
<rpm>0.00</rpm>
</extensions>
</trkpt>
<trkpt lat="64.076599121" lon="-19.538471222">
<ele>438.773438</ele>
<time>2012-07-21T19:08:19Z</time>
<speed>1.480000</speed>
<extensions>
<speed>1.5</speed>
<temp>0.00</temp>
<bpm>0</bpm>
<rpm>0.00</rpm>
</extensions>
</trkpt>
<trkpt lat="64.076530457" lon="-19.538450241">
<ele>439.539063</ele>
<time>2012-07-21T19:08:24Z</time>
<speed>1.110000</speed>
<extensions>
<speed>1.1</speed>
<temp>0.00</temp>
<bpm>0</bpm>
<rpm>0.00</rpm>
</extensions>
</trkpt>
<trkpt lat="64.076477051" lon="-19.538452148">
<ele>439.742188</ele>
<time>2012-07-21T19:08:29Z</time>
<speed>2.210000</speed>
<extensions>
<speed>2.2</speed>
<temp>0.00</temp>
<bpm>0</bpm>
<rpm>0.00</rpm>
</extensions>
</trkpt>
<trkpt lat="64.076370239" lon="-19.538448334">
<ele>440.453125</ele>
<time>2012-07-21T19:08:34Z</time>
<speed>2.040000</speed>
<extensions>
<speed>2.0</speed>
<temp>0.00</temp>
<bpm>0</bpm>
<rpm>0.00</rpm>
</extensions>
</trkpt>
<trkpt lat="64.076278687" lon="-19.538448334">
<ele>440.593750</ele>
<time>2012-07-21T19:08:39Z</time>
<speed>1.880000</speed>
<extensions>
<speed>1.9</speed>
<temp>0.00</temp>
<bpm>0</bpm>
<rpm>0.00</rpm>
</extensions>
</trkpt>
<trkpt lat="64.076194763" lon="-19.538444519">
<ele>440.625000</ele>
<time>2012-07-21T19:08:44Z</time>
<speed>1.950000</speed>
<extensions>
<speed>1.9</speed>
<temp>0.00</temp>
<bpm>0</bpm>
<rpm>0.00</rpm>
</extensions>
</trkpt>
<trkpt lat="64.076103210" lon="-19.538436890">
<ele>440.984375</ele>
<time>2012-07-21T19:08:49Z</time>
<speed>2.030000</speed>
<extensions>
<speed>2.0</speed>
<temp>0.00</temp>
<bpm>0</bpm>
<rpm>0.00</rpm>
</extensions>
</trkpt>
<trkpt lat="64.076011658" lon="-19.538442612">
<ele>441.585938</ele>
<time>2012-07-21T19:08:54Z</time>
<speed>1.790000</speed>
<extensions>
<speed>1.8</speed>
<temp>0.00</temp>
<bpm>0</bpm>
<rpm>0.00</rpm>
</extensions>
</trkpt>
<trkpt lat="64.075920105" lon="-19.538425446">
<ele>441.765625</ele>
<time>2012-07-21T19:08:59Z</time>
<speed>1.830000</speed>
<extensions>
<speed>1.8</speed>
<temp>0.00</temp>
<bpm>0</bpm>
<rpm>0.00</rpm>
</extensions>
</trkpt>
<trkpt lat="64.075828552" lon="-19.538425446">
<ele>441.921875</ele>
<time>2012-07-21T19:09:04Z</time>
<speed>2.090000</speed>
<extensions>
<speed>2.1</speed>
<temp>0.00</temp>
<bpm>0</bpm>
<rpm>0.00</rpm>
</extensions>
</trkpt>
<trkpt lat="64.075737000" lon="-19.538421631">
<ele>442.476563</ele>
<time>2012-07-21T19:09:09Z</time>
<speed>1.920000</speed>
<extensions>
<speed>1.9</speed>
<temp>0.00</temp>
<bpm>0</bpm>
<rpm>0.00</rpm>
</extensions>
</trkpt>
<trkpt lat="64.075653076" lon="-19.538404465">
<ele>442.914063</ele>
<time>2012-07-21T19:09:14Z</time>
<speed>1.740000</speed>
<extensions>
<speed>1.7</speed>
<temp>0.00</temp>
<bpm>0</bpm>
<rpm>0.00</rpm>
</extensions>
</trkpt>
<trkpt lat="64.075584412" lon="-19.538396835">
<ele>443.156250</ele>
<time>2012-07-21T19:09:19Z</time>
<speed>1.460000</speed>
<extensions>
<speed>1.5</speed>
<temp>0.00</temp>
<bpm>0</bpm>
<rpm>0.00</rpm>
</extensions>
</trkpt>
<trkpt lat="64.075515747" lon="-19.538385391">
<ele>443.117188</ele>
<time>2012-07-21T19:09:24Z</time>
<speed>1.760000</speed>
<extensions>
<speed>1.8</speed>
<temp>0.00</temp>
<bpm>0</bpm>
<rpm>0.00</rpm>
</extensions>
</trkpt>
<trkpt lat="64.075439453" lon="-19.538360596">
<ele>443.304688</ele>
<time>2012-07-21T19:09:29Z</time>
<speed>1.620000</speed>
<extensions>
<speed>1.6</speed>
<temp>0.00</temp>
<bpm>0</bpm>
<rpm>0.00</rpm>
</extensions>
</trkpt>
<trkpt lat="64.075370789" lon="-19.538349152">
<ele>443.484375</ele>
<time>2012-07-21T19:09:34Z</time>
<speed>1.500000</speed>
<extensions>
<speed>1.5</speed>
<temp>0.00</temp>
<bpm>0</bpm>
<rpm>0.00</rpm>
</extensions>
</trkpt>
<trkpt lat="64.075279236" lon="-19.538341522">
<ele>443.664063</ele>
<time>2012-07-21T19:09:39Z</time>
<speed>2.180000</speed>
<extensions>
<speed>2.2</speed>
<temp>0.00</temp>
<bpm>0</bpm>
<rpm>0.00</rpm>
</extensions>
</trkpt>
<trkpt lat="64.075180054" lon="-19.538349152">
<ele>444.593750</ele>
<time>2012-07-21T19:09:44Z</time>
<speed>2.390000</speed>
<extensions>
<speed>2.4</speed>
<temp>0.00</temp>
<bpm>0</bpm>
<rpm>0.00</rpm>
</extensions>
</trkpt>
<trkpt lat="64.075065613" lon="-19.538360596">
<ele>445.218750</ele>
<time>2012-07-21T19:09:49Z</time>
<speed>2.510000</speed>
<extensions>
<speed>2.5</speed>
<temp>0.00</temp>
<bpm>0</bpm>
<rpm>0.00</rpm>
</extensions>
</trkpt>
<trkpt lat="64.074958801" lon="-19.538333893">
<ele>444.906250</ele>
<time>2012-07-21T19:09:54Z</time>
<speed>2.250000</speed>
<extensions>
<speed>2.3</speed>
<temp>0.00</temp>
<bpm>0</bpm>
<rpm>0.00</rpm>
</extensions>
</trkpt>
<trkpt lat="64.074851990" lon="-19.538331985">
<ele>444.015625</ele>
<time>2012-07-21T19:09:59Z</time>
<speed>2.380000</speed>
<extensions>
<speed>2.4</speed>
<temp>0.00</temp>
<bpm>0</bpm>
<rpm>0.00</rpm>
</extensions>
</trkpt>
<trkpt lat="64.074752808" lon="-19.538278580">
<ele>443.398438</ele>
<time>2012-07-21T19:10:04Z</time>
<speed>2.430000</speed>
<extensions>
<speed>2.4</speed>
<temp>0.00</temp>
<bpm>0</bpm>
<rpm>0.00</rpm>
</extensions>
</trkpt>
<trkpt lat="64.074645996" lon="-19.538185120">
<ele>442.906250</ele>
<time>2012-07-21T19:10:09Z</time>
<speed>2.220000</speed>
<extensions>
<speed>2.2</speed>
<temp>0.00</temp>
<bpm>0</bpm>
<rpm>0.00</rpm>
</extensions>
</trkpt>
<trkpt lat="64.074569702" lon="-19.538057327">
<ele>443.148438</ele>
<time>2012-07-21T19:10:14Z</time>
<speed>2.290000</speed>
<extensions>
<speed>2.3</speed>
<temp>0.00</temp>
<bpm>0</bpm>
<rpm>0.00</rpm>
</extensions>
</trkpt>
<trkpt lat="64.074501038" lon="-19.537914276">
<ele>443.335938</ele>
<time>2012-07-21T19:10:19Z</time>
<speed>2.330000</speed>
<extensions>
<speed>2.3</speed>
<temp>0.00</temp>
<bpm>0</bpm>
<rpm>0.00</rpm>
</extensions>
</trkpt>
<trkpt lat="64.074440002" lon="-19.537769318">
<ele>443.546875</ele>
<time>2012-07-21T19:10:24Z</time>
<speed>1.390000</speed>
<extensions>
<speed>1.4</speed>
<temp>0.00</temp>
<bpm>0</bpm>
<rpm>0.00</rpm>
</extensions>
</trkpt>
<trkpt lat="64.074401855" lon="-19.537649155">
<ele>444.117188</ele>
<time>2012-07-21T19:10:29Z</time>
<speed>1.650000</speed>
<extensions>
<speed>1.7</speed>
<temp>0.00</temp>
<bpm>0</bpm>
<rpm>0.00</rpm>
</extensions>
</trkpt>
<trkpt lat="64.074363708" lon="-19.537496567">
<ele>444.242188</ele>
<time>2012-07-21T19:10:34Z</time>
<speed>1.920000</speed>
<extensions>
<speed>1.9</speed>
<temp>0.00</temp>
<bpm>0</bpm>
<rpm>0.00</rpm>
</extensions>
</trkpt>
<trkpt lat="64.074317932" lon="-19.537309647">
<ele>444.203125</ele>
<time>2012-07-21T19:10:39Z</time>
<speed>1.940000</speed>
<extensions>
<speed>1.9</speed>
<temp>0.00</temp>
<bpm>0</bpm>
<rpm>0.00</rpm>
</extensions>
</trkpt>
<trkpt lat="64.074279785" lon="-19.537134171">
<ele>444.140625</ele>
<time>2012-07-21T19:10:44Z</time>
<speed>1.780000</speed>
<extensions>
<speed>1.8</speed>
<temp>0.00</temp>
<bpm>0</bpm>
<rpm>0.00</rpm>
</extensions>
</trkpt>
<trkpt lat="64.074256897" lon="-19.536972046">
<ele>444.429688</ele>
<time>2012-07-21T19:10:49Z</time>
<speed>1.420000</speed>
<extensions>
<speed>1.4</speed>
<temp>0.00</temp>
<bpm>0</bpm>
<rpm>0.00</rpm>
</extensions>
</trkpt>
<trkpt lat="64.074241638" lon="-19.536825180">
<ele>444.820313</ele>
<time>2012-07-21T19:10:54Z</time>
<speed>1.710000</speed>
<extensions>
<speed>1.7</speed>
<temp>0.00</temp>
<bpm>0</bpm>
<rpm>0.00</rpm>
</extensions>
</trkpt>
<trkpt lat="64.074234009" lon="-19.536735535">
<ele>445.304688</ele>
<time>2012-07-21T19:10:59Z</time>
<speed>0.210000</speed>
<extensions>
<speed>0.2</speed>
<temp>0.00</temp>
<bpm>0</bpm>
<rpm>0.00</rpm>
</extensions>
</trkpt>
<trkpt lat="64.074234009" lon="-19.536745071">
<ele>445.093750</ele>
<time>2012-07-21T19:11:04Z</time>
<speed>0.560000</speed>
<extensions>
<speed>0.6</speed>
<temp>0.00</temp>
<bpm>0</bpm>
<rpm>0.00</rpm>
</extensions>
</trkpt>
<trkpt lat="64.074218750" lon="-19.536672592">
<ele>445.632813</ele>
<time>2012-07-21T19:11:09Z</time>
<speed>0.080000</speed>
<extensions>
<speed>0.1</speed>
<temp>0.00</temp>
<bpm>0</bpm>
<rpm>0.00</rpm>
</extensions>
</trkpt>
<trkpt lat="64.074195862" lon="-19.536590576">
<ele>445.656250</ele>
<time>2012-07-21T19:11:14Z</time>
<speed>1.350000</speed>
<extensions>
<speed>1.4</speed>
<temp>0.00</temp>
<bpm>0</bpm>
<rpm>0.00</rpm>
</extensions>
</trkpt>
<trkpt lat="64.074180603" lon="-19.536472321">
<ele>446.093750</ele>
<time>2012-07-21T19:11:19Z</time>
<speed>1.230000</speed>
<extensions>
<speed>1.2</speed>
<temp>0.00</temp>
<bpm>0</bpm>
<rpm>0.00</rpm>
</extensions>
</trkpt>
<trkpt lat="64.074157715" lon="-19.536350250">
<ele>446.265625</ele>
<time>2012-07-21T19:11:24Z</time>
<speed>1.310000</speed>
<extensions>
<speed>1.3</speed>
<temp>0.00</temp>
<bpm>0</bpm>
<rpm>0.00</rpm>
</extensions>
</trkpt>
<trkpt lat="64.074150085" lon="-19.536293030">
<ele>446.546875</ele>
<time>2012-07-21T19:11:29Z</time>
<speed>0.080000</speed>
<extensions>
<speed>0.1</speed>
<temp>0.00</temp>
<bpm>0</bpm>
<rpm>0.00</rpm>
</extensions>
</trkpt>
<trkpt lat="64.074134827" lon="-19.536260605">
<ele>446.414063</ele>
<time>2012-07-21T19:11:34Z</time>
<speed>1.030000</speed>
<extensions>
<speed>1.0</speed>
<temp>0.00</temp>
<bpm>0</bpm>
<rpm>0.00</rpm>
</extensions>
</trkpt>
<trkpt lat="64.074119568" lon="-19.536151886">
<ele>446.398438</ele>
<time>2012-07-21T19:11:39Z</time>
<speed>1.330000</speed>
<extensions>
<speed>1.3</speed>
<temp>0.00</temp>
<bpm>0</bpm>
<rpm>0.00</rpm>
</extensions>
</trkpt>
<trkpt lat="64.074089050" lon="-19.536031723">
<ele>447.007813</ele>
<time>2012-07-21T19:11:44Z</time>
<speed>1.190000</speed>
<extensions>
<speed>1.2</speed>
<temp>0.00</temp>
<bpm>0</bpm>
<rpm>0.00</rpm>
</extensions>
</trkpt>
<trkpt lat="64.074081421" lon="-19.535894394">
<ele>447.148438</ele>
<time>2012-07-21T19:11:49Z</time>
<speed>1.120000</speed>
<extensions>
<speed>1.1</speed>
<temp>0.00</temp>
<bpm>0</bpm>
<rpm>0.00</rpm>
</extensions>
</trkpt>
<trkpt lat="64.074066162" lon="-19.535795212">
<ele>447.046875</ele>
<time>2012-07-21T19:11:54Z</time>
<speed>0.960000</speed>
<extensions>
<speed>1.0</speed>
<temp>0.00</temp>
<bpm>0</bpm>
<rpm>0.00</rpm>
</extensions>
</trkpt>
<trkpt lat="64.074058533" lon="-19.535703659">
<ele>447.382813</ele>
<time>2012-07-21T19:11:59Z</time>
<speed>1.090000</speed>
<extensions>
<speed>1.1</speed>
<temp>0.00</temp>
<bpm>0</bpm>
<rpm>0.00</rpm>
</extensions>
</trkpt>
<trkpt lat="64.074043274" lon="-19.535562515">
<ele>447.257813</ele>
<time>2012-07-21T19:12:04Z</time>
<speed>1.190000</speed>
<extensions>
<speed>1.2</speed>
<temp>0.00</temp>
<bpm>0</bpm>
<rpm>0.00</rpm>
</extensions>
</trkpt>
<trkpt lat="64.074028015" lon="-19.535478592">
<ele>447.664063</ele>
<time>2012-07-21T19:12:09Z</time>
<speed>1.170000</speed>
<extensions>
<speed>1.2</speed>
<temp>0.00</temp>
<bpm>0</bpm>
<rpm>0.00</rpm>
</extensions>
</trkpt>
<trkpt lat="64.074012756" lon="-19.535362244">
<ele>447.585938</ele>
<time>2012-07-21T19:12:14Z</time>
<speed>1.000000</speed>
<extensions>
<speed>1.0</speed>
<temp>0.00</temp>
<bpm>0</bpm>
<rpm>0.00</rpm>
</extensions>
</trkpt>
<trkpt lat="64.074005127" lon="-19.535259247">
<ele>448.062500</ele>
<time>2012-07-21T19:12:19Z</time>
<speed>1.100000</speed>
<extensions>
<speed>1.1</speed>
<temp>0.00</temp>
<bpm>0</bpm>
<rpm>0.00</rpm>
</extensions>
</trkpt>
<trkpt lat="64.073982239" lon="-19.535129547">
<ele>448.414063</ele>
<time>2012-07-21T19:12:24Z</time>
<speed>1.170000</speed>
<extensions>
<speed>1.2</speed>
<temp>0.00</temp>
<bpm>0</bpm>
<rpm>0.00</rpm>
</extensions>
</trkpt>
<trkpt lat="64.073974609" lon="-19.535011292">
<ele>448.914063</ele>
<time>2012-07-21T19:12:29Z</time>
<speed>1.190000</speed>
<extensions>
<speed>1.2</speed>
<temp>0.00</temp>
<bpm>0</bpm>
<rpm>0.00</rpm>
</extensions>
</trkpt>
<trkpt lat="64.073959351" lon="-19.534877777">
<ele>449.265625</ele>
<time>2012-07-21T19:12:34Z</time>
<speed>1.160000</speed>
<extensions>
<speed>1.2</speed>
<temp>0.00</temp>
<bpm>0</bpm>
<rpm>0.00</rpm>
</extensions>
</trkpt>
<trkpt lat="64.073951721" lon="-19.534751892">
<ele>449.148438</ele>
<time>2012-07-21T19:12:39Z</time>
<speed>1.100000</speed>
<extensions>
<speed>1.1</speed>
<temp>0.00</temp>
<bpm>0</bpm>
<rpm>0.00</rpm>
</extensions>
</trkpt>
<trkpt lat="64.073936462" lon="-19.534626007">
<ele>449.296875</ele>
<time>2012-07-21T19:12:44Z</time>
<speed>1.220000</speed>
<extensions>
<speed>1.2</speed>
<temp>0.00</temp>
<bpm>0</bpm>
<rpm>0.00</rpm>
</extensions>
</trkpt>
<trkpt lat="64.073921204" lon="-19.534490585">
<ele>449.179688</ele>
<time>2012-07-21T19:12:49Z</time>
<speed>1.330000</speed>
<extensions>
<speed>1.3</speed>
<temp>0.00</temp>
<bpm>0</bpm>
<rpm>0.00</rpm>
</extensions>
</trkpt>
<trkpt lat="64.073905945" lon="-19.534351349">
<ele>449.570313</ele>
<time>2012-07-21T19:12:54Z</time>
<speed>1.290000</speed>
<extensions>
<speed>1.3</speed>
<temp>0.00</temp>
<bpm>0</bpm>
<rpm>0.00</rpm>
</extensions>
</trkpt>
<trkpt lat="64.073898315" lon="-19.534219742">
<ele>449.750000</ele>
<time>2012-07-21T19:12:59Z</time>
<speed>1.220000</speed>
<extensions>
<speed>1.2</speed>
<temp>0.00</temp>
<bpm>0</bpm>
<rpm>0.00</rpm>
</extensions>
</trkpt>
<trkpt lat="64.073883057" lon="-19.534091949">
<ele>450.226563</ele>
<time>2012-07-21T19:13:04Z</time>
<speed>1.170000</speed>
<extensions>
<speed>1.2</speed>
<temp>0.00</temp>
<bpm>0</bpm>
<rpm>0.00</rpm>
</extensions>
</trkpt>
<trkpt lat="64.073883057" lon="-19.533988953">
<ele>450.695313</ele>
<time>2012-07-21T19:13:09Z</time>
<speed>1.200000</speed>
<extensions>
<speed>1.2</speed>
<temp>0.00</temp>
<bpm>0</bpm>
<rpm>0.00</rpm>
</extensions>
</trkpt>
<trkpt lat="64.073883057" lon="-19.533872604">
<ele>451.164063</ele>
<time>2012-07-21T19:13:14Z</time>
<speed>1.190000</speed>
<extensions>
<speed>1.2</speed>
<temp>0.00</temp>
<bpm>0</bpm>
<rpm>0.00</rpm>
</extensions>
</trkpt>
<trkpt lat="64.073875427" lon="-19.533838272">
<ele>451.296875</ele>
<time>2012-07-21T19:13:19Z</time>
<extensions>
<speed>0.0</speed>
<temp>0.00</temp>
<bpm>0</bpm>
<rpm>0.00</rpm>
</extensions>
</trkpt>
<trkpt lat="64.073875427" lon="-19.533838272">
<ele>451.210938</ele>
<time>2012-07-21T19:13:24Z</time>
<speed>0.030000</speed>
<extensions>
<speed>0.0</speed>
<temp>0.00</temp>
<bpm>0</bpm>
<rpm>0.00</rpm>
</extensions>
</trkpt>
<trkpt lat="64.073875427" lon="-19.533805847">
<ele>451.398438</ele>
<time>2012-07-21T19:13:29Z</time>
<speed>0.850000</speed>
<extensions>
<speed>0.8</speed>
<temp>0.00</temp>
<bpm>0</bpm>
<rpm>0.00</rpm>
</extensions>
</trkpt>
<trkpt lat="64.073867798" lon="-19.533699036">
<ele>451.609375</ele>
<time>2012-07-21T19:13:34Z</time>
<speed>1.200000</speed>
<extensions>
<speed>1.2</speed>
<temp>0.00</temp>
<bpm>0</bpm>
<rpm>0.00</rpm>
</extensions>
</trkpt>
<trkpt lat="64.073867798" lon="-19.533582687">
<ele>452.296875</ele>
<time>2012-07-21T19:13:39Z</time>
<speed>1.240000</speed>
<extensions>
<speed>1.2</speed>
<temp>0.00</temp>
<bpm>0</bpm>
<rpm>0.00</rpm>
</extensions>
</trkpt>
<trkpt lat="64.073860168" lon="-19.533451080">
<ele>452.421875</ele>
<time>2012-07-21T19:13:44Z</time>
<speed>1.270000</speed>
<extensions>
<speed>1.3</speed>
<temp>0.00</temp>
<bpm>0</bpm>
<rpm>0.00</rpm>
</extensions>
</trkpt>
<trkpt lat="64.073860168" lon="-19.533323288">
<ele>452.585938</ele>
<time>2012-07-21T19:13:49Z</time>
<speed>1.290000</speed>
<extensions>
<speed>1.3</speed>
<temp>0.00</temp>
<bpm>0</bpm>
<rpm>0.00</rpm>
</extensions>
</trkpt>
<trkpt lat="64.073852539" lon="-19.533187866">
<ele>452.523438</ele>
<time>2012-07-21T19:13:54Z</time>
<speed>1.380000</speed>
<extensions>
<speed>1.4</speed>
<temp>0.00</temp>
<bpm>0</bpm>
<rpm>0.00</rpm>
</extensions>
</trkpt>
<trkpt lat="64.073844910" lon="-19.533071518">
<ele>452.710938</ele>
<time>2012-07-21T19:13:59Z</time>
<speed>1.330000</speed>
<extensions>
<speed>1.3</speed>
<temp>0.00</temp>
<bpm>0</bpm>
<rpm>0.00</rpm>
</extensions>
</trkpt>
<trkpt lat="64.073837280" lon="-19.532928467">
<ele>452.843750</ele>
<time>2012-07-21T19:14:04Z</time>
<speed>1.300000</speed>
<extensions>
<speed>1.3</speed>
<temp>0.00</temp>
<bpm>0</bpm>
<rpm>0.00</rpm>
</extensions>
</trkpt>
<trkpt lat="64.073844910" lon="-19.532794952">
<ele>452.632813</ele>
<time>2012-07-21T19:14:09Z</time>
<speed>1.260000</speed>
<extensions>
<speed>1.3</speed>
<temp>0.00</temp>
<bpm>0</bpm>
<rpm>0.00</rpm>
</extensions>
</trkpt>
<trkpt lat="64.073837280" lon="-19.532659531">
<ele>452.773438</ele>
<time>2012-07-21T19:14:14Z</time>
<speed>1.420000</speed>
<extensions>
<speed>1.4</speed>
<temp>0.00</temp>
<bpm>0</bpm>
<rpm>0.00</rpm>
</extensions>
</trkpt>
<trkpt lat="64.073837280" lon="-19.532522202">
<ele>452.726563</ele>
<time>2012-07-21T19:14:19Z</time>
<speed>1.410000</speed>
<extensions>
<speed>1.4</speed>
<temp>0.00</temp>
<bpm>0</bpm>
<rpm>0.00</rpm>
</extensions>
</trkpt>
<trkpt lat="64.073822021" lon="-19.532377243">
<ele>452.976563</ele>
<time>2012-07-21T19:14:24Z</time>
<speed>1.290000</speed>
<extensions>
<speed>1.3</speed>
<temp>0.00</temp>
<bpm>0</bpm>
<rpm>0.00</rpm>
</extensions>
</trkpt>
<trkpt lat="64.073822021" lon="-19.532234192">
<ele>453.492188</ele>
<time>2012-07-21T19:14:29Z</time>
<speed>1.320000</speed>
<extensions>
<speed>1.3</speed>
<temp>0.00</temp>
<bpm>0</bpm>
<rpm>0.00</rpm>
</extensions>
</trkpt>
<trkpt lat="64.073814392" lon="-19.532104492">
<ele>453.718750</ele>
<time>2012-07-21T19:14:34Z</time>
<speed>1.390000</speed>
<extensions>
<speed>1.4</speed>
<temp>0.00</temp>
<bpm>0</bpm>
<rpm>0.00</rpm>
</extensions>
</trkpt>
<trkpt lat="64.073814392" lon="-19.531963348">
<ele>454.117188</ele>
<time>2012-07-21T19:14:39Z</time>
<speed>1.440000</speed>
<extensions>
<speed>1.4</speed>
<temp>0.00</temp>
<bpm>0</bpm>
<rpm>0.00</rpm>
</extensions>
</trkpt>
<trkpt lat="64.073806763" lon="-19.531833649">
<ele>454.179688</ele>
<time>2012-07-21T19:14:44Z</time>
<speed>1.210000</speed>
<extensions>
<speed>1.2</speed>
<temp>0.00</temp>
<bpm>0</bpm>
<rpm>0.00</rpm>
</extensions>
</trkpt>
<trkpt lat="64.073806763" lon="-19.531719208">
<ele>454.390625</ele>
<time>2012-07-21T19:14:49Z</time>
<speed>0.320000</speed>
<extensions>
<speed>0.3</speed>
<temp>0.00</temp>
<bpm>0</bpm>
<rpm>0.00</rpm>
</extensions>
</trkpt>
<trkpt lat="64.073806763" lon="-19.531684875">
<ele>454.390625</ele>
<time>2012-07-21T19:14:54Z</time>
<speed>0.440000</speed>
<extensions>
<speed>0.4</speed>
<temp>0.00</temp>
<bpm>0</bpm>
<rpm>0.00</rpm>
</extensions>
</trkpt>
<trkpt lat="64.073814392" lon="-19.531599045">
<ele>453.953125</ele>
<time>2012-07-21T19:14:59Z</time>
<speed>1.140000</speed>
<extensions>
<speed>1.1</speed>
<temp>0.00</temp>
<bpm>0</bpm>
<rpm>0.00</rpm>
</extensions>
</trkpt>
<trkpt lat="64.073799133" lon="-19.531457901">
<ele>452.804688</ele>
<time>2012-07-21T19:15:04Z</time>
<speed>1.290000</speed>
<extensions>
<speed>1.3</speed>
<temp>0.00</temp>
<bpm>0</bpm>
<rpm>0.00</rpm>
</extensions>
</trkpt>
<trkpt lat="64.073799133" lon="-19.531324387">
<ele>452.289063</ele>
<time>2012-07-21T19:15:09Z</time>
<speed>1.290000</speed>
<extensions>
<speed>1.3</speed>
<temp>0.00</temp>
<bpm>0</bpm>
<rpm>0.00</rpm>
</extensions>
</trkpt>
<trkpt lat="64.073799133" lon="-19.531198502">
<ele>451.953125</ele>
<time>2012-07-21T19:15:14Z</time>
<speed>1.220000</speed>
<extensions>
<speed>1.2</speed>
<temp>0.00</temp>
<bpm>0</bpm>
<rpm>0.00</rpm>
</extensions>
</trkpt>
<trkpt lat="64.073791504" lon="-19.531064987">
<ele>451.710938</ele>
<time>2012-07-21T19:15:19Z</time>
<speed>1.430000</speed>
<extensions>
<speed>1.4</speed>
<temp>0.00</temp>
<bpm>0</bpm>
<rpm>0.00</rpm>
</extensions>
</trkpt>
<trkpt lat="64.073783875" lon="-19.530918121">
<ele>451.164063</ele>
<time>2012-07-21T19:15:24Z</time>
<speed>1.360000</speed>
<extensions>
<speed>1.4</speed>
<temp>0.00</temp>
<bpm>0</bpm>
<rpm>0.00</rpm>
</extensions>
</trkpt>
<trkpt lat="64.073776245" lon="-19.530771255">
<ele>450.812500</ele>
<time>2012-07-21T19:15:29Z</time>
<speed>1.500000</speed>
<extensions>
<speed>1.5</speed>
<temp>0.00</temp>
<bpm>0</bpm>
<rpm>0.00</rpm>
</extensions>
</trkpt>
<trkpt lat="64.073768616" lon="-19.530635834">
<ele>450.859375</ele>
<time>2012-07-21T19:15:34Z</time>
<speed>1.300000</speed>
<extensions>
<speed>1.3</speed>
<temp>0.00</temp>
<bpm>0</bpm>
<rpm>0.00</rpm>
</extensions>
</trkpt>
<trkpt lat="64.073753357" lon="-19.530500412">
<ele>450.812500</ele>
<time>2012-07-21T19:15:39Z</time>
<speed>1.030000</speed>
<extensions>
<speed>1.0</speed>
<temp>0.00</temp>
<bpm>0</bpm>
<rpm>0.00</rpm>
</extensions>
</trkpt>
<trkpt lat="64.073745728" lon="-19.530385971">
<ele>450.882813</ele>
<time>2012-07-21T19:15:44Z</time>
<speed>1.450000</speed>
<extensions>
<speed>1.4</speed>
<temp>0.00</temp>
<bpm>0</bpm>
<rpm>0.00</rpm>
</extensions>
</trkpt>
<trkpt lat="64.073738098" lon="-19.530250549">
<ele>451.039063</ele>
<time>2012-07-21T19:15:49Z</time>
<speed>1.400000</speed>
<extensions>
<speed>1.4</speed>
<temp>0.00</temp>
<bpm>0</bpm>
<rpm>0.00</rpm>
</extensions>
</trkpt>
<trkpt lat="64.073738098" lon="-19.530122757">
<ele>450.906250</ele>
<time>2012-07-21T19:15:54Z</time>
<speed>1.390000</speed>
<extensions>
<speed>1.4</speed>
<temp>0.00</temp>
<bpm>0</bpm>
<rpm>0.00</rpm>
</extensions>
</trkpt>
<trkpt lat="64.073738098" lon="-19.530056000">
<ele>450.812500</ele>
<time>2012-07-21T19:15:59Z</time>
<extensions>
<speed>0.0</speed>
<temp>0.00</temp>
<bpm>0</bpm>
<rpm>0.00</rpm>
</extensions>
</trkpt>
<trkpt lat="64.073738098" lon="-19.530059814">
<ele>450.687500</ele>
<time>2012-07-21T19:16:04Z</time>
<extensions>
<speed>0.0</speed>
<temp>0.00</temp>
<bpm>0</bpm>
<rpm>0.00</rpm>
</extensions>
</trkpt>
<trkpt lat="64.073738098" lon="-19.530059814">
<ele>450.687500</ele>
<time>2012-07-21T19:16:09Z</time>
<extensions>
<speed>0.0</speed>
<temp>0.00</temp>
<bpm>0</bpm>
<rpm>0.00</rpm>
</extensions>
</trkpt>
<trkpt lat="64.073738098" lon="-19.530059814">
<ele>450.664063</ele>
<time>2012-07-21T19:16:14Z</time>
<extensions>
<speed>0.0</speed>
<temp>0.00</temp>
<bpm>0</bpm>
<rpm>0.00</rpm>
</extensions>
</trkpt>
<trkpt lat="64.073738098" lon="-19.530059814">
<ele>450.664063</ele>
<time>2012-07-21T19:16:19Z</time>
<speed>0.010000</speed>
<extensions>
<speed>0.0</speed>
<temp>0.00</temp>
<bpm>0</bpm>
<rpm>0.00</rpm>
</extensions>
</trkpt>
<trkpt lat="64.073738098" lon="-19.530059814">
<ele>450.656250</ele>
<time>2012-07-21T19:16:24Z</time>
<speed>0.020000</speed>
<extensions>
<speed>0.0</speed>
<temp>0.00</temp>
<bpm>0</bpm>
<rpm>0.00</rpm>
</extensions>
</trkpt>
<trkpt lat="64.073738098" lon="-19.530061722">
<ele>450.656250</ele>
<time>2012-07-21T19:16:29Z</time>
<speed>0.070000</speed>
<extensions>
<speed>0.1</speed>
<temp>0.00</temp>
<bpm>0</bpm>
<rpm>0.00</rpm>
</extensions>
</trkpt>
<trkpt lat="64.073730469" lon="-19.529993057">
<ele>450.593750</ele>
<time>2012-07-21T19:16:34Z</time>
<speed>1.140000</speed>
<extensions>
<speed>1.1</speed>
<temp>0.00</temp>
<bpm>0</bpm>
<rpm>0.00</rpm>
</extensions>
</trkpt>
<trkpt lat="64.073722839" lon="-19.529859543">
<ele>450.593750</ele>
<time>2012-07-21T19:16:39Z</time>
<speed>1.190000</speed>
<extensions>
<speed>1.2</speed>
<temp>0.00</temp>
<bpm>0</bpm>
<rpm>0.00</rpm>
</extensions>
</trkpt>
<trkpt lat="64.073715210" lon="-19.529718399">
<ele>450.335938</ele>
<time>2012-07-21T19:16:44Z</time>
<speed>1.350000</speed>
<extensions>
<speed>1.4</speed>
<temp>0.00</temp>
<bpm>0</bpm>
<rpm>0.00</rpm>
</extensions>
</trkpt>
<trkpt lat="64.073699951" lon="-19.529569626">
<ele>450.109375</ele>
<time>2012-07-21T19:16:49Z</time>
<speed>1.540000</speed>
<extensions>
<speed>1.5</speed>
<temp>0.00</temp>
<bpm>0</bpm>
<rpm>0.00</rpm>
</extensions>
</trkpt>
<trkpt lat="64.073699951" lon="-19.529417038">
<ele>449.945313</ele>
<time>2012-07-21T19:16:54Z</time>
<speed>1.490000</speed>
<extensions>
<speed>1.5</speed>
<temp>0.00</temp>
<bpm>0</bpm>
<rpm>0.00</rpm>
</extensions>
</trkpt>
<trkpt lat="64.073684692" lon="-19.529281616">
<ele>449.882813</ele>
<time>2012-07-21T19:16:59Z</time>
<speed>1.400000</speed>
<extensions>
<speed>1.4</speed>
<temp>0.00</temp>
<bpm>0</bpm>
<rpm>0.00</rpm>
</extensions>
</trkpt>
<trkpt lat="64.073669434" lon="-19.529136658">
<ele>449.570313</ele>
<time>2012-07-21T19:17:04Z</time>
<speed>1.360000</speed>
<extensions>
<speed>1.4</speed>
<temp>0.00</temp>
<bpm>0</bpm>
<rpm>0.00</rpm>
</extensions>
</trkpt>
<trkpt lat="64.073669434" lon="-19.528999329">
<ele>449.187500</ele>
<time>2012-07-21T19:17:09Z</time>
<speed>1.310000</speed>
<extensions>
<speed>1.3</speed>
<temp>0.00</temp>
<bpm>0</bpm>
<rpm>0.00</rpm>
</extensions>
</trkpt>
<trkpt lat="64.073661804" lon="-19.528888702">
<ele>449.640625</ele>
<time>2012-07-21T19:17:14Z</time>
<speed>0.760000</speed>
<extensions>
<speed>0.8</speed>
<temp>0.00</temp>
<bpm>0</bpm>
<rpm>0.00</rpm>
</extensions>
</trkpt>
<trkpt lat="64.073661804" lon="-19.528842926">
<ele>449.960938</ele>
<time>2012-07-21T19:17:19Z</time>
<speed>0.920000</speed>
<extensions>
<speed>0.9</speed>
<temp>0.00</temp>
<bpm>0</bpm>
<rpm>0.00</rpm>
</extensions>
</trkpt>
<trkpt lat="64.073646545" lon="-19.528734207">
<ele>450.226563</ele>
<time>2012-07-21T19:17:24Z</time>
<speed>1.140000</speed>
<extensions>
<speed>1.1</speed>
<temp>0.00</temp>
<bpm>0</bpm>
<rpm>0.00</rpm>
</extensions>
</trkpt>
<trkpt lat="64.073638916" lon="-19.528598785">
<ele>450.914063</ele>
<time>2012-07-21T19:17:29Z</time>
<speed>1.350000</speed>
<extensions>
<speed>1.4</speed>
<temp>0.00</temp>
<bpm>0</bpm>
<rpm>0.00</rpm>
</extensions>
</trkpt>
<trkpt lat="64.073638916" lon="-19.528509140">
<ele>452.703125</ele>
<time>2012-07-21T19:17:34Z</time>
<speed>0.110000</speed>
<extensions>
<speed>0.1</speed>
<temp>0.00</temp>
<bpm>0</bpm>
<rpm>0.00</rpm>
</extensions>
</trkpt>
<trkpt lat="64.073638916" lon="-19.528446198">
<ele>451.710938</ele>
<time>2012-07-21T19:17:39Z</time>
<speed>0.350000</speed>
<extensions>
<speed>0.3</speed>
<temp>0.00</temp>
<bpm>0</bpm>
<rpm>0.00</rpm>
</extensions>
</trkpt>
<trkpt lat="64.073646545" lon="-19.528343201">
<ele>452.210938</ele>
<time>2012-07-21T19:17:44Z</time>
<speed>1.750000</speed>
<extensions>
<speed>1.8</speed>
<temp>0.00</temp>
<bpm>0</bpm>
<rpm>0.00</rpm>
</extensions>
</trkpt>
<trkpt lat="64.073646545" lon="-19.528190613">
<ele>452.585938</ele>
<time>2012-07-21T19:17:49Z</time>
<speed>1.320000</speed>
<extensions>
<speed>1.3</speed>
<temp>0.00</temp>
<bpm>0</bpm>
<rpm>0.00</rpm>
</extensions>
</trkpt>
<trkpt lat="64.073661804" lon="-19.528043747">
<ele>453.187500</ele>
<time>2012-07-21T19:17:54Z</time>
<speed>1.490000</speed>
<extensions>
<speed>1.5</speed>
<temp>0.00</temp>
<bpm>0</bpm>
<rpm>0.00</rpm>
</extensions>
</trkpt>
<trkpt lat="64.073654175" lon="-19.527910233">
<ele>453.445313</ele>
<time>2012-07-21T19:17:59Z</time>
<speed>1.230000</speed>
<extensions>
<speed>1.2</speed>
<temp>0.00</temp>
<bpm>0</bpm>
<rpm>0.00</rpm>
</extensions>
</trkpt>
<trkpt lat="64.073654175" lon="-19.527790070">
<ele>453.539063</ele>
<time>2012-07-21T19:18:04Z</time>
<speed>1.390000</speed>
<extensions>
<speed>1.4</speed>
<temp>0.00</temp>
<bpm>0</bpm>
<rpm>0.00</rpm>
</extensions>
</trkpt>
<trkpt lat="64.073646545" lon="-19.527633667">
<ele>453.687500</ele>
<time>2012-07-21T19:18:09Z</time>
<speed>1.530000</speed>
<extensions>
<speed>1.5</speed>
<temp>0.00</temp>
<bpm>0</bpm>
<rpm>0.00</rpm>
</extensions>
</trkpt>
<trkpt lat="64.073646545" lon="-19.527473450">
<ele>454.101563</ele>
<time>2012-07-21T19:18:14Z</time>
<speed>1.650000</speed>
<extensions>
<speed>1.7</speed>
<temp>0.00</temp>
<bpm>0</bpm>
<rpm>0.00</rpm>
</extensions>
</trkpt>
<trkpt lat="64.073654175" lon="-19.527303696">
<ele>454.203125</ele>
<time>2012-07-21T19:18:19Z</time>
<speed>1.380000</speed>
<extensions>
<speed>1.4</speed>
<temp>0.00</temp>
<bpm>0</bpm>
<rpm>0.00</rpm>
</extensions>
</trkpt>
<trkpt lat="64.073646545" lon="-19.527189255">
<ele>454.312500</ele>
<time>2012-07-21T19:18:24Z</time>
<speed>1.280000</speed>
<extensions>
<speed>1.3</speed>
<temp>0.00</temp>
<bpm>0</bpm>
<rpm>0.00</rpm>
</extensions>
</trkpt>
<trkpt lat="64.073646545" lon="-19.527074814">
<ele>454.265625</ele>
<time>2012-07-21T19:18:29Z</time>
<speed>1.310000</speed>
<extensions>
<speed>1.3</speed>
<temp>0.00</temp>
<bpm>0</bpm>
<rpm>0.00</rpm>
</extensions>
</trkpt>
<trkpt lat="64.073638916" lon="-19.526922226">
<ele>454.296875</ele>
<time>2012-07-21T19:18:34Z</time>
<speed>1.650000</speed>
<extensions>
<speed>1.7</speed>
<temp>0.00</temp>
<bpm>0</bpm>
<rpm>0.00</rpm>
</extensions>
</trkpt>
<trkpt lat="64.073638916" lon="-19.526775360">
<ele>454.125000</ele>
<time>2012-07-21T19:18:39Z</time>
<speed>1.240000</speed>
<extensions>
<speed>1.2</speed>
<temp>0.00</temp>
<bpm>0</bpm>
<rpm>0.00</rpm>
</extensions>
</trkpt>
<trkpt lat="64.073654175" lon="-19.526643753">
<ele>454.328125</ele>
<time>2012-07-21T19:18:44Z</time>
<speed>1.260000</speed>
<extensions>
<speed>1.3</speed>
<temp>0.00</temp>
<bpm>0</bpm>
<rpm>0.00</rpm>
</extensions>
</trkpt>
<trkpt lat="64.073669434" lon="-19.526517868">
<ele>454.843750</ele>
<time>2012-07-21T19:18:49Z</time>
<speed>1.540000</speed>
<extensions>
<speed>1.5</speed>
<temp>0.00</temp>
<bpm>0</bpm>
<rpm>0.00</rpm>
</extensions>
</trkpt>
<trkpt lat="64.073669434" lon="-19.526353836">
<ele>455.148438</ele>
<time>2012-07-21T19:18:54Z</time>
<speed>1.930000</speed>
<extensions>
<speed>1.9</speed>
<temp>0.00</temp>
<bpm>0</bpm>
<rpm>0.00</rpm>
</extensions>
</trkpt>
<trkpt lat="64.073669434" lon="-19.526155472">
<ele>455.726563</ele>
<time>2012-07-21T19:18:59Z</time>
<speed>2.050000</speed>
<extensions>
<speed>2.1</speed>
<temp>0.00</temp>
<bpm>0</bpm>
<rpm>0.00</rpm>
</extensions>
</trkpt>
<trkpt lat="64.073669434" lon="-19.525951385">
<ele>456.000000</ele>
<time>2012-07-21T19:19:04Z</time>
<speed>1.950000</speed>
<extensions>
<speed>1.9</speed>
<temp>0.00</temp>
<bpm>0</bpm>
<rpm>0.00</rpm>
</extensions>
</trkpt>
<trkpt lat="64.073669434" lon="-19.525779724">
<ele>456.156250</ele>
<time>2012-07-21T19:19:09Z</time>
<speed>1.330000</speed>
<extensions>
<speed>1.3</speed>
<temp>0.00</temp>
<bpm>0</bpm>
<rpm>0.00</rpm>
</extensions>
</trkpt>
<trkpt lat="64.073669434" lon="-19.525615692">
<ele>456.343750</ele>
<time>2012-07-21T19:19:14Z</time>
<speed>1.120000</speed>
<extensions>
<speed>1.1</speed>
<temp>0.00</temp>
<bpm>0</bpm>
<rpm>0.00</rpm>
</extensions>
</trkpt>
<trkpt lat="64.073669434" lon="-19.525455475">
<ele>456.906250</ele>
<time>2012-07-21T19:19:19Z</time>
<speed>1.740000</speed>
<extensions>
<speed>1.7</speed>
<temp>0.00</temp>
<bpm>0</bpm>
<rpm>0.00</rpm>
</extensions>
</trkpt>
<trkpt lat="64.073661804" lon="-19.525283813">
<ele>457.062500</ele>
<time>2012-07-21T19:19:24Z</time>
<speed>1.700000</speed>
<extensions>
<speed>1.7</speed>
<temp>0.00</temp>
<bpm>0</bpm>
<rpm>0.00</rpm>
</extensions>
</trkpt>
<trkpt lat="64.073654175" lon="-19.525102615">
<ele>457.171875</ele>
<time>2012-07-21T19:19:29Z</time>
<speed>1.320000</speed>
<extensions>
<speed>1.3</speed>
<temp>0.00</temp>
<bpm>0</bpm>
<rpm>0.00</rpm>
</extensions>
</trkpt>
<trkpt lat="64.073654175" lon="-19.524932861">
<ele>457.515625</ele>
<time>2012-07-21T19:19:34Z</time>
<speed>2.020000</speed>
<extensions>
<speed>2.0</speed>
<temp>0.00</temp>
<bpm>0</bpm>
<rpm>0.00</rpm>
</extensions>
</trkpt>
<trkpt lat="64.073654175" lon="-19.524728775">
<ele>457.679688</ele>
<time>2012-07-21T19:19:39Z</time>
<speed>2.190000</speed>
<extensions>
<speed>2.2</speed>
<temp>0.00</temp>
<bpm>0</bpm>
<rpm>0.00</rpm>
</extensions>
</trkpt>
<trkpt lat="64.073646545" lon="-19.524499893">
<ele>457.734375</ele>
<time>2012-07-21T19:19:44Z</time>
<speed>2.090000</speed>
<extensions>
<speed>2.1</speed>
<temp>0.00</temp>
<bpm>0</bpm>
<rpm>0.00</rpm>
</extensions>
</trkpt>
<trkpt lat="64.073654175" lon="-19.524326324">
<ele>457.835938</ele>
<time>2012-07-21T19:19:49Z</time>
<speed>0.920000</speed>
<extensions>
<speed>0.9</speed>
<temp>0.00</temp>
<bpm>0</bpm>
<rpm>0.00</rpm>
</extensions>
</trkpt>
<trkpt lat="64.073616028" lon="-19.524177551">
<ele>458.132813</ele>
<time>2012-07-21T19:19:54Z</time>
<speed>1.910000</speed>
<extensions>
<speed>1.9</speed>
<temp>0.00</temp>
<bpm>0</bpm>
<rpm>0.00</rpm>
</extensions>
</trkpt>
<trkpt lat="64.073608398" lon="-19.523981094">
<ele>458.039063</ele>
<time>2012-07-21T19:19:59Z</time>
<speed>2.050000</speed>
<extensions>
<speed>2.1</speed>
<temp>0.00</temp>
<bpm>0</bpm>
<rpm>0.00</rpm>
</extensions>
</trkpt>
<trkpt lat="64.073608398" lon="-19.523784637">
<ele>457.507813</ele>
<time>2012-07-21T19:20:04Z</time>
<speed>1.760000</speed>
<extensions>
<speed>1.8</speed>
<temp>0.00</temp>
<bpm>0</bpm>
<rpm>0.00</rpm>
</extensions>
</trkpt>
<trkpt lat="64.073608398" lon="-19.523595810">
<ele>457.031250</ele>
<time>2012-07-21T19:20:09Z</time>
<speed>1.760000</speed>
<extensions>
<speed>1.8</speed>
<temp>0.00</temp>
<bpm>0</bpm>
<rpm>0.00</rpm>
</extensions>
</trkpt>
<trkpt lat="64.073600769" lon="-19.523420334">
<ele>456.054688</ele>
<time>2012-07-21T19:20:14Z</time>
<speed>1.500000</speed>
<extensions>
<speed>1.5</speed>
<temp>0.00</temp>
<bpm>0</bpm>
<rpm>0.00</rpm>
</extensions>
</trkpt>
<trkpt lat="64.073600769" lon="-19.523262024">
<ele>456.132813</ele>
<time>2012-07-21T19:20:19Z</time>
<speed>1.710000</speed>
<extensions>
<speed>1.7</speed>
<temp>0.00</temp>
<bpm>0</bpm>
<rpm>0.00</rpm>
</extensions>
</trkpt>
<trkpt lat="64.073600769" lon="-19.523088455">
<ele>456.515625</ele>
<time>2012-07-21T19:20:24Z</time>
<speed>1.930000</speed>
<extensions>
<speed>1.9</speed>
<temp>0.00</temp>
<bpm>0</bpm>
<rpm>0.00</rpm>
</extensions>
</trkpt>
<trkpt lat="64.073593140" lon="-19.522912979">
<ele>456.835938</ele>
<time>2012-07-21T19:20:29Z</time>
<speed>1.820000</speed>
<extensions>
<speed>1.8</speed>
<temp>0.00</temp>
<bpm>0</bpm>
<rpm>0.00</rpm>
</extensions>
</trkpt>
<trkpt lat="64.073593140" lon="-19.522718430">
<ele>456.523438</ele>
<time>2012-07-21T19:20:34Z</time>
<speed>1.960000</speed>
<extensions>
<speed>2.0</speed>
<temp>0.00</temp>
<bpm>0</bpm>
<rpm>0.00</rpm>
</extensions>
</trkpt>
<trkpt lat="64.073585510" lon="-19.522512436">
<ele>456.367188</ele>
<time>2012-07-21T19:20:39Z</time>
<speed>2.060000</speed>
<extensions>
<speed>2.1</speed>
<temp>0.00</temp>
<bpm>0</bpm>
<rpm>0.00</rpm>
</extensions>
</trkpt>
<trkpt lat="64.073593140" lon="-19.522356033">
<ele>456.882813</ele>
<time>2012-07-21T19:20:44Z</time>
<speed>1.830000</speed>
<extensions>
<speed>1.8</speed>
<temp>0.00</temp>
<bpm>0</bpm>
<rpm>0.00</rpm>
</extensions>
</trkpt>
<trkpt lat="64.073585510" lon="-19.522136688">
<ele>456.835938</ele>
<time>2012-07-21T19:20:49Z</time>
<speed>2.160000</speed>
<extensions>
<speed>2.2</speed>
<temp>0.00</temp>
<bpm>0</bpm>
<rpm>0.00</rpm>
</extensions>
</trkpt>
<trkpt lat="64.073577881" lon="-19.521890640">
<ele>456.585938</ele>
<time>2012-07-21T19:20:54Z</time>
<speed>2.350000</speed>
<extensions>
<speed>2.4</speed>
<temp>0.00</temp>
<bpm>0</bpm>
<rpm>0.00</rpm>
</extensions>
</trkpt>
<trkpt lat="64.073577881" lon="-19.521656036">
<ele>456.734375</ele>
<time>2012-07-21T19:20:59Z</time>
<speed>2.130000</speed>
<extensions>
<speed>2.1</speed>
<temp>0.00</temp>
<bpm>0</bpm>
<rpm>0.00</rpm>
</extensions>
</trkpt>
<trkpt lat="64.073570251" lon="-19.521432877">
<ele>456.921875</ele>
<time>2012-07-21T19:21:04Z</time>
<speed>2.320000</speed>
<extensions>
<speed>2.3</speed>
<temp>0.00</temp>
<bpm>0</bpm>
<rpm>0.00</rpm>
</extensions>
</trkpt>
<trkpt lat="64.073554993" lon="-19.521196365">
<ele>456.578125</ele>
<time>2012-07-21T19:21:09Z</time>
<speed>2.290000</speed>
<extensions>
<speed>2.3</speed>
<temp>0.00</temp>
<bpm>0</bpm>
<rpm>0.00</rpm>
</extensions>
</trkpt>
<trkpt lat="64.073547363" lon="-19.520973206">
<ele>456.523438</ele>
<time>2012-07-21T19:21:14Z</time>
<speed>1.710000</speed>
<extensions>
<speed>1.7</speed>
<temp>0.00</temp>
<bpm>0</bpm>
<rpm>0.00</rpm>
</extensions>
</trkpt>
<trkpt lat="64.073547363" lon="-19.520792007">
<ele>456.953125</ele>
<time>2012-07-21T19:21:19Z</time>
<speed>1.650000</speed>
<extensions>
<speed>1.7</speed>
<temp>0.00</temp>
<bpm>0</bpm>
<rpm>0.00</rpm>
</extensions>
</trkpt>
<trkpt lat="64.073539734" lon="-19.520664215">
<ele>457.171875</ele>
<time>2012-07-21T19:21:24Z</time>
<speed>1.470000</speed>
<extensions>
<speed>1.5</speed>
<temp>0.00</temp>
<bpm>0</bpm>
<rpm>0.00</rpm>
</extensions>
</trkpt>
<trkpt lat="64.073539734" lon="-19.520502090">
<ele>456.859375</ele>
<time>2012-07-21T19:21:29Z</time>
<speed>1.450000</speed>
<extensions>
<speed>1.4</speed>
<temp>0.00</temp>
<bpm>0</bpm>
<rpm>0.00</rpm>
</extensions>
</trkpt>
<trkpt lat="64.073524475" lon="-19.520347595">
<ele>457.070313</ele>
<time>2012-07-21T19:21:34Z</time>
<speed>1.580000</speed>
<extensions>
<speed>1.6</speed>
<temp>0.00</temp>
<bpm>0</bpm>
<rpm>0.00</rpm>
</extensions>
</trkpt>
<trkpt lat="64.073524475" lon="-19.520196915">
<ele>457.031250</ele>
<time>2012-07-21T19:21:39Z</time>
<speed>1.400000</speed>
<extensions>
<speed>1.4</speed>
<temp>0.00</temp>
<bpm>0</bpm>
<rpm>0.00</rpm>
</extensions>
</trkpt>
<trkpt lat="64.073524475" lon="-19.520072937">
<ele>457.265625</ele>
<time>2012-07-21T19:21:44Z</time>
<speed>0.960000</speed>
<extensions>
<speed>1.0</speed>
<temp>0.00</temp>
<bpm>0</bpm>
<rpm>0.00</rpm>
</extensions>
</trkpt>
<trkpt lat="64.073532104" lon="-19.520092010">
<ele>457.984375</ele>
<time>2012-07-21T19:21:49Z</time>
<speed>0.560000</speed>
<extensions>
<speed>0.6</speed>
<temp>0.00</temp>
<bpm>0</bpm>
<rpm>0.00</rpm>
</extensions>
</trkpt>
<trkpt lat="64.073509216" lon="-19.519992828">
<ele>459.007813</ele>
<time>2012-07-21T19:21:54Z</time>
<speed>1.110000</speed>
<extensions>
<speed>1.1</speed>
<temp>0.00</temp>
<bpm>0</bpm>
<rpm>0.00</rpm>
</extensions>
</trkpt>
<trkpt lat="64.073493958" lon="-19.519868851">
<ele>459.382813</ele>
<time>2012-07-21T19:21:59Z</time>
<speed>1.000000</speed>
<extensions>
<speed>1.0</speed>
<temp>0.00</temp>
<bpm>0</bpm>
<rpm>0.00</rpm>
</extensions>
</trkpt>
<trkpt lat="64.073493958" lon="-19.519752502">
<ele>459.531250</ele>
<time>2012-07-21T19:22:04Z</time>
<speed>1.370000</speed>
<extensions>
<speed>1.4</speed>
<temp>0.00</temp>
<bpm>0</bpm>
<rpm>0.00</rpm>
</extensions>
</trkpt>
<trkpt lat="64.073501587" lon="-19.519617081">
<ele>460.070313</ele>
<time>2012-07-21T19:22:09Z</time>
<speed>1.110000</speed>
<extensions>
<speed>1.1</speed>
<temp>0.00</temp>
<bpm>0</bpm>
<rpm>0.00</rpm>
</extensions>
</trkpt>
<trkpt lat="64.073509216" lon="-19.519477844">
<ele>460.312500</ele>
<time>2012-07-21T19:22:14Z</time>
<speed>1.130000</speed>
<extensions>
<speed>1.1</speed>
<temp>0.00</temp>
<bpm>0</bpm>
<rpm>0.00</rpm>
</extensions>
</trkpt>
<trkpt lat="64.073516846" lon="-19.519336700">
<ele>460.820313</ele>
<time>2012-07-21T19:22:19Z</time>
<speed>1.310000</speed>
<extensions>
<speed>1.3</speed>
<temp>0.00</temp>
<bpm>0</bpm>
<rpm>0.00</rpm>
</extensions>
</trkpt>
<trkpt lat="64.073532104" lon="-19.519187927">
<ele>461.664063</ele>
<time>2012-07-21T19:22:24Z</time>
<speed>1.330000</speed>
<extensions>
<speed>1.3</speed>
<temp>0.00</temp>
<bpm>0</bpm>
<rpm>0.00</rpm>
</extensions>
</trkpt>
<trkpt lat="64.073539734" lon="-19.519058228">
<ele>462.164063</ele>
<time>2012-07-21T19:22:29Z</time>
<speed>1.280000</speed>
<extensions>
<speed>1.3</speed>
<temp>0.00</temp>
<bpm>0</bpm>
<rpm>0.00</rpm>
</extensions>
</trkpt>
<trkpt lat="64.073547363" lon="-19.518943787">
<ele>462.507813</ele>
<time>2012-07-21T19:22:34Z</time>
<speed>1.160000</speed>
<extensions>
<speed>1.2</speed>
<temp>0.00</temp>
<bpm>0</bpm>
<rpm>0.00</rpm>
</extensions>
</trkpt>
<trkpt lat="64.073547363" lon="-19.518814087">
<ele>462.585938</ele>
<time>2012-07-21T19:22:39Z</time>
<speed>1.240000</speed>
<extensions>
<speed>1.2</speed>
<temp>0.00</temp>
<bpm>0</bpm>
<rpm>0.00</rpm>
</extensions>
</trkpt>
<trkpt lat="64.073554993" lon="-19.518682480">
<ele>462.835938</ele>
<time>2012-07-21T19:22:44Z</time>
<speed>1.050000</speed>
<extensions>
<speed>1.0</speed>
<temp>0.00</temp>
<bpm>0</bpm>
<rpm>0.00</rpm>
</extensions>
</trkpt>
<trkpt lat="64.073554993" lon="-19.518569946">
<ele>463.257813</ele>
<time>2012-07-21T19:22:49Z</time>
<speed>0.950000</speed>
<extensions>
<speed>1.0</speed>
<temp>0.00</temp>
<bpm>0</bpm>
<rpm>0.00</rpm>
</extensions>
</trkpt>
<trkpt lat="64.073554993" lon="-19.518537521">
<ele>462.703125</ele>
<time>2012-07-21T19:22:54Z</time>
<speed>0.060000</speed>
<extensions>
<speed>0.1</speed>
<temp>0.00</temp>
<bpm>0</bpm>
<rpm>0.00</rpm>
</extensions>
</trkpt>
<trkpt lat="64.073554993" lon="-19.518539429">
<ele>462.492188</ele>
<time>2012-07-21T19:22:59Z</time>
<extensions>
<speed>0.0</speed>
<temp>0.00</temp>
<bpm>0</bpm>
<rpm>0.00</rpm>
</extensions>
</trkpt>
<trkpt lat="64.073554993" lon="-19.518539429">
<ele>462.484375</ele>
<time>2012-07-21T19:23:04Z</time>
<extensions>
<speed>0.0</speed>
<temp>0.00</temp>
<bpm>0</bpm>
<rpm>0.00</rpm>
</extensions>
</trkpt>
<trkpt lat="64.073554993" lon="-19.518539429">
<ele>462.468750</ele>
<time>2012-07-21T19:23:09Z</time>
<speed>0.090000</speed>
<extensions>
<speed>0.1</speed>
<temp>0.00</temp>
<bpm>0</bpm>
<rpm>0.00</rpm>
</extensions>
</trkpt>
<trkpt lat="64.073562622" lon="-19.518447876">
<ele>463.226563</ele>
<time>2012-07-21T19:23:14Z</time>
<speed>1.130000</speed>
<extensions>
<speed>1.1</speed>
<temp>0.00</temp>
<bpm>0</bpm>
<rpm>0.00</rpm>
</extensions>
</trkpt>
<trkpt lat="64.073570251" lon="-19.518325806">
<ele>463.929688</ele>
<time>2012-07-21T19:23:19Z</time>
<speed>1.220000</speed>
<extensions>
<speed>1.2</speed>
<temp>0.00</temp>
<bpm>0</bpm>
<rpm>0.00</rpm>
</extensions>
</trkpt>
<trkpt lat="64.073577881" lon="-19.518194199">
<ele>464.296875</ele>
<time>2012-07-21T19:23:24Z</time>
<speed>1.200000</speed>
<extensions>
<speed>1.2</speed>
<temp>0.00</temp>
<bpm>0</bpm>
<rpm>0.00</rpm>
</extensions>
</trkpt>
<trkpt lat="64.073593140" lon="-19.518045425">
<ele>464.671875</ele>
<time>2012-07-21T19:23:29Z</time>
<speed>1.400000</speed>
<extensions>
<speed>1.4</speed>
<temp>0.00</temp>
<bpm>0</bpm>
<rpm>0.00</rpm>
</extensions>
</trkpt>
<trkpt lat="64.073616028" lon="-19.517900467">
<ele>465.070313</ele>
<time>2012-07-21T19:23:34Z</time>
<speed>1.550000</speed>
<extensions>
<speed>1.5</speed>
<temp>0.00</temp>
<bpm>0</bpm>
<rpm>0.00</rpm>
</extensions>
</trkpt>
<trkpt lat="64.073646545" lon="-19.517747879">
<ele>465.195313</ele>
<time>2012-07-21T19:23:39Z</time>
<speed>1.440000</speed>
<extensions>
<speed>1.4</speed>
<temp>0.00</temp>
<bpm>0</bpm>
<rpm>0.00</rpm>
</extensions>
</trkpt>
<trkpt lat="64.073669434" lon="-19.517614365">
<ele>465.093750</ele>
<time>2012-07-21T19:23:44Z</time>
<speed>1.450000</speed>
<extensions>
<speed>1.4</speed>
<temp>0.00</temp>
<bpm>0</bpm>
<rpm>0.00</rpm>
</extensions>
</trkpt>
<trkpt lat="64.073677063" lon="-19.517526627">
<ele>464.679688</ele>
<time>2012-07-21T19:23:49Z</time>
<speed>0.280000</speed>
<extensions>
<speed>0.3</speed>
<temp>0.00</temp>
<bpm>0</bpm>
<rpm>0.00</rpm>
</extensions>
</trkpt>
<trkpt lat="64.073692322" lon="-19.517417908">
<ele>463.953125</ele>
<time>2012-07-21T19:23:54Z</time>
<speed>2.370000</speed>
<extensions>
<speed>2.4</speed>
<temp>0.00</temp>
<bpm>0</bpm>
<rpm>0.00</rpm>
</extensions>
</trkpt>
<trkpt lat="64.073715210" lon="-19.517173767">
<ele>463.460938</ele>
<time>2012-07-21T19:23:59Z</time>
<speed>2.260000</speed>
<extensions>
<speed>2.3</speed>
<temp>0.00</temp>
<bpm>0</bpm>
<rpm>0.00</rpm>
</extensions>
</trkpt>
<trkpt lat="64.073715210" lon="-19.516984940">
<ele>463.359375</ele>
<time>2012-07-21T19:24:04Z</time>
<speed>1.950000</speed>
<extensions>
<speed>1.9</speed>
<temp>0.00</temp>
<bpm>0</bpm>
<rpm>0.00</rpm>
</extensions>
</trkpt>
<trkpt lat="64.073715210" lon="-19.516807556">
<ele>463.539063</ele>
<time>2012-07-21T19:24:09Z</time>
<speed>1.970000</speed>
<extensions>
<speed>2.0</speed>
<temp>0.00</temp>
<bpm>0</bpm>
<rpm>0.00</rpm>
</extensions>
</trkpt>
<trkpt lat="64.073730469" lon="-19.516626358">
<ele>463.687500</ele>
<time>2012-07-21T19:24:14Z</time>
<speed>1.450000</speed>
<extensions>
<speed>1.4</speed>
<temp>0.00</temp>
<bpm>0</bpm>
<rpm>0.00</rpm>
</extensions>
</trkpt>
<trkpt lat="64.073738098" lon="-19.516483307">
<ele>463.695313</ele>
<time>2012-07-21T19:24:19Z</time>
<speed>1.470000</speed>
<extensions>
<speed>1.5</speed>
<temp>0.00</temp>
<bpm>0</bpm>
<rpm>0.00</rpm>
</extensions>
</trkpt>
<trkpt lat="64.073730469" lon="-19.516344070">
<ele>463.554688</ele>
<time>2012-07-21T19:24:24Z</time>
<speed>1.410000</speed>
<extensions>
<speed>1.4</speed>
<temp>0.00</temp>
<bpm>0</bpm>
<rpm>0.00</rpm>
</extensions>
</trkpt>
<trkpt lat="64.073753357" lon="-19.516185760">
<ele>461.398438</ele>
<time>2012-07-21T19:24:29Z</time>
<speed>1.760000</speed>
<extensions>
<speed>1.8</speed>
<temp>0.00</temp>
<bpm>0</bpm>
<rpm>0.00</rpm>
</extensions>
</trkpt>
<trkpt lat="64.073768616" lon="-19.516017914">
<ele>461.351563</ele>
<time>2012-07-21T19:24:34Z</time>
<speed>1.670000</speed>
<extensions>
<speed>1.7</speed>
<temp>0.00</temp>
<bpm>0</bpm>
<rpm>0.00</rpm>
</extensions>
</trkpt>
<trkpt lat="64.073760986" lon="-19.515861511">
<ele>462.132813</ele>
<time>2012-07-21T19:24:39Z</time>
<speed>1.610000</speed>
<extensions>
<speed>1.6</speed>
<temp>0.00</temp>
<bpm>0</bpm>
<rpm>0.00</rpm>
</extensions>
</trkpt>
<trkpt lat="64.073760986" lon="-19.515666962">
<ele>461.859375</ele>
<time>2012-07-21T19:24:44Z</time>
<speed>1.800000</speed>
<extensions>
<speed>1.8</speed>
<temp>0.00</temp>
<bpm>0</bpm>
<rpm>0.00</rpm>
</extensions>
</trkpt>
<trkpt lat="64.073760986" lon="-19.515504837">
<ele>462.601563</ele>
<time>2012-07-21T19:24:49Z</time>
<speed>1.440000</speed>
<extensions>
<speed>1.4</speed>
<temp>0.00</temp>
<bpm>0</bpm>
<rpm>0.00</rpm>
</extensions>
</trkpt>
<trkpt lat="64.073745728" lon="-19.515451431">
<ele>463.015625</ele>
<time>2012-07-21T19:24:54Z</time>
<extensions>
<speed>0.0</speed>
<temp>0.00</temp>
<bpm>0</bpm>
<rpm>0.00</rpm>
</extensions>
</trkpt>
<trkpt lat="64.073745728" lon="-19.515451431">
<ele>463.171875</ele>
<time>2012-07-21T19:24:59Z</time>
<speed>0.240000</speed>
<extensions>
<speed>0.2</speed>
<temp>0.00</temp>
<bpm>0</bpm>
<rpm>0.00</rpm>
</extensions>
</trkpt>
<trkpt lat="64.073745728" lon="-19.515451431">
<ele>463.906250</ele>
<time>2012-07-21T19:25:04Z</time>
<speed>0.650000</speed>
<extensions>
<speed>0.6</speed>
<temp>0.00</temp>
<bpm>0</bpm>
<rpm>0.00</rpm>
</extensions>
</trkpt>
<trkpt lat="64.073760986" lon="-19.515407562">
<ele>463.390625</ele>
<time>2012-07-21T19:25:09Z</time>
<speed>0.360000</speed>
<extensions>
<speed>0.4</speed>
<temp>0.00</temp>
<bpm>0</bpm>
<rpm>0.00</rpm>
</extensions>
</trkpt>
<trkpt lat="64.073768616" lon="-19.515298843">
<ele>463.429688</ele>
<time>2012-07-21T19:25:14Z</time>
<speed>1.110000</speed>
<extensions>
<speed>1.1</speed>
<temp>0.00</temp>
<bpm>0</bpm>
<rpm>0.00</rpm>
</extensions>
</trkpt>
<trkpt lat="64.073776245" lon="-19.515180588">
<ele>463.554688</ele>
<time>2012-07-21T19:25:19Z</time>
<speed>0.960000</speed>
<extensions>
<speed>1.0</speed>
<temp>0.00</temp>
<bpm>0</bpm>
<rpm>0.00</rpm>
</extensions>
</trkpt>
<trkpt lat="64.073783875" lon="-19.515096664">
<ele>464.226563</ele>
<time>2012-07-21T19:25:24Z</time>
<speed>1.130000</speed>
<extensions>
<speed>1.1</speed>
<temp>0.00</temp>
<bpm>0</bpm>
<rpm>0.00</rpm>
</extensions>
</trkpt>
<trkpt lat="64.073776245" lon="-19.515003204">
<ele>465.054688</ele>
<time>2012-07-21T19:25:29Z</time>
<speed>1.050000</speed>
<extensions>
<speed>1.0</speed>
<temp>0.00</temp>
<bpm>0</bpm>
<rpm>0.00</rpm>
</extensions>
</trkpt>
<trkpt lat="64.073768616" lon="-19.514890671">
<ele>465.484375</ele>
<time>2012-07-21T19:25:34Z</time>
<speed>0.930000</speed>
<extensions>
<speed>0.9</speed>
<temp>0.00</temp>
<bpm>0</bpm>
<rpm>0.00</rpm>
</extensions>
</trkpt>
<trkpt lat="64.073768616" lon="-19.514778137">
<ele>465.742188</ele>
<time>2012-07-21T19:25:39Z</time>
<speed>1.070000</speed>
<extensions>
<speed>1.1</speed>
<temp>0.00</temp>
<bpm>0</bpm>
<rpm>0.00</rpm>
</extensions>
</trkpt>
<trkpt lat="64.073760986" lon="-19.514678955">
<ele>466.414063</ele>
<time>2012-07-21T19:25:44Z</time>
<speed>1.090000</speed>
<extensions>
<speed>1.1</speed>
<temp>0.00</temp>
<bpm>0</bpm>
<rpm>0.00</rpm>
</extensions>
</trkpt>
<trkpt lat="64.073768616" lon="-19.514560699">
<ele>466.812500</ele>
<time>2012-07-21T19:25:49Z</time>
<speed>1.330000</speed>
<extensions>
<speed>1.3</speed>
<temp>0.00</temp>
<bpm>0</bpm>
<rpm>0.00</rpm>
</extensions>
</trkpt>
<trkpt lat="64.073776245" lon="-19.514421463">
<ele>467.023438</ele>
<time>2012-07-21T19:25:54Z</time>
<speed>1.180000</speed>
<extensions>
<speed>1.2</speed>
<temp>0.00</temp>
<bpm>0</bpm>
<rpm>0.00</rpm>
</extensions>
</trkpt>
<trkpt lat="64.073791504" lon="-19.514287949">
<ele>467.312500</ele>
<time>2012-07-21T19:25:59Z</time>
<speed>0.990000</speed>
<extensions>
<speed>1.0</speed>
<temp>0.00</temp>
<bpm>0</bpm>
<rpm>0.00</rpm>
</extensions>
</trkpt>
<trkpt lat="64.073814392" lon="-19.514156342">
<ele>467.554688</ele>
<time>2012-07-21T19:26:04Z</time>
<speed>1.280000</speed>
<extensions>
<speed>1.3</speed>
<temp>0.00</temp>
<bpm>0</bpm>
<rpm>0.00</rpm>
</extensions>
</trkpt>
<trkpt lat="64.073837280" lon="-19.514013290">
<ele>467.523438</ele>
<time>2012-07-21T19:26:09Z</time>
<speed>1.280000</speed>
<extensions>
<speed>1.3</speed>
<temp>0.00</temp>
<bpm>0</bpm>
<rpm>0.00</rpm>
</extensions>
</trkpt>
<trkpt lat="64.073844910" lon="-19.513885498">
<ele>467.578125</ele>
<time>2012-07-21T19:26:14Z</time>
<speed>1.190000</speed>
<extensions>
<speed>1.2</speed>
<temp>0.00</temp>
<bpm>0</bpm>
<rpm>0.00</rpm>
</extensions>
</trkpt>
<trkpt lat="64.073852539" lon="-19.513767242">
<ele>467.765625</ele>
<time>2012-07-21T19:26:19Z</time>
<speed>1.290000</speed>
<extensions>
<speed>1.3</speed>
<temp>0.00</temp>
<bpm>0</bpm>
<rpm>0.00</rpm>
</extensions>
</trkpt>
<trkpt lat="64.073860168" lon="-19.513723373">
<ele>468.187500</ele>
<time>2012-07-21T19:26:24Z</time>
<speed>0.170000</speed>
<extensions>
<speed>0.2</speed>
<temp>0.00</temp>
<bpm>0</bpm>
<rpm>0.00</rpm>
</extensions>
</trkpt>
<trkpt lat="64.073875427" lon="-19.513610840">
<ele>468.140625</ele>
<time>2012-07-21T19:26:29Z</time>
<speed>1.460000</speed>
<extensions>
<speed>1.5</speed>
<temp>0.00</temp>
<bpm>0</bpm>
<rpm>0.00</rpm>
</extensions>
</trkpt>
<trkpt lat="64.073883057" lon="-19.513460159">
<ele>467.695313</ele>
<time>2012-07-21T19:26:34Z</time>
<speed>1.220000</speed>
<extensions>
<speed>1.2</speed>
<temp>0.00</temp>
<bpm>0</bpm>
<rpm>0.00</rpm>
</extensions>
</trkpt>
<trkpt lat="64.073898315" lon="-19.513326645">
<ele>467.929688</ele>
<time>2012-07-21T19:26:39Z</time>
<speed>1.070000</speed>
<extensions>
<speed>1.1</speed>
<temp>0.00</temp>
<bpm>0</bpm>
<rpm>0.00</rpm>
</extensions>
</trkpt>
<trkpt lat="64.073890686" lon="-19.513214111">
<ele>467.921875</ele>
<time>2012-07-21T19:26:44Z</time>
<speed>1.270000</speed>
<extensions>
<speed>1.3</speed>
<temp>0.00</temp>
<bpm>0</bpm>
<rpm>0.00</rpm>
</extensions>
</trkpt>
<trkpt lat="64.073898315" lon="-19.513061523">
<ele>468.265625</ele>
<time>2012-07-21T19:26:49Z</time>
<speed>1.460000</speed>
<extensions>
<speed>1.5</speed>
<temp>0.00</temp>
<bpm>0</bpm>
<rpm>0.00</rpm>
</extensions>
</trkpt>
<trkpt lat="64.073913574" lon="-19.512912750">
<ele>468.335938</ele>
<time>2012-07-21T19:26:54Z</time>
<speed>1.360000</speed>
<extensions>
<speed>1.4</speed>
<temp>0.00</temp>
<bpm>0</bpm>
<rpm>0.00</rpm>
</extensions>
</trkpt>
<trkpt lat="64.073936462" lon="-19.512771606">
<ele>468.429688</ele>
<time>2012-07-21T19:26:59Z</time>
<speed>1.520000</speed>
<extensions>
<speed>1.5</speed>
<temp>0.00</temp>
<bpm>0</bpm>
<rpm>0.00</rpm>
</extensions>
</trkpt>
<trkpt lat="64.073966980" lon="-19.512639999">
<ele>468.273438</ele>
<time>2012-07-21T19:27:04Z</time>
<speed>1.480000</speed>
<extensions>
<speed>1.5</speed>
<temp>0.00</temp>
<bpm>0</bpm>
<rpm>0.00</rpm>
</extensions>
</trkpt>
<trkpt lat="64.073982239" lon="-19.512502670">
<ele>468.265625</ele>
<time>2012-07-21T19:27:09Z</time>
<speed>1.420000</speed>
<extensions>
<speed>1.4</speed>
<temp>0.00</temp>
<bpm>0</bpm>
<rpm>0.00</rpm>
</extensions>
</trkpt>
<trkpt lat="64.073997498" lon="-19.512357712">
<ele>468.046875</ele>
<time>2012-07-21T19:27:14Z</time>
<speed>1.620000</speed>
<extensions>
<speed>1.6</speed>
<temp>0.00</temp>
<bpm>0</bpm>
<rpm>0.00</rpm>
</extensions>
</trkpt>
<trkpt lat="64.074005127" lon="-19.512199402">
<ele>468.226563</ele>
<time>2012-07-21T19:27:19Z</time>
<speed>1.510000</speed>
<extensions>
<speed>1.5</speed>
<temp>0.00</temp>
<bpm>0</bpm>
<rpm>0.00</rpm>
</extensions>
</trkpt>
<trkpt lat="64.074012756" lon="-19.512062073">
<ele>468.460938</ele>
<time>2012-07-21T19:27:24Z</time>
<speed>0.550000</speed>
<extensions>
<speed>0.6</speed>
<temp>0.00</temp>
<bpm>0</bpm>
<rpm>0.00</rpm>
</extensions>
</trkpt>
<trkpt lat="64.074020386" lon="-19.511987686">
<ele>469.039063</ele>
<time>2012-07-21T19:27:29Z</time>
<speed>1.190000</speed>
<extensions>
<speed>1.2</speed>
<temp>0.00</temp>
<bpm>0</bpm>
<rpm>0.00</rpm>
</extensions>
</trkpt>
<trkpt lat="64.074020386" lon="-19.511905670">
<ele>468.859375</ele>
<time>2012-07-21T19:27:34Z</time>
<speed>0.910000</speed>
<extensions>
<speed>0.9</speed>
<temp>0.00</temp>
<bpm>0</bpm>
<rpm>0.00</rpm>
</extensions>
</trkpt>
<trkpt lat="64.074028015" lon="-19.511844635">
<ele>469.101563</ele>
<time>2012-07-21T19:27:39Z</time>
<speed>0.070000</speed>
<extensions>
<speed>0.1</speed>
<temp>0.00</temp>
<bpm>0</bpm>
<rpm>0.00</rpm>
</extensions>
</trkpt>
<trkpt lat="64.074028015" lon="-19.511842728">
<ele>469.156250</ele>
<time>2012-07-21T19:27:44Z</time>
<extensions>
<speed>0.0</speed>
<temp>0.00</temp>
<bpm>0</bpm>
<rpm>0.00</rpm>
</extensions>
</trkpt>
<trkpt lat="64.074035645" lon="-19.511777878">
<ele>469.640625</ele>
<time>2012-07-21T19:27:49Z</time>
<speed>1.070000</speed>
<extensions>
<speed>1.1</speed>
<temp>0.00</temp>
<bpm>0</bpm>
<rpm>0.00</rpm>
</extensions>
</trkpt>
<trkpt lat="64.074050903" lon="-19.511661530">
<ele>469.859375</ele>
<time>2012-07-21T19:27:54Z</time>
<speed>1.060000</speed>
<extensions>
<speed>1.1</speed>
<temp>0.00</temp>
<bpm>0</bpm>
<rpm>0.00</rpm>
</extensions>
</trkpt>
<trkpt lat="64.074066162" lon="-19.511529922">
<ele>470.046875</ele>
<time>2012-07-21T19:27:59Z</time>
<speed>1.160000</speed>
<extensions>
<speed>1.2</speed>
<temp>0.00</temp>
<bpm>0</bpm>
<rpm>0.00</rpm>
</extensions>
</trkpt>
<trkpt lat="64.074073792" lon="-19.511425018">
<ele>470.015625</ele>
<time>2012-07-21T19:28:04Z</time>
<speed>1.400000</speed>
<extensions>
<speed>1.4</speed>
<temp>0.00</temp>
<bpm>0</bpm>
<rpm>0.00</rpm>
</extensions>
</trkpt>
<trkpt lat="64.074096680" lon="-19.511291504">
<ele>469.890625</ele>
<time>2012-07-21T19:28:09Z</time>
<speed>1.300000</speed>
<extensions>
<speed>1.3</speed>
<temp>0.00</temp>
<bpm>0</bpm>
<rpm>0.00</rpm>
</extensions>
</trkpt>
<trkpt lat="64.074119568" lon="-19.511180878">
<ele>469.546875</ele>
<time>2012-07-21T19:28:14Z</time>
<speed>1.430000</speed>
<extensions>
<speed>1.4</speed>
<temp>0.00</temp>
<bpm>0</bpm>
<rpm>0.00</rpm>
</extensions>
</trkpt>
<trkpt lat="64.074142456" lon="-19.511053085">
<ele>469.609375</ele>
<time>2012-07-21T19:28:19Z</time>
<speed>1.450000</speed>
<extensions>
<speed>1.4</speed>
<temp>0.00</temp>
<bpm>0</bpm>
<rpm>0.00</rpm>
</extensions>
</trkpt>
<trkpt lat="64.074157715" lon="-19.510896683">
<ele>469.890625</ele>
<time>2012-07-21T19:28:24Z</time>
<speed>1.450000</speed>
<extensions>
<speed>1.4</speed>
<temp>0.00</temp>
<bpm>0</bpm>
<rpm>0.00</rpm>
</extensions>
</trkpt>
<trkpt lat="64.074188232" lon="-19.510763168">
<ele>470.109375</ele>
<time>2012-07-21T19:28:29Z</time>
<speed>1.510000</speed>
<extensions>
<speed>1.5</speed>
<temp>0.00</temp>
<bpm>0</bpm>
<rpm>0.00</rpm>
</extensions>
</trkpt>
<trkpt lat="64.074218750" lon="-19.510635376">
<ele>469.757813</ele>
<time>2012-07-21T19:28:34Z</time>
<speed>1.580000</speed>
<extensions>
<speed>1.6</speed>
<temp>0.00</temp>
<bpm>0</bpm>
<rpm>0.00</rpm>
</extensions>
</trkpt>
<trkpt lat="64.074226379" lon="-19.510578156">
<ele>469.648438</ele>
<time>2012-07-21T19:28:39Z</time>
<speed>1.250000</speed>
<extensions>
<speed>1.3</speed>
<temp>0.00</temp>
<bpm>0</bpm>
<rpm>0.00</rpm>
</extensions>
</trkpt>
<trkpt lat="64.074264526" lon="-19.510444641">
<ele>469.140625</ele>
<time>2012-07-21T19:28:44Z</time>
<speed>1.940000</speed>
<extensions>
<speed>1.9</speed>
<temp>0.00</temp>
<bpm>0</bpm>
<rpm>0.00</rpm>
</extensions>
</trkpt>
<trkpt lat="64.074317932" lon="-19.510282516">
<ele>468.734375</ele>
<time>2012-07-21T19:28:49Z</time>
<speed>2.120000</speed>
<extensions>
<speed>2.1</speed>
<temp>0.00</temp>
<bpm>0</bpm>
<rpm>0.00</rpm>
</extensions>
</trkpt>
<trkpt lat="64.074356079" lon="-19.510103226">
<ele>468.531250</ele>
<time>2012-07-21T19:28:54Z</time>
<speed>1.770000</speed>
<extensions>
<speed>1.8</speed>
<temp>0.00</temp>
<bpm>0</bpm>
<rpm>0.00</rpm>
</extensions>
</trkpt>
<trkpt lat="64.074378967" lon="-19.509948730">
<ele>468.593750</ele>
<time>2012-07-21T19:28:59Z</time>
<speed>1.740000</speed>
<extensions>
<speed>1.7</speed>
<temp>0.00</temp>
<bpm>0</bpm>
<rpm>0.00</rpm>
</extensions>
</trkpt>
<trkpt lat="64.074401855" lon="-19.509801865">
<ele>468.273438</ele>
<time>2012-07-21T19:29:04Z</time>
<speed>1.720000</speed>
<extensions>
<speed>1.7</speed>
<temp>0.00</temp>
<bpm>0</bpm>
<rpm>0.00</rpm>
</extensions>
</trkpt>
<trkpt lat="64.074424744" lon="-19.509593964">
<ele>468.242188</ele>
<time>2012-07-21T19:29:09Z</time>
<speed>1.940000</speed>
<extensions>
<speed>1.9</speed>
<temp>0.00</temp>
<bpm>0</bpm>
<rpm>0.00</rpm>
</extensions>
</trkpt>
<trkpt lat="64.074455261" lon="-19.509410858">
<ele>468.273438</ele>
<time>2012-07-21T19:29:14Z</time>
<speed>1.710000</speed>
<extensions>
<speed>1.7</speed>
<temp>0.00</temp>
<bpm>0</bpm>
<rpm>0.00</rpm>
</extensions>
</trkpt>
<trkpt lat="64.074493408" lon="-19.509260178">
<ele>468.234375</ele>
<time>2012-07-21T19:29:19Z</time>
<speed>1.850000</speed>
<extensions>
<speed>1.8</speed>
<temp>0.00</temp>
<bpm>0</bpm>
<rpm>0.00</rpm>
</extensions>
</trkpt>
<trkpt lat="64.074523926" lon="-19.509088516">
<ele>468.492188</ele>
<time>2012-07-21T19:29:24Z</time>
<speed>1.900000</speed>
<extensions>
<speed>1.9</speed>
<temp>0.00</temp>
<bpm>0</bpm>
<rpm>0.00</rpm>
</extensions>
</trkpt>
<trkpt lat="64.074562073" lon="-19.508920670">
<ele>468.328125</ele>
<time>2012-07-21T19:29:29Z</time>
<speed>1.910000</speed>
<extensions>
<speed>1.9</speed>
<temp>0.00</temp>
<bpm>0</bpm>
<rpm>0.00</rpm>
</extensions>
</trkpt>
<trkpt lat="64.074615479" lon="-19.508773804">
<ele>467.992188</ele>
<time>2012-07-21T19:29:34Z</time>
<speed>1.400000</speed>
<extensions>
<speed>1.4</speed>
<temp>0.00</temp>
<bpm>0</bpm>
<rpm>0.00</rpm>
</extensions>
</trkpt>
<trkpt lat="64.074668884" lon="-19.508651733">
<ele>468.312500</ele>
<time>2012-07-21T19:29:39Z</time>
<speed>1.840000</speed>
<extensions>
<speed>1.8</speed>
<temp>0.00</temp>
<bpm>0</bpm>
<rpm>0.00</rpm>
</extensions>
</trkpt>
<trkpt lat="64.074714661" lon="-19.508504868">
<ele>468.742188</ele>
<time>2012-07-21T19:29:44Z</time>
<speed>1.840000</speed>
<extensions>
<speed>1.8</speed>
<temp>0.00</temp>
<bpm>0</bpm>
<rpm>0.00</rpm>
</extensions>
</trkpt>
<trkpt lat="64.074760437" lon="-19.508371353">
<ele>469.023438</ele>
<time>2012-07-21T19:29:49Z</time>
<speed>1.700000</speed>
<extensions>
<speed>1.7</speed>
<temp>0.00</temp>
<bpm>0</bpm>
<rpm>0.00</rpm>
</extensions>
</trkpt>
<trkpt lat="64.074806213" lon="-19.508209229">
<ele>469.562500</ele>
<time>2012-07-21T19:29:54Z</time>
<speed>1.810000</speed>
<extensions>
<speed>1.8</speed>
<temp>0.00</temp>
<bpm>0</bpm>
<rpm>0.00</rpm>
</extensions>
</trkpt>
<trkpt lat="64.074851990" lon="-19.508058548">
<ele>469.851563</ele>
<time>2012-07-21T19:29:59Z</time>
<speed>1.250000</speed>
<extensions>
<speed>1.3</speed>
<temp>0.00</temp>
<bpm>0</bpm>
<rpm>0.00</rpm>
</extensions>
</trkpt>
<trkpt lat="64.074897766" lon="-19.507904053">
<ele>470.007813</ele>
<time>2012-07-21T19:30:04Z</time>
<speed>1.840000</speed>
<extensions>
<speed>1.8</speed>
<temp>0.00</temp>
<bpm>0</bpm>
<rpm>0.00</rpm>
</extensions>
</trkpt>
<trkpt lat="64.074966431" lon="-19.507740021">
<ele>469.546875</ele>
<time>2012-07-21T19:30:09Z</time>
<speed>2.020000</speed>
<extensions>
<speed>2.0</speed>
<temp>0.00</temp>
<bpm>0</bpm>
<rpm>0.00</rpm>
</extensions>
</trkpt>
<trkpt lat="64.075012207" lon="-19.507549286">
<ele>469.367188</ele>
<time>2012-07-21T19:30:14Z</time>
<speed>2.260000</speed>
<extensions>
<speed>2.3</speed>
<temp>0.00</temp>
<bpm>0</bpm>
<rpm>0.00</rpm>
</extensions>
</trkpt>
<trkpt lat="64.075065613" lon="-19.507366180">
<ele>468.476563</ele>
<time>2012-07-21T19:30:19Z</time>
<speed>2.190000</speed>
<extensions>
<speed>2.2</speed>
<temp>0.00</temp>
<bpm>0</bpm>
<rpm>0.00</rpm>
</extensions>
</trkpt>
<trkpt lat="64.075119019" lon="-19.507162094">
<ele>468.203125</ele>
<time>2012-07-21T19:30:24Z</time>
<speed>2.070000</speed>
<extensions>
<speed>2.1</speed>
<temp>0.00</temp>
<bpm>0</bpm>
<rpm>0.00</rpm>
</extensions>
</trkpt>
<trkpt lat="64.075164795" lon="-19.506975174">
<ele>468.609375</ele>
<time>2012-07-21T19:30:29Z</time>
<speed>2.250000</speed>
<extensions>
<speed>2.3</speed>
<temp>0.00</temp>
<bpm>0</bpm>
<rpm>0.00</rpm>
</extensions>
</trkpt>
<trkpt lat="64.075202942" lon="-19.506792068">
<ele>468.570313</ele>
<time>2012-07-21T19:30:34Z</time>
<speed>2.070000</speed>
<extensions>
<speed>2.1</speed>
<temp>0.00</temp>
<bpm>0</bpm>
<rpm>0.00</rpm>
</extensions>
</trkpt>
<trkpt lat="64.075248718" lon="-19.506666183">
<ele>468.328125</ele>
<time>2012-07-21T19:30:39Z</time>
<speed>1.500000</speed>
<extensions>
<speed>1.5</speed>
<temp>0.00</temp>
<bpm>0</bpm>
<rpm>0.00</rpm>
</extensions>
</trkpt>
<trkpt lat="64.075271606" lon="-19.506519318">
<ele>468.695313</ele>
<time>2012-07-21T19:30:44Z</time>
<speed>1.700000</speed>
<extensions>
<speed>1.7</speed>
<temp>0.00</temp>
<bpm>0</bpm>
<rpm>0.00</rpm>
</extensions>
</trkpt>
<trkpt lat="64.075309753" lon="-19.506374359">
<ele>469.218750</ele>
<time>2012-07-21T19:30:49Z</time>
<speed>1.660000</speed>
<extensions>
<speed>1.7</speed>
<temp>0.00</temp>
<bpm>0</bpm>
<rpm>0.00</rpm>
</extensions>
</trkpt>
<trkpt lat="64.075347900" lon="-19.506242752">
<ele>469.273438</ele>
<time>2012-07-21T19:30:54Z</time>
<speed>1.400000</speed>
<extensions>
<speed>1.4</speed>
<temp>0.00</temp>
<bpm>0</bpm>
<rpm>0.00</rpm>
</extensions>
</trkpt>
<trkpt lat="64.075386047" lon="-19.506099701">
<ele>468.687500</ele>
<time>2012-07-21T19:30:59Z</time>
<speed>1.890000</speed>
<extensions>
<speed>1.9</speed>
<temp>0.00</temp>
<bpm>0</bpm>
<rpm>0.00</rpm>
</extensions>
</trkpt>
<trkpt lat="64.075431824" lon="-19.505912781">
<ele>468.570313</ele>
<time>2012-07-21T19:31:04Z</time>
<speed>2.120000</speed>
<extensions>
<speed>2.1</speed>
<temp>0.00</temp>
<bpm>0</bpm>
<rpm>0.00</rpm>
</extensions>
</trkpt>
<trkpt lat="64.075477600" lon="-19.505750656">
<ele>468.398438</ele>
<time>2012-07-21T19:31:09Z</time>
<speed>1.970000</speed>
<extensions>
<speed>2.0</speed>
<temp>0.00</temp>
<bpm>0</bpm>
<rpm>0.00</rpm>
</extensions>
</trkpt>
<trkpt lat="64.075508118" lon="-19.505620956">
<ele>468.539063</ele>
<time>2012-07-21T19:31:14Z</time>
<speed>1.280000</speed>
<extensions>
<speed>1.3</speed>
<temp>0.00</temp>
<bpm>0</bpm>
<rpm>0.00</rpm>
</extensions>
</trkpt>
<trkpt lat="64.075523376" lon="-19.505479813">
<ele>469.390625</ele>
<time>2012-07-21T19:31:19Z</time>
<speed>1.450000</speed>
<extensions>
<speed>1.4</speed>
<temp>0.00</temp>
<bpm>0</bpm>
<rpm>0.00</rpm>
</extensions>
</trkpt>
<trkpt lat="64.075553894" lon="-19.505321503">
<ele>469.421875</ele>
<time>2012-07-21T19:31:24Z</time>
<speed>1.500000</speed>
<extensions>
<speed>1.5</speed>
<temp>0.00</temp>
<bpm>0</bpm>
<rpm>0.00</rpm>
</extensions>
</trkpt>
<trkpt lat="64.075561523" lon="-19.505168915">
<ele>469.804688</ele>
<time>2012-07-21T19:31:29Z</time>
<speed>1.530000</speed>
<extensions>
<speed>1.5</speed>
<temp>0.00</temp>
<bpm>0</bpm>
<rpm>0.00</rpm>
</extensions>
</trkpt>
<trkpt lat="64.075561523" lon="-19.505010605">
<ele>469.648438</ele>
<time>2012-07-21T19:31:34Z</time>
<speed>1.320000</speed>
<extensions>
<speed>1.3</speed>
<temp>0.00</temp>
<bpm>0</bpm>
<rpm>0.00</rpm>
</extensions>
</trkpt>
<trkpt lat="64.075553894" lon="-19.504858017">
<ele>469.804688</ele>
<time>2012-07-21T19:31:39Z</time>
<speed>1.870000</speed>
<extensions>
<speed>1.9</speed>
<temp>0.00</temp>
<bpm>0</bpm>
<rpm>0.00</rpm>
</extensions>
</trkpt>
<trkpt lat="64.075546265" lon="-19.504716873">
<ele>469.546875</ele>
<time>2012-07-21T19:31:44Z</time>
<speed>1.420000</speed>
<extensions>
<speed>1.4</speed>
<temp>0.00</temp>
<bpm>0</bpm>
<rpm>0.00</rpm>
</extensions>
</trkpt>
<trkpt lat="64.075553894" lon="-19.504531860">
<ele>470.500000</ele>
<time>2012-07-21T19:31:49Z</time>
<speed>1.980000</speed>
<extensions>
<speed>2.0</speed>
<temp>0.00</temp>
<bpm>0</bpm>
<rpm>0.00</rpm>
</extensions>
</trkpt>
<trkpt lat="64.075576782" lon="-19.504295349">
<ele>470.148438</ele>
<time>2012-07-21T19:31:54Z</time>
<speed>2.160000</speed>
<extensions>
<speed>2.2</speed>
<temp>0.00</temp>
<bpm>0</bpm>
<rpm>0.00</rpm>
</extensions>
</trkpt>
<trkpt lat="64.075599670" lon="-19.504095078">
<ele>470.710938</ele>
<time>2012-07-21T19:31:59Z</time>
<speed>2.000000</speed>
<extensions>
<speed>2.0</speed>
<temp>0.00</temp>
<bpm>0</bpm>
<rpm>0.00</rpm>
</extensions>
</trkpt>
<trkpt lat="64.075622559" lon="-19.503904343">
<ele>471.023438</ele>
<time>2012-07-21T19:32:04Z</time>
<speed>1.870000</speed>
<extensions>
<speed>1.9</speed>
<temp>0.00</temp>
<bpm>0</bpm>
<rpm>0.00</rpm>
</extensions>
</trkpt>
<trkpt lat="64.075637817" lon="-19.503726959">
<ele>471.460938</ele>
<time>2012-07-21T19:32:09Z</time>
<speed>1.400000</speed>
<extensions>
<speed>1.4</speed>
<temp>0.00</temp>
<bpm>0</bpm>
<rpm>0.00</rpm>
</extensions>
</trkpt>
<trkpt lat="64.075653076" lon="-19.503580093">
<ele>471.828125</ele>
<time>2012-07-21T19:32:14Z</time>
<speed>1.070000</speed>
<extensions>
<speed>1.1</speed>
<temp>0.00</temp>
<bpm>0</bpm>
<rpm>0.00</rpm>
</extensions>
</trkpt>
<trkpt lat="64.075653076" lon="-19.503593445">
<ele>471.976563</ele>
<time>2012-07-21T19:32:19Z</time>
<extensions>
<speed>0.0</speed>
<temp>0.00</temp>
<bpm>0</bpm>
<rpm>0.00</rpm>
</extensions>
</trkpt>
<trkpt lat="64.075653076" lon="-19.503593445">
<ele>471.992188</ele>
<time>2012-07-21T19:32:24Z</time>
<speed>0.180000</speed>
<extensions>
<speed>0.2</speed>
<temp>0.00</temp>
<bpm>0</bpm>
<rpm>0.00</rpm>
</extensions>
</trkpt>
<trkpt lat="64.075653076" lon="-19.503540039">
<ele>472.671875</ele>
<time>2012-07-21T19:32:29Z</time>
<speed>0.990000</speed>
<extensions>
<speed>1.0</speed>
<temp>0.00</temp>
<bpm>0</bpm>
<rpm>0.00</rpm>
</extensions>
</trkpt>
<trkpt lat="64.075660706" lon="-19.503488541">
<ele>473.906250</ele>
<time>2012-07-21T19:32:34Z</time>
<speed>0.080000</speed>
<extensions>
<speed>0.1</speed>
<temp>0.00</temp>
<bpm>0</bpm>
<rpm>0.00</rpm>
</extensions>
</trkpt>
<trkpt lat="64.075675964" lon="-19.503376007">
<ele>474.375000</ele>
<time>2012-07-21T19:32:39Z</time>
<speed>1.190000</speed>
<extensions>
<speed>1.2</speed>
<temp>0.00</temp>
<bpm>0</bpm>
<rpm>0.00</rpm>
</extensions>
</trkpt>
<trkpt lat="64.075683594" lon="-19.503265381">
<ele>474.539063</ele>
<time>2012-07-21T19:32:44Z</time>
<speed>0.990000</speed>
<extensions>
<speed>1.0</speed>
<temp>0.00</temp>
<bpm>0</bpm>
<rpm>0.00</rpm>
</extensions>
</trkpt>
<trkpt lat="64.075706482" lon="-19.503152847">
<ele>474.718750</ele>
<time>2012-07-21T19:32:49Z</time>
<speed>1.170000</speed>
<extensions>
<speed>1.2</speed>
<temp>0.00</temp>
<bpm>0</bpm>
<rpm>0.00</rpm>
</extensions>
</trkpt>
<trkpt lat="64.075721741" lon="-19.503009796">
<ele>474.796875</ele>
<time>2012-07-21T19:32:54Z</time>
<speed>1.170000</speed>
<extensions>
<speed>1.2</speed>
<temp>0.00</temp>
<bpm>0</bpm>
<rpm>0.00</rpm>
</extensions>
</trkpt>
<trkpt lat="64.075744629" lon="-19.502899170">
<ele>475.171875</ele>
<time>2012-07-21T19:32:59Z</time>
<speed>1.540000</speed>
<extensions>
<speed>1.5</speed>
<temp>0.00</temp>
<bpm>0</bpm>
<rpm>0.00</rpm>
</extensions>
</trkpt>
<trkpt lat="64.075782776" lon="-19.502771378">
<ele>474.992188</ele>
<time>2012-07-21T19:33:04Z</time>
<speed>1.500000</speed>
<extensions>
<speed>1.5</speed>
<temp>0.00</temp>
<bpm>0</bpm>
<rpm>0.00</rpm>
</extensions>
</trkpt>
<trkpt lat="64.075813293" lon="-19.502653122">
<ele>474.765625</ele>
<time>2012-07-21T19:33:09Z</time>
<speed>1.380000</speed>
<extensions>
<speed>1.4</speed>
<temp>0.00</temp>
<bpm>0</bpm>
<rpm>0.00</rpm>
</extensions>
</trkpt>
<trkpt lat="64.075836182" lon="-19.502525330">
<ele>474.882813</ele>
<time>2012-07-21T19:33:14Z</time>
<speed>1.290000</speed>
<extensions>
<speed>1.3</speed>
<temp>0.00</temp>
<bpm>0</bpm>
<rpm>0.00</rpm>
</extensions>
</trkpt>
<trkpt lat="64.075874329" lon="-19.502399445">
<ele>474.320313</ele>
<time>2012-07-21T19:33:19Z</time>
<speed>1.370000</speed>
<extensions>
<speed>1.4</speed>
<temp>0.00</temp>
<bpm>0</bpm>
<rpm>0.00</rpm>
</extensions>
</trkpt>
<trkpt lat="64.075904846" lon="-19.502304077">
<ele>474.796875</ele>
<time>2012-07-21T19:33:24Z</time>
<speed>0.360000</speed>
<extensions>
<speed>0.4</speed>
<temp>0.00</temp>
<bpm>0</bpm>
<rpm>0.00</rpm>
</extensions>
</trkpt>
<trkpt lat="64.075920105" lon="-19.502265930">
<ele>474.718750</ele>
<time>2012-07-21T19:33:29Z</time>
<speed>1.200000</speed>
<extensions>
<speed>1.2</speed>
<temp>0.00</temp>
<bpm>0</bpm>
<rpm>0.00</rpm>
</extensions>
</trkpt>
<trkpt lat="64.075965881" lon="-19.502113342">
<ele>474.140625</ele>
<time>2012-07-21T19:33:34Z</time>
<speed>2.040000</speed>
<extensions>
<speed>2.0</speed>
<temp>0.00</temp>
<bpm>0</bpm>
<rpm>0.00</rpm>
</extensions>
</trkpt>
<trkpt lat="64.076034546" lon="-19.501947403">
<ele>474.171875</ele>
<time>2012-07-21T19:33:39Z</time>
<speed>2.370000</speed>
<extensions>
<speed>2.4</speed>
<temp>0.00</temp>
<bpm>0</bpm>
<rpm>0.00</rpm>
</extensions>
</trkpt>
<trkpt lat="64.076118469" lon="-19.501762390">
<ele>473.718750</ele>
<time>2012-07-21T19:33:44Z</time>
<speed>2.800000</speed>
<extensions>
<speed>2.8</speed>
<temp>0.00</temp>
<bpm>0</bpm>
<rpm>0.00</rpm>
</extensions>
</trkpt>
<trkpt lat="64.076217651" lon="-19.501585007">
<ele>472.390625</ele>
<time>2012-07-21T19:33:49Z</time>
<speed>3.320000</speed>
<extensions>
<speed>3.3</speed>
<temp>0.00</temp>
<bpm>0</bpm>
<rpm>0.00</rpm>
</extensions>
</trkpt>
<trkpt lat="64.076362610" lon="-19.501329422">
<ele>470.890625</ele>
<time>2012-07-21T19:33:54Z</time>
<speed>4.230000</speed>
<extensions>
<speed>4.2</speed>
<temp>0.00</temp>
<bpm>0</bpm>
<rpm>0.00</rpm>
</extensions>
</trkpt>
<trkpt lat="64.076477051" lon="-19.501102448">
<ele>470.781250</ele>
<time>2012-07-21T19:33:59Z</time>
<speed>2.800000</speed>
<extensions>
<speed>2.8</speed>
<temp>0.00</temp>
<bpm>0</bpm>
<rpm>0.00</rpm>
</extensions>
</trkpt>
<trkpt lat="64.076560974" lon="-19.500953674">
<ele>470.921875</ele>
<time>2012-07-21T19:34:04Z</time>
<speed>2.350000</speed>
<extensions>
<speed>2.4</speed>
<temp>0.00</temp>
<bpm>0</bpm>
<rpm>0.00</rpm>
</extensions>
</trkpt>
<trkpt lat="64.076644897" lon="-19.500812531">
<ele>470.507813</ele>
<time>2012-07-21T19:34:09Z</time>
<speed>2.300000</speed>
<extensions>
<speed>2.3</speed>
<temp>0.00</temp>
<bpm>0</bpm>
<rpm>0.00</rpm>
</extensions>
</trkpt>
<trkpt lat="64.076721191" lon="-19.500661850">
<ele>470.273438</ele>
<time>2012-07-21T19:34:14Z</time>
<speed>2.230000</speed>
<extensions>
<speed>2.2</speed>
<temp>0.00</temp>
<bpm>0</bpm>
<rpm>0.00</rpm>
</extensions>
</trkpt>
<trkpt lat="64.076812744" lon="-19.500587463">
<ele>470.000000</ele>
<time>2012-07-21T19:34:19Z</time>
<speed>2.220000</speed>
<extensions>
<speed>2.2</speed>
<temp>0.00</temp>
<bpm>0</bpm>
<rpm>0.00</rpm>
</extensions>
</trkpt>
<trkpt lat="64.076904297" lon="-19.500431061">
<ele>469.929688</ele>
<time>2012-07-21T19:34:24Z</time>
<speed>2.460000</speed>
<extensions>
<speed>2.5</speed>
<temp>0.00</temp>
<bpm>0</bpm>
<rpm>0.00</rpm>
</extensions>
</trkpt>
<trkpt lat="64.076995850" lon="-19.500267029">
<ele>470.070313</ele>
<time>2012-07-21T19:34:29Z</time>
<speed>2.410000</speed>
<extensions>
<speed>2.4</speed>
<temp>0.00</temp>
<bpm>0</bpm>
<rpm>0.00</rpm>
</extensions>
</trkpt>
<trkpt lat="64.077079773" lon="-19.500104904">
<ele>470.031250</ele>
<time>2012-07-21T19:34:34Z</time>
<speed>2.590000</speed>
<extensions>
<speed>2.6</speed>
<temp>0.00</temp>
<bpm>0</bpm>
<rpm>0.00</rpm>
</extensions>
</trkpt>
<trkpt lat="64.077163696" lon="-19.499944687">
<ele>470.125000</ele>
<time>2012-07-21T19:34:39Z</time>
<speed>2.190000</speed>
<extensions>
<speed>2.2</speed>
<temp>0.00</temp>
<bpm>0</bpm>
<rpm>0.00</rpm>
</extensions>
</trkpt>
<trkpt lat="64.077232361" lon="-19.499767303">
<ele>469.859375</ele>
<time>2012-07-21T19:34:44Z</time>
<speed>2.360000</speed>
<extensions>
<speed>2.4</speed>
<temp>0.00</temp>
<bpm>0</bpm>
<rpm>0.00</rpm>
</extensions>
</trkpt>
<trkpt lat="64.077285767" lon="-19.499595642">
<ele>470.179688</ele>
<time>2012-07-21T19:34:49Z</time>
<speed>1.950000</speed>
<extensions>
<speed>1.9</speed>
<temp>0.00</temp>
<bpm>0</bpm>
<rpm>0.00</rpm>
</extensions>
</trkpt>
<trkpt lat="64.077301025" lon="-19.499538422">
<ele>470.093750</ele>
<time>2012-07-21T19:34:54Z</time>
<speed>0.030000</speed>
<extensions>
<speed>0.0</speed>
<temp>0.00</temp>
<bpm>0</bpm>
<rpm>0.00</rpm>
</extensions>
</trkpt>
<trkpt lat="64.077301025" lon="-19.499540329">
<ele>470.132813</ele>
<time>2012-07-21T19:34:59Z</time>
<speed>0.010000</speed>
<extensions>
<speed>0.0</speed>
<temp>0.00</temp>
<bpm>0</bpm>
<rpm>0.00</rpm>
</extensions>
</trkpt>
<trkpt lat="64.077301025" lon="-19.499540329">
<ele>470.109375</ele>
<time>2012-07-21T19:35:04Z</time>
<extensions>
<speed>0.0</speed>
<temp>0.00</temp>
<bpm>0</bpm>
<rpm>0.00</rpm>
</extensions>
</trkpt>
<trkpt lat="64.077301025" lon="-19.499540329">
<ele>470.093750</ele>
<time>2012-07-21T19:35:09Z</time>
<speed>0.020000</speed>
<extensions>
<speed>0.0</speed>
<temp>0.00</temp>
<bpm>0</bpm>
<rpm>0.00</rpm>
</extensions>
</trkpt>
<trkpt lat="64.077301025" lon="-19.499538422">
<ele>470.062500</ele>
<time>2012-07-21T19:35:14Z</time>
<extensions>
<speed>0.0</speed>
<temp>0.00</temp>
<bpm>0</bpm>
<rpm>0.00</rpm>
</extensions>
</trkpt>
<trkpt lat="64.077301025" lon="-19.499538422">
<ele>470.070313</ele>
<time>2012-07-21T19:35:19Z</time>
<speed>0.010000</speed>
<extensions>
<speed>0.0</speed>
<temp>0.00</temp>
<bpm>0</bpm>
<rpm>0.00</rpm>
</extensions>
</trkpt>
<trkpt lat="64.077301025" lon="-19.499538422">
<ele>470.070313</ele>
<time>2012-07-21T19:35:24Z</time>
<speed>0.010000</speed>
<extensions>
<speed>0.0</speed>
<temp>0.00</temp>
<bpm>0</bpm>
<rpm>0.00</rpm>
</extensions>
</trkpt>
<trkpt lat="64.077301025" lon="-19.499538422">
<ele>470.054688</ele>
<time>2012-07-21T19:35:29Z</time>
<extensions>
<speed>0.0</speed>
<temp>0.00</temp>
<bpm>0</bpm>
<rpm>0.00</rpm>
</extensions>
</trkpt>
<trkpt lat="64.077301025" lon="-19.499538422">
<ele>470.046875</ele>
<time>2012-07-21T19:35:34Z</time>
<extensions>
<speed>0.0</speed>
<temp>0.00</temp>
<bpm>0</bpm>
<rpm>0.00</rpm>
</extensions>
</trkpt>
<trkpt lat="64.077301025" lon="-19.499538422">
<ele>470.039063</ele>
<time>2012-07-21T19:35:39Z</time>
<extensions>
<speed>0.0</speed>
<temp>0.00</temp>
<bpm>0</bpm>
<rpm>0.00</rpm>
</extensions>
</trkpt>
<trkpt lat="64.077301025" lon="-19.499538422">
<ele>470.039063</ele>
<time>2012-07-21T19:35:44Z</time>
<extensions>
<speed>0.0</speed>
<temp>0.00</temp>
<bpm>0</bpm>
<rpm>0.00</rpm>
</extensions>
</trkpt>
<trkpt lat="64.077301025" lon="-19.499538422">
<ele>470.039063</ele>
<time>2012-07-21T19:35:49Z</time>
<extensions>
<speed>0.0</speed>
<temp>0.00</temp>
<bpm>0</bpm>
<rpm>0.00</rpm>
</extensions>
</trkpt>
<trkpt lat="64.077301025" lon="-19.499538422">
<ele>470.039063</ele>
<time>2012-07-21T19:35:54Z</time>
<extensions>
<speed>0.0</speed>
<temp>0.00</temp>
<bpm>0</bpm>
<rpm>0.00</rpm>
</extensions>
</trkpt>
<trkpt lat="64.077301025" lon="-19.499538422">
<ele>470.046875</ele>
<time>2012-07-21T19:35:59Z</time>
<speed>0.500000</speed>
<extensions>
<speed>0.5</speed>
<temp>0.00</temp>
<bpm>0</bpm>
<rpm>0.00</rpm>
</extensions>
</trkpt>
<trkpt lat="64.077308655" lon="-19.499486923">
<ele>470.070313</ele>
<time>2012-07-21T19:36:04Z</time>
<speed>1.220000</speed>
<extensions>
<speed>1.2</speed>
<temp>0.00</temp>
<bpm>0</bpm>
<rpm>0.00</rpm>
</extensions>
</trkpt>
<trkpt lat="64.077339172" lon="-19.499288559">
<ele>470.242188</ele>
<time>2012-07-21T19:36:09Z</time>
<speed>2.510000</speed>
<extensions>
<speed>2.5</speed>
<temp>0.00</temp>
<bpm>0</bpm>
<rpm>0.00</rpm>
</extensions>
</trkpt>
<trkpt lat="64.077331543" lon="-19.499057770">
<ele>469.960938</ele>
<time>2012-07-21T19:36:14Z</time>
<speed>2.040000</speed>
<extensions>
<speed>2.0</speed>
<temp>0.00</temp>
<bpm>0</bpm>
<rpm>0.00</rpm>
</extensions>
</trkpt>
<trkpt lat="64.077308655" lon="-19.498851776">
<ele>470.296875</ele>
<time>2012-07-21T19:36:19Z</time>
<speed>2.190000</speed>
<extensions>
<speed>2.2</speed>
<temp>0.00</temp>
<bpm>0</bpm>
<rpm>0.00</rpm>
</extensions>
</trkpt>
<trkpt lat="64.077278137" lon="-19.498634338">
<ele>470.742188</ele>
<time>2012-07-21T19:36:24Z</time>
<speed>2.230000</speed>
<extensions>
<speed>2.2</speed>
<temp>0.00</temp>
<bpm>0</bpm>
<rpm>0.00</rpm>
</extensions>
</trkpt>
<trkpt lat="64.077239990" lon="-19.498428345">
<ele>471.125000</ele>
<time>2012-07-21T19:36:29Z</time>
<speed>2.180000</speed>
<extensions>
<speed>2.2</speed>
<temp>0.00</temp>
<bpm>0</bpm>
<rpm>0.00</rpm>
</extensions>
</trkpt>
<trkpt lat="64.077201843" lon="-19.498226166">
<ele>471.492188</ele>
<time>2012-07-21T19:36:34Z</time>
<speed>2.060000</speed>
<extensions>
<speed>2.1</speed>
<temp>0.00</temp>
<bpm>0</bpm>
<rpm>0.00</rpm>
</extensions>
</trkpt>
<trkpt lat="64.077178955" lon="-19.498054504">
<ele>471.414063</ele>
<time>2012-07-21T19:36:39Z</time>
<speed>2.050000</speed>
<extensions>
<speed>2.1</speed>
<temp>0.00</temp>
<bpm>0</bpm>
<rpm>0.00</rpm>
</extensions>
</trkpt>
<trkpt lat="64.077163696" lon="-19.497875214">
<ele>471.460938</ele>
<time>2012-07-21T19:36:44Z</time>
<speed>1.630000</speed>
<extensions>
<speed>1.6</speed>
<temp>0.00</temp>
<bpm>0</bpm>
<rpm>0.00</rpm>
</extensions>
</trkpt>
<trkpt lat="64.077125549" lon="-19.497713089">
<ele>471.289063</ele>
<time>2012-07-21T19:36:49Z</time>
<speed>1.430000</speed>
<extensions>
<speed>1.4</speed>
<temp>0.00</temp>
<bpm>0</bpm>
<rpm>0.00</rpm>
</extensions>
</trkpt>
<trkpt lat="64.077087402" lon="-19.497547150">
<ele>470.765625</ele>
<time>2012-07-21T19:36:54Z</time>
<speed>1.860000</speed>
<extensions>
<speed>1.9</speed>
<temp>0.00</temp>
<bpm>0</bpm>
<rpm>0.00</rpm>
</extensions>
</trkpt>
<trkpt lat="64.077056885" lon="-19.497377396">
<ele>470.859375</ele>
<time>2012-07-21T19:36:59Z</time>
<speed>1.920000</speed>
<extensions>
<speed>1.9</speed>
<temp>0.00</temp>
<bpm>0</bpm>
<rpm>0.00</rpm>
</extensions>
</trkpt>
<trkpt lat="64.077033997" lon="-19.497198105">
<ele>470.570313</ele>
<time>2012-07-21T19:37:04Z</time>
<speed>1.540000</speed>
<extensions>
<speed>1.5</speed>
<temp>0.00</temp>
<bpm>0</bpm>
<rpm>0.00</rpm>
</extensions>
</trkpt>
<trkpt lat="64.077011108" lon="-19.497037888">
<ele>470.398438</ele>
<time>2012-07-21T19:37:09Z</time>
<speed>1.800000</speed>
<extensions>
<speed>1.8</speed>
<temp>0.00</temp>
<bpm>0</bpm>
<rpm>0.00</rpm>
</extensions>
</trkpt>
<trkpt lat="64.076980591" lon="-19.496852875">
<ele>470.718750</ele>
<time>2012-07-21T19:37:14Z</time>
<speed>1.960000</speed>
<extensions>
<speed>2.0</speed>
<temp>0.00</temp>
<bpm>0</bpm>
<rpm>0.00</rpm>
</extensions>
</trkpt>
<trkpt lat="64.076950073" lon="-19.496683121">
<ele>470.734375</ele>
<time>2012-07-21T19:37:19Z</time>
<speed>1.870000</speed>
<extensions>
<speed>1.9</speed>
<temp>0.00</temp>
<bpm>0</bpm>
<rpm>0.00</rpm>
</extensions>
</trkpt>
<trkpt lat="64.076927185" lon="-19.496524811">
<ele>470.664063</ele>
<time>2012-07-21T19:37:24Z</time>
<speed>1.510000</speed>
<extensions>
<speed>1.5</speed>
<temp>0.00</temp>
<bpm>0</bpm>
<rpm>0.00</rpm>
</extensions>
</trkpt>
<trkpt lat="64.076904297" lon="-19.496364594">
<ele>470.351563</ele>
<time>2012-07-21T19:37:29Z</time>
<speed>1.500000</speed>
<extensions>
<speed>1.5</speed>
<temp>0.00</temp>
<bpm>0</bpm>
<rpm>0.00</rpm>
</extensions>
</trkpt>
<trkpt lat="64.076866150" lon="-19.496202469">
<ele>470.304688</ele>
<time>2012-07-21T19:37:34Z</time>
<speed>1.830000</speed>
<extensions>
<speed>1.8</speed>
<temp>0.00</temp>
<bpm>0</bpm>
<rpm>0.00</rpm>
</extensions>
</trkpt>
<trkpt lat="64.076843262" lon="-19.496026993">
<ele>470.914063</ele>
<time>2012-07-21T19:37:39Z</time>
<speed>1.670000</speed>
<extensions>
<speed>1.7</speed>
<temp>0.00</temp>
<bpm>0</bpm>
<rpm>0.00</rpm>
</extensions>
</trkpt>
<trkpt lat="64.076820374" lon="-19.495862961">
<ele>471.156250</ele>
<time>2012-07-21T19:37:44Z</time>
<speed>1.830000</speed>
<extensions>
<speed>1.8</speed>
<temp>0.00</temp>
<bpm>0</bpm>
<rpm>0.00</rpm>
</extensions>
</trkpt>
<trkpt lat="64.076789856" lon="-19.495689392">
<ele>471.195313</ele>
<time>2012-07-21T19:37:49Z</time>
<speed>1.670000</speed>
<extensions>
<speed>1.7</speed>
<temp>0.00</temp>
<bpm>0</bpm>
<rpm>0.00</rpm>
</extensions>
</trkpt>
<trkpt lat="64.076759338" lon="-19.495532990">
<ele>471.062500</ele>
<time>2012-07-21T19:37:54Z</time>
<speed>1.810000</speed>
<extensions>
<speed>1.8</speed>
<temp>0.00</temp>
<bpm>0</bpm>
<rpm>0.00</rpm>
</extensions>
</trkpt>
<trkpt lat="64.076744080" lon="-19.495363235">
<ele>471.898438</ele>
<time>2012-07-21T19:37:59Z</time>
<speed>1.690000</speed>
<extensions>
<speed>1.7</speed>
<temp>0.00</temp>
<bpm>0</bpm>
<rpm>0.00</rpm>
</extensions>
</trkpt>
<trkpt lat="64.076713562" lon="-19.495216370">
<ele>472.203125</ele>
<time>2012-07-21T19:38:04Z</time>
<speed>1.490000</speed>
<extensions>
<speed>1.5</speed>
<temp>0.00</temp>
<bpm>0</bpm>
<rpm>0.00</rpm>
</extensions>
</trkpt>
<trkpt lat="64.076690674" lon="-19.495092392">
<ele>471.914063</ele>
<time>2012-07-21T19:38:09Z</time>
<speed>1.960000</speed>
<extensions>
<speed>2.0</speed>
<temp>0.00</temp>
<bpm>0</bpm>
<rpm>0.00</rpm>
</extensions>
</trkpt>
<trkpt lat="64.076660156" lon="-19.494916916">
<ele>472.109375</ele>
<time>2012-07-21T19:38:14Z</time>
<speed>1.840000</speed>
<extensions>
<speed>1.8</speed>
<temp>0.00</temp>
<bpm>0</bpm>
<rpm>0.00</rpm>
</extensions>
</trkpt>
<trkpt lat="64.076629639" lon="-19.494743347">
<ele>471.937500</ele>
<time>2012-07-21T19:38:19Z</time>
<speed>1.740000</speed>
<extensions>
<speed>1.7</speed>
<temp>0.00</temp>
<bpm>0</bpm>
<rpm>0.00</rpm>
</extensions>
</trkpt>
<trkpt lat="64.076606750" lon="-19.494653702">
<ele>472.210938</ele>
<time>2012-07-21T19:38:24Z</time>
<speed>0.020000</speed>
<extensions>
<speed>0.0</speed>
<temp>0.00</temp>
<bpm>0</bpm>
<rpm>0.00</rpm>
</extensions>
</trkpt>
<trkpt lat="64.076606750" lon="-19.494651794">
<ele>471.640625</ele>
<time>2012-07-21T19:38:29Z</time>
<speed>0.290000</speed>
<extensions>
<speed>0.3</speed>
<temp>0.00</temp>
<bpm>0</bpm>
<rpm>0.00</rpm>
</extensions>
</trkpt>
<trkpt lat="64.076583862" lon="-19.494562149">
<ele>471.812500</ele>
<time>2012-07-21T19:38:34Z</time>
<speed>1.330000</speed>
<extensions>
<speed>1.3</speed>
<temp>0.00</temp>
<bpm>0</bpm>
<rpm>0.00</rpm>
</extensions>
</trkpt>
<trkpt lat="64.076560974" lon="-19.494453430">
<ele>472.179688</ele>
<time>2012-07-21T19:38:39Z</time>
<speed>1.390000</speed>
<extensions>
<speed>1.4</speed>
<temp>0.00</temp>
<bpm>0</bpm>
<rpm>0.00</rpm>
</extensions>
</trkpt>
<trkpt lat="64.076545715" lon="-19.494350433">
<ele>472.304688</ele>
<time>2012-07-21T19:38:44Z</time>
<speed>1.190000</speed>
<extensions>
<speed>1.2</speed>
<temp>0.00</temp>
<bpm>0</bpm>
<rpm>0.00</rpm>
</extensions>
</trkpt>
<trkpt lat="64.076530457" lon="-19.494264603">
<ele>472.304688</ele>
<time>2012-07-21T19:38:49Z</time>
<speed>0.030000</speed>
<extensions>
<speed>0.0</speed>
<temp>0.00</temp>
<bpm>0</bpm>
<rpm>0.00</rpm>
</extensions>
</trkpt>
<trkpt lat="64.076522827" lon="-19.494272232">
<ele>472.500000</ele>
<time>2012-07-21T19:38:54Z</time>
<speed>0.510000</speed>
<extensions>
<speed>0.5</speed>
<temp>0.00</temp>
<bpm>0</bpm>
<rpm>0.00</rpm>
</extensions>
</trkpt>
<trkpt lat="64.076530457" lon="-19.494199753">
<ele>472.789063</ele>
<time>2012-07-21T19:38:59Z</time>
<speed>0.910000</speed>
<extensions>
<speed>0.9</speed>
<temp>0.00</temp>
<bpm>0</bpm>
<rpm>0.00</rpm>
</extensions>
</trkpt>
<trkpt lat="64.076499939" lon="-19.494081497">
<ele>473.093750</ele>
<time>2012-07-21T19:39:04Z</time>
<speed>1.450000</speed>
<extensions>
<speed>1.4</speed>
<temp>0.00</temp>
<bpm>0</bpm>
<rpm>0.00</rpm>
</extensions>
</trkpt>
<trkpt lat="64.076477051" lon="-19.493946075">
<ele>473.046875</ele>
<time>2012-07-21T19:39:09Z</time>
<speed>1.460000</speed>
<extensions>
<speed>1.5</speed>
<temp>0.00</temp>
<bpm>0</bpm>
<rpm>0.00</rpm>
</extensions>
</trkpt>
<trkpt lat="64.076461792" lon="-19.493814468">
<ele>472.617188</ele>
<time>2012-07-21T19:39:14Z</time>
<speed>1.340000</speed>
<extensions>
<speed>1.3</speed>
<temp>0.00</temp>
<bpm>0</bpm>
<rpm>0.00</rpm>
</extensions>
</trkpt>
<trkpt lat="64.076438904" lon="-19.493677139">
<ele>472.210938</ele>
<time>2012-07-21T19:39:19Z</time>
<speed>1.460000</speed>
<extensions>
<speed>1.5</speed>
<temp>0.00</temp>
<bpm>0</bpm>
<rpm>0.00</rpm>
</extensions>
</trkpt>
<trkpt lat="64.076416016" lon="-19.493522644">
<ele>473.187500</ele>
<time>2012-07-21T19:39:24Z</time>
<speed>1.700000</speed>
<extensions>
<speed>1.7</speed>
<temp>0.00</temp>
<bpm>0</bpm>
<rpm>0.00</rpm>
</extensions>
</trkpt>
<trkpt lat="64.076416016" lon="-19.493415833">
<ele>473.210938</ele>
<time>2012-07-21T19:39:29Z</time>
<speed>1.360000</speed>
<extensions>
<speed>1.4</speed>
<temp>0.00</temp>
<bpm>0</bpm>
<rpm>0.00</rpm>
</extensions>
</trkpt>
<trkpt lat="64.076393127" lon="-19.493143082">
<ele>472.890625</ele>
<time>2012-07-21T19:39:34Z</time>
<speed>3.350000</speed>
<extensions>
<speed>3.4</speed>
<temp>0.00</temp>
<bpm>0</bpm>
<rpm>0.00</rpm>
</extensions>
</trkpt>
<trkpt lat="64.076370239" lon="-19.492872238">
<ele>473.804688</ele>
<time>2012-07-21T19:39:39Z</time>
<speed>1.980000</speed>
<extensions>
<speed>2.0</speed>
<temp>0.00</temp>
<bpm>0</bpm>
<rpm>0.00</rpm>
</extensions>
</trkpt>
<trkpt lat="64.076354980" lon="-19.492694855">
<ele>474.203125</ele>
<time>2012-07-21T19:39:44Z</time>
<speed>1.600000</speed>
<extensions>
<speed>1.6</speed>
<temp>0.00</temp>
<bpm>0</bpm>
<rpm>0.00</rpm>
</extensions>
</trkpt>
<trkpt lat="64.076339722" lon="-19.492525101">
<ele>474.656250</ele>
<time>2012-07-21T19:39:49Z</time>
<speed>1.990000</speed>
<extensions>
<speed>2.0</speed>
<temp>0.00</temp>
<bpm>0</bpm>
<rpm>0.00</rpm>
</extensions>
</trkpt>
<trkpt lat="64.076332092" lon="-19.492332458">
<ele>474.835938</ele>
<time>2012-07-21T19:39:54Z</time>
<speed>1.950000</speed>
<extensions>
<speed>1.9</speed>
<temp>0.00</temp>
<bpm>0</bpm>
<rpm>0.00</rpm>
</extensions>
</trkpt>
<trkpt lat="64.076309204" lon="-19.492179871">
<ele>475.484375</ele>
<time>2012-07-21T19:39:59Z</time>
<speed>1.500000</speed>
<extensions>
<speed>1.5</speed>
<temp>0.00</temp>
<bpm>0</bpm>
<rpm>0.00</rpm>
</extensions>
</trkpt>
<trkpt lat="64.076309204" lon="-19.492034912">
<ele>474.882813</ele>
<time>2012-07-21T19:40:04Z</time>
<speed>1.420000</speed>
<extensions>
<speed>1.4</speed>
<temp>0.00</temp>
<bpm>0</bpm>
<rpm>0.00</rpm>
</extensions>
</trkpt>
<trkpt lat="64.076293945" lon="-19.491865158">
<ele>475.781250</ele>
<time>2012-07-21T19:40:09Z</time>
<speed>1.670000</speed>
<extensions>
<speed>1.7</speed>
<temp>0.00</temp>
<bpm>0</bpm>
<rpm>0.00</rpm>
</extensions>
</trkpt>
<trkpt lat="64.076293945" lon="-19.491722107">
<ele>476.343750</ele>
<time>2012-07-21T19:40:14Z</time>
<speed>1.140000</speed>
<extensions>
<speed>1.1</speed>
<temp>0.00</temp>
<bpm>0</bpm>
<rpm>0.00</rpm>
</extensions>
</trkpt>
<trkpt lat="64.076286316" lon="-19.491571426">
<ele>476.289063</ele>
<time>2012-07-21T19:40:19Z</time>
<speed>1.710000</speed>
<extensions>
<speed>1.7</speed>
<temp>0.00</temp>
<bpm>0</bpm>
<rpm>0.00</rpm>
</extensions>
</trkpt>
<trkpt lat="64.076301575" lon="-19.491434097">
<ele>476.187500</ele>
<time>2012-07-21T19:40:24Z</time>
<speed>1.370000</speed>
<extensions>
<speed>1.4</speed>
<temp>0.00</temp>
<bpm>0</bpm>
<rpm>0.00</rpm>
</extensions>
</trkpt>
<trkpt lat="64.076293945" lon="-19.491260529">
<ele>476.343750</ele>
<time>2012-07-21T19:40:29Z</time>
<speed>1.760000</speed>
<extensions>
<speed>1.8</speed>
<temp>0.00</temp>
<bpm>0</bpm>
<rpm>0.00</rpm>
</extensions>
</trkpt>
<trkpt lat="64.076301575" lon="-19.491077423">
<ele>476.640625</ele>
<time>2012-07-21T19:40:34Z</time>
<speed>1.770000</speed>
<extensions>
<speed>1.8</speed>
<temp>0.00</temp>
<bpm>0</bpm>
<rpm>0.00</rpm>
</extensions>
</trkpt>
<trkpt lat="64.076316833" lon="-19.490882874">
<ele>477.078125</ele>
<time>2012-07-21T19:40:39Z</time>
<speed>1.570000</speed>
<extensions>
<speed>1.6</speed>
<temp>0.00</temp>
<bpm>0</bpm>
<rpm>0.00</rpm>
</extensions>
</trkpt>
<trkpt lat="64.076324463" lon="-19.490755081">
<ele>476.539063</ele>
<time>2012-07-21T19:40:44Z</time>
<speed>1.620000</speed>
<extensions>
<speed>1.6</speed>
<temp>0.00</temp>
<bpm>0</bpm>
<rpm>0.00</rpm>
</extensions>
</trkpt>
<trkpt lat="64.076347351" lon="-19.490579605">
<ele>475.281250</ele>
<time>2012-07-21T19:40:49Z</time>
<speed>1.580000</speed>
<extensions>
<speed>1.6</speed>
<temp>0.00</temp>
<bpm>0</bpm>
<rpm>0.00</rpm>
</extensions>
</trkpt>
<trkpt lat="64.076347351" lon="-19.490409851">
<ele>474.859375</ele>
<time>2012-07-21T19:40:54Z</time>
<speed>1.860000</speed>
<extensions>
<speed>1.9</speed>
<temp>0.00</temp>
<bpm>0</bpm>
<rpm>0.00</rpm>
</extensions>
</trkpt>
<trkpt lat="64.076332092" lon="-19.490243912">
<ele>474.742188</ele>
<time>2012-07-21T19:40:59Z</time>
<speed>1.790000</speed>
<extensions>
<speed>1.8</speed>
<temp>0.00</temp>
<bpm>0</bpm>
<rpm>0.00</rpm>
</extensions>
</trkpt>
<trkpt lat="64.076316833" lon="-19.490091324">
<ele>475.375000</ele>
<time>2012-07-21T19:41:04Z</time>
<speed>1.040000</speed>
<extensions>
<speed>1.0</speed>
<temp>0.00</temp>
<bpm>0</bpm>
<rpm>0.00</rpm>
</extensions>
</trkpt>
<trkpt lat="64.076286316" lon="-19.489973068">
<ele>474.992188</ele>
<time>2012-07-21T19:41:09Z</time>
<speed>1.550000</speed>
<extensions>
<speed>1.5</speed>
<temp>0.00</temp>
<bpm>0</bpm>
<rpm>0.00</rpm>
</extensions>
</trkpt>
<trkpt lat="64.076263428" lon="-19.489837646">
<ele>475.890625</ele>
<time>2012-07-21T19:41:14Z</time>
<speed>1.630000</speed>
<extensions>
<speed>1.6</speed>
<temp>0.00</temp>
<bpm>0</bpm>
<rpm>0.00</rpm>
</extensions>
</trkpt>
<trkpt lat="64.076232910" lon="-19.489686966">
<ele>477.640625</ele>
<time>2012-07-21T19:41:19Z</time>
<speed>1.310000</speed>
<extensions>
<speed>1.3</speed>
<temp>0.00</temp>
<bpm>0</bpm>
<rpm>0.00</rpm>
</extensions>
</trkpt>
<trkpt lat="64.076202393" lon="-19.489528656">
<ele>478.632813</ele>
<time>2012-07-21T19:41:24Z</time>
<speed>1.740000</speed>
<extensions>
<speed>1.7</speed>
<temp>0.00</temp>
<bpm>0</bpm>
<rpm>0.00</rpm>
</extensions>
</trkpt>
<trkpt lat="64.076171875" lon="-19.489366531">
<ele>479.820313</ele>
<time>2012-07-21T19:41:29Z</time>
<speed>1.770000</speed>
<extensions>
<speed>1.8</speed>
<temp>0.00</temp>
<bpm>0</bpm>
<rpm>0.00</rpm>
</extensions>
</trkpt>
<trkpt lat="64.076148987" lon="-19.489244461">
<ele>479.070313</ele>
<time>2012-07-21T19:41:34Z</time>
<speed>1.590000</speed>
<extensions>
<speed>1.6</speed>
<temp>0.00</temp>
<bpm>0</bpm>
<rpm>0.00</rpm>
</extensions>
</trkpt>
<trkpt lat="64.076126099" lon="-19.489105225">
<ele>479.234375</ele>
<time>2012-07-21T19:41:39Z</time>
<speed>1.650000</speed>
<extensions>
<speed>1.7</speed>
<temp>0.00</temp>
<bpm>0</bpm>
<rpm>0.00</rpm>
</extensions>
</trkpt>
<trkpt lat="64.076095581" lon="-19.488965988">
<ele>480.078125</ele>
<time>2012-07-21T19:41:44Z</time>
<speed>1.370000</speed>
<extensions>
<speed>1.4</speed>
<temp>0.00</temp>
<bpm>0</bpm>
<rpm>0.00</rpm>
</extensions>
</trkpt>
<trkpt lat="64.076072693" lon="-19.488828659">
<ele>479.804688</ele>
<time>2012-07-21T19:41:49Z</time>
<speed>1.380000</speed>
<extensions>
<speed>1.4</speed>
<temp>0.00</temp>
<bpm>0</bpm>
<rpm>0.00</rpm>
</extensions>
</trkpt>
<trkpt lat="64.076057434" lon="-19.488674164">
<ele>481.031250</ele>
<time>2012-07-21T19:41:54Z</time>
<speed>1.940000</speed>
<extensions>
<speed>1.9</speed>
<temp>0.00</temp>
<bpm>0</bpm>
<rpm>0.00</rpm>
</extensions>
</trkpt>
<trkpt lat="64.076019287" lon="-19.488487244">
<ele>482.312500</ele>
<time>2012-07-21T19:41:59Z</time>
<speed>1.820000</speed>
<extensions>
<speed>1.8</speed>
<temp>0.00</temp>
<bpm>0</bpm>
<rpm>0.00</rpm>
</extensions>
</trkpt>
<trkpt lat="64.075988770" lon="-19.488307953">
<ele>482.085938</ele>
<time>2012-07-21T19:42:04Z</time>
<speed>1.510000</speed>
<extensions>
<speed>1.5</speed>
<temp>0.00</temp>
<bpm>0</bpm>
<rpm>0.00</rpm>
</extensions>
</trkpt>
<trkpt lat="64.075973511" lon="-19.488162994">
<ele>482.937500</ele>
<time>2012-07-21T19:42:09Z</time>
<speed>1.700000</speed>
<extensions>
<speed>1.7</speed>
<temp>0.00</temp>
<bpm>0</bpm>
<rpm>0.00</rpm>
</extensions>
</trkpt>
<trkpt lat="64.075958252" lon="-19.488012314">
<ele>483.320313</ele>
<time>2012-07-21T19:42:14Z</time>
<speed>1.610000</speed>
<extensions>
<speed>1.6</speed>
<temp>0.00</temp>
<bpm>0</bpm>
<rpm>0.00</rpm>
</extensions>
</trkpt>
<trkpt lat="64.075942993" lon="-19.487846375">
<ele>482.671875</ele>
<time>2012-07-21T19:42:19Z</time>
<speed>1.800000</speed>
<extensions>
<speed>1.8</speed>
<temp>0.00</temp>
<bpm>0</bpm>
<rpm>0.00</rpm>
</extensions>
</trkpt>
<trkpt lat="64.075920105" lon="-19.487686157">
<ele>483.578125</ele>
<time>2012-07-21T19:42:24Z</time>
<speed>1.790000</speed>
<extensions>
<speed>1.8</speed>
<temp>0.00</temp>
<bpm>0</bpm>
<rpm>0.00</rpm>
</extensions>
</trkpt>
<trkpt lat="64.075904846" lon="-19.487506866">
<ele>484.070313</ele>
<time>2012-07-21T19:42:29Z</time>
<speed>1.800000</speed>
<extensions>
<speed>1.8</speed>
<temp>0.00</temp>
<bpm>0</bpm>
<rpm>0.00</rpm>
</extensions>
</trkpt>
<trkpt lat="64.075881958" lon="-19.487331390">
<ele>484.640625</ele>
<time>2012-07-21T19:42:34Z</time>
<speed>1.680000</speed>
<extensions>
<speed>1.7</speed>
<temp>0.00</temp>
<bpm>0</bpm>
<rpm>0.00</rpm>
</extensions>
</trkpt>
<trkpt lat="64.075866699" lon="-19.487176895">
<ele>485.453125</ele>
<time>2012-07-21T19:42:39Z</time>
<speed>1.700000</speed>
<extensions>
<speed>1.7</speed>
<temp>0.00</temp>
<bpm>0</bpm>
<rpm>0.00</rpm>
</extensions>
</trkpt>
<trkpt lat="64.075843811" lon="-19.487014771">
<ele>484.859375</ele>
<time>2012-07-21T19:42:44Z</time>
<speed>1.730000</speed>
<extensions>
<speed>1.7</speed>
<temp>0.00</temp>
<bpm>0</bpm>
<rpm>0.00</rpm>
</extensions>
</trkpt>
<trkpt lat="64.075828552" lon="-19.486854553">
<ele>484.656250</ele>
<time>2012-07-21T19:42:49Z</time>
<speed>1.460000</speed>
<extensions>
<speed>1.5</speed>
<temp>0.00</temp>
<bpm>0</bpm>
<rpm>0.00</rpm>
</extensions>
</trkpt>
<trkpt lat="64.075805664" lon="-19.486713409">
<ele>484.703125</ele>
<time>2012-07-21T19:42:54Z</time>
<speed>1.480000</speed>
<extensions>
<speed>1.5</speed>
<temp>0.00</temp>
<bpm>0</bpm>
<rpm>0.00</rpm>
</extensions>
</trkpt>
<trkpt lat="64.075782776" lon="-19.486558914">
<ele>484.953125</ele>
<time>2012-07-21T19:42:59Z</time>
<speed>1.660000</speed>
<extensions>
<speed>1.7</speed>
<temp>0.00</temp>
<bpm>0</bpm>
<rpm>0.00</rpm>
</extensions>
</trkpt>
<trkpt lat="64.075759888" lon="-19.486412048">
<ele>484.054688</ele>
<time>2012-07-21T19:43:04Z</time>
<speed>1.570000</speed>
<extensions>
<speed>1.6</speed>
<temp>0.00</temp>
<bpm>0</bpm>
<rpm>0.00</rpm>
</extensions>
</trkpt>
<trkpt lat="64.075737000" lon="-19.486236572">
<ele>484.335938</ele>
<time>2012-07-21T19:43:09Z</time>
<speed>1.940000</speed>
<extensions>
<speed>1.9</speed>
<temp>0.00</temp>
<bpm>0</bpm>
<rpm>0.00</rpm>
</extensions>
</trkpt>
<trkpt lat="64.075714111" lon="-19.486074448">
<ele>484.718750</ele>
<time>2012-07-21T19:43:14Z</time>
<speed>1.430000</speed>
<extensions>
<speed>1.4</speed>
<temp>0.00</temp>
<bpm>0</bpm>
<rpm>0.00</rpm>
</extensions>
</trkpt>
<trkpt lat="64.075691223" lon="-19.485919952">
<ele>485.445313</ele>
<time>2012-07-21T19:43:19Z</time>
<speed>1.620000</speed>
<extensions>
<speed>1.6</speed>
<temp>0.00</temp>
<bpm>0</bpm>
<rpm>0.00</rpm>
</extensions>
</trkpt>
<trkpt lat="64.075660706" lon="-19.485755920">
<ele>484.968750</ele>
<time>2012-07-21T19:43:24Z</time>
<speed>1.810000</speed>
<extensions>
<speed>1.8</speed>
<temp>0.00</temp>
<bpm>0</bpm>
<rpm>0.00</rpm>
</extensions>
</trkpt>
<trkpt lat="64.075637817" lon="-19.485609055">
<ele>484.757813</ele>
<time>2012-07-21T19:43:29Z</time>
<speed>1.860000</speed>
<extensions>
<speed>1.9</speed>
<temp>0.00</temp>
<bpm>0</bpm>
<rpm>0.00</rpm>
</extensions>
</trkpt>
<trkpt lat="64.075614929" lon="-19.485420227">
<ele>485.320313</ele>
<time>2012-07-21T19:43:34Z</time>
<speed>1.880000</speed>
<extensions>
<speed>1.9</speed>
<temp>0.00</temp>
<bpm>0</bpm>
<rpm>0.00</rpm>
</extensions>
</trkpt>
<trkpt lat="64.075592041" lon="-19.485246658">
<ele>484.906250</ele>
<time>2012-07-21T19:43:39Z</time>
<speed>1.210000</speed>
<extensions>
<speed>1.2</speed>
<temp>0.00</temp>
<bpm>0</bpm>
<rpm>0.00</rpm>
</extensions>
</trkpt>
<trkpt lat="64.075569153" lon="-19.485120773">
<ele>484.796875</ele>
<time>2012-07-21T19:43:44Z</time>
<speed>1.780000</speed>
<extensions>
<speed>1.8</speed>
<temp>0.00</temp>
<bpm>0</bpm>
<rpm>0.00</rpm>
</extensions>
</trkpt>
<trkpt lat="64.075546265" lon="-19.484941483">
<ele>484.320313</ele>
<time>2012-07-21T19:43:49Z</time>
<speed>1.770000</speed>
<extensions>
<speed>1.8</speed>
<temp>0.00</temp>
<bpm>0</bpm>
<rpm>0.00</rpm>
</extensions>
</trkpt>
<trkpt lat="64.075523376" lon="-19.484769821">
<ele>483.695313</ele>
<time>2012-07-21T19:43:54Z</time>
<speed>1.500000</speed>
<extensions>
<speed>1.5</speed>
<temp>0.00</temp>
<bpm>0</bpm>
<rpm>0.00</rpm>
</extensions>
</trkpt>
<trkpt lat="64.075500488" lon="-19.484626770">
<ele>483.804688</ele>
<time>2012-07-21T19:43:59Z</time>
<speed>1.480000</speed>
<extensions>
<speed>1.5</speed>
<temp>0.00</temp>
<bpm>0</bpm>
<rpm>0.00</rpm>
</extensions>
</trkpt>
<trkpt lat="64.075477600" lon="-19.484468460">
<ele>483.679688</ele>
<time>2012-07-21T19:44:04Z</time>
<speed>1.560000</speed>
<extensions>
<speed>1.6</speed>
<temp>0.00</temp>
<bpm>0</bpm>
<rpm>0.00</rpm>
</extensions>
</trkpt>
<trkpt lat="64.075454712" lon="-19.484321594">
<ele>483.828125</ele>
<time>2012-07-21T19:44:09Z</time>
<speed>1.500000</speed>
<extensions>
<speed>1.5</speed>
<temp>0.00</temp>
<bpm>0</bpm>
<rpm>0.00</rpm>
</extensions>
</trkpt>
<trkpt lat="64.075439453" lon="-19.484184265">
<ele>484.179688</ele>
<time>2012-07-21T19:44:14Z</time>
<speed>1.610000</speed>
<extensions>
<speed>1.6</speed>
<temp>0.00</temp>
<bpm>0</bpm>
<rpm>0.00</rpm>
</extensions>
</trkpt>
<trkpt lat="64.075408936" lon="-19.484012604">
<ele>484.398438</ele>
<time>2012-07-21T19:44:19Z</time>
<speed>1.880000</speed>
<extensions>
<speed>1.9</speed>
<temp>0.00</temp>
<bpm>0</bpm>
<rpm>0.00</rpm>
</extensions>
</trkpt>
<trkpt lat="64.075393677" lon="-19.483827591">
<ele>484.398438</ele>
<time>2012-07-21T19:44:24Z</time>
<speed>1.770000</speed>
<extensions>
<speed>1.8</speed>
<temp>0.00</temp>
<bpm>0</bpm>
<rpm>0.00</rpm>
</extensions>
</trkpt>
<trkpt lat="64.075363159" lon="-19.483638763">
<ele>484.726563</ele>
<time>2012-07-21T19:44:29Z</time>
<speed>1.740000</speed>
<extensions>
<speed>1.7</speed>
<temp>0.00</temp>
<bpm>0</bpm>
<rpm>0.00</rpm>
</extensions>
</trkpt>
<trkpt lat="64.075332642" lon="-19.483476639">
<ele>484.695313</ele>
<time>2012-07-21T19:44:34Z</time>
<speed>1.880000</speed>
<extensions>
<speed>1.9</speed>
<temp>0.00</temp>
<bpm>0</bpm>
<rpm>0.00</rpm>
</extensions>
</trkpt>
<trkpt lat="64.075317383" lon="-19.483415604">
<ele>484.000000</ele>
<time>2012-07-21T19:44:39Z</time>
<speed>0.030000</speed>
<extensions>
<speed>0.0</speed>
<temp>0.00</temp>
<bpm>0</bpm>
<rpm>0.00</rpm>
</extensions>
</trkpt>
<trkpt lat="64.075317383" lon="-19.483415604">
<ele>483.796875</ele>
<time>2012-07-21T19:44:44Z</time>
<extensions>
<speed>0.0</speed>
<temp>0.00</temp>
<bpm>0</bpm>
<rpm>0.00</rpm>
</extensions>
</trkpt>
<trkpt lat="64.075309753" lon="-19.483417511">
<ele>483.765625</ele>
<time>2012-07-21T19:44:49Z</time>
<speed>0.020000</speed>
<extensions>
<speed>0.0</speed>
<temp>0.00</temp>
<bpm>0</bpm>
<rpm>0.00</rpm>
</extensions>
</trkpt>
<trkpt lat="64.075302124" lon="-19.483350754">
<ele>483.492188</ele>
<time>2012-07-21T19:44:54Z</time>
<speed>1.250000</speed>
<extensions>
<speed>1.3</speed>
<temp>0.00</temp>
<bpm>0</bpm>
<rpm>0.00</rpm>
</extensions>
</trkpt>
<trkpt lat="64.075271606" lon="-19.483182907">
<ele>483.156250</ele>
<time>2012-07-21T19:44:59Z</time>
<speed>1.510000</speed>
<extensions>
<speed>1.5</speed>
<temp>0.00</temp>
<bpm>0</bpm>
<rpm>0.00</rpm>
</extensions>
</trkpt>
<trkpt lat="64.075241089" lon="-19.483013153">
<ele>482.906250</ele>
<time>2012-07-21T19:45:04Z</time>
<speed>1.280000</speed>
<extensions>
<speed>1.3</speed>
<temp>0.00</temp>
<bpm>0</bpm>
<rpm>0.00</rpm>
</extensions>
</trkpt>
<trkpt lat="64.075218201" lon="-19.482872009">
<ele>482.945313</ele>
<time>2012-07-21T19:45:09Z</time>
<speed>1.960000</speed>
<extensions>
<speed>2.0</speed>
<temp>0.00</temp>
<bpm>0</bpm>
<rpm>0.00</rpm>
</extensions>
</trkpt>
<trkpt lat="64.075180054" lon="-19.482690811">
<ele>482.585938</ele>
<time>2012-07-21T19:45:14Z</time>
<speed>2.060000</speed>
<extensions>
<speed>2.1</speed>
<temp>0.00</temp>
<bpm>0</bpm>
<rpm>0.00</rpm>
</extensions>
</trkpt>
<trkpt lat="64.075141907" lon="-19.482505798">
<ele>482.617188</ele>
<time>2012-07-21T19:45:19Z</time>
<speed>2.140000</speed>
<extensions>
<speed>2.1</speed>
<temp>0.00</temp>
<bpm>0</bpm>
<rpm>0.00</rpm>
</extensions>
</trkpt>
<trkpt lat="64.075103760" lon="-19.482307434">
<ele>482.851563</ele>
<time>2012-07-21T19:45:24Z</time>
<speed>1.720000</speed>
<extensions>
<speed>1.7</speed>
<temp>0.00</temp>
<bpm>0</bpm>
<rpm>0.00</rpm>
</extensions>
</trkpt>
<trkpt lat="64.075065613" lon="-19.482126236">
<ele>482.960938</ele>
<time>2012-07-21T19:45:29Z</time>
<speed>2.130000</speed>
<extensions>
<speed>2.1</speed>
<temp>0.00</temp>
<bpm>0</bpm>
<rpm>0.00</rpm>
</extensions>
</trkpt>
<trkpt lat="64.075027466" lon="-19.481962204">
<ele>483.101563</ele>
<time>2012-07-21T19:45:34Z</time>
<speed>1.450000</speed>
<extensions>
<speed>1.4</speed>
<temp>0.00</temp>
<bpm>0</bpm>
<rpm>0.00</rpm>
</extensions>
</trkpt>
<trkpt lat="64.074974060" lon="-19.481761932">
<ele>482.695313</ele>
<time>2012-07-21T19:45:39Z</time>
<speed>2.550000</speed>
<extensions>
<speed>2.6</speed>
<temp>0.00</temp>
<bpm>0</bpm>
<rpm>0.00</rpm>
</extensions>
</trkpt>
<trkpt lat="64.074928284" lon="-19.481544495">
<ele>482.468750</ele>
<time>2012-07-21T19:45:44Z</time>
<speed>2.280000</speed>
<extensions>
<speed>2.3</speed>
<temp>0.00</temp>
<bpm>0</bpm>
<rpm>0.00</rpm>
</extensions>
</trkpt>
<trkpt lat="64.074874878" lon="-19.481327057">
<ele>482.421875</ele>
<time>2012-07-21T19:45:49Z</time>
<speed>2.410000</speed>
<extensions>
<speed>2.4</speed>
<temp>0.00</temp>
<bpm>0</bpm>
<rpm>0.00</rpm>
</extensions>
</trkpt>
<trkpt lat="64.074821472" lon="-19.481117249">
<ele>482.546875</ele>
<time>2012-07-21T19:45:54Z</time>
<speed>2.270000</speed>
<extensions>
<speed>2.3</speed>
<temp>0.00</temp>
<bpm>0</bpm>
<rpm>0.00</rpm>
</extensions>
</trkpt>
<trkpt lat="64.074783325" lon="-19.480960846">
<ele>482.734375</ele>
<time>2012-07-21T19:45:59Z</time>
<speed>2.180000</speed>
<extensions>
<speed>2.2</speed>
<temp>0.00</temp>
<bpm>0</bpm>
<rpm>0.00</rpm>
</extensions>
</trkpt>
<trkpt lat="64.074729919" lon="-19.480764389">
<ele>482.921875</ele>
<time>2012-07-21T19:46:04Z</time>
<speed>2.250000</speed>
<extensions>
<speed>2.3</speed>
<temp>0.00</temp>
<bpm>0</bpm>
<rpm>0.00</rpm>
</extensions>
</trkpt>
<trkpt lat="64.074684143" lon="-19.480571747">
<ele>482.695313</ele>
<time>2012-07-21T19:46:09Z</time>
<speed>1.410000</speed>
<extensions>
<speed>1.4</speed>
<temp>0.00</temp>
<bpm>0</bpm>
<rpm>0.00</rpm>
</extensions>
</trkpt>
<trkpt lat="64.074645996" lon="-19.480432510">
<ele>482.507813</ele>
<time>2012-07-21T19:46:14Z</time>
<speed>2.160000</speed>
<extensions>
<speed>2.2</speed>
<temp>0.00</temp>
<bpm>0</bpm>
<rpm>0.00</rpm>
</extensions>
</trkpt>
<trkpt lat="64.074592590" lon="-19.480236053">
<ele>482.421875</ele>
<time>2012-07-21T19:46:19Z</time>
<speed>2.150000</speed>
<extensions>
<speed>2.1</speed>
<temp>0.00</temp>
<bpm>0</bpm>
<rpm>0.00</rpm>
</extensions>
</trkpt>
<trkpt lat="64.074539185" lon="-19.480045319">
<ele>482.531250</ele>
<time>2012-07-21T19:46:24Z</time>
<speed>2.120000</speed>
<extensions>
<speed>2.1</speed>
<temp>0.00</temp>
<bpm>0</bpm>
<rpm>0.00</rpm>
</extensions>
</trkpt>
<trkpt lat="64.074485779" lon="-19.479831696">
<ele>482.945313</ele>
<time>2012-07-21T19:46:29Z</time>
<speed>1.470000</speed>
<extensions>
<speed>1.5</speed>
<temp>0.00</temp>
<bpm>0</bpm>
<rpm>0.00</rpm>
</extensions>
</trkpt>
<trkpt lat="64.074478149" lon="-19.479787827">
<ele>482.640625</ele>
<time>2012-07-21T19:46:34Z</time>
<speed>0.070000</speed>
<extensions>
<speed>0.1</speed>
<temp>0.00</temp>
<bpm>0</bpm>
<rpm>0.00</rpm>
</extensions>
</trkpt>
<trkpt lat="64.074447632" lon="-19.479713440">
<ele>482.640625</ele>
<time>2012-07-21T19:46:39Z</time>
<speed>1.990000</speed>
<extensions>
<speed>2.0</speed>
<temp>0.00</temp>
<bpm>0</bpm>
<rpm>0.00</rpm>
</extensions>
</trkpt>
<trkpt lat="64.074394226" lon="-19.479524612">
<ele>482.859375</ele>
<time>2012-07-21T19:46:44Z</time>
<speed>2.300000</speed>
<extensions>
<speed>2.3</speed>
<temp>0.00</temp>
<bpm>0</bpm>
<rpm>0.00</rpm>
</extensions>
</trkpt>
<trkpt lat="64.074333191" lon="-19.479322433">
<ele>485.289063</ele>
<time>2012-07-21T19:46:49Z</time>
<speed>2.280000</speed>
<extensions>
<speed>2.3</speed>
<temp>0.00</temp>
<bpm>0</bpm>
<rpm>0.00</rpm>
</extensions>
</trkpt>
<trkpt lat="64.074279785" lon="-19.479150772">
<ele>485.750000</ele>
<time>2012-07-21T19:46:54Z</time>
<speed>2.160000</speed>
<extensions>
<speed>2.2</speed>
<temp>0.00</temp>
<bpm>0</bpm>
<rpm>0.00</rpm>
</extensions>
</trkpt>
<trkpt lat="64.074218750" lon="-19.478971481">
<ele>485.812500</ele>
<time>2012-07-21T19:46:59Z</time>
<speed>2.250000</speed>
<extensions>
<speed>2.3</speed>
<temp>0.00</temp>
<bpm>0</bpm>
<rpm>0.00</rpm>
</extensions>
</trkpt>
<trkpt lat="64.074157715" lon="-19.478801727">
<ele>485.937500</ele>
<time>2012-07-21T19:47:04Z</time>
<speed>2.160000</speed>
<extensions>
<speed>2.2</speed>
<temp>0.00</temp>
<bpm>0</bpm>
<rpm>0.00</rpm>
</extensions>
</trkpt>
<trkpt lat="64.074111938" lon="-19.478652954">
<ele>486.015625</ele>
<time>2012-07-21T19:47:09Z</time>
<speed>1.220000</speed>
<extensions>
<speed>1.2</speed>
<temp>0.00</temp>
<bpm>0</bpm>
<rpm>0.00</rpm>
</extensions>
</trkpt>
<trkpt lat="64.074104309" lon="-19.478633881">
<ele>486.281250</ele>
<time>2012-07-21T19:47:14Z</time>
<speed>0.010000</speed>
<extensions>
<speed>0.0</speed>
<temp>0.00</temp>
<bpm>0</bpm>
<rpm>0.00</rpm>
</extensions>
</trkpt>
<trkpt lat="64.074096680" lon="-19.478630066">
<ele>485.226563</ele>
<time>2012-07-21T19:47:19Z</time>
<speed>0.030000</speed>
<extensions>
<speed>0.0</speed>
<temp>0.00</temp>
<bpm>0</bpm>
<rpm>0.00</rpm>
</extensions>
</trkpt>
<trkpt lat="64.074096680" lon="-19.478631973">
<ele>484.976563</ele>
<time>2012-07-21T19:47:24Z</time>
<speed>0.050000</speed>
<extensions>
<speed>0.1</speed>
<temp>0.00</temp>
<bpm>0</bpm>
<rpm>0.00</rpm>
</extensions>
</trkpt>
<trkpt lat="64.074096680" lon="-19.478631973">
<ele>484.921875</ele>
<time>2012-07-21T19:47:29Z</time>
<speed>0.030000</speed>
<extensions>
<speed>0.0</speed>
<temp>0.00</temp>
<bpm>0</bpm>
<rpm>0.00</rpm>
</extensions>
</trkpt>
<trkpt lat="64.074066162" lon="-19.478584290">
<ele>485.023438</ele>
<time>2012-07-21T19:47:34Z</time>
<speed>1.100000</speed>
<extensions>
<speed>1.1</speed>
<temp>0.00</temp>
<bpm>0</bpm>
<rpm>0.00</rpm>
</extensions>
</trkpt>
<trkpt lat="64.074035645" lon="-19.478519440">
<ele>485.015625</ele>
<time>2012-07-21T19:47:39Z</time>
<speed>1.190000</speed>
<extensions>
<speed>1.2</speed>
<temp>0.00</temp>
<bpm>0</bpm>
<rpm>0.00</rpm>
</extensions>
</trkpt>
<trkpt lat="64.074005127" lon="-19.478414536">
<ele>484.648438</ele>
<time>2012-07-21T19:47:44Z</time>
<speed>1.150000</speed>
<extensions>
<speed>1.1</speed>
<temp>0.00</temp>
<bpm>0</bpm>
<rpm>0.00</rpm>
</extensions>
</trkpt>
<trkpt lat="64.073966980" lon="-19.478311539">
<ele>485.023438</ele>
<time>2012-07-21T19:47:49Z</time>
<speed>1.290000</speed>
<extensions>
<speed>1.3</speed>
<temp>0.00</temp>
<bpm>0</bpm>
<rpm>0.00</rpm>
</extensions>
</trkpt>
<trkpt lat="64.073928833" lon="-19.478216171">
<ele>485.140625</ele>
<time>2012-07-21T19:47:54Z</time>
<speed>1.140000</speed>
<extensions>
<speed>1.1</speed>
<temp>0.00</temp>
<bpm>0</bpm>
<rpm>0.00</rpm>
</extensions>
</trkpt>
<trkpt lat="64.073898315" lon="-19.478109360">
<ele>485.257813</ele>
<time>2012-07-21T19:47:59Z</time>
<speed>1.350000</speed>
<extensions>
<speed>1.4</speed>
<temp>0.00</temp>
<bpm>0</bpm>
<rpm>0.00</rpm>
</extensions>
</trkpt>
<trkpt lat="64.073860168" lon="-19.478013992">
<ele>484.859375</ele>
<time>2012-07-21T19:48:04Z</time>
<speed>1.190000</speed>
<extensions>
<speed>1.2</speed>
<temp>0.00</temp>
<bpm>0</bpm>
<rpm>0.00</rpm>
</extensions>
</trkpt>
<trkpt lat="64.073829651" lon="-19.477914810">
<ele>484.445313</ele>
<time>2012-07-21T19:48:09Z</time>
<speed>0.890000</speed>
<extensions>
<speed>0.9</speed>
<temp>0.00</temp>
<bpm>0</bpm>
<rpm>0.00</rpm>
</extensions>
</trkpt>
<trkpt lat="64.073814392" lon="-19.477857590">
<ele>484.804688</ele>
<time>2012-07-21T19:48:14Z</time>
<speed>1.440000</speed>
<extensions>
<speed>1.4</speed>
<temp>0.00</temp>
<bpm>0</bpm>
<rpm>0.00</rpm>
</extensions>
</trkpt>
<trkpt lat="64.073799133" lon="-19.477777481">
<ele>484.414063</ele>
<time>2012-07-21T19:48:19Z</time>
<speed>0.010000</speed>
<extensions>
<speed>0.0</speed>
<temp>0.00</temp>
<bpm>0</bpm>
<rpm>0.00</rpm>
</extensions>
</trkpt>
<trkpt lat="64.073799133" lon="-19.477785110">
<ele>484.484375</ele>
<time>2012-07-21T19:48:24Z</time>
<speed>0.010000</speed>
<extensions>
<speed>0.0</speed>
<temp>0.00</temp>
<bpm>0</bpm>
<rpm>0.00</rpm>
</extensions>
</trkpt>
<trkpt lat="64.073799133" lon="-19.477785110">
<ele>484.468750</ele>
<time>2012-07-21T19:48:29Z</time>
<speed>0.020000</speed>
<extensions>
<speed>0.0</speed>
<temp>0.00</temp>
<bpm>0</bpm>
<rpm>0.00</rpm>
</extensions>
</trkpt>
<trkpt lat="64.073799133" lon="-19.477777481">
<ele>484.593750</ele>
<time>2012-07-21T19:48:34Z</time>
<speed>1.030000</speed>
<extensions>
<speed>1.0</speed>
<temp>0.00</temp>
<bpm>0</bpm>
<rpm>0.00</rpm>
</extensions>
</trkpt>
<trkpt lat="64.073768616" lon="-19.477657318">
<ele>484.273438</ele>
<time>2012-07-21T19:48:39Z</time>
<speed>1.200000</speed>
<extensions>
<speed>1.2</speed>
<temp>0.00</temp>
<bpm>0</bpm>
<rpm>0.00</rpm>
</extensions>
</trkpt>
<trkpt lat="64.073730469" lon="-19.477531433">
<ele>483.843750</ele>
<time>2012-07-21T19:48:44Z</time>
<speed>1.590000</speed>
<extensions>
<speed>1.6</speed>
<temp>0.00</temp>
<bpm>0</bpm>
<rpm>0.00</rpm>
</extensions>
</trkpt>
<trkpt lat="64.073692322" lon="-19.477415085">
<ele>482.695313</ele>
<time>2012-07-21T19:48:49Z</time>
<speed>1.360000</speed>
<extensions>
<speed>1.4</speed>
<temp>0.00</temp>
<bpm>0</bpm>
<rpm>0.00</rpm>
</extensions>
</trkpt>
<trkpt lat="64.073669434" lon="-19.477289200">
<ele>482.382813</ele>
<time>2012-07-21T19:48:54Z</time>
<speed>1.500000</speed>
<extensions>
<speed>1.5</speed>
<temp>0.00</temp>
<bpm>0</bpm>
<rpm>0.00</rpm>
</extensions>
</trkpt>
<trkpt lat="64.073638916" lon="-19.477170944">
<ele>482.148438</ele>
<time>2012-07-21T19:48:59Z</time>
<speed>1.430000</speed>
<extensions>
<speed>1.4</speed>
<temp>0.00</temp>
<bpm>0</bpm>
<rpm>0.00</rpm>
</extensions>
</trkpt>
<trkpt lat="64.073616028" lon="-19.477043152">
<ele>481.812500</ele>
<time>2012-07-21T19:49:04Z</time>
<speed>1.310000</speed>
<extensions>
<speed>1.3</speed>
<temp>0.00</temp>
<bpm>0</bpm>
<rpm>0.00</rpm>
</extensions>
</trkpt>
<trkpt lat="64.073600769" lon="-19.476942062">
<ele>481.695313</ele>
<time>2012-07-21T19:49:09Z</time>
<speed>1.190000</speed>
<extensions>
<speed>1.2</speed>
<temp>0.00</temp>
<bpm>0</bpm>
<rpm>0.00</rpm>
</extensions>
</trkpt>
<trkpt lat="64.073585510" lon="-19.476831436">
<ele>481.875000</ele>
<time>2012-07-21T19:49:14Z</time>
<speed>1.310000</speed>
<extensions>
<speed>1.3</speed>
<temp>0.00</temp>
<bpm>0</bpm>
<rpm>0.00</rpm>
</extensions>
</trkpt>
<trkpt lat="64.073570251" lon="-19.476692200">
<ele>481.968750</ele>
<time>2012-07-21T19:49:19Z</time>
<speed>1.130000</speed>
<extensions>
<speed>1.1</speed>
<temp>0.00</temp>
<bpm>0</bpm>
<rpm>0.00</rpm>
</extensions>
</trkpt>
<trkpt lat="64.073570251" lon="-19.476562500">
<ele>482.445313</ele>
<time>2012-07-21T19:49:24Z</time>
<speed>1.130000</speed>
<extensions>
<speed>1.1</speed>
<temp>0.00</temp>
<bpm>0</bpm>
<rpm>0.00</rpm>
</extensions>
</trkpt>
<trkpt lat="64.073554993" lon="-19.476434708">
<ele>482.625000</ele>
<time>2012-07-21T19:49:29Z</time>
<speed>1.110000</speed>
<extensions>
<speed>1.1</speed>
<temp>0.00</temp>
<bpm>0</bpm>
<rpm>0.00</rpm>
</extensions>
</trkpt>
<trkpt lat="64.073547363" lon="-19.476318359">
<ele>483.203125</ele>
<time>2012-07-21T19:49:34Z</time>
<speed>1.260000</speed>
<extensions>
<speed>1.3</speed>
<temp>0.00</temp>
<bpm>0</bpm>
<rpm>0.00</rpm>
</extensions>
</trkpt>
<trkpt lat="64.073532104" lon="-19.476184845">
<ele>484.187500</ele>
<time>2012-07-21T19:49:39Z</time>
<speed>1.230000</speed>
<extensions>
<speed>1.2</speed>
<temp>0.00</temp>
<bpm>0</bpm>
<rpm>0.00</rpm>
</extensions>
</trkpt>
<trkpt lat="64.073524475" lon="-19.476060867">
<ele>484.570313</ele>
<time>2012-07-21T19:49:44Z</time>
<speed>1.220000</speed>
<extensions>
<speed>1.2</speed>
<temp>0.00</temp>
<bpm>0</bpm>
<rpm>0.00</rpm>
</extensions>
</trkpt>
<trkpt lat="64.073516846" lon="-19.475936890">
<ele>484.476563</ele>
<time>2012-07-21T19:49:49Z</time>
<speed>1.240000</speed>
<extensions>
<speed>1.2</speed>
<temp>0.00</temp>
<bpm>0</bpm>
<rpm>0.00</rpm>
</extensions>
</trkpt>
<trkpt lat="64.073501587" lon="-19.475828171">
<ele>484.851563</ele>
<time>2012-07-21T19:49:54Z</time>
<speed>0.890000</speed>
<extensions>
<speed>0.9</speed>
<temp>0.00</temp>
<bpm>0</bpm>
<rpm>0.00</rpm>
</extensions>
</trkpt>
<trkpt lat="64.073486328" lon="-19.475730896">
<ele>483.953125</ele>
<time>2012-07-21T19:49:59Z</time>
<speed>1.130000</speed>
<extensions>
<speed>1.1</speed>
<temp>0.00</temp>
<bpm>0</bpm>
<rpm>0.00</rpm>
</extensions>
</trkpt>
<trkpt lat="64.073486328" lon="-19.475587845">
<ele>484.171875</ele>
<time>2012-07-21T19:50:04Z</time>
<speed>1.370000</speed>
<extensions>
<speed>1.4</speed>
<temp>0.00</temp>
<bpm>0</bpm>
<rpm>0.00</rpm>
</extensions>
</trkpt>
<trkpt lat="64.073471069" lon="-19.475448608">
<ele>484.765625</ele>
<time>2012-07-21T19:50:09Z</time>
<speed>1.250000</speed>
<extensions>
<speed>1.3</speed>
<temp>0.00</temp>
<bpm>0</bpm>
<rpm>0.00</rpm>
</extensions>
</trkpt>
<trkpt lat="64.073471069" lon="-19.475317001">
<ele>484.867188</ele>
<time>2012-07-21T19:50:14Z</time>
<speed>1.360000</speed>
<extensions>
<speed>1.4</speed>
<temp>0.00</temp>
<bpm>0</bpm>
<rpm>0.00</rpm>
</extensions>
</trkpt>
<trkpt lat="64.073463440" lon="-19.475175858">
<ele>484.218750</ele>
<time>2012-07-21T19:50:19Z</time>
<speed>1.420000</speed>
<extensions>
<speed>1.4</speed>
<temp>0.00</temp>
<bpm>0</bpm>
<rpm>0.00</rpm>
</extensions>
</trkpt>
<trkpt lat="64.073455811" lon="-19.475025177">
<ele>484.570313</ele>
<time>2012-07-21T19:50:24Z</time>
<speed>1.480000</speed>
<extensions>
<speed>1.5</speed>
<temp>0.00</temp>
<bpm>0</bpm>
<rpm>0.00</rpm>
</extensions>
</trkpt>
<trkpt lat="64.073455811" lon="-19.474925995">
<ele>484.953125</ele>
<time>2012-07-21T19:50:29Z</time>
<speed>1.550000</speed>
<extensions>
<speed>1.5</speed>
<temp>0.00</temp>
<bpm>0</bpm>
<rpm>0.00</rpm>
</extensions>
</trkpt>
<trkpt lat="64.073448181" lon="-19.474775314">
<ele>485.101563</ele>
<time>2012-07-21T19:50:34Z</time>
<speed>1.760000</speed>
<extensions>
<speed>1.8</speed>
<temp>0.00</temp>
<bpm>0</bpm>
<rpm>0.00</rpm>
</extensions>
</trkpt>
<trkpt lat="64.073432922" lon="-19.474618912">
<ele>486.328125</ele>
<time>2012-07-21T19:50:39Z</time>
<speed>1.530000</speed>
<extensions>
<speed>1.5</speed>
<temp>0.00</temp>
<bpm>0</bpm>
<rpm>0.00</rpm>
</extensions>
</trkpt>
<trkpt lat="64.073432922" lon="-19.474449158">
<ele>485.921875</ele>
<time>2012-07-21T19:50:44Z</time>
<speed>1.700000</speed>
<extensions>
<speed>1.7</speed>
<temp>0.00</temp>
<bpm>0</bpm>
<rpm>0.00</rpm>
</extensions>
</trkpt>
<trkpt lat="64.073425293" lon="-19.474256516">
<ele>486.679688</ele>
<time>2012-07-21T19:50:49Z</time>
<speed>1.930000</speed>
<extensions>
<speed>1.9</speed>
<temp>0.00</temp>
<bpm>0</bpm>
<rpm>0.00</rpm>
</extensions>
</trkpt>
<trkpt lat="64.073425293" lon="-19.474079132">
<ele>486.601563</ele>
<time>2012-07-21T19:50:54Z</time>
<speed>1.860000</speed>
<extensions>
<speed>1.9</speed>
<temp>0.00</temp>
<bpm>0</bpm>
<rpm>0.00</rpm>
</extensions>
</trkpt>
<trkpt lat="64.073425293" lon="-19.473894119">
<ele>486.382813</ele>
<time>2012-07-21T19:50:59Z</time>
<speed>1.800000</speed>
<extensions>
<speed>1.8</speed>
<temp>0.00</temp>
<bpm>0</bpm>
<rpm>0.00</rpm>
</extensions>
</trkpt>
<trkpt lat="64.073425293" lon="-19.473720551">
<ele>486.257813</ele>
<time>2012-07-21T19:51:04Z</time>
<speed>1.750000</speed>
<extensions>
<speed>1.8</speed>
<temp>0.00</temp>
<bpm>0</bpm>
<rpm>0.00</rpm>
</extensions>
</trkpt>
<trkpt lat="64.073425293" lon="-19.473562241">
<ele>486.101563</ele>
<time>2012-07-21T19:51:09Z</time>
<speed>1.650000</speed>
<extensions>
<speed>1.7</speed>
<temp>0.00</temp>
<bpm>0</bpm>
<rpm>0.00</rpm>
</extensions>
</trkpt>
<trkpt lat="64.073432922" lon="-19.473411560">
<ele>485.773438</ele>
<time>2012-07-21T19:51:14Z</time>
<speed>1.490000</speed>
<extensions>
<speed>1.5</speed>
<temp>0.00</temp>
<bpm>0</bpm>
<rpm>0.00</rpm>
</extensions>
</trkpt>
<trkpt lat="64.073417664" lon="-19.473243713">
<ele>486.304688</ele>
<time>2012-07-21T19:51:19Z</time>
<speed>1.690000</speed>
<extensions>
<speed>1.7</speed>
<temp>0.00</temp>
<bpm>0</bpm>
<rpm>0.00</rpm>
</extensions>
</trkpt>
<trkpt lat="64.073410034" lon="-19.473114014">
<ele>486.750000</ele>
<time>2012-07-21T19:51:24Z</time>
<speed>1.650000</speed>
<extensions>
<speed>1.7</speed>
<temp>0.00</temp>
<bpm>0</bpm>
<rpm>0.00</rpm>
</extensions>
</trkpt>
<trkpt lat="64.073394775" lon="-19.472978592">
<ele>487.101563</ele>
<time>2012-07-21T19:51:29Z</time>
<speed>0.820000</speed>
<extensions>
<speed>0.8</speed>
<temp>0.00</temp>
<bpm>0</bpm>
<rpm>0.00</rpm>
</extensions>
</trkpt>
<trkpt lat="64.073379517" lon="-19.472881317">
<ele>487.054688</ele>
<time>2012-07-21T19:51:34Z</time>
<speed>1.400000</speed>
<extensions>
<speed>1.4</speed>
<temp>0.00</temp>
<bpm>0</bpm>
<rpm>0.00</rpm>
</extensions>
</trkpt>
<trkpt lat="64.073348999" lon="-19.472745895">
<ele>487.148438</ele>
<time>2012-07-21T19:51:39Z</time>
<speed>1.320000</speed>
<extensions>
<speed>1.3</speed>
<temp>0.00</temp>
<bpm>0</bpm>
<rpm>0.00</rpm>
</extensions>
</trkpt>
<trkpt lat="64.073333740" lon="-19.472621918">
<ele>487.039063</ele>
<time>2012-07-21T19:51:44Z</time>
<speed>1.320000</speed>
<extensions>
<speed>1.3</speed>
<temp>0.00</temp>
<bpm>0</bpm>
<rpm>0.00</rpm>
</extensions>
</trkpt>
<trkpt lat="64.073310852" lon="-19.472465515">
<ele>486.578125</ele>
<time>2012-07-21T19:51:49Z</time>
<speed>1.480000</speed>
<extensions>
<speed>1.5</speed>
<temp>0.00</temp>
<bpm>0</bpm>
<rpm>0.00</rpm>
</extensions>
</trkpt>
<trkpt lat="64.073287964" lon="-19.472318649">
<ele>486.398438</ele>
<time>2012-07-21T19:51:54Z</time>
<speed>1.490000</speed>
<extensions>
<speed>1.5</speed>
<temp>0.00</temp>
<bpm>0</bpm>
<rpm>0.00</rpm>
</extensions>
</trkpt>
<trkpt lat="64.073272705" lon="-19.472192764">
<ele>486.820313</ele>
<time>2012-07-21T19:51:59Z</time>
<speed>1.070000</speed>
<extensions>
<speed>1.1</speed>
<temp>0.00</temp>
<bpm>0</bpm>
<rpm>0.00</rpm>
</extensions>
</trkpt>
<trkpt lat="64.073257446" lon="-19.472059250">
<ele>487.007813</ele>
<time>2012-07-21T19:52:04Z</time>
<speed>1.540000</speed>
<extensions>
<speed>1.5</speed>
<temp>0.00</temp>
<bpm>0</bpm>
<rpm>0.00</rpm>
</extensions>
</trkpt>
<trkpt lat="64.073234558" lon="-19.471899033">
<ele>487.460938</ele>
<time>2012-07-21T19:52:09Z</time>
<speed>1.730000</speed>
<extensions>
<speed>1.7</speed>
<temp>0.00</temp>
<bpm>0</bpm>
<rpm>0.00</rpm>
</extensions>
</trkpt>
<trkpt lat="64.073211670" lon="-19.471744537">
<ele>487.257813</ele>
<time>2012-07-21T19:52:14Z</time>
<speed>1.700000</speed>
<extensions>
<speed>1.7</speed>
<temp>0.00</temp>
<bpm>0</bpm>
<rpm>0.00</rpm>
</extensions>
</trkpt>
<trkpt lat="64.073188782" lon="-19.471574783">
<ele>487.710938</ele>
<time>2012-07-21T19:52:19Z</time>
<speed>1.810000</speed>
<extensions>
<speed>1.8</speed>
<temp>0.00</temp>
<bpm>0</bpm>
<rpm>0.00</rpm>
</extensions>
</trkpt>
<trkpt lat="64.073165894" lon="-19.471416473">
<ele>487.625000</ele>
<time>2012-07-21T19:52:24Z</time>
<speed>1.640000</speed>
<extensions>
<speed>1.6</speed>
<temp>0.00</temp>
<bpm>0</bpm>
<rpm>0.00</rpm>
</extensions>
</trkpt>
<trkpt lat="64.073135376" lon="-19.471288681">
<ele>487.945313</ele>
<time>2012-07-21T19:52:29Z</time>
<speed>1.610000</speed>
<extensions>
<speed>1.6</speed>
<temp>0.00</temp>
<bpm>0</bpm>
<rpm>0.00</rpm>
</extensions>
</trkpt>
<trkpt lat="64.073112488" lon="-19.471158981">
<ele>488.335938</ele>
<time>2012-07-21T19:52:34Z</time>
<speed>1.580000</speed>
<extensions>
<speed>1.6</speed>
<temp>0.00</temp>
<bpm>0</bpm>
<rpm>0.00</rpm>
</extensions>
</trkpt>
<trkpt lat="64.073097229" lon="-19.471021652">
<ele>488.710938</ele>
<time>2012-07-21T19:52:39Z</time>
<speed>1.310000</speed>
<extensions>
<speed>1.3</speed>
<temp>0.00</temp>
<bpm>0</bpm>
<rpm>0.00</rpm>
</extensions>
</trkpt>
<trkpt lat="64.073066711" lon="-19.470891953">
<ele>488.531250</ele>
<time>2012-07-21T19:52:44Z</time>
<speed>1.520000</speed>
<extensions>
<speed>1.5</speed>
<temp>0.00</temp>
<bpm>0</bpm>
<rpm>0.00</rpm>
</extensions>
</trkpt>
<trkpt lat="64.073051453" lon="-19.470752716">
<ele>488.484375</ele>
<time>2012-07-21T19:52:49Z</time>
<speed>1.040000</speed>
<extensions>
<speed>1.0</speed>
<temp>0.00</temp>
<bpm>0</bpm>
<rpm>0.00</rpm>
</extensions>
</trkpt>
<trkpt lat="64.073028564" lon="-19.470661163">
<ele>489.117188</ele>
<time>2012-07-21T19:52:54Z</time>
<speed>1.310000</speed>
<extensions>
<speed>1.3</speed>
<temp>0.00</temp>
<bpm>0</bpm>
<rpm>0.00</rpm>
</extensions>
</trkpt>
<trkpt lat="64.073013306" lon="-19.470550537">
<ele>489.851563</ele>
<time>2012-07-21T19:52:59Z</time>
<speed>1.430000</speed>
<extensions>
<speed>1.4</speed>
<temp>0.00</temp>
<bpm>0</bpm>
<rpm>0.00</rpm>
</extensions>
</trkpt>
<trkpt lat="64.072982788" lon="-19.470458984">
<ele>490.140625</ele>
<time>2012-07-21T19:53:04Z</time>
<speed>1.640000</speed>
<extensions>
<speed>1.6</speed>
<temp>0.00</temp>
<bpm>0</bpm>
<rpm>0.00</rpm>
</extensions>
</trkpt>
<trkpt lat="64.072944641" lon="-19.470338821">
<ele>490.171875</ele>
<time>2012-07-21T19:53:09Z</time>
<speed>1.280000</speed>
<extensions>
<speed>1.3</speed>
<temp>0.00</temp>
<bpm>0</bpm>
<rpm>0.00</rpm>
</extensions>
</trkpt>
<trkpt lat="64.072898865" lon="-19.470214844">
<ele>490.703125</ele>
<time>2012-07-21T19:53:14Z</time>
<speed>1.820000</speed>
<extensions>
<speed>1.8</speed>
<temp>0.00</temp>
<bpm>0</bpm>
<rpm>0.00</rpm>
</extensions>
</trkpt>
<trkpt lat="64.072860718" lon="-19.470077515">
<ele>490.359375</ele>
<time>2012-07-21T19:53:19Z</time>
<speed>1.360000</speed>
<extensions>
<speed>1.4</speed>
<temp>0.00</temp>
<bpm>0</bpm>
<rpm>0.00</rpm>
</extensions>
</trkpt>
<trkpt lat="64.072830200" lon="-19.469959259">
<ele>489.867188</ele>
<time>2012-07-21T19:53:24Z</time>
<speed>1.240000</speed>
<extensions>
<speed>1.2</speed>
<temp>0.00</temp>
<bpm>0</bpm>
<rpm>0.00</rpm>
</extensions>
</trkpt>
<trkpt lat="64.072784424" lon="-19.469835281">
<ele>489.593750</ele>
<time>2012-07-21T19:53:29Z</time>
<speed>1.590000</speed>
<extensions>
<speed>1.6</speed>
<temp>0.00</temp>
<bpm>0</bpm>
<rpm>0.00</rpm>
</extensions>
</trkpt>
<trkpt lat="64.072746277" lon="-19.469717026">
<ele>489.929688</ele>
<time>2012-07-21T19:53:34Z</time>
<speed>1.490000</speed>
<extensions>
<speed>1.5</speed>
<temp>0.00</temp>
<bpm>0</bpm>
<rpm>0.00</rpm>
</extensions>
</trkpt>
<trkpt lat="64.072708130" lon="-19.469558716">
<ele>489.781250</ele>
<time>2012-07-21T19:53:39Z</time>
<speed>1.740000</speed>
<extensions>
<speed>1.7</speed>
<temp>0.00</temp>
<bpm>0</bpm>
<rpm>0.00</rpm>
</extensions>
</trkpt>
<trkpt lat="64.072677612" lon="-19.469400406">
<ele>489.515625</ele>
<time>2012-07-21T19:53:44Z</time>
<speed>1.740000</speed>
<extensions>
<speed>1.7</speed>
<temp>0.00</temp>
<bpm>0</bpm>
<rpm>0.00</rpm>
</extensions>
</trkpt>
<trkpt lat="64.072639465" lon="-19.469242096">
<ele>489.523438</ele>
<time>2012-07-21T19:53:49Z</time>
<speed>1.620000</speed>
<extensions>
<speed>1.6</speed>
<temp>0.00</temp>
<bpm>0</bpm>
<rpm>0.00</rpm>
</extensions>
</trkpt>
<trkpt lat="64.072616577" lon="-19.469104767">
<ele>489.656250</ele>
<time>2012-07-21T19:53:54Z</time>
<speed>1.430000</speed>
<extensions>
<speed>1.4</speed>
<temp>0.00</temp>
<bpm>0</bpm>
<rpm>0.00</rpm>
</extensions>
</trkpt>
<trkpt lat="64.072593689" lon="-19.468944550">
<ele>490.328125</ele>
<time>2012-07-21T19:53:59Z</time>
<speed>1.730000</speed>
<extensions>
<speed>1.7</speed>
<temp>0.00</temp>
<bpm>0</bpm>
<rpm>0.00</rpm>
</extensions>
</trkpt>
<trkpt lat="64.072563171" lon="-19.468776703">
<ele>490.296875</ele>
<time>2012-07-21T19:54:04Z</time>
<speed>1.470000</speed>
<extensions>
<speed>1.5</speed>
<temp>0.00</temp>
<bpm>0</bpm>
<rpm>0.00</rpm>
</extensions>
</trkpt>
<trkpt lat="64.072563171" lon="-19.468740463">
<ele>490.476563</ele>
<time>2012-07-21T19:54:09Z</time>
<speed>0.020000</speed>
<extensions>
<speed>0.0</speed>
<temp>0.00</temp>
<bpm>0</bpm>
<rpm>0.00</rpm>
</extensions>
</trkpt>
<trkpt lat="64.072563171" lon="-19.468717575">
<ele>490.656250</ele>
<time>2012-07-21T19:54:14Z</time>
<speed>0.480000</speed>
<extensions>
<speed>0.5</speed>
<temp>0.00</temp>
<bpm>0</bpm>
<rpm>0.00</rpm>
</extensions>
</trkpt>
<trkpt lat="64.072555542" lon="-19.468704224">
<ele>491.015625</ele>
<time>2012-07-21T19:54:19Z</time>
<speed>0.010000</speed>
<extensions>
<speed>0.0</speed>
<temp>0.00</temp>
<bpm>0</bpm>
<rpm>0.00</rpm>
</extensions>
</trkpt>
<trkpt lat="64.072555542" lon="-19.468704224">
<ele>491.054688</ele>
<time>2012-07-21T19:54:24Z</time>
<speed>0.050000</speed>
<extensions>
<speed>0.1</speed>
<temp>0.00</temp>
<bpm>0</bpm>
<rpm>0.00</rpm>
</extensions>
</trkpt>
<trkpt lat="64.072540283" lon="-19.468629837">
<ele>490.968750</ele>
<time>2012-07-21T19:54:29Z</time>
<speed>1.250000</speed>
<extensions>
<speed>1.3</speed>
<temp>0.00</temp>
<bpm>0</bpm>
<rpm>0.00</rpm>
</extensions>
</trkpt>
<trkpt lat="64.072517395" lon="-19.468515396">
<ele>490.781250</ele>
<time>2012-07-21T19:54:34Z</time>
<speed>1.250000</speed>
<extensions>
<speed>1.3</speed>
<temp>0.00</temp>
<bpm>0</bpm>
<rpm>0.00</rpm>
</extensions>
</trkpt>
<trkpt lat="64.072494507" lon="-19.468410492">
<ele>490.523438</ele>
<time>2012-07-21T19:54:39Z</time>
<speed>1.340000</speed>
<extensions>
<speed>1.3</speed>
<temp>0.00</temp>
<bpm>0</bpm>
<rpm>0.00</rpm>
</extensions>
</trkpt>
<trkpt lat="64.072456360" lon="-19.468296051">
<ele>490.515625</ele>
<time>2012-07-21T19:54:44Z</time>
<speed>1.190000</speed>
<extensions>
<speed>1.2</speed>
<temp>0.00</temp>
<bpm>0</bpm>
<rpm>0.00</rpm>
</extensions>
</trkpt>
<trkpt lat="64.072433472" lon="-19.468175888">
<ele>490.484375</ele>
<time>2012-07-21T19:54:49Z</time>
<speed>1.170000</speed>
<extensions>
<speed>1.2</speed>
<temp>0.00</temp>
<bpm>0</bpm>
<rpm>0.00</rpm>
</extensions>
</trkpt>
<trkpt lat="64.072410583" lon="-19.468069077">
<ele>490.789063</ele>
<time>2012-07-21T19:54:54Z</time>
<speed>1.170000</speed>
<extensions>
<speed>1.2</speed>
<temp>0.00</temp>
<bpm>0</bpm>
<rpm>0.00</rpm>
</extensions>
</trkpt>
<trkpt lat="64.072380066" lon="-19.467960358">
<ele>490.710938</ele>
<time>2012-07-21T19:54:59Z</time>
<speed>1.230000</speed>
<extensions>
<speed>1.2</speed>
<temp>0.00</temp>
<bpm>0</bpm>
<rpm>0.00</rpm>
</extensions>
</trkpt>
<trkpt lat="64.072357178" lon="-19.467863083">
<ele>490.726563</ele>
<time>2012-07-21T19:55:04Z</time>
<speed>1.230000</speed>
<extensions>
<speed>1.2</speed>
<temp>0.00</temp>
<bpm>0</bpm>
<rpm>0.00</rpm>
</extensions>
</trkpt>
<trkpt lat="64.072334290" lon="-19.467744827">
<ele>490.718750</ele>
<time>2012-07-21T19:55:09Z</time>
<speed>1.210000</speed>
<extensions>
<speed>1.2</speed>
<temp>0.00</temp>
<bpm>0</bpm>
<rpm>0.00</rpm>
</extensions>
</trkpt>
<trkpt lat="64.072303772" lon="-19.467636108">
<ele>490.625000</ele>
<time>2012-07-21T19:55:14Z</time>
<speed>1.370000</speed>
<extensions>
<speed>1.4</speed>
<temp>0.00</temp>
<bpm>0</bpm>
<rpm>0.00</rpm>
</extensions>
</trkpt>
<trkpt lat="64.072273254" lon="-19.467515945">
<ele>490.570313</ele>
<time>2012-07-21T19:55:19Z</time>
<speed>1.280000</speed>
<extensions>
<speed>1.3</speed>
<temp>0.00</temp>
<bpm>0</bpm>
<rpm>0.00</rpm>
</extensions>
</trkpt>
<trkpt lat="64.072242737" lon="-19.467418671">
<ele>490.593750</ele>
<time>2012-07-21T19:55:24Z</time>
<speed>1.150000</speed>
<extensions>
<speed>1.1</speed>
<temp>0.00</temp>
<bpm>0</bpm>
<rpm>0.00</rpm>
</extensions>
</trkpt>
<trkpt lat="64.072212219" lon="-19.467321396">
<ele>491.460938</ele>
<time>2012-07-21T19:55:29Z</time>
<speed>1.210000</speed>
<extensions>
<speed>1.2</speed>
<temp>0.00</temp>
<bpm>0</bpm>
<rpm>0.00</rpm>
</extensions>
</trkpt>
<trkpt lat="64.072189331" lon="-19.467216492">
<ele>491.953125</ele>
<time>2012-07-21T19:55:34Z</time>
<speed>1.290000</speed>
<extensions>
<speed>1.3</speed>
<temp>0.00</temp>
<bpm>0</bpm>
<rpm>0.00</rpm>
</extensions>
</trkpt>
<trkpt lat="64.072166443" lon="-19.467111588">
<ele>492.429688</ele>
<time>2012-07-21T19:55:39Z</time>
<speed>1.140000</speed>
<extensions>
<speed>1.1</speed>
<temp>0.00</temp>
<bpm>0</bpm>
<rpm>0.00</rpm>
</extensions>
</trkpt>
<trkpt lat="64.072135925" lon="-19.467029572">
<ele>492.500000</ele>
<time>2012-07-21T19:55:44Z</time>
<speed>1.080000</speed>
<extensions>
<speed>1.1</speed>
<temp>0.00</temp>
<bpm>0</bpm>
<rpm>0.00</rpm>
</extensions>
</trkpt>
<trkpt lat="64.072113037" lon="-19.466941833">
<ele>493.031250</ele>
<time>2012-07-21T19:55:49Z</time>
<speed>1.090000</speed>
<extensions>
<speed>1.1</speed>
<temp>0.00</temp>
<bpm>0</bpm>
<rpm>0.00</rpm>
</extensions>
</trkpt>
<trkpt lat="64.072090149" lon="-19.466859818">
<ele>493.250000</ele>
<time>2012-07-21T19:55:54Z</time>
<speed>0.980000</speed>
<extensions>
<speed>1.0</speed>
<temp>0.00</temp>
<bpm>0</bpm>
<rpm>0.00</rpm>
</extensions>
</trkpt>
<trkpt lat="64.072067261" lon="-19.466777802">
<ele>493.835938</ele>
<time>2012-07-21T19:55:59Z</time>
<speed>0.830000</speed>
<extensions>
<speed>0.8</speed>
<temp>0.00</temp>
<bpm>0</bpm>
<rpm>0.00</rpm>
</extensions>
</trkpt>
<trkpt lat="64.072036743" lon="-19.466676712">
<ele>493.406250</ele>
<time>2012-07-21T19:56:04Z</time>
<speed>1.070000</speed>
<extensions>
<speed>1.1</speed>
<temp>0.00</temp>
<bpm>0</bpm>
<rpm>0.00</rpm>
</extensions>
</trkpt>
<trkpt lat="64.072006226" lon="-19.466587067">
<ele>493.437500</ele>
<time>2012-07-21T19:56:09Z</time>
<speed>1.230000</speed>
<extensions>
<speed>1.2</speed>
<temp>0.00</temp>
<bpm>0</bpm>
<rpm>0.00</rpm>
</extensions>
</trkpt>
<trkpt lat="64.071975708" lon="-19.466499329">
<ele>493.648438</ele>
<time>2012-07-21T19:56:14Z</time>
<speed>1.110000</speed>
<extensions>
<speed>1.1</speed>
<temp>0.00</temp>
<bpm>0</bpm>
<rpm>0.00</rpm>
</extensions>
</trkpt>
<trkpt lat="64.071945190" lon="-19.466402054">
<ele>493.742188</ele>
<time>2012-07-21T19:56:19Z</time>
<speed>1.160000</speed>
<extensions>
<speed>1.2</speed>
<temp>0.00</temp>
<bpm>0</bpm>
<rpm>0.00</rpm>
</extensions>
</trkpt>
<trkpt lat="64.071914673" lon="-19.466333389">
<ele>493.914063</ele>
<time>2012-07-21T19:56:24Z</time>
<speed>1.120000</speed>
<extensions>
<speed>1.1</speed>
<temp>0.00</temp>
<bpm>0</bpm>
<rpm>0.00</rpm>
</extensions>
</trkpt>
<trkpt lat="64.071884155" lon="-19.466255188">
<ele>494.343750</ele>
<time>2012-07-21T19:56:29Z</time>
<speed>1.180000</speed>
<extensions>
<speed>1.2</speed>
<temp>0.00</temp>
<bpm>0</bpm>
<rpm>0.00</rpm>
</extensions>
</trkpt>
<trkpt lat="64.071853638" lon="-19.466161728">
<ele>494.171875</ele>
<time>2012-07-21T19:56:34Z</time>
<speed>1.160000</speed>
<extensions>
<speed>1.2</speed>
<temp>0.00</temp>
<bpm>0</bpm>
<rpm>0.00</rpm>
</extensions>
</trkpt>
<trkpt lat="64.071830750" lon="-19.466068268">
<ele>494.500000</ele>
<time>2012-07-21T19:56:39Z</time>
<speed>1.040000</speed>
<extensions>
<speed>1.0</speed>
<temp>0.00</temp>
<bpm>0</bpm>
<rpm>0.00</rpm>
</extensions>
</trkpt>
<trkpt lat="64.071800232" lon="-19.465984344">
<ele>494.609375</ele>
<time>2012-07-21T19:56:44Z</time>
<speed>0.840000</speed>
<extensions>
<speed>0.8</speed>
<temp>0.00</temp>
<bpm>0</bpm>
<rpm>0.00</rpm>
</extensions>
</trkpt>
<trkpt lat="64.071777344" lon="-19.465888977">
<ele>495.101563</ele>
<time>2012-07-21T19:56:49Z</time>
<speed>1.090000</speed>
<extensions>
<speed>1.1</speed>
<temp>0.00</temp>
<bpm>0</bpm>
<rpm>0.00</rpm>
</extensions>
</trkpt>
<trkpt lat="64.071754456" lon="-19.465770721">
<ele>495.562500</ele>
<time>2012-07-21T19:56:54Z</time>
<speed>1.150000</speed>
<extensions>
<speed>1.1</speed>
<temp>0.00</temp>
<bpm>0</bpm>
<rpm>0.00</rpm>
</extensions>
</trkpt>
<trkpt lat="64.071739197" lon="-19.465684891">
<ele>496.000000</ele>
<time>2012-07-21T19:56:59Z</time>
<speed>1.130000</speed>
<extensions>
<speed>1.1</speed>
<temp>0.00</temp>
<bpm>0</bpm>
<rpm>0.00</rpm>
</extensions>
</trkpt>
<trkpt lat="64.071716309" lon="-19.465583801">
<ele>496.398438</ele>
<time>2012-07-21T19:57:04Z</time>
<speed>1.220000</speed>
<extensions>
<speed>1.2</speed>
<temp>0.00</temp>
<bpm>0</bpm>
<rpm>0.00</rpm>
</extensions>
</trkpt>
<trkpt lat="64.071693420" lon="-19.465469360">
<ele>496.257813</ele>
<time>2012-07-21T19:57:09Z</time>
<speed>1.390000</speed>
<extensions>
<speed>1.4</speed>
<temp>0.00</temp>
<bpm>0</bpm>
<rpm>0.00</rpm>
</extensions>
</trkpt>
<trkpt lat="64.071662903" lon="-19.465349197">
<ele>496.398438</ele>
<time>2012-07-21T19:57:14Z</time>
<speed>1.260000</speed>
<extensions>
<speed>1.3</speed>
<temp>0.00</temp>
<bpm>0</bpm>
<rpm>0.00</rpm>
</extensions>
</trkpt>
<trkpt lat="64.071647644" lon="-19.465261459">
<ele>496.812500</ele>
<time>2012-07-21T19:57:19Z</time>
<speed>1.170000</speed>
<extensions>
<speed>1.2</speed>
<temp>0.00</temp>
<bpm>0</bpm>
<rpm>0.00</rpm>
</extensions>
</trkpt>
<trkpt lat="64.071617126" lon="-19.465171814">
<ele>497.039063</ele>
<time>2012-07-21T19:57:24Z</time>
<speed>0.810000</speed>
<extensions>
<speed>0.8</speed>
<temp>0.00</temp>
<bpm>0</bpm>
<rpm>0.00</rpm>
</extensions>
</trkpt>
<trkpt lat="64.071578979" lon="-19.465097427">
<ele>497.289063</ele>
<time>2012-07-21T19:57:29Z</time>
<speed>0.940000</speed>
<extensions>
<speed>0.9</speed>
<temp>0.00</temp>
<bpm>0</bpm>
<rpm>0.00</rpm>
</extensions>
</trkpt>
<trkpt lat="64.071533203" lon="-19.465055466">
<ele>497.546875</ele>
<time>2012-07-21T19:57:34Z</time>
<speed>1.280000</speed>
<extensions>
<speed>1.3</speed>
<temp>0.00</temp>
<bpm>0</bpm>
<rpm>0.00</rpm>
</extensions>
</trkpt>
<trkpt lat="64.071487427" lon="-19.464981079">
<ele>497.562500</ele>
<time>2012-07-21T19:57:39Z</time>
<speed>1.170000</speed>
<extensions>
<speed>1.2</speed>
<temp>0.00</temp>
<bpm>0</bpm>
<rpm>0.00</rpm>
</extensions>
</trkpt>
<trkpt lat="64.071441650" lon="-19.464910507">
<ele>497.914063</ele>
<time>2012-07-21T19:57:44Z</time>
<speed>1.120000</speed>
<extensions>
<speed>1.1</speed>
<temp>0.00</temp>
<bpm>0</bpm>
<rpm>0.00</rpm>
</extensions>
</trkpt>
<trkpt lat="64.071388245" lon="-19.464843750">
<ele>498.328125</ele>
<time>2012-07-21T19:57:49Z</time>
<speed>1.290000</speed>
<extensions>
<speed>1.3</speed>
<temp>0.00</temp>
<bpm>0</bpm>
<rpm>0.00</rpm>
</extensions>
</trkpt>
<trkpt lat="64.071350098" lon="-19.464794159">
<ele>498.890625</ele>
<time>2012-07-21T19:57:54Z</time>
<speed>1.140000</speed>
<extensions>
<speed>1.1</speed>
<temp>0.00</temp>
<bpm>0</bpm>
<rpm>0.00</rpm>
</extensions>
</trkpt>
<trkpt lat="64.071296692" lon="-19.464735031">
<ele>498.789063</ele>
<time>2012-07-21T19:57:59Z</time>
<speed>1.320000</speed>
<extensions>
<speed>1.3</speed>
<temp>0.00</temp>
<bpm>0</bpm>
<rpm>0.00</rpm>
</extensions>
</trkpt>
<trkpt lat="64.071250916" lon="-19.464719772">
<ele>499.570313</ele>
<time>2012-07-21T19:58:04Z</time>
<speed>1.120000</speed>
<extensions>
<speed>1.1</speed>
<temp>0.00</temp>
<bpm>0</bpm>
<rpm>0.00</rpm>
</extensions>
</trkpt>
<trkpt lat="64.071205139" lon="-19.464691162">
<ele>499.773438</ele>
<time>2012-07-21T19:58:09Z</time>
<speed>1.300000</speed>
<extensions>
<speed>1.3</speed>
<temp>0.00</temp>
<bpm>0</bpm>
<rpm>0.00</rpm>
</extensions>
</trkpt>
<trkpt lat="64.071151733" lon="-19.464668274">
<ele>500.140625</ele>
<time>2012-07-21T19:58:14Z</time>
<speed>1.480000</speed>
<extensions>
<speed>1.5</speed>
<temp>0.00</temp>
<bpm>0</bpm>
<rpm>0.00</rpm>
</extensions>
</trkpt>
<trkpt lat="64.071090698" lon="-19.464645386">
<ele>500.125000</ele>
<time>2012-07-21T19:58:19Z</time>
<speed>1.470000</speed>
<extensions>
<speed>1.5</speed>
<temp>0.00</temp>
<bpm>0</bpm>
<rpm>0.00</rpm>
</extensions>
</trkpt>
<trkpt lat="64.071029663" lon="-19.464628220">
<ele>500.695313</ele>
<time>2012-07-21T19:58:24Z</time>
<speed>1.240000</speed>
<extensions>
<speed>1.2</speed>
<temp>0.00</temp>
<bpm>0</bpm>
<rpm>0.00</rpm>
</extensions>
</trkpt>
<trkpt lat="64.070968628" lon="-19.464624405">
<ele>501.109375</ele>
<time>2012-07-21T19:58:29Z</time>
<speed>1.410000</speed>
<extensions>
<speed>1.4</speed>
<temp>0.00</temp>
<bpm>0</bpm>
<rpm>0.00</rpm>
</extensions>
</trkpt>
<trkpt lat="64.070907593" lon="-19.464622498">
<ele>501.703125</ele>
<time>2012-07-21T19:58:34Z</time>
<speed>1.580000</speed>
<extensions>
<speed>1.6</speed>
<temp>0.00</temp>
<bpm>0</bpm>
<rpm>0.00</rpm>
</extensions>
</trkpt>
<trkpt lat="64.070838928" lon="-19.464626312">
<ele>502.140625</ele>
<time>2012-07-21T19:58:39Z</time>
<speed>1.310000</speed>
<extensions>
<speed>1.3</speed>
<temp>0.00</temp>
<bpm>0</bpm>
<rpm>0.00</rpm>
</extensions>
</trkpt>
<trkpt lat="64.070770264" lon="-19.464656830">
<ele>502.296875</ele>
<time>2012-07-21T19:58:44Z</time>
<speed>1.330000</speed>
<extensions>
<speed>1.3</speed>
<temp>0.00</temp>
<bpm>0</bpm>
<rpm>0.00</rpm>
</extensions>
</trkpt>
<trkpt lat="64.070709229" lon="-19.464672089">
<ele>502.851563</ele>
<time>2012-07-21T19:58:49Z</time>
<speed>1.300000</speed>
<extensions>
<speed>1.3</speed>
<temp>0.00</temp>
<bpm>0</bpm>
<rpm>0.00</rpm>
</extensions>
</trkpt>
<trkpt lat="64.070663452" lon="-19.464673996">
<ele>503.156250</ele>
<time>2012-07-21T19:58:54Z</time>
<speed>1.010000</speed>
<extensions>
<speed>1.0</speed>
<temp>0.00</temp>
<bpm>0</bpm>
<rpm>0.00</rpm>
</extensions>
</trkpt>
<trkpt lat="64.070617676" lon="-19.464666367">
<ele>503.007813</ele>
<time>2012-07-21T19:58:59Z</time>
<speed>0.920000</speed>
<extensions>
<speed>0.9</speed>
<temp>0.00</temp>
<bpm>0</bpm>
<rpm>0.00</rpm>
</extensions>
</trkpt>
<trkpt lat="64.070571899" lon="-19.464658737">
<ele>502.750000</ele>
<time>2012-07-21T19:59:04Z</time>
<speed>1.280000</speed>
<extensions>
<speed>1.3</speed>
<temp>0.00</temp>
<bpm>0</bpm>
<rpm>0.00</rpm>
</extensions>
</trkpt>
<trkpt lat="64.070518494" lon="-19.464653015">
<ele>503.085938</ele>
<time>2012-07-21T19:59:09Z</time>
<speed>1.280000</speed>
<extensions>
<speed>1.3</speed>
<temp>0.00</temp>
<bpm>0</bpm>
<rpm>0.00</rpm>
</extensions>
</trkpt>
<trkpt lat="64.070465088" lon="-19.464618683">
<ele>503.023438</ele>
<time>2012-07-21T19:59:14Z</time>
<speed>1.280000</speed>
<extensions>
<speed>1.3</speed>
<temp>0.00</temp>
<bpm>0</bpm>
<rpm>0.00</rpm>
</extensions>
</trkpt>
<trkpt lat="64.070404053" lon="-19.464586258">
<ele>502.890625</ele>
<time>2012-07-21T19:59:19Z</time>
<speed>1.470000</speed>
<extensions>
<speed>1.5</speed>
<temp>0.00</temp>
<bpm>0</bpm>
<rpm>0.00</rpm>
</extensions>
</trkpt>
<trkpt lat="64.070350647" lon="-19.464572906">
<ele>503.000000</ele>
<time>2012-07-21T19:59:24Z</time>
<speed>0.720000</speed>
<extensions>
<speed>0.7</speed>
<temp>0.00</temp>
<bpm>0</bpm>
<rpm>0.00</rpm>
</extensions>
</trkpt>
<trkpt lat="64.070304871" lon="-19.464498520">
<ele>502.968750</ele>
<time>2012-07-21T19:59:29Z</time>
<speed>1.250000</speed>
<extensions>
<speed>1.3</speed>
<temp>0.00</temp>
<bpm>0</bpm>
<rpm>0.00</rpm>
</extensions>
</trkpt>
<trkpt lat="64.070251465" lon="-19.464441299">
<ele>503.539063</ele>
<time>2012-07-21T19:59:34Z</time>
<speed>1.370000</speed>
<extensions>
<speed>1.4</speed>
<temp>0.00</temp>
<bpm>0</bpm>
<rpm>0.00</rpm>
</extensions>
</trkpt>
<trkpt lat="64.070198059" lon="-19.464387894">
<ele>503.078125</ele>
<time>2012-07-21T19:59:39Z</time>
<speed>1.350000</speed>
<extensions>
<speed>1.4</speed>
<temp>0.00</temp>
<bpm>0</bpm>
<rpm>0.00</rpm>
</extensions>
</trkpt>
<trkpt lat="64.070159912" lon="-19.464345932">
<ele>502.367188</ele>
<time>2012-07-21T19:59:44Z</time>
<speed>0.030000</speed>
<extensions>
<speed>0.0</speed>
<temp>0.00</temp>
<bpm>0</bpm>
<rpm>0.00</rpm>
</extensions>
</trkpt>
<trkpt lat="64.070129395" lon="-19.464292526">
<ele>502.468750</ele>
<time>2012-07-21T19:59:49Z</time>
<speed>1.410000</speed>
<extensions>
<speed>1.4</speed>
<temp>0.00</temp>
<bpm>0</bpm>
<rpm>0.00</rpm>
</extensions>
</trkpt>
<trkpt lat="64.070083618" lon="-19.464204788">
<ele>502.484375</ele>
<time>2012-07-21T19:59:54Z</time>
<speed>1.180000</speed>
<extensions>
<speed>1.2</speed>
<temp>0.00</temp>
<bpm>0</bpm>
<rpm>0.00</rpm>
</extensions>
</trkpt>
<trkpt lat="64.070045471" lon="-19.464120865">
<ele>502.460938</ele>
<time>2012-07-21T19:59:59Z</time>
<speed>1.380000</speed>
<extensions>
<speed>1.4</speed>
<temp>0.00</temp>
<bpm>0</bpm>
<rpm>0.00</rpm>
</extensions>
</trkpt>
<trkpt lat="64.070007324" lon="-19.464015961">
<ele>502.289063</ele>
<time>2012-07-21T20:00:04Z</time>
<speed>1.330000</speed>
<extensions>
<speed>1.3</speed>
<temp>0.00</temp>
<bpm>0</bpm>
<rpm>0.00</rpm>
</extensions>
</trkpt>
<trkpt lat="64.069969177" lon="-19.463920593">
<ele>502.054688</ele>
<time>2012-07-21T20:00:09Z</time>
<speed>1.140000</speed>
<extensions>
<speed>1.1</speed>
<temp>0.00</temp>
<bpm>0</bpm>
<rpm>0.00</rpm>
</extensions>
</trkpt>
<trkpt lat="64.069931030" lon="-19.463815689">
<ele>501.937500</ele>
<time>2012-07-21T20:00:14Z</time>
<speed>1.380000</speed>
<extensions>
<speed>1.4</speed>
<temp>0.00</temp>
<bpm>0</bpm>
<rpm>0.00</rpm>
</extensions>
</trkpt>
<trkpt lat="64.069892883" lon="-19.463710785">
<ele>501.640625</ele>
<time>2012-07-21T20:00:19Z</time>
<speed>1.470000</speed>
<extensions>
<speed>1.5</speed>
<temp>0.00</temp>
<bpm>0</bpm>
<rpm>0.00</rpm>
</extensions>
</trkpt>
<trkpt lat="64.069847107" lon="-19.463600159">
<ele>501.429688</ele>
<time>2012-07-21T20:00:24Z</time>
<speed>1.420000</speed>
<extensions>
<speed>1.4</speed>
<temp>0.00</temp>
<bpm>0</bpm>
<rpm>0.00</rpm>
</extensions>
</trkpt>
<trkpt lat="64.069808960" lon="-19.463487625">
<ele>501.632813</ele>
<time>2012-07-21T20:00:29Z</time>
<speed>1.450000</speed>
<extensions>
<speed>1.4</speed>
<temp>0.00</temp>
<bpm>0</bpm>
<rpm>0.00</rpm>
</extensions>
</trkpt>
<trkpt lat="64.069763184" lon="-19.463371277">
<ele>501.414063</ele>
<time>2012-07-21T20:00:34Z</time>
<speed>1.490000</speed>
<extensions>
<speed>1.5</speed>
<temp>0.00</temp>
<bpm>0</bpm>
<rpm>0.00</rpm>
</extensions>
</trkpt>
<trkpt lat="64.069725037" lon="-19.463249207">
<ele>501.687500</ele>
<time>2012-07-21T20:00:39Z</time>
<speed>1.360000</speed>
<extensions>
<speed>1.4</speed>
<temp>0.00</temp>
<bpm>0</bpm>
<rpm>0.00</rpm>
</extensions>
</trkpt>
<trkpt lat="64.069686890" lon="-19.463150024">
<ele>502.171875</ele>
<time>2012-07-21T20:00:44Z</time>
<speed>1.350000</speed>
<extensions>
<speed>1.4</speed>
<temp>0.00</temp>
<bpm>0</bpm>
<rpm>0.00</rpm>
</extensions>
</trkpt>
<trkpt lat="64.069648743" lon="-19.463048935">
<ele>502.539063</ele>
<time>2012-07-21T20:00:49Z</time>
<speed>0.560000</speed>
<extensions>
<speed>0.6</speed>
<temp>0.00</temp>
<bpm>0</bpm>
<rpm>0.00</rpm>
</extensions>
</trkpt>
<trkpt lat="64.069633484" lon="-19.462985992">
<ele>502.578125</ele>
<time>2012-07-21T20:00:54Z</time>
<speed>1.040000</speed>
<extensions>
<speed>1.0</speed>
<temp>0.00</temp>
<bpm>0</bpm>
<rpm>0.00</rpm>
</extensions>
</trkpt>
<trkpt lat="64.069595337" lon="-19.462882996">
<ele>503.093750</ele>
<time>2012-07-21T20:00:59Z</time>
<speed>1.480000</speed>
<extensions>
<speed>1.5</speed>
<temp>0.00</temp>
<bpm>0</bpm>
<rpm>0.00</rpm>
</extensions>
</trkpt>
<trkpt lat="64.069564819" lon="-19.462776184">
<ele>503.390625</ele>
<time>2012-07-21T20:01:04Z</time>
<speed>0.980000</speed>
<extensions>
<speed>1.0</speed>
<temp>0.00</temp>
<bpm>0</bpm>
<rpm>0.00</rpm>
</extensions>
</trkpt>
<trkpt lat="64.069526672" lon="-19.462680817">
<ele>503.812500</ele>
<time>2012-07-21T20:01:09Z</time>
<speed>1.460000</speed>
<extensions>
<speed>1.5</speed>
<temp>0.00</temp>
<bpm>0</bpm>
<rpm>0.00</rpm>
</extensions>
</trkpt>
<trkpt lat="64.069488525" lon="-19.462591171">
<ele>504.031250</ele>
<time>2012-07-21T20:01:14Z</time>
<speed>1.280000</speed>
<extensions>
<speed>1.3</speed>
<temp>0.00</temp>
<bpm>0</bpm>
<rpm>0.00</rpm>
</extensions>
</trkpt>
<trkpt lat="64.069458008" lon="-19.462486267">
<ele>504.062500</ele>
<time>2012-07-21T20:01:19Z</time>
<speed>1.330000</speed>
<extensions>
<speed>1.3</speed>
<temp>0.00</temp>
<bpm>0</bpm>
<rpm>0.00</rpm>
</extensions>
</trkpt>
<trkpt lat="64.069419861" lon="-19.462388992">
<ele>504.273438</ele>
<time>2012-07-21T20:01:24Z</time>
<speed>1.360000</speed>
<extensions>
<speed>1.4</speed>
<temp>0.00</temp>
<bpm>0</bpm>
<rpm>0.00</rpm>
</extensions>
</trkpt>
<trkpt lat="64.069381714" lon="-19.462274551">
<ele>504.101563</ele>
<time>2012-07-21T20:01:29Z</time>
<speed>1.420000</speed>
<extensions>
<speed>1.4</speed>
<temp>0.00</temp>
<bpm>0</bpm>
<rpm>0.00</rpm>
</extensions>
</trkpt>
<trkpt lat="64.069343567" lon="-19.462167740">
<ele>504.359375</ele>
<time>2012-07-21T20:01:34Z</time>
<speed>1.080000</speed>
<extensions>
<speed>1.1</speed>
<temp>0.00</temp>
<bpm>0</bpm>
<rpm>0.00</rpm>
</extensions>
</trkpt>
<trkpt lat="64.069313049" lon="-19.462072372">
<ele>504.234375</ele>
<time>2012-07-21T20:01:39Z</time>
<speed>1.380000</speed>
<extensions>
<speed>1.4</speed>
<temp>0.00</temp>
<bpm>0</bpm>
<rpm>0.00</rpm>
</extensions>
</trkpt>
<trkpt lat="64.069274902" lon="-19.461963654">
<ele>504.343750</ele>
<time>2012-07-21T20:01:44Z</time>
<speed>1.400000</speed>
<extensions>
<speed>1.4</speed>
<temp>0.00</temp>
<bpm>0</bpm>
<rpm>0.00</rpm>
</extensions>
</trkpt>
<trkpt lat="64.069236755" lon="-19.461853027">
<ele>504.359375</ele>
<time>2012-07-21T20:01:49Z</time>
<speed>1.350000</speed>
<extensions>
<speed>1.4</speed>
<temp>0.00</temp>
<bpm>0</bpm>
<rpm>0.00</rpm>
</extensions>
</trkpt>
<trkpt lat="64.069206238" lon="-19.461767197">
<ele>504.679688</ele>
<time>2012-07-21T20:01:54Z</time>
<speed>0.810000</speed>
<extensions>
<speed>0.8</speed>
<temp>0.00</temp>
<bpm>0</bpm>
<rpm>0.00</rpm>
</extensions>
</trkpt>
<trkpt lat="64.069175720" lon="-19.461685181">
<ele>504.882813</ele>
<time>2012-07-21T20:01:59Z</time>
<speed>1.190000</speed>
<extensions>
<speed>1.2</speed>
<temp>0.00</temp>
<bpm>0</bpm>
<rpm>0.00</rpm>
</extensions>
</trkpt>
<trkpt lat="64.069137573" lon="-19.461582184">
<ele>505.203125</ele>
<time>2012-07-21T20:02:04Z</time>
<speed>1.130000</speed>
<extensions>
<speed>1.1</speed>
<temp>0.00</temp>
<bpm>0</bpm>
<rpm>0.00</rpm>
</extensions>
</trkpt>
<trkpt lat="64.069099426" lon="-19.461486816">
<ele>505.468750</ele>
<time>2012-07-21T20:02:09Z</time>
<speed>1.240000</speed>
<extensions>
<speed>1.2</speed>
<temp>0.00</temp>
<bpm>0</bpm>
<rpm>0.00</rpm>
</extensions>
</trkpt>
<trkpt lat="64.069061279" lon="-19.461385727">
<ele>505.804688</ele>
<time>2012-07-21T20:02:14Z</time>
<speed>1.360000</speed>
<extensions>
<speed>1.4</speed>
<temp>0.00</temp>
<bpm>0</bpm>
<rpm>0.00</rpm>
</extensions>
</trkpt>
<trkpt lat="64.069023132" lon="-19.461282730">
<ele>505.843750</ele>
<time>2012-07-21T20:02:19Z</time>
<speed>1.300000</speed>
<extensions>
<speed>1.3</speed>
<temp>0.00</temp>
<bpm>0</bpm>
<rpm>0.00</rpm>
</extensions>
</trkpt>
<trkpt lat="64.068992615" lon="-19.461187363">
<ele>506.085938</ele>
<time>2012-07-21T20:02:24Z</time>
<speed>1.260000</speed>
<extensions>
<speed>1.3</speed>
<temp>0.00</temp>
<bpm>0</bpm>
<rpm>0.00</rpm>
</extensions>
</trkpt>
<trkpt lat="64.068962097" lon="-19.461107254">
<ele>506.437500</ele>
<time>2012-07-21T20:02:29Z</time>
<speed>0.180000</speed>
<extensions>
<speed>0.2</speed>
<temp>0.00</temp>
<bpm>0</bpm>
<rpm>0.00</rpm>
</extensions>
</trkpt>
<trkpt lat="64.068946838" lon="-19.461038589">
<ele>506.687500</ele>
<time>2012-07-21T20:02:34Z</time>
<speed>0.870000</speed>
<extensions>
<speed>0.9</speed>
<temp>0.00</temp>
<bpm>0</bpm>
<rpm>0.00</rpm>
</extensions>
</trkpt>
<trkpt lat="64.068939209" lon="-19.460979462">
<ele>507.367188</ele>
<time>2012-07-21T20:02:39Z</time>
<speed>0.870000</speed>
<extensions>
<speed>0.9</speed>
<temp>0.00</temp>
<bpm>0</bpm>
<rpm>0.00</rpm>
</extensions>
</trkpt>
<trkpt lat="64.068908691" lon="-19.460927963">
<ele>507.882813</ele>
<time>2012-07-21T20:02:44Z</time>
<speed>0.960000</speed>
<extensions>
<speed>1.0</speed>
<temp>0.00</temp>
<bpm>0</bpm>
<rpm>0.00</rpm>
</extensions>
</trkpt>
<trkpt lat="64.068893433" lon="-19.460880280">
<ele>508.070313</ele>
<time>2012-07-21T20:02:49Z</time>
<speed>0.390000</speed>
<extensions>
<speed>0.4</speed>
<temp>0.00</temp>
<bpm>0</bpm>
<rpm>0.00</rpm>
</extensions>
</trkpt>
<trkpt lat="64.068862915" lon="-19.460809708">
<ele>508.257813</ele>
<time>2012-07-21T20:02:54Z</time>
<speed>0.640000</speed>
<extensions>
<speed>0.6</speed>
<temp>0.00</temp>
<bpm>0</bpm>
<rpm>0.00</rpm>
</extensions>
</trkpt>
<trkpt lat="64.068840027" lon="-19.460718155">
<ele>508.085938</ele>
<time>2012-07-21T20:02:59Z</time>
<speed>1.330000</speed>
<extensions>
<speed>1.3</speed>
<temp>0.00</temp>
<bpm>0</bpm>
<rpm>0.00</rpm>
</extensions>
</trkpt>
<trkpt lat="64.068801880" lon="-19.460632324">
<ele>508.015625</ele>
<time>2012-07-21T20:03:04Z</time>
<speed>1.250000</speed>
<extensions>
<speed>1.3</speed>
<temp>0.00</temp>
<bpm>0</bpm>
<rpm>0.00</rpm>
</extensions>
</trkpt>
<trkpt lat="64.068763733" lon="-19.460536957">
<ele>508.226563</ele>
<time>2012-07-21T20:03:09Z</time>
<speed>1.200000</speed>
<extensions>
<speed>1.2</speed>
<temp>0.00</temp>
<bpm>0</bpm>
<rpm>0.00</rpm>
</extensions>
</trkpt>
<trkpt lat="64.068733215" lon="-19.460453033">
<ele>508.234375</ele>
<time>2012-07-21T20:03:14Z</time>
<speed>0.910000</speed>
<extensions>
<speed>0.9</speed>
<temp>0.00</temp>
<bpm>0</bpm>
<rpm>0.00</rpm>
</extensions>
</trkpt>
<trkpt lat="64.068710327" lon="-19.460390091">
<ele>508.296875</ele>
<time>2012-07-21T20:03:19Z</time>
<speed>0.890000</speed>
<extensions>
<speed>0.9</speed>
<temp>0.00</temp>
<bpm>0</bpm>
<rpm>0.00</rpm>
</extensions>
</trkpt>
<trkpt lat="64.068702698" lon="-19.460353851">
<ele>508.164063</ele>
<time>2012-07-21T20:03:24Z</time>
<speed>0.030000</speed>
<extensions>
<speed>0.0</speed>
<temp>0.00</temp>
<bpm>0</bpm>
<rpm>0.00</rpm>
</extensions>
</trkpt>
<trkpt lat="64.068687439" lon="-19.460298538">
<ele>508.203125</ele>
<time>2012-07-21T20:03:29Z</time>
<speed>1.270000</speed>
<extensions>
<speed>1.3</speed>
<temp>0.00</temp>
<bpm>0</bpm>
<rpm>0.00</rpm>
</extensions>
</trkpt>
<trkpt lat="64.068656921" lon="-19.460201263">
<ele>508.765625</ele>
<time>2012-07-21T20:03:34Z</time>
<speed>1.200000</speed>
<extensions>
<speed>1.2</speed>
<temp>0.00</temp>
<bpm>0</bpm>
<rpm>0.00</rpm>
</extensions>
</trkpt>
<trkpt lat="64.068634033" lon="-19.460109711">
<ele>509.101563</ele>
<time>2012-07-21T20:03:39Z</time>
<speed>0.760000</speed>
<extensions>
<speed>0.8</speed>
<temp>0.00</temp>
<bpm>0</bpm>
<rpm>0.00</rpm>
</extensions>
</trkpt>
<trkpt lat="64.068618774" lon="-19.460021973">
<ele>509.664063</ele>
<time>2012-07-21T20:03:44Z</time>
<speed>1.120000</speed>
<extensions>
<speed>1.1</speed>
<temp>0.00</temp>
<bpm>0</bpm>
<rpm>0.00</rpm>
</extensions>
</trkpt>
<trkpt lat="64.068611145" lon="-19.459985733">
<ele>510.187500</ele>
<time>2012-07-21T20:03:49Z</time>
<speed>0.040000</speed>
<extensions>
<speed>0.0</speed>
<temp>0.00</temp>
<bpm>0</bpm>
<rpm>0.00</rpm>
</extensions>
</trkpt>
<trkpt lat="64.068618774" lon="-19.459980011">
<ele>510.156250</ele>
<time>2012-07-21T20:03:54Z</time>
<speed>0.360000</speed>
<extensions>
<speed>0.4</speed>
<temp>0.00</temp>
<bpm>0</bpm>
<rpm>0.00</rpm>
</extensions>
</trkpt>
<trkpt lat="64.068618774" lon="-19.459981918">
<ele>509.851563</ele>
<time>2012-07-21T20:03:59Z</time>
<speed>0.010000</speed>
<extensions>
<speed>0.0</speed>
<temp>0.00</temp>
<bpm>0</bpm>
<rpm>0.00</rpm>
</extensions>
</trkpt>
<trkpt lat="64.068618774" lon="-19.459981918">
<ele>509.828125</ele>
<time>2012-07-21T20:04:04Z</time>
<extensions>
<speed>0.0</speed>
<temp>0.00</temp>
<bpm>0</bpm>
<rpm>0.00</rpm>
</extensions>
</trkpt>
<trkpt lat="64.068618774" lon="-19.459981918">
<ele>509.820313</ele>
<time>2012-07-21T20:04:09Z</time>
<extensions>
<speed>0.0</speed>
<temp>0.00</temp>
<bpm>0</bpm>
<rpm>0.00</rpm>
</extensions>
</trkpt>
<trkpt lat="64.068618774" lon="-19.459981918">
<ele>509.820313</ele>
<time>2012-07-21T20:04:14Z</time>
<extensions>
<speed>0.0</speed>
<temp>0.00</temp>
<bpm>0</bpm>
<rpm>0.00</rpm>
</extensions>
</trkpt>
<trkpt lat="64.068618774" lon="-19.459981918">
<ele>509.812500</ele>
<time>2012-07-21T20:04:19Z</time>
<extensions>
<speed>0.0</speed>
<temp>0.00</temp>
<bpm>0</bpm>
<rpm>0.00</rpm>
</extensions>
</trkpt>
<trkpt lat="64.068618774" lon="-19.459981918">
<ele>509.804688</ele>
<time>2012-07-21T20:04:24Z</time>
<extensions>
<speed>0.0</speed>
<temp>0.00</temp>
<bpm>0</bpm>
<rpm>0.00</rpm>
</extensions>
</trkpt>
<trkpt lat="64.068618774" lon="-19.459981918">
<ele>509.796875</ele>
<time>2012-07-21T20:04:29Z</time>
<speed>0.010000</speed>
<extensions>
<speed>0.0</speed>
<temp>0.00</temp>
<bpm>0</bpm>
<rpm>0.00</rpm>
</extensions>
</trkpt>
<trkpt lat="64.068611145" lon="-19.459974289">
<ele>509.359375</ele>
<time>2012-07-21T20:04:34Z</time>
<extensions>
<speed>0.0</speed>
<temp>0.00</temp>
<bpm>0</bpm>
<rpm>0.00</rpm>
</extensions>
</trkpt>
<trkpt lat="64.068611145" lon="-19.459974289">
<ele>509.351563</ele>
<time>2012-07-21T20:04:39Z</time>
<speed>0.010000</speed>
<extensions>
<speed>0.0</speed>
<temp>0.00</temp>
<bpm>0</bpm>
<rpm>0.00</rpm>
</extensions>
</trkpt>
<trkpt lat="64.068611145" lon="-19.459976196">
<ele>509.367188</ele>
<time>2012-07-21T20:04:44Z</time>
<speed>0.050000</speed>
<extensions>
<speed>0.1</speed>
<temp>0.00</temp>
<bpm>0</bpm>
<rpm>0.00</rpm>
</extensions>
</trkpt>
<trkpt lat="64.068611145" lon="-19.459976196">
<ele>509.007813</ele>
<time>2012-07-21T20:04:49Z</time>
<speed>0.320000</speed>
<extensions>
<speed>0.3</speed>
<temp>0.00</temp>
<bpm>0</bpm>
<rpm>0.00</rpm>
</extensions>
</trkpt>
<trkpt lat="64.068603516" lon="-19.459930420">
<ele>508.914063</ele>
<time>2012-07-21T20:04:54Z</time>
<speed>0.820000</speed>
<extensions>
<speed>0.8</speed>
<temp>0.00</temp>
<bpm>0</bpm>
<rpm>0.00</rpm>
</extensions>
</trkpt>
<trkpt lat="64.068580627" lon="-19.459829330">
<ele>508.593750</ele>
<time>2012-07-21T20:04:59Z</time>
<speed>1.210000</speed>
<extensions>
<speed>1.2</speed>
<temp>0.00</temp>
<bpm>0</bpm>
<rpm>0.00</rpm>
</extensions>
</trkpt>
<trkpt lat="64.068565369" lon="-19.459707260">
<ele>508.531250</ele>
<time>2012-07-21T20:05:04Z</time>
<speed>1.050000</speed>
<extensions>
<speed>1.0</speed>
<temp>0.00</temp>
<bpm>0</bpm>
<rpm>0.00</rpm>
</extensions>
</trkpt>
<trkpt lat="64.068550110" lon="-19.459598541">
<ele>508.906250</ele>
<time>2012-07-21T20:05:09Z</time>
<speed>1.330000</speed>
<extensions>
<speed>1.3</speed>
<temp>0.00</temp>
<bpm>0</bpm>
<rpm>0.00</rpm>
</extensions>
</trkpt>
<trkpt lat="64.068542480" lon="-19.459487915">
<ele>509.945313</ele>
<time>2012-07-21T20:05:14Z</time>
<speed>1.090000</speed>
<extensions>
<speed>1.1</speed>
<temp>0.00</temp>
<bpm>0</bpm>
<rpm>0.00</rpm>
</extensions>
</trkpt>
<trkpt lat="64.068519592" lon="-19.459348679">
<ele>510.382813</ele>
<time>2012-07-21T20:05:19Z</time>
<speed>1.130000</speed>
<extensions>
<speed>1.1</speed>
<temp>0.00</temp>
<bpm>0</bpm>
<rpm>0.00</rpm>
</extensions>
</trkpt>
<trkpt lat="64.068504333" lon="-19.459239960">
<ele>510.859375</ele>
<time>2012-07-21T20:05:24Z</time>
<speed>0.950000</speed>
<extensions>
<speed>1.0</speed>
<temp>0.00</temp>
<bpm>0</bpm>
<rpm>0.00</rpm>
</extensions>
</trkpt>
<trkpt lat="64.068504333" lon="-19.459203720">
<ele>511.453125</ele>
<time>2012-07-21T20:05:29Z</time>
<speed>0.010000</speed>
<extensions>
<speed>0.0</speed>
<temp>0.00</temp>
<bpm>0</bpm>
<rpm>0.00</rpm>
</extensions>
</trkpt>
<trkpt lat="64.068504333" lon="-19.459203720">
<ele>511.484375</ele>
<time>2012-07-21T20:05:34Z</time>
<speed>0.010000</speed>
<extensions>
<speed>0.0</speed>
<temp>0.00</temp>
<bpm>0</bpm>
<rpm>0.00</rpm>
</extensions>
</trkpt>
<trkpt lat="64.068504333" lon="-19.459205627">
<ele>511.500000</ele>
<time>2012-07-21T20:05:39Z</time>
<speed>0.020000</speed>
<extensions>
<speed>0.0</speed>
<temp>0.00</temp>
<bpm>0</bpm>
<rpm>0.00</rpm>
</extensions>
</trkpt>
<trkpt lat="64.068504333" lon="-19.459205627">
<ele>511.523438</ele>
<time>2012-07-21T20:05:44Z</time>
<extensions>
<speed>0.0</speed>
<temp>0.00</temp>
<bpm>0</bpm>
<rpm>0.00</rpm>
</extensions>
</trkpt>
<trkpt lat="64.068504333" lon="-19.459207535">
<ele>511.539063</ele>
<time>2012-07-21T20:05:49Z</time>
<extensions>
<speed>0.0</speed>
<temp>0.00</temp>
<bpm>0</bpm>
<rpm>0.00</rpm>
</extensions>
</trkpt>
<trkpt lat="64.068504333" lon="-19.459207535">
<ele>511.539063</ele>
<time>2012-07-21T20:05:54Z</time>
<extensions>
<speed>0.0</speed>
<temp>0.00</temp>
<bpm>0</bpm>
<rpm>0.00</rpm>
</extensions>
</trkpt>
<trkpt lat="64.068504333" lon="-19.459207535">
<ele>511.531250</ele>
<time>2012-07-21T20:05:59Z</time>
<extensions>
<speed>0.0</speed>
<temp>0.00</temp>
<bpm>0</bpm>
<rpm>0.00</rpm>
</extensions>
</trkpt>
<trkpt lat="64.068504333" lon="-19.459207535">
<ele>511.531250</ele>
<time>2012-07-21T20:06:04Z</time>
<extensions>
<speed>0.0</speed>
<temp>0.00</temp>
<bpm>0</bpm>
<rpm>0.00</rpm>
</extensions>
</trkpt>
<trkpt lat="64.068504333" lon="-19.459188461">
<ele>511.742188</ele>
<time>2012-07-21T20:06:09Z</time>
<speed>0.820000</speed>
<extensions>
<speed>0.8</speed>
<temp>0.00</temp>
<bpm>0</bpm>
<rpm>0.00</rpm>
</extensions>
</trkpt>
<trkpt lat="64.068481445" lon="-19.459075928">
<ele>512.531250</ele>
<time>2012-07-21T20:06:14Z</time>
<speed>1.140000</speed>
<extensions>
<speed>1.1</speed>
<temp>0.00</temp>
<bpm>0</bpm>
<rpm>0.00</rpm>
</extensions>
</trkpt>
<trkpt lat="64.068466187" lon="-19.458959579">
<ele>513.250000</ele>
<time>2012-07-21T20:06:19Z</time>
<speed>1.000000</speed>
<extensions>
<speed>1.0</speed>
<temp>0.00</temp>
<bpm>0</bpm>
<rpm>0.00</rpm>
</extensions>
</trkpt>
<trkpt lat="64.068443298" lon="-19.458843231">
<ele>513.875000</ele>
<time>2012-07-21T20:06:24Z</time>
<speed>1.210000</speed>
<extensions>
<speed>1.2</speed>
<temp>0.00</temp>
<bpm>0</bpm>
<rpm>0.00</rpm>
</extensions>
</trkpt>
<trkpt lat="64.068420410" lon="-19.458755493">
<ele>514.593750</ele>
<time>2012-07-21T20:06:29Z</time>
<speed>1.010000</speed>
<extensions>
<speed>1.0</speed>
<temp>0.00</temp>
<bpm>0</bpm>
<rpm>0.00</rpm>
</extensions>
</trkpt>
<trkpt lat="64.068405151" lon="-19.458660126">
<ele>514.937500</ele>
<time>2012-07-21T20:06:34Z</time>
<speed>0.640000</speed>
<extensions>
<speed>0.6</speed>
<temp>0.00</temp>
<bpm>0</bpm>
<rpm>0.00</rpm>
</extensions>
</trkpt>
<trkpt lat="64.068389893" lon="-19.458568573">
<ele>515.546875</ele>
<time>2012-07-21T20:06:39Z</time>
<speed>0.790000</speed>
<extensions>
<speed>0.8</speed>
<temp>0.00</temp>
<bpm>0</bpm>
<rpm>0.00</rpm>
</extensions>
</trkpt>
<trkpt lat="64.068367004" lon="-19.458473206">
<ele>515.796875</ele>
<time>2012-07-21T20:06:44Z</time>
<speed>0.840000</speed>
<extensions>
<speed>0.8</speed>
<temp>0.00</temp>
<bpm>0</bpm>
<rpm>0.00</rpm>
</extensions>
</trkpt>
<trkpt lat="64.068367004" lon="-19.458438873">
<ele>515.843750</ele>
<time>2012-07-21T20:06:49Z</time>
<speed>0.470000</speed>
<extensions>
<speed>0.5</speed>
<temp>0.00</temp>
<bpm>0</bpm>
<rpm>0.00</rpm>
</extensions>
</trkpt>
<trkpt lat="64.068359375" lon="-19.458368301">
<ele>515.859375</ele>
<time>2012-07-21T20:06:54Z</time>
<speed>0.780000</speed>
<extensions>
<speed>0.8</speed>
<temp>0.00</temp>
<bpm>0</bpm>
<rpm>0.00</rpm>
</extensions>
</trkpt>
<trkpt lat="64.068351746" lon="-19.458303452">
<ele>515.937500</ele>
<time>2012-07-21T20:06:59Z</time>
<speed>0.700000</speed>
<extensions>
<speed>0.7</speed>
<temp>0.00</temp>
<bpm>0</bpm>
<rpm>0.00</rpm>
</extensions>
</trkpt>
<trkpt lat="64.068344116" lon="-19.458185196">
<ele>516.281250</ele>
<time>2012-07-21T20:07:04Z</time>
<speed>0.930000</speed>
<extensions>
<speed>0.9</speed>
<temp>0.00</temp>
<bpm>0</bpm>
<rpm>0.00</rpm>
</extensions>
</trkpt>
<trkpt lat="64.068336487" lon="-19.458093643">
<ele>516.312500</ele>
<time>2012-07-21T20:07:09Z</time>
<speed>0.540000</speed>
<extensions>
<speed>0.5</speed>
<temp>0.00</temp>
<bpm>0</bpm>
<rpm>0.00</rpm>
</extensions>
</trkpt>
<trkpt lat="64.068328857" lon="-19.458028793">
<ele>516.250000</ele>
<time>2012-07-21T20:07:14Z</time>
<speed>1.140000</speed>
<extensions>
<speed>1.1</speed>
<temp>0.00</temp>
<bpm>0</bpm>
<rpm>0.00</rpm>
</extensions>
</trkpt>
<trkpt lat="64.068321228" lon="-19.457912445">
<ele>515.890625</ele>
<time>2012-07-21T20:07:19Z</time>
<speed>1.040000</speed>
<extensions>
<speed>1.0</speed>
<temp>0.00</temp>
<bpm>0</bpm>
<rpm>0.00</rpm>
</extensions>
</trkpt>
<trkpt lat="64.068321228" lon="-19.457801819">
<ele>516.406250</ele>
<time>2012-07-21T20:07:24Z</time>
<speed>1.000000</speed>
<extensions>
<speed>1.0</speed>
<temp>0.00</temp>
<bpm>0</bpm>
<rpm>0.00</rpm>
</extensions>
</trkpt>
<trkpt lat="64.068328857" lon="-19.457685471">
<ele>517.109375</ele>
<time>2012-07-21T20:07:29Z</time>
<speed>1.030000</speed>
<extensions>
<speed>1.0</speed>
<temp>0.00</temp>
<bpm>0</bpm>
<rpm>0.00</rpm>
</extensions>
</trkpt>
<trkpt lat="64.068321228" lon="-19.457643509">
<ele>517.312500</ele>
<time>2012-07-21T20:07:34Z</time>
<extensions>
<speed>0.0</speed>
<temp>0.00</temp>
<bpm>0</bpm>
<rpm>0.00</rpm>
</extensions>
</trkpt>
<trkpt lat="64.068313599" lon="-19.457588196">
<ele>517.093750</ele>
<time>2012-07-21T20:07:39Z</time>
<speed>0.910000</speed>
<extensions>
<speed>0.9</speed>
<temp>0.00</temp>
<bpm>0</bpm>
<rpm>0.00</rpm>
</extensions>
</trkpt>
<trkpt lat="64.068313599" lon="-19.457508087">
<ele>516.937500</ele>
<time>2012-07-21T20:07:44Z</time>
<speed>0.730000</speed>
<extensions>
<speed>0.7</speed>
<temp>0.00</temp>
<bpm>0</bpm>
<rpm>0.00</rpm>
</extensions>
</trkpt>
<trkpt lat="64.068313599" lon="-19.457443237">
<ele>517.171875</ele>
<time>2012-07-21T20:07:49Z</time>
<speed>0.440000</speed>
<extensions>
<speed>0.4</speed>
<temp>0.00</temp>
<bpm>0</bpm>
<rpm>0.00</rpm>
</extensions>
</trkpt>
<trkpt lat="64.068305969" lon="-19.457363129">
<ele>517.281250</ele>
<time>2012-07-21T20:07:54Z</time>
<speed>0.580000</speed>
<extensions>
<speed>0.6</speed>
<temp>0.00</temp>
<bpm>0</bpm>
<rpm>0.00</rpm>
</extensions>
</trkpt>
<trkpt lat="64.068298340" lon="-19.457290649">
<ele>517.906250</ele>
<time>2012-07-21T20:07:59Z</time>
<speed>0.900000</speed>
<extensions>
<speed>0.9</speed>
<temp>0.00</temp>
<bpm>0</bpm>
<rpm>0.00</rpm>
</extensions>
</trkpt>
<trkpt lat="64.068290710" lon="-19.457181931">
<ele>518.656250</ele>
<time>2012-07-21T20:08:04Z</time>
<speed>0.950000</speed>
<extensions>
<speed>1.0</speed>
<temp>0.00</temp>
<bpm>0</bpm>
<rpm>0.00</rpm>
</extensions>
</trkpt>
<trkpt lat="64.068283081" lon="-19.457105637">
<ele>518.531250</ele>
<time>2012-07-21T20:08:09Z</time>
<speed>0.600000</speed>
<extensions>
<speed>0.6</speed>
<temp>0.00</temp>
<bpm>0</bpm>
<rpm>0.00</rpm>
</extensions>
</trkpt>
<trkpt lat="64.068267822" lon="-19.457021713">
<ele>518.281250</ele>
<time>2012-07-21T20:08:14Z</time>
<speed>1.170000</speed>
<extensions>
<speed>1.2</speed>
<temp>0.00</temp>
<bpm>0</bpm>
<rpm>0.00</rpm>
</extensions>
</trkpt>
<trkpt lat="64.068267822" lon="-19.456922531">
<ele>518.046875</ele>
<time>2012-07-21T20:08:19Z</time>
<speed>0.880000</speed>
<extensions>
<speed>0.9</speed>
<temp>0.00</temp>
<bpm>0</bpm>
<rpm>0.00</rpm>
</extensions>
</trkpt>
<trkpt lat="64.068252563" lon="-19.456844330">
<ele>517.953125</ele>
<time>2012-07-21T20:08:24Z</time>
<speed>0.890000</speed>
<extensions>
<speed>0.9</speed>
<temp>0.00</temp>
<bpm>0</bpm>
<rpm>0.00</rpm>
</extensions>
</trkpt>
<trkpt lat="64.068244934" lon="-19.456809998">
<ele>518.234375</ele>
<time>2012-07-21T20:08:29Z</time>
<speed>0.240000</speed>
<extensions>
<speed>0.2</speed>
<temp>0.00</temp>
<bpm>0</bpm>
<rpm>0.00</rpm>
</extensions>
</trkpt>
<trkpt lat="64.068244934" lon="-19.456802368">
<ele>517.812500</ele>
<time>2012-07-21T20:08:34Z</time>
<speed>0.690000</speed>
<extensions>
<speed>0.7</speed>
<temp>0.00</temp>
<bpm>0</bpm>
<rpm>0.00</rpm>
</extensions>
</trkpt>
<trkpt lat="64.068222046" lon="-19.456712723">
<ele>517.500000</ele>
<time>2012-07-21T20:08:39Z</time>
<speed>1.110000</speed>
<extensions>
<speed>1.1</speed>
<temp>0.00</temp>
<bpm>0</bpm>
<rpm>0.00</rpm>
</extensions>
</trkpt>
<trkpt lat="64.068206787" lon="-19.456649780">
<ele>517.671875</ele>
<time>2012-07-21T20:08:44Z</time>
<speed>1.030000</speed>
<extensions>
<speed>1.0</speed>
<temp>0.00</temp>
<bpm>0</bpm>
<rpm>0.00</rpm>
</extensions>
</trkpt>
<trkpt lat="64.068191528" lon="-19.456581116">
<ele>518.312500</ele>
<time>2012-07-21T20:08:49Z</time>
<speed>0.730000</speed>
<extensions>
<speed>0.7</speed>
<temp>0.00</temp>
<bpm>0</bpm>
<rpm>0.00</rpm>
</extensions>
</trkpt>
<trkpt lat="64.068183899" lon="-19.456508636">
<ele>519.437500</ele>
<time>2012-07-21T20:08:54Z</time>
<speed>0.880000</speed>
<extensions>
<speed>0.9</speed>
<temp>0.00</temp>
<bpm>0</bpm>
<rpm>0.00</rpm>
</extensions>
</trkpt>
<trkpt lat="64.068168640" lon="-19.456422806">
<ele>519.984375</ele>
<time>2012-07-21T20:08:59Z</time>
<speed>1.170000</speed>
<extensions>
<speed>1.2</speed>
<temp>0.00</temp>
<bpm>0</bpm>
<rpm>0.00</rpm>
</extensions>
</trkpt>
<trkpt lat="64.068153381" lon="-19.456333160">
<ele>521.093750</ele>
<time>2012-07-21T20:09:04Z</time>
<speed>0.900000</speed>
<extensions>
<speed>0.9</speed>
<temp>0.00</temp>
<bpm>0</bpm>
<rpm>0.00</rpm>
</extensions>
</trkpt>
<trkpt lat="64.068145752" lon="-19.456256866">
<ele>522.140625</ele>
<time>2012-07-21T20:09:09Z</time>
<speed>0.100000</speed>
<extensions>
<speed>0.1</speed>
<temp>0.00</temp>
<bpm>0</bpm>
<rpm>0.00</rpm>
</extensions>
</trkpt>
<trkpt lat="64.068138123" lon="-19.456214905">
<ele>522.953125</ele>
<time>2012-07-21T20:09:14Z</time>
<speed>1.210000</speed>
<extensions>
<speed>1.2</speed>
<temp>0.00</temp>
<bpm>0</bpm>
<rpm>0.00</rpm>
</extensions>
</trkpt>
<trkpt lat="64.068122864" lon="-19.456094742">
<ele>522.765625</ele>
<time>2012-07-21T20:09:19Z</time>
<speed>1.200000</speed>
<extensions>
<speed>1.2</speed>
<temp>0.00</temp>
<bpm>0</bpm>
<rpm>0.00</rpm>
</extensions>
</trkpt>
<trkpt lat="64.068115234" lon="-19.455987930">
<ele>522.796875</ele>
<time>2012-07-21T20:09:24Z</time>
<speed>0.460000</speed>
<extensions>
<speed>0.5</speed>
<temp>0.00</temp>
<bpm>0</bpm>
<rpm>0.00</rpm>
</extensions>
</trkpt>
<trkpt lat="64.068107605" lon="-19.455921173">
<ele>522.265625</ele>
<time>2012-07-21T20:09:29Z</time>
<speed>1.050000</speed>
<extensions>
<speed>1.0</speed>
<temp>0.00</temp>
<bpm>0</bpm>
<rpm>0.00</rpm>
</extensions>
</trkpt>
<trkpt lat="64.068099976" lon="-19.455793381">
<ele>521.578125</ele>
<time>2012-07-21T20:09:34Z</time>
<speed>1.170000</speed>
<extensions>
<speed>1.2</speed>
<temp>0.00</temp>
<bpm>0</bpm>
<rpm>0.00</rpm>
</extensions>
</trkpt>
<trkpt lat="64.068099976" lon="-19.455722809">
<ele>520.828125</ele>
<time>2012-07-21T20:09:39Z</time>
<speed>0.010000</speed>
<extensions>
<speed>0.0</speed>
<temp>0.00</temp>
<bpm>0</bpm>
<rpm>0.00</rpm>
</extensions>
</trkpt>
<trkpt lat="64.068099976" lon="-19.455720901">
<ele>521.109375</ele>
<time>2012-07-21T20:09:44Z</time>
<speed>0.020000</speed>
<extensions>
<speed>0.0</speed>
<temp>0.00</temp>
<bpm>0</bpm>
<rpm>0.00</rpm>
</extensions>
</trkpt>
<trkpt lat="64.068099976" lon="-19.455625534">
<ele>520.140625</ele>
<time>2012-07-21T20:09:49Z</time>
<speed>1.210000</speed>
<extensions>
<speed>1.2</speed>
<temp>0.00</temp>
<bpm>0</bpm>
<rpm>0.00</rpm>
</extensions>
</trkpt>
<trkpt lat="64.068099976" lon="-19.455490112">
<ele>519.562500</ele>
<time>2012-07-21T20:09:54Z</time>
<speed>1.170000</speed>
<extensions>
<speed>1.2</speed>
<temp>0.00</temp>
<bpm>0</bpm>
<rpm>0.00</rpm>
</extensions>
</trkpt>
<trkpt lat="64.068099976" lon="-19.455375671">
<ele>519.078125</ele>
<time>2012-07-21T20:09:59Z</time>
<speed>1.240000</speed>
<extensions>
<speed>1.2</speed>
<temp>0.00</temp>
<bpm>0</bpm>
<rpm>0.00</rpm>
</extensions>
</trkpt>
<trkpt lat="64.068115234" lon="-19.455266953">
<ele>518.593750</ele>
<time>2012-07-21T20:10:04Z</time>
<speed>1.040000</speed>
<extensions>
<speed>1.0</speed>
<temp>0.00</temp>
<bpm>0</bpm>
<rpm>0.00</rpm>
</extensions>
</trkpt>
<trkpt lat="64.068115234" lon="-19.455165863">
<ele>517.265625</ele>
<time>2012-07-21T20:10:09Z</time>
<speed>0.880000</speed>
<extensions>
<speed>0.9</speed>
<temp>0.00</temp>
<bpm>0</bpm>
<rpm>0.00</rpm>
</extensions>
</trkpt>
<trkpt lat="64.068115234" lon="-19.455080032">
<ele>517.484375</ele>
<time>2012-07-21T20:10:14Z</time>
<speed>1.010000</speed>
<extensions>
<speed>1.0</speed>
<temp>0.00</temp>
<bpm>0</bpm>
<rpm>0.00</rpm>
</extensions>
</trkpt>
<trkpt lat="64.068122864" lon="-19.454952240">
<ele>517.234375</ele>
<time>2012-07-21T20:10:19Z</time>
<speed>1.300000</speed>
<extensions>
<speed>1.3</speed>
<temp>0.00</temp>
<bpm>0</bpm>
<rpm>0.00</rpm>
</extensions>
</trkpt>
<trkpt lat="64.068130493" lon="-19.454866409">
<ele>516.718750</ele>
<time>2012-07-21T20:10:24Z</time>
<speed>0.810000</speed>
<extensions>
<speed>0.8</speed>
<temp>0.00</temp>
<bpm>0</bpm>
<rpm>0.00</rpm>
</extensions>
</trkpt>
<trkpt lat="64.068130493" lon="-19.454757690">
<ele>516.218750</ele>
<time>2012-07-21T20:10:29Z</time>
<speed>1.170000</speed>
<extensions>
<speed>1.2</speed>
<temp>0.00</temp>
<bpm>0</bpm>
<rpm>0.00</rpm>
</extensions>
</trkpt>
<trkpt lat="64.068145752" lon="-19.454677582">
<ele>515.484375</ele>
<time>2012-07-21T20:10:34Z</time>
<speed>0.020000</speed>
<extensions>
<speed>0.0</speed>
<temp>0.00</temp>
<bpm>0</bpm>
<rpm>0.00</rpm>
</extensions>
</trkpt>
<trkpt lat="64.068145752" lon="-19.454679489">
<ele>514.843750</ele>
<time>2012-07-21T20:10:39Z</time>
<extensions>
<speed>0.0</speed>
<temp>0.00</temp>
<bpm>0</bpm>
<rpm>0.00</rpm>
</extensions>
</trkpt>
<trkpt lat="64.068145752" lon="-19.454624176">
<ele>514.843750</ele>
<time>2012-07-21T20:10:44Z</time>
<speed>0.930000</speed>
<extensions>
<speed>0.9</speed>
<temp>0.00</temp>
<bpm>0</bpm>
<rpm>0.00</rpm>
</extensions>
</trkpt>
<trkpt lat="64.068153381" lon="-19.454557419">
<ele>515.281250</ele>
<time>2012-07-21T20:10:49Z</time>
<speed>0.450000</speed>
<extensions>
<speed>0.5</speed>
<temp>0.00</temp>
<bpm>0</bpm>
<rpm>0.00</rpm>
</extensions>
</trkpt>
<trkpt lat="64.068153381" lon="-19.454486847">
<ele>515.687500</ele>
<time>2012-07-21T20:10:54Z</time>
<speed>1.050000</speed>
<extensions>
<speed>1.0</speed>
<temp>0.00</temp>
<bpm>0</bpm>
<rpm>0.00</rpm>
</extensions>
</trkpt>
<trkpt lat="64.068153381" lon="-19.454397202">
<ele>515.109375</ele>
<time>2012-07-21T20:10:59Z</time>
<speed>0.130000</speed>
<extensions>
<speed>0.1</speed>
<temp>0.00</temp>
<bpm>0</bpm>
<rpm>0.00</rpm>
</extensions>
</trkpt>
<trkpt lat="64.068161011" lon="-19.454315186">
<ele>514.140625</ele>
<time>2012-07-21T20:11:04Z</time>
<speed>1.240000</speed>
<extensions>
<speed>1.2</speed>
<temp>0.00</temp>
<bpm>0</bpm>
<rpm>0.00</rpm>
</extensions>
</trkpt>
<trkpt lat="64.068168640" lon="-19.454202652">
<ele>513.500000</ele>
<time>2012-07-21T20:11:09Z</time>
<speed>1.180000</speed>
<extensions>
<speed>1.2</speed>
<temp>0.00</temp>
<bpm>0</bpm>
<rpm>0.00</rpm>
</extensions>
</trkpt>
<trkpt lat="64.068168640" lon="-19.454088211">
<ele>512.500000</ele>
<time>2012-07-21T20:11:14Z</time>
<speed>1.190000</speed>
<extensions>
<speed>1.2</speed>
<temp>0.00</temp>
<bpm>0</bpm>
<rpm>0.00</rpm>
</extensions>
</trkpt>
<trkpt lat="64.068176270" lon="-19.453989029">
<ele>513.000000</ele>
<time>2012-07-21T20:11:19Z</time>
<speed>0.960000</speed>
<extensions>
<speed>1.0</speed>
<temp>0.00</temp>
<bpm>0</bpm>
<rpm>0.00</rpm>
</extensions>
</trkpt>
<trkpt lat="64.068191528" lon="-19.453874588">
<ele>512.906250</ele>
<time>2012-07-21T20:11:24Z</time>
<speed>1.160000</speed>
<extensions>
<speed>1.2</speed>
<temp>0.00</temp>
<bpm>0</bpm>
<rpm>0.00</rpm>
</extensions>
</trkpt>
<trkpt lat="64.068199158" lon="-19.453763962">
<ele>512.171875</ele>
<time>2012-07-21T20:11:29Z</time>
<speed>1.300000</speed>
<extensions>
<speed>1.3</speed>
<temp>0.00</temp>
<bpm>0</bpm>
<rpm>0.00</rpm>
</extensions>
</trkpt>
<trkpt lat="64.068214417" lon="-19.453638077">
<ele>511.632813</ele>
<time>2012-07-21T20:11:34Z</time>
<speed>1.420000</speed>
<extensions>
<speed>1.4</speed>
<temp>0.00</temp>
<bpm>0</bpm>
<rpm>0.00</rpm>
</extensions>
</trkpt>
<trkpt lat="64.068222046" lon="-19.453504562">
<ele>511.398438</ele>
<time>2012-07-21T20:11:39Z</time>
<speed>1.040000</speed>
<extensions>
<speed>1.0</speed>
<temp>0.00</temp>
<bpm>0</bpm>
<rpm>0.00</rpm>
</extensions>
</trkpt>
<trkpt lat="64.068229675" lon="-19.453393936">
<ele>510.859375</ele>
<time>2012-07-21T20:11:44Z</time>
<speed>0.830000</speed>
<extensions>
<speed>0.8</speed>
<temp>0.00</temp>
<bpm>0</bpm>
<rpm>0.00</rpm>
</extensions>
</trkpt>
<trkpt lat="64.068237305" lon="-19.453264236">
<ele>510.156250</ele>
<time>2012-07-21T20:11:49Z</time>
<speed>1.040000</speed>
<extensions>
<speed>1.0</speed>
<temp>0.00</temp>
<bpm>0</bpm>
<rpm>0.00</rpm>
</extensions>
</trkpt>
<trkpt lat="64.068244934" lon="-19.453166962">
<ele>509.906250</ele>
<time>2012-07-21T20:11:54Z</time>
<speed>0.110000</speed>
<extensions>
<speed>0.1</speed>
<temp>0.00</temp>
<bpm>0</bpm>
<rpm>0.00</rpm>
</extensions>
</trkpt>
<trkpt lat="64.068244934" lon="-19.453159332">
<ele>509.171875</ele>
<time>2012-07-21T20:11:59Z</time>
<speed>0.020000</speed>
<extensions>
<speed>0.0</speed>
<temp>0.00</temp>
<bpm>0</bpm>
<rpm>0.00</rpm>
</extensions>
</trkpt>
<trkpt lat="64.068244934" lon="-19.453159332">
<ele>509.148438</ele>
<time>2012-07-21T20:12:04Z</time>
<extensions>
<speed>0.0</speed>
<temp>0.00</temp>
<bpm>0</bpm>
<rpm>0.00</rpm>
</extensions>
</trkpt>
<trkpt lat="64.068244934" lon="-19.453145981">
<ele>508.882813</ele>
<time>2012-07-21T20:12:09Z</time>
<speed>0.680000</speed>
<extensions>
<speed>0.7</speed>
<temp>0.00</temp>
<bpm>0</bpm>
<rpm>0.00</rpm>
</extensions>
</trkpt>
<trkpt lat="64.068260193" lon="-19.453050613">
<ele>508.007813</ele>
<time>2012-07-21T20:12:14Z</time>
<speed>1.220000</speed>
<extensions>
<speed>1.2</speed>
<temp>0.00</temp>
<bpm>0</bpm>
<rpm>0.00</rpm>
</extensions>
</trkpt>
<trkpt lat="64.068252563" lon="-19.452934265">
<ele>507.710938</ele>
<time>2012-07-21T20:12:19Z</time>
<speed>1.020000</speed>
<extensions>
<speed>1.0</speed>
<temp>0.00</temp>
<bpm>0</bpm>
<rpm>0.00</rpm>
</extensions>
</trkpt>
<trkpt lat="64.068260193" lon="-19.452884674">
<ele>507.640625</ele>
<time>2012-07-21T20:12:24Z</time>
<speed>0.240000</speed>
<extensions>
<speed>0.2</speed>
<temp>0.00</temp>
<bpm>0</bpm>
<rpm>0.00</rpm>
</extensions>
</trkpt>
<trkpt lat="64.068267822" lon="-19.452772141">
<ele>507.492188</ele>
<time>2012-07-21T20:12:29Z</time>
<speed>1.330000</speed>
<extensions>
<speed>1.3</speed>
<temp>0.00</temp>
<bpm>0</bpm>
<rpm>0.00</rpm>
</extensions>
</trkpt>
<trkpt lat="64.068283081" lon="-19.452632904">
<ele>507.539063</ele>
<time>2012-07-21T20:12:34Z</time>
<speed>1.180000</speed>
<extensions>
<speed>1.2</speed>
<temp>0.00</temp>
<bpm>0</bpm>
<rpm>0.00</rpm>
</extensions>
</trkpt>
<trkpt lat="64.068290710" lon="-19.452611923">
<ele>507.382813</ele>
<time>2012-07-21T20:12:39Z</time>
<speed>0.080000</speed>
<extensions>
<speed>0.1</speed>
<temp>0.00</temp>
<bpm>0</bpm>
<rpm>0.00</rpm>
</extensions>
</trkpt>
<trkpt lat="64.068290710" lon="-19.452611923">
<ele>507.367188</ele>
<time>2012-07-21T20:12:44Z</time>
<speed>0.020000</speed>
<extensions>
<speed>0.0</speed>
<temp>0.00</temp>
<bpm>0</bpm>
<rpm>0.00</rpm>
</extensions>
</trkpt>
<trkpt lat="64.068290710" lon="-19.452611923">
<ele>507.359375</ele>
<time>2012-07-21T20:12:49Z</time>
<speed>0.010000</speed>
<extensions>
<speed>0.0</speed>
<temp>0.00</temp>
<bpm>0</bpm>
<rpm>0.00</rpm>
</extensions>
</trkpt>
<trkpt lat="64.068290710" lon="-19.452611923">
<ele>507.375000</ele>
<time>2012-07-21T20:12:54Z</time>
<extensions>
<speed>0.0</speed>
<temp>0.00</temp>
<bpm>0</bpm>
<rpm>0.00</rpm>
</extensions>
</trkpt>
<trkpt lat="64.068298340" lon="-19.452558517">
<ele>506.968750</ele>
<time>2012-07-21T20:12:59Z</time>
<speed>0.950000</speed>
<extensions>
<speed>1.0</speed>
<temp>0.00</temp>
<bpm>0</bpm>
<rpm>0.00</rpm>
</extensions>
</trkpt>
<trkpt lat="64.068313599" lon="-19.452434540">
<ele>506.226563</ele>
<time>2012-07-21T20:13:04Z</time>
<speed>0.870000</speed>
<extensions>
<speed>0.9</speed>
<temp>0.00</temp>
<bpm>0</bpm>
<rpm>0.00</rpm>
</extensions>
</trkpt>
<trkpt lat="64.068313599" lon="-19.452381134">
<ele>505.796875</ele>
<time>2012-07-21T20:13:09Z</time>
<speed>0.840000</speed>
<extensions>
<speed>0.8</speed>
<temp>0.00</temp>
<bpm>0</bpm>
<rpm>0.00</rpm>
</extensions>
</trkpt>
<trkpt lat="64.068336487" lon="-19.452299118">
<ele>505.812500</ele>
<time>2012-07-21T20:13:14Z</time>
<speed>1.110000</speed>
<extensions>
<speed>1.1</speed>
<temp>0.00</temp>
<bpm>0</bpm>
<rpm>0.00</rpm>
</extensions>
</trkpt>
<trkpt lat="64.068344116" lon="-19.452175140">
<ele>505.312500</ele>
<time>2012-07-21T20:13:19Z</time>
<speed>1.320000</speed>
<extensions>
<speed>1.3</speed>
<temp>0.00</temp>
<bpm>0</bpm>
<rpm>0.00</rpm>
</extensions>
</trkpt>
<trkpt lat="64.068359375" lon="-19.452041626">
<ele>504.867188</ele>
<time>2012-07-21T20:13:24Z</time>
<speed>1.260000</speed>
<extensions>
<speed>1.3</speed>
<temp>0.00</temp>
<bpm>0</bpm>
<rpm>0.00</rpm>
</extensions>
</trkpt>
<trkpt lat="64.068359375" lon="-19.451908112">
<ele>504.562500</ele>
<time>2012-07-21T20:13:29Z</time>
<speed>1.380000</speed>
<extensions>
<speed>1.4</speed>
<temp>0.00</temp>
<bpm>0</bpm>
<rpm>0.00</rpm>
</extensions>
</trkpt>
<trkpt lat="64.068367004" lon="-19.451776505">
<ele>505.031250</ele>
<time>2012-07-21T20:13:34Z</time>
<speed>1.310000</speed>
<extensions>
<speed>1.3</speed>
<temp>0.00</temp>
<bpm>0</bpm>
<rpm>0.00</rpm>
</extensions>
</trkpt>
<trkpt lat="64.068382263" lon="-19.451656342">
<ele>505.101563</ele>
<time>2012-07-21T20:13:39Z</time>
<speed>1.480000</speed>
<extensions>
<speed>1.5</speed>
<temp>0.00</temp>
<bpm>0</bpm>
<rpm>0.00</rpm>
</extensions>
</trkpt>
<trkpt lat="64.068374634" lon="-19.451509476">
<ele>506.625000</ele>
<time>2012-07-21T20:13:44Z</time>
<speed>1.400000</speed>
<extensions>
<speed>1.4</speed>
<temp>0.00</temp>
<bpm>0</bpm>
<rpm>0.00</rpm>
</extensions>
</trkpt>
<trkpt lat="64.068397522" lon="-19.451364517">
<ele>506.593750</ele>
<time>2012-07-21T20:13:49Z</time>
<speed>1.440000</speed>
<extensions>
<speed>1.4</speed>
<temp>0.00</temp>
<bpm>0</bpm>
<rpm>0.00</rpm>
</extensions>
</trkpt>
<trkpt lat="64.068412781" lon="-19.451265335">
<ele>506.476563</ele>
<time>2012-07-21T20:13:54Z</time>
<speed>0.950000</speed>
<extensions>
<speed>1.0</speed>
<temp>0.00</temp>
<bpm>0</bpm>
<rpm>0.00</rpm>
</extensions>
</trkpt>
<trkpt lat="64.068435669" lon="-19.451145172">
<ele>506.460938</ele>
<time>2012-07-21T20:13:59Z</time>
<speed>1.510000</speed>
<extensions>
<speed>1.5</speed>
<temp>0.00</temp>
<bpm>0</bpm>
<rpm>0.00</rpm>
</extensions>
</trkpt>
<trkpt lat="64.068443298" lon="-19.451009750">
<ele>506.656250</ele>
<time>2012-07-21T20:14:04Z</time>
<speed>1.530000</speed>
<extensions>
<speed>1.5</speed>
<temp>0.00</temp>
<bpm>0</bpm>
<rpm>0.00</rpm>
</extensions>
</trkpt>
<trkpt lat="64.068466187" lon="-19.450866699">
<ele>506.695313</ele>
<time>2012-07-21T20:14:09Z</time>
<speed>1.400000</speed>
<extensions>
<speed>1.4</speed>
<temp>0.00</temp>
<bpm>0</bpm>
<rpm>0.00</rpm>
</extensions>
</trkpt>
<trkpt lat="64.068489075" lon="-19.450729370">
<ele>506.023438</ele>
<time>2012-07-21T20:14:14Z</time>
<speed>1.150000</speed>
<extensions>
<speed>1.1</speed>
<temp>0.00</temp>
<bpm>0</bpm>
<rpm>0.00</rpm>
</extensions>
</trkpt>
<trkpt lat="64.068496704" lon="-19.450592041">
<ele>505.734375</ele>
<time>2012-07-21T20:14:19Z</time>
<speed>1.530000</speed>
<extensions>
<speed>1.5</speed>
<temp>0.00</temp>
<bpm>0</bpm>
<rpm>0.00</rpm>
</extensions>
</trkpt>
<trkpt lat="64.068481445" lon="-19.450489044">
<ele>506.914063</ele>
<time>2012-07-21T20:14:24Z</time>
<speed>0.020000</speed>
<extensions>
<speed>0.0</speed>
<temp>0.00</temp>
<bpm>0</bpm>
<rpm>0.00</rpm>
</extensions>
</trkpt>
<trkpt lat="64.068473816" lon="-19.450487137">
<ele>506.781250</ele>
<time>2012-07-21T20:14:29Z</time>
<speed>0.020000</speed>
<extensions>
<speed>0.0</speed>
<temp>0.00</temp>
<bpm>0</bpm>
<rpm>0.00</rpm>
</extensions>
</trkpt>
<trkpt lat="64.068473816" lon="-19.450489044">
<ele>506.789063</ele>
<time>2012-07-21T20:14:34Z</time>
<speed>0.020000</speed>
<extensions>
<speed>0.0</speed>
<temp>0.00</temp>
<bpm>0</bpm>
<rpm>0.00</rpm>
</extensions>
</trkpt>
<trkpt lat="64.068473816" lon="-19.450489044">
<ele>506.796875</ele>
<time>2012-07-21T20:14:39Z</time>
<speed>0.550000</speed>
<extensions>
<speed>0.6</speed>
<temp>0.00</temp>
<bpm>0</bpm>
<rpm>0.00</rpm>
</extensions>
</trkpt>
<trkpt lat="64.068489075" lon="-19.450389862">
<ele>506.570313</ele>
<time>2012-07-21T20:14:44Z</time>
<speed>0.980000</speed>
<extensions>
<speed>1.0</speed>
<temp>0.00</temp>
<bpm>0</bpm>
<rpm>0.00</rpm>
</extensions>
</trkpt>
<trkpt lat="64.068489075" lon="-19.450260162">
<ele>506.335938</ele>
<time>2012-07-21T20:14:49Z</time>
<speed>1.630000</speed>
<extensions>
<speed>1.6</speed>
<temp>0.00</temp>
<bpm>0</bpm>
<rpm>0.00</rpm>
</extensions>
</trkpt>
<trkpt lat="64.068511963" lon="-19.450128555">
<ele>506.453125</ele>
<time>2012-07-21T20:14:54Z</time>
<speed>1.530000</speed>
<extensions>
<speed>1.5</speed>
<temp>0.00</temp>
<bpm>0</bpm>
<rpm>0.00</rpm>
</extensions>
</trkpt>
<trkpt lat="64.068519592" lon="-19.449983597">
<ele>506.609375</ele>
<time>2012-07-21T20:14:59Z</time>
<speed>1.480000</speed>
<extensions>
<speed>1.5</speed>
<temp>0.00</temp>
<bpm>0</bpm>
<rpm>0.00</rpm>
</extensions>
</trkpt>
<trkpt lat="64.068534851" lon="-19.449855804">
<ele>506.585938</ele>
<time>2012-07-21T20:15:04Z</time>
<speed>0.990000</speed>
<extensions>
<speed>1.0</speed>
<temp>0.00</temp>
<bpm>0</bpm>
<rpm>0.00</rpm>
</extensions>
</trkpt>
<trkpt lat="64.068534851" lon="-19.449785233">
<ele>507.023438</ele>
<time>2012-07-21T20:15:09Z</time>
<speed>0.210000</speed>
<extensions>
<speed>0.2</speed>
<temp>0.00</temp>
<bpm>0</bpm>
<rpm>0.00</rpm>
</extensions>
</trkpt>
<trkpt lat="64.068534851" lon="-19.449783325">
<ele>507.984375</ele>
<time>2012-07-21T20:15:14Z</time>
<extensions>
<speed>0.0</speed>
<temp>0.00</temp>
<bpm>0</bpm>
<rpm>0.00</rpm>
</extensions>
</trkpt>
<trkpt lat="64.068534851" lon="-19.449783325">
<ele>507.992188</ele>
<time>2012-07-21T20:15:19Z</time>
<extensions>
<speed>0.0</speed>
<temp>0.00</temp>
<bpm>0</bpm>
<rpm>0.00</rpm>
</extensions>
</trkpt>
<trkpt lat="64.068534851" lon="-19.449783325">
<ele>508.039063</ele>
<time>2012-07-21T20:15:24Z</time>
<extensions>
<speed>0.0</speed>
<temp>0.00</temp>
<bpm>0</bpm>
<rpm>0.00</rpm>
</extensions>
</trkpt>
<trkpt lat="64.068534851" lon="-19.449783325">
<ele>508.070313</ele>
<time>2012-07-21T20:15:29Z</time>
<extensions>
<speed>0.0</speed>
<temp>0.00</temp>
<bpm>0</bpm>
<rpm>0.00</rpm>
</extensions>
</trkpt>
<trkpt lat="64.068534851" lon="-19.449783325">
<ele>508.078125</ele>
<time>2012-07-21T20:15:34Z</time>
<extensions>
<speed>0.0</speed>
<temp>0.00</temp>
<bpm>0</bpm>
<rpm>0.00</rpm>
</extensions>
</trkpt>
<trkpt lat="64.068534851" lon="-19.449783325">
<ele>508.101563</ele>
<time>2012-07-21T20:15:39Z</time>
<extensions>
<speed>0.0</speed>
<temp>0.00</temp>
<bpm>0</bpm>
<rpm>0.00</rpm>
</extensions>
</trkpt>
<trkpt lat="64.068534851" lon="-19.449783325">
<ele>508.132813</ele>
<time>2012-07-21T20:15:44Z</time>
<extensions>
<speed>0.0</speed>
<temp>0.00</temp>
<bpm>0</bpm>
<rpm>0.00</rpm>
</extensions>
</trkpt>
<trkpt lat="64.068534851" lon="-19.449783325">
<ele>508.171875</ele>
<time>2012-07-21T20:15:49Z</time>
<extensions>
<speed>0.0</speed>
<temp>0.00</temp>
<bpm>0</bpm>
<rpm>0.00</rpm>
</extensions>
</trkpt>
<trkpt lat="64.068534851" lon="-19.449783325">
<ele>508.203125</ele>
<time>2012-07-21T20:15:54Z</time>
<extensions>
<speed>0.0</speed>
<temp>0.00</temp>
<bpm>0</bpm>
<rpm>0.00</rpm>
</extensions>
</trkpt>
<trkpt lat="64.068534851" lon="-19.449783325">
<ele>508.226563</ele>
<time>2012-07-21T20:15:59Z</time>
<extensions>
<speed>0.0</speed>
<temp>0.00</temp>
<bpm>0</bpm>
<rpm>0.00</rpm>
</extensions>
</trkpt>
<trkpt lat="64.068534851" lon="-19.449783325">
<ele>508.257813</ele>
<time>2012-07-21T20:16:04Z</time>
<extensions>
<speed>0.0</speed>
<temp>0.00</temp>
<bpm>0</bpm>
<rpm>0.00</rpm>
</extensions>
</trkpt>
<trkpt lat="64.068534851" lon="-19.449783325">
<ele>508.281250</ele>
<time>2012-07-21T20:16:09Z</time>
<extensions>
<speed>0.0</speed>
<temp>0.00</temp>
<bpm>0</bpm>
<rpm>0.00</rpm>
</extensions>
</trkpt>
<trkpt lat="64.068534851" lon="-19.449783325">
<ele>508.312500</ele>
<time>2012-07-21T20:16:14Z</time>
<extensions>
<speed>0.0</speed>
<temp>0.00</temp>
<bpm>0</bpm>
<rpm>0.00</rpm>
</extensions>
</trkpt>
<trkpt lat="64.068534851" lon="-19.449783325">
<ele>508.343750</ele>
<time>2012-07-21T20:16:19Z</time>
<extensions>
<speed>0.0</speed>
<temp>0.00</temp>
<bpm>0</bpm>
<rpm>0.00</rpm>
</extensions>
</trkpt>
<trkpt lat="64.068534851" lon="-19.449783325">
<ele>508.382813</ele>
<time>2012-07-21T20:16:24Z</time>
<extensions>
<speed>0.0</speed>
<temp>0.00</temp>
<bpm>0</bpm>
<rpm>0.00</rpm>
</extensions>
</trkpt>
<trkpt lat="64.068534851" lon="-19.449783325">
<ele>508.414063</ele>
<time>2012-07-21T20:16:29Z</time>
<extensions>
<speed>0.0</speed>
<temp>0.00</temp>
<bpm>0</bpm>
<rpm>0.00</rpm>
</extensions>
</trkpt>
<trkpt lat="64.068534851" lon="-19.449783325">
<ele>508.429688</ele>
<time>2012-07-21T20:16:34Z</time>
<extensions>
<speed>0.0</speed>
<temp>0.00</temp>
<bpm>0</bpm>
<rpm>0.00</rpm>
</extensions>
</trkpt>
<trkpt lat="64.068534851" lon="-19.449783325">
<ele>508.453125</ele>
<time>2012-07-21T20:16:39Z</time>
<extensions>
<speed>0.0</speed>
<temp>0.00</temp>
<bpm>0</bpm>
<rpm>0.00</rpm>
</extensions>
</trkpt>
<trkpt lat="64.068534851" lon="-19.449785233">
<ele>508.484375</ele>
<time>2012-07-21T20:16:44Z</time>
<extensions>
<speed>0.0</speed>
<temp>0.00</temp>
<bpm>0</bpm>
<rpm>0.00</rpm>
</extensions>
</trkpt>
<trkpt lat="64.068534851" lon="-19.449785233">
<ele>508.515625</ele>
<time>2012-07-21T20:16:49Z</time>
<extensions>
<speed>0.0</speed>
<temp>0.00</temp>
<bpm>0</bpm>
<rpm>0.00</rpm>
</extensions>
</trkpt>
<trkpt lat="64.068534851" lon="-19.449785233">
<ele>508.539063</ele>
<time>2012-07-21T20:16:54Z</time>
<extensions>
<speed>0.0</speed>
<temp>0.00</temp>
<bpm>0</bpm>
<rpm>0.00</rpm>
</extensions>
</trkpt>
<trkpt lat="64.068534851" lon="-19.449785233">
<ele>508.562500</ele>
<time>2012-07-21T20:16:59Z</time>
<speed>0.030000</speed>
<extensions>
<speed>0.0</speed>
<temp>0.00</temp>
<bpm>0</bpm>
<rpm>0.00</rpm>
</extensions>
</trkpt>
<trkpt lat="64.068534851" lon="-19.449785233">
<ele>508.578125</ele>
<time>2012-07-21T20:17:04Z</time>
<extensions>
<speed>0.0</speed>
<temp>0.00</temp>
<bpm>0</bpm>
<rpm>0.00</rpm>
</extensions>
</trkpt>
<trkpt lat="64.068534851" lon="-19.449785233">
<ele>508.601563</ele>
<time>2012-07-21T20:17:09Z</time>
<extensions>
<speed>0.0</speed>
<temp>0.00</temp>
<bpm>0</bpm>
<rpm>0.00</rpm>
</extensions>
</trkpt>
<trkpt lat="64.068534851" lon="-19.449785233">
<ele>508.632813</ele>
<time>2012-07-21T20:17:14Z</time>
<speed>0.010000</speed>
<extensions>
<speed>0.0</speed>
<temp>0.00</temp>
<bpm>0</bpm>
<rpm>0.00</rpm>
</extensions>
</trkpt>
<trkpt lat="64.068534851" lon="-19.449785233">
<ele>508.656250</ele>
<time>2012-07-21T20:17:19Z</time>
<extensions>
<speed>0.0</speed>
<temp>0.00</temp>
<bpm>0</bpm>
<rpm>0.00</rpm>
</extensions>
</trkpt>
<trkpt lat="64.068534851" lon="-19.449785233">
<ele>508.671875</ele>
<time>2012-07-21T20:17:24Z</time>
<extensions>
<speed>0.0</speed>
<temp>0.00</temp>
<bpm>0</bpm>
<rpm>0.00</rpm>
</extensions>
</trkpt>
<trkpt lat="64.068534851" lon="-19.449785233">
<ele>508.703125</ele>
<time>2012-07-21T20:17:29Z</time>
<extensions>
<speed>0.0</speed>
<temp>0.00</temp>
<bpm>0</bpm>
<rpm>0.00</rpm>
</extensions>
</trkpt>
<trkpt lat="64.068534851" lon="-19.449785233">
<ele>508.726563</ele>
<time>2012-07-21T20:17:34Z</time>
<extensions>
<speed>0.0</speed>
<temp>0.00</temp>
<bpm>0</bpm>
<rpm>0.00</rpm>
</extensions>
</trkpt>
<trkpt lat="64.068534851" lon="-19.449785233">
<ele>508.757813</ele>
<time>2012-07-21T20:17:39Z</time>
<extensions>
<speed>0.0</speed>
<temp>0.00</temp>
<bpm>0</bpm>
<rpm>0.00</rpm>
</extensions>
</trkpt>
<trkpt lat="64.068534851" lon="-19.449785233">
<ele>508.781250</ele>
<time>2012-07-21T20:17:44Z</time>
<speed>0.060000</speed>
<extensions>
<speed>0.1</speed>
<temp>0.00</temp>
<bpm>0</bpm>
<rpm>0.00</rpm>
</extensions>
</trkpt>
<trkpt lat="64.068550110" lon="-19.449703217">
<ele>508.234375</ele>
<time>2012-07-21T20:17:49Z</time>
<speed>1.600000</speed>
<extensions>
<speed>1.6</speed>
<temp>0.00</temp>
<bpm>0</bpm>
<rpm>0.00</rpm>
</extensions>
</trkpt>
<trkpt lat="64.068572998" lon="-19.449550629">
<ele>508.687500</ele>
<time>2012-07-21T20:17:54Z</time>
<speed>1.290000</speed>
<extensions>
<speed>1.3</speed>
<temp>0.00</temp>
<bpm>0</bpm>
<rpm>0.00</rpm>
</extensions>
</trkpt>
<trkpt lat="64.068595886" lon="-19.449419022">
<ele>508.835938</ele>
<time>2012-07-21T20:17:59Z</time>
<speed>1.500000</speed>
<extensions>
<speed>1.5</speed>
<temp>0.00</temp>
<bpm>0</bpm>
<rpm>0.00</rpm>
</extensions>
</trkpt>
<trkpt lat="64.068618774" lon="-19.449275970">
<ele>508.859375</ele>
<time>2012-07-21T20:18:04Z</time>
<speed>1.420000</speed>
<extensions>
<speed>1.4</speed>
<temp>0.00</temp>
<bpm>0</bpm>
<rpm>0.00</rpm>
</extensions>
</trkpt>
<trkpt lat="64.068649292" lon="-19.449148178">
<ele>508.773438</ele>
<time>2012-07-21T20:18:09Z</time>
<speed>1.450000</speed>
<extensions>
<speed>1.4</speed>
<temp>0.00</temp>
<bpm>0</bpm>
<rpm>0.00</rpm>
</extensions>
</trkpt>
<trkpt lat="64.068679810" lon="-19.449029922">
<ele>508.570313</ele>
<time>2012-07-21T20:18:14Z</time>
<speed>1.500000</speed>
<extensions>
<speed>1.5</speed>
<temp>0.00</temp>
<bpm>0</bpm>
<rpm>0.00</rpm>
</extensions>
</trkpt>
<trkpt lat="64.068695068" lon="-19.448888779">
<ele>508.632813</ele>
<time>2012-07-21T20:18:19Z</time>
<speed>1.350000</speed>
<extensions>
<speed>1.4</speed>
<temp>0.00</temp>
<bpm>0</bpm>
<rpm>0.00</rpm>
</extensions>
</trkpt>
<trkpt lat="64.068717957" lon="-19.448780060">
<ele>508.656250</ele>
<time>2012-07-21T20:18:24Z</time>
<speed>0.700000</speed>
<extensions>
<speed>0.7</speed>
<temp>0.00</temp>
<bpm>0</bpm>
<rpm>0.00</rpm>
</extensions>
</trkpt>
<trkpt lat="64.068733215" lon="-19.448696136">
<ele>508.312500</ele>
<time>2012-07-21T20:18:29Z</time>
<speed>1.280000</speed>
<extensions>
<speed>1.3</speed>
<temp>0.00</temp>
<bpm>0</bpm>
<rpm>0.00</rpm>
</extensions>
</trkpt>
<trkpt lat="64.068740845" lon="-19.448610306">
<ele>508.609375</ele>
<time>2012-07-21T20:18:34Z</time>
<speed>0.900000</speed>
<extensions>
<speed>0.9</speed>
<temp>0.00</temp>
<bpm>0</bpm>
<rpm>0.00</rpm>
</extensions>
</trkpt>
<trkpt lat="64.068748474" lon="-19.448549271">
<ele>508.664063</ele>
<time>2012-07-21T20:18:39Z</time>
<speed>0.210000</speed>
<extensions>
<speed>0.2</speed>
<temp>0.00</temp>
<bpm>0</bpm>
<rpm>0.00</rpm>
</extensions>
</trkpt>
<trkpt lat="64.068756104" lon="-19.448463440">
<ele>508.609375</ele>
<time>2012-07-21T20:18:44Z</time>
<speed>1.240000</speed>
<extensions>
<speed>1.2</speed>
<temp>0.00</temp>
<bpm>0</bpm>
<rpm>0.00</rpm>
</extensions>
</trkpt>
<trkpt lat="64.068778992" lon="-19.448362350">
<ele>508.625000</ele>
<time>2012-07-21T20:18:49Z</time>
<speed>1.280000</speed>
<extensions>
<speed>1.3</speed>
<temp>0.00</temp>
<bpm>0</bpm>
<rpm>0.00</rpm>
</extensions>
</trkpt>
<trkpt lat="64.068794250" lon="-19.448276520">
<ele>508.773438</ele>
<time>2012-07-21T20:18:54Z</time>
<speed>0.200000</speed>
<extensions>
<speed>0.2</speed>
<temp>0.00</temp>
<bpm>0</bpm>
<rpm>0.00</rpm>
</extensions>
</trkpt>
<trkpt lat="64.068794250" lon="-19.448287964">
<ele>508.765625</ele>
<time>2012-07-21T20:18:59Z</time>
<speed>0.010000</speed>
<extensions>
<speed>0.0</speed>
<temp>0.00</temp>
<bpm>0</bpm>
<rpm>0.00</rpm>
</extensions>
</trkpt>
<trkpt lat="64.068786621" lon="-19.448291779">
<ele>508.773438</ele>
<time>2012-07-21T20:19:04Z</time>
<speed>0.120000</speed>
<extensions>
<speed>0.1</speed>
<temp>0.00</temp>
<bpm>0</bpm>
<rpm>0.00</rpm>
</extensions>
</trkpt>
<trkpt lat="64.068794250" lon="-19.448282242">
<ele>508.742188</ele>
<time>2012-07-21T20:19:09Z</time>
<speed>0.020000</speed>
<extensions>
<speed>0.0</speed>
<temp>0.00</temp>
<bpm>0</bpm>
<rpm>0.00</rpm>
</extensions>
</trkpt>
<trkpt lat="64.068801880" lon="-19.448213577">
<ele>508.593750</ele>
<time>2012-07-21T20:19:14Z</time>
<speed>1.230000</speed>
<extensions>
<speed>1.2</speed>
<temp>0.00</temp>
<bpm>0</bpm>
<rpm>0.00</rpm>
</extensions>
</trkpt>
<trkpt lat="64.068809509" lon="-19.448099136">
<ele>508.281250</ele>
<time>2012-07-21T20:19:19Z</time>
<speed>1.320000</speed>
<extensions>
<speed>1.3</speed>
<temp>0.00</temp>
<bpm>0</bpm>
<rpm>0.00</rpm>
</extensions>
</trkpt>
<trkpt lat="64.068817139" lon="-19.447957993">
<ele>507.601563</ele>
<time>2012-07-21T20:19:24Z</time>
<speed>1.430000</speed>
<extensions>
<speed>1.4</speed>
<temp>0.00</temp>
<bpm>0</bpm>
<rpm>0.00</rpm>
</extensions>
</trkpt>
<trkpt lat="64.068840027" lon="-19.447820663">
<ele>507.945313</ele>
<time>2012-07-21T20:19:29Z</time>
<speed>1.500000</speed>
<extensions>
<speed>1.5</speed>
<temp>0.00</temp>
<bpm>0</bpm>
<rpm>0.00</rpm>
</extensions>
</trkpt>
<trkpt lat="64.068855286" lon="-19.447679520">
<ele>508.093750</ele>
<time>2012-07-21T20:19:34Z</time>
<speed>1.560000</speed>
<extensions>
<speed>1.6</speed>
<temp>0.00</temp>
<bpm>0</bpm>
<rpm>0.00</rpm>
</extensions>
</trkpt>
<trkpt lat="64.068885803" lon="-19.447526932">
<ele>508.398438</ele>
<time>2012-07-21T20:19:39Z</time>
<speed>1.720000</speed>
<extensions>
<speed>1.7</speed>
<temp>0.00</temp>
<bpm>0</bpm>
<rpm>0.00</rpm>
</extensions>
</trkpt>
<trkpt lat="64.068908691" lon="-19.447347641">
<ele>508.468750</ele>
<time>2012-07-21T20:19:44Z</time>
<speed>1.570000</speed>
<extensions>
<speed>1.6</speed>
<temp>0.00</temp>
<bpm>0</bpm>
<rpm>0.00</rpm>
</extensions>
</trkpt>
<trkpt lat="64.068931580" lon="-19.447198868">
<ele>508.734375</ele>
<time>2012-07-21T20:19:49Z</time>
<speed>1.520000</speed>
<extensions>
<speed>1.5</speed>
<temp>0.00</temp>
<bpm>0</bpm>
<rpm>0.00</rpm>
</extensions>
</trkpt>
<trkpt lat="64.068946838" lon="-19.447046280">
<ele>509.039063</ele>
<time>2012-07-21T20:19:54Z</time>
<speed>1.630000</speed>
<extensions>
<speed>1.6</speed>
<temp>0.00</temp>
<bpm>0</bpm>
<rpm>0.00</rpm>
</extensions>
</trkpt>
<trkpt lat="64.068969727" lon="-19.446908951">
<ele>509.406250</ele>
<time>2012-07-21T20:19:59Z</time>
<speed>1.530000</speed>
<extensions>
<speed>1.5</speed>
<temp>0.00</temp>
<bpm>0</bpm>
<rpm>0.00</rpm>
</extensions>
</trkpt>
<trkpt lat="64.068992615" lon="-19.446758270">
<ele>509.929688</ele>
<time>2012-07-21T20:20:04Z</time>
<speed>1.430000</speed>
<extensions>
<speed>1.4</speed>
<temp>0.00</temp>
<bpm>0</bpm>
<rpm>0.00</rpm>
</extensions>
</trkpt>
<trkpt lat="64.069015503" lon="-19.446634293">
<ele>510.273438</ele>
<time>2012-07-21T20:20:09Z</time>
<speed>1.240000</speed>
<extensions>
<speed>1.2</speed>
<temp>0.00</temp>
<bpm>0</bpm>
<rpm>0.00</rpm>
</extensions>
</trkpt>
<trkpt lat="64.069038391" lon="-19.446521759">
<ele>510.523438</ele>
<time>2012-07-21T20:20:14Z</time>
<speed>1.400000</speed>
<extensions>
<speed>1.4</speed>
<temp>0.00</temp>
<bpm>0</bpm>
<rpm>0.00</rpm>
</extensions>
</trkpt>
<trkpt lat="64.069068909" lon="-19.446397781">
<ele>511.062500</ele>
<time>2012-07-21T20:20:19Z</time>
<speed>1.280000</speed>
<extensions>
<speed>1.3</speed>
<temp>0.00</temp>
<bpm>0</bpm>
<rpm>0.00</rpm>
</extensions>
</trkpt>
<trkpt lat="64.069091797" lon="-19.446275711">
<ele>511.375000</ele>
<time>2012-07-21T20:20:24Z</time>
<speed>1.340000</speed>
<extensions>
<speed>1.3</speed>
<temp>0.00</temp>
<bpm>0</bpm>
<rpm>0.00</rpm>
</extensions>
</trkpt>
<trkpt lat="64.069107056" lon="-19.446132660">
<ele>511.382813</ele>
<time>2012-07-21T20:20:29Z</time>
<speed>1.520000</speed>
<extensions>
<speed>1.5</speed>
<temp>0.00</temp>
<bpm>0</bpm>
<rpm>0.00</rpm>
</extensions>
</trkpt>
<trkpt lat="64.069122314" lon="-19.445981979">
<ele>511.570313</ele>
<time>2012-07-21T20:20:34Z</time>
<speed>1.210000</speed>
<extensions>
<speed>1.2</speed>
<temp>0.00</temp>
<bpm>0</bpm>
<rpm>0.00</rpm>
</extensions>
</trkpt>
<trkpt lat="64.069145203" lon="-19.445846558">
<ele>511.117188</ele>
<time>2012-07-21T20:20:39Z</time>
<speed>1.400000</speed>
<extensions>
<speed>1.4</speed>
<temp>0.00</temp>
<bpm>0</bpm>
<rpm>0.00</rpm>
</extensions>
</trkpt>
<trkpt lat="64.069152832" lon="-19.445707321">
<ele>511.218750</ele>
<time>2012-07-21T20:20:44Z</time>
<speed>1.540000</speed>
<extensions>
<speed>1.5</speed>
<temp>0.00</temp>
<bpm>0</bpm>
<rpm>0.00</rpm>
</extensions>
</trkpt>
<trkpt lat="64.069160461" lon="-19.445573807">
<ele>510.570313</ele>
<time>2012-07-21T20:20:49Z</time>
<speed>1.280000</speed>
<extensions>
<speed>1.3</speed>
<temp>0.00</temp>
<bpm>0</bpm>
<rpm>0.00</rpm>
</extensions>
</trkpt>
<trkpt lat="64.069152832" lon="-19.445411682">
<ele>511.421875</ele>
<time>2012-07-21T20:20:54Z</time>
<speed>1.580000</speed>
<extensions>
<speed>1.6</speed>
<temp>0.00</temp>
<bpm>0</bpm>
<rpm>0.00</rpm>
</extensions>
</trkpt>
<trkpt lat="64.069152832" lon="-19.445262909">
<ele>512.109375</ele>
<time>2012-07-21T20:20:59Z</time>
<speed>1.450000</speed>
<extensions>
<speed>1.4</speed>
<temp>0.00</temp>
<bpm>0</bpm>
<rpm>0.00</rpm>
</extensions>
</trkpt>
<trkpt lat="64.069152832" lon="-19.445108414">
<ele>513.187500</ele>
<time>2012-07-21T20:21:04Z</time>
<speed>1.420000</speed>
<extensions>
<speed>1.4</speed>
<temp>0.00</temp>
<bpm>0</bpm>
<rpm>0.00</rpm>
</extensions>
</trkpt>
<trkpt lat="64.069160461" lon="-19.444948196">
<ele>513.734375</ele>
<time>2012-07-21T20:21:09Z</time>
<speed>1.560000</speed>
<extensions>
<speed>1.6</speed>
<temp>0.00</temp>
<bpm>0</bpm>
<rpm>0.00</rpm>
</extensions>
</trkpt>
<trkpt lat="64.069168091" lon="-19.444803238">
<ele>514.468750</ele>
<time>2012-07-21T20:21:14Z</time>
<speed>1.430000</speed>
<extensions>
<speed>1.4</speed>
<temp>0.00</temp>
<bpm>0</bpm>
<rpm>0.00</rpm>
</extensions>
</trkpt>
<trkpt lat="64.069175720" lon="-19.444633484">
<ele>515.171875</ele>
<time>2012-07-21T20:21:19Z</time>
<speed>1.250000</speed>
<extensions>
<speed>1.3</speed>
<temp>0.00</temp>
<bpm>0</bpm>
<rpm>0.00</rpm>
</extensions>
</trkpt>
<trkpt lat="64.069190979" lon="-19.444570541">
<ele>515.390625</ele>
<time>2012-07-21T20:21:24Z</time>
<speed>1.330000</speed>
<extensions>
<speed>1.3</speed>
<temp>0.00</temp>
<bpm>0</bpm>
<rpm>0.00</rpm>
</extensions>
</trkpt>
<trkpt lat="64.069213867" lon="-19.444332123">
<ele>514.718750</ele>
<time>2012-07-21T20:21:29Z</time>
<speed>2.420000</speed>
<extensions>
<speed>2.4</speed>
<temp>0.00</temp>
<bpm>0</bpm>
<rpm>0.00</rpm>
</extensions>
</trkpt>
<trkpt lat="64.069229126" lon="-19.444082260">
<ele>514.828125</ele>
<time>2012-07-21T20:21:34Z</time>
<speed>2.510000</speed>
<extensions>
<speed>2.5</speed>
<temp>0.00</temp>
<bpm>0</bpm>
<rpm>0.00</rpm>
</extensions>
</trkpt>
<trkpt lat="64.069259644" lon="-19.443864822">
<ele>515.312500</ele>
<time>2012-07-21T20:21:39Z</time>
<speed>1.630000</speed>
<extensions>
<speed>1.6</speed>
<temp>0.00</temp>
<bpm>0</bpm>
<rpm>0.00</rpm>
</extensions>
</trkpt>
<trkpt lat="64.069274902" lon="-19.443786621">
<ele>514.421875</ele>
<time>2012-07-21T20:21:44Z</time>
<speed>1.230000</speed>
<extensions>
<speed>1.2</speed>
<temp>0.00</temp>
<bpm>0</bpm>
<rpm>0.00</rpm>
</extensions>
</trkpt>
<trkpt lat="64.069297791" lon="-19.443639755">
<ele>514.343750</ele>
<time>2012-07-21T20:21:49Z</time>
<speed>2.130000</speed>
<extensions>
<speed>2.1</speed>
<temp>0.00</temp>
<bpm>0</bpm>
<rpm>0.00</rpm>
</extensions>
</trkpt>
<trkpt lat="64.069320679" lon="-19.443447113">
<ele>514.625000</ele>
<time>2012-07-21T20:21:54Z</time>
<speed>1.880000</speed>
<extensions>
<speed>1.9</speed>
<temp>0.00</temp>
<bpm>0</bpm>
<rpm>0.00</rpm>
</extensions>
</trkpt>
<trkpt lat="64.069343567" lon="-19.443262100">
<ele>515.046875</ele>
<time>2012-07-21T20:21:59Z</time>
<speed>1.980000</speed>
<extensions>
<speed>2.0</speed>
<temp>0.00</temp>
<bpm>0</bpm>
<rpm>0.00</rpm>
</extensions>
</trkpt>
<trkpt lat="64.069366455" lon="-19.443058014">
<ele>515.421875</ele>
<time>2012-07-21T20:22:04Z</time>
<speed>1.710000</speed>
<extensions>
<speed>1.7</speed>
<temp>0.00</temp>
<bpm>0</bpm>
<rpm>0.00</rpm>
</extensions>
</trkpt>
<trkpt lat="64.069374084" lon="-19.442901611">
<ele>515.640625</ele>
<time>2012-07-21T20:22:09Z</time>
<speed>1.740000</speed>
<extensions>
<speed>1.7</speed>
<temp>0.00</temp>
<bpm>0</bpm>
<rpm>0.00</rpm>
</extensions>
</trkpt>
<trkpt lat="64.069389343" lon="-19.442716599">
<ele>516.375000</ele>
<time>2012-07-21T20:22:14Z</time>
<speed>1.450000</speed>
<extensions>
<speed>1.4</speed>
<temp>0.00</temp>
<bpm>0</bpm>
<rpm>0.00</rpm>
</extensions>
</trkpt>
<trkpt lat="64.069404602" lon="-19.442575455">
<ele>516.781250</ele>
<time>2012-07-21T20:22:19Z</time>
<speed>1.510000</speed>
<extensions>
<speed>1.5</speed>
<temp>0.00</temp>
<bpm>0</bpm>
<rpm>0.00</rpm>
</extensions>
</trkpt>
<trkpt lat="64.069412231" lon="-19.442430496">
<ele>517.203125</ele>
<time>2012-07-21T20:22:24Z</time>
<speed>1.490000</speed>
<extensions>
<speed>1.5</speed>
<temp>0.00</temp>
<bpm>0</bpm>
<rpm>0.00</rpm>
</extensions>
</trkpt>
<trkpt lat="64.069419861" lon="-19.442285538">
<ele>517.546875</ele>
<time>2012-07-21T20:22:29Z</time>
<speed>1.600000</speed>
<extensions>
<speed>1.6</speed>
<temp>0.00</temp>
<bpm>0</bpm>
<rpm>0.00</rpm>
</extensions>
</trkpt>
<trkpt lat="64.069427490" lon="-19.442108154">
<ele>517.703125</ele>
<time>2012-07-21T20:22:34Z</time>
<speed>1.690000</speed>
<extensions>
<speed>1.7</speed>
<temp>0.00</temp>
<bpm>0</bpm>
<rpm>0.00</rpm>
</extensions>
</trkpt>
<trkpt lat="64.069450378" lon="-19.441946030">
<ele>518.156250</ele>
<time>2012-07-21T20:22:39Z</time>
<speed>1.390000</speed>
<extensions>
<speed>1.4</speed>
<temp>0.00</temp>
<bpm>0</bpm>
<rpm>0.00</rpm>
</extensions>
</trkpt>
<trkpt lat="64.069458008" lon="-19.441791534">
<ele>518.703125</ele>
<time>2012-07-21T20:22:44Z</time>
<speed>1.390000</speed>
<extensions>
<speed>1.4</speed>
<temp>0.00</temp>
<bpm>0</bpm>
<rpm>0.00</rpm>
</extensions>
</trkpt>
<trkpt lat="64.069435120" lon="-19.441648483">
<ele>518.968750</ele>
<time>2012-07-21T20:22:49Z</time>
<speed>1.450000</speed>
<extensions>
<speed>1.4</speed>
<temp>0.00</temp>
<bpm>0</bpm>
<rpm>0.00</rpm>
</extensions>
</trkpt>
<trkpt lat="64.069419861" lon="-19.441495895">
<ele>519.015625</ele>
<time>2012-07-21T20:22:54Z</time>
<speed>1.580000</speed>
<extensions>
<speed>1.6</speed>
<temp>0.00</temp>
<bpm>0</bpm>
<rpm>0.00</rpm>
</extensions>
</trkpt>
<trkpt lat="64.069404602" lon="-19.441328049">
<ele>519.640625</ele>
<time>2012-07-21T20:22:59Z</time>
<speed>1.740000</speed>
<extensions>
<speed>1.7</speed>
<temp>0.00</temp>
<bpm>0</bpm>
<rpm>0.00</rpm>
</extensions>
</trkpt>
<trkpt lat="64.069404602" lon="-19.441139221">
<ele>520.125000</ele>
<time>2012-07-21T20:23:04Z</time>
<speed>1.520000</speed>
<extensions>
<speed>1.5</speed>
<temp>0.00</temp>
<bpm>0</bpm>
<rpm>0.00</rpm>
</extensions>
</trkpt>
<trkpt lat="64.069427490" lon="-19.440969467">
<ele>519.406250</ele>
<time>2012-07-21T20:23:09Z</time>
<speed>1.470000</speed>
<extensions>
<speed>1.5</speed>
<temp>0.00</temp>
<bpm>0</bpm>
<rpm>0.00</rpm>
</extensions>
</trkpt>
<trkpt lat="64.069458008" lon="-19.440803528">
<ele>518.906250</ele>
<time>2012-07-21T20:23:14Z</time>
<speed>1.730000</speed>
<extensions>
<speed>1.7</speed>
<temp>0.00</temp>
<bpm>0</bpm>
<rpm>0.00</rpm>
</extensions>
</trkpt>
<trkpt lat="64.069450378" lon="-19.440641403">
<ele>518.875000</ele>
<time>2012-07-21T20:23:19Z</time>
<speed>1.860000</speed>
<extensions>
<speed>1.9</speed>
<temp>0.00</temp>
<bpm>0</bpm>
<rpm>0.00</rpm>
</extensions>
</trkpt>
<trkpt lat="64.069465637" lon="-19.440473557">
<ele>518.312500</ele>
<time>2012-07-21T20:23:24Z</time>
<speed>1.780000</speed>
<extensions>
<speed>1.8</speed>
<temp>0.00</temp>
<bpm>0</bpm>
<rpm>0.00</rpm>
</extensions>
</trkpt>
<trkpt lat="64.069488525" lon="-19.440271378">
<ele>518.203125</ele>
<time>2012-07-21T20:23:29Z</time>
<speed>2.090000</speed>
<extensions>
<speed>2.1</speed>
<temp>0.00</temp>
<bpm>0</bpm>
<rpm>0.00</rpm>
</extensions>
</trkpt>
<trkpt lat="64.069511414" lon="-19.440128326">
<ele>518.953125</ele>
<time>2012-07-21T20:23:34Z</time>
<speed>1.220000</speed>
<extensions>
<speed>1.2</speed>
<temp>0.00</temp>
<bpm>0</bpm>
<rpm>0.00</rpm>
</extensions>
</trkpt>
<trkpt lat="64.069534302" lon="-19.439962387">
<ele>518.578125</ele>
<time>2012-07-21T20:23:39Z</time>
<speed>2.220000</speed>
<extensions>
<speed>2.2</speed>
<temp>0.00</temp>
<bpm>0</bpm>
<rpm>0.00</rpm>
</extensions>
</trkpt>
<trkpt lat="64.069557190" lon="-19.439807892">
<ele>518.843750</ele>
<time>2012-07-21T20:23:44Z</time>
<speed>1.770000</speed>
<extensions>
<speed>1.8</speed>
<temp>0.00</temp>
<bpm>0</bpm>
<rpm>0.00</rpm>
</extensions>
</trkpt>
<trkpt lat="64.069557190" lon="-19.439579010">
<ele>518.937500</ele>
<time>2012-07-21T20:23:49Z</time>
<speed>2.170000</speed>
<extensions>
<speed>2.2</speed>
<temp>0.00</temp>
<bpm>0</bpm>
<rpm>0.00</rpm>
</extensions>
</trkpt>
<trkpt lat="64.069549561" lon="-19.439350128">
<ele>518.875000</ele>
<time>2012-07-21T20:23:54Z</time>
<speed>2.390000</speed>
<extensions>
<speed>2.4</speed>
<temp>0.00</temp>
<bpm>0</bpm>
<rpm>0.00</rpm>
</extensions>
</trkpt>
<trkpt lat="64.069541931" lon="-19.439092636">
<ele>518.250000</ele>
<time>2012-07-21T20:23:59Z</time>
<speed>2.790000</speed>
<extensions>
<speed>2.8</speed>
<temp>0.00</temp>
<bpm>0</bpm>
<rpm>0.00</rpm>
</extensions>
</trkpt>
<trkpt lat="64.069526672" lon="-19.438821793">
<ele>517.843750</ele>
<time>2012-07-21T20:24:04Z</time>
<speed>2.280000</speed>
<extensions>
<speed>2.3</speed>
<temp>0.00</temp>
<bpm>0</bpm>
<rpm>0.00</rpm>
</extensions>
</trkpt>
<trkpt lat="64.069503784" lon="-19.438594818">
<ele>517.687500</ele>
<time>2012-07-21T20:24:09Z</time>
<speed>2.410000</speed>
<extensions>
<speed>2.4</speed>
<temp>0.00</temp>
<bpm>0</bpm>
<rpm>0.00</rpm>
</extensions>
</trkpt>
<trkpt lat="64.069503784" lon="-19.438346863">
<ele>517.546875</ele>
<time>2012-07-21T20:24:14Z</time>
<speed>2.580000</speed>
<extensions>
<speed>2.6</speed>
<temp>0.00</temp>
<bpm>0</bpm>
<rpm>0.00</rpm>
</extensions>
</trkpt>
<trkpt lat="64.069511414" lon="-19.438116074">
<ele>517.296875</ele>
<time>2012-07-21T20:24:19Z</time>
<speed>2.310000</speed>
<extensions>
<speed>2.3</speed>
<temp>0.00</temp>
<bpm>0</bpm>
<rpm>0.00</rpm>
</extensions>
</trkpt>
<trkpt lat="64.069526672" lon="-19.437887192">
<ele>516.984375</ele>
<time>2012-07-21T20:24:24Z</time>
<speed>2.450000</speed>
<extensions>
<speed>2.4</speed>
<temp>0.00</temp>
<bpm>0</bpm>
<rpm>0.00</rpm>
</extensions>
</trkpt>
<trkpt lat="64.069534302" lon="-19.437654495">
<ele>516.484375</ele>
<time>2012-07-21T20:24:29Z</time>
<speed>2.400000</speed>
<extensions>
<speed>2.4</speed>
<temp>0.00</temp>
<bpm>0</bpm>
<rpm>0.00</rpm>
</extensions>
</trkpt>
<trkpt lat="64.069549561" lon="-19.437410355">
<ele>516.281250</ele>
<time>2012-07-21T20:24:34Z</time>
<speed>2.380000</speed>
<extensions>
<speed>2.4</speed>
<temp>0.00</temp>
<bpm>0</bpm>
<rpm>0.00</rpm>
</extensions>
</trkpt>
<trkpt lat="64.069557190" lon="-19.437152863">
<ele>515.484375</ele>
<time>2012-07-21T20:24:39Z</time>
<speed>2.560000</speed>
<extensions>
<speed>2.6</speed>
<temp>0.00</temp>
<bpm>0</bpm>
<rpm>0.00</rpm>
</extensions>
</trkpt>
<trkpt lat="64.069557190" lon="-19.436859131">
<ele>514.906250</ele>
<time>2012-07-21T20:24:44Z</time>
<speed>2.830000</speed>
<extensions>
<speed>2.8</speed>
<temp>0.00</temp>
<bpm>0</bpm>
<rpm>0.00</rpm>
</extensions>
</trkpt>
<trkpt lat="64.069557190" lon="-19.436571121">
<ele>514.671875</ele>
<time>2012-07-21T20:24:49Z</time>
<speed>2.790000</speed>
<extensions>
<speed>2.8</speed>
<temp>0.00</temp>
<bpm>0</bpm>
<rpm>0.00</rpm>
</extensions>
</trkpt>
<trkpt lat="64.069557190" lon="-19.436277390">
<ele>514.484375</ele>
<time>2012-07-21T20:24:54Z</time>
<speed>2.700000</speed>
<extensions>
<speed>2.7</speed>
<temp>0.00</temp>
<bpm>0</bpm>
<rpm>0.00</rpm>
</extensions>
</trkpt>
<trkpt lat="64.069564819" lon="-19.435993195">
<ele>514.359375</ele>
<time>2012-07-21T20:24:59Z</time>
<speed>2.800000</speed>
<extensions>
<speed>2.8</speed>
<temp>0.00</temp>
<bpm>0</bpm>
<rpm>0.00</rpm>
</extensions>
</trkpt>
<trkpt lat="64.069557190" lon="-19.435745239">
<ele>514.343750</ele>
<time>2012-07-21T20:25:04Z</time>
<speed>2.210000</speed>
<extensions>
<speed>2.2</speed>
<temp>0.00</temp>
<bpm>0</bpm>
<rpm>0.00</rpm>
</extensions>
</trkpt>
<trkpt lat="64.069549561" lon="-19.435510635">
<ele>514.515625</ele>
<time>2012-07-21T20:25:09Z</time>
<speed>2.460000</speed>
<extensions>
<speed>2.5</speed>
<temp>0.00</temp>
<bpm>0</bpm>
<rpm>0.00</rpm>
</extensions>
</trkpt>
<trkpt lat="64.069549561" lon="-19.435260773">
<ele>514.546875</ele>
<time>2012-07-21T20:25:14Z</time>
<speed>2.540000</speed>
<extensions>
<speed>2.5</speed>
<temp>0.00</temp>
<bpm>0</bpm>
<rpm>0.00</rpm>
</extensions>
</trkpt>
<trkpt lat="64.069541931" lon="-19.434982300">
<ele>514.500000</ele>
<time>2012-07-21T20:25:19Z</time>
<speed>2.570000</speed>
<extensions>
<speed>2.6</speed>
<temp>0.00</temp>
<bpm>0</bpm>
<rpm>0.00</rpm>
</extensions>
</trkpt>
<trkpt lat="64.069526672" lon="-19.434711456">
<ele>514.093750</ele>
<time>2012-07-21T20:25:24Z</time>
<speed>2.560000</speed>
<extensions>
<speed>2.6</speed>
<temp>0.00</temp>
<bpm>0</bpm>
<rpm>0.00</rpm>
</extensions>
</trkpt>
<trkpt lat="64.069519043" lon="-19.434513092">
<ele>514.187500</ele>
<time>2012-07-21T20:25:29Z</time>
<speed>1.340000</speed>
<extensions>
<speed>1.3</speed>
<temp>0.00</temp>
<bpm>0</bpm>
<rpm>0.00</rpm>
</extensions>
</trkpt>
<trkpt lat="64.069503784" lon="-19.434341431">
<ele>514.609375</ele>
<time>2012-07-21T20:25:34Z</time>
<speed>2.030000</speed>
<extensions>
<speed>2.0</speed>
<temp>0.00</temp>
<bpm>0</bpm>
<rpm>0.00</rpm>
</extensions>
</trkpt>
<trkpt lat="64.069488525" lon="-19.434162140">
<ele>514.734375</ele>
<time>2012-07-21T20:25:39Z</time>
<speed>0.980000</speed>
<extensions>
<speed>1.0</speed>
<temp>0.00</temp>
<bpm>0</bpm>
<rpm>0.00</rpm>
</extensions>
</trkpt>
<trkpt lat="64.069473267" lon="-19.433990479">
<ele>514.359375</ele>
<time>2012-07-21T20:25:44Z</time>
<speed>1.910000</speed>
<extensions>
<speed>1.9</speed>
<temp>0.00</temp>
<bpm>0</bpm>
<rpm>0.00</rpm>
</extensions>
</trkpt>
<trkpt lat="64.069458008" lon="-19.433794022">
<ele>514.250000</ele>
<time>2012-07-21T20:25:49Z</time>
<speed>1.830000</speed>
<extensions>
<speed>1.8</speed>
<temp>0.00</temp>
<bpm>0</bpm>
<rpm>0.00</rpm>
</extensions>
</trkpt>
<trkpt lat="64.069465637" lon="-19.433603287">
<ele>513.750000</ele>
<time>2012-07-21T20:25:54Z</time>
<speed>2.180000</speed>
<extensions>
<speed>2.2</speed>
<temp>0.00</temp>
<bpm>0</bpm>
<rpm>0.00</rpm>
</extensions>
</trkpt>
<trkpt lat="64.069473267" lon="-19.433395386">
<ele>513.906250</ele>
<time>2012-07-21T20:25:59Z</time>
<speed>1.420000</speed>
<extensions>
<speed>1.4</speed>
<temp>0.00</temp>
<bpm>0</bpm>
<rpm>0.00</rpm>
</extensions>
</trkpt>
<trkpt lat="64.069511414" lon="-19.433212280">
<ele>513.984375</ele>
<time>2012-07-21T20:26:04Z</time>
<speed>2.260000</speed>
<extensions>
<speed>2.3</speed>
<temp>0.00</temp>
<bpm>0</bpm>
<rpm>0.00</rpm>
</extensions>
</trkpt>
<trkpt lat="64.069541931" lon="-19.432973862">
<ele>513.484375</ele>
<time>2012-07-21T20:26:09Z</time>
<speed>2.480000</speed>
<extensions>
<speed>2.5</speed>
<temp>0.00</temp>
<bpm>0</bpm>
<rpm>0.00</rpm>
</extensions>
</trkpt>
<trkpt lat="64.069572449" lon="-19.432737350">
<ele>512.937500</ele>
<time>2012-07-21T20:26:14Z</time>
<speed>2.320000</speed>
<extensions>
<speed>2.3</speed>
<temp>0.00</temp>
<bpm>0</bpm>
<rpm>0.00</rpm>
</extensions>
</trkpt>
<trkpt lat="64.069587708" lon="-19.432538986">
<ele>512.640625</ele>
<time>2012-07-21T20:26:19Z</time>
<speed>2.160000</speed>
<extensions>
<speed>2.2</speed>
<temp>0.00</temp>
<bpm>0</bpm>
<rpm>0.00</rpm>
</extensions>
</trkpt>
<trkpt lat="64.069625854" lon="-19.432352066">
<ele>512.375000</ele>
<time>2012-07-21T20:26:24Z</time>
<speed>1.950000</speed>
<extensions>
<speed>1.9</speed>
<temp>0.00</temp>
<bpm>0</bpm>
<rpm>0.00</rpm>
</extensions>
</trkpt>
<trkpt lat="64.069671631" lon="-19.432176590">
<ele>512.359375</ele>
<time>2012-07-21T20:26:29Z</time>
<speed>1.990000</speed>
<extensions>
<speed>2.0</speed>
<temp>0.00</temp>
<bpm>0</bpm>
<rpm>0.00</rpm>
</extensions>
</trkpt>
<trkpt lat="64.069702148" lon="-19.431953430">
<ele>511.648438</ele>
<time>2012-07-21T20:26:34Z</time>
<speed>2.030000</speed>
<extensions>
<speed>2.0</speed>
<temp>0.00</temp>
<bpm>0</bpm>
<rpm>0.00</rpm>
</extensions>
</trkpt>
<trkpt lat="64.069732666" lon="-19.431768417">
<ele>511.210938</ele>
<time>2012-07-21T20:26:39Z</time>
<speed>2.110000</speed>
<extensions>
<speed>2.1</speed>
<temp>0.00</temp>
<bpm>0</bpm>
<rpm>0.00</rpm>
</extensions>
</trkpt>
<trkpt lat="64.069770813" lon="-19.431554794">
<ele>510.687500</ele>
<time>2012-07-21T20:26:44Z</time>
<speed>2.310000</speed>
<extensions>
<speed>2.3</speed>
<temp>0.00</temp>
<bpm>0</bpm>
<rpm>0.00</rpm>
</extensions>
</trkpt>
<trkpt lat="64.069824219" lon="-19.431337357">
<ele>510.296875</ele>
<time>2012-07-21T20:26:49Z</time>
<speed>2.380000</speed>
<extensions>
<speed>2.4</speed>
<temp>0.00</temp>
<bpm>0</bpm>
<rpm>0.00</rpm>
</extensions>
</trkpt>
<trkpt lat="64.069885254" lon="-19.431098938">
<ele>509.953125</ele>
<time>2012-07-21T20:26:54Z</time>
<speed>2.800000</speed>
<extensions>
<speed>2.8</speed>
<temp>0.00</temp>
<bpm>0</bpm>
<rpm>0.00</rpm>
</extensions>
</trkpt>
<trkpt lat="64.069953918" lon="-19.430875778">
<ele>509.984375</ele>
<time>2012-07-21T20:26:59Z</time>
<speed>2.750000</speed>
<extensions>
<speed>2.7</speed>
<temp>0.00</temp>
<bpm>0</bpm>
<rpm>0.00</rpm>
</extensions>
</trkpt>
<trkpt lat="64.070022583" lon="-19.430641174">
<ele>509.531250</ele>
<time>2012-07-21T20:27:04Z</time>
<speed>2.230000</speed>
<extensions>
<speed>2.2</speed>
<temp>0.00</temp>
<bpm>0</bpm>
<rpm>0.00</rpm>
</extensions>
</trkpt>
<trkpt lat="64.070068359" lon="-19.430467606">
<ele>509.132813</ele>
<time>2012-07-21T20:27:09Z</time>
<speed>2.060000</speed>
<extensions>
<speed>2.1</speed>
<temp>0.00</temp>
<bpm>0</bpm>
<rpm>0.00</rpm>
</extensions>
</trkpt>
<trkpt lat="64.070129395" lon="-19.430282593">
<ele>509.117188</ele>
<time>2012-07-21T20:27:14Z</time>
<speed>1.860000</speed>
<extensions>
<speed>1.9</speed>
<temp>0.00</temp>
<bpm>0</bpm>
<rpm>0.00</rpm>
</extensions>
</trkpt>
<trkpt lat="64.070175171" lon="-19.430089951">
<ele>509.437500</ele>
<time>2012-07-21T20:27:19Z</time>
<speed>2.020000</speed>
<extensions>
<speed>2.0</speed>
<temp>0.00</temp>
<bpm>0</bpm>
<rpm>0.00</rpm>
</extensions>
</trkpt>
<trkpt lat="64.070228577" lon="-19.429901123">
<ele>509.265625</ele>
<time>2012-07-21T20:27:24Z</time>
<speed>2.030000</speed>
<extensions>
<speed>2.0</speed>
<temp>0.00</temp>
<bpm>0</bpm>
<rpm>0.00</rpm>
</extensions>
</trkpt>
<trkpt lat="64.070266724" lon="-19.429723740">
<ele>509.562500</ele>
<time>2012-07-21T20:27:29Z</time>
<speed>2.270000</speed>
<extensions>
<speed>2.3</speed>
<temp>0.00</temp>
<bpm>0</bpm>
<rpm>0.00</rpm>
</extensions>
</trkpt>
<trkpt lat="64.070320129" lon="-19.429502487">
<ele>509.679688</ele>
<time>2012-07-21T20:27:34Z</time>
<speed>2.370000</speed>
<extensions>
<speed>2.4</speed>
<temp>0.00</temp>
<bpm>0</bpm>
<rpm>0.00</rpm>
</extensions>
</trkpt>
<trkpt lat="64.070343018" lon="-19.429306030">
<ele>509.171875</ele>
<time>2012-07-21T20:27:39Z</time>
<speed>2.150000</speed>
<extensions>
<speed>2.1</speed>
<temp>0.00</temp>
<bpm>0</bpm>
<rpm>0.00</rpm>
</extensions>
</trkpt>
<trkpt lat="64.070365906" lon="-19.429090500">
<ele>508.320313</ele>
<time>2012-07-21T20:27:44Z</time>
<speed>2.330000</speed>
<extensions>
<speed>2.3</speed>
<temp>0.00</temp>
<bpm>0</bpm>
<rpm>0.00</rpm>
</extensions>
</trkpt>
<trkpt lat="64.070411682" lon="-19.428855896">
<ele>507.757813</ele>
<time>2012-07-21T20:27:49Z</time>
<speed>2.490000</speed>
<extensions>
<speed>2.5</speed>
<temp>0.00</temp>
<bpm>0</bpm>
<rpm>0.00</rpm>
</extensions>
</trkpt>
<trkpt lat="64.070449829" lon="-19.428621292">
<ele>507.750000</ele>
<time>2012-07-21T20:27:54Z</time>
<speed>2.030000</speed>
<extensions>
<speed>2.0</speed>
<temp>0.00</temp>
<bpm>0</bpm>
<rpm>0.00</rpm>
</extensions>
</trkpt>
<trkpt lat="64.070472717" lon="-19.428445816">
<ele>507.484375</ele>
<time>2012-07-21T20:27:59Z</time>
<speed>1.650000</speed>
<extensions>
<speed>1.7</speed>
<temp>0.00</temp>
<bpm>0</bpm>
<rpm>0.00</rpm>
</extensions>
</trkpt>
<trkpt lat="64.070487976" lon="-19.428255081">
<ele>506.968750</ele>
<time>2012-07-21T20:28:04Z</time>
<speed>1.960000</speed>
<extensions>
<speed>2.0</speed>
<temp>0.00</temp>
<bpm>0</bpm>
<rpm>0.00</rpm>
</extensions>
</trkpt>
<trkpt lat="64.070495605" lon="-19.428073883">
<ele>507.070313</ele>
<time>2012-07-21T20:28:09Z</time>
<speed>1.940000</speed>
<extensions>
<speed>1.9</speed>
<temp>0.00</temp>
<bpm>0</bpm>
<rpm>0.00</rpm>
</extensions>
</trkpt>
<trkpt lat="64.070510864" lon="-19.427873611">
<ele>507.289063</ele>
<time>2012-07-21T20:28:14Z</time>
<speed>1.970000</speed>
<extensions>
<speed>2.0</speed>
<temp>0.00</temp>
<bpm>0</bpm>
<rpm>0.00</rpm>
</extensions>
</trkpt>
<trkpt lat="64.070518494" lon="-19.427682877">
<ele>506.250000</ele>
<time>2012-07-21T20:28:19Z</time>
<speed>2.150000</speed>
<extensions>
<speed>2.1</speed>
<temp>0.00</temp>
<bpm>0</bpm>
<rpm>0.00</rpm>
</extensions>
</trkpt>
<trkpt lat="64.070533752" lon="-19.427497864">
<ele>506.531250</ele>
<time>2012-07-21T20:28:24Z</time>
<speed>1.940000</speed>
<extensions>
<speed>1.9</speed>
<temp>0.00</temp>
<bpm>0</bpm>
<rpm>0.00</rpm>
</extensions>
</trkpt>
<trkpt lat="64.070541382" lon="-19.427314758">
<ele>507.164063</ele>
<time>2012-07-21T20:28:29Z</time>
<speed>2.030000</speed>
<extensions>
<speed>2.0</speed>
<temp>0.00</temp>
<bpm>0</bpm>
<rpm>0.00</rpm>
</extensions>
</trkpt>
<trkpt lat="64.070549011" lon="-19.427167892">
<ele>507.500000</ele>
<time>2012-07-21T20:28:34Z</time>
<speed>1.480000</speed>
<extensions>
<speed>1.5</speed>
<temp>0.00</temp>
<bpm>0</bpm>
<rpm>0.00</rpm>
</extensions>
</trkpt>
<trkpt lat="64.070556641" lon="-19.427011490">
<ele>507.054688</ele>
<time>2012-07-21T20:28:39Z</time>
<speed>1.450000</speed>
<extensions>
<speed>1.4</speed>
<temp>0.00</temp>
<bpm>0</bpm>
<rpm>0.00</rpm>
</extensions>
</trkpt>
<trkpt lat="64.070564270" lon="-19.426832199">
<ele>507.164063</ele>
<time>2012-07-21T20:28:44Z</time>
<speed>1.740000</speed>
<extensions>
<speed>1.7</speed>
<temp>0.00</temp>
<bpm>0</bpm>
<rpm>0.00</rpm>
</extensions>
</trkpt>
<trkpt lat="64.070571899" lon="-19.426630020">
<ele>507.398438</ele>
<time>2012-07-21T20:28:49Z</time>
<speed>2.070000</speed>
<extensions>
<speed>2.1</speed>
<temp>0.00</temp>
<bpm>0</bpm>
<rpm>0.00</rpm>
</extensions>
</trkpt>
<trkpt lat="64.070579529" lon="-19.426397324">
<ele>506.984375</ele>
<time>2012-07-21T20:28:54Z</time>
<speed>2.150000</speed>
<extensions>
<speed>2.1</speed>
<temp>0.00</temp>
<bpm>0</bpm>
<rpm>0.00</rpm>
</extensions>
</trkpt>
<trkpt lat="64.070571899" lon="-19.426197052">
<ele>506.414063</ele>
<time>2012-07-21T20:28:59Z</time>
<speed>1.500000</speed>
<extensions>
<speed>1.5</speed>
<temp>0.00</temp>
<bpm>0</bpm>
<rpm>0.00</rpm>
</extensions>
</trkpt>
<trkpt lat="64.070571899" lon="-19.426128387">
<ele>506.851563</ele>
<time>2012-07-21T20:29:04Z</time>
<speed>0.850000</speed>
<extensions>
<speed>0.8</speed>
<temp>0.00</temp>
<bpm>0</bpm>
<rpm>0.00</rpm>
</extensions>
</trkpt>
<trkpt lat="64.070602417" lon="-19.425975800">
<ele>507.078125</ele>
<time>2012-07-21T20:29:09Z</time>
<speed>2.060000</speed>
<extensions>
<speed>2.1</speed>
<temp>0.00</temp>
<bpm>0</bpm>
<rpm>0.00</rpm>
</extensions>
</trkpt>
<trkpt lat="64.070594788" lon="-19.425771713">
<ele>506.757813</ele>
<time>2012-07-21T20:29:14Z</time>
<speed>2.010000</speed>
<extensions>
<speed>2.0</speed>
<temp>0.00</temp>
<bpm>0</bpm>
<rpm>0.00</rpm>
</extensions>
</trkpt>
<trkpt lat="64.070602417" lon="-19.425575256">
<ele>506.578125</ele>
<time>2012-07-21T20:29:19Z</time>
<speed>1.840000</speed>
<extensions>
<speed>1.8</speed>
<temp>0.00</temp>
<bpm>0</bpm>
<rpm>0.00</rpm>
</extensions>
</trkpt>
<trkpt lat="64.070610046" lon="-19.425363541">
<ele>505.953125</ele>
<time>2012-07-21T20:29:24Z</time>
<speed>2.070000</speed>
<extensions>
<speed>2.1</speed>
<temp>0.00</temp>
<bpm>0</bpm>
<rpm>0.00</rpm>
</extensions>
</trkpt>
<trkpt lat="64.070625305" lon="-19.425151825">
<ele>505.648438</ele>
<time>2012-07-21T20:29:29Z</time>
<speed>2.250000</speed>
<extensions>
<speed>2.3</speed>
<temp>0.00</temp>
<bpm>0</bpm>
<rpm>0.00</rpm>
</extensions>
</trkpt>
<trkpt lat="64.070640564" lon="-19.424917221">
<ele>505.476563</ele>
<time>2012-07-21T20:29:34Z</time>
<speed>2.170000</speed>
<extensions>
<speed>2.2</speed>
<temp>0.00</temp>
<bpm>0</bpm>
<rpm>0.00</rpm>
</extensions>
</trkpt>
<trkpt lat="64.070663452" lon="-19.424728394">
<ele>504.578125</ele>
<time>2012-07-21T20:29:39Z</time>
<speed>1.430000</speed>
<extensions>
<speed>1.4</speed>
<temp>0.00</temp>
<bpm>0</bpm>
<rpm>0.00</rpm>
</extensions>
</trkpt>
<trkpt lat="64.070671082" lon="-19.424522400">
<ele>503.570313</ele>
<time>2012-07-21T20:29:44Z</time>
<speed>2.400000</speed>
<extensions>
<speed>2.4</speed>
<temp>0.00</temp>
<bpm>0</bpm>
<rpm>0.00</rpm>
</extensions>
</trkpt>
<trkpt lat="64.070693970" lon="-19.424301147">
<ele>503.726563</ele>
<time>2012-07-21T20:29:49Z</time>
<speed>2.240000</speed>
<extensions>
<speed>2.2</speed>
<temp>0.00</temp>
<bpm>0</bpm>
<rpm>0.00</rpm>
</extensions>
</trkpt>
<trkpt lat="64.070709229" lon="-19.424077988">
<ele>503.531250</ele>
<time>2012-07-21T20:29:54Z</time>
<speed>2.350000</speed>
<extensions>
<speed>2.4</speed>
<temp>0.00</temp>
<bpm>0</bpm>
<rpm>0.00</rpm>
</extensions>
</trkpt>
<trkpt lat="64.070724487" lon="-19.423896790">
<ele>503.296875</ele>
<time>2012-07-21T20:29:59Z</time>
<speed>2.000000</speed>
<extensions>
<speed>2.0</speed>
<temp>0.00</temp>
<bpm>0</bpm>
<rpm>0.00</rpm>
</extensions>
</trkpt>
<trkpt lat="64.070732117" lon="-19.423658371">
<ele>502.937500</ele>
<time>2012-07-21T20:30:04Z</time>
<speed>2.100000</speed>
<extensions>
<speed>2.1</speed>
<temp>0.00</temp>
<bpm>0</bpm>
<rpm>0.00</rpm>
</extensions>
</trkpt>
<trkpt lat="64.070739746" lon="-19.423444748">
<ele>502.312500</ele>
<time>2012-07-21T20:30:09Z</time>
<speed>2.330000</speed>
<extensions>
<speed>2.3</speed>
<temp>0.00</temp>
<bpm>0</bpm>
<rpm>0.00</rpm>
</extensions>
</trkpt>
<trkpt lat="64.070732117" lon="-19.423254013">
<ele>502.070313</ele>
<time>2012-07-21T20:30:14Z</time>
<speed>1.900000</speed>
<extensions>
<speed>1.9</speed>
<temp>0.00</temp>
<bpm>0</bpm>
<rpm>0.00</rpm>
</extensions>
</trkpt>
<trkpt lat="64.070709229" lon="-19.423070908">
<ele>502.656250</ele>
<time>2012-07-21T20:30:19Z</time>
<speed>1.770000</speed>
<extensions>
<speed>1.8</speed>
<temp>0.00</temp>
<bpm>0</bpm>
<rpm>0.00</rpm>
</extensions>
</trkpt>
<trkpt lat="64.070678711" lon="-19.422903061">
<ele>502.640625</ele>
<time>2012-07-21T20:30:24Z</time>
<speed>1.750000</speed>
<extensions>
<speed>1.8</speed>
<temp>0.00</temp>
<bpm>0</bpm>
<rpm>0.00</rpm>
</extensions>
</trkpt>
<trkpt lat="64.070648193" lon="-19.422784805">
<ele>503.601563</ele>
<time>2012-07-21T20:30:29Z</time>
<speed>1.210000</speed>
<extensions>
<speed>1.2</speed>
<temp>0.00</temp>
<bpm>0</bpm>
<rpm>0.00</rpm>
</extensions>
</trkpt>
<trkpt lat="64.070648193" lon="-19.422792435">
<ele>504.164063</ele>
<time>2012-07-21T20:30:34Z</time>
<speed>0.220000</speed>
<extensions>
<speed>0.2</speed>
<temp>0.00</temp>
<bpm>0</bpm>
<rpm>0.00</rpm>
</extensions>
</trkpt>
<trkpt lat="64.070640564" lon="-19.422765732">
<ele>504.328125</ele>
<time>2012-07-21T20:30:39Z</time>
<speed>0.140000</speed>
<extensions>
<speed>0.1</speed>
<temp>0.00</temp>
<bpm>0</bpm>
<rpm>0.00</rpm>
</extensions>
</trkpt>
<trkpt lat="64.070632935" lon="-19.422727585">
<ele>504.531250</ele>
<time>2012-07-21T20:30:44Z</time>
<speed>0.720000</speed>
<extensions>
<speed>0.7</speed>
<temp>0.00</temp>
<bpm>0</bpm>
<rpm>0.00</rpm>
</extensions>
</trkpt>
<trkpt lat="64.070594788" lon="-19.422651291">
<ele>504.953125</ele>
<time>2012-07-21T20:30:49Z</time>
<speed>0.980000</speed>
<extensions>
<speed>1.0</speed>
<temp>0.00</temp>
<bpm>0</bpm>
<rpm>0.00</rpm>
</extensions>
</trkpt>
<trkpt lat="64.070556641" lon="-19.422599792">
<ele>506.187500</ele>
<time>2012-07-21T20:30:54Z</time>
<speed>0.790000</speed>
<extensions>
<speed>0.8</speed>
<temp>0.00</temp>
<bpm>0</bpm>
<rpm>0.00</rpm>
</extensions>
</trkpt>
<trkpt lat="64.070526123" lon="-19.422554016">
<ele>507.000000</ele>
<time>2012-07-21T20:30:59Z</time>
<speed>0.660000</speed>
<extensions>
<speed>0.7</speed>
<temp>0.00</temp>
<bpm>0</bpm>
<rpm>0.00</rpm>
</extensions>
</trkpt>
<trkpt lat="64.070495605" lon="-19.422506332">
<ele>507.757813</ele>
<time>2012-07-21T20:31:04Z</time>
<speed>0.880000</speed>
<extensions>
<speed>0.9</speed>
<temp>0.00</temp>
<bpm>0</bpm>
<rpm>0.00</rpm>
</extensions>
</trkpt>
<trkpt lat="64.070457458" lon="-19.422466278">
<ele>507.562500</ele>
<time>2012-07-21T20:31:09Z</time>
<speed>1.090000</speed>
<extensions>
<speed>1.1</speed>
<temp>0.00</temp>
<bpm>0</bpm>
<rpm>0.00</rpm>
</extensions>
</trkpt>
<trkpt lat="64.070426941" lon="-19.422403336">
<ele>507.304688</ele>
<time>2012-07-21T20:31:14Z</time>
<speed>0.840000</speed>
<extensions>
<speed>0.8</speed>
<temp>0.00</temp>
<bpm>0</bpm>
<rpm>0.00</rpm>
</extensions>
</trkpt>
<trkpt lat="64.070404053" lon="-19.422357559">
<ele>507.523438</ele>
<time>2012-07-21T20:31:19Z</time>
<speed>0.090000</speed>
<extensions>
<speed>0.1</speed>
<temp>0.00</temp>
<bpm>0</bpm>
<rpm>0.00</rpm>
</extensions>
</trkpt>
<trkpt lat="64.070381165" lon="-19.422325134">
<ele>507.140625</ele>
<time>2012-07-21T20:31:24Z</time>
<speed>1.300000</speed>
<extensions>
<speed>1.3</speed>
<temp>0.00</temp>
<bpm>0</bpm>
<rpm>0.00</rpm>
</extensions>
</trkpt>
<trkpt lat="64.070350647" lon="-19.422269821">
<ele>506.007813</ele>
<time>2012-07-21T20:31:29Z</time>
<speed>1.170000</speed>
<extensions>
<speed>1.2</speed>
<temp>0.00</temp>
<bpm>0</bpm>
<rpm>0.00</rpm>
</extensions>
</trkpt>
<trkpt lat="64.070320129" lon="-19.422189713">
<ele>506.750000</ele>
<time>2012-07-21T20:31:34Z</time>
<speed>1.210000</speed>
<extensions>
<speed>1.2</speed>
<temp>0.00</temp>
<bpm>0</bpm>
<rpm>0.00</rpm>
</extensions>
</trkpt>
<trkpt lat="64.070274353" lon="-19.422094345">
<ele>506.992188</ele>
<time>2012-07-21T20:31:39Z</time>
<speed>1.350000</speed>
<extensions>
<speed>1.4</speed>
<temp>0.00</temp>
<bpm>0</bpm>
<rpm>0.00</rpm>
</extensions>
</trkpt>
<trkpt lat="64.070236206" lon="-19.422008514">
<ele>507.007813</ele>
<time>2012-07-21T20:31:44Z</time>
<speed>1.270000</speed>
<extensions>
<speed>1.3</speed>
<temp>0.00</temp>
<bpm>0</bpm>
<rpm>0.00</rpm>
</extensions>
</trkpt>
<trkpt lat="64.070198059" lon="-19.421920776">
<ele>507.875000</ele>
<time>2012-07-21T20:31:49Z</time>
<speed>1.330000</speed>
<extensions>
<speed>1.3</speed>
<temp>0.00</temp>
<bpm>0</bpm>
<rpm>0.00</rpm>
</extensions>
</trkpt>
<trkpt lat="64.070167542" lon="-19.421842575">
<ele>508.828125</ele>
<time>2012-07-21T20:31:54Z</time>
<speed>0.880000</speed>
<extensions>
<speed>0.9</speed>
<temp>0.00</temp>
<bpm>0</bpm>
<rpm>0.00</rpm>
</extensions>
</trkpt>
<trkpt lat="64.070129395" lon="-19.421762466">
<ele>509.687500</ele>
<time>2012-07-21T20:31:59Z</time>
<speed>1.160000</speed>
<extensions>
<speed>1.2</speed>
<temp>0.00</temp>
<bpm>0</bpm>
<rpm>0.00</rpm>
</extensions>
</trkpt>
<trkpt lat="64.070106506" lon="-19.421684265">
<ele>510.234375</ele>
<time>2012-07-21T20:32:04Z</time>
<speed>0.840000</speed>
<extensions>
<speed>0.8</speed>
<temp>0.00</temp>
<bpm>0</bpm>
<rpm>0.00</rpm>
</extensions>
</trkpt>
<trkpt lat="64.070075989" lon="-19.421632767">
<ele>510.187500</ele>
<time>2012-07-21T20:32:09Z</time>
<speed>0.830000</speed>
<extensions>
<speed>0.8</speed>
<temp>0.00</temp>
<bpm>0</bpm>
<rpm>0.00</rpm>
</extensions>
</trkpt>
<trkpt lat="64.070045471" lon="-19.421545029">
<ele>511.265625</ele>
<time>2012-07-21T20:32:14Z</time>
<speed>1.010000</speed>
<extensions>
<speed>1.0</speed>
<temp>0.00</temp>
<bpm>0</bpm>
<rpm>0.00</rpm>
</extensions>
</trkpt>
<trkpt lat="64.070022583" lon="-19.421430588">
<ele>511.937500</ele>
<time>2012-07-21T20:32:19Z</time>
<speed>1.070000</speed>
<extensions>
<speed>1.1</speed>
<temp>0.00</temp>
<bpm>0</bpm>
<rpm>0.00</rpm>
</extensions>
</trkpt>
<trkpt lat="64.069999695" lon="-19.421333313">
<ele>512.312500</ele>
<time>2012-07-21T20:32:24Z</time>
<speed>1.030000</speed>
<extensions>
<speed>1.0</speed>
<temp>0.00</temp>
<bpm>0</bpm>
<rpm>0.00</rpm>
</extensions>
</trkpt>
<trkpt lat="64.069976807" lon="-19.421222687">
<ele>512.375000</ele>
<time>2012-07-21T20:32:29Z</time>
<speed>1.130000</speed>
<extensions>
<speed>1.1</speed>
<temp>0.00</temp>
<bpm>0</bpm>
<rpm>0.00</rpm>
</extensions>
</trkpt>
<trkpt lat="64.069946289" lon="-19.421125412">
<ele>513.562500</ele>
<time>2012-07-21T20:32:34Z</time>
<speed>1.070000</speed>
<extensions>
<speed>1.1</speed>
<temp>0.00</temp>
<bpm>0</bpm>
<rpm>0.00</rpm>
</extensions>
</trkpt>
<trkpt lat="64.069931030" lon="-19.421024323">
<ele>514.000000</ele>
<time>2012-07-21T20:32:39Z</time>
<speed>0.860000</speed>
<extensions>
<speed>0.9</speed>
<temp>0.00</temp>
<bpm>0</bpm>
<rpm>0.00</rpm>
</extensions>
</trkpt>
<trkpt lat="64.069908142" lon="-19.420936584">
<ele>514.187500</ele>
<time>2012-07-21T20:32:44Z</time>
<speed>1.090000</speed>
<extensions>
<speed>1.1</speed>
<temp>0.00</temp>
<bpm>0</bpm>
<rpm>0.00</rpm>
</extensions>
</trkpt>
<trkpt lat="64.069877625" lon="-19.420850754">
<ele>514.234375</ele>
<time>2012-07-21T20:32:49Z</time>
<speed>0.910000</speed>
<extensions>
<speed>0.9</speed>
<temp>0.00</temp>
<bpm>0</bpm>
<rpm>0.00</rpm>
</extensions>
</trkpt>
<trkpt lat="64.069854736" lon="-19.420776367">
<ele>514.468750</ele>
<time>2012-07-21T20:32:54Z</time>
<speed>1.010000</speed>
<extensions>
<speed>1.0</speed>
<temp>0.00</temp>
<bpm>0</bpm>
<rpm>0.00</rpm>
</extensions>
</trkpt>
<trkpt lat="64.069816589" lon="-19.420719147">
<ele>515.125000</ele>
<time>2012-07-21T20:32:59Z</time>
<speed>1.030000</speed>
<extensions>
<speed>1.0</speed>
<temp>0.00</temp>
<bpm>0</bpm>
<rpm>0.00</rpm>
</extensions>
</trkpt>
<trkpt lat="64.069786072" lon="-19.420631409">
<ele>516.125000</ele>
<time>2012-07-21T20:33:04Z</time>
<speed>1.400000</speed>
<extensions>
<speed>1.4</speed>
<temp>0.00</temp>
<bpm>0</bpm>
<rpm>0.00</rpm>
</extensions>
</trkpt>
<trkpt lat="64.069725037" lon="-19.420534134">
<ele>511.695313</ele>
<time>2012-07-21T20:33:09Z</time>
<speed>1.350000</speed>
<extensions>
<speed>1.4</speed>
<temp>0.00</temp>
<bpm>0</bpm>
<rpm>0.00</rpm>
</extensions>
</trkpt>
<trkpt lat="64.069664001" lon="-19.420482635">
<ele>511.398438</ele>
<time>2012-07-21T20:33:14Z</time>
<speed>1.410000</speed>
<extensions>
<speed>1.4</speed>
<temp>0.00</temp>
<bpm>0</bpm>
<rpm>0.00</rpm>
</extensions>
</trkpt>
<trkpt lat="64.069618225" lon="-19.420423508">
<ele>511.242188</ele>
<time>2012-07-21T20:33:19Z</time>
<speed>1.400000</speed>
<extensions>
<speed>1.4</speed>
<temp>0.00</temp>
<bpm>0</bpm>
<rpm>0.00</rpm>
</extensions>
</trkpt>
<trkpt lat="64.069557190" lon="-19.420347214">
<ele>510.312500</ele>
<time>2012-07-21T20:33:24Z</time>
<speed>1.530000</speed>
<extensions>
<speed>1.5</speed>
<temp>0.00</temp>
<bpm>0</bpm>
<rpm>0.00</rpm>
</extensions>
</trkpt>
<trkpt lat="64.069503784" lon="-19.420263290">
<ele>509.375000</ele>
<time>2012-07-21T20:33:29Z</time>
<speed>1.290000</speed>
<extensions>
<speed>1.3</speed>
<temp>0.00</temp>
<bpm>0</bpm>
<rpm>0.00</rpm>
</extensions>
</trkpt>
<trkpt lat="64.069458008" lon="-19.420148849">
<ele>508.882813</ele>
<time>2012-07-21T20:33:34Z</time>
<speed>1.350000</speed>
<extensions>
<speed>1.4</speed>
<temp>0.00</temp>
<bpm>0</bpm>
<rpm>0.00</rpm>
</extensions>
</trkpt>
<trkpt lat="64.069419861" lon="-19.420034409">
<ele>508.734375</ele>
<time>2012-07-21T20:33:39Z</time>
<speed>1.510000</speed>
<extensions>
<speed>1.5</speed>
<temp>0.00</temp>
<bpm>0</bpm>
<rpm>0.00</rpm>
</extensions>
</trkpt>
<trkpt lat="64.069374084" lon="-19.419933319">
<ele>505.734375</ele>
<time>2012-07-21T20:33:44Z</time>
<speed>1.370000</speed>
<extensions>
<speed>1.4</speed>
<temp>0.00</temp>
<bpm>0</bpm>
<rpm>0.00</rpm>
</extensions>
</trkpt>
<trkpt lat="64.069328308" lon="-19.419815063">
<ele>505.468750</ele>
<time>2012-07-21T20:33:49Z</time>
<speed>1.380000</speed>
<extensions>
<speed>1.4</speed>
<temp>0.00</temp>
<bpm>0</bpm>
<rpm>0.00</rpm>
</extensions>
</trkpt>
<trkpt lat="64.069320679" lon="-19.419767380">
<ele>506.484375</ele>
<time>2012-07-21T20:33:54Z</time>
<speed>0.020000</speed>
<extensions>
<speed>0.0</speed>
<temp>0.00</temp>
<bpm>0</bpm>
<rpm>0.00</rpm>
</extensions>
</trkpt>
<trkpt lat="64.069320679" lon="-19.419769287">
<ele>506.468750</ele>
<time>2012-07-21T20:33:59Z</time>
<speed>0.010000</speed>
<extensions>
<speed>0.0</speed>
<temp>0.00</temp>
<bpm>0</bpm>
<rpm>0.00</rpm>
</extensions>
</trkpt>
<trkpt lat="64.069320679" lon="-19.419769287">
<ele>506.453125</ele>
<time>2012-07-21T20:34:04Z</time>
<extensions>
<speed>0.0</speed>
<temp>0.00</temp>
<bpm>0</bpm>
<rpm>0.00</rpm>
</extensions>
</trkpt>
<trkpt lat="64.069320679" lon="-19.419769287">
<ele>506.476563</ele>
<time>2012-07-21T20:34:09Z</time>
<speed>0.010000</speed>
<extensions>
<speed>0.0</speed>
<temp>0.00</temp>
<bpm>0</bpm>
<rpm>0.00</rpm>
</extensions>
</trkpt>
<trkpt lat="64.069320679" lon="-19.419769287">
<ele>506.507813</ele>
<time>2012-07-21T20:34:14Z</time>
<extensions>
<speed>0.0</speed>
<temp>0.00</temp>
<bpm>0</bpm>
<rpm>0.00</rpm>
</extensions>
</trkpt>
<trkpt lat="64.069320679" lon="-19.419769287">
<ele>506.531250</ele>
<time>2012-07-21T20:34:19Z</time>
<speed>0.010000</speed>
<extensions>
<speed>0.0</speed>
<temp>0.00</temp>
<bpm>0</bpm>
<rpm>0.00</rpm>
</extensions>
</trkpt>
<trkpt lat="64.069320679" lon="-19.419769287">
<ele>506.570313</ele>
<time>2012-07-21T20:34:24Z</time>
<speed>0.020000</speed>
<extensions>
<speed>0.0</speed>
<temp>0.00</temp>
<bpm>0</bpm>
<rpm>0.00</rpm>
</extensions>
</trkpt>
<trkpt lat="64.069320679" lon="-19.419769287">
<ele>506.585938</ele>
<time>2012-07-21T20:34:29Z</time>
<speed>0.010000</speed>
<extensions>
<speed>0.0</speed>
<temp>0.00</temp>
<bpm>0</bpm>
<rpm>0.00</rpm>
</extensions>
</trkpt>
<trkpt lat="64.069328308" lon="-19.419769287">
<ele>506.640625</ele>
<time>2012-07-21T20:34:34Z</time>
<speed>0.010000</speed>
<extensions>
<speed>0.0</speed>
<temp>0.00</temp>
<bpm>0</bpm>
<rpm>0.00</rpm>
</extensions>
</trkpt>
<trkpt lat="64.069328308" lon="-19.419769287">
<ele>506.656250</ele>
<time>2012-07-21T20:34:39Z</time>
<speed>0.010000</speed>
<extensions>
<speed>0.0</speed>
<temp>0.00</temp>
<bpm>0</bpm>
<rpm>0.00</rpm>
</extensions>
</trkpt>
<trkpt lat="64.069328308" lon="-19.419771194">
<ele>506.625000</ele>
<time>2012-07-21T20:34:44Z</time>
<speed>0.100000</speed>
<extensions>
<speed>0.1</speed>
<temp>0.00</temp>
<bpm>0</bpm>
<rpm>0.00</rpm>
</extensions>
</trkpt>
<trkpt lat="64.069328308" lon="-19.419767380">
<ele>506.664063</ele>
<time>2012-07-21T20:34:49Z</time>
<speed>0.040000</speed>
<extensions>
<speed>0.0</speed>
<temp>0.00</temp>
<bpm>0</bpm>
<rpm>0.00</rpm>
</extensions>
</trkpt>
<trkpt lat="64.069320679" lon="-19.419759750">
<ele>506.890625</ele>
<time>2012-07-21T20:34:54Z</time>
<speed>0.930000</speed>
<extensions>
<speed>0.9</speed>
<temp>0.00</temp>
<bpm>0</bpm>
<rpm>0.00</rpm>
</extensions>
</trkpt>
<trkpt lat="64.069290161" lon="-19.419662476">
<ele>507.546875</ele>
<time>2012-07-21T20:34:59Z</time>
<speed>1.470000</speed>
<extensions>
<speed>1.5</speed>
<temp>0.00</temp>
<bpm>0</bpm>
<rpm>0.00</rpm>
</extensions>
</trkpt>
<trkpt lat="64.069259644" lon="-19.419563293">
<ele>507.531250</ele>
<time>2012-07-21T20:35:04Z</time>
<speed>0.050000</speed>
<extensions>
<speed>0.1</speed>
<temp>0.00</temp>
<bpm>0</bpm>
<rpm>0.00</rpm>
</extensions>
</trkpt>
<trkpt lat="64.069236755" lon="-19.419500351">
<ele>508.500000</ele>
<time>2012-07-21T20:35:09Z</time>
<speed>1.820000</speed>
<extensions>
<speed>1.8</speed>
<temp>0.00</temp>
<bpm>0</bpm>
<rpm>0.00</rpm>
</extensions>
</trkpt>
<trkpt lat="64.069190979" lon="-19.419324875">
<ele>508.812500</ele>
<time>2012-07-21T20:35:14Z</time>
<speed>1.800000</speed>
<extensions>
<speed>1.8</speed>
<temp>0.00</temp>
<bpm>0</bpm>
<rpm>0.00</rpm>
</extensions>
</trkpt>
<trkpt lat="64.069129944" lon="-19.419214249">
<ele>509.093750</ele>
<time>2012-07-21T20:35:19Z</time>
<speed>1.820000</speed>
<extensions>
<speed>1.8</speed>
<temp>0.00</temp>
<bpm>0</bpm>
<rpm>0.00</rpm>
</extensions>
</trkpt>
<trkpt lat="64.069076538" lon="-19.419088364">
<ele>508.898438</ele>
<time>2012-07-21T20:35:24Z</time>
<speed>1.620000</speed>
<extensions>
<speed>1.6</speed>
<temp>0.00</temp>
<bpm>0</bpm>
<rpm>0.00</rpm>
</extensions>
</trkpt>
<trkpt lat="64.069015503" lon="-19.418983459">
<ele>509.140625</ele>
<time>2012-07-21T20:35:29Z</time>
<speed>1.780000</speed>
<extensions>
<speed>1.8</speed>
<temp>0.00</temp>
<bpm>0</bpm>
<rpm>0.00</rpm>
</extensions>
</trkpt>
<trkpt lat="64.068954468" lon="-19.418857574">
<ele>508.820313</ele>
<time>2012-07-21T20:35:34Z</time>
<speed>1.810000</speed>
<extensions>
<speed>1.8</speed>
<temp>0.00</temp>
<bpm>0</bpm>
<rpm>0.00</rpm>
</extensions>
</trkpt>
<trkpt lat="64.068893433" lon="-19.418746948">
<ele>509.078125</ele>
<time>2012-07-21T20:35:39Z</time>
<speed>1.980000</speed>
<extensions>
<speed>2.0</speed>
<temp>0.00</temp>
<bpm>0</bpm>
<rpm>0.00</rpm>
</extensions>
</trkpt>
<trkpt lat="64.068847656" lon="-19.418598175">
<ele>509.875000</ele>
<time>2012-07-21T20:35:44Z</time>
<speed>1.770000</speed>
<extensions>
<speed>1.8</speed>
<temp>0.00</temp>
<bpm>0</bpm>
<rpm>0.00</rpm>
</extensions>
</trkpt>
<trkpt lat="64.068794250" lon="-19.418436050">
<ele>510.523438</ele>
<time>2012-07-21T20:35:49Z</time>
<speed>1.850000</speed>
<extensions>
<speed>1.8</speed>
<temp>0.00</temp>
<bpm>0</bpm>
<rpm>0.00</rpm>
</extensions>
</trkpt>
<trkpt lat="64.068771362" lon="-19.418245316">
<ele>509.796875</ele>
<time>2012-07-21T20:35:54Z</time>
<speed>1.710000</speed>
<extensions>
<speed>1.7</speed>
<temp>0.00</temp>
<bpm>0</bpm>
<rpm>0.00</rpm>
</extensions>
</trkpt>
<trkpt lat="64.068763733" lon="-19.418033600">
<ele>508.140625</ele>
<time>2012-07-21T20:35:59Z</time>
<speed>2.520000</speed>
<extensions>
<speed>2.5</speed>
<temp>0.00</temp>
<bpm>0</bpm>
<rpm>0.00</rpm>
</extensions>
</trkpt>
<trkpt lat="64.068748474" lon="-19.417745590">
<ele>507.539063</ele>
<time>2012-07-21T20:36:04Z</time>
<speed>3.040000</speed>
<extensions>
<speed>3.0</speed>
<temp>0.00</temp>
<bpm>0</bpm>
<rpm>0.00</rpm>
</extensions>
</trkpt>
<trkpt lat="64.068756104" lon="-19.417461395">
<ele>508.062500</ele>
<time>2012-07-21T20:36:09Z</time>
<speed>2.400000</speed>
<extensions>
<speed>2.4</speed>
<temp>0.00</temp>
<bpm>0</bpm>
<rpm>0.00</rpm>
</extensions>
</trkpt>
<trkpt lat="64.068740845" lon="-19.417201996">
<ele>508.609375</ele>
<time>2012-07-21T20:36:14Z</time>
<speed>2.870000</speed>
<extensions>
<speed>2.9</speed>
<temp>0.00</temp>
<bpm>0</bpm>
<rpm>0.00</rpm>
</extensions>
</trkpt>
<trkpt lat="64.068733215" lon="-19.416904449">
<ele>508.195313</ele>
<time>2012-07-21T20:36:19Z</time>
<speed>3.210000</speed>
<extensions>
<speed>3.2</speed>
<temp>0.00</temp>
<bpm>0</bpm>
<rpm>0.00</rpm>
</extensions>
</trkpt>
<trkpt lat="64.068710327" lon="-19.416645050">
<ele>507.562500</ele>
<time>2012-07-21T20:36:24Z</time>
<speed>1.980000</speed>
<extensions>
<speed>2.0</speed>
<temp>0.00</temp>
<bpm>0</bpm>
<rpm>0.00</rpm>
</extensions>
</trkpt>
<trkpt lat="64.068679810" lon="-19.416509628">
<ele>507.382813</ele>
<time>2012-07-21T20:36:29Z</time>
<speed>1.560000</speed>
<extensions>
<speed>1.6</speed>
<temp>0.00</temp>
<bpm>0</bpm>
<rpm>0.00</rpm>
</extensions>
</trkpt>
<trkpt lat="64.068656921" lon="-19.416355133">
<ele>507.625000</ele>
<time>2012-07-21T20:36:34Z</time>
<speed>1.770000</speed>
<extensions>
<speed>1.8</speed>
<temp>0.00</temp>
<bpm>0</bpm>
<rpm>0.00</rpm>
</extensions>
</trkpt>
<trkpt lat="64.068603516" lon="-19.416212082">
<ele>508.078125</ele>
<time>2012-07-21T20:36:39Z</time>
<speed>1.450000</speed>
<extensions>
<speed>1.4</speed>
<temp>0.00</temp>
<bpm>0</bpm>
<rpm>0.00</rpm>
</extensions>
</trkpt>
<trkpt lat="64.068565369" lon="-19.416126251">
<ele>508.367188</ele>
<time>2012-07-21T20:36:44Z</time>
<speed>1.670000</speed>
<extensions>
<speed>1.7</speed>
<temp>0.00</temp>
<bpm>0</bpm>
<rpm>0.00</rpm>
</extensions>
</trkpt>
<trkpt lat="64.068519592" lon="-19.416006088">
<ele>508.781250</ele>
<time>2012-07-21T20:36:49Z</time>
<speed>1.390000</speed>
<extensions>
<speed>1.4</speed>
<temp>0.00</temp>
<bpm>0</bpm>
<rpm>0.00</rpm>
</extensions>
</trkpt>
<trkpt lat="64.068473816" lon="-19.415927887">
<ele>508.601563</ele>
<time>2012-07-21T20:36:54Z</time>
<speed>1.240000</speed>
<extensions>
<speed>1.2</speed>
<temp>0.00</temp>
<bpm>0</bpm>
<rpm>0.00</rpm>
</extensions>
</trkpt>
<trkpt lat="64.068443298" lon="-19.415813446">
<ele>508.328125</ele>
<time>2012-07-21T20:36:59Z</time>
<speed>1.440000</speed>
<extensions>
<speed>1.4</speed>
<temp>0.00</temp>
<bpm>0</bpm>
<rpm>0.00</rpm>
</extensions>
</trkpt>
<trkpt lat="64.068397522" lon="-19.415691376">
<ele>508.554688</ele>
<time>2012-07-21T20:37:04Z</time>
<speed>1.430000</speed>
<extensions>
<speed>1.4</speed>
<temp>0.00</temp>
<bpm>0</bpm>
<rpm>0.00</rpm>
</extensions>
</trkpt>
<trkpt lat="64.068351746" lon="-19.415578842">
<ele>509.093750</ele>
<time>2012-07-21T20:37:09Z</time>
<speed>1.400000</speed>
<extensions>
<speed>1.4</speed>
<temp>0.00</temp>
<bpm>0</bpm>
<rpm>0.00</rpm>
</extensions>
</trkpt>
<trkpt lat="64.068290710" lon="-19.415443420">
<ele>508.742188</ele>
<time>2012-07-21T20:37:14Z</time>
<speed>1.730000</speed>
<extensions>
<speed>1.7</speed>
<temp>0.00</temp>
<bpm>0</bpm>
<rpm>0.00</rpm>
</extensions>
</trkpt>
<trkpt lat="64.068244934" lon="-19.415313721">
<ele>508.875000</ele>
<time>2012-07-21T20:37:19Z</time>
<speed>1.510000</speed>
<extensions>
<speed>1.5</speed>
<temp>0.00</temp>
<bpm>0</bpm>
<rpm>0.00</rpm>
</extensions>
</trkpt>
<trkpt lat="64.068191528" lon="-19.415203094">
<ele>508.968750</ele>
<time>2012-07-21T20:37:24Z</time>
<speed>1.610000</speed>
<extensions>
<speed>1.6</speed>
<temp>0.00</temp>
<bpm>0</bpm>
<rpm>0.00</rpm>
</extensions>
</trkpt>
<trkpt lat="64.068153381" lon="-19.415086746">
<ele>509.273438</ele>
<time>2012-07-21T20:37:29Z</time>
<speed>1.670000</speed>
<extensions>
<speed>1.7</speed>
<temp>0.00</temp>
<bpm>0</bpm>
<rpm>0.00</rpm>
</extensions>
</trkpt>
<trkpt lat="64.068122864" lon="-19.415027618">
<ele>509.046875</ele>
<time>2012-07-21T20:37:34Z</time>
<speed>0.110000</speed>
<extensions>
<speed>0.1</speed>
<temp>0.00</temp>
<bpm>0</bpm>
<rpm>0.00</rpm>
</extensions>
</trkpt>
<trkpt lat="64.068122864" lon="-19.415027618">
<ele>508.906250</ele>
<time>2012-07-21T20:37:39Z</time>
<speed>0.070000</speed>
<extensions>
<speed>0.1</speed>
<temp>0.00</temp>
<bpm>0</bpm>
<rpm>0.00</rpm>
</extensions>
</trkpt>
<trkpt lat="64.068122864" lon="-19.415027618">
<ele>508.890625</ele>
<time>2012-07-21T20:37:44Z</time>
<extensions>
<speed>0.0</speed>
<temp>0.00</temp>
<bpm>0</bpm>
<rpm>0.00</rpm>
</extensions>
</trkpt>
<trkpt lat="64.068122864" lon="-19.415029526">
<ele>508.898438</ele>
<time>2012-07-21T20:37:49Z</time>
<extensions>
<speed>0.0</speed>
<temp>0.00</temp>
<bpm>0</bpm>
<rpm>0.00</rpm>
</extensions>
</trkpt>
<trkpt lat="64.068122864" lon="-19.415029526">
<ele>508.976563</ele>
<time>2012-07-21T20:37:54Z</time>
<speed>0.010000</speed>
<extensions>
<speed>0.0</speed>
<temp>0.00</temp>
<bpm>0</bpm>
<rpm>0.00</rpm>
</extensions>
</trkpt>
<trkpt lat="64.068122864" lon="-19.415029526">
<ele>508.921875</ele>
<time>2012-07-21T20:37:59Z</time>
<extensions>
<speed>0.0</speed>
<temp>0.00</temp>
<bpm>0</bpm>
<rpm>0.00</rpm>
</extensions>
</trkpt>
<trkpt lat="64.068122864" lon="-19.415029526">
<ele>508.875000</ele>
<time>2012-07-21T20:38:04Z</time>
<speed>0.010000</speed>
<extensions>
<speed>0.0</speed>
<temp>0.00</temp>
<bpm>0</bpm>
<rpm>0.00</rpm>
</extensions>
</trkpt>
<trkpt lat="64.068122864" lon="-19.415031433">
<ele>508.835938</ele>
<time>2012-07-21T20:38:09Z</time>
<speed>0.230000</speed>
<extensions>
<speed>0.2</speed>
<temp>0.00</temp>
<bpm>0</bpm>
<rpm>0.00</rpm>
</extensions>
</trkpt>
<trkpt lat="64.068122864" lon="-19.415039063">
<ele>508.960938</ele>
<time>2012-07-21T20:38:14Z</time>
<speed>0.180000</speed>
<extensions>
<speed>0.2</speed>
<temp>0.00</temp>
<bpm>0</bpm>
<rpm>0.00</rpm>
</extensions>
</trkpt>
<trkpt lat="64.068122864" lon="-19.415037155">
<ele>508.812500</ele>
<time>2012-07-21T20:38:19Z</time>
<extensions>
<speed>0.0</speed>
<temp>0.00</temp>
<bpm>0</bpm>
<rpm>0.00</rpm>
</extensions>
</trkpt>
<trkpt lat="64.068122864" lon="-19.415027618">
<ele>508.750000</ele>
<time>2012-07-21T20:38:24Z</time>
<speed>0.460000</speed>
<extensions>
<speed>0.5</speed>
<temp>0.00</temp>
<bpm>0</bpm>
<rpm>0.00</rpm>
</extensions>
</trkpt>
<trkpt lat="64.068107605" lon="-19.414968491">
<ele>509.500000</ele>
<time>2012-07-21T20:38:29Z</time>
<speed>1.010000</speed>
<extensions>
<speed>1.0</speed>
<temp>0.00</temp>
<bpm>0</bpm>
<rpm>0.00</rpm>
</extensions>
</trkpt>
<trkpt lat="64.068092346" lon="-19.414913177">
<ele>509.015625</ele>
<time>2012-07-21T20:38:34Z</time>
<speed>0.690000</speed>
<extensions>
<speed>0.7</speed>
<temp>0.00</temp>
<bpm>0</bpm>
<rpm>0.00</rpm>
</extensions>
</trkpt>
<trkpt lat="64.068069458" lon="-19.414831161">
<ele>508.601563</ele>
<time>2012-07-21T20:38:39Z</time>
<speed>1.110000</speed>
<extensions>
<speed>1.1</speed>
<temp>0.00</temp>
<bpm>0</bpm>
<rpm>0.00</rpm>
</extensions>
</trkpt>
<trkpt lat="64.068038940" lon="-19.414726257">
<ele>508.585938</ele>
<time>2012-07-21T20:38:44Z</time>
<speed>0.910000</speed>
<extensions>
<speed>0.9</speed>
<temp>0.00</temp>
<bpm>0</bpm>
<rpm>0.00</rpm>
</extensions>
</trkpt>
<trkpt lat="64.068031311" lon="-19.414665222">
<ele>508.335938</ele>
<time>2012-07-21T20:38:49Z</time>
<speed>0.440000</speed>
<extensions>
<speed>0.4</speed>
<temp>0.00</temp>
<bpm>0</bpm>
<rpm>0.00</rpm>
</extensions>
</trkpt>
<trkpt lat="64.068008423" lon="-19.414604187">
<ele>508.546875</ele>
<time>2012-07-21T20:38:54Z</time>
<speed>0.930000</speed>
<extensions>
<speed>0.9</speed>
<temp>0.00</temp>
<bpm>0</bpm>
<rpm>0.00</rpm>
</extensions>
</trkpt>
<trkpt lat="64.067985535" lon="-19.414520264">
<ele>509.195313</ele>
<time>2012-07-21T20:38:59Z</time>
<speed>0.900000</speed>
<extensions>
<speed>0.9</speed>
<temp>0.00</temp>
<bpm>0</bpm>
<rpm>0.00</rpm>
</extensions>
</trkpt>
<trkpt lat="64.067970276" lon="-19.414442062">
<ele>509.281250</ele>
<time>2012-07-21T20:39:04Z</time>
<speed>0.870000</speed>
<extensions>
<speed>0.9</speed>
<temp>0.00</temp>
<bpm>0</bpm>
<rpm>0.00</rpm>
</extensions>
</trkpt>
<trkpt lat="64.067947388" lon="-19.414358139">
<ele>509.445313</ele>
<time>2012-07-21T20:39:09Z</time>
<speed>1.010000</speed>
<extensions>
<speed>1.0</speed>
<temp>0.00</temp>
<bpm>0</bpm>
<rpm>0.00</rpm>
</extensions>
</trkpt>
<trkpt lat="64.067924500" lon="-19.414272308">
<ele>509.390625</ele>
<time>2012-07-21T20:39:14Z</time>
<speed>1.010000</speed>
<extensions>
<speed>1.0</speed>
<temp>0.00</temp>
<bpm>0</bpm>
<rpm>0.00</rpm>
</extensions>
</trkpt>
<trkpt lat="64.067916870" lon="-19.414167404">
<ele>509.468750</ele>
<time>2012-07-21T20:39:19Z</time>
<speed>1.050000</speed>
<extensions>
<speed>1.0</speed>
<temp>0.00</temp>
<bpm>0</bpm>
<rpm>0.00</rpm>
</extensions>
</trkpt>
<trkpt lat="64.067893982" lon="-19.414073944">
<ele>509.468750</ele>
<time>2012-07-21T20:39:24Z</time>
<speed>0.990000</speed>
<extensions>
<speed>1.0</speed>
<temp>0.00</temp>
<bpm>0</bpm>
<rpm>0.00</rpm>
</extensions>
</trkpt>
<trkpt lat="64.067878723" lon="-19.413980484">
<ele>509.476563</ele>
<time>2012-07-21T20:39:29Z</time>
<speed>1.010000</speed>
<extensions>
<speed>1.0</speed>
<temp>0.00</temp>
<bpm>0</bpm>
<rpm>0.00</rpm>
</extensions>
</trkpt>
<trkpt lat="64.067863464" lon="-19.413883209">
<ele>509.164063</ele>
<time>2012-07-21T20:39:34Z</time>
<speed>0.810000</speed>
<extensions>
<speed>0.8</speed>
<temp>0.00</temp>
<bpm>0</bpm>
<rpm>0.00</rpm>
</extensions>
</trkpt>
<trkpt lat="64.067840576" lon="-19.413814545">
<ele>508.820313</ele>
<time>2012-07-21T20:39:39Z</time>
<speed>0.860000</speed>
<extensions>
<speed>0.9</speed>
<temp>0.00</temp>
<bpm>0</bpm>
<rpm>0.00</rpm>
</extensions>
</trkpt>
<trkpt lat="64.067832947" lon="-19.413738251">
<ele>507.992188</ele>
<time>2012-07-21T20:39:44Z</time>
<speed>0.780000</speed>
<extensions>
<speed>0.8</speed>
<temp>0.00</temp>
<bpm>0</bpm>
<rpm>0.00</rpm>
</extensions>
</trkpt>
<trkpt lat="64.067825317" lon="-19.413656235">
<ele>508.078125</ele>
<time>2012-07-21T20:39:49Z</time>
<speed>1.450000</speed>
<extensions>
<speed>1.4</speed>
<temp>0.00</temp>
<bpm>0</bpm>
<rpm>0.00</rpm>
</extensions>
</trkpt>
<trkpt lat="64.067794800" lon="-19.413486481">
<ele>507.898438</ele>
<time>2012-07-21T20:39:54Z</time>
<speed>1.860000</speed>
<extensions>
<speed>1.9</speed>
<temp>0.00</temp>
<bpm>0</bpm>
<rpm>0.00</rpm>
</extensions>
</trkpt>
<trkpt lat="64.067764282" lon="-19.413276672">
<ele>507.820313</ele>
<time>2012-07-21T20:39:59Z</time>
<speed>1.830000</speed>
<extensions>
<speed>1.8</speed>
<temp>0.00</temp>
<bpm>0</bpm>
<rpm>0.00</rpm>
</extensions>
</trkpt>
<trkpt lat="64.067733765" lon="-19.413114548">
<ele>507.007813</ele>
<time>2012-07-21T20:40:04Z</time>
<speed>1.700000</speed>
<extensions>
<speed>1.7</speed>
<temp>0.00</temp>
<bpm>0</bpm>
<rpm>0.00</rpm>
</extensions>
</trkpt>
<trkpt lat="64.067703247" lon="-19.412942886">
<ele>506.890625</ele>
<time>2012-07-21T20:40:09Z</time>
<speed>1.910000</speed>
<extensions>
<speed>1.9</speed>
<temp>0.00</temp>
<bpm>0</bpm>
<rpm>0.00</rpm>
</extensions>
</trkpt>
<trkpt lat="64.067672729" lon="-19.412712097">
<ele>505.906250</ele>
<time>2012-07-21T20:40:14Z</time>
<speed>2.690000</speed>
<extensions>
<speed>2.7</speed>
<temp>0.00</temp>
<bpm>0</bpm>
<rpm>0.00</rpm>
</extensions>
</trkpt>
<trkpt lat="64.067665100" lon="-19.412452698">
<ele>504.476563</ele>
<time>2012-07-21T20:40:19Z</time>
<speed>2.230000</speed>
<extensions>
<speed>2.2</speed>
<temp>0.00</temp>
<bpm>0</bpm>
<rpm>0.00</rpm>
</extensions>
</trkpt>
<trkpt lat="64.067665100" lon="-19.412240982">
<ele>503.718750</ele>
<time>2012-07-21T20:40:24Z</time>
<speed>1.920000</speed>
<extensions>
<speed>1.9</speed>
<temp>0.00</temp>
<bpm>0</bpm>
<rpm>0.00</rpm>
</extensions>
</trkpt>
<trkpt lat="64.067672729" lon="-19.411998749">
<ele>503.203125</ele>
<time>2012-07-21T20:40:29Z</time>
<speed>2.680000</speed>
<extensions>
<speed>2.7</speed>
<temp>0.00</temp>
<bpm>0</bpm>
<rpm>0.00</rpm>
</extensions>
</trkpt>
<trkpt lat="64.067687988" lon="-19.411731720">
<ele>503.179688</ele>
<time>2012-07-21T20:40:34Z</time>
<speed>2.660000</speed>
<extensions>
<speed>2.7</speed>
<temp>0.00</temp>
<bpm>0</bpm>
<rpm>0.00</rpm>
</extensions>
</trkpt>
<trkpt lat="64.067687988" lon="-19.411470413">
<ele>503.242188</ele>
<time>2012-07-21T20:40:39Z</time>
<speed>2.490000</speed>
<extensions>
<speed>2.5</speed>
<temp>0.00</temp>
<bpm>0</bpm>
<rpm>0.00</rpm>
</extensions>
</trkpt>
<trkpt lat="64.067710876" lon="-19.411264420">
<ele>503.570313</ele>
<time>2012-07-21T20:40:44Z</time>
<speed>1.840000</speed>
<extensions>
<speed>1.8</speed>
<temp>0.00</temp>
<bpm>0</bpm>
<rpm>0.00</rpm>
</extensions>
</trkpt>
<trkpt lat="64.067726135" lon="-19.411098480">
<ele>503.328125</ele>
<time>2012-07-21T20:40:49Z</time>
<speed>1.800000</speed>
<extensions>
<speed>1.8</speed>
<temp>0.00</temp>
<bpm>0</bpm>
<rpm>0.00</rpm>
</extensions>
</trkpt>
<trkpt lat="64.067726135" lon="-19.410917282">
<ele>503.750000</ele>
<time>2012-07-21T20:40:54Z</time>
<speed>1.950000</speed>
<extensions>
<speed>1.9</speed>
<temp>0.00</temp>
<bpm>0</bpm>
<rpm>0.00</rpm>
</extensions>
</trkpt>
<trkpt lat="64.067741394" lon="-19.410730362">
<ele>504.007813</ele>
<time>2012-07-21T20:40:59Z</time>
<speed>1.930000</speed>
<extensions>
<speed>1.9</speed>
<temp>0.00</temp>
<bpm>0</bpm>
<rpm>0.00</rpm>
</extensions>
</trkpt>
<trkpt lat="64.067756653" lon="-19.410531998">
<ele>503.992188</ele>
<time>2012-07-21T20:41:04Z</time>
<speed>1.850000</speed>
<extensions>
<speed>1.8</speed>
<temp>0.00</temp>
<bpm>0</bpm>
<rpm>0.00</rpm>
</extensions>
</trkpt>
<trkpt lat="64.067764282" lon="-19.410335541">
<ele>504.109375</ele>
<time>2012-07-21T20:41:09Z</time>
<speed>1.910000</speed>
<extensions>
<speed>1.9</speed>
<temp>0.00</temp>
<bpm>0</bpm>
<rpm>0.00</rpm>
</extensions>
</trkpt>
<trkpt lat="64.067771912" lon="-19.410142899">
<ele>504.218750</ele>
<time>2012-07-21T20:41:14Z</time>
<speed>2.010000</speed>
<extensions>
<speed>2.0</speed>
<temp>0.00</temp>
<bpm>0</bpm>
<rpm>0.00</rpm>
</extensions>
</trkpt>
<trkpt lat="64.067787170" lon="-19.409963608">
<ele>504.500000</ele>
<time>2012-07-21T20:41:19Z</time>
<speed>1.530000</speed>
<extensions>
<speed>1.5</speed>
<temp>0.00</temp>
<bpm>0</bpm>
<rpm>0.00</rpm>
</extensions>
</trkpt>
<trkpt lat="64.067802429" lon="-19.409790039">
<ele>504.273438</ele>
<time>2012-07-21T20:41:24Z</time>
<speed>1.900000</speed>
<extensions>
<speed>1.9</speed>
<temp>0.00</temp>
<bpm>0</bpm>
<rpm>0.00</rpm>
</extensions>
</trkpt>
<trkpt lat="64.067802429" lon="-19.409614563">
<ele>504.406250</ele>
<time>2012-07-21T20:41:29Z</time>
<speed>1.870000</speed>
<extensions>
<speed>1.9</speed>
<temp>0.00</temp>
<bpm>0</bpm>
<rpm>0.00</rpm>
</extensions>
</trkpt>
<trkpt lat="64.067802429" lon="-19.409442902">
<ele>504.578125</ele>
<time>2012-07-21T20:41:34Z</time>
<speed>1.560000</speed>
<extensions>
<speed>1.6</speed>
<temp>0.00</temp>
<bpm>0</bpm>
<rpm>0.00</rpm>
</extensions>
</trkpt>
<trkpt lat="64.067817688" lon="-19.409374237">
<ele>505.500000</ele>
<time>2012-07-21T20:41:39Z</time>
<speed>0.170000</speed>
<extensions>
<speed>0.2</speed>
<temp>0.00</temp>
<bpm>0</bpm>
<rpm>0.00</rpm>
</extensions>
</trkpt>
<trkpt lat="64.067817688" lon="-19.409379959">
<ele>505.546875</ele>
<time>2012-07-21T20:41:44Z</time>
<speed>0.110000</speed>
<extensions>
<speed>0.1</speed>
<temp>0.00</temp>
<bpm>0</bpm>
<rpm>0.00</rpm>
</extensions>
</trkpt>
<trkpt lat="64.067817688" lon="-19.409378052">
<ele>505.984375</ele>
<time>2012-07-21T20:41:49Z</time>
<speed>0.140000</speed>
<extensions>
<speed>0.1</speed>
<temp>0.00</temp>
<bpm>0</bpm>
<rpm>0.00</rpm>
</extensions>
</trkpt>
<trkpt lat="64.067817688" lon="-19.409374237">
<ele>505.921875</ele>
<time>2012-07-21T20:41:54Z</time>
<speed>0.030000</speed>
<extensions>
<speed>0.0</speed>
<temp>0.00</temp>
<bpm>0</bpm>
<rpm>0.00</rpm>
</extensions>
</trkpt>
<trkpt lat="64.067817688" lon="-19.409374237">
<ele>505.921875</ele>
<time>2012-07-21T20:41:59Z</time>
<speed>0.100000</speed>
<extensions>
<speed>0.1</speed>
<temp>0.00</temp>
<bpm>0</bpm>
<rpm>0.00</rpm>
</extensions>
</trkpt>
<trkpt lat="64.067817688" lon="-19.409366608">
<ele>505.828125</ele>
<time>2012-07-21T20:42:04Z</time>
<speed>0.030000</speed>
<extensions>
<speed>0.0</speed>
<temp>0.00</temp>
<bpm>0</bpm>
<rpm>0.00</rpm>
</extensions>
</trkpt>
<trkpt lat="64.067817688" lon="-19.409368515">
<ele>505.820313</ele>
<time>2012-07-21T20:42:09Z</time>
<speed>0.040000</speed>
<extensions>
<speed>0.0</speed>
<temp>0.00</temp>
<bpm>0</bpm>
<rpm>0.00</rpm>
</extensions>
</trkpt>
<trkpt lat="64.067817688" lon="-19.409368515">
<ele>505.804688</ele>
<time>2012-07-21T20:42:14Z</time>
<extensions>
<speed>0.0</speed>
<temp>0.00</temp>
<bpm>0</bpm>
<rpm>0.00</rpm>
</extensions>
</trkpt>
<trkpt lat="64.067817688" lon="-19.409366608">
<ele>505.820313</ele>
<time>2012-07-21T20:42:19Z</time>
<speed>1.030000</speed>
<extensions>
<speed>1.0</speed>
<temp>0.00</temp>
<bpm>0</bpm>
<rpm>0.00</rpm>
</extensions>
</trkpt>
<trkpt lat="64.067817688" lon="-19.409227371">
<ele>505.921875</ele>
<time>2012-07-21T20:42:24Z</time>
<speed>1.270000</speed>
<extensions>
<speed>1.3</speed>
<temp>0.00</temp>
<bpm>0</bpm>
<rpm>0.00</rpm>
</extensions>
</trkpt>
<trkpt lat="64.067817688" lon="-19.409105301">
<ele>505.765625</ele>
<time>2012-07-21T20:42:29Z</time>
<speed>1.110000</speed>
<extensions>
<speed>1.1</speed>
<temp>0.00</temp>
<bpm>0</bpm>
<rpm>0.00</rpm>
</extensions>
</trkpt>
<trkpt lat="64.067817688" lon="-19.409006119">
<ele>505.992188</ele>
<time>2012-07-21T20:42:34Z</time>
<speed>1.080000</speed>
<extensions>
<speed>1.1</speed>
<temp>0.00</temp>
<bpm>0</bpm>
<rpm>0.00</rpm>
</extensions>
</trkpt>
<trkpt lat="64.067817688" lon="-19.408903122">
<ele>506.007813</ele>
<time>2012-07-21T20:42:39Z</time>
<speed>1.100000</speed>
<extensions>
<speed>1.1</speed>
<temp>0.00</temp>
<bpm>0</bpm>
<rpm>0.00</rpm>
</extensions>
</trkpt>
<trkpt lat="64.067817688" lon="-19.408815384">
<ele>506.234375</ele>
<time>2012-07-21T20:42:44Z</time>
<speed>0.810000</speed>
<extensions>
<speed>0.8</speed>
<temp>0.00</temp>
<bpm>0</bpm>
<rpm>0.00</rpm>
</extensions>
</trkpt>
<trkpt lat="64.067810059" lon="-19.408695221">
<ele>506.109375</ele>
<time>2012-07-21T20:42:49Z</time>
<speed>1.250000</speed>
<extensions>
<speed>1.3</speed>
<temp>0.00</temp>
<bpm>0</bpm>
<rpm>0.00</rpm>
</extensions>
</trkpt>
<trkpt lat="64.067817688" lon="-19.408565521">
<ele>505.812500</ele>
<time>2012-07-21T20:42:54Z</time>
<speed>1.050000</speed>
<extensions>
<speed>1.0</speed>
<temp>0.00</temp>
<bpm>0</bpm>
<rpm>0.00</rpm>
</extensions>
</trkpt>
<trkpt lat="64.067817688" lon="-19.408441544">
<ele>505.304688</ele>
<time>2012-07-21T20:42:59Z</time>
<speed>1.270000</speed>
<extensions>
<speed>1.3</speed>
<temp>0.00</temp>
<bpm>0</bpm>
<rpm>0.00</rpm>
</extensions>
</trkpt>
<trkpt lat="64.067825317" lon="-19.408306122">
<ele>505.312500</ele>
<time>2012-07-21T20:43:04Z</time>
<speed>0.950000</speed>
<extensions>
<speed>1.0</speed>
<temp>0.00</temp>
<bpm>0</bpm>
<rpm>0.00</rpm>
</extensions>
</trkpt>
<trkpt lat="64.067817688" lon="-19.408277512">
<ele>505.351563</ele>
<time>2012-07-21T20:43:09Z</time>
<speed>0.930000</speed>
<extensions>
<speed>0.9</speed>
<temp>0.00</temp>
<bpm>0</bpm>
<rpm>0.00</rpm>
</extensions>
</trkpt>
<trkpt lat="64.067810059" lon="-19.408140182">
<ele>505.367188</ele>
<time>2012-07-21T20:43:14Z</time>
<speed>1.260000</speed>
<extensions>
<speed>1.3</speed>
<temp>0.00</temp>
<bpm>0</bpm>
<rpm>0.00</rpm>
</extensions>
</trkpt>
<trkpt lat="64.067802429" lon="-19.408021927">
<ele>505.359375</ele>
<time>2012-07-21T20:43:19Z</time>
<speed>1.400000</speed>
<extensions>
<speed>1.4</speed>
<temp>0.00</temp>
<bpm>0</bpm>
<rpm>0.00</rpm>
</extensions>
</trkpt>
<trkpt lat="64.067794800" lon="-19.407882690">
<ele>505.710938</ele>
<time>2012-07-21T20:43:24Z</time>
<speed>1.410000</speed>
<extensions>
<speed>1.4</speed>
<temp>0.00</temp>
<bpm>0</bpm>
<rpm>0.00</rpm>
</extensions>
</trkpt>
<trkpt lat="64.067779541" lon="-19.407747269">
<ele>506.320313</ele>
<time>2012-07-21T20:43:29Z</time>
<speed>1.440000</speed>
<extensions>
<speed>1.4</speed>
<temp>0.00</temp>
<bpm>0</bpm>
<rpm>0.00</rpm>
</extensions>
</trkpt>
<trkpt lat="64.067787170" lon="-19.407611847">
<ele>506.335938</ele>
<time>2012-07-21T20:43:34Z</time>
<speed>1.320000</speed>
<extensions>
<speed>1.3</speed>
<temp>0.00</temp>
<bpm>0</bpm>
<rpm>0.00</rpm>
</extensions>
</trkpt>
<trkpt lat="64.067779541" lon="-19.407487869">
<ele>506.007813</ele>
<time>2012-07-21T20:43:39Z</time>
<speed>1.430000</speed>
<extensions>
<speed>1.4</speed>
<temp>0.00</temp>
<bpm>0</bpm>
<rpm>0.00</rpm>
</extensions>
</trkpt>
<trkpt lat="64.067779541" lon="-19.407352448">
<ele>505.718750</ele>
<time>2012-07-21T20:43:44Z</time>
<speed>1.430000</speed>
<extensions>
<speed>1.4</speed>
<temp>0.00</temp>
<bpm>0</bpm>
<rpm>0.00</rpm>
</extensions>
</trkpt>
<trkpt lat="64.067779541" lon="-19.407238007">
<ele>505.148438</ele>
<time>2012-07-21T20:43:49Z</time>
<speed>1.200000</speed>
<extensions>
<speed>1.2</speed>
<temp>0.00</temp>
<bpm>0</bpm>
<rpm>0.00</rpm>
</extensions>
</trkpt>
<trkpt lat="64.067787170" lon="-19.407133102">
<ele>504.640625</ele>
<time>2012-07-21T20:43:54Z</time>
<speed>1.120000</speed>
<extensions>
<speed>1.1</speed>
<temp>0.00</temp>
<bpm>0</bpm>
<rpm>0.00</rpm>
</extensions>
</trkpt>
<trkpt lat="64.067794800" lon="-19.407011032">
<ele>504.234375</ele>
<time>2012-07-21T20:43:59Z</time>
<speed>1.310000</speed>
<extensions>
<speed>1.3</speed>
<temp>0.00</temp>
<bpm>0</bpm>
<rpm>0.00</rpm>
</extensions>
</trkpt>
<trkpt lat="64.067810059" lon="-19.406873703">
<ele>503.914063</ele>
<time>2012-07-21T20:44:04Z</time>
<speed>1.420000</speed>
<extensions>
<speed>1.4</speed>
<temp>0.00</temp>
<bpm>0</bpm>
<rpm>0.00</rpm>
</extensions>
</trkpt>
<trkpt lat="64.067810059" lon="-19.406721115">
<ele>503.726563</ele>
<time>2012-07-21T20:44:09Z</time>
<speed>1.290000</speed>
<extensions>
<speed>1.3</speed>
<temp>0.00</temp>
<bpm>0</bpm>
<rpm>0.00</rpm>
</extensions>
</trkpt>
<trkpt lat="64.067810059" lon="-19.406631470">
<ele>504.085938</ele>
<time>2012-07-21T20:44:14Z</time>
<speed>0.430000</speed>
<extensions>
<speed>0.4</speed>
<temp>0.00</temp>
<bpm>0</bpm>
<rpm>0.00</rpm>
</extensions>
</trkpt>
<trkpt lat="64.067817688" lon="-19.406503677">
<ele>504.093750</ele>
<time>2012-07-21T20:44:19Z</time>
<speed>1.250000</speed>
<extensions>
<speed>1.3</speed>
<temp>0.00</temp>
<bpm>0</bpm>
<rpm>0.00</rpm>
</extensions>
</trkpt>
<trkpt lat="64.067832947" lon="-19.406368256">
<ele>503.968750</ele>
<time>2012-07-21T20:44:24Z</time>
<speed>1.330000</speed>
<extensions>
<speed>1.3</speed>
<temp>0.00</temp>
<bpm>0</bpm>
<rpm>0.00</rpm>
</extensions>
</trkpt>
<trkpt lat="64.067840576" lon="-19.406238556">
<ele>504.125000</ele>
<time>2012-07-21T20:44:29Z</time>
<speed>1.260000</speed>
<extensions>
<speed>1.3</speed>
<temp>0.00</temp>
<bpm>0</bpm>
<rpm>0.00</rpm>
</extensions>
</trkpt>
<trkpt lat="64.067855835" lon="-19.406087875">
<ele>504.289063</ele>
<time>2012-07-21T20:44:34Z</time>
<speed>1.360000</speed>
<extensions>
<speed>1.4</speed>
<temp>0.00</temp>
<bpm>0</bpm>
<rpm>0.00</rpm>
</extensions>
</trkpt>
<trkpt lat="64.067863464" lon="-19.405958176">
<ele>504.445313</ele>
<time>2012-07-21T20:44:39Z</time>
<speed>1.330000</speed>
<extensions>
<speed>1.3</speed>
<temp>0.00</temp>
<bpm>0</bpm>
<rpm>0.00</rpm>
</extensions>
</trkpt>
<trkpt lat="64.067863464" lon="-19.405839920">
<ele>504.984375</ele>
<time>2012-07-21T20:44:44Z</time>
<speed>1.060000</speed>
<extensions>
<speed>1.1</speed>
<temp>0.00</temp>
<bpm>0</bpm>
<rpm>0.00</rpm>
</extensions>
</trkpt>
<trkpt lat="64.067863464" lon="-19.405799866">
<ele>505.007813</ele>
<time>2012-07-21T20:44:49Z</time>
<speed>0.050000</speed>
<extensions>
<speed>0.1</speed>
<temp>0.00</temp>
<bpm>0</bpm>
<rpm>0.00</rpm>
</extensions>
</trkpt>
<trkpt lat="64.067863464" lon="-19.405725479">
<ele>505.328125</ele>
<time>2012-07-21T20:44:54Z</time>
<speed>1.160000</speed>
<extensions>
<speed>1.2</speed>
<temp>0.00</temp>
<bpm>0</bpm>
<rpm>0.00</rpm>
</extensions>
</trkpt>
<trkpt lat="64.067855835" lon="-19.405599594">
<ele>505.203125</ele>
<time>2012-07-21T20:44:59Z</time>
<speed>1.270000</speed>
<extensions>
<speed>1.3</speed>
<temp>0.00</temp>
<bpm>0</bpm>
<rpm>0.00</rpm>
</extensions>
</trkpt>
<trkpt lat="64.067840576" lon="-19.405496597">
<ele>505.539063</ele>
<time>2012-07-21T20:45:04Z</time>
<speed>1.040000</speed>
<extensions>
<speed>1.0</speed>
<temp>0.00</temp>
<bpm>0</bpm>
<rpm>0.00</rpm>
</extensions>
</trkpt>
<trkpt lat="64.067832947" lon="-19.405397415">
<ele>505.921875</ele>
<time>2012-07-21T20:45:09Z</time>
<speed>0.970000</speed>
<extensions>
<speed>1.0</speed>
<temp>0.00</temp>
<bpm>0</bpm>
<rpm>0.00</rpm>
</extensions>
</trkpt>
<trkpt lat="64.067810059" lon="-19.405292511">
<ele>506.109375</ele>
<time>2012-07-21T20:45:14Z</time>
<speed>1.060000</speed>
<extensions>
<speed>1.1</speed>
<temp>0.00</temp>
<bpm>0</bpm>
<rpm>0.00</rpm>
</extensions>
</trkpt>
<trkpt lat="64.067794800" lon="-19.405170441">
<ele>506.656250</ele>
<time>2012-07-21T20:45:19Z</time>
<speed>1.020000</speed>
<extensions>
<speed>1.0</speed>
<temp>0.00</temp>
<bpm>0</bpm>
<rpm>0.00</rpm>
</extensions>
</trkpt>
<trkpt lat="64.067764282" lon="-19.405094147">
<ele>506.789063</ele>
<time>2012-07-21T20:45:24Z</time>
<speed>1.100000</speed>
<extensions>
<speed>1.1</speed>
<temp>0.00</temp>
<bpm>0</bpm>
<rpm>0.00</rpm>
</extensions>
</trkpt>
<trkpt lat="64.067741394" lon="-19.405025482">
<ele>506.976563</ele>
<time>2012-07-21T20:45:29Z</time>
<speed>0.830000</speed>
<extensions>
<speed>0.8</speed>
<temp>0.00</temp>
<bpm>0</bpm>
<rpm>0.00</rpm>
</extensions>
</trkpt>
<trkpt lat="64.067741394" lon="-19.405014038">
<ele>506.742188</ele>
<time>2012-07-21T20:45:34Z</time>
<speed>0.010000</speed>
<extensions>
<speed>0.0</speed>
<temp>0.00</temp>
<bpm>0</bpm>
<rpm>0.00</rpm>
</extensions>
</trkpt>
<trkpt lat="64.067741394" lon="-19.405014038">
<ele>506.718750</ele>
<time>2012-07-21T20:45:39Z</time>
<speed>0.070000</speed>
<extensions>
<speed>0.1</speed>
<temp>0.00</temp>
<bpm>0</bpm>
<rpm>0.00</rpm>
</extensions>
</trkpt>
<trkpt lat="64.067741394" lon="-19.405036926">
<ele>506.882813</ele>
<time>2012-07-21T20:45:44Z</time>
<extensions>
<speed>0.0</speed>
<temp>0.00</temp>
<bpm>0</bpm>
<rpm>0.00</rpm>
</extensions>
</trkpt>
<trkpt lat="64.067741394" lon="-19.405036926">
<ele>506.781250</ele>
<time>2012-07-21T20:45:49Z</time>
<speed>0.010000</speed>
<extensions>
<speed>0.0</speed>
<temp>0.00</temp>
<bpm>0</bpm>
<rpm>0.00</rpm>
</extensions>
</trkpt>
<trkpt lat="64.067741394" lon="-19.405036926">
<ele>506.742188</ele>
<time>2012-07-21T20:45:54Z</time>
<speed>0.010000</speed>
<extensions>
<speed>0.0</speed>
<temp>0.00</temp>
<bpm>0</bpm>
<rpm>0.00</rpm>
</extensions>
</trkpt>
<trkpt lat="64.067741394" lon="-19.405036926">
<ele>506.750000</ele>
<time>2012-07-21T20:45:59Z</time>
<extensions>
<speed>0.0</speed>
<temp>0.00</temp>
<bpm>0</bpm>
<rpm>0.00</rpm>
</extensions>
</trkpt>
<trkpt lat="64.067741394" lon="-19.405036926">
<ele>506.757813</ele>
<time>2012-07-21T20:46:04Z</time>
<speed>0.010000</speed>
<extensions>
<speed>0.0</speed>
<temp>0.00</temp>
<bpm>0</bpm>
<rpm>0.00</rpm>
</extensions>
</trkpt>
<trkpt lat="64.067741394" lon="-19.405035019">
<ele>506.765625</ele>
<time>2012-07-21T20:46:09Z</time>
<extensions>
<speed>0.0</speed>
<temp>0.00</temp>
<bpm>0</bpm>
<rpm>0.00</rpm>
</extensions>
</trkpt>
<trkpt lat="64.067741394" lon="-19.405035019">
<ele>506.773438</ele>
<time>2012-07-21T20:46:14Z</time>
<extensions>
<speed>0.0</speed>
<temp>0.00</temp>
<bpm>0</bpm>
<rpm>0.00</rpm>
</extensions>
</trkpt>
<trkpt lat="64.067741394" lon="-19.405033112">
<ele>506.695313</ele>
<time>2012-07-21T20:46:19Z</time>
<speed>0.120000</speed>
<extensions>
<speed>0.1</speed>
<temp>0.00</temp>
<bpm>0</bpm>
<rpm>0.00</rpm>
</extensions>
</trkpt>
<trkpt lat="64.067710876" lon="-19.404996872">
<ele>506.859375</ele>
<time>2012-07-21T20:46:24Z</time>
<speed>1.040000</speed>
<extensions>
<speed>1.0</speed>
<temp>0.00</temp>
<bpm>0</bpm>
<rpm>0.00</rpm>
</extensions>
</trkpt>
<trkpt lat="64.067710876" lon="-19.404991150">
<ele>506.554688</ele>
<time>2012-07-21T20:46:29Z</time>
<speed>0.030000</speed>
<extensions>
<speed>0.0</speed>
<temp>0.00</temp>
<bpm>0</bpm>
<rpm>0.00</rpm>
</extensions>
</trkpt>
<trkpt lat="64.067710876" lon="-19.404993057">
<ele>506.500000</ele>
<time>2012-07-21T20:46:34Z</time>
<speed>0.050000</speed>
<extensions>
<speed>0.1</speed>
<temp>0.00</temp>
<bpm>0</bpm>
<rpm>0.00</rpm>
</extensions>
</trkpt>
<trkpt lat="64.067710876" lon="-19.404994965">
<ele>506.453125</ele>
<time>2012-07-21T20:46:39Z</time>
<speed>0.010000</speed>
<extensions>
<speed>0.0</speed>
<temp>0.00</temp>
<bpm>0</bpm>
<rpm>0.00</rpm>
</extensions>
</trkpt>
<trkpt lat="64.067710876" lon="-19.404994965">
<ele>506.453125</ele>
<time>2012-07-21T20:46:44Z</time>
<speed>0.410000</speed>
<extensions>
<speed>0.4</speed>
<temp>0.00</temp>
<bpm>0</bpm>
<rpm>0.00</rpm>
</extensions>
</trkpt>
<trkpt lat="64.067680359" lon="-19.404937744">
<ele>506.710938</ele>
<time>2012-07-21T20:46:49Z</time>
<speed>0.910000</speed>
<extensions>
<speed>0.9</speed>
<temp>0.00</temp>
<bpm>0</bpm>
<rpm>0.00</rpm>
</extensions>
</trkpt>
<trkpt lat="64.067642212" lon="-19.404870987">
<ele>507.093750</ele>
<time>2012-07-21T20:46:54Z</time>
<speed>1.090000</speed>
<extensions>
<speed>1.1</speed>
<temp>0.00</temp>
<bpm>0</bpm>
<rpm>0.00</rpm>
</extensions>
</trkpt>
<trkpt lat="64.067596436" lon="-19.404838562">
<ele>507.304688</ele>
<time>2012-07-21T20:46:59Z</time>
<speed>1.230000</speed>
<extensions>
<speed>1.2</speed>
<temp>0.00</temp>
<bpm>0</bpm>
<rpm>0.00</rpm>
</extensions>
</trkpt>
<trkpt lat="64.067558289" lon="-19.404769897">
<ele>507.554688</ele>
<time>2012-07-21T20:47:04Z</time>
<speed>0.870000</speed>
<extensions>
<speed>0.9</speed>
<temp>0.00</temp>
<bpm>0</bpm>
<rpm>0.00</rpm>
</extensions>
</trkpt>
<trkpt lat="64.067558289" lon="-19.404767990">
<ele>507.812500</ele>
<time>2012-07-21T20:47:09Z</time>
<speed>0.020000</speed>
<extensions>
<speed>0.0</speed>
<temp>0.00</temp>
<bpm>0</bpm>
<rpm>0.00</rpm>
</extensions>
</trkpt>
<trkpt lat="64.067535400" lon="-19.404733658">
<ele>507.812500</ele>
<time>2012-07-21T20:47:14Z</time>
<speed>1.230000</speed>
<extensions>
<speed>1.2</speed>
<temp>0.00</temp>
<bpm>0</bpm>
<rpm>0.00</rpm>
</extensions>
</trkpt>
<trkpt lat="64.067481995" lon="-19.404653549">
<ele>506.953125</ele>
<time>2012-07-21T20:47:19Z</time>
<speed>1.750000</speed>
<extensions>
<speed>1.8</speed>
<temp>0.00</temp>
<bpm>0</bpm>
<rpm>0.00</rpm>
</extensions>
</trkpt>
<trkpt lat="64.067420959" lon="-19.404577255">
<ele>506.257813</ele>
<time>2012-07-21T20:47:24Z</time>
<speed>1.290000</speed>
<extensions>
<speed>1.3</speed>
<temp>0.00</temp>
<bpm>0</bpm>
<rpm>0.00</rpm>
</extensions>
</trkpt>
<trkpt lat="64.067375183" lon="-19.404514313">
<ele>505.601563</ele>
<time>2012-07-21T20:47:29Z</time>
<speed>1.250000</speed>
<extensions>
<speed>1.3</speed>
<temp>0.00</temp>
<bpm>0</bpm>
<rpm>0.00</rpm>
</extensions>
</trkpt>
<trkpt lat="64.067314148" lon="-19.404439926">
<ele>505.164063</ele>
<time>2012-07-21T20:47:34Z</time>
<speed>1.370000</speed>
<extensions>
<speed>1.4</speed>
<temp>0.00</temp>
<bpm>0</bpm>
<rpm>0.00</rpm>
</extensions>
</trkpt>
<trkpt lat="64.067260742" lon="-19.404352188">
<ele>504.820313</ele>
<time>2012-07-21T20:47:39Z</time>
<speed>1.480000</speed>
<extensions>
<speed>1.5</speed>
<temp>0.00</temp>
<bpm>0</bpm>
<rpm>0.00</rpm>
</extensions>
</trkpt>
<trkpt lat="64.067199707" lon="-19.404251099">
<ele>504.601563</ele>
<time>2012-07-21T20:47:44Z</time>
<speed>1.590000</speed>
<extensions>
<speed>1.6</speed>
<temp>0.00</temp>
<bpm>0</bpm>
<rpm>0.00</rpm>
</extensions>
</trkpt>
<trkpt lat="64.067146301" lon="-19.404161453">
<ele>504.468750</ele>
<time>2012-07-21T20:47:49Z</time>
<speed>1.370000</speed>
<extensions>
<speed>1.4</speed>
<temp>0.00</temp>
<bpm>0</bpm>
<rpm>0.00</rpm>
</extensions>
</trkpt>
<trkpt lat="64.067115784" lon="-19.404075623">
<ele>504.007813</ele>
<time>2012-07-21T20:47:54Z</time>
<speed>1.290000</speed>
<extensions>
<speed>1.3</speed>
<temp>0.00</temp>
<bpm>0</bpm>
<rpm>0.00</rpm>
</extensions>
</trkpt>
<trkpt lat="64.067077637" lon="-19.403991699">
<ele>503.984375</ele>
<time>2012-07-21T20:47:59Z</time>
<speed>1.180000</speed>
<extensions>
<speed>1.2</speed>
<temp>0.00</temp>
<bpm>0</bpm>
<rpm>0.00</rpm>
</extensions>
</trkpt>
<trkpt lat="64.067047119" lon="-19.403860092">
<ele>504.812500</ele>
<time>2012-07-21T20:48:04Z</time>
<speed>1.280000</speed>
<extensions>
<speed>1.3</speed>
<temp>0.00</temp>
<bpm>0</bpm>
<rpm>0.00</rpm>
</extensions>
</trkpt>
<trkpt lat="64.067016602" lon="-19.403730392">
<ele>504.835938</ele>
<time>2012-07-21T20:48:09Z</time>
<speed>1.200000</speed>
<extensions>
<speed>1.2</speed>
<temp>0.00</temp>
<bpm>0</bpm>
<rpm>0.00</rpm>
</extensions>
</trkpt>
<trkpt lat="64.066986084" lon="-19.403615952">
<ele>504.804688</ele>
<time>2012-07-21T20:48:14Z</time>
<speed>1.420000</speed>
<extensions>
<speed>1.4</speed>
<temp>0.00</temp>
<bpm>0</bpm>
<rpm>0.00</rpm>
</extensions>
</trkpt>
<trkpt lat="64.066963196" lon="-19.403469086">
<ele>505.679688</ele>
<time>2012-07-21T20:48:19Z</time>
<speed>1.290000</speed>
<extensions>
<speed>1.3</speed>
<temp>0.00</temp>
<bpm>0</bpm>
<rpm>0.00</rpm>
</extensions>
</trkpt>
<trkpt lat="64.066940308" lon="-19.403341293">
<ele>506.132813</ele>
<time>2012-07-21T20:48:24Z</time>
<speed>1.370000</speed>
<extensions>
<speed>1.4</speed>
<temp>0.00</temp>
<bpm>0</bpm>
<rpm>0.00</rpm>
</extensions>
</trkpt>
<trkpt lat="64.066909790" lon="-19.403215408">
<ele>506.007813</ele>
<time>2012-07-21T20:48:29Z</time>
<speed>1.420000</speed>
<extensions>
<speed>1.4</speed>
<temp>0.00</temp>
<bpm>0</bpm>
<rpm>0.00</rpm>
</extensions>
</trkpt>
<trkpt lat="64.066879272" lon="-19.403093338">
<ele>506.062500</ele>
<time>2012-07-21T20:48:34Z</time>
<speed>1.390000</speed>
<extensions>
<speed>1.4</speed>
<temp>0.00</temp>
<bpm>0</bpm>
<rpm>0.00</rpm>
</extensions>
</trkpt>
<trkpt lat="64.066864014" lon="-19.402975082">
<ele>505.984375</ele>
<time>2012-07-21T20:48:39Z</time>
<speed>1.420000</speed>
<extensions>
<speed>1.4</speed>
<temp>0.00</temp>
<bpm>0</bpm>
<rpm>0.00</rpm>
</extensions>
</trkpt>
<trkpt lat="64.066833496" lon="-19.402875900">
<ele>504.296875</ele>
<time>2012-07-21T20:48:44Z</time>
<speed>0.780000</speed>
<extensions>
<speed>0.8</speed>
<temp>0.00</temp>
<bpm>0</bpm>
<rpm>0.00</rpm>
</extensions>
</trkpt>
<trkpt lat="64.066833496" lon="-19.402868271">
<ele>504.312500</ele>
<time>2012-07-21T20:48:49Z</time>
<speed>0.050000</speed>
<extensions>
<speed>0.1</speed>
<temp>0.00</temp>
<bpm>0</bpm>
<rpm>0.00</rpm>
</extensions>
</trkpt>
<trkpt lat="64.066833496" lon="-19.402864456">
<ele>504.289063</ele>
<time>2012-07-21T20:48:54Z</time>
<speed>0.010000</speed>
<extensions>
<speed>0.0</speed>
<temp>0.00</temp>
<bpm>0</bpm>
<rpm>0.00</rpm>
</extensions>
</trkpt>
<trkpt lat="64.066810608" lon="-19.402767181">
<ele>504.335938</ele>
<time>2012-07-21T20:48:59Z</time>
<speed>1.420000</speed>
<extensions>
<speed>1.4</speed>
<temp>0.00</temp>
<bpm>0</bpm>
<rpm>0.00</rpm>
</extensions>
</trkpt>
<trkpt lat="64.066795349" lon="-19.402616501">
<ele>504.312500</ele>
<time>2012-07-21T20:49:04Z</time>
<speed>1.560000</speed>
<extensions>
<speed>1.6</speed>
<temp>0.00</temp>
<bpm>0</bpm>
<rpm>0.00</rpm>
</extensions>
</trkpt>
<trkpt lat="64.066780090" lon="-19.402467728">
<ele>504.265625</ele>
<time>2012-07-21T20:49:09Z</time>
<speed>1.540000</speed>
<extensions>
<speed>1.5</speed>
<temp>0.00</temp>
<bpm>0</bpm>
<rpm>0.00</rpm>
</extensions>
</trkpt>
<trkpt lat="64.066772461" lon="-19.402322769">
<ele>504.367188</ele>
<time>2012-07-21T20:49:14Z</time>
<speed>1.520000</speed>
<extensions>
<speed>1.5</speed>
<temp>0.00</temp>
<bpm>0</bpm>
<rpm>0.00</rpm>
</extensions>
</trkpt>
<trkpt lat="64.066757202" lon="-19.402179718">
<ele>504.023438</ele>
<time>2012-07-21T20:49:19Z</time>
<speed>1.430000</speed>
<extensions>
<speed>1.4</speed>
<temp>0.00</temp>
<bpm>0</bpm>
<rpm>0.00</rpm>
</extensions>
</trkpt>
<trkpt lat="64.066741943" lon="-19.402034760">
<ele>504.523438</ele>
<time>2012-07-21T20:49:24Z</time>
<speed>1.390000</speed>
<extensions>
<speed>1.4</speed>
<temp>0.00</temp>
<bpm>0</bpm>
<rpm>0.00</rpm>
</extensions>
</trkpt>
<trkpt lat="64.066741943" lon="-19.401885986">
<ele>504.445313</ele>
<time>2012-07-21T20:49:29Z</time>
<speed>1.350000</speed>
<extensions>
<speed>1.4</speed>
<temp>0.00</temp>
<bpm>0</bpm>
<rpm>0.00</rpm>
</extensions>
</trkpt>
<trkpt lat="64.066734314" lon="-19.401750565">
<ele>505.023438</ele>
<time>2012-07-21T20:49:34Z</time>
<speed>1.400000</speed>
<extensions>
<speed>1.4</speed>
<temp>0.00</temp>
<bpm>0</bpm>
<rpm>0.00</rpm>
</extensions>
</trkpt>
<trkpt lat="64.066726685" lon="-19.401605606">
<ele>505.085938</ele>
<time>2012-07-21T20:49:39Z</time>
<speed>1.630000</speed>
<extensions>
<speed>1.6</speed>
<temp>0.00</temp>
<bpm>0</bpm>
<rpm>0.00</rpm>
</extensions>
</trkpt>
<trkpt lat="64.066719055" lon="-19.401464462">
<ele>504.953125</ele>
<time>2012-07-21T20:49:44Z</time>
<speed>1.310000</speed>
<extensions>
<speed>1.3</speed>
<temp>0.00</temp>
<bpm>0</bpm>
<rpm>0.00</rpm>
</extensions>
</trkpt>
<trkpt lat="64.066711426" lon="-19.401332855">
<ele>505.171875</ele>
<time>2012-07-21T20:49:49Z</time>
<speed>0.960000</speed>
<extensions>
<speed>1.0</speed>
<temp>0.00</temp>
<bpm>0</bpm>
<rpm>0.00</rpm>
</extensions>
</trkpt>
<trkpt lat="64.066703796" lon="-19.401332855">
<ele>505.234375</ele>
<time>2012-07-21T20:49:54Z</time>
<speed>0.010000</speed>
<extensions>
<speed>0.0</speed>
<temp>0.00</temp>
<bpm>0</bpm>
<rpm>0.00</rpm>
</extensions>
</trkpt>
<trkpt lat="64.066703796" lon="-19.401288986">
<ele>505.554688</ele>
<time>2012-07-21T20:49:59Z</time>
<speed>0.990000</speed>
<extensions>
<speed>1.0</speed>
<temp>0.00</temp>
<bpm>0</bpm>
<rpm>0.00</rpm>
</extensions>
</trkpt>
<trkpt lat="64.066696167" lon="-19.401180267">
<ele>505.578125</ele>
<time>2012-07-21T20:50:04Z</time>
<speed>1.060000</speed>
<extensions>
<speed>1.1</speed>
<temp>0.00</temp>
<bpm>0</bpm>
<rpm>0.00</rpm>
</extensions>
</trkpt>
<trkpt lat="64.066688538" lon="-19.401046753">
<ele>506.445313</ele>
<time>2012-07-21T20:50:09Z</time>
<speed>1.180000</speed>
<extensions>
<speed>1.2</speed>
<temp>0.00</temp>
<bpm>0</bpm>
<rpm>0.00</rpm>
</extensions>
</trkpt>
<trkpt lat="64.066680908" lon="-19.400934219">
<ele>506.679688</ele>
<time>2012-07-21T20:50:14Z</time>
<speed>1.200000</speed>
<extensions>
<speed>1.2</speed>
<temp>0.00</temp>
<bpm>0</bpm>
<rpm>0.00</rpm>
</extensions>
</trkpt>
<trkpt lat="64.066665649" lon="-19.400815964">
<ele>507.039063</ele>
<time>2012-07-21T20:50:19Z</time>
<speed>1.200000</speed>
<extensions>
<speed>1.2</speed>
<temp>0.00</temp>
<bpm>0</bpm>
<rpm>0.00</rpm>
</extensions>
</trkpt>
<trkpt lat="64.066658020" lon="-19.400762558">
<ele>507.617188</ele>
<time>2012-07-21T20:50:24Z</time>
<speed>0.020000</speed>
<extensions>
<speed>0.0</speed>
<temp>0.00</temp>
<bpm>0</bpm>
<rpm>0.00</rpm>
</extensions>
</trkpt>
<trkpt lat="64.066650391" lon="-19.400690079">
<ele>507.812500</ele>
<time>2012-07-21T20:50:29Z</time>
<speed>0.460000</speed>
<extensions>
<speed>0.5</speed>
<temp>0.00</temp>
<bpm>0</bpm>
<rpm>0.00</rpm>
</extensions>
</trkpt>
<trkpt lat="64.066635132" lon="-19.400600433">
<ele>508.421875</ele>
<time>2012-07-21T20:50:34Z</time>
<speed>1.030000</speed>
<extensions>
<speed>1.0</speed>
<temp>0.00</temp>
<bpm>0</bpm>
<rpm>0.00</rpm>
</extensions>
</trkpt>
<trkpt lat="64.066627502" lon="-19.400487900">
<ele>508.828125</ele>
<time>2012-07-21T20:50:39Z</time>
<speed>1.200000</speed>
<extensions>
<speed>1.2</speed>
<temp>0.00</temp>
<bpm>0</bpm>
<rpm>0.00</rpm>
</extensions>
</trkpt>
<trkpt lat="64.066612244" lon="-19.400381088">
<ele>509.054688</ele>
<time>2012-07-21T20:50:44Z</time>
<speed>0.960000</speed>
<extensions>
<speed>1.0</speed>
<temp>0.00</temp>
<bpm>0</bpm>
<rpm>0.00</rpm>
</extensions>
</trkpt>
<trkpt lat="64.066612244" lon="-19.400285721">
<ele>509.523438</ele>
<time>2012-07-21T20:50:49Z</time>
<speed>1.200000</speed>
<extensions>
<speed>1.2</speed>
<temp>0.00</temp>
<bpm>0</bpm>
<rpm>0.00</rpm>
</extensions>
</trkpt>
<trkpt lat="64.066589355" lon="-19.400157928">
<ele>509.632813</ele>
<time>2012-07-21T20:50:54Z</time>
<speed>1.390000</speed>
<extensions>
<speed>1.4</speed>
<temp>0.00</temp>
<bpm>0</bpm>
<rpm>0.00</rpm>
</extensions>
</trkpt>
<trkpt lat="64.066589355" lon="-19.400032043">
<ele>509.492188</ele>
<time>2012-07-21T20:50:59Z</time>
<speed>1.150000</speed>
<extensions>
<speed>1.1</speed>
<temp>0.00</temp>
<bpm>0</bpm>
<rpm>0.00</rpm>
</extensions>
</trkpt>
<trkpt lat="64.066581726" lon="-19.399921417">
<ele>509.492188</ele>
<time>2012-07-21T20:51:04Z</time>
<speed>0.280000</speed>
<extensions>
<speed>0.3</speed>
<temp>0.00</temp>
<bpm>0</bpm>
<rpm>0.00</rpm>
</extensions>
</trkpt>
<trkpt lat="64.066581726" lon="-19.399919510">
<ele>509.359375</ele>
<time>2012-07-21T20:51:09Z</time>
<speed>0.980000</speed>
<extensions>
<speed>1.0</speed>
<temp>0.00</temp>
<bpm>0</bpm>
<rpm>0.00</rpm>
</extensions>
</trkpt>
<trkpt lat="64.066566467" lon="-19.399797440">
<ele>509.929688</ele>
<time>2012-07-21T20:51:14Z</time>
<speed>1.060000</speed>
<extensions>
<speed>1.1</speed>
<temp>0.00</temp>
<bpm>0</bpm>
<rpm>0.00</rpm>
</extensions>
</trkpt>
<trkpt lat="64.066551208" lon="-19.399675369">
<ele>509.820313</ele>
<time>2012-07-21T20:51:19Z</time>
<speed>0.960000</speed>
<extensions>
<speed>1.0</speed>
<temp>0.00</temp>
<bpm>0</bpm>
<rpm>0.00</rpm>
</extensions>
</trkpt>
<trkpt lat="64.066535950" lon="-19.399574280">
<ele>509.906250</ele>
<time>2012-07-21T20:51:24Z</time>
<speed>1.180000</speed>
<extensions>
<speed>1.2</speed>
<temp>0.00</temp>
<bpm>0</bpm>
<rpm>0.00</rpm>
</extensions>
</trkpt>
<trkpt lat="64.066520691" lon="-19.399448395">
<ele>510.398438</ele>
<time>2012-07-21T20:51:29Z</time>
<speed>1.230000</speed>
<extensions>
<speed>1.2</speed>
<temp>0.00</temp>
<bpm>0</bpm>
<rpm>0.00</rpm>
</extensions>
</trkpt>
<trkpt lat="64.066505432" lon="-19.399324417">
<ele>510.929688</ele>
<time>2012-07-21T20:51:34Z</time>
<speed>1.290000</speed>
<extensions>
<speed>1.3</speed>
<temp>0.00</temp>
<bpm>0</bpm>
<rpm>0.00</rpm>
</extensions>
</trkpt>
<trkpt lat="64.066482544" lon="-19.399202347">
<ele>511.320313</ele>
<time>2012-07-21T20:51:39Z</time>
<speed>1.210000</speed>
<extensions>
<speed>1.2</speed>
<temp>0.00</temp>
<bpm>0</bpm>
<rpm>0.00</rpm>
</extensions>
</trkpt>
<trkpt lat="64.066459656" lon="-19.399091721">
<ele>512.109375</ele>
<time>2012-07-21T20:51:44Z</time>
<speed>0.800000</speed>
<extensions>
<speed>0.8</speed>
<temp>0.00</temp>
<bpm>0</bpm>
<rpm>0.00</rpm>
</extensions>
</trkpt>
<trkpt lat="64.066436768" lon="-19.399009705">
<ele>511.640625</ele>
<time>2012-07-21T20:51:49Z</time>
<speed>1.110000</speed>
<extensions>
<speed>1.1</speed>
<temp>0.00</temp>
<bpm>0</bpm>
<rpm>0.00</rpm>
</extensions>
</trkpt>
<trkpt lat="64.066413879" lon="-19.398921967">
<ele>511.742188</ele>
<time>2012-07-21T20:51:54Z</time>
<speed>0.950000</speed>
<extensions>
<speed>1.0</speed>
<temp>0.00</temp>
<bpm>0</bpm>
<rpm>0.00</rpm>
</extensions>
</trkpt>
<trkpt lat="64.066398621" lon="-19.398832321">
<ele>512.000000</ele>
<time>2012-07-21T20:51:59Z</time>
<speed>0.980000</speed>
<extensions>
<speed>1.0</speed>
<temp>0.00</temp>
<bpm>0</bpm>
<rpm>0.00</rpm>
</extensions>
</trkpt>
<trkpt lat="64.066375732" lon="-19.398738861">
<ele>512.687500</ele>
<time>2012-07-21T20:52:04Z</time>
<speed>0.890000</speed>
<extensions>
<speed>0.9</speed>
<temp>0.00</temp>
<bpm>0</bpm>
<rpm>0.00</rpm>
</extensions>
</trkpt>
<trkpt lat="64.066368103" lon="-19.398729324">
<ele>513.859375</ele>
<time>2012-07-21T20:52:09Z</time>
<speed>0.030000</speed>
<extensions>
<speed>0.0</speed>
<temp>0.00</temp>
<bpm>0</bpm>
<rpm>0.00</rpm>
</extensions>
</trkpt>
<trkpt lat="64.066368103" lon="-19.398733139">
<ele>513.828125</ele>
<time>2012-07-21T20:52:14Z</time>
<speed>0.010000</speed>
<extensions>
<speed>0.0</speed>
<temp>0.00</temp>
<bpm>0</bpm>
<rpm>0.00</rpm>
</extensions>
</trkpt>
<trkpt lat="64.066360474" lon="-19.398719788">
<ele>513.796875</ele>
<time>2012-07-21T20:52:19Z</time>
<speed>0.500000</speed>
<extensions>
<speed>0.5</speed>
<temp>0.00</temp>
<bpm>0</bpm>
<rpm>0.00</rpm>
</extensions>
</trkpt>
<trkpt lat="64.066345215" lon="-19.398664474">
<ele>513.640625</ele>
<time>2012-07-21T20:52:24Z</time>
<speed>0.940000</speed>
<extensions>
<speed>0.9</speed>
<temp>0.00</temp>
<bpm>0</bpm>
<rpm>0.00</rpm>
</extensions>
</trkpt>
<trkpt lat="64.066329956" lon="-19.398576736">
<ele>513.187500</ele>
<time>2012-07-21T20:52:29Z</time>
<speed>1.110000</speed>
<extensions>
<speed>1.1</speed>
<temp>0.00</temp>
<bpm>0</bpm>
<rpm>0.00</rpm>
</extensions>
</trkpt>
<trkpt lat="64.066307068" lon="-19.398473740">
<ele>513.453125</ele>
<time>2012-07-21T20:52:34Z</time>
<speed>1.250000</speed>
<extensions>
<speed>1.3</speed>
<temp>0.00</temp>
<bpm>0</bpm>
<rpm>0.00</rpm>
</extensions>
</trkpt>
<trkpt lat="64.066291809" lon="-19.398363113">
<ele>514.515625</ele>
<time>2012-07-21T20:52:39Z</time>
<speed>1.190000</speed>
<extensions>
<speed>1.2</speed>
<temp>0.00</temp>
<bpm>0</bpm>
<rpm>0.00</rpm>
</extensions>
</trkpt>
<trkpt lat="64.066261292" lon="-19.398258209">
<ele>515.046875</ele>
<time>2012-07-21T20:52:44Z</time>
<speed>1.280000</speed>
<extensions>
<speed>1.3</speed>
<temp>0.00</temp>
<bpm>0</bpm>
<rpm>0.00</rpm>
</extensions>
</trkpt>
<trkpt lat="64.066238403" lon="-19.398139954">
<ele>515.937500</ele>
<time>2012-07-21T20:52:49Z</time>
<speed>1.090000</speed>
<extensions>
<speed>1.1</speed>
<temp>0.00</temp>
<bpm>0</bpm>
<rpm>0.00</rpm>
</extensions>
</trkpt>
<trkpt lat="64.066230774" lon="-19.398036957">
<ele>517.812500</ele>
<time>2012-07-21T20:52:54Z</time>
<speed>0.500000</speed>
<extensions>
<speed>0.5</speed>
<temp>0.00</temp>
<bpm>0</bpm>
<rpm>0.00</rpm>
</extensions>
</trkpt>
<trkpt lat="64.066215515" lon="-19.397974014">
<ele>518.218750</ele>
<time>2012-07-21T20:52:59Z</time>
<speed>1.040000</speed>
<extensions>
<speed>1.0</speed>
<temp>0.00</temp>
<bpm>0</bpm>
<rpm>0.00</rpm>
</extensions>
</trkpt>
<trkpt lat="64.066192627" lon="-19.397871017">
<ele>518.484375</ele>
<time>2012-07-21T20:53:04Z</time>
<speed>1.120000</speed>
<extensions>
<speed>1.1</speed>
<temp>0.00</temp>
<bpm>0</bpm>
<rpm>0.00</rpm>
</extensions>
</trkpt>
<trkpt lat="64.066177368" lon="-19.397792816">
<ele>518.437500</ele>
<time>2012-07-21T20:53:09Z</time>
<speed>0.040000</speed>
<extensions>
<speed>0.0</speed>
<temp>0.00</temp>
<bpm>0</bpm>
<rpm>0.00</rpm>
</extensions>
</trkpt>
<trkpt lat="64.066177368" lon="-19.397804260">
<ele>518.171875</ele>
<time>2012-07-21T20:53:14Z</time>
<speed>0.800000</speed>
<extensions>
<speed>0.8</speed>
<temp>0.00</temp>
<bpm>0</bpm>
<rpm>0.00</rpm>
</extensions>
</trkpt>
<trkpt lat="64.066162109" lon="-19.397727966">
<ele>519.015625</ele>
<time>2012-07-21T20:53:19Z</time>
<speed>0.950000</speed>
<extensions>
<speed>1.0</speed>
<temp>0.00</temp>
<bpm>0</bpm>
<rpm>0.00</rpm>
</extensions>
</trkpt>
<trkpt lat="64.066146851" lon="-19.397634506">
<ele>519.640625</ele>
<time>2012-07-21T20:53:24Z</time>
<speed>1.030000</speed>
<extensions>
<speed>1.0</speed>
<temp>0.00</temp>
<bpm>0</bpm>
<rpm>0.00</rpm>
</extensions>
</trkpt>
<trkpt lat="64.066131592" lon="-19.397541046">
<ele>519.359375</ele>
<time>2012-07-21T20:53:29Z</time>
<speed>0.730000</speed>
<extensions>
<speed>0.7</speed>
<temp>0.00</temp>
<bpm>0</bpm>
<rpm>0.00</rpm>
</extensions>
</trkpt>
<trkpt lat="64.066123962" lon="-19.397445679">
<ele>519.859375</ele>
<time>2012-07-21T20:53:34Z</time>
<speed>1.030000</speed>
<extensions>
<speed>1.0</speed>
<temp>0.00</temp>
<bpm>0</bpm>
<rpm>0.00</rpm>
</extensions>
</trkpt>
<trkpt lat="64.066101074" lon="-19.397357941">
<ele>521.109375</ele>
<time>2012-07-21T20:53:39Z</time>
<speed>1.230000</speed>
<extensions>
<speed>1.2</speed>
<temp>0.00</temp>
<bpm>0</bpm>
<rpm>0.00</rpm>
</extensions>
</trkpt>
<trkpt lat="64.066078186" lon="-19.397247314">
<ele>521.343750</ele>
<time>2012-07-21T20:53:44Z</time>
<speed>1.230000</speed>
<extensions>
<speed>1.2</speed>
<temp>0.00</temp>
<bpm>0</bpm>
<rpm>0.00</rpm>
</extensions>
</trkpt>
<trkpt lat="64.066047668" lon="-19.397144318">
<ele>522.234375</ele>
<time>2012-07-21T20:53:49Z</time>
<speed>1.290000</speed>
<extensions>
<speed>1.3</speed>
<temp>0.00</temp>
<bpm>0</bpm>
<rpm>0.00</rpm>
</extensions>
</trkpt>
<trkpt lat="64.066032410" lon="-19.397026062">
<ele>521.953125</ele>
<time>2012-07-21T20:53:54Z</time>
<speed>0.970000</speed>
<extensions>
<speed>1.0</speed>
<temp>0.00</temp>
<bpm>0</bpm>
<rpm>0.00</rpm>
</extensions>
</trkpt>
<trkpt lat="64.066017151" lon="-19.396945953">
<ele>521.562500</ele>
<time>2012-07-21T20:53:59Z</time>
<speed>0.990000</speed>
<extensions>
<speed>1.0</speed>
<temp>0.00</temp>
<bpm>0</bpm>
<rpm>0.00</rpm>
</extensions>
</trkpt>
<trkpt lat="64.065994263" lon="-19.396865845">
<ele>521.625000</ele>
<time>2012-07-21T20:54:04Z</time>
<speed>1.030000</speed>
<extensions>
<speed>1.0</speed>
<temp>0.00</temp>
<bpm>0</bpm>
<rpm>0.00</rpm>
</extensions>
</trkpt>
<trkpt lat="64.065979004" lon="-19.396781921">
<ele>521.515625</ele>
<time>2012-07-21T20:54:09Z</time>
<speed>0.980000</speed>
<extensions>
<speed>1.0</speed>
<temp>0.00</temp>
<bpm>0</bpm>
<rpm>0.00</rpm>
</extensions>
</trkpt>
<trkpt lat="64.065979004" lon="-19.396692276">
<ele>521.312500</ele>
<time>2012-07-21T20:54:14Z</time>
<speed>1.250000</speed>
<extensions>
<speed>1.3</speed>
<temp>0.00</temp>
<bpm>0</bpm>
<rpm>0.00</rpm>
</extensions>
</trkpt>
<trkpt lat="64.065963745" lon="-19.396606445">
<ele>520.843750</ele>
<time>2012-07-21T20:54:19Z</time>
<speed>1.080000</speed>
<extensions>
<speed>1.1</speed>
<temp>0.00</temp>
<bpm>0</bpm>
<rpm>0.00</rpm>
</extensions>
</trkpt>
<trkpt lat="64.065956116" lon="-19.396497726">
<ele>521.531250</ele>
<time>2012-07-21T20:54:24Z</time>
<speed>1.200000</speed>
<extensions>
<speed>1.2</speed>
<temp>0.00</temp>
<bpm>0</bpm>
<rpm>0.00</rpm>
</extensions>
</trkpt>
<trkpt lat="64.065963745" lon="-19.396373749">
<ele>521.453125</ele>
<time>2012-07-21T20:54:29Z</time>
<speed>1.070000</speed>
<extensions>
<speed>1.1</speed>
<temp>0.00</temp>
<bpm>0</bpm>
<rpm>0.00</rpm>
</extensions>
</trkpt>
<trkpt lat="64.065971375" lon="-19.396278381">
<ele>521.125000</ele>
<time>2012-07-21T20:54:34Z</time>
<speed>1.240000</speed>
<extensions>
<speed>1.2</speed>
<temp>0.00</temp>
<bpm>0</bpm>
<rpm>0.00</rpm>
</extensions>
</trkpt>
<trkpt lat="64.065963745" lon="-19.396146774">
<ele>521.265625</ele>
<time>2012-07-21T20:54:39Z</time>
<speed>1.130000</speed>
<extensions>
<speed>1.1</speed>
<temp>0.00</temp>
<bpm>0</bpm>
<rpm>0.00</rpm>
</extensions>
</trkpt>
<trkpt lat="64.065963745" lon="-19.396043777">
<ele>521.843750</ele>
<time>2012-07-21T20:54:44Z</time>
<speed>0.590000</speed>
<extensions>
<speed>0.6</speed>
<temp>0.00</temp>
<bpm>0</bpm>
<rpm>0.00</rpm>
</extensions>
</trkpt>
<trkpt lat="64.065971375" lon="-19.396043777">
<ele>521.765625</ele>
<time>2012-07-21T20:54:49Z</time>
<speed>0.010000</speed>
<extensions>
<speed>0.0</speed>
<temp>0.00</temp>
<bpm>0</bpm>
<rpm>0.00</rpm>
</extensions>
</trkpt>
<trkpt lat="64.065971375" lon="-19.396045685">
<ele>521.828125</ele>
<time>2012-07-21T20:54:54Z</time>
<speed>0.090000</speed>
<extensions>
<speed>0.1</speed>
<temp>0.00</temp>
<bpm>0</bpm>
<rpm>0.00</rpm>
</extensions>
</trkpt>
<trkpt lat="64.065979004" lon="-19.396003723">
<ele>521.750000</ele>
<time>2012-07-21T20:54:59Z</time>
<speed>0.920000</speed>
<extensions>
<speed>0.9</speed>
<temp>0.00</temp>
<bpm>0</bpm>
<rpm>0.00</rpm>
</extensions>
</trkpt>
<trkpt lat="64.065986633" lon="-19.395885468">
<ele>522.234375</ele>
<time>2012-07-21T20:55:04Z</time>
<speed>0.990000</speed>
<extensions>
<speed>1.0</speed>
<temp>0.00</temp>
<bpm>0</bpm>
<rpm>0.00</rpm>
</extensions>
</trkpt>
<trkpt lat="64.065986633" lon="-19.395759583">
<ele>522.812500</ele>
<time>2012-07-21T20:55:09Z</time>
<speed>1.470000</speed>
<extensions>
<speed>1.5</speed>
<temp>0.00</temp>
<bpm>0</bpm>
<rpm>0.00</rpm>
</extensions>
</trkpt>
<trkpt lat="64.065994263" lon="-19.395626068">
<ele>522.843750</ele>
<time>2012-07-21T20:55:14Z</time>
<speed>1.030000</speed>
<extensions>
<speed>1.0</speed>
<temp>0.00</temp>
<bpm>0</bpm>
<rpm>0.00</rpm>
</extensions>
</trkpt>
<trkpt lat="64.066001892" lon="-19.395595551">
<ele>522.250000</ele>
<time>2012-07-21T20:55:19Z</time>
<speed>0.050000</speed>
<extensions>
<speed>0.1</speed>
<temp>0.00</temp>
<bpm>0</bpm>
<rpm>0.00</rpm>
</extensions>
</trkpt>
<trkpt lat="64.066001892" lon="-19.395597458">
<ele>522.296875</ele>
<time>2012-07-21T20:55:24Z</time>
<speed>0.180000</speed>
<extensions>
<speed>0.2</speed>
<temp>0.00</temp>
<bpm>0</bpm>
<rpm>0.00</rpm>
</extensions>
</trkpt>
<trkpt lat="64.066001892" lon="-19.395597458">
<ele>523.171875</ele>
<time>2012-07-21T20:55:29Z</time>
<extensions>
<speed>0.0</speed>
<temp>0.00</temp>
<bpm>0</bpm>
<rpm>0.00</rpm>
</extensions>
</trkpt>
<trkpt lat="64.066001892" lon="-19.395597458">
<ele>523.156250</ele>
<time>2012-07-21T20:55:34Z</time>
<extensions>
<speed>0.0</speed>
<temp>0.00</temp>
<bpm>0</bpm>
<rpm>0.00</rpm>
</extensions>
</trkpt>
<trkpt lat="64.066001892" lon="-19.395597458">
<ele>523.140625</ele>
<time>2012-07-21T20:55:39Z</time>
<extensions>
<speed>0.0</speed>
<temp>0.00</temp>
<bpm>0</bpm>
<rpm>0.00</rpm>
</extensions>
</trkpt>
<trkpt lat="64.066001892" lon="-19.395597458">
<ele>523.140625</ele>
<time>2012-07-21T20:55:44Z</time>
<extensions>
<speed>0.0</speed>
<temp>0.00</temp>
<bpm>0</bpm>
<rpm>0.00</rpm>
</extensions>
</trkpt>
<trkpt lat="64.066001892" lon="-19.395597458">
<ele>523.140625</ele>
<time>2012-07-21T20:55:49Z</time>
<extensions>
<speed>0.0</speed>
<temp>0.00</temp>
<bpm>0</bpm>
<rpm>0.00</rpm>
</extensions>
</trkpt>
<trkpt lat="64.066001892" lon="-19.395597458">
<ele>523.140625</ele>
<time>2012-07-21T20:55:54Z</time>
<speed>0.010000</speed>
<extensions>
<speed>0.0</speed>
<temp>0.00</temp>
<bpm>0</bpm>
<rpm>0.00</rpm>
</extensions>
</trkpt>
<trkpt lat="64.066001892" lon="-19.395597458">
<ele>523.125000</ele>
<time>2012-07-21T20:55:59Z</time>
<speed>0.020000</speed>
<extensions>
<speed>0.0</speed>
<temp>0.00</temp>
<bpm>0</bpm>
<rpm>0.00</rpm>
</extensions>
</trkpt>
<trkpt lat="64.066001892" lon="-19.395597458">
<ele>523.125000</ele>
<time>2012-07-21T20:56:04Z</time>
<speed>0.010000</speed>
<extensions>
<speed>0.0</speed>
<temp>0.00</temp>
<bpm>0</bpm>
<rpm>0.00</rpm>
</extensions>
</trkpt>
<trkpt lat="64.066001892" lon="-19.395597458">
<ele>523.125000</ele>
<time>2012-07-21T20:56:09Z</time>
<speed>0.110000</speed>
<extensions>
<speed>0.1</speed>
<temp>0.00</temp>
<bpm>0</bpm>
<rpm>0.00</rpm>
</extensions>
</trkpt>
<trkpt lat="64.066001892" lon="-19.395597458">
<ele>523.078125</ele>
<time>2012-07-21T20:56:14Z</time>
<speed>0.020000</speed>
<extensions>
<speed>0.0</speed>
<temp>0.00</temp>
<bpm>0</bpm>
<rpm>0.00</rpm>
</extensions>
</trkpt>
<trkpt lat="64.066001892" lon="-19.395595551">
<ele>522.890625</ele>
<time>2012-07-21T20:56:19Z</time>
<speed>1.070000</speed>
<extensions>
<speed>1.1</speed>
<temp>0.00</temp>
<bpm>0</bpm>
<rpm>0.00</rpm>
</extensions>
</trkpt>
<trkpt lat="64.066001892" lon="-19.395477295">
<ele>522.781250</ele>
<time>2012-07-21T20:56:24Z</time>
<speed>1.230000</speed>
<extensions>
<speed>1.2</speed>
<temp>0.00</temp>
<bpm>0</bpm>
<rpm>0.00</rpm>
</extensions>
</trkpt>
<trkpt lat="64.065994263" lon="-19.395359039">
<ele>522.640625</ele>
<time>2012-07-21T20:56:29Z</time>
<speed>1.300000</speed>
<extensions>
<speed>1.3</speed>
<temp>0.00</temp>
<bpm>0</bpm>
<rpm>0.00</rpm>
</extensions>
</trkpt>
<trkpt lat="64.065986633" lon="-19.395244598">
<ele>521.750000</ele>
<time>2012-07-21T20:56:34Z</time>
<speed>1.310000</speed>
<extensions>
<speed>1.3</speed>
<temp>0.00</temp>
<bpm>0</bpm>
<rpm>0.00</rpm>
</extensions>
</trkpt>
<trkpt lat="64.065979004" lon="-19.395118713">
<ele>521.421875</ele>
<time>2012-07-21T20:56:39Z</time>
<speed>1.100000</speed>
<extensions>
<speed>1.1</speed>
<temp>0.00</temp>
<bpm>0</bpm>
<rpm>0.00</rpm>
</extensions>
</trkpt>
<trkpt lat="64.065963745" lon="-19.395000458">
<ele>521.265625</ele>
<time>2012-07-21T20:56:44Z</time>
<speed>1.160000</speed>
<extensions>
<speed>1.2</speed>
<temp>0.00</temp>
<bpm>0</bpm>
<rpm>0.00</rpm>
</extensions>
</trkpt>
<trkpt lat="64.065971375" lon="-19.394855499">
<ele>521.968750</ele>
<time>2012-07-21T20:56:49Z</time>
<speed>1.380000</speed>
<extensions>
<speed>1.4</speed>
<temp>0.00</temp>
<bpm>0</bpm>
<rpm>0.00</rpm>
</extensions>
</trkpt>
<trkpt lat="64.065956116" lon="-19.394733429">
<ele>522.609375</ele>
<time>2012-07-21T20:56:54Z</time>
<speed>1.080000</speed>
<extensions>
<speed>1.1</speed>
<temp>0.00</temp>
<bpm>0</bpm>
<rpm>0.00</rpm>
</extensions>
</trkpt>
<trkpt lat="64.065940857" lon="-19.394622803">
<ele>521.343750</ele>
<time>2012-07-21T20:56:59Z</time>
<speed>1.330000</speed>
<extensions>
<speed>1.3</speed>
<temp>0.00</temp>
<bpm>0</bpm>
<rpm>0.00</rpm>
</extensions>
</trkpt>
<trkpt lat="64.065933228" lon="-19.394493103">
<ele>521.250000</ele>
<time>2012-07-21T20:57:04Z</time>
<speed>1.340000</speed>
<extensions>
<speed>1.3</speed>
<temp>0.00</temp>
<bpm>0</bpm>
<rpm>0.00</rpm>
</extensions>
</trkpt>
<trkpt lat="64.065917969" lon="-19.394384384">
<ele>520.484375</ele>
<time>2012-07-21T20:57:09Z</time>
<speed>0.250000</speed>
<extensions>
<speed>0.2</speed>
<temp>0.00</temp>
<bpm>0</bpm>
<rpm>0.00</rpm>
</extensions>
</trkpt>
<trkpt lat="64.065902710" lon="-19.394332886">
<ele>519.359375</ele>
<time>2012-07-21T20:57:14Z</time>
<speed>1.410000</speed>
<extensions>
<speed>1.4</speed>
<temp>0.00</temp>
<bpm>0</bpm>
<rpm>0.00</rpm>
</extensions>
</trkpt>
<trkpt lat="64.065879822" lon="-19.394226074">
<ele>518.578125</ele>
<time>2012-07-21T20:57:19Z</time>
<speed>0.740000</speed>
<extensions>
<speed>0.7</speed>
<temp>0.00</temp>
<bpm>0</bpm>
<rpm>0.00</rpm>
</extensions>
</trkpt>
<trkpt lat="64.065856934" lon="-19.394151688">
<ele>518.218750</ele>
<time>2012-07-21T20:57:24Z</time>
<speed>1.080000</speed>
<extensions>
<speed>1.1</speed>
<temp>0.00</temp>
<bpm>0</bpm>
<rpm>0.00</rpm>
</extensions>
</trkpt>
<trkpt lat="64.065841675" lon="-19.394069672">
<ele>517.578125</ele>
<time>2012-07-21T20:57:29Z</time>
<speed>1.040000</speed>
<extensions>
<speed>1.0</speed>
<temp>0.00</temp>
<bpm>0</bpm>
<rpm>0.00</rpm>
</extensions>
</trkpt>
<trkpt lat="64.065826416" lon="-19.393980026">
<ele>516.781250</ele>
<time>2012-07-21T20:57:34Z</time>
<speed>0.940000</speed>
<extensions>
<speed>0.9</speed>
<temp>0.00</temp>
<bpm>0</bpm>
<rpm>0.00</rpm>
</extensions>
</trkpt>
<trkpt lat="64.065803528" lon="-19.393888474">
<ele>516.187500</ele>
<time>2012-07-21T20:57:39Z</time>
<speed>1.110000</speed>
<extensions>
<speed>1.1</speed>
<temp>0.00</temp>
<bpm>0</bpm>
<rpm>0.00</rpm>
</extensions>
</trkpt>
<trkpt lat="64.065788269" lon="-19.393819809">
<ele>515.734375</ele>
<time>2012-07-21T20:57:44Z</time>
<speed>0.630000</speed>
<extensions>
<speed>0.6</speed>
<temp>0.00</temp>
<bpm>0</bpm>
<rpm>0.00</rpm>
</extensions>
</trkpt>
<trkpt lat="64.065773010" lon="-19.393733978">
<ele>515.031250</ele>
<time>2012-07-21T20:57:49Z</time>
<speed>1.080000</speed>
<extensions>
<speed>1.1</speed>
<temp>0.00</temp>
<bpm>0</bpm>
<rpm>0.00</rpm>
</extensions>
</trkpt>
<trkpt lat="64.065750122" lon="-19.393634796">
<ele>514.828125</ele>
<time>2012-07-21T20:57:54Z</time>
<speed>1.120000</speed>
<extensions>
<speed>1.1</speed>
<temp>0.00</temp>
<bpm>0</bpm>
<rpm>0.00</rpm>
</extensions>
</trkpt>
<trkpt lat="64.065719604" lon="-19.393529892">
<ele>515.250000</ele>
<time>2012-07-21T20:57:59Z</time>
<speed>1.350000</speed>
<extensions>
<speed>1.4</speed>
<temp>0.00</temp>
<bpm>0</bpm>
<rpm>0.00</rpm>
</extensions>
</trkpt>
<trkpt lat="64.065704346" lon="-19.393398285">
<ele>514.312500</ele>
<time>2012-07-21T20:58:04Z</time>
<speed>1.170000</speed>
<extensions>
<speed>1.2</speed>
<temp>0.00</temp>
<bpm>0</bpm>
<rpm>0.00</rpm>
</extensions>
</trkpt>
<trkpt lat="64.065689087" lon="-19.393291473">
<ele>514.765625</ele>
<time>2012-07-21T20:58:09Z</time>
<speed>1.120000</speed>
<extensions>
<speed>1.1</speed>
<temp>0.00</temp>
<bpm>0</bpm>
<rpm>0.00</rpm>
</extensions>
</trkpt>
<trkpt lat="64.065666199" lon="-19.393182755">
<ele>515.484375</ele>
<time>2012-07-21T20:58:14Z</time>
<speed>1.190000</speed>
<extensions>
<speed>1.2</speed>
<temp>0.00</temp>
<bpm>0</bpm>
<rpm>0.00</rpm>
</extensions>
</trkpt>
<trkpt lat="64.065650940" lon="-19.393066406">
<ele>515.265625</ele>
<time>2012-07-21T20:58:19Z</time>
<speed>1.250000</speed>
<extensions>
<speed>1.3</speed>
<temp>0.00</temp>
<bpm>0</bpm>
<rpm>0.00</rpm>
</extensions>
</trkpt>
<trkpt lat="64.065628052" lon="-19.392951965">
<ele>514.640625</ele>
<time>2012-07-21T20:58:24Z</time>
<speed>1.040000</speed>
<extensions>
<speed>1.0</speed>
<temp>0.00</temp>
<bpm>0</bpm>
<rpm>0.00</rpm>
</extensions>
</trkpt>
<trkpt lat="64.065605164" lon="-19.392858505">
<ele>514.375000</ele>
<time>2012-07-21T20:58:29Z</time>
<speed>1.090000</speed>
<extensions>
<speed>1.1</speed>
<temp>0.00</temp>
<bpm>0</bpm>
<rpm>0.00</rpm>
</extensions>
</trkpt>
<trkpt lat="64.065589905" lon="-19.392730713">
<ele>514.218750</ele>
<time>2012-07-21T20:58:34Z</time>
<speed>1.080000</speed>
<extensions>
<speed>1.1</speed>
<temp>0.00</temp>
<bpm>0</bpm>
<rpm>0.00</rpm>
</extensions>
</trkpt>
<trkpt lat="64.065567017" lon="-19.392642975">
<ele>514.093750</ele>
<time>2012-07-21T20:58:39Z</time>
<speed>1.160000</speed>
<extensions>
<speed>1.2</speed>
<temp>0.00</temp>
<bpm>0</bpm>
<rpm>0.00</rpm>
</extensions>
</trkpt>
<trkpt lat="64.065536499" lon="-19.392522812">
<ele>514.203125</ele>
<time>2012-07-21T20:58:44Z</time>
<speed>1.230000</speed>
<extensions>
<speed>1.2</speed>
<temp>0.00</temp>
<bpm>0</bpm>
<rpm>0.00</rpm>
</extensions>
</trkpt>
<trkpt lat="64.065513611" lon="-19.392412186">
<ele>514.593750</ele>
<time>2012-07-21T20:58:49Z</time>
<speed>1.130000</speed>
<extensions>
<speed>1.1</speed>
<temp>0.00</temp>
<bpm>0</bpm>
<rpm>0.00</rpm>
</extensions>
</trkpt>
<trkpt lat="64.065490723" lon="-19.392311096">
<ele>514.578125</ele>
<time>2012-07-21T20:58:54Z</time>
<speed>1.180000</speed>
<extensions>
<speed>1.2</speed>
<temp>0.00</temp>
<bpm>0</bpm>
<rpm>0.00</rpm>
</extensions>
</trkpt>
<trkpt lat="64.065460205" lon="-19.392211914">
<ele>514.312500</ele>
<time>2012-07-21T20:58:59Z</time>
<speed>0.880000</speed>
<extensions>
<speed>0.9</speed>
<temp>0.00</temp>
<bpm>0</bpm>
<rpm>0.00</rpm>
</extensions>
</trkpt>
<trkpt lat="64.065452576" lon="-19.392198563">
<ele>514.156250</ele>
<time>2012-07-21T20:59:04Z</time>
<extensions>
<speed>0.0</speed>
<temp>0.00</temp>
<bpm>0</bpm>
<rpm>0.00</rpm>
</extensions>
</trkpt>
<trkpt lat="64.065452576" lon="-19.392200470">
<ele>514.125000</ele>
<time>2012-07-21T20:59:09Z</time>
<speed>0.210000</speed>
<extensions>
<speed>0.2</speed>
<temp>0.00</temp>
<bpm>0</bpm>
<rpm>0.00</rpm>
</extensions>
</trkpt>
<trkpt lat="64.065429688" lon="-19.392127991">
<ele>514.453125</ele>
<time>2012-07-21T20:59:14Z</time>
<speed>0.910000</speed>
<extensions>
<speed>0.9</speed>
<temp>0.00</temp>
<bpm>0</bpm>
<rpm>0.00</rpm>
</extensions>
</trkpt>
<trkpt lat="64.065406799" lon="-19.392007828">
<ele>514.078125</ele>
<time>2012-07-21T20:59:19Z</time>
<speed>1.160000</speed>
<extensions>
<speed>1.2</speed>
<temp>0.00</temp>
<bpm>0</bpm>
<rpm>0.00</rpm>
</extensions>
</trkpt>
<trkpt lat="64.065383911" lon="-19.391904831">
<ele>513.984375</ele>
<time>2012-07-21T20:59:24Z</time>
<speed>1.000000</speed>
<extensions>
<speed>1.0</speed>
<temp>0.00</temp>
<bpm>0</bpm>
<rpm>0.00</rpm>
</extensions>
</trkpt>
<trkpt lat="64.065353394" lon="-19.391788483">
<ele>514.031250</ele>
<time>2012-07-21T20:59:29Z</time>
<speed>1.240000</speed>
<extensions>
<speed>1.2</speed>
<temp>0.00</temp>
<bpm>0</bpm>
<rpm>0.00</rpm>
</extensions>
</trkpt>
<trkpt lat="64.065330505" lon="-19.391674042">
<ele>513.812500</ele>
<time>2012-07-21T20:59:34Z</time>
<speed>1.260000</speed>
<extensions>
<speed>1.3</speed>
<temp>0.00</temp>
<bpm>0</bpm>
<rpm>0.00</rpm>
</extensions>
</trkpt>
<trkpt lat="64.065307617" lon="-19.391576767">
<ele>513.906250</ele>
<time>2012-07-21T20:59:39Z</time>
<speed>1.380000</speed>
<extensions>
<speed>1.4</speed>
<temp>0.00</temp>
<bpm>0</bpm>
<rpm>0.00</rpm>
</extensions>
</trkpt>
<trkpt lat="64.065284729" lon="-19.391433716">
<ele>513.281250</ele>
<time>2012-07-21T20:59:44Z</time>
<speed>1.340000</speed>
<extensions>
<speed>1.3</speed>
<temp>0.00</temp>
<bpm>0</bpm>
<rpm>0.00</rpm>
</extensions>
</trkpt>
<trkpt lat="64.065254211" lon="-19.391340256">
<ele>513.406250</ele>
<time>2012-07-21T20:59:49Z</time>
<speed>1.040000</speed>
<extensions>
<speed>1.0</speed>
<temp>0.00</temp>
<bpm>0</bpm>
<rpm>0.00</rpm>
</extensions>
</trkpt>
<trkpt lat="64.065231323" lon="-19.391242981">
<ele>512.828125</ele>
<time>2012-07-21T20:59:54Z</time>
<speed>1.290000</speed>
<extensions>
<speed>1.3</speed>
<temp>0.00</temp>
<bpm>0</bpm>
<rpm>0.00</rpm>
</extensions>
</trkpt>
<trkpt lat="64.065216064" lon="-19.391141891">
<ele>512.234375</ele>
<time>2012-07-21T20:59:59Z</time>
<speed>0.900000</speed>
<extensions>
<speed>0.9</speed>
<temp>0.00</temp>
<bpm>0</bpm>
<rpm>0.00</rpm>
</extensions>
</trkpt>
<trkpt lat="64.065193176" lon="-19.391033173">
<ele>512.359375</ele>
<time>2012-07-21T21:00:04Z</time>
<speed>1.100000</speed>
<extensions>
<speed>1.1</speed>
<temp>0.00</temp>
<bpm>0</bpm>
<rpm>0.00</rpm>
</extensions>
</trkpt>
<trkpt lat="64.065170288" lon="-19.390943527">
<ele>512.328125</ele>
<time>2012-07-21T21:00:09Z</time>
<speed>1.010000</speed>
<extensions>
<speed>1.0</speed>
<temp>0.00</temp>
<bpm>0</bpm>
<rpm>0.00</rpm>
</extensions>
</trkpt>
<trkpt lat="64.065139771" lon="-19.390838623">
<ele>512.343750</ele>
<time>2012-07-21T21:00:14Z</time>
<speed>1.090000</speed>
<extensions>
<speed>1.1</speed>
<temp>0.00</temp>
<bpm>0</bpm>
<rpm>0.00</rpm>
</extensions>
</trkpt>
<trkpt lat="64.065124512" lon="-19.390729904">
<ele>512.203125</ele>
<time>2012-07-21T21:00:19Z</time>
<speed>1.020000</speed>
<extensions>
<speed>1.0</speed>
<temp>0.00</temp>
<bpm>0</bpm>
<rpm>0.00</rpm>
</extensions>
</trkpt>
<trkpt lat="64.065124512" lon="-19.390693665">
<ele>512.125000</ele>
<time>2012-07-21T21:00:24Z</time>
<speed>0.020000</speed>
<extensions>
<speed>0.0</speed>
<temp>0.00</temp>
<bpm>0</bpm>
<rpm>0.00</rpm>
</extensions>
</trkpt>
<trkpt lat="64.065124512" lon="-19.390697479">
<ele>512.125000</ele>
<time>2012-07-21T21:00:29Z</time>
<speed>0.010000</speed>
<extensions>
<speed>0.0</speed>
<temp>0.00</temp>
<bpm>0</bpm>
<rpm>0.00</rpm>
</extensions>
</trkpt>
<trkpt lat="64.065124512" lon="-19.390697479">
<ele>512.109375</ele>
<time>2012-07-21T21:00:34Z</time>
<speed>0.010000</speed>
<extensions>
<speed>0.0</speed>
<temp>0.00</temp>
<bpm>0</bpm>
<rpm>0.00</rpm>
</extensions>
</trkpt>
<trkpt lat="64.065124512" lon="-19.390697479">
<ele>512.093750</ele>
<time>2012-07-21T21:00:39Z</time>
<speed>0.010000</speed>
<extensions>
<speed>0.0</speed>
<temp>0.00</temp>
<bpm>0</bpm>
<rpm>0.00</rpm>
</extensions>
</trkpt>
<trkpt lat="64.065124512" lon="-19.390697479">
<ele>512.093750</ele>
<time>2012-07-21T21:00:44Z</time>
<speed>0.030000</speed>
<extensions>
<speed>0.0</speed>
<temp>0.00</temp>
<bpm>0</bpm>
<rpm>0.00</rpm>
</extensions>
</trkpt>
<trkpt lat="64.065101624" lon="-19.390638351">
<ele>512.000000</ele>
<time>2012-07-21T21:00:49Z</time>
<speed>1.200000</speed>
<extensions>
<speed>1.2</speed>
<temp>0.00</temp>
<bpm>0</bpm>
<rpm>0.00</rpm>
</extensions>
</trkpt>
<trkpt lat="64.065071106" lon="-19.390510559">
<ele>512.859375</ele>
<time>2012-07-21T21:00:54Z</time>
<speed>1.230000</speed>
<extensions>
<speed>1.2</speed>
<temp>0.00</temp>
<bpm>0</bpm>
<rpm>0.00</rpm>
</extensions>
</trkpt>
<trkpt lat="64.065048218" lon="-19.390403748">
<ele>512.437500</ele>
<time>2012-07-21T21:00:59Z</time>
<speed>1.040000</speed>
<extensions>
<speed>1.0</speed>
<temp>0.00</temp>
<bpm>0</bpm>
<rpm>0.00</rpm>
</extensions>
</trkpt>
<trkpt lat="64.065025330" lon="-19.390308380">
<ele>512.343750</ele>
<time>2012-07-21T21:01:04Z</time>
<speed>1.280000</speed>
<extensions>
<speed>1.3</speed>
<temp>0.00</temp>
<bpm>0</bpm>
<rpm>0.00</rpm>
</extensions>
</trkpt>
<trkpt lat="64.065002441" lon="-19.390199661">
<ele>511.609375</ele>
<time>2012-07-21T21:01:09Z</time>
<speed>1.140000</speed>
<extensions>
<speed>1.1</speed>
<temp>0.00</temp>
<bpm>0</bpm>
<rpm>0.00</rpm>
</extensions>
</trkpt>
<trkpt lat="64.064987183" lon="-19.390104294">
<ele>511.507813</ele>
<time>2012-07-21T21:01:14Z</time>
<speed>0.860000</speed>
<extensions>
<speed>0.9</speed>
<temp>0.00</temp>
<bpm>0</bpm>
<rpm>0.00</rpm>
</extensions>
</trkpt>
<trkpt lat="64.064971924" lon="-19.390012741">
<ele>511.398438</ele>
<time>2012-07-21T21:01:19Z</time>
<speed>1.110000</speed>
<extensions>
<speed>1.1</speed>
<temp>0.00</temp>
<bpm>0</bpm>
<rpm>0.00</rpm>
</extensions>
</trkpt>
<trkpt lat="64.064949036" lon="-19.389904022">
<ele>511.578125</ele>
<time>2012-07-21T21:01:24Z</time>
<speed>0.980000</speed>
<extensions>
<speed>1.0</speed>
<temp>0.00</temp>
<bpm>0</bpm>
<rpm>0.00</rpm>
</extensions>
</trkpt>
<trkpt lat="64.064933777" lon="-19.389829636">
<ele>511.976563</ele>
<time>2012-07-21T21:01:29Z</time>
<speed>0.880000</speed>
<extensions>
<speed>0.9</speed>
<temp>0.00</temp>
<bpm>0</bpm>
<rpm>0.00</rpm>
</extensions>
</trkpt>
<trkpt lat="64.064918518" lon="-19.389745712">
<ele>511.921875</ele>
<time>2012-07-21T21:01:34Z</time>
<speed>0.970000</speed>
<extensions>
<speed>1.0</speed>
<temp>0.00</temp>
<bpm>0</bpm>
<rpm>0.00</rpm>
</extensions>
</trkpt>
<trkpt lat="64.064895630" lon="-19.389669418">
<ele>511.968750</ele>
<time>2012-07-21T21:01:39Z</time>
<speed>0.780000</speed>
<extensions>
<speed>0.8</speed>
<temp>0.00</temp>
<bpm>0</bpm>
<rpm>0.00</rpm>
</extensions>
</trkpt>
<trkpt lat="64.064880371" lon="-19.389574051">
<ele>511.734375</ele>
<time>2012-07-21T21:01:44Z</time>
<speed>0.720000</speed>
<extensions>
<speed>0.7</speed>
<temp>0.00</temp>
<bpm>0</bpm>
<rpm>0.00</rpm>
</extensions>
</trkpt>
<trkpt lat="64.064865112" lon="-19.389492035">
<ele>511.734375</ele>
<time>2012-07-21T21:01:49Z</time>
<speed>1.030000</speed>
<extensions>
<speed>1.0</speed>
<temp>0.00</temp>
<bpm>0</bpm>
<rpm>0.00</rpm>
</extensions>
</trkpt>
<trkpt lat="64.064842224" lon="-19.389402390">
<ele>511.875000</ele>
<time>2012-07-21T21:01:54Z</time>
<speed>1.090000</speed>
<extensions>
<speed>1.1</speed>
<temp>0.00</temp>
<bpm>0</bpm>
<rpm>0.00</rpm>
</extensions>
</trkpt>
<trkpt lat="64.064826965" lon="-19.389293671">
<ele>512.140625</ele>
<time>2012-07-21T21:01:59Z</time>
<speed>0.990000</speed>
<extensions>
<speed>1.0</speed>
<temp>0.00</temp>
<bpm>0</bpm>
<rpm>0.00</rpm>
</extensions>
</trkpt>
<trkpt lat="64.064819336" lon="-19.389198303">
<ele>511.718750</ele>
<time>2012-07-21T21:02:04Z</time>
<speed>0.930000</speed>
<extensions>
<speed>0.9</speed>
<temp>0.00</temp>
<bpm>0</bpm>
<rpm>0.00</rpm>
</extensions>
</trkpt>
<trkpt lat="64.064804077" lon="-19.389137268">
<ele>511.781250</ele>
<time>2012-07-21T21:02:09Z</time>
<speed>0.870000</speed>
<extensions>
<speed>0.9</speed>
<temp>0.00</temp>
<bpm>0</bpm>
<rpm>0.00</rpm>
</extensions>
</trkpt>
<trkpt lat="64.064788818" lon="-19.389055252">
<ele>511.843750</ele>
<time>2012-07-21T21:02:14Z</time>
<speed>0.720000</speed>
<extensions>
<speed>0.7</speed>
<temp>0.00</temp>
<bpm>0</bpm>
<rpm>0.00</rpm>
</extensions>
</trkpt>
<trkpt lat="64.064773560" lon="-19.388971329">
<ele>511.132813</ele>
<time>2012-07-21T21:02:19Z</time>
<speed>1.020000</speed>
<extensions>
<speed>1.0</speed>
<temp>0.00</temp>
<bpm>0</bpm>
<rpm>0.00</rpm>
</extensions>
</trkpt>
<trkpt lat="64.064758301" lon="-19.388866425">
<ele>510.875000</ele>
<time>2012-07-21T21:02:24Z</time>
<speed>0.930000</speed>
<extensions>
<speed>0.9</speed>
<temp>0.00</temp>
<bpm>0</bpm>
<rpm>0.00</rpm>
</extensions>
</trkpt>
<trkpt lat="64.064743042" lon="-19.388786316">
<ele>510.695313</ele>
<time>2012-07-21T21:02:29Z</time>
<speed>1.180000</speed>
<extensions>
<speed>1.2</speed>
<temp>0.00</temp>
<bpm>0</bpm>
<rpm>0.00</rpm>
</extensions>
</trkpt>
<trkpt lat="64.064743042" lon="-19.388725281">
<ele>511.140625</ele>
<time>2012-07-21T21:02:34Z</time>
<speed>0.180000</speed>
<extensions>
<speed>0.2</speed>
<temp>0.00</temp>
<bpm>0</bpm>
<rpm>0.00</rpm>
</extensions>
</trkpt>
<trkpt lat="64.064743042" lon="-19.388723373">
<ele>511.460938</ele>
<time>2012-07-21T21:02:39Z</time>
<extensions>
<speed>0.0</speed>
<temp>0.00</temp>
<bpm>0</bpm>
<rpm>0.00</rpm>
</extensions>
</trkpt>
<trkpt lat="64.064743042" lon="-19.388723373">
<ele>511.476563</ele>
<time>2012-07-21T21:02:44Z</time>
<speed>0.030000</speed>
<extensions>
<speed>0.0</speed>
<temp>0.00</temp>
<bpm>0</bpm>
<rpm>0.00</rpm>
</extensions>
</trkpt>
<trkpt lat="64.064743042" lon="-19.388723373">
<ele>511.476563</ele>
<time>2012-07-21T21:02:49Z</time>
<extensions>
<speed>0.0</speed>
<temp>0.00</temp>
<bpm>0</bpm>
<rpm>0.00</rpm>
</extensions>
</trkpt>
<trkpt lat="64.064743042" lon="-19.388723373">
<ele>511.492188</ele>
<time>2012-07-21T21:02:54Z</time>
<speed>0.030000</speed>
<extensions>
<speed>0.0</speed>
<temp>0.00</temp>
<bpm>0</bpm>
<rpm>0.00</rpm>
</extensions>
</trkpt>
<trkpt lat="64.064743042" lon="-19.388721466">
<ele>511.515625</ele>
<time>2012-07-21T21:02:59Z</time>
<speed>0.010000</speed>
<extensions>
<speed>0.0</speed>
<temp>0.00</temp>
<bpm>0</bpm>
<rpm>0.00</rpm>
</extensions>
</trkpt>
<trkpt lat="64.064743042" lon="-19.388721466">
<ele>511.523438</ele>
<time>2012-07-21T21:03:04Z</time>
<speed>0.030000</speed>
<extensions>
<speed>0.0</speed>
<temp>0.00</temp>
<bpm>0</bpm>
<rpm>0.00</rpm>
</extensions>
</trkpt>
<trkpt lat="64.064743042" lon="-19.388721466">
<ele>511.531250</ele>
<time>2012-07-21T21:03:09Z</time>
<speed>0.020000</speed>
<extensions>
<speed>0.0</speed>
<temp>0.00</temp>
<bpm>0</bpm>
<rpm>0.00</rpm>
</extensions>
</trkpt>
<trkpt lat="64.064735413" lon="-19.388660431">
<ele>511.343750</ele>
<time>2012-07-21T21:03:14Z</time>
<speed>1.170000</speed>
<extensions>
<speed>1.2</speed>
<temp>0.00</temp>
<bpm>0</bpm>
<rpm>0.00</rpm>
</extensions>
</trkpt>
<trkpt lat="64.064720154" lon="-19.388555527">
<ele>511.562500</ele>
<time>2012-07-21T21:03:19Z</time>
<speed>1.010000</speed>
<extensions>
<speed>1.0</speed>
<temp>0.00</temp>
<bpm>0</bpm>
<rpm>0.00</rpm>
</extensions>
</trkpt>
<trkpt lat="64.064704895" lon="-19.388448715">
<ele>512.015625</ele>
<time>2012-07-21T21:03:24Z</time>
<speed>1.150000</speed>
<extensions>
<speed>1.1</speed>
<temp>0.00</temp>
<bpm>0</bpm>
<rpm>0.00</rpm>
</extensions>
</trkpt>
<trkpt lat="64.064697266" lon="-19.388364792">
<ele>513.093750</ele>
<time>2012-07-21T21:03:29Z</time>
<speed>0.080000</speed>
<extensions>
<speed>0.1</speed>
<temp>0.00</temp>
<bpm>0</bpm>
<rpm>0.00</rpm>
</extensions>
</trkpt>
<trkpt lat="64.064697266" lon="-19.388374329">
<ele>513.937500</ele>
<time>2012-07-21T21:03:34Z</time>
<speed>0.010000</speed>
<extensions>
<speed>0.0</speed>
<temp>0.00</temp>
<bpm>0</bpm>
<rpm>0.00</rpm>
</extensions>
</trkpt>
<trkpt lat="64.064697266" lon="-19.388374329">
<ele>513.921875</ele>
<time>2012-07-21T21:03:39Z</time>
<speed>0.020000</speed>
<extensions>
<speed>0.0</speed>
<temp>0.00</temp>
<bpm>0</bpm>
<rpm>0.00</rpm>
</extensions>
</trkpt>
<trkpt lat="64.064697266" lon="-19.388376236">
<ele>513.859375</ele>
<time>2012-07-21T21:03:44Z</time>
<extensions>
<speed>0.0</speed>
<temp>0.00</temp>
<bpm>0</bpm>
<rpm>0.00</rpm>
</extensions>
</trkpt>
<trkpt lat="64.064697266" lon="-19.388376236">
<ele>513.843750</ele>
<time>2012-07-21T21:03:49Z</time>
<extensions>
<speed>0.0</speed>
<temp>0.00</temp>
<bpm>0</bpm>
<rpm>0.00</rpm>
</extensions>
</trkpt>
<trkpt lat="64.064697266" lon="-19.388376236">
<ele>513.843750</ele>
<time>2012-07-21T21:03:54Z</time>
<speed>0.010000</speed>
<extensions>
<speed>0.0</speed>
<temp>0.00</temp>
<bpm>0</bpm>
<rpm>0.00</rpm>
</extensions>
</trkpt>
<trkpt lat="64.064697266" lon="-19.388376236">
<ele>513.843750</ele>
<time>2012-07-21T21:03:59Z</time>
<speed>0.010000</speed>
<extensions>
<speed>0.0</speed>
<temp>0.00</temp>
<bpm>0</bpm>
<rpm>0.00</rpm>
</extensions>
</trkpt>
<trkpt lat="64.064697266" lon="-19.388355255">
<ele>513.750000</ele>
<time>2012-07-21T21:04:04Z</time>
<speed>0.920000</speed>
<extensions>
<speed>0.9</speed>
<temp>0.00</temp>
<bpm>0</bpm>
<rpm>0.00</rpm>
</extensions>
</trkpt>
<trkpt lat="64.064674377" lon="-19.388290405">
<ele>513.343750</ele>
<time>2012-07-21T21:04:09Z</time>
<speed>0.720000</speed>
<extensions>
<speed>0.7</speed>
<temp>0.00</temp>
<bpm>0</bpm>
<rpm>0.00</rpm>
</extensions>
</trkpt>
<trkpt lat="64.064666748" lon="-19.388200760">
<ele>513.453125</ele>
<time>2012-07-21T21:04:14Z</time>
<speed>1.080000</speed>
<extensions>
<speed>1.1</speed>
<temp>0.00</temp>
<bpm>0</bpm>
<rpm>0.00</rpm>
</extensions>
</trkpt>
<trkpt lat="64.064651489" lon="-19.388092041">
<ele>513.406250</ele>
<time>2012-07-21T21:04:19Z</time>
<speed>0.980000</speed>
<extensions>
<speed>1.0</speed>
<temp>0.00</temp>
<bpm>0</bpm>
<rpm>0.00</rpm>
</extensions>
</trkpt>
<trkpt lat="64.064620972" lon="-19.387981415">
<ele>513.250000</ele>
<time>2012-07-21T21:04:24Z</time>
<speed>1.180000</speed>
<extensions>
<speed>1.2</speed>
<temp>0.00</temp>
<bpm>0</bpm>
<rpm>0.00</rpm>
</extensions>
</trkpt>
<trkpt lat="64.064613342" lon="-19.387895584">
<ele>512.109375</ele>
<time>2012-07-21T21:04:29Z</time>
<extensions>
<speed>0.0</speed>
<temp>0.00</temp>
<bpm>0</bpm>
<rpm>0.00</rpm>
</extensions>
</trkpt>
<trkpt lat="64.064620972" lon="-19.387893677">
<ele>512.171875</ele>
<time>2012-07-21T21:04:34Z</time>
<speed>0.020000</speed>
<extensions>
<speed>0.0</speed>
<temp>0.00</temp>
<bpm>0</bpm>
<rpm>0.00</rpm>
</extensions>
</trkpt>
<trkpt lat="64.064605713" lon="-19.387838364">
<ele>511.976563</ele>
<time>2012-07-21T21:04:39Z</time>
<speed>0.670000</speed>
<extensions>
<speed>0.7</speed>
<temp>0.00</temp>
<bpm>0</bpm>
<rpm>0.00</rpm>
</extensions>
</trkpt>
<trkpt lat="64.064598083" lon="-19.387741089">
<ele>511.929688</ele>
<time>2012-07-21T21:04:44Z</time>
<speed>0.630000</speed>
<extensions>
<speed>0.6</speed>
<temp>0.00</temp>
<bpm>0</bpm>
<rpm>0.00</rpm>
</extensions>
</trkpt>
<trkpt lat="64.064575195" lon="-19.387645721">
<ele>511.867188</ele>
<time>2012-07-21T21:04:49Z</time>
<speed>1.450000</speed>
<extensions>
<speed>1.4</speed>
<temp>0.00</temp>
<bpm>0</bpm>
<rpm>0.00</rpm>
</extensions>
</trkpt>
<trkpt lat="64.064544678" lon="-19.387538910">
<ele>512.031250</ele>
<time>2012-07-21T21:04:54Z</time>
<speed>1.100000</speed>
<extensions>
<speed>1.1</speed>
<temp>0.00</temp>
<bpm>0</bpm>
<rpm>0.00</rpm>
</extensions>
</trkpt>
<trkpt lat="64.064521790" lon="-19.387432098">
<ele>512.843750</ele>
<time>2012-07-21T21:04:59Z</time>
<speed>1.130000</speed>
<extensions>
<speed>1.1</speed>
<temp>0.00</temp>
<bpm>0</bpm>
<rpm>0.00</rpm>
</extensions>
</trkpt>
<trkpt lat="64.064506531" lon="-19.387311935">
<ele>512.656250</ele>
<time>2012-07-21T21:05:04Z</time>
<speed>1.380000</speed>
<extensions>
<speed>1.4</speed>
<temp>0.00</temp>
<bpm>0</bpm>
<rpm>0.00</rpm>
</extensions>
</trkpt>
<trkpt lat="64.064498901" lon="-19.387170792">
<ele>512.578125</ele>
<time>2012-07-21T21:05:09Z</time>
<speed>1.300000</speed>
<extensions>
<speed>1.3</speed>
<temp>0.00</temp>
<bpm>0</bpm>
<rpm>0.00</rpm>
</extensions>
</trkpt>
<trkpt lat="64.064514160" lon="-19.387046814">
<ele>512.796875</ele>
<time>2012-07-21T21:05:14Z</time>
<speed>1.340000</speed>
<extensions>
<speed>1.3</speed>
<temp>0.00</temp>
<bpm>0</bpm>
<rpm>0.00</rpm>
</extensions>
</trkpt>
<trkpt lat="64.064529419" lon="-19.386928558">
<ele>512.203125</ele>
<time>2012-07-21T21:05:19Z</time>
<speed>1.320000</speed>
<extensions>
<speed>1.3</speed>
<temp>0.00</temp>
<bpm>0</bpm>
<rpm>0.00</rpm>
</extensions>
</trkpt>
<trkpt lat="64.064537048" lon="-19.386838913">
<ele>512.046875</ele>
<time>2012-07-21T21:05:24Z</time>
<speed>0.050000</speed>
<extensions>
<speed>0.1</speed>
<temp>0.00</temp>
<bpm>0</bpm>
<rpm>0.00</rpm>
</extensions>
</trkpt>
<trkpt lat="64.064537048" lon="-19.386806488">
<ele>513.031250</ele>
<time>2012-07-21T21:05:29Z</time>
<extensions>
<speed>0.0</speed>
<temp>0.00</temp>
<bpm>0</bpm>
<rpm>0.00</rpm>
</extensions>
</trkpt>
<trkpt lat="64.064537048" lon="-19.386806488">
<ele>513.000000</ele>
<time>2012-07-21T21:05:34Z</time>
<speed>0.010000</speed>
<extensions>
<speed>0.0</speed>
<temp>0.00</temp>
<bpm>0</bpm>
<rpm>0.00</rpm>
</extensions>
</trkpt>
<trkpt lat="64.064537048" lon="-19.386806488">
<ele>513.000000</ele>
<time>2012-07-21T21:05:39Z</time>
<speed>0.010000</speed>
<extensions>
<speed>0.0</speed>
<temp>0.00</temp>
<bpm>0</bpm>
<rpm>0.00</rpm>
</extensions>
</trkpt>
<trkpt lat="64.064537048" lon="-19.386806488">
<ele>513.031250</ele>
<time>2012-07-21T21:05:44Z</time>
<speed>0.030000</speed>
<extensions>
<speed>0.0</speed>
<temp>0.00</temp>
<bpm>0</bpm>
<rpm>0.00</rpm>
</extensions>
</trkpt>
<trkpt lat="64.064537048" lon="-19.386806488">
<ele>513.062500</ele>
<time>2012-07-21T21:05:49Z</time>
<speed>0.020000</speed>
<extensions>
<speed>0.0</speed>
<temp>0.00</temp>
<bpm>0</bpm>
<rpm>0.00</rpm>
</extensions>
</trkpt>
<trkpt lat="64.064537048" lon="-19.386812210">
<ele>513.156250</ele>
<time>2012-07-21T21:05:54Z</time>
<speed>0.090000</speed>
<extensions>
<speed>0.1</speed>
<temp>0.00</temp>
<bpm>0</bpm>
<rpm>0.00</rpm>
</extensions>
</trkpt>
<trkpt lat="64.064537048" lon="-19.386825562">
<ele>511.937500</ele>
<time>2012-07-21T21:05:59Z</time>
<speed>0.340000</speed>
<extensions>
<speed>0.3</speed>
<temp>0.00</temp>
<bpm>0</bpm>
<rpm>0.00</rpm>
</extensions>
</trkpt>
<trkpt lat="64.064537048" lon="-19.386814117">
<ele>512.265625</ele>
<time>2012-07-21T21:06:04Z</time>
<speed>0.010000</speed>
<extensions>
<speed>0.0</speed>
<temp>0.00</temp>
<bpm>0</bpm>
<rpm>0.00</rpm>
</extensions>
</trkpt>
<trkpt lat="64.064537048" lon="-19.386814117">
<ele>512.250000</ele>
<time>2012-07-21T21:06:09Z</time>
<extensions>
<speed>0.0</speed>
<temp>0.00</temp>
<bpm>0</bpm>
<rpm>0.00</rpm>
</extensions>
</trkpt>
<trkpt lat="64.064537048" lon="-19.386814117">
<ele>512.265625</ele>
<time>2012-07-21T21:06:14Z</time>
<extensions>
<speed>0.0</speed>
<temp>0.00</temp>
<bpm>0</bpm>
<rpm>0.00</rpm>
</extensions>
</trkpt>
<trkpt lat="64.064537048" lon="-19.386812210">
<ele>512.265625</ele>
<time>2012-07-21T21:06:19Z</time>
<speed>0.990000</speed>
<extensions>
<speed>1.0</speed>
<temp>0.00</temp>
<bpm>0</bpm>
<rpm>0.00</rpm>
</extensions>
</trkpt>
<trkpt lat="64.064552307" lon="-19.386692047">
<ele>514.312500</ele>
<time>2012-07-21T21:06:24Z</time>
<speed>1.500000</speed>
<extensions>
<speed>1.5</speed>
<temp>0.00</temp>
<bpm>0</bpm>
<rpm>0.00</rpm>
</extensions>
</trkpt>
<trkpt lat="64.064598083" lon="-19.386600494">
<ele>514.984375</ele>
<time>2012-07-21T21:06:29Z</time>
<speed>1.000000</speed>
<extensions>
<speed>1.0</speed>
<temp>0.00</temp>
<bpm>0</bpm>
<rpm>0.00</rpm>
</extensions>
</trkpt>
<trkpt lat="64.064628601" lon="-19.386541367">
<ele>515.203125</ele>
<time>2012-07-21T21:06:34Z</time>
<speed>0.050000</speed>
<extensions>
<speed>0.1</speed>
<temp>0.00</temp>
<bpm>0</bpm>
<rpm>0.00</rpm>
</extensions>
</trkpt>
<trkpt lat="64.064636230" lon="-19.386512756">
<ele>515.593750</ele>
<time>2012-07-21T21:06:39Z</time>
<speed>1.060000</speed>
<extensions>
<speed>1.1</speed>
<temp>0.00</temp>
<bpm>0</bpm>
<rpm>0.00</rpm>
</extensions>
</trkpt>
<trkpt lat="64.064666748" lon="-19.386407852">
<ele>516.437500</ele>
<time>2012-07-21T21:06:44Z</time>
<speed>1.040000</speed>
<extensions>
<speed>1.0</speed>
<temp>0.00</temp>
<bpm>0</bpm>
<rpm>0.00</rpm>
</extensions>
</trkpt>
<trkpt lat="64.064666748" lon="-19.386354446">
<ele>517.031250</ele>
<time>2012-07-21T21:06:49Z</time>
<speed>0.080000</speed>
<extensions>
<speed>0.1</speed>
<temp>0.00</temp>
<bpm>0</bpm>
<rpm>0.00</rpm>
</extensions>
</trkpt>
<trkpt lat="64.064666748" lon="-19.386362076">
<ele>517.578125</ele>
<time>2012-07-21T21:06:54Z</time>
<extensions>
<speed>0.0</speed>
<temp>0.00</temp>
<bpm>0</bpm>
<rpm>0.00</rpm>
</extensions>
</trkpt>
<trkpt lat="64.064666748" lon="-19.386360168">
<ele>517.562500</ele>
<time>2012-07-21T21:06:59Z</time>
<speed>0.730000</speed>
<extensions>
<speed>0.7</speed>
<temp>0.00</temp>
<bpm>0</bpm>
<rpm>0.00</rpm>
</extensions>
</trkpt>
<trkpt lat="64.064682007" lon="-19.386293411">
<ele>517.406250</ele>
<time>2012-07-21T21:07:04Z</time>
<speed>0.720000</speed>
<extensions>
<speed>0.7</speed>
<temp>0.00</temp>
<bpm>0</bpm>
<rpm>0.00</rpm>
</extensions>
</trkpt>
<trkpt lat="64.064682007" lon="-19.386287689">
<ele>517.109375</ele>
<time>2012-07-21T21:07:09Z</time>
<speed>0.660000</speed>
<extensions>
<speed>0.7</speed>
<temp>0.00</temp>
<bpm>0</bpm>
<rpm>0.00</rpm>
</extensions>
</trkpt>
<trkpt lat="64.064689636" lon="-19.386219025">
<ele>516.265625</ele>
<time>2012-07-21T21:07:14Z</time>
<speed>1.030000</speed>
<extensions>
<speed>1.0</speed>
<temp>0.00</temp>
<bpm>0</bpm>
<rpm>0.00</rpm>
</extensions>
</trkpt>
<trkpt lat="64.064689636" lon="-19.386135101">
<ele>516.171875</ele>
<time>2012-07-21T21:07:19Z</time>
<speed>1.030000</speed>
<extensions>
<speed>1.0</speed>
<temp>0.00</temp>
<bpm>0</bpm>
<rpm>0.00</rpm>
</extensions>
</trkpt>
<trkpt lat="64.064689636" lon="-19.386037827">
<ele>515.609375</ele>
<time>2012-07-21T21:07:24Z</time>
<speed>0.950000</speed>
<extensions>
<speed>1.0</speed>
<temp>0.00</temp>
<bpm>0</bpm>
<rpm>0.00</rpm>
</extensions>
</trkpt>
<trkpt lat="64.064689636" lon="-19.385919571">
<ele>515.437500</ele>
<time>2012-07-21T21:07:29Z</time>
<speed>1.160000</speed>
<extensions>
<speed>1.2</speed>
<temp>0.00</temp>
<bpm>0</bpm>
<rpm>0.00</rpm>
</extensions>
</trkpt>
<trkpt lat="64.064689636" lon="-19.385797501">
<ele>515.250000</ele>
<time>2012-07-21T21:07:34Z</time>
<speed>0.990000</speed>
<extensions>
<speed>1.0</speed>
<temp>0.00</temp>
<bpm>0</bpm>
<rpm>0.00</rpm>
</extensions>
</trkpt>
<trkpt lat="64.064682007" lon="-19.385677338">
<ele>514.937500</ele>
<time>2012-07-21T21:07:39Z</time>
<speed>1.290000</speed>
<extensions>
<speed>1.3</speed>
<temp>0.00</temp>
<bpm>0</bpm>
<rpm>0.00</rpm>
</extensions>
</trkpt>
<trkpt lat="64.064682007" lon="-19.385583878">
<ele>514.984375</ele>
<time>2012-07-21T21:07:44Z</time>
<speed>0.310000</speed>
<extensions>
<speed>0.3</speed>
<temp>0.00</temp>
<bpm>0</bpm>
<rpm>0.00</rpm>
</extensions>
</trkpt>
<trkpt lat="64.064689636" lon="-19.385578156">
<ele>516.093750</ele>
<time>2012-07-21T21:07:49Z</time>
<speed>0.270000</speed>
<extensions>
<speed>0.3</speed>
<temp>0.00</temp>
<bpm>0</bpm>
<rpm>0.00</rpm>
</extensions>
</trkpt>
<trkpt lat="64.064689636" lon="-19.385570526">
<ele>516.546875</ele>
<time>2012-07-21T21:07:54Z</time>
<speed>0.020000</speed>
<extensions>
<speed>0.0</speed>
<temp>0.00</temp>
<bpm>0</bpm>
<rpm>0.00</rpm>
</extensions>
</trkpt>
<trkpt lat="64.064689636" lon="-19.385570526">
<ele>516.562500</ele>
<time>2012-07-21T21:07:59Z</time>
<speed>0.010000</speed>
<extensions>
<speed>0.0</speed>
<temp>0.00</temp>
<bpm>0</bpm>
<rpm>0.00</rpm>
</extensions>
</trkpt>
<trkpt lat="64.064682007" lon="-19.385572433">
<ele>516.531250</ele>
<time>2012-07-21T21:08:04Z</time>
<speed>0.050000</speed>
<extensions>
<speed>0.1</speed>
<temp>0.00</temp>
<bpm>0</bpm>
<rpm>0.00</rpm>
</extensions>
</trkpt>
<trkpt lat="64.064689636" lon="-19.385553360">
<ele>516.484375</ele>
<time>2012-07-21T21:08:09Z</time>
<speed>0.050000</speed>
<extensions>
<speed>0.1</speed>
<temp>0.00</temp>
<bpm>0</bpm>
<rpm>0.00</rpm>
</extensions>
</trkpt>
<trkpt lat="64.064689636" lon="-19.385553360">
<ele>516.500000</ele>
<time>2012-07-21T21:08:14Z</time>
<speed>0.010000</speed>
<extensions>
<speed>0.0</speed>
<temp>0.00</temp>
<bpm>0</bpm>
<rpm>0.00</rpm>
</extensions>
</trkpt>
<trkpt lat="64.064689636" lon="-19.385553360">
<ele>516.296875</ele>
<time>2012-07-21T21:08:19Z</time>
<speed>0.240000</speed>
<extensions>
<speed>0.2</speed>
<temp>0.00</temp>
<bpm>0</bpm>
<rpm>0.00</rpm>
</extensions>
</trkpt>
<trkpt lat="64.064697266" lon="-19.385488510">
<ele>516.093750</ele>
<time>2012-07-21T21:08:24Z</time>
<speed>0.690000</speed>
<extensions>
<speed>0.7</speed>
<temp>0.00</temp>
<bpm>0</bpm>
<rpm>0.00</rpm>
</extensions>
</trkpt>
<trkpt lat="64.064697266" lon="-19.385454178">
<ele>515.875000</ele>
<time>2012-07-21T21:08:29Z</time>
<speed>0.040000</speed>
<extensions>
<speed>0.0</speed>
<temp>0.00</temp>
<bpm>0</bpm>
<rpm>0.00</rpm>
</extensions>
</trkpt>
<trkpt lat="64.064697266" lon="-19.385456085">
<ele>515.843750</ele>
<time>2012-07-21T21:08:34Z</time>
<speed>0.410000</speed>
<extensions>
<speed>0.4</speed>
<temp>0.00</temp>
<bpm>0</bpm>
<rpm>0.00</rpm>
</extensions>
</trkpt>
<trkpt lat="64.064689636" lon="-19.385370255">
<ele>515.500000</ele>
<time>2012-07-21T21:08:39Z</time>
<speed>1.080000</speed>
<extensions>
<speed>1.1</speed>
<temp>0.00</temp>
<bpm>0</bpm>
<rpm>0.00</rpm>
</extensions>
</trkpt>
<trkpt lat="64.064704895" lon="-19.385255814">
<ele>515.093750</ele>
<time>2012-07-21T21:08:44Z</time>
<speed>1.100000</speed>
<extensions>
<speed>1.1</speed>
<temp>0.00</temp>
<bpm>0</bpm>
<rpm>0.00</rpm>
</extensions>
</trkpt>
<trkpt lat="64.064712524" lon="-19.385169983">
<ele>515.656250</ele>
<time>2012-07-21T21:08:49Z</time>
<speed>0.130000</speed>
<extensions>
<speed>0.1</speed>
<temp>0.00</temp>
<bpm>0</bpm>
<rpm>0.00</rpm>
</extensions>
</trkpt>
<trkpt lat="64.064720154" lon="-19.385168076">
<ele>515.671875</ele>
<time>2012-07-21T21:08:54Z</time>
<speed>0.020000</speed>
<extensions>
<speed>0.0</speed>
<temp>0.00</temp>
<bpm>0</bpm>
<rpm>0.00</rpm>
</extensions>
</trkpt>
<trkpt lat="64.064720154" lon="-19.385169983">
<ele>515.640625</ele>
<time>2012-07-21T21:08:59Z</time>
<speed>0.100000</speed>
<extensions>
<speed>0.1</speed>
<temp>0.00</temp>
<bpm>0</bpm>
<rpm>0.00</rpm>
</extensions>
</trkpt>
<trkpt lat="64.064720154" lon="-19.385169983">
<ele>515.609375</ele>
<time>2012-07-21T21:09:04Z</time>
<speed>0.030000</speed>
<extensions>
<speed>0.0</speed>
<temp>0.00</temp>
<bpm>0</bpm>
<rpm>0.00</rpm>
</extensions>
</trkpt>
<trkpt lat="64.064720154" lon="-19.385169983">
<ele>515.625000</ele>
<time>2012-07-21T21:09:09Z</time>
<speed>0.010000</speed>
<extensions>
<speed>0.0</speed>
<temp>0.00</temp>
<bpm>0</bpm>
<rpm>0.00</rpm>
</extensions>
</trkpt>
<trkpt lat="64.064720154" lon="-19.385169983">
<ele>515.640625</ele>
<time>2012-07-21T21:09:14Z</time>
<speed>0.010000</speed>
<extensions>
<speed>0.0</speed>
<temp>0.00</temp>
<bpm>0</bpm>
<rpm>0.00</rpm>
</extensions>
</trkpt>
<trkpt lat="64.064720154" lon="-19.385169983">
<ele>515.656250</ele>
<time>2012-07-21T21:09:19Z</time>
<extensions>
<speed>0.0</speed>
<temp>0.00</temp>
<bpm>0</bpm>
<rpm>0.00</rpm>
</extensions>
</trkpt>
<trkpt lat="64.064720154" lon="-19.385169983">
<ele>515.671875</ele>
<time>2012-07-21T21:09:24Z</time>
<speed>0.020000</speed>
<extensions>
<speed>0.0</speed>
<temp>0.00</temp>
<bpm>0</bpm>
<rpm>0.00</rpm>
</extensions>
</trkpt>
<trkpt lat="64.064743042" lon="-19.385084152">
<ele>515.781250</ele>
<time>2012-07-21T21:09:29Z</time>
<speed>1.490000</speed>
<extensions>
<speed>1.5</speed>
<temp>0.00</temp>
<bpm>0</bpm>
<rpm>0.00</rpm>
</extensions>
</trkpt>
<trkpt lat="64.064758301" lon="-19.384952545">
<ele>516.000000</ele>
<time>2012-07-21T21:09:34Z</time>
<speed>1.360000</speed>
<extensions>
<speed>1.4</speed>
<temp>0.00</temp>
<bpm>0</bpm>
<rpm>0.00</rpm>
</extensions>
</trkpt>
<trkpt lat="64.064788818" lon="-19.384851456">
<ele>515.796875</ele>
<time>2012-07-21T21:09:39Z</time>
<speed>1.180000</speed>
<extensions>
<speed>1.2</speed>
<temp>0.00</temp>
<bpm>0</bpm>
<rpm>0.00</rpm>
</extensions>
</trkpt>
<trkpt lat="64.064804077" lon="-19.384719849">
<ele>516.062500</ele>
<time>2012-07-21T21:09:44Z</time>
<speed>1.190000</speed>
<extensions>
<speed>1.2</speed>
<temp>0.00</temp>
<bpm>0</bpm>
<rpm>0.00</rpm>
</extensions>
</trkpt>
<trkpt lat="64.064834595" lon="-19.384592056">
<ele>516.125000</ele>
<time>2012-07-21T21:09:49Z</time>
<speed>1.180000</speed>
<extensions>
<speed>1.2</speed>
<temp>0.00</temp>
<bpm>0</bpm>
<rpm>0.00</rpm>
</extensions>
</trkpt>
<trkpt lat="64.064857483" lon="-19.384481430">
<ele>517.406250</ele>
<time>2012-07-21T21:09:54Z</time>
<speed>1.030000</speed>
<extensions>
<speed>1.0</speed>
<temp>0.00</temp>
<bpm>0</bpm>
<rpm>0.00</rpm>
</extensions>
</trkpt>
<trkpt lat="64.064888000" lon="-19.384407043">
<ele>517.218750</ele>
<time>2012-07-21T21:09:59Z</time>
<speed>0.990000</speed>
<extensions>
<speed>1.0</speed>
<temp>0.00</temp>
<bpm>0</bpm>
<rpm>0.00</rpm>
</extensions>
</trkpt>
<trkpt lat="64.064910889" lon="-19.384296417">
<ele>517.187500</ele>
<time>2012-07-21T21:10:04Z</time>
<speed>1.200000</speed>
<extensions>
<speed>1.2</speed>
<temp>0.00</temp>
<bpm>0</bpm>
<rpm>0.00</rpm>
</extensions>
</trkpt>
<trkpt lat="64.064941406" lon="-19.384183884">
<ele>516.906250</ele>
<time>2012-07-21T21:10:09Z</time>
<speed>1.370000</speed>
<extensions>
<speed>1.4</speed>
<temp>0.00</temp>
<bpm>0</bpm>
<rpm>0.00</rpm>
</extensions>
</trkpt>
<trkpt lat="64.064971924" lon="-19.384096146">
<ele>516.546875</ele>
<time>2012-07-21T21:10:14Z</time>
<speed>0.130000</speed>
<extensions>
<speed>0.1</speed>
<temp>0.00</temp>
<bpm>0</bpm>
<rpm>0.00</rpm>
</extensions>
</trkpt>
<trkpt lat="64.064994812" lon="-19.384033203">
<ele>516.437500</ele>
<time>2012-07-21T21:10:19Z</time>
<speed>1.290000</speed>
<extensions>
<speed>1.3</speed>
<temp>0.00</temp>
<bpm>0</bpm>
<rpm>0.00</rpm>
</extensions>
</trkpt>
<trkpt lat="64.065025330" lon="-19.383916855">
<ele>516.000000</ele>
<time>2012-07-21T21:10:24Z</time>
<speed>1.460000</speed>
<extensions>
<speed>1.5</speed>
<temp>0.00</temp>
<bpm>0</bpm>
<rpm>0.00</rpm>
</extensions>
</trkpt>
<trkpt lat="64.065055847" lon="-19.383800507">
<ele>515.796875</ele>
<time>2012-07-21T21:10:29Z</time>
<speed>1.050000</speed>
<extensions>
<speed>1.0</speed>
<temp>0.00</temp>
<bpm>0</bpm>
<rpm>0.00</rpm>
</extensions>
</trkpt>
<trkpt lat="64.065055847" lon="-19.383720398">
<ele>515.953125</ele>
<time>2012-07-21T21:10:34Z</time>
<speed>0.740000</speed>
<extensions>
<speed>0.7</speed>
<temp>0.00</temp>
<bpm>0</bpm>
<rpm>0.00</rpm>
</extensions>
</trkpt>
<trkpt lat="64.065078735" lon="-19.383634567">
<ele>516.656250</ele>
<time>2012-07-21T21:10:39Z</time>
<speed>1.220000</speed>
<extensions>
<speed>1.2</speed>
<temp>0.00</temp>
<bpm>0</bpm>
<rpm>0.00</rpm>
</extensions>
</trkpt>
<trkpt lat="64.065078735" lon="-19.383506775">
<ele>516.718750</ele>
<time>2012-07-21T21:10:44Z</time>
<speed>1.180000</speed>
<extensions>
<speed>1.2</speed>
<temp>0.00</temp>
<bpm>0</bpm>
<rpm>0.00</rpm>
</extensions>
</trkpt>
<trkpt lat="64.065093994" lon="-19.383373260">
<ele>517.796875</ele>
<time>2012-07-21T21:10:49Z</time>
<speed>0.890000</speed>
<extensions>
<speed>0.9</speed>
<temp>0.00</temp>
<bpm>0</bpm>
<rpm>0.00</rpm>
</extensions>
</trkpt>
<trkpt lat="64.065109253" lon="-19.383291245">
<ele>518.906250</ele>
<time>2012-07-21T21:10:54Z</time>
<speed>1.020000</speed>
<extensions>
<speed>1.0</speed>
<temp>0.00</temp>
<bpm>0</bpm>
<rpm>0.00</rpm>
</extensions>
</trkpt>
<trkpt lat="64.065116882" lon="-19.383234024">
<ele>518.703125</ele>
<time>2012-07-21T21:10:59Z</time>
<speed>0.010000</speed>
<extensions>
<speed>0.0</speed>
<temp>0.00</temp>
<bpm>0</bpm>
<rpm>0.00</rpm>
</extensions>
</trkpt>
<trkpt lat="64.065109253" lon="-19.383199692">
<ele>519.140625</ele>
<time>2012-07-21T21:11:04Z</time>
<speed>0.070000</speed>
<extensions>
<speed>0.1</speed>
<temp>0.00</temp>
<bpm>0</bpm>
<rpm>0.00</rpm>
</extensions>
</trkpt>
<trkpt lat="64.065109253" lon="-19.383161545">
<ele>519.453125</ele>
<time>2012-07-21T21:11:09Z</time>
<speed>1.130000</speed>
<extensions>
<speed>1.1</speed>
<temp>0.00</temp>
<bpm>0</bpm>
<rpm>0.00</rpm>
</extensions>
</trkpt>
<trkpt lat="64.065116882" lon="-19.383066177">
<ele>520.062500</ele>
<time>2012-07-21T21:11:14Z</time>
<speed>0.390000</speed>
<extensions>
<speed>0.4</speed>
<temp>0.00</temp>
<bpm>0</bpm>
<rpm>0.00</rpm>
</extensions>
</trkpt>
<trkpt lat="64.065132141" lon="-19.382980347">
<ele>520.609375</ele>
<time>2012-07-21T21:11:19Z</time>
<speed>1.060000</speed>
<extensions>
<speed>1.1</speed>
<temp>0.00</temp>
<bpm>0</bpm>
<rpm>0.00</rpm>
</extensions>
</trkpt>
<trkpt lat="64.065132141" lon="-19.382875443">
<ele>521.343750</ele>
<time>2012-07-21T21:11:24Z</time>
<speed>0.860000</speed>
<extensions>
<speed>0.9</speed>
<temp>0.00</temp>
<bpm>0</bpm>
<rpm>0.00</rpm>
</extensions>
</trkpt>
<trkpt lat="64.065139771" lon="-19.382801056">
<ele>521.859375</ele>
<time>2012-07-21T21:11:29Z</time>
<speed>0.200000</speed>
<extensions>
<speed>0.2</speed>
<temp>0.00</temp>
<bpm>0</bpm>
<rpm>0.00</rpm>
</extensions>
</trkpt>
<trkpt lat="64.065147400" lon="-19.382812500">
<ele>522.421875</ele>
<time>2012-07-21T21:11:34Z</time>
<speed>0.080000</speed>
<extensions>
<speed>0.1</speed>
<temp>0.00</temp>
<bpm>0</bpm>
<rpm>0.00</rpm>
</extensions>
</trkpt>
<trkpt lat="64.065147400" lon="-19.382812500">
<ele>522.390625</ele>
<time>2012-07-21T21:11:39Z</time>
<speed>0.100000</speed>
<extensions>
<speed>0.1</speed>
<temp>0.00</temp>
<bpm>0</bpm>
<rpm>0.00</rpm>
</extensions>
</trkpt>
<trkpt lat="64.065139771" lon="-19.382814407">
<ele>522.421875</ele>
<time>2012-07-21T21:11:44Z</time>
<speed>0.020000</speed>
<extensions>
<speed>0.0</speed>
<temp>0.00</temp>
<bpm>0</bpm>
<rpm>0.00</rpm>
</extensions>
</trkpt>
<trkpt lat="64.065139771" lon="-19.382816315">
<ele>522.421875</ele>
<time>2012-07-21T21:11:49Z</time>
<speed>0.100000</speed>
<extensions>
<speed>0.1</speed>
<temp>0.00</temp>
<bpm>0</bpm>
<rpm>0.00</rpm>
</extensions>
</trkpt>
<trkpt lat="64.065139771" lon="-19.382814407">
<ele>522.421875</ele>
<time>2012-07-21T21:11:54Z</time>
<speed>0.010000</speed>
<extensions>
<speed>0.0</speed>
<temp>0.00</temp>
<bpm>0</bpm>
<rpm>0.00</rpm>
</extensions>
</trkpt>
<trkpt lat="64.065139771" lon="-19.382781982">
<ele>522.890625</ele>
<time>2012-07-21T21:11:59Z</time>
<speed>0.570000</speed>
<extensions>
<speed>0.6</speed>
<temp>0.00</temp>
<bpm>0</bpm>
<rpm>0.00</rpm>
</extensions>
</trkpt>
<trkpt lat="64.065147400" lon="-19.382698059">
<ele>523.453125</ele>
<time>2012-07-21T21:12:04Z</time>
<speed>1.050000</speed>
<extensions>
<speed>1.0</speed>
<temp>0.00</temp>
<bpm>0</bpm>
<rpm>0.00</rpm>
</extensions>
</trkpt>
<trkpt lat="64.065155029" lon="-19.382574081">
<ele>523.937500</ele>
<time>2012-07-21T21:12:09Z</time>
<speed>1.210000</speed>
<extensions>
<speed>1.2</speed>
<temp>0.00</temp>
<bpm>0</bpm>
<rpm>0.00</rpm>
</extensions>
</trkpt>
<trkpt lat="64.065147400" lon="-19.382469177">
<ele>524.421875</ele>
<time>2012-07-21T21:12:14Z</time>
<speed>1.100000</speed>
<extensions>
<speed>1.1</speed>
<temp>0.00</temp>
<bpm>0</bpm>
<rpm>0.00</rpm>
</extensions>
</trkpt>
<trkpt lat="64.065155029" lon="-19.382349014">
<ele>524.046875</ele>
<time>2012-07-21T21:12:19Z</time>
<speed>1.200000</speed>
<extensions>
<speed>1.2</speed>
<temp>0.00</temp>
<bpm>0</bpm>
<rpm>0.00</rpm>
</extensions>
</trkpt>
<trkpt lat="64.065155029" lon="-19.382270813">
<ele>524.031250</ele>
<time>2012-07-21T21:12:24Z</time>
<speed>0.130000</speed>
<extensions>
<speed>0.1</speed>
<temp>0.00</temp>
<bpm>0</bpm>
<rpm>0.00</rpm>
</extensions>
</trkpt>
<trkpt lat="64.065155029" lon="-19.382268906">
<ele>523.984375</ele>
<time>2012-07-21T21:12:29Z</time>
<speed>0.010000</speed>
<extensions>
<speed>0.0</speed>
<temp>0.00</temp>
<bpm>0</bpm>
<rpm>0.00</rpm>
</extensions>
</trkpt>
<trkpt lat="64.065155029" lon="-19.382268906">
<ele>524.000000</ele>
<time>2012-07-21T21:12:34Z</time>
<speed>0.010000</speed>
<extensions>
<speed>0.0</speed>
<temp>0.00</temp>
<bpm>0</bpm>
<rpm>0.00</rpm>
</extensions>
</trkpt>
<trkpt lat="64.065155029" lon="-19.382268906">
<ele>523.984375</ele>
<time>2012-07-21T21:12:39Z</time>
<speed>0.020000</speed>
<extensions>
<speed>0.0</speed>
<temp>0.00</temp>
<bpm>0</bpm>
<rpm>0.00</rpm>
</extensions>
</trkpt>
<trkpt lat="64.065155029" lon="-19.382266998">
<ele>523.984375</ele>
<time>2012-07-21T21:12:44Z</time>
<extensions>
<speed>0.0</speed>
<temp>0.00</temp>
<bpm>0</bpm>
<rpm>0.00</rpm>
</extensions>
</trkpt>
<trkpt lat="64.065155029" lon="-19.382268906">
<ele>523.984375</ele>
<time>2012-07-21T21:12:49Z</time>
<speed>0.020000</speed>
<extensions>
<speed>0.0</speed>
<temp>0.00</temp>
<bpm>0</bpm>
<rpm>0.00</rpm>
</extensions>
</trkpt>
<trkpt lat="64.065155029" lon="-19.382268906">
<ele>523.984375</ele>
<time>2012-07-21T21:12:54Z</time>
<extensions>
<speed>0.0</speed>
<temp>0.00</temp>
<bpm>0</bpm>
<rpm>0.00</rpm>
</extensions>
</trkpt>
<trkpt lat="64.065155029" lon="-19.382268906">
<ele>523.984375</ele>
<time>2012-07-21T21:12:59Z</time>
<extensions>
<speed>0.0</speed>
<temp>0.00</temp>
<bpm>0</bpm>
<rpm>0.00</rpm>
</extensions>
</trkpt>
<trkpt lat="64.065155029" lon="-19.382266998">
<ele>523.984375</ele>
<time>2012-07-21T21:13:04Z</time>
<extensions>
<speed>0.0</speed>
<temp>0.00</temp>
<bpm>0</bpm>
<rpm>0.00</rpm>
</extensions>
</trkpt>
<trkpt lat="64.065155029" lon="-19.382266998">
<ele>523.984375</ele>
<time>2012-07-21T21:13:09Z</time>
<speed>0.010000</speed>
<extensions>
<speed>0.0</speed>
<temp>0.00</temp>
<bpm>0</bpm>
<rpm>0.00</rpm>
</extensions>
</trkpt>
<trkpt lat="64.065155029" lon="-19.382253647">
<ele>523.968750</ele>
<time>2012-07-21T21:13:14Z</time>
<speed>0.800000</speed>
<extensions>
<speed>0.8</speed>
<temp>0.00</temp>
<bpm>0</bpm>
<rpm>0.00</rpm>
</extensions>
</trkpt>
<trkpt lat="64.065147400" lon="-19.382131577">
<ele>524.546875</ele>
<time>2012-07-21T21:13:19Z</time>
<speed>1.220000</speed>
<extensions>
<speed>1.2</speed>
<temp>0.00</temp>
<bpm>0</bpm>
<rpm>0.00</rpm>
</extensions>
</trkpt>
<trkpt lat="64.065147400" lon="-19.382022858">
<ele>524.265625</ele>
<time>2012-07-21T21:13:24Z</time>
<speed>1.070000</speed>
<extensions>
<speed>1.1</speed>
<temp>0.00</temp>
<bpm>0</bpm>
<rpm>0.00</rpm>
</extensions>
</trkpt>
<trkpt lat="64.065139771" lon="-19.381910324">
<ele>524.296875</ele>
<time>2012-07-21T21:13:29Z</time>
<speed>1.160000</speed>
<extensions>
<speed>1.2</speed>
<temp>0.00</temp>
<bpm>0</bpm>
<rpm>0.00</rpm>
</extensions>
</trkpt>
<trkpt lat="64.065139771" lon="-19.381807327">
<ele>523.781250</ele>
<time>2012-07-21T21:13:34Z</time>
<speed>0.920000</speed>
<extensions>
<speed>0.9</speed>
<temp>0.00</temp>
<bpm>0</bpm>
<rpm>0.00</rpm>
</extensions>
</trkpt>
<trkpt lat="64.065139771" lon="-19.381710052">
<ele>523.296875</ele>
<time>2012-07-21T21:13:39Z</time>
<speed>0.840000</speed>
<extensions>
<speed>0.8</speed>
<temp>0.00</temp>
<bpm>0</bpm>
<rpm>0.00</rpm>
</extensions>
</trkpt>
<trkpt lat="64.065132141" lon="-19.381608963">
<ele>523.062500</ele>
<time>2012-07-21T21:13:44Z</time>
<speed>0.900000</speed>
<extensions>
<speed>0.9</speed>
<temp>0.00</temp>
<bpm>0</bpm>
<rpm>0.00</rpm>
</extensions>
</trkpt>
<trkpt lat="64.065116882" lon="-19.381515503">
<ele>523.078125</ele>
<time>2012-07-21T21:13:49Z</time>
<speed>0.850000</speed>
<extensions>
<speed>0.8</speed>
<temp>0.00</temp>
<bpm>0</bpm>
<rpm>0.00</rpm>
</extensions>
</trkpt>
<trkpt lat="64.065109253" lon="-19.381423950">
<ele>522.562500</ele>
<time>2012-07-21T21:13:54Z</time>
<speed>1.050000</speed>
<extensions>
<speed>1.0</speed>
<temp>0.00</temp>
<bpm>0</bpm>
<rpm>0.00</rpm>
</extensions>
</trkpt>
<trkpt lat="64.065093994" lon="-19.381332397">
<ele>521.984375</ele>
<time>2012-07-21T21:13:59Z</time>
<speed>1.090000</speed>
<extensions>
<speed>1.1</speed>
<temp>0.00</temp>
<bpm>0</bpm>
<rpm>0.00</rpm>
</extensions>
</trkpt>
<trkpt lat="64.065078735" lon="-19.381248474">
<ele>521.562500</ele>
<time>2012-07-21T21:14:04Z</time>
<speed>1.000000</speed>
<extensions>
<speed>1.0</speed>
<temp>0.00</temp>
<bpm>0</bpm>
<rpm>0.00</rpm>
</extensions>
</trkpt>
<trkpt lat="64.065048218" lon="-19.381172180">
<ele>520.484375</ele>
<time>2012-07-21T21:14:09Z</time>
<speed>0.880000</speed>
<extensions>
<speed>0.9</speed>
<temp>0.00</temp>
<bpm>0</bpm>
<rpm>0.00</rpm>
</extensions>
</trkpt>
<trkpt lat="64.065040588" lon="-19.381080627">
<ele>520.718750</ele>
<time>2012-07-21T21:14:14Z</time>
<speed>0.980000</speed>
<extensions>
<speed>1.0</speed>
<temp>0.00</temp>
<bpm>0</bpm>
<rpm>0.00</rpm>
</extensions>
</trkpt>
<trkpt lat="64.065010071" lon="-19.380981445">
<ele>520.234375</ele>
<time>2012-07-21T21:14:19Z</time>
<speed>0.630000</speed>
<extensions>
<speed>0.6</speed>
<temp>0.00</temp>
<bpm>0</bpm>
<rpm>0.00</rpm>
</extensions>
</trkpt>
<trkpt lat="64.065010071" lon="-19.380983353">
<ele>519.593750</ele>
<time>2012-07-21T21:14:24Z</time>
<speed>0.010000</speed>
<extensions>
<speed>0.0</speed>
<temp>0.00</temp>
<bpm>0</bpm>
<rpm>0.00</rpm>
</extensions>
</trkpt>
<trkpt lat="64.065010071" lon="-19.380966187">
<ele>519.406250</ele>
<time>2012-07-21T21:14:29Z</time>
<speed>1.120000</speed>
<extensions>
<speed>1.1</speed>
<temp>0.00</temp>
<bpm>0</bpm>
<rpm>0.00</rpm>
</extensions>
</trkpt>
<trkpt lat="64.064994812" lon="-19.380870819">
<ele>518.515625</ele>
<time>2012-07-21T21:14:34Z</time>
<speed>0.970000</speed>
<extensions>
<speed>1.0</speed>
<temp>0.00</temp>
<bpm>0</bpm>
<rpm>0.00</rpm>
</extensions>
</trkpt>
<trkpt lat="64.064987183" lon="-19.380809784">
<ele>518.765625</ele>
<time>2012-07-21T21:14:39Z</time>
<speed>0.450000</speed>
<extensions>
<speed>0.5</speed>
<temp>0.00</temp>
<bpm>0</bpm>
<rpm>0.00</rpm>
</extensions>
</trkpt>
<trkpt lat="64.064964294" lon="-19.380729675">
<ele>518.500000</ele>
<time>2012-07-21T21:14:44Z</time>
<speed>0.950000</speed>
<extensions>
<speed>1.0</speed>
<temp>0.00</temp>
<bpm>0</bpm>
<rpm>0.00</rpm>
</extensions>
</trkpt>
<trkpt lat="64.064949036" lon="-19.380664825">
<ele>517.890625</ele>
<time>2012-07-21T21:14:49Z</time>
<speed>1.210000</speed>
<extensions>
<speed>1.2</speed>
<temp>0.00</temp>
<bpm>0</bpm>
<rpm>0.00</rpm>
</extensions>
</trkpt>
<trkpt lat="64.064918518" lon="-19.380542755">
<ele>517.812500</ele>
<time>2012-07-21T21:14:54Z</time>
<speed>1.190000</speed>
<extensions>
<speed>1.2</speed>
<temp>0.00</temp>
<bpm>0</bpm>
<rpm>0.00</rpm>
</extensions>
</trkpt>
<trkpt lat="64.064880371" lon="-19.380443573">
<ele>517.546875</ele>
<time>2012-07-21T21:14:59Z</time>
<speed>1.370000</speed>
<extensions>
<speed>1.4</speed>
<temp>0.00</temp>
<bpm>0</bpm>
<rpm>0.00</rpm>
</extensions>
</trkpt>
<trkpt lat="64.064842224" lon="-19.380332947">
<ele>517.890625</ele>
<time>2012-07-21T21:15:04Z</time>
<speed>1.350000</speed>
<extensions>
<speed>1.4</speed>
<temp>0.00</temp>
<bpm>0</bpm>
<rpm>0.00</rpm>
</extensions>
</trkpt>
<trkpt lat="64.064796448" lon="-19.380222321">
<ele>518.359375</ele>
<time>2012-07-21T21:15:09Z</time>
<speed>1.310000</speed>
<extensions>
<speed>1.3</speed>
<temp>0.00</temp>
<bpm>0</bpm>
<rpm>0.00</rpm>
</extensions>
</trkpt>
<trkpt lat="64.064773560" lon="-19.380113602">
<ele>518.578125</ele>
<time>2012-07-21T21:15:14Z</time>
<speed>1.400000</speed>
<extensions>
<speed>1.4</speed>
<temp>0.00</temp>
<bpm>0</bpm>
<rpm>0.00</rpm>
</extensions>
</trkpt>
<trkpt lat="64.064727783" lon="-19.380012512">
<ele>519.265625</ele>
<time>2012-07-21T21:15:19Z</time>
<speed>1.220000</speed>
<extensions>
<speed>1.2</speed>
<temp>0.00</temp>
<bpm>0</bpm>
<rpm>0.00</rpm>
</extensions>
</trkpt>
<trkpt lat="64.064689636" lon="-19.379913330">
<ele>521.218750</ele>
<time>2012-07-21T21:15:24Z</time>
<speed>1.250000</speed>
<extensions>
<speed>1.3</speed>
<temp>0.00</temp>
<bpm>0</bpm>
<rpm>0.00</rpm>
</extensions>
</trkpt>
<trkpt lat="64.064651489" lon="-19.379808426">
<ele>521.671875</ele>
<time>2012-07-21T21:15:29Z</time>
<speed>1.240000</speed>
<extensions>
<speed>1.2</speed>
<temp>0.00</temp>
<bpm>0</bpm>
<rpm>0.00</rpm>
</extensions>
</trkpt>
<trkpt lat="64.064620972" lon="-19.379705429">
<ele>522.109375</ele>
<time>2012-07-21T21:15:34Z</time>
<speed>1.080000</speed>
<extensions>
<speed>1.1</speed>
<temp>0.00</temp>
<bpm>0</bpm>
<rpm>0.00</rpm>
</extensions>
</trkpt>
<trkpt lat="64.064590454" lon="-19.379621506">
<ele>522.984375</ele>
<time>2012-07-21T21:15:39Z</time>
<speed>1.180000</speed>
<extensions>
<speed>1.2</speed>
<temp>0.00</temp>
<bpm>0</bpm>
<rpm>0.00</rpm>
</extensions>
</trkpt>
<trkpt lat="64.064559937" lon="-19.379539490">
<ele>523.156250</ele>
<time>2012-07-21T21:15:44Z</time>
<speed>0.890000</speed>
<extensions>
<speed>0.9</speed>
<temp>0.00</temp>
<bpm>0</bpm>
<rpm>0.00</rpm>
</extensions>
</trkpt>
<trkpt lat="64.064552307" lon="-19.379507065">
<ele>523.328125</ele>
<time>2012-07-21T21:15:49Z</time>
<speed>0.010000</speed>
<extensions>
<speed>0.0</speed>
<temp>0.00</temp>
<bpm>0</bpm>
<rpm>0.00</rpm>
</extensions>
</trkpt>
<trkpt lat="64.064552307" lon="-19.379503250">
<ele>523.562500</ele>
<time>2012-07-21T21:15:54Z</time>
<speed>0.010000</speed>
<extensions>
<speed>0.0</speed>
<temp>0.00</temp>
<bpm>0</bpm>
<rpm>0.00</rpm>
</extensions>
</trkpt>
<trkpt lat="64.064552307" lon="-19.379503250">
<ele>523.609375</ele>
<time>2012-07-21T21:15:59Z</time>
<extensions>
<speed>0.0</speed>
<temp>0.00</temp>
<bpm>0</bpm>
<rpm>0.00</rpm>
</extensions>
</trkpt>
<trkpt lat="64.064552307" lon="-19.379499435">
<ele>523.625000</ele>
<time>2012-07-21T21:16:04Z</time>
<speed>0.660000</speed>
<extensions>
<speed>0.7</speed>
<temp>0.00</temp>
<bpm>0</bpm>
<rpm>0.00</rpm>
</extensions>
</trkpt>
<trkpt lat="64.064506531" lon="-19.379438400">
<ele>524.156250</ele>
<time>2012-07-21T21:16:09Z</time>
<speed>1.110000</speed>
<extensions>
<speed>1.1</speed>
<temp>0.00</temp>
<bpm>0</bpm>
<rpm>0.00</rpm>
</extensions>
</trkpt>
<trkpt lat="64.064498901" lon="-19.379381180">
<ele>524.484375</ele>
<time>2012-07-21T21:16:14Z</time>
<speed>0.010000</speed>
<extensions>
<speed>0.0</speed>
<temp>0.00</temp>
<bpm>0</bpm>
<rpm>0.00</rpm>
</extensions>
</trkpt>
<trkpt lat="64.064468384" lon="-19.379314423">
<ele>524.203125</ele>
<time>2012-07-21T21:16:19Z</time>
<speed>1.230000</speed>
<extensions>
<speed>1.2</speed>
<temp>0.00</temp>
<bpm>0</bpm>
<rpm>0.00</rpm>
</extensions>
</trkpt>
<trkpt lat="64.064430237" lon="-19.379222870">
<ele>523.796875</ele>
<time>2012-07-21T21:16:24Z</time>
<speed>1.260000</speed>
<extensions>
<speed>1.3</speed>
<temp>0.00</temp>
<bpm>0</bpm>
<rpm>0.00</rpm>
</extensions>
</trkpt>
<trkpt lat="64.064384460" lon="-19.379142761">
<ele>524.312500</ele>
<time>2012-07-21T21:16:29Z</time>
<speed>1.080000</speed>
<extensions>
<speed>1.1</speed>
<temp>0.00</temp>
<bpm>0</bpm>
<rpm>0.00</rpm>
</extensions>
</trkpt>
<trkpt lat="64.064353943" lon="-19.379070282">
<ele>523.859375</ele>
<time>2012-07-21T21:16:34Z</time>
<speed>1.080000</speed>
<extensions>
<speed>1.1</speed>
<temp>0.00</temp>
<bpm>0</bpm>
<rpm>0.00</rpm>
</extensions>
</trkpt>
<trkpt lat="64.064323425" lon="-19.378992081">
<ele>523.781250</ele>
<time>2012-07-21T21:16:39Z</time>
<speed>0.240000</speed>
<extensions>
<speed>0.2</speed>
<temp>0.00</temp>
<bpm>0</bpm>
<rpm>0.00</rpm>
</extensions>
</trkpt>
<trkpt lat="64.064315796" lon="-19.378986359">
<ele>524.046875</ele>
<time>2012-07-21T21:16:44Z</time>
<speed>0.010000</speed>
<extensions>
<speed>0.0</speed>
<temp>0.00</temp>
<bpm>0</bpm>
<rpm>0.00</rpm>
</extensions>
</trkpt>
<trkpt lat="64.064308167" lon="-19.378973007">
<ele>524.015625</ele>
<time>2012-07-21T21:16:49Z</time>
<speed>1.070000</speed>
<extensions>
<speed>1.1</speed>
<temp>0.00</temp>
<bpm>0</bpm>
<rpm>0.00</rpm>
</extensions>
</trkpt>
<trkpt lat="64.064285278" lon="-19.378898621">
<ele>523.734375</ele>
<time>2012-07-21T21:16:54Z</time>
<speed>0.740000</speed>
<extensions>
<speed>0.7</speed>
<temp>0.00</temp>
<bpm>0</bpm>
<rpm>0.00</rpm>
</extensions>
</trkpt>
<trkpt lat="64.064254761" lon="-19.378833771">
<ele>523.484375</ele>
<time>2012-07-21T21:16:59Z</time>
<speed>0.640000</speed>
<extensions>
<speed>0.6</speed>
<temp>0.00</temp>
<bpm>0</bpm>
<rpm>0.00</rpm>
</extensions>
</trkpt>
<trkpt lat="64.064231873" lon="-19.378784180">
<ele>523.062500</ele>
<time>2012-07-21T21:17:04Z</time>
<speed>0.790000</speed>
<extensions>
<speed>0.8</speed>
<temp>0.00</temp>
<bpm>0</bpm>
<rpm>0.00</rpm>
</extensions>
</trkpt>
<trkpt lat="64.064231873" lon="-19.378767014">
<ele>522.796875</ele>
<time>2012-07-21T21:17:09Z</time>
<speed>0.820000</speed>
<extensions>
<speed>0.8</speed>
<temp>0.00</temp>
<bpm>0</bpm>
<rpm>0.00</rpm>
</extensions>
</trkpt>
<trkpt lat="64.064216614" lon="-19.378755569">
<ele>523.562500</ele>
<time>2012-07-21T21:17:14Z</time>
<extensions>
<speed>0.0</speed>
<temp>0.00</temp>
<bpm>0</bpm>
<rpm>0.00</rpm>
</extensions>
</trkpt>
<trkpt lat="64.064216614" lon="-19.378753662">
<ele>524.031250</ele>
<time>2012-07-21T21:17:19Z</time>
<speed>0.030000</speed>
<extensions>
<speed>0.0</speed>
<temp>0.00</temp>
<bpm>0</bpm>
<rpm>0.00</rpm>
</extensions>
</trkpt>
<trkpt lat="64.064186096" lon="-19.378696442">
<ele>524.296875</ele>
<time>2012-07-21T21:17:24Z</time>
<speed>1.090000</speed>
<extensions>
<speed>1.1</speed>
<temp>0.00</temp>
<bpm>0</bpm>
<rpm>0.00</rpm>
</extensions>
</trkpt>
<trkpt lat="64.064140320" lon="-19.378618240">
<ele>524.593750</ele>
<time>2012-07-21T21:17:29Z</time>
<speed>1.200000</speed>
<extensions>
<speed>1.2</speed>
<temp>0.00</temp>
<bpm>0</bpm>
<rpm>0.00</rpm>
</extensions>
</trkpt>
<trkpt lat="64.064109802" lon="-19.378520966">
<ele>523.906250</ele>
<time>2012-07-21T21:17:34Z</time>
<speed>1.200000</speed>
<extensions>
<speed>1.2</speed>
<temp>0.00</temp>
<bpm>0</bpm>
<rpm>0.00</rpm>
</extensions>
</trkpt>
<trkpt lat="64.064071655" lon="-19.378435135">
<ele>523.265625</ele>
<time>2012-07-21T21:17:39Z</time>
<speed>1.380000</speed>
<extensions>
<speed>1.4</speed>
<temp>0.00</temp>
<bpm>0</bpm>
<rpm>0.00</rpm>
</extensions>
</trkpt>
<trkpt lat="64.064025879" lon="-19.378355026">
<ele>523.250000</ele>
<time>2012-07-21T21:17:44Z</time>
<speed>1.300000</speed>
<extensions>
<speed>1.3</speed>
<temp>0.00</temp>
<bpm>0</bpm>
<rpm>0.00</rpm>
</extensions>
</trkpt>
<trkpt lat="64.063980103" lon="-19.378267288">
<ele>523.453125</ele>
<time>2012-07-21T21:17:49Z</time>
<speed>1.320000</speed>
<extensions>
<speed>1.3</speed>
<temp>0.00</temp>
<bpm>0</bpm>
<rpm>0.00</rpm>
</extensions>
</trkpt>
<trkpt lat="64.063949585" lon="-19.378183365">
<ele>524.000000</ele>
<time>2012-07-21T21:17:54Z</time>
<speed>1.050000</speed>
<extensions>
<speed>1.0</speed>
<temp>0.00</temp>
<bpm>0</bpm>
<rpm>0.00</rpm>
</extensions>
</trkpt>
<trkpt lat="64.063903809" lon="-19.378108978">
<ele>525.078125</ele>
<time>2012-07-21T21:17:59Z</time>
<speed>0.830000</speed>
<extensions>
<speed>0.8</speed>
<temp>0.00</temp>
<bpm>0</bpm>
<rpm>0.00</rpm>
</extensions>
</trkpt>
<trkpt lat="64.063858032" lon="-19.378042221">
<ele>525.765625</ele>
<time>2012-07-21T21:18:04Z</time>
<speed>1.070000</speed>
<extensions>
<speed>1.1</speed>
<temp>0.00</temp>
<bpm>0</bpm>
<rpm>0.00</rpm>
</extensions>
</trkpt>
<trkpt lat="64.063812256" lon="-19.377981186">
<ele>525.984375</ele>
<time>2012-07-21T21:18:09Z</time>
<speed>1.410000</speed>
<extensions>
<speed>1.4</speed>
<temp>0.00</temp>
<bpm>0</bpm>
<rpm>0.00</rpm>
</extensions>
</trkpt>
<trkpt lat="64.063758850" lon="-19.377904892">
<ele>527.000000</ele>
<time>2012-07-21T21:18:14Z</time>
<speed>1.050000</speed>
<extensions>
<speed>1.0</speed>
<temp>0.00</temp>
<bpm>0</bpm>
<rpm>0.00</rpm>
</extensions>
</trkpt>
<trkpt lat="64.063728333" lon="-19.377832413">
<ele>527.203125</ele>
<time>2012-07-21T21:18:19Z</time>
<speed>0.940000</speed>
<extensions>
<speed>0.9</speed>
<temp>0.00</temp>
<bpm>0</bpm>
<rpm>0.00</rpm>
</extensions>
</trkpt>
<trkpt lat="64.063690186" lon="-19.377799988">
<ele>527.515625</ele>
<time>2012-07-21T21:18:24Z</time>
<speed>1.070000</speed>
<extensions>
<speed>1.1</speed>
<temp>0.00</temp>
<bpm>0</bpm>
<rpm>0.00</rpm>
</extensions>
</trkpt>
<trkpt lat="64.063644409" lon="-19.377731323">
<ele>528.343750</ele>
<time>2012-07-21T21:18:29Z</time>
<speed>1.150000</speed>
<extensions>
<speed>1.1</speed>
<temp>0.00</temp>
<bpm>0</bpm>
<rpm>0.00</rpm>
</extensions>
</trkpt>
<trkpt lat="64.063606262" lon="-19.377658844">
<ele>528.906250</ele>
<time>2012-07-21T21:18:34Z</time>
<speed>1.180000</speed>
<extensions>
<speed>1.2</speed>
<temp>0.00</temp>
<bpm>0</bpm>
<rpm>0.00</rpm>
</extensions>
</trkpt>
<trkpt lat="64.063568115" lon="-19.377590179">
<ele>529.609375</ele>
<time>2012-07-21T21:18:39Z</time>
<speed>1.170000</speed>
<extensions>
<speed>1.2</speed>
<temp>0.00</temp>
<bpm>0</bpm>
<rpm>0.00</rpm>
</extensions>
</trkpt>
<trkpt lat="64.063522339" lon="-19.377540588">
<ele>530.250000</ele>
<time>2012-07-21T21:18:44Z</time>
<speed>0.760000</speed>
<extensions>
<speed>0.8</speed>
<temp>0.00</temp>
<bpm>0</bpm>
<rpm>0.00</rpm>
</extensions>
</trkpt>
<trkpt lat="64.063476563" lon="-19.377487183">
<ele>530.593750</ele>
<time>2012-07-21T21:18:49Z</time>
<speed>0.940000</speed>
<extensions>
<speed>0.9</speed>
<temp>0.00</temp>
<bpm>0</bpm>
<rpm>0.00</rpm>
</extensions>
</trkpt>
<trkpt lat="64.063446045" lon="-19.377426147">
<ele>529.875000</ele>
<time>2012-07-21T21:18:54Z</time>
<speed>1.090000</speed>
<extensions>
<speed>1.1</speed>
<temp>0.00</temp>
<bpm>0</bpm>
<rpm>0.00</rpm>
</extensions>
</trkpt>
<trkpt lat="64.063407898" lon="-19.377401352">
<ele>531.000000</ele>
<time>2012-07-21T21:18:59Z</time>
<speed>1.130000</speed>
<extensions>
<speed>1.1</speed>
<temp>0.00</temp>
<bpm>0</bpm>
<rpm>0.00</rpm>
</extensions>
</trkpt>
<trkpt lat="64.063385010" lon="-19.377376556">
<ele>531.546875</ele>
<time>2012-07-21T21:19:04Z</time>
<speed>0.740000</speed>
<extensions>
<speed>0.7</speed>
<temp>0.00</temp>
<bpm>0</bpm>
<rpm>0.00</rpm>
</extensions>
</trkpt>
<trkpt lat="64.063339233" lon="-19.377317429">
<ele>531.765625</ele>
<time>2012-07-21T21:19:09Z</time>
<speed>1.060000</speed>
<extensions>
<speed>1.1</speed>
<temp>0.00</temp>
<bpm>0</bpm>
<rpm>0.00</rpm>
</extensions>
</trkpt>
<trkpt lat="64.063323975" lon="-19.377300262">
<ele>532.093750</ele>
<time>2012-07-21T21:19:14Z</time>
<speed>0.130000</speed>
<extensions>
<speed>0.1</speed>
<temp>0.00</temp>
<bpm>0</bpm>
<rpm>0.00</rpm>
</extensions>
</trkpt>
<trkpt lat="64.063301086" lon="-19.377281189">
<ele>532.359375</ele>
<time>2012-07-21T21:19:19Z</time>
<speed>1.050000</speed>
<extensions>
<speed>1.0</speed>
<temp>0.00</temp>
<bpm>0</bpm>
<rpm>0.00</rpm>
</extensions>
</trkpt>
<trkpt lat="64.063247681" lon="-19.377229691">
<ele>532.375000</ele>
<time>2012-07-21T21:19:24Z</time>
<speed>1.170000</speed>
<extensions>
<speed>1.2</speed>
<temp>0.00</temp>
<bpm>0</bpm>
<rpm>0.00</rpm>
</extensions>
</trkpt>
<trkpt lat="64.063209534" lon="-19.377183914">
<ele>532.140625</ele>
<time>2012-07-21T21:19:29Z</time>
<speed>1.110000</speed>
<extensions>
<speed>1.1</speed>
<temp>0.00</temp>
<bpm>0</bpm>
<rpm>0.00</rpm>
</extensions>
</trkpt>
<trkpt lat="64.063156128" lon="-19.377132416">
<ele>532.703125</ele>
<time>2012-07-21T21:19:34Z</time>
<speed>1.150000</speed>
<extensions>
<speed>1.1</speed>
<temp>0.00</temp>
<bpm>0</bpm>
<rpm>0.00</rpm>
</extensions>
</trkpt>
<trkpt lat="64.063125610" lon="-19.377073288">
<ele>532.796875</ele>
<time>2012-07-21T21:19:39Z</time>
<speed>1.050000</speed>
<extensions>
<speed>1.0</speed>
<temp>0.00</temp>
<bpm>0</bpm>
<rpm>0.00</rpm>
</extensions>
</trkpt>
<trkpt lat="64.063079834" lon="-19.377035141">
<ele>532.812500</ele>
<time>2012-07-21T21:19:44Z</time>
<speed>1.050000</speed>
<extensions>
<speed>1.0</speed>
<temp>0.00</temp>
<bpm>0</bpm>
<rpm>0.00</rpm>
</extensions>
</trkpt>
<trkpt lat="64.063049316" lon="-19.377004623">
<ele>532.421875</ele>
<time>2012-07-21T21:19:49Z</time>
<speed>0.670000</speed>
<extensions>
<speed>0.7</speed>
<temp>0.00</temp>
<bpm>0</bpm>
<rpm>0.00</rpm>
</extensions>
</trkpt>
<trkpt lat="64.063018799" lon="-19.376949310">
<ele>532.765625</ele>
<time>2012-07-21T21:19:54Z</time>
<speed>0.730000</speed>
<extensions>
<speed>0.7</speed>
<temp>0.00</temp>
<bpm>0</bpm>
<rpm>0.00</rpm>
</extensions>
</trkpt>
<trkpt lat="64.062973022" lon="-19.376892090">
<ele>533.046875</ele>
<time>2012-07-21T21:19:59Z</time>
<speed>1.100000</speed>
<extensions>
<speed>1.1</speed>
<temp>0.00</temp>
<bpm>0</bpm>
<rpm>0.00</rpm>
</extensions>
</trkpt>
<trkpt lat="64.062927246" lon="-19.376827240">
<ele>533.953125</ele>
<time>2012-07-21T21:20:04Z</time>
<speed>1.320000</speed>
<extensions>
<speed>1.3</speed>
<temp>0.00</temp>
<bpm>0</bpm>
<rpm>0.00</rpm>
</extensions>
</trkpt>
<trkpt lat="64.062873840" lon="-19.376752853">
<ele>534.140625</ele>
<time>2012-07-21T21:20:09Z</time>
<speed>1.360000</speed>
<extensions>
<speed>1.4</speed>
<temp>0.00</temp>
<bpm>0</bpm>
<rpm>0.00</rpm>
</extensions>
</trkpt>
<trkpt lat="64.062820435" lon="-19.376689911">
<ele>534.484375</ele>
<time>2012-07-21T21:20:14Z</time>
<speed>1.430000</speed>
<extensions>
<speed>1.4</speed>
<temp>0.00</temp>
<bpm>0</bpm>
<rpm>0.00</rpm>
</extensions>
</trkpt>
<trkpt lat="64.062782288" lon="-19.376647949">
<ele>534.609375</ele>
<time>2012-07-21T21:20:19Z</time>
<speed>0.830000</speed>
<extensions>
<speed>0.8</speed>
<temp>0.00</temp>
<bpm>0</bpm>
<rpm>0.00</rpm>
</extensions>
</trkpt>
<trkpt lat="64.062744141" lon="-19.376585007">
<ele>535.312500</ele>
<time>2012-07-21T21:20:24Z</time>
<speed>0.960000</speed>
<extensions>
<speed>1.0</speed>
<temp>0.00</temp>
<bpm>0</bpm>
<rpm>0.00</rpm>
</extensions>
</trkpt>
<trkpt lat="64.062698364" lon="-19.376543045">
<ele>535.687500</ele>
<time>2012-07-21T21:20:29Z</time>
<speed>1.040000</speed>
<extensions>
<speed>1.0</speed>
<temp>0.00</temp>
<bpm>0</bpm>
<rpm>0.00</rpm>
</extensions>
</trkpt>
<trkpt lat="64.062652588" lon="-19.376502991">
<ele>535.390625</ele>
<time>2012-07-21T21:20:34Z</time>
<speed>0.880000</speed>
<extensions>
<speed>0.9</speed>
<temp>0.00</temp>
<bpm>0</bpm>
<rpm>0.00</rpm>
</extensions>
</trkpt>
<trkpt lat="64.062606812" lon="-19.376445770">
<ele>535.609375</ele>
<time>2012-07-21T21:20:39Z</time>
<speed>1.110000</speed>
<extensions>
<speed>1.1</speed>
<temp>0.00</temp>
<bpm>0</bpm>
<rpm>0.00</rpm>
</extensions>
</trkpt>
<trkpt lat="64.062561035" lon="-19.376403809">
<ele>534.906250</ele>
<time>2012-07-21T21:20:44Z</time>
<speed>0.830000</speed>
<extensions>
<speed>0.8</speed>
<temp>0.00</temp>
<bpm>0</bpm>
<rpm>0.00</rpm>
</extensions>
</trkpt>
<trkpt lat="64.062515259" lon="-19.376379013">
<ele>533.796875</ele>
<time>2012-07-21T21:20:49Z</time>
<speed>0.940000</speed>
<extensions>
<speed>0.9</speed>
<temp>0.00</temp>
<bpm>0</bpm>
<rpm>0.00</rpm>
</extensions>
</trkpt>
<trkpt lat="64.062515259" lon="-19.376361847">
<ele>533.281250</ele>
<time>2012-07-21T21:20:54Z</time>
<speed>0.110000</speed>
<extensions>
<speed>0.1</speed>
<temp>0.00</temp>
<bpm>0</bpm>
<rpm>0.00</rpm>
</extensions>
</trkpt>
<trkpt lat="64.062515259" lon="-19.376363754">
<ele>533.250000</ele>
<time>2012-07-21T21:20:59Z</time>
<speed>0.990000</speed>
<extensions>
<speed>1.0</speed>
<temp>0.00</temp>
<bpm>0</bpm>
<rpm>0.00</rpm>
</extensions>
</trkpt>
<trkpt lat="64.062469482" lon="-19.376321793">
<ele>533.281250</ele>
<time>2012-07-21T21:21:04Z</time>
<speed>1.120000</speed>
<extensions>
<speed>1.1</speed>
<temp>0.00</temp>
<bpm>0</bpm>
<rpm>0.00</rpm>
</extensions>
</trkpt>
<trkpt lat="64.062416077" lon="-19.376268387">
<ele>533.265625</ele>
<time>2012-07-21T21:21:09Z</time>
<speed>1.310000</speed>
<extensions>
<speed>1.3</speed>
<temp>0.00</temp>
<bpm>0</bpm>
<rpm>0.00</rpm>
</extensions>
</trkpt>
<trkpt lat="64.062370300" lon="-19.376205444">
<ele>533.953125</ele>
<time>2012-07-21T21:21:14Z</time>
<speed>1.050000</speed>
<extensions>
<speed>1.0</speed>
<temp>0.00</temp>
<bpm>0</bpm>
<rpm>0.00</rpm>
</extensions>
</trkpt>
<trkpt lat="64.062316895" lon="-19.376138687">
<ele>534.109375</ele>
<time>2012-07-21T21:21:19Z</time>
<speed>1.250000</speed>
<extensions>
<speed>1.3</speed>
<temp>0.00</temp>
<bpm>0</bpm>
<rpm>0.00</rpm>
</extensions>
</trkpt>
<trkpt lat="64.062271118" lon="-19.376091003">
<ele>534.015625</ele>
<time>2012-07-21T21:21:24Z</time>
<speed>1.110000</speed>
<extensions>
<speed>1.1</speed>
<temp>0.00</temp>
<bpm>0</bpm>
<rpm>0.00</rpm>
</extensions>
</trkpt>
<trkpt lat="64.062217712" lon="-19.376041412">
<ele>533.515625</ele>
<time>2012-07-21T21:21:29Z</time>
<speed>1.080000</speed>
<extensions>
<speed>1.1</speed>
<temp>0.00</temp>
<bpm>0</bpm>
<rpm>0.00</rpm>
</extensions>
</trkpt>
<trkpt lat="64.062179565" lon="-19.376003265">
<ele>533.671875</ele>
<time>2012-07-21T21:21:34Z</time>
<speed>1.410000</speed>
<extensions>
<speed>1.4</speed>
<temp>0.00</temp>
<bpm>0</bpm>
<rpm>0.00</rpm>
</extensions>
</trkpt>
<trkpt lat="64.062141418" lon="-19.375961304">
<ele>533.578125</ele>
<time>2012-07-21T21:21:39Z</time>
<speed>0.110000</speed>
<extensions>
<speed>0.1</speed>
<temp>0.00</temp>
<bpm>0</bpm>
<rpm>0.00</rpm>
</extensions>
</trkpt>
<trkpt lat="64.062133789" lon="-19.375953674">
<ele>533.531250</ele>
<time>2012-07-21T21:21:44Z</time>
<speed>0.910000</speed>
<extensions>
<speed>0.9</speed>
<temp>0.00</temp>
<bpm>0</bpm>
<rpm>0.00</rpm>
</extensions>
</trkpt>
<trkpt lat="64.062080383" lon="-19.375923157">
<ele>533.875000</ele>
<time>2012-07-21T21:21:49Z</time>
<speed>1.000000</speed>
<extensions>
<speed>1.0</speed>
<temp>0.00</temp>
<bpm>0</bpm>
<rpm>0.00</rpm>
</extensions>
</trkpt>
<trkpt lat="64.062034607" lon="-19.375879288">
<ele>533.937500</ele>
<time>2012-07-21T21:21:54Z</time>
<speed>0.970000</speed>
<extensions>
<speed>1.0</speed>
<temp>0.00</temp>
<bpm>0</bpm>
<rpm>0.00</rpm>
</extensions>
</trkpt>
<trkpt lat="64.061996460" lon="-19.375816345">
<ele>533.703125</ele>
<time>2012-07-21T21:21:59Z</time>
<speed>0.040000</speed>
<extensions>
<speed>0.0</speed>
<temp>0.00</temp>
<bpm>0</bpm>
<rpm>0.00</rpm>
</extensions>
</trkpt>
<trkpt lat="64.062011719" lon="-19.375802994">
<ele>533.218750</ele>
<time>2012-07-21T21:22:04Z</time>
<speed>0.010000</speed>
<extensions>
<speed>0.0</speed>
<temp>0.00</temp>
<bpm>0</bpm>
<rpm>0.00</rpm>
</extensions>
</trkpt>
<trkpt lat="64.062004089" lon="-19.375799179">
<ele>533.703125</ele>
<time>2012-07-21T21:22:09Z</time>
<speed>0.020000</speed>
<extensions>
<speed>0.0</speed>
<temp>0.00</temp>
<bpm>0</bpm>
<rpm>0.00</rpm>
</extensions>
</trkpt>
<trkpt lat="64.062004089" lon="-19.375799179">
<ele>533.718750</ele>
<time>2012-07-21T21:22:14Z</time>
<extensions>
<speed>0.0</speed>
<temp>0.00</temp>
<bpm>0</bpm>
<rpm>0.00</rpm>
</extensions>
</trkpt>
<trkpt lat="64.062004089" lon="-19.375801086">
<ele>533.750000</ele>
<time>2012-07-21T21:22:19Z</time>
<extensions>
<speed>0.0</speed>
<temp>0.00</temp>
<bpm>0</bpm>
<rpm>0.00</rpm>
</extensions>
</trkpt>
<trkpt lat="64.062004089" lon="-19.375799179">
<ele>533.765625</ele>
<time>2012-07-21T21:22:24Z</time>
<speed>0.020000</speed>
<extensions>
<speed>0.0</speed>
<temp>0.00</temp>
<bpm>0</bpm>
<rpm>0.00</rpm>
</extensions>
</trkpt>
<trkpt lat="64.062004089" lon="-19.375799179">
<ele>533.765625</ele>
<time>2012-07-21T21:22:29Z</time>
<extensions>
<speed>0.0</speed>
<temp>0.00</temp>
<bpm>0</bpm>
<rpm>0.00</rpm>
</extensions>
</trkpt>
<trkpt lat="64.062004089" lon="-19.375797272">
<ele>533.750000</ele>
<time>2012-07-21T21:22:34Z</time>
<speed>0.580000</speed>
<extensions>
<speed>0.6</speed>
<temp>0.00</temp>
<bpm>0</bpm>
<rpm>0.00</rpm>
</extensions>
</trkpt>
<trkpt lat="64.061958313" lon="-19.375749588">
<ele>533.921875</ele>
<time>2012-07-21T21:22:39Z</time>
<speed>1.080000</speed>
<extensions>
<speed>1.1</speed>
<temp>0.00</temp>
<bpm>0</bpm>
<rpm>0.00</rpm>
</extensions>
</trkpt>
<trkpt lat="64.061958313" lon="-19.375747681">
<ele>534.031250</ele>
<time>2012-07-21T21:22:44Z</time>
<speed>0.010000</speed>
<extensions>
<speed>0.0</speed>
<temp>0.00</temp>
<bpm>0</bpm>
<rpm>0.00</rpm>
</extensions>
</trkpt>
<trkpt lat="64.061965942" lon="-19.375751495">
<ele>534.250000</ele>
<time>2012-07-21T21:22:49Z</time>
<speed>0.350000</speed>
<extensions>
<speed>0.3</speed>
<temp>0.00</temp>
<bpm>0</bpm>
<rpm>0.00</rpm>
</extensions>
</trkpt>
<trkpt lat="64.061912537" lon="-19.375720978">
<ele>534.437500</ele>
<time>2012-07-21T21:22:54Z</time>
<speed>1.350000</speed>
<extensions>
<speed>1.4</speed>
<temp>0.00</temp>
<bpm>0</bpm>
<rpm>0.00</rpm>
</extensions>
</trkpt>
<trkpt lat="64.061874390" lon="-19.375669479">
<ele>534.734375</ele>
<time>2012-07-21T21:22:59Z</time>
<speed>0.740000</speed>
<extensions>
<speed>0.7</speed>
<temp>0.00</temp>
<bpm>0</bpm>
<rpm>0.00</rpm>
</extensions>
</trkpt>
<trkpt lat="64.061828613" lon="-19.375602722">
<ele>533.468750</ele>
<time>2012-07-21T21:23:04Z</time>
<speed>1.170000</speed>
<extensions>
<speed>1.2</speed>
<temp>0.00</temp>
<bpm>0</bpm>
<rpm>0.00</rpm>
</extensions>
</trkpt>
<trkpt lat="64.061790466" lon="-19.375553131">
<ele>533.453125</ele>
<time>2012-07-21T21:23:09Z</time>
<speed>0.960000</speed>
<extensions>
<speed>1.0</speed>
<temp>0.00</temp>
<bpm>0</bpm>
<rpm>0.00</rpm>
</extensions>
</trkpt>
<trkpt lat="64.061752319" lon="-19.375530243">
<ele>533.390625</ele>
<time>2012-07-21T21:23:14Z</time>
<speed>0.870000</speed>
<extensions>
<speed>0.9</speed>
<temp>0.00</temp>
<bpm>0</bpm>
<rpm>0.00</rpm>
</extensions>
</trkpt>
<trkpt lat="64.061714172" lon="-19.375494003">
<ele>533.265625</ele>
<time>2012-07-21T21:23:19Z</time>
<speed>1.030000</speed>
<extensions>
<speed>1.0</speed>
<temp>0.00</temp>
<bpm>0</bpm>
<rpm>0.00</rpm>
</extensions>
</trkpt>
<trkpt lat="64.061676025" lon="-19.375453949">
<ele>534.015625</ele>
<time>2012-07-21T21:23:24Z</time>
<speed>1.190000</speed>
<extensions>
<speed>1.2</speed>
<temp>0.00</temp>
<bpm>0</bpm>
<rpm>0.00</rpm>
</extensions>
</trkpt>
<trkpt lat="64.061630249" lon="-19.375392914">
<ele>534.687500</ele>
<time>2012-07-21T21:23:29Z</time>
<speed>1.170000</speed>
<extensions>
<speed>1.2</speed>
<temp>0.00</temp>
<bpm>0</bpm>
<rpm>0.00</rpm>
</extensions>
</trkpt>
<trkpt lat="64.061576843" lon="-19.375299454">
<ele>534.687500</ele>
<time>2012-07-21T21:23:34Z</time>
<speed>1.270000</speed>
<extensions>
<speed>1.3</speed>
<temp>0.00</temp>
<bpm>0</bpm>
<rpm>0.00</rpm>
</extensions>
</trkpt>
<trkpt lat="64.061523438" lon="-19.375238419">
<ele>534.921875</ele>
<time>2012-07-21T21:23:39Z</time>
<speed>1.270000</speed>
<extensions>
<speed>1.3</speed>
<temp>0.00</temp>
<bpm>0</bpm>
<rpm>0.00</rpm>
</extensions>
</trkpt>
<trkpt lat="64.061485291" lon="-19.375192642">
<ele>535.312500</ele>
<time>2012-07-21T21:23:44Z</time>
<speed>0.650000</speed>
<extensions>
<speed>0.6</speed>
<temp>0.00</temp>
<bpm>0</bpm>
<rpm>0.00</rpm>
</extensions>
</trkpt>
<trkpt lat="64.061439514" lon="-19.375148773">
<ele>536.078125</ele>
<time>2012-07-21T21:23:49Z</time>
<speed>1.000000</speed>
<extensions>
<speed>1.0</speed>
<temp>0.00</temp>
<bpm>0</bpm>
<rpm>0.00</rpm>
</extensions>
</trkpt>
<trkpt lat="64.061431885" lon="-19.375125885">
<ele>535.703125</ele>
<time>2012-07-21T21:23:54Z</time>
<speed>0.190000</speed>
<extensions>
<speed>0.2</speed>
<temp>0.00</temp>
<bpm>0</bpm>
<rpm>0.00</rpm>
</extensions>
</trkpt>
<trkpt lat="64.061424255" lon="-19.375131607">
<ele>536.000000</ele>
<time>2012-07-21T21:23:59Z</time>
<extensions>
<speed>0.0</speed>
<temp>0.00</temp>
<bpm>0</bpm>
<rpm>0.00</rpm>
</extensions>
</trkpt>
<trkpt lat="64.061424255" lon="-19.375131607">
<ele>535.984375</ele>
<time>2012-07-21T21:24:04Z</time>
<extensions>
<speed>0.0</speed>
<temp>0.00</temp>
<bpm>0</bpm>
<rpm>0.00</rpm>
</extensions>
</trkpt>
<trkpt lat="64.061424255" lon="-19.375131607">
<ele>535.968750</ele>
<time>2012-07-21T21:24:09Z</time>
<speed>0.010000</speed>
<extensions>
<speed>0.0</speed>
<temp>0.00</temp>
<bpm>0</bpm>
<rpm>0.00</rpm>
</extensions>
</trkpt>
<trkpt lat="64.061424255" lon="-19.375131607">
<ele>535.953125</ele>
<time>2012-07-21T21:24:14Z</time>
<speed>0.020000</speed>
<extensions>
<speed>0.0</speed>
<temp>0.00</temp>
<bpm>0</bpm>
<rpm>0.00</rpm>
</extensions>
</trkpt>
<trkpt lat="64.061408997" lon="-19.375122070">
<ele>535.875000</ele>
<time>2012-07-21T21:24:19Z</time>
<speed>1.030000</speed>
<extensions>
<speed>1.0</speed>
<temp>0.00</temp>
<bpm>0</bpm>
<rpm>0.00</rpm>
</extensions>
</trkpt>
<trkpt lat="64.061370850" lon="-19.375061035">
<ele>535.531250</ele>
<time>2012-07-21T21:24:24Z</time>
<speed>1.140000</speed>
<extensions>
<speed>1.1</speed>
<temp>0.00</temp>
<bpm>0</bpm>
<rpm>0.00</rpm>
</extensions>
</trkpt>
<trkpt lat="64.061325073" lon="-19.374967575">
<ele>534.390625</ele>
<time>2012-07-21T21:24:29Z</time>
<speed>1.110000</speed>
<extensions>
<speed>1.1</speed>
<temp>0.00</temp>
<bpm>0</bpm>
<rpm>0.00</rpm>
</extensions>
</trkpt>
<trkpt lat="64.061286926" lon="-19.374904633">
<ele>534.234375</ele>
<time>2012-07-21T21:24:34Z</time>
<speed>1.100000</speed>
<extensions>
<speed>1.1</speed>
<temp>0.00</temp>
<bpm>0</bpm>
<rpm>0.00</rpm>
</extensions>
</trkpt>
<trkpt lat="64.061264038" lon="-19.374902725">
<ele>533.765625</ele>
<time>2012-07-21T21:24:39Z</time>
<speed>0.020000</speed>
<extensions>
<speed>0.0</speed>
<temp>0.00</temp>
<bpm>0</bpm>
<rpm>0.00</rpm>
</extensions>
</trkpt>
<trkpt lat="64.061264038" lon="-19.374904633">
<ele>533.750000</ele>
<time>2012-07-21T21:24:44Z</time>
<speed>0.010000</speed>
<extensions>
<speed>0.0</speed>
<temp>0.00</temp>
<bpm>0</bpm>
<rpm>0.00</rpm>
</extensions>
</trkpt>
<trkpt lat="64.061264038" lon="-19.374904633">
<ele>533.765625</ele>
<time>2012-07-21T21:24:49Z</time>
<speed>0.070000</speed>
<extensions>
<speed>0.1</speed>
<temp>0.00</temp>
<bpm>0</bpm>
<rpm>0.00</rpm>
</extensions>
</trkpt>
<trkpt lat="64.061233521" lon="-19.374835968">
<ele>533.359375</ele>
<time>2012-07-21T21:24:54Z</time>
<speed>1.100000</speed>
<extensions>
<speed>1.1</speed>
<temp>0.00</temp>
<bpm>0</bpm>
<rpm>0.00</rpm>
</extensions>
</trkpt>
<trkpt lat="64.061203003" lon="-19.374773026">
<ele>532.687500</ele>
<time>2012-07-21T21:24:59Z</time>
<speed>1.000000</speed>
<extensions>
<speed>1.0</speed>
<temp>0.00</temp>
<bpm>0</bpm>
<rpm>0.00</rpm>
</extensions>
</trkpt>
<trkpt lat="64.061157227" lon="-19.374711990">
<ele>532.531250</ele>
<time>2012-07-21T21:25:04Z</time>
<speed>0.990000</speed>
<extensions>
<speed>1.0</speed>
<temp>0.00</temp>
<bpm>0</bpm>
<rpm>0.00</rpm>
</extensions>
</trkpt>
<trkpt lat="64.061119080" lon="-19.374626160">
<ele>532.640625</ele>
<time>2012-07-21T21:25:09Z</time>
<speed>1.120000</speed>
<extensions>
<speed>1.1</speed>
<temp>0.00</temp>
<bpm>0</bpm>
<rpm>0.00</rpm>
</extensions>
</trkpt>
<trkpt lat="64.061088562" lon="-19.374542236">
<ele>532.140625</ele>
<time>2012-07-21T21:25:14Z</time>
<speed>1.180000</speed>
<extensions>
<speed>1.2</speed>
<temp>0.00</temp>
<bpm>0</bpm>
<rpm>0.00</rpm>
</extensions>
</trkpt>
<trkpt lat="64.061050415" lon="-19.374481201">
<ele>532.484375</ele>
<time>2012-07-21T21:25:19Z</time>
<speed>1.270000</speed>
<extensions>
<speed>1.3</speed>
<temp>0.00</temp>
<bpm>0</bpm>
<rpm>0.00</rpm>
</extensions>
</trkpt>
<trkpt lat="64.061012268" lon="-19.374395370">
<ele>532.359375</ele>
<time>2012-07-21T21:25:24Z</time>
<speed>1.360000</speed>
<extensions>
<speed>1.4</speed>
<temp>0.00</temp>
<bpm>0</bpm>
<rpm>0.00</rpm>
</extensions>
</trkpt>
<trkpt lat="64.060966492" lon="-19.374326706">
<ele>532.562500</ele>
<time>2012-07-21T21:25:29Z</time>
<speed>1.160000</speed>
<extensions>
<speed>1.2</speed>
<temp>0.00</temp>
<bpm>0</bpm>
<rpm>0.00</rpm>
</extensions>
</trkpt>
<trkpt lat="64.060920715" lon="-19.374250412">
<ele>532.718750</ele>
<time>2012-07-21T21:25:34Z</time>
<speed>1.390000</speed>
<extensions>
<speed>1.4</speed>
<temp>0.00</temp>
<bpm>0</bpm>
<rpm>0.00</rpm>
</extensions>
</trkpt>
<trkpt lat="64.060897827" lon="-19.374177933">
<ele>532.453125</ele>
<time>2012-07-21T21:25:39Z</time>
<speed>0.100000</speed>
<extensions>
<speed>0.1</speed>
<temp>0.00</temp>
<bpm>0</bpm>
<rpm>0.00</rpm>
</extensions>
</trkpt>
<trkpt lat="64.060890198" lon="-19.374189377">
<ele>532.062500</ele>
<time>2012-07-21T21:25:44Z</time>
<speed>0.010000</speed>
<extensions>
<speed>0.0</speed>
<temp>0.00</temp>
<bpm>0</bpm>
<rpm>0.00</rpm>
</extensions>
</trkpt>
<trkpt lat="64.060882568" lon="-19.374162674">
<ele>532.265625</ele>
<time>2012-07-21T21:25:49Z</time>
<speed>1.030000</speed>
<extensions>
<speed>1.0</speed>
<temp>0.00</temp>
<bpm>0</bpm>
<rpm>0.00</rpm>
</extensions>
</trkpt>
<trkpt lat="64.060852051" lon="-19.374073029">
<ele>530.562500</ele>
<time>2012-07-21T21:25:54Z</time>
<speed>1.190000</speed>
<extensions>
<speed>1.2</speed>
<temp>0.00</temp>
<bpm>0</bpm>
<rpm>0.00</rpm>
</extensions>
</trkpt>
<trkpt lat="64.060821533" lon="-19.373983383">
<ele>530.609375</ele>
<time>2012-07-21T21:25:59Z</time>
<speed>1.190000</speed>
<extensions>
<speed>1.2</speed>
<temp>0.00</temp>
<bpm>0</bpm>
<rpm>0.00</rpm>
</extensions>
</trkpt>
<trkpt lat="64.060791016" lon="-19.373888016">
<ele>531.609375</ele>
<time>2012-07-21T21:26:04Z</time>
<speed>1.080000</speed>
<extensions>
<speed>1.1</speed>
<temp>0.00</temp>
<bpm>0</bpm>
<rpm>0.00</rpm>
</extensions>
</trkpt>
<trkpt lat="64.060775757" lon="-19.373855591">
<ele>531.796875</ele>
<time>2012-07-21T21:26:09Z</time>
<speed>0.010000</speed>
<extensions>
<speed>0.0</speed>
<temp>0.00</temp>
<bpm>0</bpm>
<rpm>0.00</rpm>
</extensions>
</trkpt>
<trkpt lat="64.060775757" lon="-19.373859406">
<ele>532.000000</ele>
<time>2012-07-21T21:26:14Z</time>
<speed>0.010000</speed>
<extensions>
<speed>0.0</speed>
<temp>0.00</temp>
<bpm>0</bpm>
<rpm>0.00</rpm>
</extensions>
</trkpt>
<trkpt lat="64.060775757" lon="-19.373859406">
<ele>532.000000</ele>
<time>2012-07-21T21:26:19Z</time>
<speed>0.010000</speed>
<extensions>
<speed>0.0</speed>
<temp>0.00</temp>
<bpm>0</bpm>
<rpm>0.00</rpm>
</extensions>
</trkpt>
<trkpt lat="64.060775757" lon="-19.373857498">
<ele>532.015625</ele>
<time>2012-07-21T21:26:24Z</time>
<speed>0.020000</speed>
<extensions>
<speed>0.0</speed>
<temp>0.00</temp>
<bpm>0</bpm>
<rpm>0.00</rpm>
</extensions>
</trkpt>
<trkpt lat="64.060775757" lon="-19.373857498">
<ele>532.015625</ele>
<time>2012-07-21T21:26:29Z</time>
<speed>0.050000</speed>
<extensions>
<speed>0.1</speed>
<temp>0.00</temp>
<bpm>0</bpm>
<rpm>0.00</rpm>
</extensions>
</trkpt>
<trkpt lat="64.060760498" lon="-19.373813629">
<ele>532.234375</ele>
<time>2012-07-21T21:26:34Z</time>
<speed>1.070000</speed>
<extensions>
<speed>1.1</speed>
<temp>0.00</temp>
<bpm>0</bpm>
<rpm>0.00</rpm>
</extensions>
</trkpt>
<trkpt lat="64.060729980" lon="-19.373718262">
<ele>532.906250</ele>
<time>2012-07-21T21:26:39Z</time>
<speed>0.900000</speed>
<extensions>
<speed>0.9</speed>
<temp>0.00</temp>
<bpm>0</bpm>
<rpm>0.00</rpm>
</extensions>
</trkpt>
<trkpt lat="64.060707092" lon="-19.373613358">
<ele>534.796875</ele>
<time>2012-07-21T21:26:44Z</time>
<speed>1.060000</speed>
<extensions>
<speed>1.1</speed>
<temp>0.00</temp>
<bpm>0</bpm>
<rpm>0.00</rpm>
</extensions>
</trkpt>
<trkpt lat="64.060668945" lon="-19.373525620">
<ele>533.625000</ele>
<time>2012-07-21T21:26:49Z</time>
<speed>1.130000</speed>
<extensions>
<speed>1.1</speed>
<temp>0.00</temp>
<bpm>0</bpm>
<rpm>0.00</rpm>
</extensions>
</trkpt>
<trkpt lat="64.060646057" lon="-19.373437881">
<ele>534.171875</ele>
<time>2012-07-21T21:26:54Z</time>
<speed>0.940000</speed>
<extensions>
<speed>0.9</speed>
<temp>0.00</temp>
<bpm>0</bpm>
<rpm>0.00</rpm>
</extensions>
</trkpt>
<trkpt lat="64.060623169" lon="-19.373369217">
<ele>534.359375</ele>
<time>2012-07-21T21:26:59Z</time>
<speed>1.030000</speed>
<extensions>
<speed>1.0</speed>
<temp>0.00</temp>
<bpm>0</bpm>
<rpm>0.00</rpm>
</extensions>
</trkpt>
<trkpt lat="64.060592651" lon="-19.373291016">
<ele>535.187500</ele>
<time>2012-07-21T21:27:04Z</time>
<speed>1.070000</speed>
<extensions>
<speed>1.1</speed>
<temp>0.00</temp>
<bpm>0</bpm>
<rpm>0.00</rpm>
</extensions>
</trkpt>
<trkpt lat="64.060562134" lon="-19.373222351">
<ele>535.656250</ele>
<time>2012-07-21T21:27:09Z</time>
<speed>0.280000</speed>
<extensions>
<speed>0.3</speed>
<temp>0.00</temp>
<bpm>0</bpm>
<rpm>0.00</rpm>
</extensions>
</trkpt>
<trkpt lat="64.060562134" lon="-19.373216629">
<ele>534.625000</ele>
<time>2012-07-21T21:27:14Z</time>
<speed>0.860000</speed>
<extensions>
<speed>0.9</speed>
<temp>0.00</temp>
<bpm>0</bpm>
<rpm>0.00</rpm>
</extensions>
</trkpt>
<trkpt lat="64.060523987" lon="-19.373146057">
<ele>535.046875</ele>
<time>2012-07-21T21:27:19Z</time>
<speed>1.170000</speed>
<extensions>
<speed>1.2</speed>
<temp>0.00</temp>
<bpm>0</bpm>
<rpm>0.00</rpm>
</extensions>
</trkpt>
<trkpt lat="64.060485840" lon="-19.373067856">
<ele>534.515625</ele>
<time>2012-07-21T21:27:24Z</time>
<speed>1.200000</speed>
<extensions>
<speed>1.2</speed>
<temp>0.00</temp>
<bpm>0</bpm>
<rpm>0.00</rpm>
</extensions>
</trkpt>
<trkpt lat="64.060447693" lon="-19.372982025">
<ele>534.937500</ele>
<time>2012-07-21T21:27:29Z</time>
<speed>1.020000</speed>
<extensions>
<speed>1.0</speed>
<temp>0.00</temp>
<bpm>0</bpm>
<rpm>0.00</rpm>
</extensions>
</trkpt>
<trkpt lat="64.060424805" lon="-19.372896194">
<ele>534.015625</ele>
<time>2012-07-21T21:27:34Z</time>
<speed>1.000000</speed>
<extensions>
<speed>1.0</speed>
<temp>0.00</temp>
<bpm>0</bpm>
<rpm>0.00</rpm>
</extensions>
</trkpt>
<trkpt lat="64.060417175" lon="-19.372875214">
<ele>532.000000</ele>
<time>2012-07-21T21:27:39Z</time>
<speed>0.020000</speed>
<extensions>
<speed>0.0</speed>
<temp>0.00</temp>
<bpm>0</bpm>
<rpm>0.00</rpm>
</extensions>
</trkpt>
<trkpt lat="64.060417175" lon="-19.372875214">
<ele>531.968750</ele>
<time>2012-07-21T21:27:44Z</time>
<speed>0.010000</speed>
<extensions>
<speed>0.0</speed>
<temp>0.00</temp>
<bpm>0</bpm>
<rpm>0.00</rpm>
</extensions>
</trkpt>
<trkpt lat="64.060417175" lon="-19.372875214">
<ele>531.937500</ele>
<time>2012-07-21T21:27:49Z</time>
<extensions>
<speed>0.0</speed>
<temp>0.00</temp>
<bpm>0</bpm>
<rpm>0.00</rpm>
</extensions>
</trkpt>
<trkpt lat="64.060417175" lon="-19.372875214">
<ele>531.968750</ele>
<time>2012-07-21T21:27:54Z</time>
<speed>0.590000</speed>
<extensions>
<speed>0.6</speed>
<temp>0.00</temp>
<bpm>0</bpm>
<rpm>0.00</rpm>
</extensions>
</trkpt>
<trkpt lat="64.060386658" lon="-19.372806549">
<ele>532.250000</ele>
<time>2012-07-21T21:27:59Z</time>
<speed>1.020000</speed>
<extensions>
<speed>1.0</speed>
<temp>0.00</temp>
<bpm>0</bpm>
<rpm>0.00</rpm>
</extensions>
</trkpt>
<trkpt lat="64.060363770" lon="-19.372728348">
<ele>531.718750</ele>
<time>2012-07-21T21:28:04Z</time>
<speed>1.000000</speed>
<extensions>
<speed>1.0</speed>
<temp>0.00</temp>
<bpm>0</bpm>
<rpm>0.00</rpm>
</extensions>
</trkpt>
<trkpt lat="64.060340881" lon="-19.372619629">
<ele>531.406250</ele>
<time>2012-07-21T21:28:09Z</time>
<speed>0.920000</speed>
<extensions>
<speed>0.9</speed>
<temp>0.00</temp>
<bpm>0</bpm>
<rpm>0.00</rpm>
</extensions>
</trkpt>
<trkpt lat="64.060325623" lon="-19.372526169">
<ele>531.718750</ele>
<time>2012-07-21T21:28:14Z</time>
<speed>0.800000</speed>
<extensions>
<speed>0.8</speed>
<temp>0.00</temp>
<bpm>0</bpm>
<rpm>0.00</rpm>
</extensions>
</trkpt>
<trkpt lat="64.060317993" lon="-19.372451782">
<ele>531.343750</ele>
<time>2012-07-21T21:28:19Z</time>
<speed>0.820000</speed>
<extensions>
<speed>0.8</speed>
<temp>0.00</temp>
<bpm>0</bpm>
<rpm>0.00</rpm>
</extensions>
</trkpt>
<trkpt lat="64.060310364" lon="-19.372365952">
<ele>531.812500</ele>
<time>2012-07-21T21:28:24Z</time>
<speed>0.920000</speed>
<extensions>
<speed>0.9</speed>
<temp>0.00</temp>
<bpm>0</bpm>
<rpm>0.00</rpm>
</extensions>
</trkpt>
<trkpt lat="64.060295105" lon="-19.372268677">
<ele>532.375000</ele>
<time>2012-07-21T21:28:29Z</time>
<speed>0.680000</speed>
<extensions>
<speed>0.7</speed>
<temp>0.00</temp>
<bpm>0</bpm>
<rpm>0.00</rpm>
</extensions>
</trkpt>
<trkpt lat="64.060287476" lon="-19.372179031">
<ele>533.015625</ele>
<time>2012-07-21T21:28:34Z</time>
<speed>0.770000</speed>
<extensions>
<speed>0.8</speed>
<temp>0.00</temp>
<bpm>0</bpm>
<rpm>0.00</rpm>
</extensions>
</trkpt>
<trkpt lat="64.060279846" lon="-19.372110367">
<ele>534.031250</ele>
<time>2012-07-21T21:28:39Z</time>
<speed>0.650000</speed>
<extensions>
<speed>0.6</speed>
<temp>0.00</temp>
<bpm>0</bpm>
<rpm>0.00</rpm>
</extensions>
</trkpt>
<trkpt lat="64.060272217" lon="-19.372045517">
<ele>534.359375</ele>
<time>2012-07-21T21:28:44Z</time>
<speed>0.860000</speed>
<extensions>
<speed>0.9</speed>
<temp>0.00</temp>
<bpm>0</bpm>
<rpm>0.00</rpm>
</extensions>
</trkpt>
<trkpt lat="64.060256958" lon="-19.371973038">
<ele>534.781250</ele>
<time>2012-07-21T21:28:49Z</time>
<speed>0.770000</speed>
<extensions>
<speed>0.8</speed>
<temp>0.00</temp>
<bpm>0</bpm>
<rpm>0.00</rpm>
</extensions>
</trkpt>
<trkpt lat="64.060226440" lon="-19.371927261">
<ele>534.812500</ele>
<time>2012-07-21T21:28:54Z</time>
<speed>1.040000</speed>
<extensions>
<speed>1.0</speed>
<temp>0.00</temp>
<bpm>0</bpm>
<rpm>0.00</rpm>
</extensions>
</trkpt>
<trkpt lat="64.060203552" lon="-19.371843338">
<ele>535.171875</ele>
<time>2012-07-21T21:28:59Z</time>
<speed>1.140000</speed>
<extensions>
<speed>1.1</speed>
<temp>0.00</temp>
<bpm>0</bpm>
<rpm>0.00</rpm>
</extensions>
</trkpt>
<trkpt lat="64.060188293" lon="-19.371759415">
<ele>536.031250</ele>
<time>2012-07-21T21:29:04Z</time>
<speed>0.920000</speed>
<extensions>
<speed>0.9</speed>
<temp>0.00</temp>
<bpm>0</bpm>
<rpm>0.00</rpm>
</extensions>
</trkpt>
<trkpt lat="64.060188293" lon="-19.371709824">
<ele>536.578125</ele>
<time>2012-07-21T21:29:09Z</time>
<speed>0.850000</speed>
<extensions>
<speed>0.8</speed>
<temp>0.00</temp>
<bpm>0</bpm>
<rpm>0.00</rpm>
</extensions>
</trkpt>
<trkpt lat="64.060157776" lon="-19.371639252">
<ele>536.828125</ele>
<time>2012-07-21T21:29:14Z</time>
<speed>1.120000</speed>
<extensions>
<speed>1.1</speed>
<temp>0.00</temp>
<bpm>0</bpm>
<rpm>0.00</rpm>
</extensions>
</trkpt>
<trkpt lat="64.060127258" lon="-19.371536255">
<ele>536.875000</ele>
<time>2012-07-21T21:29:19Z</time>
<speed>1.090000</speed>
<extensions>
<speed>1.1</speed>
<temp>0.00</temp>
<bpm>0</bpm>
<rpm>0.00</rpm>
</extensions>
</trkpt>
<trkpt lat="64.060104370" lon="-19.371456146">
<ele>537.531250</ele>
<time>2012-07-21T21:29:24Z</time>
<speed>0.810000</speed>
<extensions>
<speed>0.8</speed>
<temp>0.00</temp>
<bpm>0</bpm>
<rpm>0.00</rpm>
</extensions>
</trkpt>
<trkpt lat="64.060089111" lon="-19.371358871">
<ele>537.687500</ele>
<time>2012-07-21T21:29:29Z</time>
<speed>1.210000</speed>
<extensions>
<speed>1.2</speed>
<temp>0.00</temp>
<bpm>0</bpm>
<rpm>0.00</rpm>
</extensions>
</trkpt>
<trkpt lat="64.060058594" lon="-19.371253967">
<ele>537.687500</ele>
<time>2012-07-21T21:29:34Z</time>
<speed>1.120000</speed>
<extensions>
<speed>1.1</speed>
<temp>0.00</temp>
<bpm>0</bpm>
<rpm>0.00</rpm>
</extensions>
</trkpt>
<trkpt lat="64.060035706" lon="-19.371124268">
<ele>537.671875</ele>
<time>2012-07-21T21:29:39Z</time>
<speed>1.190000</speed>
<extensions>
<speed>1.2</speed>
<temp>0.00</temp>
<bpm>0</bpm>
<rpm>0.00</rpm>
</extensions>
</trkpt>
<trkpt lat="64.060005188" lon="-19.371028900">
<ele>537.984375</ele>
<time>2012-07-21T21:29:44Z</time>
<speed>1.120000</speed>
<extensions>
<speed>1.1</speed>
<temp>0.00</temp>
<bpm>0</bpm>
<rpm>0.00</rpm>
</extensions>
</trkpt>
<trkpt lat="64.059974670" lon="-19.370922089">
<ele>538.468750</ele>
<time>2012-07-21T21:29:49Z</time>
<speed>1.170000</speed>
<extensions>
<speed>1.2</speed>
<temp>0.00</temp>
<bpm>0</bpm>
<rpm>0.00</rpm>
</extensions>
</trkpt>
<trkpt lat="64.059944153" lon="-19.370820999">
<ele>538.234375</ele>
<time>2012-07-21T21:29:54Z</time>
<speed>1.400000</speed>
<extensions>
<speed>1.4</speed>
<temp>0.00</temp>
<bpm>0</bpm>
<rpm>0.00</rpm>
</extensions>
</trkpt>
<trkpt lat="64.059921265" lon="-19.370714188">
<ele>538.781250</ele>
<time>2012-07-21T21:29:59Z</time>
<speed>1.410000</speed>
<extensions>
<speed>1.4</speed>
<temp>0.00</temp>
<bpm>0</bpm>
<rpm>0.00</rpm>
</extensions>
</trkpt>
<trkpt lat="64.059883118" lon="-19.370620728">
<ele>539.578125</ele>
<time>2012-07-21T21:30:04Z</time>
<speed>1.220000</speed>
<extensions>
<speed>1.2</speed>
<temp>0.00</temp>
<bpm>0</bpm>
<rpm>0.00</rpm>
</extensions>
</trkpt>
<trkpt lat="64.059844971" lon="-19.370504379">
<ele>539.828125</ele>
<time>2012-07-21T21:30:09Z</time>
<speed>1.310000</speed>
<extensions>
<speed>1.3</speed>
<temp>0.00</temp>
<bpm>0</bpm>
<rpm>0.00</rpm>
</extensions>
</trkpt>
<trkpt lat="64.059799194" lon="-19.370428085">
<ele>540.453125</ele>
<time>2012-07-21T21:30:14Z</time>
<speed>1.200000</speed>
<extensions>
<speed>1.2</speed>
<temp>0.00</temp>
<bpm>0</bpm>
<rpm>0.00</rpm>
</extensions>
</trkpt>
<trkpt lat="64.059753418" lon="-19.370347977">
<ele>540.437500</ele>
<time>2012-07-21T21:30:19Z</time>
<speed>1.300000</speed>
<extensions>
<speed>1.3</speed>
<temp>0.00</temp>
<bpm>0</bpm>
<rpm>0.00</rpm>
</extensions>
</trkpt>
<trkpt lat="64.059707642" lon="-19.370241165">
<ele>540.453125</ele>
<time>2012-07-21T21:30:24Z</time>
<speed>1.360000</speed>
<extensions>
<speed>1.4</speed>
<temp>0.00</temp>
<bpm>0</bpm>
<rpm>0.00</rpm>
</extensions>
</trkpt>
<trkpt lat="64.059669495" lon="-19.370136261">
<ele>539.562500</ele>
<time>2012-07-21T21:30:29Z</time>
<speed>1.280000</speed>
<extensions>
<speed>1.3</speed>
<temp>0.00</temp>
<bpm>0</bpm>
<rpm>0.00</rpm>
</extensions>
</trkpt>
<trkpt lat="64.059638977" lon="-19.370031357">
<ele>539.593750</ele>
<time>2012-07-21T21:30:34Z</time>
<speed>1.240000</speed>
<extensions>
<speed>1.2</speed>
<temp>0.00</temp>
<bpm>0</bpm>
<rpm>0.00</rpm>
</extensions>
</trkpt>
<trkpt lat="64.059631348" lon="-19.369905472">
<ele>538.437500</ele>
<time>2012-07-21T21:30:39Z</time>
<speed>1.110000</speed>
<extensions>
<speed>1.1</speed>
<temp>0.00</temp>
<bpm>0</bpm>
<rpm>0.00</rpm>
</extensions>
</trkpt>
<trkpt lat="64.059623718" lon="-19.369783401">
<ele>537.781250</ele>
<time>2012-07-21T21:30:44Z</time>
<speed>1.390000</speed>
<extensions>
<speed>1.4</speed>
<temp>0.00</temp>
<bpm>0</bpm>
<rpm>0.00</rpm>
</extensions>
</trkpt>
<trkpt lat="64.059623718" lon="-19.369661331">
<ele>537.640625</ele>
<time>2012-07-21T21:30:49Z</time>
<speed>1.220000</speed>
<extensions>
<speed>1.2</speed>
<temp>0.00</temp>
<bpm>0</bpm>
<rpm>0.00</rpm>
</extensions>
</trkpt>
<trkpt lat="64.059616089" lon="-19.369550705">
<ele>537.375000</ele>
<time>2012-07-21T21:30:54Z</time>
<speed>0.430000</speed>
<extensions>
<speed>0.4</speed>
<temp>0.00</temp>
<bpm>0</bpm>
<rpm>0.00</rpm>
</extensions>
</trkpt>
<trkpt lat="64.059616089" lon="-19.369501114">
<ele>537.828125</ele>
<time>2012-07-21T21:30:59Z</time>
<speed>1.090000</speed>
<extensions>
<speed>1.1</speed>
<temp>0.00</temp>
<bpm>0</bpm>
<rpm>0.00</rpm>
</extensions>
</trkpt>
<trkpt lat="64.059608459" lon="-19.369377136">
<ele>537.750000</ele>
<time>2012-07-21T21:31:04Z</time>
<speed>0.980000</speed>
<extensions>
<speed>1.0</speed>
<temp>0.00</temp>
<bpm>0</bpm>
<rpm>0.00</rpm>
</extensions>
</trkpt>
<trkpt lat="64.059600830" lon="-19.369258881">
<ele>537.421875</ele>
<time>2012-07-21T21:31:09Z</time>
<speed>1.070000</speed>
<extensions>
<speed>1.1</speed>
<temp>0.00</temp>
<bpm>0</bpm>
<rpm>0.00</rpm>
</extensions>
</trkpt>
<trkpt lat="64.059600830" lon="-19.369190216">
<ele>537.750000</ele>
<time>2012-07-21T21:31:14Z</time>
<speed>0.020000</speed>
<extensions>
<speed>0.0</speed>
<temp>0.00</temp>
<bpm>0</bpm>
<rpm>0.00</rpm>
</extensions>
</trkpt>
<trkpt lat="64.059600830" lon="-19.369142532">
<ele>538.187500</ele>
<time>2012-07-21T21:31:19Z</time>
<speed>1.120000</speed>
<extensions>
<speed>1.1</speed>
<temp>0.00</temp>
<bpm>0</bpm>
<rpm>0.00</rpm>
</extensions>
</trkpt>
<trkpt lat="64.059600830" lon="-19.369029999">
<ele>537.687500</ele>
<time>2012-07-21T21:31:24Z</time>
<speed>1.160000</speed>
<extensions>
<speed>1.2</speed>
<temp>0.00</temp>
<bpm>0</bpm>
<rpm>0.00</rpm>
</extensions>
</trkpt>
<trkpt lat="64.059600830" lon="-19.368898392">
<ele>537.421875</ele>
<time>2012-07-21T21:31:29Z</time>
<speed>1.090000</speed>
<extensions>
<speed>1.1</speed>
<temp>0.00</temp>
<bpm>0</bpm>
<rpm>0.00</rpm>
</extensions>
</trkpt>
<trkpt lat="64.059600830" lon="-19.368793488">
<ele>537.296875</ele>
<time>2012-07-21T21:31:34Z</time>
<speed>0.880000</speed>
<extensions>
<speed>0.9</speed>
<temp>0.00</temp>
<bpm>0</bpm>
<rpm>0.00</rpm>
</extensions>
</trkpt>
<trkpt lat="64.059600830" lon="-19.368778229">
<ele>537.750000</ele>
<time>2012-07-21T21:31:39Z</time>
<speed>1.190000</speed>
<extensions>
<speed>1.2</speed>
<temp>0.00</temp>
<bpm>0</bpm>
<rpm>0.00</rpm>
</extensions>
</trkpt>
<trkpt lat="64.059593201" lon="-19.368658066">
<ele>537.625000</ele>
<time>2012-07-21T21:31:44Z</time>
<speed>1.060000</speed>
<extensions>
<speed>1.1</speed>
<temp>0.00</temp>
<bpm>0</bpm>
<rpm>0.00</rpm>
</extensions>
</trkpt>
<trkpt lat="64.059555054" lon="-19.368530273">
<ele>537.875000</ele>
<time>2012-07-21T21:31:49Z</time>
<speed>1.490000</speed>
<extensions>
<speed>1.5</speed>
<temp>0.00</temp>
<bpm>0</bpm>
<rpm>0.00</rpm>
</extensions>
</trkpt>
<trkpt lat="64.059524536" lon="-19.368402481">
<ele>538.109375</ele>
<time>2012-07-21T21:31:54Z</time>
<speed>1.280000</speed>
<extensions>
<speed>1.3</speed>
<temp>0.00</temp>
<bpm>0</bpm>
<rpm>0.00</rpm>
</extensions>
</trkpt>
<trkpt lat="64.059478760" lon="-19.368316650">
<ele>538.781250</ele>
<time>2012-07-21T21:31:59Z</time>
<speed>1.040000</speed>
<extensions>
<speed>1.0</speed>
<temp>0.00</temp>
<bpm>0</bpm>
<rpm>0.00</rpm>
</extensions>
</trkpt>
<trkpt lat="64.059432983" lon="-19.368249893">
<ele>539.734375</ele>
<time>2012-07-21T21:32:04Z</time>
<speed>1.430000</speed>
<extensions>
<speed>1.4</speed>
<temp>0.00</temp>
<bpm>0</bpm>
<rpm>0.00</rpm>
</extensions>
</trkpt>
<trkpt lat="64.059379578" lon="-19.368188858">
<ele>540.453125</ele>
<time>2012-07-21T21:32:09Z</time>
<speed>0.380000</speed>
<extensions>
<speed>0.4</speed>
<temp>0.00</temp>
<bpm>0</bpm>
<rpm>0.00</rpm>
</extensions>
</trkpt>
<trkpt lat="64.059371948" lon="-19.368190765">
<ele>540.640625</ele>
<time>2012-07-21T21:32:14Z</time>
<speed>0.740000</speed>
<extensions>
<speed>0.7</speed>
<temp>0.00</temp>
<bpm>0</bpm>
<rpm>0.00</rpm>
</extensions>
</trkpt>
<trkpt lat="64.059326172" lon="-19.368124008">
<ele>541.796875</ele>
<time>2012-07-21T21:32:19Z</time>
<speed>1.160000</speed>
<extensions>
<speed>1.2</speed>
<temp>0.00</temp>
<bpm>0</bpm>
<rpm>0.00</rpm>
</extensions>
</trkpt>
<trkpt lat="64.059288025" lon="-19.368043900">
<ele>542.578125</ele>
<time>2012-07-21T21:32:24Z</time>
<speed>1.370000</speed>
<extensions>
<speed>1.4</speed>
<temp>0.00</temp>
<bpm>0</bpm>
<rpm>0.00</rpm>
</extensions>
</trkpt>
<trkpt lat="64.059234619" lon="-19.367948532">
<ele>543.484375</ele>
<time>2012-07-21T21:32:29Z</time>
<speed>1.270000</speed>
<extensions>
<speed>1.3</speed>
<temp>0.00</temp>
<bpm>0</bpm>
<rpm>0.00</rpm>
</extensions>
</trkpt>
<trkpt lat="64.059188843" lon="-19.367855072">
<ele>544.453125</ele>
<time>2012-07-21T21:32:34Z</time>
<speed>1.290000</speed>
<extensions>
<speed>1.3</speed>
<temp>0.00</temp>
<bpm>0</bpm>
<rpm>0.00</rpm>
</extensions>
</trkpt>
<trkpt lat="64.059143066" lon="-19.367746353">
<ele>544.468750</ele>
<time>2012-07-21T21:32:39Z</time>
<speed>1.370000</speed>
<extensions>
<speed>1.4</speed>
<temp>0.00</temp>
<bpm>0</bpm>
<rpm>0.00</rpm>
</extensions>
</trkpt>
<trkpt lat="64.059112549" lon="-19.367649078">
<ele>543.875000</ele>
<time>2012-07-21T21:32:44Z</time>
<speed>1.140000</speed>
<extensions>
<speed>1.1</speed>
<temp>0.00</temp>
<bpm>0</bpm>
<rpm>0.00</rpm>
</extensions>
</trkpt>
<trkpt lat="64.059112549" lon="-19.367605209">
<ele>543.500000</ele>
<time>2012-07-21T21:32:49Z</time>
<speed>0.020000</speed>
<extensions>
<speed>0.0</speed>
<temp>0.00</temp>
<bpm>0</bpm>
<rpm>0.00</rpm>
</extensions>
</trkpt>
<trkpt lat="64.059104919" lon="-19.367546082">
<ele>542.843750</ele>
<time>2012-07-21T21:32:54Z</time>
<speed>1.240000</speed>
<extensions>
<speed>1.2</speed>
<temp>0.00</temp>
<bpm>0</bpm>
<rpm>0.00</rpm>
</extensions>
</trkpt>
<trkpt lat="64.059089661" lon="-19.367412567">
<ele>542.859375</ele>
<time>2012-07-21T21:32:59Z</time>
<speed>1.290000</speed>
<extensions>
<speed>1.3</speed>
<temp>0.00</temp>
<bpm>0</bpm>
<rpm>0.00</rpm>
</extensions>
</trkpt>
<trkpt lat="64.059074402" lon="-19.367290497">
<ele>542.093750</ele>
<time>2012-07-21T21:33:04Z</time>
<speed>0.650000</speed>
<extensions>
<speed>0.6</speed>
<temp>0.00</temp>
<bpm>0</bpm>
<rpm>0.00</rpm>
</extensions>
</trkpt>
<trkpt lat="64.059043884" lon="-19.367218018">
<ele>542.062500</ele>
<time>2012-07-21T21:33:09Z</time>
<speed>0.640000</speed>
<extensions>
<speed>0.6</speed>
<temp>0.00</temp>
<bpm>0</bpm>
<rpm>0.00</rpm>
</extensions>
</trkpt>
<trkpt lat="64.059051514" lon="-19.367187500">
<ele>542.171875</ele>
<time>2012-07-21T21:33:14Z</time>
<speed>1.110000</speed>
<extensions>
<speed>1.1</speed>
<temp>0.00</temp>
<bpm>0</bpm>
<rpm>0.00</rpm>
</extensions>
</trkpt>
<trkpt lat="64.059059143" lon="-19.367067337">
<ele>542.390625</ele>
<time>2012-07-21T21:33:19Z</time>
<speed>1.240000</speed>
<extensions>
<speed>1.2</speed>
<temp>0.00</temp>
<bpm>0</bpm>
<rpm>0.00</rpm>
</extensions>
</trkpt>
<trkpt lat="64.059051514" lon="-19.366956711">
<ele>541.687500</ele>
<time>2012-07-21T21:33:24Z</time>
<speed>0.050000</speed>
<extensions>
<speed>0.1</speed>
<temp>0.00</temp>
<bpm>0</bpm>
<rpm>0.00</rpm>
</extensions>
</trkpt>
<trkpt lat="64.059051514" lon="-19.366968155">
<ele>541.796875</ele>
<time>2012-07-21T21:33:29Z</time>
<speed>0.080000</speed>
<extensions>
<speed>0.1</speed>
<temp>0.00</temp>
<bpm>0</bpm>
<rpm>0.00</rpm>
</extensions>
</trkpt>
<trkpt lat="64.059028625" lon="-19.366888046">
<ele>541.343750</ele>
<time>2012-07-21T21:33:34Z</time>
<speed>1.300000</speed>
<extensions>
<speed>1.3</speed>
<temp>0.00</temp>
<bpm>0</bpm>
<rpm>0.00</rpm>
</extensions>
</trkpt>
<trkpt lat="64.059013367" lon="-19.366758347">
<ele>541.062500</ele>
<time>2012-07-21T21:33:39Z</time>
<speed>1.030000</speed>
<extensions>
<speed>1.0</speed>
<temp>0.00</temp>
<bpm>0</bpm>
<rpm>0.00</rpm>
</extensions>
</trkpt>
<trkpt lat="64.058990479" lon="-19.366647720">
<ele>541.093750</ele>
<time>2012-07-21T21:33:44Z</time>
<speed>0.920000</speed>
<extensions>
<speed>0.9</speed>
<temp>0.00</temp>
<bpm>0</bpm>
<rpm>0.00</rpm>
</extensions>
</trkpt>
<trkpt lat="64.058975220" lon="-19.366540909">
<ele>540.703125</ele>
<time>2012-07-21T21:33:49Z</time>
<speed>1.080000</speed>
<extensions>
<speed>1.1</speed>
<temp>0.00</temp>
<bpm>0</bpm>
<rpm>0.00</rpm>
</extensions>
</trkpt>
<trkpt lat="64.058952332" lon="-19.366455078">
<ele>540.500000</ele>
<time>2012-07-21T21:33:54Z</time>
<speed>0.040000</speed>
<extensions>
<speed>0.0</speed>
<temp>0.00</temp>
<bpm>0</bpm>
<rpm>0.00</rpm>
</extensions>
</trkpt>
<trkpt lat="64.058952332" lon="-19.366428375">
<ele>540.359375</ele>
<time>2012-07-21T21:33:59Z</time>
<speed>0.870000</speed>
<extensions>
<speed>0.9</speed>
<temp>0.00</temp>
<bpm>0</bpm>
<rpm>0.00</rpm>
</extensions>
</trkpt>
<trkpt lat="64.058921814" lon="-19.366329193">
<ele>540.765625</ele>
<time>2012-07-21T21:34:04Z</time>
<speed>0.880000</speed>
<extensions>
<speed>0.9</speed>
<temp>0.00</temp>
<bpm>0</bpm>
<rpm>0.00</rpm>
</extensions>
</trkpt>
<trkpt lat="64.058906555" lon="-19.366230011">
<ele>541.312500</ele>
<time>2012-07-21T21:34:09Z</time>
<speed>1.000000</speed>
<extensions>
<speed>1.0</speed>
<temp>0.00</temp>
<bpm>0</bpm>
<rpm>0.00</rpm>
</extensions>
</trkpt>
<trkpt lat="64.058876038" lon="-19.366149902">
<ele>541.140625</ele>
<time>2012-07-21T21:34:14Z</time>
<speed>0.820000</speed>
<extensions>
<speed>0.8</speed>
<temp>0.00</temp>
<bpm>0</bpm>
<rpm>0.00</rpm>
</extensions>
</trkpt>
<trkpt lat="64.058883667" lon="-19.366123199">
<ele>541.156250</ele>
<time>2012-07-21T21:34:19Z</time>
<speed>0.040000</speed>
<extensions>
<speed>0.0</speed>
<temp>0.00</temp>
<bpm>0</bpm>
<rpm>0.00</rpm>
</extensions>
</trkpt>
<trkpt lat="64.058883667" lon="-19.366065979">
<ele>541.031250</ele>
<time>2012-07-21T21:34:24Z</time>
<speed>0.760000</speed>
<extensions>
<speed>0.8</speed>
<temp>0.00</temp>
<bpm>0</bpm>
<rpm>0.00</rpm>
</extensions>
</trkpt>
<trkpt lat="64.058860779" lon="-19.365982056">
<ele>540.859375</ele>
<time>2012-07-21T21:34:29Z</time>
<speed>1.030000</speed>
<extensions>
<speed>1.0</speed>
<temp>0.00</temp>
<bpm>0</bpm>
<rpm>0.00</rpm>
</extensions>
</trkpt>
<trkpt lat="64.058830261" lon="-19.365884781">
<ele>541.109375</ele>
<time>2012-07-21T21:34:34Z</time>
<speed>1.080000</speed>
<extensions>
<speed>1.1</speed>
<temp>0.00</temp>
<bpm>0</bpm>
<rpm>0.00</rpm>
</extensions>
</trkpt>
<trkpt lat="64.058799744" lon="-19.365797043">
<ele>541.265625</ele>
<time>2012-07-21T21:34:39Z</time>
<speed>1.030000</speed>
<extensions>
<speed>1.0</speed>
<temp>0.00</temp>
<bpm>0</bpm>
<rpm>0.00</rpm>
</extensions>
</trkpt>
<trkpt lat="64.058792114" lon="-19.365701675">
<ele>541.984375</ele>
<time>2012-07-21T21:34:44Z</time>
<speed>1.010000</speed>
<extensions>
<speed>1.0</speed>
<temp>0.00</temp>
<bpm>0</bpm>
<rpm>0.00</rpm>
</extensions>
</trkpt>
<trkpt lat="64.058769226" lon="-19.365665436">
<ele>542.359375</ele>
<time>2012-07-21T21:34:49Z</time>
<extensions>
<speed>0.0</speed>
<temp>0.00</temp>
<bpm>0</bpm>
<rpm>0.00</rpm>
</extensions>
</trkpt>
<trkpt lat="64.058769226" lon="-19.365673065">
<ele>542.390625</ele>
<time>2012-07-21T21:34:54Z</time>
<extensions>
<speed>0.0</speed>
<temp>0.00</temp>
<bpm>0</bpm>
<rpm>0.00</rpm>
</extensions>
</trkpt>
<trkpt lat="64.058769226" lon="-19.365674973">
<ele>542.375000</ele>
<time>2012-07-21T21:34:59Z</time>
<speed>0.020000</speed>
<extensions>
<speed>0.0</speed>
<temp>0.00</temp>
<bpm>0</bpm>
<rpm>0.00</rpm>
</extensions>
</trkpt>
<trkpt lat="64.058769226" lon="-19.365673065">
<ele>542.375000</ele>
<time>2012-07-21T21:35:04Z</time>
<speed>1.150000</speed>
<extensions>
<speed>1.1</speed>
<temp>0.00</temp>
<bpm>0</bpm>
<rpm>0.00</rpm>
</extensions>
</trkpt>
<trkpt lat="64.058753967" lon="-19.365543365">
<ele>543.203125</ele>
<time>2012-07-21T21:35:09Z</time>
<speed>1.080000</speed>
<extensions>
<speed>1.1</speed>
<temp>0.00</temp>
<bpm>0</bpm>
<rpm>0.00</rpm>
</extensions>
</trkpt>
<trkpt lat="64.058738708" lon="-19.365428925">
<ele>544.078125</ele>
<time>2012-07-21T21:35:14Z</time>
<speed>1.170000</speed>
<extensions>
<speed>1.2</speed>
<temp>0.00</temp>
<bpm>0</bpm>
<rpm>0.00</rpm>
</extensions>
</trkpt>
<trkpt lat="64.058723450" lon="-19.365306854">
<ele>544.562500</ele>
<time>2012-07-21T21:35:19Z</time>
<speed>1.180000</speed>
<extensions>
<speed>1.2</speed>
<temp>0.00</temp>
<bpm>0</bpm>
<rpm>0.00</rpm>
</extensions>
</trkpt>
<trkpt lat="64.058692932" lon="-19.365180969">
<ele>545.156250</ele>
<time>2012-07-21T21:35:24Z</time>
<speed>1.170000</speed>
<extensions>
<speed>1.2</speed>
<temp>0.00</temp>
<bpm>0</bpm>
<rpm>0.00</rpm>
</extensions>
</trkpt>
<trkpt lat="64.058677673" lon="-19.365079880">
<ele>545.156250</ele>
<time>2012-07-21T21:35:29Z</time>
<speed>1.030000</speed>
<extensions>
<speed>1.0</speed>
<temp>0.00</temp>
<bpm>0</bpm>
<rpm>0.00</rpm>
</extensions>
</trkpt>
<trkpt lat="64.058670044" lon="-19.365003586">
<ele>544.703125</ele>
<time>2012-07-21T21:35:34Z</time>
<speed>0.510000</speed>
<extensions>
<speed>0.5</speed>
<temp>0.00</temp>
<bpm>0</bpm>
<rpm>0.00</rpm>
</extensions>
</trkpt>
<trkpt lat="64.058647156" lon="-19.364971161">
<ele>545.015625</ele>
<time>2012-07-21T21:35:39Z</time>
<extensions>
<speed>0.0</speed>
<temp>0.00</temp>
<bpm>0</bpm>
<rpm>0.00</rpm>
</extensions>
</trkpt>
<trkpt lat="64.058647156" lon="-19.364971161">
<ele>545.046875</ele>
<time>2012-07-21T21:35:44Z</time>
<extensions>
<speed>0.0</speed>
<temp>0.00</temp>
<bpm>0</bpm>
<rpm>0.00</rpm>
</extensions>
</trkpt>
<trkpt lat="64.058647156" lon="-19.364967346">
<ele>545.000000</ele>
<time>2012-07-21T21:35:49Z</time>
<speed>0.180000</speed>
<extensions>
<speed>0.2</speed>
<temp>0.00</temp>
<bpm>0</bpm>
<rpm>0.00</rpm>
</extensions>
</trkpt>
<trkpt lat="64.058631897" lon="-19.364923477">
<ele>545.218750</ele>
<time>2012-07-21T21:35:54Z</time>
<speed>1.220000</speed>
<extensions>
<speed>1.2</speed>
<temp>0.00</temp>
<bpm>0</bpm>
<rpm>0.00</rpm>
</extensions>
</trkpt>
<trkpt lat="64.058609009" lon="-19.364812851">
<ele>545.234375</ele>
<time>2012-07-21T21:35:59Z</time>
<speed>1.290000</speed>
<extensions>
<speed>1.3</speed>
<temp>0.00</temp>
<bpm>0</bpm>
<rpm>0.00</rpm>
</extensions>
</trkpt>
<trkpt lat="64.058586121" lon="-19.364723206">
<ele>545.140625</ele>
<time>2012-07-21T21:36:04Z</time>
<speed>0.730000</speed>
<extensions>
<speed>0.7</speed>
<temp>0.00</temp>
<bpm>0</bpm>
<rpm>0.00</rpm>
</extensions>
</trkpt>
<trkpt lat="64.058586121" lon="-19.364711761">
<ele>545.500000</ele>
<time>2012-07-21T21:36:09Z</time>
<speed>0.040000</speed>
<extensions>
<speed>0.0</speed>
<temp>0.00</temp>
<bpm>0</bpm>
<rpm>0.00</rpm>
</extensions>
</trkpt>
<trkpt lat="64.058586121" lon="-19.364717484">
<ele>545.468750</ele>
<time>2012-07-21T21:36:14Z</time>
<speed>0.020000</speed>
<extensions>
<speed>0.0</speed>
<temp>0.00</temp>
<bpm>0</bpm>
<rpm>0.00</rpm>
</extensions>
</trkpt>
<trkpt lat="64.058570862" lon="-19.364694595">
<ele>546.093750</ele>
<time>2012-07-21T21:36:19Z</time>
<speed>0.490000</speed>
<extensions>
<speed>0.5</speed>
<temp>0.00</temp>
<bpm>0</bpm>
<rpm>0.00</rpm>
</extensions>
</trkpt>
<trkpt lat="64.058563232" lon="-19.364704132">
<ele>545.093750</ele>
<time>2012-07-21T21:36:24Z</time>
<speed>0.010000</speed>
<extensions>
<speed>0.0</speed>
<temp>0.00</temp>
<bpm>0</bpm>
<rpm>0.00</rpm>
</extensions>
</trkpt>
<trkpt lat="64.058563232" lon="-19.364704132">
<ele>545.062500</ele>
<time>2012-07-21T21:36:29Z</time>
<speed>0.010000</speed>
<extensions>
<speed>0.0</speed>
<temp>0.00</temp>
<bpm>0</bpm>
<rpm>0.00</rpm>
</extensions>
</trkpt>
<trkpt lat="64.058563232" lon="-19.364704132">
<ele>545.093750</ele>
<time>2012-07-21T21:36:34Z</time>
<speed>0.050000</speed>
<extensions>
<speed>0.1</speed>
<temp>0.00</temp>
<bpm>0</bpm>
<rpm>0.00</rpm>
</extensions>
</trkpt>
<trkpt lat="64.058563232" lon="-19.364702225">
<ele>545.109375</ele>
<time>2012-07-21T21:36:39Z</time>
<speed>0.010000</speed>
<extensions>
<speed>0.0</speed>
<temp>0.00</temp>
<bpm>0</bpm>
<rpm>0.00</rpm>
</extensions>
</trkpt>
<trkpt lat="64.058563232" lon="-19.364702225">
<ele>545.140625</ele>
<time>2012-07-21T21:36:44Z</time>
<speed>0.010000</speed>
<extensions>
<speed>0.0</speed>
<temp>0.00</temp>
<bpm>0</bpm>
<rpm>0.00</rpm>
</extensions>
</trkpt>
<trkpt lat="64.058563232" lon="-19.364702225">
<ele>545.140625</ele>
<time>2012-07-21T21:36:49Z</time>
<extensions>
<speed>0.0</speed>
<temp>0.00</temp>
<bpm>0</bpm>
<rpm>0.00</rpm>
</extensions>
</trkpt>
<trkpt lat="64.058563232" lon="-19.364702225">
<ele>545.156250</ele>
<time>2012-07-21T21:36:54Z</time>
<speed>0.010000</speed>
<extensions>
<speed>0.0</speed>
<temp>0.00</temp>
<bpm>0</bpm>
<rpm>0.00</rpm>
</extensions>
</trkpt>
<trkpt lat="64.058563232" lon="-19.364702225">
<ele>545.156250</ele>
<time>2012-07-21T21:36:59Z</time>
<extensions>
<speed>0.0</speed>
<temp>0.00</temp>
<bpm>0</bpm>
<rpm>0.00</rpm>
</extensions>
</trkpt>
<trkpt lat="64.058563232" lon="-19.364702225">
<ele>545.171875</ele>
<time>2012-07-21T21:37:04Z</time>
<speed>0.010000</speed>
<extensions>
<speed>0.0</speed>
<temp>0.00</temp>
<bpm>0</bpm>
<rpm>0.00</rpm>
</extensions>
</trkpt>
<trkpt lat="64.058563232" lon="-19.364702225">
<ele>545.187500</ele>
<time>2012-07-21T21:37:09Z</time>
<extensions>
<speed>0.0</speed>
<temp>0.00</temp>
<bpm>0</bpm>
<rpm>0.00</rpm>
</extensions>
</trkpt>
<trkpt lat="64.058563232" lon="-19.364702225">
<ele>545.203125</ele>
<time>2012-07-21T21:37:14Z</time>
<extensions>
<speed>0.0</speed>
<temp>0.00</temp>
<bpm>0</bpm>
<rpm>0.00</rpm>
</extensions>
</trkpt>
<trkpt lat="64.058563232" lon="-19.364702225">
<ele>545.218750</ele>
<time>2012-07-21T21:37:19Z</time>
<speed>0.020000</speed>
<extensions>
<speed>0.0</speed>
<temp>0.00</temp>
<bpm>0</bpm>
<rpm>0.00</rpm>
</extensions>
</trkpt>
<trkpt lat="64.058570862" lon="-19.364702225">
<ele>545.234375</ele>
<time>2012-07-21T21:37:24Z</time>
<extensions>
<speed>0.0</speed>
<temp>0.00</temp>
<bpm>0</bpm>
<rpm>0.00</rpm>
</extensions>
</trkpt>
<trkpt lat="64.058570862" lon="-19.364702225">
<ele>545.250000</ele>
<time>2012-07-21T21:37:29Z</time>
<extensions>
<speed>0.0</speed>
<temp>0.00</temp>
<bpm>0</bpm>
<rpm>0.00</rpm>
</extensions>
</trkpt>
<trkpt lat="64.058570862" lon="-19.364702225">
<ele>545.265625</ele>
<time>2012-07-21T21:37:34Z</time>
<extensions>
<speed>0.0</speed>
<temp>0.00</temp>
<bpm>0</bpm>
<rpm>0.00</rpm>
</extensions>
</trkpt>
<trkpt lat="64.058570862" lon="-19.364702225">
<ele>545.281250</ele>
<time>2012-07-21T21:37:39Z</time>
<extensions>
<speed>0.0</speed>
<temp>0.00</temp>
<bpm>0</bpm>
<rpm>0.00</rpm>
</extensions>
</trkpt>
<trkpt lat="64.058563232" lon="-19.364702225">
<ele>545.296875</ele>
<time>2012-07-21T21:37:44Z</time>
<speed>0.010000</speed>
<extensions>
<speed>0.0</speed>
<temp>0.00</temp>
<bpm>0</bpm>
<rpm>0.00</rpm>
</extensions>
</trkpt>
<trkpt lat="64.058563232" lon="-19.364702225">
<ele>545.296875</ele>
<time>2012-07-21T21:37:49Z</time>
<extensions>
<speed>0.0</speed>
<temp>0.00</temp>
<bpm>0</bpm>
<rpm>0.00</rpm>
</extensions>
</trkpt>
<trkpt lat="64.058563232" lon="-19.364702225">
<ele>545.312500</ele>
<time>2012-07-21T21:37:54Z</time>
<extensions>
<speed>0.0</speed>
<temp>0.00</temp>
<bpm>0</bpm>
<rpm>0.00</rpm>
</extensions>
</trkpt>
<trkpt lat="64.058563232" lon="-19.364702225">
<ele>545.328125</ele>
<time>2012-07-21T21:37:59Z</time>
<extensions>
<speed>0.0</speed>
<temp>0.00</temp>
<bpm>0</bpm>
<rpm>0.00</rpm>
</extensions>
</trkpt>
<trkpt lat="64.058563232" lon="-19.364702225">
<ele>545.343750</ele>
<time>2012-07-21T21:38:04Z</time>
<extensions>
<speed>0.0</speed>
<temp>0.00</temp>
<bpm>0</bpm>
<rpm>0.00</rpm>
</extensions>
</trkpt>
<trkpt lat="64.058563232" lon="-19.364702225">
<ele>545.359375</ele>
<time>2012-07-21T21:38:09Z</time>
<extensions>
<speed>0.0</speed>
<temp>0.00</temp>
<bpm>0</bpm>
<rpm>0.00</rpm>
</extensions>
</trkpt>
<trkpt lat="64.058563232" lon="-19.364702225">
<ele>545.375000</ele>
<time>2012-07-21T21:38:14Z</time>
<extensions>
<speed>0.0</speed>
<temp>0.00</temp>
<bpm>0</bpm>
<rpm>0.00</rpm>
</extensions>
</trkpt>
<trkpt lat="64.058563232" lon="-19.364702225">
<ele>545.390625</ele>
<time>2012-07-21T21:38:19Z</time>
<extensions>
<speed>0.0</speed>
<temp>0.00</temp>
<bpm>0</bpm>
<rpm>0.00</rpm>
</extensions>
</trkpt>
<trkpt lat="64.058563232" lon="-19.364702225">
<ele>545.406250</ele>
<time>2012-07-21T21:38:24Z</time>
<extensions>
<speed>0.0</speed>
<temp>0.00</temp>
<bpm>0</bpm>
<rpm>0.00</rpm>
</extensions>
</trkpt>
<trkpt lat="64.058563232" lon="-19.364702225">
<ele>545.421875</ele>
<time>2012-07-21T21:38:29Z</time>
<extensions>
<speed>0.0</speed>
<temp>0.00</temp>
<bpm>0</bpm>
<rpm>0.00</rpm>
</extensions>
</trkpt>
<trkpt lat="64.058563232" lon="-19.364702225">
<ele>545.437500</ele>
<time>2012-07-21T21:38:34Z</time>
<extensions>
<speed>0.0</speed>
<temp>0.00</temp>
<bpm>0</bpm>
<rpm>0.00</rpm>
</extensions>
</trkpt>
<trkpt lat="64.058563232" lon="-19.364702225">
<ele>545.453125</ele>
<time>2012-07-21T21:38:39Z</time>
<extensions>
<speed>0.0</speed>
<temp>0.00</temp>
<bpm>0</bpm>
<rpm>0.00</rpm>
</extensions>
</trkpt>
<trkpt lat="64.058570862" lon="-19.364702225">
<ele>545.468750</ele>
<time>2012-07-21T21:38:44Z</time>
<extensions>
<speed>0.0</speed>
<temp>0.00</temp>
<bpm>0</bpm>
<rpm>0.00</rpm>
</extensions>
</trkpt>
<trkpt lat="64.058570862" lon="-19.364702225">
<ele>545.484375</ele>
<time>2012-07-21T21:38:49Z</time>
<extensions>
<speed>0.0</speed>
<temp>0.00</temp>
<bpm>0</bpm>
<rpm>0.00</rpm>
</extensions>
</trkpt>
<trkpt lat="64.058570862" lon="-19.364702225">
<ele>545.500000</ele>
<time>2012-07-21T21:38:54Z</time>
<extensions>
<speed>0.0</speed>
<temp>0.00</temp>
<bpm>0</bpm>
<rpm>0.00</rpm>
</extensions>
</trkpt>
<trkpt lat="64.058570862" lon="-19.364702225">
<ele>545.515625</ele>
<time>2012-07-21T21:38:59Z</time>
<extensions>
<speed>0.0</speed>
<temp>0.00</temp>
<bpm>0</bpm>
<rpm>0.00</rpm>
</extensions>
</trkpt>
<trkpt lat="64.058570862" lon="-19.364702225">
<ele>545.531250</ele>
<time>2012-07-21T21:39:04Z</time>
<speed>0.010000</speed>
<extensions>
<speed>0.0</speed>
<temp>0.00</temp>
<bpm>0</bpm>
<rpm>0.00</rpm>
</extensions>
</trkpt>
<trkpt lat="64.058570862" lon="-19.364702225">
<ele>545.546875</ele>
<time>2012-07-21T21:39:09Z</time>
<extensions>
<speed>0.0</speed>
<temp>0.00</temp>
<bpm>0</bpm>
<rpm>0.00</rpm>
</extensions>
</trkpt>
<trkpt lat="64.058570862" lon="-19.364702225">
<ele>545.562500</ele>
<time>2012-07-21T21:39:14Z</time>
<speed>0.010000</speed>
<extensions>
<speed>0.0</speed>
<temp>0.00</temp>
<bpm>0</bpm>
<rpm>0.00</rpm>
</extensions>
</trkpt>
<trkpt lat="64.058570862" lon="-19.364702225">
<ele>545.562500</ele>
<time>2012-07-21T21:39:19Z</time>
<extensions>
<speed>0.0</speed>
<temp>0.00</temp>
<bpm>0</bpm>
<rpm>0.00</rpm>
</extensions>
</trkpt>
<trkpt lat="64.058570862" lon="-19.364702225">
<ele>545.578125</ele>
<time>2012-07-21T21:39:24Z</time>
<extensions>
<speed>0.0</speed>
<temp>0.00</temp>
<bpm>0</bpm>
<rpm>0.00</rpm>
</extensions>
</trkpt>
<trkpt lat="64.058570862" lon="-19.364702225">
<ele>545.609375</ele>
<time>2012-07-21T21:39:29Z</time>
<extensions>
<speed>0.0</speed>
<temp>0.00</temp>
<bpm>0</bpm>
<rpm>0.00</rpm>
</extensions>
</trkpt>
<trkpt lat="64.058570862" lon="-19.364702225">
<ele>545.625000</ele>
<time>2012-07-21T21:39:34Z</time>
<extensions>
<speed>0.0</speed>
<temp>0.00</temp>
<bpm>0</bpm>
<rpm>0.00</rpm>
</extensions>
</trkpt>
<trkpt lat="64.058570862" lon="-19.364702225">
<ele>545.640625</ele>
<time>2012-07-21T21:39:39Z</time>
<extensions>
<speed>0.0</speed>
<temp>0.00</temp>
<bpm>0</bpm>
<rpm>0.00</rpm>
</extensions>
</trkpt>
<trkpt lat="64.058570862" lon="-19.364702225">
<ele>545.656250</ele>
<time>2012-07-21T21:39:44Z</time>
<extensions>
<speed>0.0</speed>
<temp>0.00</temp>
<bpm>0</bpm>
<rpm>0.00</rpm>
</extensions>
</trkpt>
<trkpt lat="64.058570862" lon="-19.364704132">
<ele>545.671875</ele>
<time>2012-07-21T21:39:49Z</time>
<extensions>
<speed>0.0</speed>
<temp>0.00</temp>
<bpm>0</bpm>
<rpm>0.00</rpm>
</extensions>
</trkpt>
<trkpt lat="64.058570862" lon="-19.364704132">
<ele>545.687500</ele>
<time>2012-07-21T21:39:54Z</time>
<extensions>
<speed>0.0</speed>
<temp>0.00</temp>
<bpm>0</bpm>
<rpm>0.00</rpm>
</extensions>
</trkpt>
<trkpt lat="64.058570862" lon="-19.364704132">
<ele>545.703125</ele>
<time>2012-07-21T21:39:59Z</time>
<extensions>
<speed>0.0</speed>
<temp>0.00</temp>
<bpm>0</bpm>
<rpm>0.00</rpm>
</extensions>
</trkpt>
<trkpt lat="64.058570862" lon="-19.364704132">
<ele>545.718750</ele>
<time>2012-07-21T21:40:04Z</time>
<extensions>
<speed>0.0</speed>
<temp>0.00</temp>
<bpm>0</bpm>
<rpm>0.00</rpm>
</extensions>
</trkpt>
<trkpt lat="64.058570862" lon="-19.364704132">
<ele>545.734375</ele>
<time>2012-07-21T21:40:09Z</time>
<extensions>
<speed>0.0</speed>
<temp>0.00</temp>
<bpm>0</bpm>
<rpm>0.00</rpm>
</extensions>
</trkpt>
<trkpt lat="64.058570862" lon="-19.364704132">
<ele>545.750000</ele>
<time>2012-07-21T21:40:14Z</time>
<extensions>
<speed>0.0</speed>
<temp>0.00</temp>
<bpm>0</bpm>
<rpm>0.00</rpm>
</extensions>
</trkpt>
<trkpt lat="64.058570862" lon="-19.364704132">
<ele>545.765625</ele>
<time>2012-07-21T21:40:19Z</time>
<extensions>
<speed>0.0</speed>
<temp>0.00</temp>
<bpm>0</bpm>
<rpm>0.00</rpm>
</extensions>
</trkpt>
<trkpt lat="64.058570862" lon="-19.364704132">
<ele>545.765625</ele>
<time>2012-07-21T21:40:24Z</time>
<extensions>
<speed>0.0</speed>
<temp>0.00</temp>
<bpm>0</bpm>
<rpm>0.00</rpm>
</extensions>
</trkpt>
<trkpt lat="64.058570862" lon="-19.364704132">
<ele>545.781250</ele>
<time>2012-07-21T21:40:29Z</time>
<extensions>
<speed>0.0</speed>
<temp>0.00</temp>
<bpm>0</bpm>
<rpm>0.00</rpm>
</extensions>
</trkpt>
<trkpt lat="64.058570862" lon="-19.364704132">
<ele>545.796875</ele>
<time>2012-07-21T21:40:34Z</time>
<extensions>
<speed>0.0</speed>
<temp>0.00</temp>
<bpm>0</bpm>
<rpm>0.00</rpm>
</extensions>
</trkpt>
<trkpt lat="64.058570862" lon="-19.364704132">
<ele>545.812500</ele>
<time>2012-07-21T21:40:39Z</time>
<extensions>
<speed>0.0</speed>
<temp>0.00</temp>
<bpm>0</bpm>
<rpm>0.00</rpm>
</extensions>
</trkpt>
<trkpt lat="64.058570862" lon="-19.364704132">
<ele>545.843750</ele>
<time>2012-07-21T21:40:44Z</time>
<speed>0.020000</speed>
<extensions>
<speed>0.0</speed>
<temp>0.00</temp>
<bpm>0</bpm>
<rpm>0.00</rpm>
</extensions>
</trkpt>
<trkpt lat="64.058570862" lon="-19.364704132">
<ele>545.843750</ele>
<time>2012-07-21T21:40:49Z</time>
<extensions>
<speed>0.0</speed>
<temp>0.00</temp>
<bpm>0</bpm>
<rpm>0.00</rpm>
</extensions>
</trkpt>
<trkpt lat="64.058570862" lon="-19.364704132">
<ele>545.875000</ele>
<time>2012-07-21T21:40:54Z</time>
<extensions>
<speed>0.0</speed>
<temp>0.00</temp>
<bpm>0</bpm>
<rpm>0.00</rpm>
</extensions>
</trkpt>
<trkpt lat="64.058570862" lon="-19.364704132">
<ele>545.875000</ele>
<time>2012-07-21T21:40:59Z</time>
<extensions>
<speed>0.0</speed>
<temp>0.00</temp>
<bpm>0</bpm>
<rpm>0.00</rpm>
</extensions>
</trkpt>
<trkpt lat="64.058570862" lon="-19.364704132">
<ele>545.890625</ele>
<time>2012-07-21T21:41:04Z</time>
<extensions>
<speed>0.0</speed>
<temp>0.00</temp>
<bpm>0</bpm>
<rpm>0.00</rpm>
</extensions>
</trkpt>
<trkpt lat="64.058570862" lon="-19.364704132">
<ele>545.921875</ele>
<time>2012-07-21T21:41:09Z</time>
<extensions>
<speed>0.0</speed>
<temp>0.00</temp>
<bpm>0</bpm>
<rpm>0.00</rpm>
</extensions>
</trkpt>
<trkpt lat="64.058570862" lon="-19.364704132">
<ele>545.937500</ele>
<time>2012-07-21T21:41:14Z</time>
<extensions>
<speed>0.0</speed>
<temp>0.00</temp>
<bpm>0</bpm>
<rpm>0.00</rpm>
</extensions>
</trkpt>
<trkpt lat="64.058570862" lon="-19.364704132">
<ele>545.953125</ele>
<time>2012-07-21T21:41:19Z</time>
<extensions>
<speed>0.0</speed>
<temp>0.00</temp>
<bpm>0</bpm>
<rpm>0.00</rpm>
</extensions>
</trkpt>
<trkpt lat="64.058570862" lon="-19.364704132">
<ele>545.968750</ele>
<time>2012-07-21T21:41:24Z</time>
<extensions>
<speed>0.0</speed>
<temp>0.00</temp>
<bpm>0</bpm>
<rpm>0.00</rpm>
</extensions>
</trkpt>
<trkpt lat="64.058570862" lon="-19.364704132">
<ele>546.000000</ele>
<time>2012-07-21T21:41:29Z</time>
<extensions>
<speed>0.0</speed>
<temp>0.00</temp>
<bpm>0</bpm>
<rpm>0.00</rpm>
</extensions>
</trkpt>
<trkpt lat="64.058570862" lon="-19.364704132">
<ele>546.031250</ele>
<time>2012-07-21T21:41:34Z</time>
<extensions>
<speed>0.0</speed>
<temp>0.00</temp>
<bpm>0</bpm>
<rpm>0.00</rpm>
</extensions>
</trkpt>
<trkpt lat="64.058570862" lon="-19.364704132">
<ele>546.062500</ele>
<time>2012-07-21T21:41:39Z</time>
<extensions>
<speed>0.0</speed>
<temp>0.00</temp>
<bpm>0</bpm>
<rpm>0.00</rpm>
</extensions>
</trkpt>
<trkpt lat="64.058570862" lon="-19.364706039">
<ele>546.078125</ele>
<time>2012-07-21T21:41:44Z</time>
<extensions>
<speed>0.0</speed>
<temp>0.00</temp>
<bpm>0</bpm>
<rpm>0.00</rpm>
</extensions>
</trkpt>
<trkpt lat="64.058570862" lon="-19.364706039">
<ele>546.109375</ele>
<time>2012-07-21T21:41:49Z</time>
<extensions>
<speed>0.0</speed>
<temp>0.00</temp>
<bpm>0</bpm>
<rpm>0.00</rpm>
</extensions>
</trkpt>
<trkpt lat="64.058570862" lon="-19.364706039">
<ele>546.140625</ele>
<time>2012-07-21T21:41:54Z</time>
<extensions>
<speed>0.0</speed>
<temp>0.00</temp>
<bpm>0</bpm>
<rpm>0.00</rpm>
</extensions>
</trkpt>
<trkpt lat="64.058570862" lon="-19.364706039">
<ele>546.156250</ele>
<time>2012-07-21T21:41:59Z</time>
<extensions>
<speed>0.0</speed>
<temp>0.00</temp>
<bpm>0</bpm>
<rpm>0.00</rpm>
</extensions>
</trkpt>
<trkpt lat="64.058570862" lon="-19.364706039">
<ele>546.171875</ele>
<time>2012-07-21T21:42:04Z</time>
<extensions>
<speed>0.0</speed>
<temp>0.00</temp>
<bpm>0</bpm>
<rpm>0.00</rpm>
</extensions>
</trkpt>
<trkpt lat="64.058563232" lon="-19.364706039">
<ele>546.171875</ele>
<time>2012-07-21T21:42:09Z</time>
<extensions>
<speed>0.0</speed>
<temp>0.00</temp>
<bpm>0</bpm>
<rpm>0.00</rpm>
</extensions>
</trkpt>
<trkpt lat="64.058563232" lon="-19.364706039">
<ele>546.187500</ele>
<time>2012-07-21T21:42:14Z</time>
<speed>0.010000</speed>
<extensions>
<speed>0.0</speed>
<temp>0.00</temp>
<bpm>0</bpm>
<rpm>0.00</rpm>
</extensions>
</trkpt>
<trkpt lat="64.058563232" lon="-19.364706039">
<ele>546.203125</ele>
<time>2012-07-21T21:42:19Z</time>
<extensions>
<speed>0.0</speed>
<temp>0.00</temp>
<bpm>0</bpm>
<rpm>0.00</rpm>
</extensions>
</trkpt>
<trkpt lat="64.058563232" lon="-19.364706039">
<ele>546.218750</ele>
<time>2012-07-21T21:42:24Z</time>
<extensions>
<speed>0.0</speed>
<temp>0.00</temp>
<bpm>0</bpm>
<rpm>0.00</rpm>
</extensions>
</trkpt>
<trkpt lat="64.058563232" lon="-19.364706039">
<ele>546.234375</ele>
<time>2012-07-21T21:42:29Z</time>
<extensions>
<speed>0.0</speed>
<temp>0.00</temp>
<bpm>0</bpm>
<rpm>0.00</rpm>
</extensions>
</trkpt>
<trkpt lat="64.058563232" lon="-19.364706039">
<ele>546.250000</ele>
<time>2012-07-21T21:42:34Z</time>
<extensions>
<speed>0.0</speed>
<temp>0.00</temp>
<bpm>0</bpm>
<rpm>0.00</rpm>
</extensions>
</trkpt>
<trkpt lat="64.058563232" lon="-19.364706039">
<ele>546.250000</ele>
<time>2012-07-21T21:42:39Z</time>
<extensions>
<speed>0.0</speed>
<temp>0.00</temp>
<bpm>0</bpm>
<rpm>0.00</rpm>
</extensions>
</trkpt>
<trkpt lat="64.058563232" lon="-19.364706039">
<ele>546.265625</ele>
<time>2012-07-21T21:42:44Z</time>
<speed>0.010000</speed>
<extensions>
<speed>0.0</speed>
<temp>0.00</temp>
<bpm>0</bpm>
<rpm>0.00</rpm>
</extensions>
</trkpt>
<trkpt lat="64.058563232" lon="-19.364706039">
<ele>546.281250</ele>
<time>2012-07-21T21:42:49Z</time>
<speed>0.010000</speed>
<extensions>
<speed>0.0</speed>
<temp>0.00</temp>
<bpm>0</bpm>
<rpm>0.00</rpm>
</extensions>
</trkpt>
<trkpt lat="64.058563232" lon="-19.364706039">
<ele>546.312500</ele>
<time>2012-07-21T21:42:54Z</time>
<extensions>
<speed>0.0</speed>
<temp>0.00</temp>
<bpm>0</bpm>
<rpm>0.00</rpm>
</extensions>
</trkpt>
<trkpt lat="64.058563232" lon="-19.364707947">
<ele>546.328125</ele>
<time>2012-07-21T21:42:59Z</time>
<extensions>
<speed>0.0</speed>
<temp>0.00</temp>
<bpm>0</bpm>
<rpm>0.00</rpm>
</extensions>
</trkpt>
<trkpt lat="64.058563232" lon="-19.364707947">
<ele>546.343750</ele>
<time>2012-07-21T21:43:04Z</time>
<extensions>
<speed>0.0</speed>
<temp>0.00</temp>
<bpm>0</bpm>
<rpm>0.00</rpm>
</extensions>
</trkpt>
<trkpt lat="64.058563232" lon="-19.364706039">
<ele>546.375000</ele>
<time>2012-07-21T21:43:09Z</time>
<extensions>
<speed>0.0</speed>
<temp>0.00</temp>
<bpm>0</bpm>
<rpm>0.00</rpm>
</extensions>
</trkpt>
<trkpt lat="64.058563232" lon="-19.364707947">
<ele>546.375000</ele>
<time>2012-07-21T21:43:14Z</time>
<extensions>
<speed>0.0</speed>
<temp>0.00</temp>
<bpm>0</bpm>
<rpm>0.00</rpm>
</extensions>
</trkpt>
<trkpt lat="64.058563232" lon="-19.364707947">
<ele>546.406250</ele>
<time>2012-07-21T21:43:19Z</time>
<extensions>
<speed>0.0</speed>
<temp>0.00</temp>
<bpm>0</bpm>
<rpm>0.00</rpm>
</extensions>
</trkpt>
<trkpt lat="64.058563232" lon="-19.364707947">
<ele>546.406250</ele>
<time>2012-07-21T21:43:24Z</time>
<extensions>
<speed>0.0</speed>
<temp>0.00</temp>
<bpm>0</bpm>
<rpm>0.00</rpm>
</extensions>
</trkpt>
<trkpt lat="64.058563232" lon="-19.364707947">
<ele>546.421875</ele>
<time>2012-07-21T21:43:29Z</time>
<extensions>
<speed>0.0</speed>
<temp>0.00</temp>
<bpm>0</bpm>
<rpm>0.00</rpm>
</extensions>
</trkpt>
<trkpt lat="64.058563232" lon="-19.364707947">
<ele>546.437500</ele>
<time>2012-07-21T21:43:34Z</time>
<extensions>
<speed>0.0</speed>
<temp>0.00</temp>
<bpm>0</bpm>
<rpm>0.00</rpm>
</extensions>
</trkpt>
<trkpt lat="64.058563232" lon="-19.364707947">
<ele>546.453125</ele>
<time>2012-07-21T21:43:39Z</time>
<extensions>
<speed>0.0</speed>
<temp>0.00</temp>
<bpm>0</bpm>
<rpm>0.00</rpm>
</extensions>
</trkpt>
<trkpt lat="64.058563232" lon="-19.364707947">
<ele>546.453125</ele>
<time>2012-07-21T21:43:44Z</time>
<extensions>
<speed>0.0</speed>
<temp>0.00</temp>
<bpm>0</bpm>
<rpm>0.00</rpm>
</extensions>
</trkpt>
<trkpt lat="64.058563232" lon="-19.364707947">
<ele>546.468750</ele>
<time>2012-07-21T21:43:49Z</time>
<speed>0.010000</speed>
<extensions>
<speed>0.0</speed>
<temp>0.00</temp>
<bpm>0</bpm>
<rpm>0.00</rpm>
</extensions>
</trkpt>
<trkpt lat="64.058563232" lon="-19.364707947">
<ele>546.484375</ele>
<time>2012-07-21T21:43:54Z</time>
<extensions>
<speed>0.0</speed>
<temp>0.00</temp>
<bpm>0</bpm>
<rpm>0.00</rpm>
</extensions>
</trkpt>
<trkpt lat="64.058563232" lon="-19.364707947">
<ele>546.500000</ele>
<time>2012-07-21T21:43:59Z</time>
<extensions>
<speed>0.0</speed>
<temp>0.00</temp>
<bpm>0</bpm>
<rpm>0.00</rpm>
</extensions>
</trkpt>
<trkpt lat="64.058563232" lon="-19.364707947">
<ele>546.515625</ele>
<time>2012-07-21T21:44:04Z</time>
<speed>0.010000</speed>
<extensions>
<speed>0.0</speed>
<temp>0.00</temp>
<bpm>0</bpm>
<rpm>0.00</rpm>
</extensions>
</trkpt>
<trkpt lat="64.058563232" lon="-19.364707947">
<ele>546.531250</ele>
<time>2012-07-21T21:44:09Z</time>
<extensions>
<speed>0.0</speed>
<temp>0.00</temp>
<bpm>0</bpm>
<rpm>0.00</rpm>
</extensions>
</trkpt>
<trkpt lat="64.058563232" lon="-19.364707947">
<ele>546.546875</ele>
<time>2012-07-21T21:44:14Z</time>
<extensions>
<speed>0.0</speed>
<temp>0.00</temp>
<bpm>0</bpm>
<rpm>0.00</rpm>
</extensions>
</trkpt>
<trkpt lat="64.058563232" lon="-19.364707947">
<ele>546.546875</ele>
<time>2012-07-21T21:44:19Z</time>
<extensions>
<speed>0.0</speed>
<temp>0.00</temp>
<bpm>0</bpm>
<rpm>0.00</rpm>
</extensions>
</trkpt>
<trkpt lat="64.058563232" lon="-19.364707947">
<ele>546.562500</ele>
<time>2012-07-21T21:44:24Z</time>
<extensions>
<speed>0.0</speed>
<temp>0.00</temp>
<bpm>0</bpm>
<rpm>0.00</rpm>
</extensions>
</trkpt>
<trkpt lat="64.058563232" lon="-19.364707947">
<ele>546.578125</ele>
<time>2012-07-21T21:44:29Z</time>
<extensions>
<speed>0.0</speed>
<temp>0.00</temp>
<bpm>0</bpm>
<rpm>0.00</rpm>
</extensions>
</trkpt>
<trkpt lat="64.058563232" lon="-19.364707947">
<ele>546.593750</ele>
<time>2012-07-21T21:44:34Z</time>
<extensions>
<speed>0.0</speed>
<temp>0.00</temp>
<bpm>0</bpm>
<rpm>0.00</rpm>
</extensions>
</trkpt>
<trkpt lat="64.058563232" lon="-19.364707947">
<ele>546.625000</ele>
<time>2012-07-21T21:44:39Z</time>
<extensions>
<speed>0.0</speed>
<temp>0.00</temp>
<bpm>0</bpm>
<rpm>0.00</rpm>
</extensions>
</trkpt>
<trkpt lat="64.058563232" lon="-19.364707947">
<ele>546.625000</ele>
<time>2012-07-21T21:44:44Z</time>
<speed>0.010000</speed>
<extensions>
<speed>0.0</speed>
<temp>0.00</temp>
<bpm>0</bpm>
<rpm>0.00</rpm>
</extensions>
</trkpt>
<trkpt lat="64.058563232" lon="-19.364707947">
<ele>546.656250</ele>
<time>2012-07-21T21:44:49Z</time>
<extensions>
<speed>0.0</speed>
<temp>0.00</temp>
<bpm>0</bpm>
<rpm>0.00</rpm>
</extensions>
</trkpt>
<trkpt lat="64.058563232" lon="-19.364707947">
<ele>546.671875</ele>
<time>2012-07-21T21:44:54Z</time>
<speed>0.010000</speed>
<extensions>
<speed>0.0</speed>
<temp>0.00</temp>
<bpm>0</bpm>
<rpm>0.00</rpm>
</extensions>
</trkpt>
<trkpt lat="64.058563232" lon="-19.364707947">
<ele>546.687500</ele>
<time>2012-07-21T21:44:59Z</time>
<extensions>
<speed>0.0</speed>
<temp>0.00</temp>
<bpm>0</bpm>
<rpm>0.00</rpm>
</extensions>
</trkpt>
<trkpt lat="64.058563232" lon="-19.364707947">
<ele>546.687500</ele>
<time>2012-07-21T21:45:04Z</time>
<extensions>
<speed>0.0</speed>
<temp>0.00</temp>
<bpm>0</bpm>
<rpm>0.00</rpm>
</extensions>
</trkpt>
<trkpt lat="64.058563232" lon="-19.364709854">
<ele>546.703125</ele>
<time>2012-07-21T21:45:09Z</time>
<speed>0.010000</speed>
<extensions>
<speed>0.0</speed>
<temp>0.00</temp>
<bpm>0</bpm>
<rpm>0.00</rpm>
</extensions>
</trkpt>
<trkpt lat="64.058563232" lon="-19.364709854">
<ele>546.718750</ele>
<time>2012-07-21T21:45:14Z</time>
<extensions>
<speed>0.0</speed>
<temp>0.00</temp>
<bpm>0</bpm>
<rpm>0.00</rpm>
</extensions>
</trkpt>
<trkpt lat="64.058563232" lon="-19.364709854">
<ele>546.734375</ele>
<time>2012-07-21T21:45:19Z</time>
<extensions>
<speed>0.0</speed>
<temp>0.00</temp>
<bpm>0</bpm>
<rpm>0.00</rpm>
</extensions>
</trkpt>
<trkpt lat="64.058563232" lon="-19.364709854">
<ele>546.765625</ele>
<time>2012-07-21T21:45:24Z</time>
<extensions>
<speed>0.0</speed>
<temp>0.00</temp>
<bpm>0</bpm>
<rpm>0.00</rpm>
</extensions>
</trkpt>
<trkpt lat="64.058563232" lon="-19.364709854">
<ele>546.781250</ele>
<time>2012-07-21T21:45:29Z</time>
<extensions>
<speed>0.0</speed>
<temp>0.00</temp>
<bpm>0</bpm>
<rpm>0.00</rpm>
</extensions>
</trkpt>
<trkpt lat="64.058563232" lon="-19.364709854">
<ele>546.796875</ele>
<time>2012-07-21T21:45:34Z</time>
<extensions>
<speed>0.0</speed>
<temp>0.00</temp>
<bpm>0</bpm>
<rpm>0.00</rpm>
</extensions>
</trkpt>
<trkpt lat="64.058563232" lon="-19.364709854">
<ele>546.796875</ele>
<time>2012-07-21T21:45:39Z</time>
<extensions>
<speed>0.0</speed>
<temp>0.00</temp>
<bpm>0</bpm>
<rpm>0.00</rpm>
</extensions>
</trkpt>
<trkpt lat="64.058563232" lon="-19.364709854">
<ele>546.828125</ele>
<time>2012-07-21T21:45:44Z</time>
<extensions>
<speed>0.0</speed>
<temp>0.00</temp>
<bpm>0</bpm>
<rpm>0.00</rpm>
</extensions>
</trkpt>
<trkpt lat="64.058563232" lon="-19.364709854">
<ele>546.828125</ele>
<time>2012-07-21T21:45:49Z</time>
<extensions>
<speed>0.0</speed>
<temp>0.00</temp>
<bpm>0</bpm>
<rpm>0.00</rpm>
</extensions>
</trkpt>
<trkpt lat="64.058563232" lon="-19.364709854">
<ele>546.843750</ele>
<time>2012-07-21T21:45:54Z</time>
<extensions>
<speed>0.0</speed>
<temp>0.00</temp>
<bpm>0</bpm>
<rpm>0.00</rpm>
</extensions>
</trkpt>
<trkpt lat="64.058563232" lon="-19.364709854">
<ele>546.859375</ele>
<time>2012-07-21T21:45:59Z</time>
<extensions>
<speed>0.0</speed>
<temp>0.00</temp>
<bpm>0</bpm>
<rpm>0.00</rpm>
</extensions>
</trkpt>
<trkpt lat="64.058563232" lon="-19.364709854">
<ele>546.875000</ele>
<time>2012-07-21T21:46:04Z</time>
<extensions>
<speed>0.0</speed>
<temp>0.00</temp>
<bpm>0</bpm>
<rpm>0.00</rpm>
</extensions>
</trkpt>
<trkpt lat="64.058563232" lon="-19.364709854">
<ele>546.890625</ele>
<time>2012-07-21T21:46:09Z</time>
<extensions>
<speed>0.0</speed>
<temp>0.00</temp>
<bpm>0</bpm>
<rpm>0.00</rpm>
</extensions>
</trkpt>
<trkpt lat="64.058563232" lon="-19.364709854">
<ele>546.906250</ele>
<time>2012-07-21T21:46:14Z</time>
<extensions>
<speed>0.0</speed>
<temp>0.00</temp>
<bpm>0</bpm>
<rpm>0.00</rpm>
</extensions>
</trkpt>
<trkpt lat="64.058563232" lon="-19.364709854">
<ele>546.921875</ele>
<time>2012-07-21T21:46:19Z</time>
<extensions>
<speed>0.0</speed>
<temp>0.00</temp>
<bpm>0</bpm>
<rpm>0.00</rpm>
</extensions>
</trkpt>
<trkpt lat="64.058563232" lon="-19.364709854">
<ele>546.937500</ele>
<time>2012-07-21T21:46:24Z</time>
<extensions>
<speed>0.0</speed>
<temp>0.00</temp>
<bpm>0</bpm>
<rpm>0.00</rpm>
</extensions>
</trkpt>
<trkpt lat="64.058563232" lon="-19.364709854">
<ele>546.953125</ele>
<time>2012-07-21T21:46:29Z</time>
<extensions>
<speed>0.0</speed>
<temp>0.00</temp>
<bpm>0</bpm>
<rpm>0.00</rpm>
</extensions>
</trkpt>
<trkpt lat="64.058563232" lon="-19.364709854">
<ele>546.953125</ele>
<time>2012-07-21T21:46:34Z</time>
<speed>0.010000</speed>
<extensions>
<speed>0.0</speed>
<temp>0.00</temp>
<bpm>0</bpm>
<rpm>0.00</rpm>
</extensions>
</trkpt>
<trkpt lat="64.058563232" lon="-19.364709854">
<ele>546.968750</ele>
<time>2012-07-21T21:46:39Z</time>
<extensions>
<speed>0.0</speed>
<temp>0.00</temp>
<bpm>0</bpm>
<rpm>0.00</rpm>
</extensions>
</trkpt>
<trkpt lat="64.058563232" lon="-19.364709854">
<ele>546.984375</ele>
<time>2012-07-21T21:46:44Z</time>
<extensions>
<speed>0.0</speed>
<temp>0.00</temp>
<bpm>0</bpm>
<rpm>0.00</rpm>
</extensions>
</trkpt>
<trkpt lat="64.058563232" lon="-19.364711761">
<ele>547.000000</ele>
<time>2012-07-21T21:46:49Z</time>
<extensions>
<speed>0.0</speed>
<temp>0.00</temp>
<bpm>0</bpm>
<rpm>0.00</rpm>
</extensions>
</trkpt>
<trkpt lat="64.058563232" lon="-19.364711761">
<ele>547.015625</ele>
<time>2012-07-21T21:46:54Z</time>
<extensions>
<speed>0.0</speed>
<temp>0.00</temp>
<bpm>0</bpm>
<rpm>0.00</rpm>
</extensions>
</trkpt>
<trkpt lat="64.058563232" lon="-19.364711761">
<ele>547.031250</ele>
<time>2012-07-21T21:46:59Z</time>
<extensions>
<speed>0.0</speed>
<temp>0.00</temp>
<bpm>0</bpm>
<rpm>0.00</rpm>
</extensions>
</trkpt>
<trkpt lat="64.058563232" lon="-19.364711761">
<ele>547.046875</ele>
<time>2012-07-21T21:47:04Z</time>
<extensions>
<speed>0.0</speed>
<temp>0.00</temp>
<bpm>0</bpm>
<rpm>0.00</rpm>
</extensions>
</trkpt>
<trkpt lat="64.058563232" lon="-19.364711761">
<ele>547.062500</ele>
<time>2012-07-21T21:47:09Z</time>
<speed>0.010000</speed>
<extensions>
<speed>0.0</speed>
<temp>0.00</temp>
<bpm>0</bpm>
<rpm>0.00</rpm>
</extensions>
</trkpt>
<trkpt lat="64.058563232" lon="-19.364711761">
<ele>547.078125</ele>
<time>2012-07-21T21:47:14Z</time>
<extensions>
<speed>0.0</speed>
<temp>0.00</temp>
<bpm>0</bpm>
<rpm>0.00</rpm>
</extensions>
</trkpt>
<trkpt lat="64.058563232" lon="-19.364711761">
<ele>547.078125</ele>
<time>2012-07-21T21:47:19Z</time>
<extensions>
<speed>0.0</speed>
<temp>0.00</temp>
<bpm>0</bpm>
<rpm>0.00</rpm>
</extensions>
</trkpt>
<trkpt lat="64.058563232" lon="-19.364711761">
<ele>547.093750</ele>
<time>2012-07-21T21:47:24Z</time>
<extensions>
<speed>0.0</speed>
<temp>0.00</temp>
<bpm>0</bpm>
<rpm>0.00</rpm>
</extensions>
</trkpt>
<trkpt lat="64.058563232" lon="-19.364711761">
<ele>547.109375</ele>
<time>2012-07-21T21:47:29Z</time>
<speed>0.010000</speed>
<extensions>
<speed>0.0</speed>
<temp>0.00</temp>
<bpm>0</bpm>
<rpm>0.00</rpm>
</extensions>
</trkpt>
<trkpt lat="64.058563232" lon="-19.364711761">
<ele>547.125000</ele>
<time>2012-07-21T21:47:34Z</time>
<extensions>
<speed>0.0</speed>
<temp>0.00</temp>
<bpm>0</bpm>
<rpm>0.00</rpm>
</extensions>
</trkpt>
<trkpt lat="64.058563232" lon="-19.364711761">
<ele>547.140625</ele>
<time>2012-07-21T21:47:39Z</time>
<extensions>
<speed>0.0</speed>
<temp>0.00</temp>
<bpm>0</bpm>
<rpm>0.00</rpm>
</extensions>
</trkpt>
<trkpt lat="64.058563232" lon="-19.364713669">
<ele>547.296875</ele>
<time>2012-07-21T21:47:44Z</time>
<speed>0.050000</speed>
<extensions>
<speed>0.1</speed>
<temp>0.00</temp>
<bpm>0</bpm>
<rpm>0.00</rpm>
</extensions>
</trkpt>
<trkpt lat="64.058555603" lon="-19.364713669">
<ele>547.562500</ele>
<time>2012-07-21T21:47:49Z</time>
<speed>0.560000</speed>
<extensions>
<speed>0.6</speed>
<temp>0.00</temp>
<bpm>0</bpm>
<rpm>0.00</rpm>
</extensions>
</trkpt>
<trkpt lat="64.058540344" lon="-19.364629745">
<ele>548.500000</ele>
<time>2012-07-21T21:47:54Z</time>
<speed>1.250000</speed>
<extensions>
<speed>1.3</speed>
<temp>0.00</temp>
<bpm>0</bpm>
<rpm>0.00</rpm>
</extensions>
</trkpt>
<trkpt lat="64.058509827" lon="-19.364540100">
<ele>548.437500</ele>
<time>2012-07-21T21:47:59Z</time>
<speed>1.020000</speed>
<extensions>
<speed>1.0</speed>
<temp>0.00</temp>
<bpm>0</bpm>
<rpm>0.00</rpm>
</extensions>
</trkpt>
<trkpt lat="64.058471680" lon="-19.364448547">
<ele>548.421875</ele>
<time>2012-07-21T21:48:04Z</time>
<speed>1.190000</speed>
<extensions>
<speed>1.2</speed>
<temp>0.00</temp>
<bpm>0</bpm>
<rpm>0.00</rpm>
</extensions>
</trkpt>
<trkpt lat="64.058441162" lon="-19.364353180">
<ele>548.234375</ele>
<time>2012-07-21T21:48:09Z</time>
<speed>1.100000</speed>
<extensions>
<speed>1.1</speed>
<temp>0.00</temp>
<bpm>0</bpm>
<rpm>0.00</rpm>
</extensions>
</trkpt>
<trkpt lat="64.058418274" lon="-19.364261627">
<ele>547.859375</ele>
<time>2012-07-21T21:48:14Z</time>
<speed>0.890000</speed>
<extensions>
<speed>0.9</speed>
<temp>0.00</temp>
<bpm>0</bpm>
<rpm>0.00</rpm>
</extensions>
</trkpt>
<trkpt lat="64.058395386" lon="-19.364181519">
<ele>547.703125</ele>
<time>2012-07-21T21:48:19Z</time>
<speed>1.050000</speed>
<extensions>
<speed>1.0</speed>
<temp>0.00</temp>
<bpm>0</bpm>
<rpm>0.00</rpm>
</extensions>
</trkpt>
<trkpt lat="64.058357239" lon="-19.364080429">
<ele>547.468750</ele>
<time>2012-07-21T21:48:24Z</time>
<speed>1.240000</speed>
<extensions>
<speed>1.2</speed>
<temp>0.00</temp>
<bpm>0</bpm>
<rpm>0.00</rpm>
</extensions>
</trkpt>
<trkpt lat="64.058334351" lon="-19.364004135">
<ele>547.328125</ele>
<time>2012-07-21T21:48:29Z</time>
<speed>1.260000</speed>
<extensions>
<speed>1.3</speed>
<temp>0.00</temp>
<bpm>0</bpm>
<rpm>0.00</rpm>
</extensions>
</trkpt>
<trkpt lat="64.058303833" lon="-19.363910675">
<ele>547.750000</ele>
<time>2012-07-21T21:48:34Z</time>
<speed>0.750000</speed>
<extensions>
<speed>0.8</speed>
<temp>0.00</temp>
<bpm>0</bpm>
<rpm>0.00</rpm>
</extensions>
</trkpt>
<trkpt lat="64.058265686" lon="-19.363832474">
<ele>546.812500</ele>
<time>2012-07-21T21:48:39Z</time>
<speed>1.440000</speed>
<extensions>
<speed>1.4</speed>
<temp>0.00</temp>
<bpm>0</bpm>
<rpm>0.00</rpm>
</extensions>
</trkpt>
<trkpt lat="64.058235168" lon="-19.363733292">
<ele>547.765625</ele>
<time>2012-07-21T21:48:44Z</time>
<speed>1.290000</speed>
<extensions>
<speed>1.3</speed>
<temp>0.00</temp>
<bpm>0</bpm>
<rpm>0.00</rpm>
</extensions>
</trkpt>
<trkpt lat="64.058219910" lon="-19.363689423">
<ele>547.937500</ele>
<time>2012-07-21T21:48:49Z</time>
<speed>0.760000</speed>
<extensions>
<speed>0.8</speed>
<temp>0.00</temp>
<bpm>0</bpm>
<rpm>0.00</rpm>
</extensions>
</trkpt>
<trkpt lat="64.058189392" lon="-19.363609314">
<ele>547.390625</ele>
<time>2012-07-21T21:48:54Z</time>
<speed>0.660000</speed>
<extensions>
<speed>0.7</speed>
<temp>0.00</temp>
<bpm>0</bpm>
<rpm>0.00</rpm>
</extensions>
</trkpt>
<trkpt lat="64.058151245" lon="-19.363538742">
<ele>547.703125</ele>
<time>2012-07-21T21:48:59Z</time>
<speed>1.120000</speed>
<extensions>
<speed>1.1</speed>
<temp>0.00</temp>
<bpm>0</bpm>
<rpm>0.00</rpm>
</extensions>
</trkpt>
<trkpt lat="64.058128357" lon="-19.363498688">
<ele>548.093750</ele>
<time>2012-07-21T21:49:04Z</time>
<speed>1.080000</speed>
<extensions>
<speed>1.1</speed>
<temp>0.00</temp>
<bpm>0</bpm>
<rpm>0.00</rpm>
</extensions>
</trkpt>
<trkpt lat="64.058105469" lon="-19.363437653">
<ele>548.984375</ele>
<time>2012-07-21T21:49:09Z</time>
<speed>0.600000</speed>
<extensions>
<speed>0.6</speed>
<temp>0.00</temp>
<bpm>0</bpm>
<rpm>0.00</rpm>
</extensions>
</trkpt>
<trkpt lat="64.058082581" lon="-19.363363266">
<ele>549.953125</ele>
<time>2012-07-21T21:49:14Z</time>
<speed>0.940000</speed>
<extensions>
<speed>0.9</speed>
<temp>0.00</temp>
<bpm>0</bpm>
<rpm>0.00</rpm>
</extensions>
</trkpt>
<trkpt lat="64.058052063" lon="-19.363294601">
<ele>551.234375</ele>
<time>2012-07-21T21:49:19Z</time>
<speed>1.060000</speed>
<extensions>
<speed>1.1</speed>
<temp>0.00</temp>
<bpm>0</bpm>
<rpm>0.00</rpm>
</extensions>
</trkpt>
<trkpt lat="64.058006287" lon="-19.363201141">
<ele>551.890625</ele>
<time>2012-07-21T21:49:24Z</time>
<speed>1.040000</speed>
<extensions>
<speed>1.0</speed>
<temp>0.00</temp>
<bpm>0</bpm>
<rpm>0.00</rpm>
</extensions>
</trkpt>
<trkpt lat="64.057968140" lon="-19.363115311">
<ele>552.140625</ele>
<time>2012-07-21T21:49:29Z</time>
<speed>1.170000</speed>
<extensions>
<speed>1.2</speed>
<temp>0.00</temp>
<bpm>0</bpm>
<rpm>0.00</rpm>
</extensions>
</trkpt>
<trkpt lat="64.057922363" lon="-19.363025665">
<ele>551.703125</ele>
<time>2012-07-21T21:49:34Z</time>
<speed>0.980000</speed>
<extensions>
<speed>1.0</speed>
<temp>0.00</temp>
<bpm>0</bpm>
<rpm>0.00</rpm>
</extensions>
</trkpt>
<trkpt lat="64.057891846" lon="-19.362947464">
<ele>552.250000</ele>
<time>2012-07-21T21:49:39Z</time>
<speed>1.130000</speed>
<extensions>
<speed>1.1</speed>
<temp>0.00</temp>
<bpm>0</bpm>
<rpm>0.00</rpm>
</extensions>
</trkpt>
<trkpt lat="64.057846069" lon="-19.362882614">
<ele>552.578125</ele>
<time>2012-07-21T21:49:44Z</time>
<speed>1.160000</speed>
<extensions>
<speed>1.2</speed>
<temp>0.00</temp>
<bpm>0</bpm>
<rpm>0.00</rpm>
</extensions>
</trkpt>
<trkpt lat="64.057807922" lon="-19.362800598">
<ele>552.328125</ele>
<time>2012-07-21T21:49:49Z</time>
<speed>1.170000</speed>
<extensions>
<speed>1.2</speed>
<temp>0.00</temp>
<bpm>0</bpm>
<rpm>0.00</rpm>
</extensions>
</trkpt>
<trkpt lat="64.057769775" lon="-19.362735748">
<ele>552.312500</ele>
<time>2012-07-21T21:49:54Z</time>
<speed>1.130000</speed>
<extensions>
<speed>1.1</speed>
<temp>0.00</temp>
<bpm>0</bpm>
<rpm>0.00</rpm>
</extensions>
</trkpt>
<trkpt lat="64.057739258" lon="-19.362665176">
<ele>552.515625</ele>
<time>2012-07-21T21:49:59Z</time>
<speed>1.290000</speed>
<extensions>
<speed>1.3</speed>
<temp>0.00</temp>
<bpm>0</bpm>
<rpm>0.00</rpm>
</extensions>
</trkpt>
<trkpt lat="64.057693481" lon="-19.362588882">
<ele>552.687500</ele>
<time>2012-07-21T21:50:04Z</time>
<speed>1.080000</speed>
<extensions>
<speed>1.1</speed>
<temp>0.00</temp>
<bpm>0</bpm>
<rpm>0.00</rpm>
</extensions>
</trkpt>
<trkpt lat="64.057662964" lon="-19.362533569">
<ele>554.421875</ele>
<time>2012-07-21T21:50:09Z</time>
<speed>1.150000</speed>
<extensions>
<speed>1.1</speed>
<temp>0.00</temp>
<bpm>0</bpm>
<rpm>0.00</rpm>
</extensions>
</trkpt>
<trkpt lat="64.057624817" lon="-19.362438202">
<ele>556.906250</ele>
<time>2012-07-21T21:50:14Z</time>
<speed>1.270000</speed>
<extensions>
<speed>1.3</speed>
<temp>0.00</temp>
<bpm>0</bpm>
<rpm>0.00</rpm>
</extensions>
</trkpt>
<trkpt lat="64.057586670" lon="-19.362352371">
<ele>556.953125</ele>
<time>2012-07-21T21:50:19Z</time>
<speed>1.170000</speed>
<extensions>
<speed>1.2</speed>
<temp>0.00</temp>
<bpm>0</bpm>
<rpm>0.00</rpm>
</extensions>
</trkpt>
<trkpt lat="64.057548523" lon="-19.362266541">
<ele>556.718750</ele>
<time>2012-07-21T21:50:24Z</time>
<speed>1.200000</speed>
<extensions>
<speed>1.2</speed>
<temp>0.00</temp>
<bpm>0</bpm>
<rpm>0.00</rpm>
</extensions>
</trkpt>
<trkpt lat="64.057510376" lon="-19.362184525">
<ele>556.187500</ele>
<time>2012-07-21T21:50:29Z</time>
<speed>1.240000</speed>
<extensions>
<speed>1.2</speed>
<temp>0.00</temp>
<bpm>0</bpm>
<rpm>0.00</rpm>
</extensions>
</trkpt>
<trkpt lat="64.057472229" lon="-19.362092972">
<ele>555.890625</ele>
<time>2012-07-21T21:50:34Z</time>
<speed>1.180000</speed>
<extensions>
<speed>1.2</speed>
<temp>0.00</temp>
<bpm>0</bpm>
<rpm>0.00</rpm>
</extensions>
</trkpt>
<trkpt lat="64.057434082" lon="-19.362005234">
<ele>555.734375</ele>
<time>2012-07-21T21:50:39Z</time>
<speed>1.050000</speed>
<extensions>
<speed>1.0</speed>
<temp>0.00</temp>
<bpm>0</bpm>
<rpm>0.00</rpm>
</extensions>
</trkpt>
<trkpt lat="64.057403564" lon="-19.361928940">
<ele>555.421875</ele>
<time>2012-07-21T21:50:44Z</time>
<speed>0.870000</speed>
<extensions>
<speed>0.9</speed>
<temp>0.00</temp>
<bpm>0</bpm>
<rpm>0.00</rpm>
</extensions>
</trkpt>
<trkpt lat="64.057365417" lon="-19.361864090">
<ele>555.156250</ele>
<time>2012-07-21T21:50:49Z</time>
<speed>0.750000</speed>
<extensions>
<speed>0.8</speed>
<temp>0.00</temp>
<bpm>0</bpm>
<rpm>0.00</rpm>
</extensions>
</trkpt>
<trkpt lat="64.057334900" lon="-19.361806870">
<ele>555.250000</ele>
<time>2012-07-21T21:50:54Z</time>
<speed>0.780000</speed>
<extensions>
<speed>0.8</speed>
<temp>0.00</temp>
<bpm>0</bpm>
<rpm>0.00</rpm>
</extensions>
</trkpt>
<trkpt lat="64.057304382" lon="-19.361722946">
<ele>554.984375</ele>
<time>2012-07-21T21:50:59Z</time>
<speed>1.010000</speed>
<extensions>
<speed>1.0</speed>
<temp>0.00</temp>
<bpm>0</bpm>
<rpm>0.00</rpm>
</extensions>
</trkpt>
<trkpt lat="64.057281494" lon="-19.361635208">
<ele>554.000000</ele>
<time>2012-07-21T21:51:04Z</time>
<speed>0.460000</speed>
<extensions>
<speed>0.5</speed>
<temp>0.00</temp>
<bpm>0</bpm>
<rpm>0.00</rpm>
</extensions>
</trkpt>
<trkpt lat="64.057258606" lon="-19.361581802">
<ele>554.078125</ele>
<time>2012-07-21T21:51:09Z</time>
<speed>0.850000</speed>
<extensions>
<speed>0.8</speed>
<temp>0.00</temp>
<bpm>0</bpm>
<rpm>0.00</rpm>
</extensions>
</trkpt>
<trkpt lat="64.057235718" lon="-19.361545563">
<ele>555.031250</ele>
<time>2012-07-21T21:51:14Z</time>
<speed>0.880000</speed>
<extensions>
<speed>0.9</speed>
<temp>0.00</temp>
<bpm>0</bpm>
<rpm>0.00</rpm>
</extensions>
</trkpt>
<trkpt lat="64.057205200" lon="-19.361494064">
<ele>554.593750</ele>
<time>2012-07-21T21:51:19Z</time>
<speed>0.780000</speed>
<extensions>
<speed>0.8</speed>
<temp>0.00</temp>
<bpm>0</bpm>
<rpm>0.00</rpm>
</extensions>
</trkpt>
<trkpt lat="64.057167053" lon="-19.361425400">
<ele>554.500000</ele>
<time>2012-07-21T21:51:24Z</time>
<speed>1.300000</speed>
<extensions>
<speed>1.3</speed>
<temp>0.00</temp>
<bpm>0</bpm>
<rpm>0.00</rpm>
</extensions>
</trkpt>
<trkpt lat="64.057121277" lon="-19.361333847">
<ele>554.546875</ele>
<time>2012-07-21T21:51:29Z</time>
<speed>1.350000</speed>
<extensions>
<speed>1.4</speed>
<temp>0.00</temp>
<bpm>0</bpm>
<rpm>0.00</rpm>
</extensions>
</trkpt>
<trkpt lat="64.057075500" lon="-19.361253738">
<ele>554.343750</ele>
<time>2012-07-21T21:51:34Z</time>
<speed>1.230000</speed>
<extensions>
<speed>1.2</speed>
<temp>0.00</temp>
<bpm>0</bpm>
<rpm>0.00</rpm>
</extensions>
</trkpt>
<trkpt lat="64.057037354" lon="-19.361171722">
<ele>553.468750</ele>
<time>2012-07-21T21:51:39Z</time>
<speed>1.070000</speed>
<extensions>
<speed>1.1</speed>
<temp>0.00</temp>
<bpm>0</bpm>
<rpm>0.00</rpm>
</extensions>
</trkpt>
<trkpt lat="64.056991577" lon="-19.361106873">
<ele>552.796875</ele>
<time>2012-07-21T21:51:44Z</time>
<speed>1.340000</speed>
<extensions>
<speed>1.3</speed>
<temp>0.00</temp>
<bpm>0</bpm>
<rpm>0.00</rpm>
</extensions>
</trkpt>
<trkpt lat="64.056953430" lon="-19.361034393">
<ele>552.140625</ele>
<time>2012-07-21T21:51:49Z</time>
<speed>1.190000</speed>
<extensions>
<speed>1.2</speed>
<temp>0.00</temp>
<bpm>0</bpm>
<rpm>0.00</rpm>
</extensions>
</trkpt>
<trkpt lat="64.056907654" lon="-19.360996246">
<ele>552.562500</ele>
<time>2012-07-21T21:51:54Z</time>
<speed>1.380000</speed>
<extensions>
<speed>1.4</speed>
<temp>0.00</temp>
<bpm>0</bpm>
<rpm>0.00</rpm>
</extensions>
</trkpt>
<trkpt lat="64.056861877" lon="-19.360950470">
<ele>551.890625</ele>
<time>2012-07-21T21:51:59Z</time>
<speed>1.400000</speed>
<extensions>
<speed>1.4</speed>
<temp>0.00</temp>
<bpm>0</bpm>
<rpm>0.00</rpm>
</extensions>
</trkpt>
<trkpt lat="64.056816101" lon="-19.360860825">
<ele>552.218750</ele>
<time>2012-07-21T21:52:04Z</time>
<speed>1.360000</speed>
<extensions>
<speed>1.4</speed>
<temp>0.00</temp>
<bpm>0</bpm>
<rpm>0.00</rpm>
</extensions>
</trkpt>
<trkpt lat="64.056762695" lon="-19.360778809">
<ele>551.890625</ele>
<time>2012-07-21T21:52:09Z</time>
<speed>1.390000</speed>
<extensions>
<speed>1.4</speed>
<temp>0.00</temp>
<bpm>0</bpm>
<rpm>0.00</rpm>
</extensions>
</trkpt>
<trkpt lat="64.056716919" lon="-19.360702515">
<ele>553.671875</ele>
<time>2012-07-21T21:52:14Z</time>
<speed>1.260000</speed>
<extensions>
<speed>1.3</speed>
<temp>0.00</temp>
<bpm>0</bpm>
<rpm>0.00</rpm>
</extensions>
</trkpt>
<trkpt lat="64.056671143" lon="-19.360630035">
<ele>553.953125</ele>
<time>2012-07-21T21:52:19Z</time>
<speed>1.280000</speed>
<extensions>
<speed>1.3</speed>
<temp>0.00</temp>
<bpm>0</bpm>
<rpm>0.00</rpm>
</extensions>
</trkpt>
<trkpt lat="64.056632996" lon="-19.360551834">
<ele>553.703125</ele>
<time>2012-07-21T21:52:24Z</time>
<speed>0.730000</speed>
<extensions>
<speed>0.7</speed>
<temp>0.00</temp>
<bpm>0</bpm>
<rpm>0.00</rpm>
</extensions>
</trkpt>
<trkpt lat="64.056594849" lon="-19.360481262">
<ele>553.281250</ele>
<time>2012-07-21T21:52:29Z</time>
<speed>0.860000</speed>
<extensions>
<speed>0.9</speed>
<temp>0.00</temp>
<bpm>0</bpm>
<rpm>0.00</rpm>
</extensions>
</trkpt>
<trkpt lat="64.056556702" lon="-19.360406876">
<ele>552.687500</ele>
<time>2012-07-21T21:52:34Z</time>
<speed>1.210000</speed>
<extensions>
<speed>1.2</speed>
<temp>0.00</temp>
<bpm>0</bpm>
<rpm>0.00</rpm>
</extensions>
</trkpt>
<trkpt lat="64.056503296" lon="-19.360324860">
<ele>551.718750</ele>
<time>2012-07-21T21:52:39Z</time>
<speed>1.210000</speed>
<extensions>
<speed>1.2</speed>
<temp>0.00</temp>
<bpm>0</bpm>
<rpm>0.00</rpm>
</extensions>
</trkpt>
<trkpt lat="64.056449890" lon="-19.360263824">
<ele>551.046875</ele>
<time>2012-07-21T21:52:44Z</time>
<speed>1.330000</speed>
<extensions>
<speed>1.3</speed>
<temp>0.00</temp>
<bpm>0</bpm>
<rpm>0.00</rpm>
</extensions>
</trkpt>
<trkpt lat="64.056404114" lon="-19.360181808">
<ele>550.562500</ele>
<time>2012-07-21T21:52:49Z</time>
<speed>1.280000</speed>
<extensions>
<speed>1.3</speed>
<temp>0.00</temp>
<bpm>0</bpm>
<rpm>0.00</rpm>
</extensions>
</trkpt>
<trkpt lat="64.056358337" lon="-19.360101700">
<ele>550.921875</ele>
<time>2012-07-21T21:52:54Z</time>
<speed>1.430000</speed>
<extensions>
<speed>1.4</speed>
<temp>0.00</temp>
<bpm>0</bpm>
<rpm>0.00</rpm>
</extensions>
</trkpt>
<trkpt lat="64.056320190" lon="-19.360044479">
<ele>550.453125</ele>
<time>2012-07-21T21:52:59Z</time>
<speed>0.520000</speed>
<extensions>
<speed>0.5</speed>
<temp>0.00</temp>
<bpm>0</bpm>
<rpm>0.00</rpm>
</extensions>
</trkpt>
<trkpt lat="64.056297302" lon="-19.360002518">
<ele>550.609375</ele>
<time>2012-07-21T21:53:04Z</time>
<speed>1.240000</speed>
<extensions>
<speed>1.2</speed>
<temp>0.00</temp>
<bpm>0</bpm>
<rpm>0.00</rpm>
</extensions>
</trkpt>
<trkpt lat="64.056251526" lon="-19.359928131">
<ele>550.203125</ele>
<time>2012-07-21T21:53:09Z</time>
<speed>1.320000</speed>
<extensions>
<speed>1.3</speed>
<temp>0.00</temp>
<bpm>0</bpm>
<rpm>0.00</rpm>
</extensions>
</trkpt>
<trkpt lat="64.056198120" lon="-19.359849930">
<ele>550.328125</ele>
<time>2012-07-21T21:53:14Z</time>
<speed>1.200000</speed>
<extensions>
<speed>1.2</speed>
<temp>0.00</temp>
<bpm>0</bpm>
<rpm>0.00</rpm>
</extensions>
</trkpt>
<trkpt lat="64.056159973" lon="-19.359762192">
<ele>550.125000</ele>
<time>2012-07-21T21:53:19Z</time>
<speed>1.220000</speed>
<extensions>
<speed>1.2</speed>
<temp>0.00</temp>
<bpm>0</bpm>
<rpm>0.00</rpm>
</extensions>
</trkpt>
<trkpt lat="64.056121826" lon="-19.359695435">
<ele>549.843750</ele>
<time>2012-07-21T21:53:24Z</time>
<speed>1.260000</speed>
<extensions>
<speed>1.3</speed>
<temp>0.00</temp>
<bpm>0</bpm>
<rpm>0.00</rpm>
</extensions>
</trkpt>
<trkpt lat="64.056083679" lon="-19.359621048">
<ele>550.296875</ele>
<time>2012-07-21T21:53:29Z</time>
<speed>1.190000</speed>
<extensions>
<speed>1.2</speed>
<temp>0.00</temp>
<bpm>0</bpm>
<rpm>0.00</rpm>
</extensions>
</trkpt>
<trkpt lat="64.056045532" lon="-19.359550476">
<ele>551.125000</ele>
<time>2012-07-21T21:53:34Z</time>
<speed>0.760000</speed>
<extensions>
<speed>0.8</speed>
<temp>0.00</temp>
<bpm>0</bpm>
<rpm>0.00</rpm>
</extensions>
</trkpt>
<trkpt lat="64.056015015" lon="-19.359489441">
<ele>551.921875</ele>
<time>2012-07-21T21:53:39Z</time>
<speed>1.070000</speed>
<extensions>
<speed>1.1</speed>
<temp>0.00</temp>
<bpm>0</bpm>
<rpm>0.00</rpm>
</extensions>
</trkpt>
<trkpt lat="64.055984497" lon="-19.359424591">
<ele>552.875000</ele>
<time>2012-07-21T21:53:44Z</time>
<speed>1.220000</speed>
<extensions>
<speed>1.2</speed>
<temp>0.00</temp>
<bpm>0</bpm>
<rpm>0.00</rpm>
</extensions>
</trkpt>
<trkpt lat="64.055938721" lon="-19.359334946">
<ele>553.343750</ele>
<time>2012-07-21T21:53:49Z</time>
<speed>1.240000</speed>
<extensions>
<speed>1.2</speed>
<temp>0.00</temp>
<bpm>0</bpm>
<rpm>0.00</rpm>
</extensions>
</trkpt>
<trkpt lat="64.055892944" lon="-19.359277725">
<ele>553.562500</ele>
<time>2012-07-21T21:53:54Z</time>
<speed>1.160000</speed>
<extensions>
<speed>1.2</speed>
<temp>0.00</temp>
<bpm>0</bpm>
<rpm>0.00</rpm>
</extensions>
</trkpt>
<trkpt lat="64.055854797" lon="-19.359218597">
<ele>553.921875</ele>
<time>2012-07-21T21:53:59Z</time>
<speed>0.940000</speed>
<extensions>
<speed>0.9</speed>
<temp>0.00</temp>
<bpm>0</bpm>
<rpm>0.00</rpm>
</extensions>
</trkpt>
<trkpt lat="64.055816650" lon="-19.359167099">
<ele>556.593750</ele>
<time>2012-07-21T21:54:04Z</time>
<speed>0.860000</speed>
<extensions>
<speed>0.9</speed>
<temp>0.00</temp>
<bpm>0</bpm>
<rpm>0.00</rpm>
</extensions>
</trkpt>
<trkpt lat="64.055786133" lon="-19.359123230">
<ele>557.734375</ele>
<time>2012-07-21T21:54:09Z</time>
<speed>1.230000</speed>
<extensions>
<speed>1.2</speed>
<temp>0.00</temp>
<bpm>0</bpm>
<rpm>0.00</rpm>
</extensions>
</trkpt>
<trkpt lat="64.055732727" lon="-19.359086990">
<ele>558.390625</ele>
<time>2012-07-21T21:54:14Z</time>
<speed>1.200000</speed>
<extensions>
<speed>1.2</speed>
<temp>0.00</temp>
<bpm>0</bpm>
<rpm>0.00</rpm>
</extensions>
</trkpt>
<trkpt lat="64.055686951" lon="-19.359041214">
<ele>559.250000</ele>
<time>2012-07-21T21:54:19Z</time>
<speed>1.180000</speed>
<extensions>
<speed>1.2</speed>
<temp>0.00</temp>
<bpm>0</bpm>
<rpm>0.00</rpm>
</extensions>
</trkpt>
<trkpt lat="64.055633545" lon="-19.359003067">
<ele>560.187500</ele>
<time>2012-07-21T21:54:24Z</time>
<speed>1.340000</speed>
<extensions>
<speed>1.3</speed>
<temp>0.00</temp>
<bpm>0</bpm>
<rpm>0.00</rpm>
</extensions>
</trkpt>
<trkpt lat="64.055572510" lon="-19.358976364">
<ele>561.265625</ele>
<time>2012-07-21T21:54:29Z</time>
<speed>1.410000</speed>
<extensions>
<speed>1.4</speed>
<temp>0.00</temp>
<bpm>0</bpm>
<rpm>0.00</rpm>
</extensions>
</trkpt>
<trkpt lat="64.055519104" lon="-19.358959198">
<ele>561.562500</ele>
<time>2012-07-21T21:54:34Z</time>
<speed>1.290000</speed>
<extensions>
<speed>1.3</speed>
<temp>0.00</temp>
<bpm>0</bpm>
<rpm>0.00</rpm>
</extensions>
</trkpt>
<trkpt lat="64.055465698" lon="-19.358930588">
<ele>562.375000</ele>
<time>2012-07-21T21:54:39Z</time>
<speed>1.260000</speed>
<extensions>
<speed>1.3</speed>
<temp>0.00</temp>
<bpm>0</bpm>
<rpm>0.00</rpm>
</extensions>
</trkpt>
<trkpt lat="64.055404663" lon="-19.358926773">
<ele>563.015625</ele>
<time>2012-07-21T21:54:44Z</time>
<speed>1.240000</speed>
<extensions>
<speed>1.2</speed>
<temp>0.00</temp>
<bpm>0</bpm>
<rpm>0.00</rpm>
</extensions>
</trkpt>
<trkpt lat="64.055358887" lon="-19.358921051">
<ele>563.937500</ele>
<time>2012-07-21T21:54:49Z</time>
<speed>1.170000</speed>
<extensions>
<speed>1.2</speed>
<temp>0.00</temp>
<bpm>0</bpm>
<rpm>0.00</rpm>
</extensions>
</trkpt>
<trkpt lat="64.055297852" lon="-19.358917236">
<ele>564.156250</ele>
<time>2012-07-21T21:54:54Z</time>
<speed>1.290000</speed>
<extensions>
<speed>1.3</speed>
<temp>0.00</temp>
<bpm>0</bpm>
<rpm>0.00</rpm>
</extensions>
</trkpt>
<trkpt lat="64.055244446" lon="-19.358943939">
<ele>564.781250</ele>
<time>2012-07-21T21:54:59Z</time>
<speed>1.410000</speed>
<extensions>
<speed>1.4</speed>
<temp>0.00</temp>
<bpm>0</bpm>
<rpm>0.00</rpm>
</extensions>
</trkpt>
<trkpt lat="64.055183411" lon="-19.358963013">
<ele>565.687500</ele>
<time>2012-07-21T21:55:04Z</time>
<speed>1.210000</speed>
<extensions>
<speed>1.2</speed>
<temp>0.00</temp>
<bpm>0</bpm>
<rpm>0.00</rpm>
</extensions>
</trkpt>
<trkpt lat="64.055130005" lon="-19.358980179">
<ele>566.578125</ele>
<time>2012-07-21T21:55:09Z</time>
<speed>1.090000</speed>
<extensions>
<speed>1.1</speed>
<temp>0.00</temp>
<bpm>0</bpm>
<rpm>0.00</rpm>
</extensions>
</trkpt>
<trkpt lat="64.055084229" lon="-19.359016418">
<ele>567.640625</ele>
<time>2012-07-21T21:55:14Z</time>
<speed>0.810000</speed>
<extensions>
<speed>0.8</speed>
<temp>0.00</temp>
<bpm>0</bpm>
<rpm>0.00</rpm>
</extensions>
</trkpt>
<trkpt lat="64.055084229" lon="-19.359004974">
<ele>568.406250</ele>
<time>2012-07-21T21:55:19Z</time>
<speed>0.060000</speed>
<extensions>
<speed>0.1</speed>
<temp>0.00</temp>
<bpm>0</bpm>
<rpm>0.00</rpm>
</extensions>
</trkpt>
<trkpt lat="64.055061340" lon="-19.359018326">
<ele>568.718750</ele>
<time>2012-07-21T21:55:24Z</time>
<speed>1.210000</speed>
<extensions>
<speed>1.2</speed>
<temp>0.00</temp>
<bpm>0</bpm>
<rpm>0.00</rpm>
</extensions>
</trkpt>
<trkpt lat="64.055007935" lon="-19.359033585">
<ele>569.437500</ele>
<time>2012-07-21T21:55:29Z</time>
<speed>0.680000</speed>
<extensions>
<speed>0.7</speed>
<temp>0.00</temp>
<bpm>0</bpm>
<rpm>0.00</rpm>
</extensions>
</trkpt>
<trkpt lat="64.054992676" lon="-19.359041214">
<ele>570.234375</ele>
<time>2012-07-21T21:55:34Z</time>
<speed>1.310000</speed>
<extensions>
<speed>1.3</speed>
<temp>0.00</temp>
<bpm>0</bpm>
<rpm>0.00</rpm>
</extensions>
</trkpt>
<trkpt lat="64.054908752" lon="-19.359092712">
<ele>570.250000</ele>
<time>2012-07-21T21:55:39Z</time>
<speed>2.320000</speed>
<extensions>
<speed>2.3</speed>
<temp>0.00</temp>
<bpm>0</bpm>
<rpm>0.00</rpm>
</extensions>
</trkpt>
<trkpt lat="64.054771423" lon="-19.359115601">
<ele>569.734375</ele>
<time>2012-07-21T21:55:44Z</time>
<speed>3.070000</speed>
<extensions>
<speed>3.1</speed>
<temp>0.00</temp>
<bpm>0</bpm>
<rpm>0.00</rpm>
</extensions>
</trkpt>
<trkpt lat="64.054626465" lon="-19.359146118">
<ele>568.296875</ele>
<time>2012-07-21T21:55:49Z</time>
<speed>3.250000</speed>
<extensions>
<speed>3.2</speed>
<temp>0.00</temp>
<bpm>0</bpm>
<rpm>0.00</rpm>
</extensions>
</trkpt>
<trkpt lat="64.054504395" lon="-19.359109879">
<ele>569.000000</ele>
<time>2012-07-21T21:55:54Z</time>
<speed>2.730000</speed>
<extensions>
<speed>2.7</speed>
<temp>0.00</temp>
<bpm>0</bpm>
<rpm>0.00</rpm>
</extensions>
</trkpt>
<trkpt lat="64.054412842" lon="-19.359069824">
<ele>568.843750</ele>
<time>2012-07-21T21:55:59Z</time>
<speed>1.590000</speed>
<extensions>
<speed>1.6</speed>
<temp>0.00</temp>
<bpm>0</bpm>
<rpm>0.00</rpm>
</extensions>
</trkpt>
<trkpt lat="64.054344177" lon="-19.359022141">
<ele>568.921875</ele>
<time>2012-07-21T21:56:04Z</time>
<speed>1.500000</speed>
<extensions>
<speed>1.5</speed>
<temp>0.00</temp>
<bpm>0</bpm>
<rpm>0.00</rpm>
</extensions>
</trkpt>
<trkpt lat="64.054275513" lon="-19.358955383">
<ele>569.375000</ele>
<time>2012-07-21T21:56:09Z</time>
<speed>1.870000</speed>
<extensions>
<speed>1.9</speed>
<temp>0.00</temp>
<bpm>0</bpm>
<rpm>0.00</rpm>
</extensions>
</trkpt>
<trkpt lat="64.054191589" lon="-19.358917236">
<ele>568.046875</ele>
<time>2012-07-21T21:56:14Z</time>
<speed>1.990000</speed>
<extensions>
<speed>2.0</speed>
<temp>0.00</temp>
<bpm>0</bpm>
<rpm>0.00</rpm>
</extensions>
</trkpt>
<trkpt lat="64.054107666" lon="-19.358884811">
<ele>567.890625</ele>
<time>2012-07-21T21:56:19Z</time>
<speed>1.940000</speed>
<extensions>
<speed>1.9</speed>
<temp>0.00</temp>
<bpm>0</bpm>
<rpm>0.00</rpm>
</extensions>
</trkpt>
<trkpt lat="64.054023743" lon="-19.358810425">
<ele>568.328125</ele>
<time>2012-07-21T21:56:24Z</time>
<speed>1.910000</speed>
<extensions>
<speed>1.9</speed>
<temp>0.00</temp>
<bpm>0</bpm>
<rpm>0.00</rpm>
</extensions>
</trkpt>
<trkpt lat="64.053939819" lon="-19.358743668">
<ele>569.578125</ele>
<time>2012-07-21T21:56:29Z</time>
<speed>2.060000</speed>
<extensions>
<speed>2.1</speed>
<temp>0.00</temp>
<bpm>0</bpm>
<rpm>0.00</rpm>
</extensions>
</trkpt>
<trkpt lat="64.053848267" lon="-19.358690262">
<ele>569.546875</ele>
<time>2012-07-21T21:56:34Z</time>
<speed>1.970000</speed>
<extensions>
<speed>2.0</speed>
<temp>0.00</temp>
<bpm>0</bpm>
<rpm>0.00</rpm>
</extensions>
</trkpt>
<trkpt lat="64.053779602" lon="-19.358644485">
<ele>570.578125</ele>
<time>2012-07-21T21:56:39Z</time>
<speed>1.310000</speed>
<extensions>
<speed>1.3</speed>
<temp>0.00</temp>
<bpm>0</bpm>
<rpm>0.00</rpm>
</extensions>
</trkpt>
<trkpt lat="64.053710938" lon="-19.358602524">
<ele>571.578125</ele>
<time>2012-07-21T21:56:44Z</time>
<speed>1.450000</speed>
<extensions>
<speed>1.4</speed>
<temp>0.00</temp>
<bpm>0</bpm>
<rpm>0.00</rpm>
</extensions>
</trkpt>
<trkpt lat="64.053634644" lon="-19.358602524">
<ele>571.531250</ele>
<time>2012-07-21T21:56:49Z</time>
<speed>1.860000</speed>
<extensions>
<speed>1.9</speed>
<temp>0.00</temp>
<bpm>0</bpm>
<rpm>0.00</rpm>
</extensions>
</trkpt>
<trkpt lat="64.053558350" lon="-19.358560562">
<ele>573.187500</ele>
<time>2012-07-21T21:56:54Z</time>
<speed>1.880000</speed>
<extensions>
<speed>1.9</speed>
<temp>0.00</temp>
<bpm>0</bpm>
<rpm>0.00</rpm>
</extensions>
</trkpt>
<trkpt lat="64.053482056" lon="-19.358545303">
<ele>572.453125</ele>
<time>2012-07-21T21:56:59Z</time>
<speed>1.920000</speed>
<extensions>
<speed>1.9</speed>
<temp>0.00</temp>
<bpm>0</bpm>
<rpm>0.00</rpm>
</extensions>
</trkpt>
<trkpt lat="64.053405762" lon="-19.358531952">
<ele>573.000000</ele>
<time>2012-07-21T21:57:04Z</time>
<speed>1.520000</speed>
<extensions>
<speed>1.5</speed>
<temp>0.00</temp>
<bpm>0</bpm>
<rpm>0.00</rpm>
</extensions>
</trkpt>
<trkpt lat="64.053329468" lon="-19.358583450">
<ele>573.171875</ele>
<time>2012-07-21T21:57:09Z</time>
<speed>2.040000</speed>
<extensions>
<speed>2.0</speed>
<temp>0.00</temp>
<bpm>0</bpm>
<rpm>0.00</rpm>
</extensions>
</trkpt>
<trkpt lat="64.053222656" lon="-19.358695984">
<ele>573.593750</ele>
<time>2012-07-21T21:57:14Z</time>
<speed>2.710000</speed>
<extensions>
<speed>2.7</speed>
<temp>0.00</temp>
<bpm>0</bpm>
<rpm>0.00</rpm>
</extensions>
</trkpt>
<trkpt lat="64.053131104" lon="-19.358783722">
<ele>572.515625</ele>
<time>2012-07-21T21:57:19Z</time>
<speed>2.150000</speed>
<extensions>
<speed>2.1</speed>
<temp>0.00</temp>
<bpm>0</bpm>
<rpm>0.00</rpm>
</extensions>
</trkpt>
<trkpt lat="64.053047180" lon="-19.358869553">
<ele>573.093750</ele>
<time>2012-07-21T21:57:24Z</time>
<speed>2.260000</speed>
<extensions>
<speed>2.3</speed>
<temp>0.00</temp>
<bpm>0</bpm>
<rpm>0.00</rpm>
</extensions>
</trkpt>
<trkpt lat="64.052917480" lon="-19.358896255">
<ele>572.343750</ele>
<time>2012-07-21T21:57:29Z</time>
<speed>3.160000</speed>
<extensions>
<speed>3.2</speed>
<temp>0.00</temp>
<bpm>0</bpm>
<rpm>0.00</rpm>
</extensions>
</trkpt>
<trkpt lat="64.052780151" lon="-19.358840942">
<ele>572.171875</ele>
<time>2012-07-21T21:57:34Z</time>
<speed>3.040000</speed>
<extensions>
<speed>3.0</speed>
<temp>0.00</temp>
<bpm>0</bpm>
<rpm>0.00</rpm>
</extensions>
</trkpt>
<trkpt lat="64.052635193" lon="-19.358715057">
<ele>570.703125</ele>
<time>2012-07-21T21:57:39Z</time>
<speed>3.880000</speed>
<extensions>
<speed>3.9</speed>
<temp>0.00</temp>
<bpm>0</bpm>
<rpm>0.00</rpm>
</extensions>
</trkpt>
<trkpt lat="64.052497864" lon="-19.358510971">
<ele>569.375000</ele>
<time>2012-07-21T21:57:44Z</time>
<speed>3.480000</speed>
<extensions>
<speed>3.5</speed>
<temp>0.00</temp>
<bpm>0</bpm>
<rpm>0.00</rpm>
</extensions>
</trkpt>
<trkpt lat="64.052352905" lon="-19.358360291">
<ele>568.078125</ele>
<time>2012-07-21T21:57:49Z</time>
<speed>3.780000</speed>
<extensions>
<speed>3.8</speed>
<temp>0.00</temp>
<bpm>0</bpm>
<rpm>0.00</rpm>
</extensions>
</trkpt>
<trkpt lat="64.052207947" lon="-19.358234406">
<ele>567.781250</ele>
<time>2012-07-21T21:57:54Z</time>
<speed>3.710000</speed>
<extensions>
<speed>3.7</speed>
<temp>0.00</temp>
<bpm>0</bpm>
<rpm>0.00</rpm>
</extensions>
</trkpt>
<trkpt lat="64.052047729" lon="-19.358150482">
<ele>567.328125</ele>
<time>2012-07-21T21:57:59Z</time>
<speed>3.320000</speed>
<extensions>
<speed>3.3</speed>
<temp>0.00</temp>
<bpm>0</bpm>
<rpm>0.00</rpm>
</extensions>
</trkpt>
<trkpt lat="64.051918030" lon="-19.358076096">
<ele>567.421875</ele>
<time>2012-07-21T21:58:04Z</time>
<speed>3.290000</speed>
<extensions>
<speed>3.3</speed>
<temp>0.00</temp>
<bpm>0</bpm>
<rpm>0.00</rpm>
</extensions>
</trkpt>
<trkpt lat="64.051780701" lon="-19.358015060">
<ele>568.000000</ele>
<time>2012-07-21T21:58:09Z</time>
<speed>3.120000</speed>
<extensions>
<speed>3.1</speed>
<temp>0.00</temp>
<bpm>0</bpm>
<rpm>0.00</rpm>
</extensions>
</trkpt>
<trkpt lat="64.051673889" lon="-19.357933044">
<ele>566.921875</ele>
<time>2012-07-21T21:58:14Z</time>
<speed>2.100000</speed>
<extensions>
<speed>2.1</speed>
<temp>0.00</temp>
<bpm>0</bpm>
<rpm>0.00</rpm>
</extensions>
</trkpt>
<trkpt lat="64.051574707" lon="-19.357896805">
<ele>566.062500</ele>
<time>2012-07-21T21:58:19Z</time>
<speed>2.080000</speed>
<extensions>
<speed>2.1</speed>
<temp>0.00</temp>
<bpm>0</bpm>
<rpm>0.00</rpm>
</extensions>
</trkpt>
<trkpt lat="64.051475525" lon="-19.357881546">
<ele>564.843750</ele>
<time>2012-07-21T21:58:24Z</time>
<speed>2.200000</speed>
<extensions>
<speed>2.2</speed>
<temp>0.00</temp>
<bpm>0</bpm>
<rpm>0.00</rpm>
</extensions>
</trkpt>
<trkpt lat="64.051391602" lon="-19.357847214">
<ele>566.234375</ele>
<time>2012-07-21T21:58:29Z</time>
<speed>1.840000</speed>
<extensions>
<speed>1.8</speed>
<temp>0.00</temp>
<bpm>0</bpm>
<rpm>0.00</rpm>
</extensions>
</trkpt>
<trkpt lat="64.051322937" lon="-19.357856750">
<ele>566.796875</ele>
<time>2012-07-21T21:58:34Z</time>
<speed>1.210000</speed>
<extensions>
<speed>1.2</speed>
<temp>0.00</temp>
<bpm>0</bpm>
<rpm>0.00</rpm>
</extensions>
</trkpt>
<trkpt lat="64.051315308" lon="-19.357847214">
<ele>567.468750</ele>
<time>2012-07-21T21:58:39Z</time>
<speed>0.010000</speed>
<extensions>
<speed>0.0</speed>
<temp>0.00</temp>
<bpm>0</bpm>
<rpm>0.00</rpm>
</extensions>
</trkpt>
<trkpt lat="64.051315308" lon="-19.357849121">
<ele>567.484375</ele>
<time>2012-07-21T21:58:44Z</time>
<extensions>
<speed>0.0</speed>
<temp>0.00</temp>
<bpm>0</bpm>
<rpm>0.00</rpm>
</extensions>
</trkpt>
<trkpt lat="64.051315308" lon="-19.357847214">
<ele>567.453125</ele>
<time>2012-07-21T21:58:49Z</time>
<speed>0.010000</speed>
<extensions>
<speed>0.0</speed>
<temp>0.00</temp>
<bpm>0</bpm>
<rpm>0.00</rpm>
</extensions>
</trkpt>
<trkpt lat="64.051315308" lon="-19.357849121">
<ele>567.421875</ele>
<time>2012-07-21T21:58:54Z</time>
<speed>0.050000</speed>
<extensions>
<speed>0.1</speed>
<temp>0.00</temp>
<bpm>0</bpm>
<rpm>0.00</rpm>
</extensions>
</trkpt>
<trkpt lat="64.051300049" lon="-19.357797623">
<ele>567.437500</ele>
<time>2012-07-21T21:58:59Z</time>
<speed>1.550000</speed>
<extensions>
<speed>1.5</speed>
<temp>0.00</temp>
<bpm>0</bpm>
<rpm>0.00</rpm>
</extensions>
</trkpt>
<trkpt lat="64.051231384" lon="-19.357751846">
<ele>568.015625</ele>
<time>2012-07-21T21:59:04Z</time>
<speed>1.980000</speed>
<extensions>
<speed>2.0</speed>
<temp>0.00</temp>
<bpm>0</bpm>
<rpm>0.00</rpm>
</extensions>
</trkpt>
<trkpt lat="64.051147461" lon="-19.357732773">
<ele>569.328125</ele>
<time>2012-07-21T21:59:09Z</time>
<speed>1.930000</speed>
<extensions>
<speed>1.9</speed>
<temp>0.00</temp>
<bpm>0</bpm>
<rpm>0.00</rpm>
</extensions>
</trkpt>
<trkpt lat="64.051048279" lon="-19.357742310">
<ele>570.312500</ele>
<time>2012-07-21T21:59:14Z</time>
<speed>2.150000</speed>
<extensions>
<speed>2.1</speed>
<temp>0.00</temp>
<bpm>0</bpm>
<rpm>0.00</rpm>
</extensions>
</trkpt>
<trkpt lat="64.050956726" lon="-19.357757568">
<ele>571.562500</ele>
<time>2012-07-21T21:59:19Z</time>
<speed>1.920000</speed>
<extensions>
<speed>1.9</speed>
<temp>0.00</temp>
<bpm>0</bpm>
<rpm>0.00</rpm>
</extensions>
</trkpt>
<trkpt lat="64.050880432" lon="-19.357738495">
<ele>571.687500</ele>
<time>2012-07-21T21:59:24Z</time>
<speed>1.470000</speed>
<extensions>
<speed>1.5</speed>
<temp>0.00</temp>
<bpm>0</bpm>
<rpm>0.00</rpm>
</extensions>
</trkpt>
<trkpt lat="64.050827026" lon="-19.357730865">
<ele>572.171875</ele>
<time>2012-07-21T21:59:29Z</time>
<speed>1.740000</speed>
<extensions>
<speed>1.7</speed>
<temp>0.00</temp>
<bpm>0</bpm>
<rpm>0.00</rpm>
</extensions>
</trkpt>
<trkpt lat="64.050735474" lon="-19.357713699">
<ele>572.546875</ele>
<time>2012-07-21T21:59:34Z</time>
<speed>1.660000</speed>
<extensions>
<speed>1.7</speed>
<temp>0.00</temp>
<bpm>0</bpm>
<rpm>0.00</rpm>
</extensions>
</trkpt>
<trkpt lat="64.050659180" lon="-19.357683182">
<ele>571.312500</ele>
<time>2012-07-21T21:59:39Z</time>
<speed>1.760000</speed>
<extensions>
<speed>1.8</speed>
<temp>0.00</temp>
<bpm>0</bpm>
<rpm>0.00</rpm>
</extensions>
</trkpt>
<trkpt lat="64.050582886" lon="-19.357658386">
<ele>571.031250</ele>
<time>2012-07-21T21:59:44Z</time>
<speed>1.860000</speed>
<extensions>
<speed>1.9</speed>
<temp>0.00</temp>
<bpm>0</bpm>
<rpm>0.00</rpm>
</extensions>
</trkpt>
<trkpt lat="64.050506592" lon="-19.357612610">
<ele>570.906250</ele>
<time>2012-07-21T21:59:49Z</time>
<speed>1.910000</speed>
<extensions>
<speed>1.9</speed>
<temp>0.00</temp>
<bpm>0</bpm>
<rpm>0.00</rpm>
</extensions>
</trkpt>
<trkpt lat="64.050422668" lon="-19.357580185">
<ele>572.046875</ele>
<time>2012-07-21T21:59:54Z</time>
<speed>1.810000</speed>
<extensions>
<speed>1.8</speed>
<temp>0.00</temp>
<bpm>0</bpm>
<rpm>0.00</rpm>
</extensions>
</trkpt>
<trkpt lat="64.050346375" lon="-19.357517242">
<ele>572.687500</ele>
<time>2012-07-21T21:59:59Z</time>
<speed>2.050000</speed>
<extensions>
<speed>2.1</speed>
<temp>0.00</temp>
<bpm>0</bpm>
<rpm>0.00</rpm>
</extensions>
</trkpt>
<trkpt lat="64.050254822" lon="-19.357482910">
<ele>573.343750</ele>
<time>2012-07-21T22:00:04Z</time>
<speed>1.820000</speed>
<extensions>
<speed>1.8</speed>
<temp>0.00</temp>
<bpm>0</bpm>
<rpm>0.00</rpm>
</extensions>
</trkpt>
<trkpt lat="64.050178528" lon="-19.357458115">
<ele>573.750000</ele>
<time>2012-07-21T22:00:09Z</time>
<speed>1.450000</speed>
<extensions>
<speed>1.4</speed>
<temp>0.00</temp>
<bpm>0</bpm>
<rpm>0.00</rpm>
</extensions>
</trkpt>
<trkpt lat="64.050117493" lon="-19.357412338">
<ele>573.359375</ele>
<time>2012-07-21T22:00:14Z</time>
<speed>2.070000</speed>
<extensions>
<speed>2.1</speed>
<temp>0.00</temp>
<bpm>0</bpm>
<rpm>0.00</rpm>
</extensions>
</trkpt>
<trkpt lat="64.050033569" lon="-19.357391357">
<ele>573.968750</ele>
<time>2012-07-21T22:00:19Z</time>
<speed>2.110000</speed>
<extensions>
<speed>2.1</speed>
<temp>0.00</temp>
<bpm>0</bpm>
<rpm>0.00</rpm>
</extensions>
</trkpt>
<trkpt lat="64.049949646" lon="-19.357353210">
<ele>574.531250</ele>
<time>2012-07-21T22:00:24Z</time>
<speed>1.300000</speed>
<extensions>
<speed>1.3</speed>
<temp>0.00</temp>
<bpm>0</bpm>
<rpm>0.00</rpm>
</extensions>
</trkpt>
<trkpt lat="64.049880981" lon="-19.357311249">
<ele>574.562500</ele>
<time>2012-07-21T22:00:29Z</time>
<speed>2.000000</speed>
<extensions>
<speed>2.0</speed>
<temp>0.00</temp>
<bpm>0</bpm>
<rpm>0.00</rpm>
</extensions>
</trkpt>
<trkpt lat="64.049797058" lon="-19.357254028">
<ele>574.687500</ele>
<time>2012-07-21T22:00:34Z</time>
<speed>1.930000</speed>
<extensions>
<speed>1.9</speed>
<temp>0.00</temp>
<bpm>0</bpm>
<rpm>0.00</rpm>
</extensions>
</trkpt>
<trkpt lat="64.049705505" lon="-19.357200623">
<ele>574.843750</ele>
<time>2012-07-21T22:00:39Z</time>
<speed>2.260000</speed>
<extensions>
<speed>2.3</speed>
<temp>0.00</temp>
<bpm>0</bpm>
<rpm>0.00</rpm>
</extensions>
</trkpt>
<trkpt lat="64.049621582" lon="-19.357126236">
<ele>574.796875</ele>
<time>2012-07-21T22:00:44Z</time>
<speed>1.910000</speed>
<extensions>
<speed>1.9</speed>
<temp>0.00</temp>
<bpm>0</bpm>
<rpm>0.00</rpm>
</extensions>
</trkpt>
<trkpt lat="64.049537659" lon="-19.357051849">
<ele>576.015625</ele>
<time>2012-07-21T22:00:49Z</time>
<speed>2.030000</speed>
<extensions>
<speed>2.0</speed>
<temp>0.00</temp>
<bpm>0</bpm>
<rpm>0.00</rpm>
</extensions>
</trkpt>
<trkpt lat="64.049453735" lon="-19.356985092">
<ele>576.578125</ele>
<time>2012-07-21T22:00:54Z</time>
<speed>1.580000</speed>
<extensions>
<speed>1.6</speed>
<temp>0.00</temp>
<bpm>0</bpm>
<rpm>0.00</rpm>
</extensions>
</trkpt>
<trkpt lat="64.049377441" lon="-19.356904984">
<ele>576.796875</ele>
<time>2012-07-21T22:00:59Z</time>
<speed>2.210000</speed>
<extensions>
<speed>2.2</speed>
<temp>0.00</temp>
<bpm>0</bpm>
<rpm>0.00</rpm>
</extensions>
</trkpt>
<trkpt lat="64.049316406" lon="-19.356847763">
<ele>577.093750</ele>
<time>2012-07-21T22:01:04Z</time>
<speed>0.090000</speed>
<extensions>
<speed>0.1</speed>
<temp>0.00</temp>
<bpm>0</bpm>
<rpm>0.00</rpm>
</extensions>
</trkpt>
<trkpt lat="64.049316406" lon="-19.356855392">
<ele>577.750000</ele>
<time>2012-07-21T22:01:09Z</time>
<extensions>
<speed>0.0</speed>
<temp>0.00</temp>
<bpm>0</bpm>
<rpm>0.00</rpm>
</extensions>
</trkpt>
<trkpt lat="64.049316406" lon="-19.356855392">
<ele>577.765625</ele>
<time>2012-07-21T22:01:14Z</time>
<speed>0.030000</speed>
<extensions>
<speed>0.0</speed>
<temp>0.00</temp>
<bpm>0</bpm>
<rpm>0.00</rpm>
</extensions>
</trkpt>
<trkpt lat="64.049278259" lon="-19.356807709">
<ele>577.984375</ele>
<time>2012-07-21T22:01:19Z</time>
<speed>1.850000</speed>
<extensions>
<speed>1.8</speed>
<temp>0.00</temp>
<bpm>0</bpm>
<rpm>0.00</rpm>
</extensions>
</trkpt>
<trkpt lat="64.049179077" lon="-19.356702805">
<ele>578.234375</ele>
<time>2012-07-21T22:01:24Z</time>
<speed>2.350000</speed>
<extensions>
<speed>2.4</speed>
<temp>0.00</temp>
<bpm>0</bpm>
<rpm>0.00</rpm>
</extensions>
</trkpt>
<trkpt lat="64.049072266" lon="-19.356565475">
<ele>578.828125</ele>
<time>2012-07-21T22:01:29Z</time>
<speed>2.630000</speed>
<extensions>
<speed>2.6</speed>
<temp>0.00</temp>
<bpm>0</bpm>
<rpm>0.00</rpm>
</extensions>
</trkpt>
<trkpt lat="64.048995972" lon="-19.356472015">
<ele>578.046875</ele>
<time>2012-07-21T22:01:34Z</time>
<speed>1.640000</speed>
<extensions>
<speed>1.6</speed>
<temp>0.00</temp>
<bpm>0</bpm>
<rpm>0.00</rpm>
</extensions>
</trkpt>
<trkpt lat="64.048934937" lon="-19.356389999">
<ele>577.484375</ele>
<time>2012-07-21T22:01:39Z</time>
<speed>1.480000</speed>
<extensions>
<speed>1.5</speed>
<temp>0.00</temp>
<bpm>0</bpm>
<rpm>0.00</rpm>
</extensions>
</trkpt>
<trkpt lat="64.048858643" lon="-19.356307983">
<ele>575.718750</ele>
<time>2012-07-21T22:01:44Z</time>
<speed>2.090000</speed>
<extensions>
<speed>2.1</speed>
<temp>0.00</temp>
<bpm>0</bpm>
<rpm>0.00</rpm>
</extensions>
</trkpt>
<trkpt lat="64.048782349" lon="-19.356225967">
<ele>576.046875</ele>
<time>2012-07-21T22:01:49Z</time>
<speed>1.880000</speed>
<extensions>
<speed>1.9</speed>
<temp>0.00</temp>
<bpm>0</bpm>
<rpm>0.00</rpm>
</extensions>
</trkpt>
<trkpt lat="64.048698425" lon="-19.356147766">
<ele>575.968750</ele>
<time>2012-07-21T22:01:54Z</time>
<speed>1.980000</speed>
<extensions>
<speed>2.0</speed>
<temp>0.00</temp>
<bpm>0</bpm>
<rpm>0.00</rpm>
</extensions>
</trkpt>
<trkpt lat="64.048614502" lon="-19.356063843">
<ele>576.484375</ele>
<time>2012-07-21T22:01:59Z</time>
<speed>1.910000</speed>
<extensions>
<speed>1.9</speed>
<temp>0.00</temp>
<bpm>0</bpm>
<rpm>0.00</rpm>
</extensions>
</trkpt>
<trkpt lat="64.048545837" lon="-19.355972290">
<ele>577.531250</ele>
<time>2012-07-21T22:02:04Z</time>
<speed>1.900000</speed>
<extensions>
<speed>1.9</speed>
<temp>0.00</temp>
<bpm>0</bpm>
<rpm>0.00</rpm>
</extensions>
</trkpt>
<trkpt lat="64.048461914" lon="-19.355884552">
<ele>577.187500</ele>
<time>2012-07-21T22:02:09Z</time>
<speed>2.120000</speed>
<extensions>
<speed>2.1</speed>
<temp>0.00</temp>
<bpm>0</bpm>
<rpm>0.00</rpm>
</extensions>
</trkpt>
<trkpt lat="64.048370361" lon="-19.355792999">
<ele>578.859375</ele>
<time>2012-07-21T22:02:14Z</time>
<speed>2.210000</speed>
<extensions>
<speed>2.2</speed>
<temp>0.00</temp>
<bpm>0</bpm>
<rpm>0.00</rpm>
</extensions>
</trkpt>
<trkpt lat="64.048286438" lon="-19.355720520">
<ele>578.281250</ele>
<time>2012-07-21T22:02:19Z</time>
<speed>1.940000</speed>
<extensions>
<speed>1.9</speed>
<temp>0.00</temp>
<bpm>0</bpm>
<rpm>0.00</rpm>
</extensions>
</trkpt>
<trkpt lat="64.048202515" lon="-19.355636597">
<ele>579.828125</ele>
<time>2012-07-21T22:02:24Z</time>
<speed>1.850000</speed>
<extensions>
<speed>1.8</speed>
<temp>0.00</temp>
<bpm>0</bpm>
<rpm>0.00</rpm>
</extensions>
</trkpt>
<trkpt lat="64.048133850" lon="-19.355573654">
<ele>581.000000</ele>
<time>2012-07-21T22:02:29Z</time>
<speed>1.840000</speed>
<extensions>
<speed>1.8</speed>
<temp>0.00</temp>
<bpm>0</bpm>
<rpm>0.00</rpm>
</extensions>
</trkpt>
<trkpt lat="64.048065186" lon="-19.355497360">
<ele>582.390625</ele>
<time>2012-07-21T22:02:34Z</time>
<speed>1.740000</speed>
<extensions>
<speed>1.7</speed>
<temp>0.00</temp>
<bpm>0</bpm>
<rpm>0.00</rpm>
</extensions>
</trkpt>
<trkpt lat="64.047981262" lon="-19.355440140">
<ele>582.828125</ele>
<time>2012-07-21T22:02:39Z</time>
<speed>1.950000</speed>
<extensions>
<speed>1.9</speed>
<temp>0.00</temp>
<bpm>0</bpm>
<rpm>0.00</rpm>
</extensions>
</trkpt>
<trkpt lat="64.047904968" lon="-19.355375290">
<ele>581.046875</ele>
<time>2012-07-21T22:02:44Z</time>
<speed>1.570000</speed>
<extensions>
<speed>1.6</speed>
<temp>0.00</temp>
<bpm>0</bpm>
<rpm>0.00</rpm>
</extensions>
</trkpt>
<trkpt lat="64.047851563" lon="-19.355295181">
<ele>581.687500</ele>
<time>2012-07-21T22:02:49Z</time>
<speed>1.540000</speed>
<extensions>
<speed>1.5</speed>
<temp>0.00</temp>
<bpm>0</bpm>
<rpm>0.00</rpm>
</extensions>
</trkpt>
<trkpt lat="64.047767639" lon="-19.355213165">
<ele>581.453125</ele>
<time>2012-07-21T22:02:54Z</time>
<speed>2.150000</speed>
<extensions>
<speed>2.1</speed>
<temp>0.00</temp>
<bpm>0</bpm>
<rpm>0.00</rpm>
</extensions>
</trkpt>
<trkpt lat="64.047676086" lon="-19.355134964">
<ele>582.328125</ele>
<time>2012-07-21T22:02:59Z</time>
<speed>2.260000</speed>
<extensions>
<speed>2.3</speed>
<temp>0.00</temp>
<bpm>0</bpm>
<rpm>0.00</rpm>
</extensions>
</trkpt>
<trkpt lat="64.047592163" lon="-19.355009079">
<ele>582.859375</ele>
<time>2012-07-21T22:03:04Z</time>
<speed>1.900000</speed>
<extensions>
<speed>1.9</speed>
<temp>0.00</temp>
<bpm>0</bpm>
<rpm>0.00</rpm>
</extensions>
</trkpt>
<trkpt lat="64.047500610" lon="-19.354887009">
<ele>581.734375</ele>
<time>2012-07-21T22:03:09Z</time>
<speed>2.290000</speed>
<extensions>
<speed>2.3</speed>
<temp>0.00</temp>
<bpm>0</bpm>
<rpm>0.00</rpm>
</extensions>
</trkpt>
<trkpt lat="64.047409058" lon="-19.354774475">
<ele>581.562500</ele>
<time>2012-07-21T22:03:14Z</time>
<speed>1.890000</speed>
<extensions>
<speed>1.9</speed>
<temp>0.00</temp>
<bpm>0</bpm>
<rpm>0.00</rpm>
</extensions>
</trkpt>
<trkpt lat="64.047340393" lon="-19.354690552">
<ele>582.203125</ele>
<time>2012-07-21T22:03:19Z</time>
<speed>2.060000</speed>
<extensions>
<speed>2.1</speed>
<temp>0.00</temp>
<bpm>0</bpm>
<rpm>0.00</rpm>
</extensions>
</trkpt>
<trkpt lat="64.047279358" lon="-19.354560852">
<ele>581.468750</ele>
<time>2012-07-21T22:03:24Z</time>
<speed>1.660000</speed>
<extensions>
<speed>1.7</speed>
<temp>0.00</temp>
<bpm>0</bpm>
<rpm>0.00</rpm>
</extensions>
</trkpt>
<trkpt lat="64.047187805" lon="-19.354431152">
<ele>580.296875</ele>
<time>2012-07-21T22:03:29Z</time>
<speed>2.270000</speed>
<extensions>
<speed>2.3</speed>
<temp>0.00</temp>
<bpm>0</bpm>
<rpm>0.00</rpm>
</extensions>
</trkpt>
<trkpt lat="64.047103882" lon="-19.354312897">
<ele>579.859375</ele>
<time>2012-07-21T22:03:34Z</time>
<speed>2.210000</speed>
<extensions>
<speed>2.2</speed>
<temp>0.00</temp>
<bpm>0</bpm>
<rpm>0.00</rpm>
</extensions>
</trkpt>
<trkpt lat="64.047027588" lon="-19.354181290">
<ele>579.984375</ele>
<time>2012-07-21T22:03:39Z</time>
<speed>1.920000</speed>
<extensions>
<speed>1.9</speed>
<temp>0.00</temp>
<bpm>0</bpm>
<rpm>0.00</rpm>
</extensions>
</trkpt>
<trkpt lat="64.046943665" lon="-19.354080200">
<ele>579.750000</ele>
<time>2012-07-21T22:03:44Z</time>
<speed>2.110000</speed>
<extensions>
<speed>2.1</speed>
<temp>0.00</temp>
<bpm>0</bpm>
<rpm>0.00</rpm>
</extensions>
</trkpt>
<trkpt lat="64.046867371" lon="-19.354034424">
<ele>579.500000</ele>
<time>2012-07-21T22:03:49Z</time>
<speed>1.950000</speed>
<extensions>
<speed>1.9</speed>
<temp>0.00</temp>
<bpm>0</bpm>
<rpm>0.00</rpm>
</extensions>
</trkpt>
<trkpt lat="64.046783447" lon="-19.353960037">
<ele>580.203125</ele>
<time>2012-07-21T22:03:54Z</time>
<speed>2.040000</speed>
<extensions>
<speed>2.0</speed>
<temp>0.00</temp>
<bpm>0</bpm>
<rpm>0.00</rpm>
</extensions>
</trkpt>
<trkpt lat="64.046699524" lon="-19.353948593">
<ele>579.953125</ele>
<time>2012-07-21T22:03:59Z</time>
<speed>2.090000</speed>
<extensions>
<speed>2.1</speed>
<temp>0.00</temp>
<bpm>0</bpm>
<rpm>0.00</rpm>
</extensions>
</trkpt>
<trkpt lat="64.046600342" lon="-19.353973389">
<ele>580.843750</ele>
<time>2012-07-21T22:04:04Z</time>
<speed>2.150000</speed>
<extensions>
<speed>2.1</speed>
<temp>0.00</temp>
<bpm>0</bpm>
<rpm>0.00</rpm>
</extensions>
</trkpt>
<trkpt lat="64.046516418" lon="-19.354028702">
<ele>581.078125</ele>
<time>2012-07-21T22:04:09Z</time>
<speed>2.150000</speed>
<extensions>
<speed>2.1</speed>
<temp>0.00</temp>
<bpm>0</bpm>
<rpm>0.00</rpm>
</extensions>
</trkpt>
<trkpt lat="64.046424866" lon="-19.354072571">
<ele>581.687500</ele>
<time>2012-07-21T22:04:14Z</time>
<speed>2.330000</speed>
<extensions>
<speed>2.3</speed>
<temp>0.00</temp>
<bpm>0</bpm>
<rpm>0.00</rpm>
</extensions>
</trkpt>
<trkpt lat="64.046325684" lon="-19.354118347">
<ele>582.703125</ele>
<time>2012-07-21T22:04:19Z</time>
<speed>2.360000</speed>
<extensions>
<speed>2.4</speed>
<temp>0.00</temp>
<bpm>0</bpm>
<rpm>0.00</rpm>
</extensions>
</trkpt>
<trkpt lat="64.046218872" lon="-19.354150772">
<ele>582.218750</ele>
<time>2012-07-21T22:04:24Z</time>
<speed>2.440000</speed>
<extensions>
<speed>2.4</speed>
<temp>0.00</temp>
<bpm>0</bpm>
<rpm>0.00</rpm>
</extensions>
</trkpt>
<trkpt lat="64.046112061" lon="-19.354219437">
<ele>579.828125</ele>
<time>2012-07-21T22:04:29Z</time>
<speed>3.020000</speed>
<extensions>
<speed>3.0</speed>
<temp>0.00</temp>
<bpm>0</bpm>
<rpm>0.00</rpm>
</extensions>
</trkpt>
<trkpt lat="64.045989990" lon="-19.354276657">
<ele>578.750000</ele>
<time>2012-07-21T22:04:34Z</time>
<speed>2.690000</speed>
<extensions>
<speed>2.7</speed>
<temp>0.00</temp>
<bpm>0</bpm>
<rpm>0.00</rpm>
</extensions>
</trkpt>
<trkpt lat="64.045875549" lon="-19.354316711">
<ele>578.671875</ele>
<time>2012-07-21T22:04:39Z</time>
<speed>2.090000</speed>
<extensions>
<speed>2.1</speed>
<temp>0.00</temp>
<bpm>0</bpm>
<rpm>0.00</rpm>
</extensions>
</trkpt>
<trkpt lat="64.045776367" lon="-19.354290009">
<ele>579.484375</ele>
<time>2012-07-21T22:04:44Z</time>
<speed>2.140000</speed>
<extensions>
<speed>2.1</speed>
<temp>0.00</temp>
<bpm>0</bpm>
<rpm>0.00</rpm>
</extensions>
</trkpt>
<trkpt lat="64.045677185" lon="-19.354200363">
<ele>581.250000</ele>
<time>2012-07-21T22:04:49Z</time>
<speed>2.190000</speed>
<extensions>
<speed>2.2</speed>
<temp>0.00</temp>
<bpm>0</bpm>
<rpm>0.00</rpm>
</extensions>
</trkpt>
<trkpt lat="64.045578003" lon="-19.354093552">
<ele>581.609375</ele>
<time>2012-07-21T22:04:54Z</time>
<speed>2.130000</speed>
<extensions>
<speed>2.1</speed>
<temp>0.00</temp>
<bpm>0</bpm>
<rpm>0.00</rpm>
</extensions>
</trkpt>
<trkpt lat="64.045501709" lon="-19.353990555">
<ele>581.796875</ele>
<time>2012-07-21T22:04:59Z</time>
<speed>1.990000</speed>
<extensions>
<speed>2.0</speed>
<temp>0.00</temp>
<bpm>0</bpm>
<rpm>0.00</rpm>
</extensions>
</trkpt>
<trkpt lat="64.045440674" lon="-19.353908539">
<ele>582.859375</ele>
<time>2012-07-21T22:05:04Z</time>
<speed>1.630000</speed>
<extensions>
<speed>1.6</speed>
<temp>0.00</temp>
<bpm>0</bpm>
<rpm>0.00</rpm>
</extensions>
</trkpt>
<trkpt lat="64.045387268" lon="-19.353820801">
<ele>582.953125</ele>
<time>2012-07-21T22:05:09Z</time>
<speed>1.850000</speed>
<extensions>
<speed>1.8</speed>
<temp>0.00</temp>
<bpm>0</bpm>
<rpm>0.00</rpm>
</extensions>
</trkpt>
<trkpt lat="64.045310974" lon="-19.353748322">
<ele>582.078125</ele>
<time>2012-07-21T22:05:14Z</time>
<speed>1.450000</speed>
<extensions>
<speed>1.4</speed>
<temp>0.00</temp>
<bpm>0</bpm>
<rpm>0.00</rpm>
</extensions>
</trkpt>
<trkpt lat="64.045257568" lon="-19.353656769">
<ele>581.468750</ele>
<time>2012-07-21T22:05:19Z</time>
<speed>1.620000</speed>
<extensions>
<speed>1.6</speed>
<temp>0.00</temp>
<bpm>0</bpm>
<rpm>0.00</rpm>
</extensions>
</trkpt>
<trkpt lat="64.045173645" lon="-19.353591919">
<ele>581.437500</ele>
<time>2012-07-21T22:05:24Z</time>
<speed>1.870000</speed>
<extensions>
<speed>1.9</speed>
<temp>0.00</temp>
<bpm>0</bpm>
<rpm>0.00</rpm>
</extensions>
</trkpt>
<trkpt lat="64.045104980" lon="-19.353521347">
<ele>581.390625</ele>
<time>2012-07-21T22:05:29Z</time>
<speed>1.840000</speed>
<extensions>
<speed>1.8</speed>
<temp>0.00</temp>
<bpm>0</bpm>
<rpm>0.00</rpm>
</extensions>
</trkpt>
<trkpt lat="64.045028687" lon="-19.353433609">
<ele>581.937500</ele>
<time>2012-07-21T22:05:34Z</time>
<speed>1.850000</speed>
<extensions>
<speed>1.8</speed>
<temp>0.00</temp>
<bpm>0</bpm>
<rpm>0.00</rpm>
</extensions>
</trkpt>
<trkpt lat="64.044952393" lon="-19.353368759">
<ele>579.515625</ele>
<time>2012-07-21T22:05:39Z</time>
<speed>1.550000</speed>
<extensions>
<speed>1.5</speed>
<temp>0.00</temp>
<bpm>0</bpm>
<rpm>0.00</rpm>
</extensions>
</trkpt>
<trkpt lat="64.044891357" lon="-19.353300095">
<ele>577.781250</ele>
<time>2012-07-21T22:05:44Z</time>
<speed>1.920000</speed>
<extensions>
<speed>1.9</speed>
<temp>0.00</temp>
<bpm>0</bpm>
<rpm>0.00</rpm>
</extensions>
</trkpt>
<trkpt lat="64.044830322" lon="-19.353221893">
<ele>578.703125</ele>
<time>2012-07-21T22:05:49Z</time>
<speed>1.490000</speed>
<extensions>
<speed>1.5</speed>
<temp>0.00</temp>
<bpm>0</bpm>
<rpm>0.00</rpm>
</extensions>
</trkpt>
<trkpt lat="64.044792175" lon="-19.353187561">
<ele>578.859375</ele>
<time>2012-07-21T22:05:54Z</time>
<speed>0.210000</speed>
<extensions>
<speed>0.2</speed>
<temp>0.00</temp>
<bpm>0</bpm>
<rpm>0.00</rpm>
</extensions>
</trkpt>
<trkpt lat="64.044746399" lon="-19.353179932">
<ele>577.968750</ele>
<time>2012-07-21T22:05:59Z</time>
<speed>1.380000</speed>
<extensions>
<speed>1.4</speed>
<temp>0.00</temp>
<bpm>0</bpm>
<rpm>0.00</rpm>
</extensions>
</trkpt>
<trkpt lat="64.044692993" lon="-19.353120804">
<ele>576.890625</ele>
<time>2012-07-21T22:06:04Z</time>
<speed>1.390000</speed>
<extensions>
<speed>1.4</speed>
<temp>0.00</temp>
<bpm>0</bpm>
<rpm>0.00</rpm>
</extensions>
</trkpt>
<trkpt lat="64.044639587" lon="-19.353052139">
<ele>576.640625</ele>
<time>2012-07-21T22:06:09Z</time>
<speed>1.320000</speed>
<extensions>
<speed>1.3</speed>
<temp>0.00</temp>
<bpm>0</bpm>
<rpm>0.00</rpm>
</extensions>
</trkpt>
<trkpt lat="64.044586182" lon="-19.352991104">
<ele>575.687500</ele>
<time>2012-07-21T22:06:14Z</time>
<speed>1.440000</speed>
<extensions>
<speed>1.4</speed>
<temp>0.00</temp>
<bpm>0</bpm>
<rpm>0.00</rpm>
</extensions>
</trkpt>
<trkpt lat="64.044532776" lon="-19.352903366">
<ele>573.843750</ele>
<time>2012-07-21T22:06:19Z</time>
<speed>1.420000</speed>
<extensions>
<speed>1.4</speed>
<temp>0.00</temp>
<bpm>0</bpm>
<rpm>0.00</rpm>
</extensions>
</trkpt>
<trkpt lat="64.044487000" lon="-19.352857590">
<ele>573.937500</ele>
<time>2012-07-21T22:06:24Z</time>
<speed>1.490000</speed>
<extensions>
<speed>1.5</speed>
<temp>0.00</temp>
<bpm>0</bpm>
<rpm>0.00</rpm>
</extensions>
</trkpt>
<trkpt lat="64.044433594" lon="-19.352775574">
<ele>573.203125</ele>
<time>2012-07-21T22:06:29Z</time>
<speed>1.420000</speed>
<extensions>
<speed>1.4</speed>
<temp>0.00</temp>
<bpm>0</bpm>
<rpm>0.00</rpm>
</extensions>
</trkpt>
<trkpt lat="64.044380188" lon="-19.352689743">
<ele>572.937500</ele>
<time>2012-07-21T22:06:34Z</time>
<speed>1.550000</speed>
<extensions>
<speed>1.5</speed>
<temp>0.00</temp>
<bpm>0</bpm>
<rpm>0.00</rpm>
</extensions>
</trkpt>
<trkpt lat="64.044326782" lon="-19.352602005">
<ele>572.234375</ele>
<time>2012-07-21T22:06:39Z</time>
<speed>1.230000</speed>
<extensions>
<speed>1.2</speed>
<temp>0.00</temp>
<bpm>0</bpm>
<rpm>0.00</rpm>
</extensions>
</trkpt>
<trkpt lat="64.044281006" lon="-19.352540970">
<ele>572.328125</ele>
<time>2012-07-21T22:06:44Z</time>
<speed>0.940000</speed>
<extensions>
<speed>0.9</speed>
<temp>0.00</temp>
<bpm>0</bpm>
<rpm>0.00</rpm>
</extensions>
</trkpt>
<trkpt lat="64.044258118" lon="-19.352491379">
<ele>572.515625</ele>
<time>2012-07-21T22:06:49Z</time>
<speed>1.130000</speed>
<extensions>
<speed>1.1</speed>
<temp>0.00</temp>
<bpm>0</bpm>
<rpm>0.00</rpm>
</extensions>
</trkpt>
<trkpt lat="64.044227600" lon="-19.352430344">
<ele>571.937500</ele>
<time>2012-07-21T22:06:54Z</time>
<speed>1.010000</speed>
<extensions>
<speed>1.0</speed>
<temp>0.00</temp>
<bpm>0</bpm>
<rpm>0.00</rpm>
</extensions>
</trkpt>
<trkpt lat="64.044189453" lon="-19.352346420">
<ele>571.593750</ele>
<time>2012-07-21T22:06:59Z</time>
<speed>1.310000</speed>
<extensions>
<speed>1.3</speed>
<temp>0.00</temp>
<bpm>0</bpm>
<rpm>0.00</rpm>
</extensions>
</trkpt>
<trkpt lat="64.044143677" lon="-19.352293015">
<ele>571.078125</ele>
<time>2012-07-21T22:07:04Z</time>
<speed>0.940000</speed>
<extensions>
<speed>0.9</speed>
<temp>0.00</temp>
<bpm>0</bpm>
<rpm>0.00</rpm>
</extensions>
</trkpt>
<trkpt lat="64.044113159" lon="-19.352233887">
<ele>570.921875</ele>
<time>2012-07-21T22:07:09Z</time>
<speed>1.150000</speed>
<extensions>
<speed>1.1</speed>
<temp>0.00</temp>
<bpm>0</bpm>
<rpm>0.00</rpm>
</extensions>
</trkpt>
<trkpt lat="64.044082642" lon="-19.352193832">
<ele>571.546875</ele>
<time>2012-07-21T22:07:14Z</time>
<extensions>
<speed>0.0</speed>
<temp>0.00</temp>
<bpm>0</bpm>
<rpm>0.00</rpm>
</extensions>
</trkpt>
<trkpt lat="64.044075012" lon="-19.352191925">
<ele>571.468750</ele>
<time>2012-07-21T22:07:19Z</time>
<speed>0.930000</speed>
<extensions>
<speed>0.9</speed>
<temp>0.00</temp>
<bpm>0</bpm>
<rpm>0.00</rpm>
</extensions>
</trkpt>
<trkpt lat="64.044059753" lon="-19.352153778">
<ele>571.218750</ele>
<time>2012-07-21T22:07:24Z</time>
<extensions>
<speed>0.0</speed>
<temp>0.00</temp>
<bpm>0</bpm>
<rpm>0.00</rpm>
</extensions>
</trkpt>
<trkpt lat="64.044059753" lon="-19.352153778">
<ele>571.171875</ele>
<time>2012-07-21T22:07:29Z</time>
<speed>0.030000</speed>
<extensions>
<speed>0.0</speed>
<temp>0.00</temp>
<bpm>0</bpm>
<rpm>0.00</rpm>
</extensions>
</trkpt>
<trkpt lat="64.044059753" lon="-19.352157593">
<ele>570.984375</ele>
<time>2012-07-21T22:07:34Z</time>
<speed>0.020000</speed>
<extensions>
<speed>0.0</speed>
<temp>0.00</temp>
<bpm>0</bpm>
<rpm>0.00</rpm>
</extensions>
</trkpt>
<trkpt lat="64.044059753" lon="-19.352155685">
<ele>571.062500</ele>
<time>2012-07-21T22:07:39Z</time>
<speed>0.020000</speed>
<extensions>
<speed>0.0</speed>
<temp>0.00</temp>
<bpm>0</bpm>
<rpm>0.00</rpm>
</extensions>
</trkpt>
<trkpt lat="64.044059753" lon="-19.352155685">
<ele>571.078125</ele>
<time>2012-07-21T22:07:44Z</time>
<speed>0.020000</speed>
<extensions>
<speed>0.0</speed>
<temp>0.00</temp>
<bpm>0</bpm>
<rpm>0.00</rpm>
</extensions>
</trkpt>
<trkpt lat="64.044044495" lon="-19.352128983">
<ele>571.734375</ele>
<time>2012-07-21T22:07:49Z</time>
<speed>1.350000</speed>
<extensions>
<speed>1.4</speed>
<temp>0.00</temp>
<bpm>0</bpm>
<rpm>0.00</rpm>
</extensions>
</trkpt>
<trkpt lat="64.044006348" lon="-19.352043152">
<ele>572.406250</ele>
<time>2012-07-21T22:07:54Z</time>
<speed>1.350000</speed>
<extensions>
<speed>1.4</speed>
<temp>0.00</temp>
<bpm>0</bpm>
<rpm>0.00</rpm>
</extensions>
</trkpt>
<trkpt lat="64.043952942" lon="-19.351949692">
<ele>572.671875</ele>
<time>2012-07-21T22:07:59Z</time>
<speed>1.470000</speed>
<extensions>
<speed>1.5</speed>
<temp>0.00</temp>
<bpm>0</bpm>
<rpm>0.00</rpm>
</extensions>
</trkpt>
<trkpt lat="64.043907166" lon="-19.351860046">
<ele>573.312500</ele>
<time>2012-07-21T22:08:04Z</time>
<speed>1.410000</speed>
<extensions>
<speed>1.4</speed>
<temp>0.00</temp>
<bpm>0</bpm>
<rpm>0.00</rpm>
</extensions>
</trkpt>
<trkpt lat="64.043853760" lon="-19.351772308">
<ele>573.203125</ele>
<time>2012-07-21T22:08:09Z</time>
<speed>1.470000</speed>
<extensions>
<speed>1.5</speed>
<temp>0.00</temp>
<bpm>0</bpm>
<rpm>0.00</rpm>
</extensions>
</trkpt>
<trkpt lat="64.043807983" lon="-19.351696014">
<ele>572.796875</ele>
<time>2012-07-21T22:08:14Z</time>
<speed>1.340000</speed>
<extensions>
<speed>1.3</speed>
<temp>0.00</temp>
<bpm>0</bpm>
<rpm>0.00</rpm>
</extensions>
</trkpt>
<trkpt lat="64.043762207" lon="-19.351627350">
<ele>572.890625</ele>
<time>2012-07-21T22:08:19Z</time>
<speed>1.310000</speed>
<extensions>
<speed>1.3</speed>
<temp>0.00</temp>
<bpm>0</bpm>
<rpm>0.00</rpm>
</extensions>
</trkpt>
<trkpt lat="64.043716431" lon="-19.351551056">
<ele>572.937500</ele>
<time>2012-07-21T22:08:24Z</time>
<speed>1.340000</speed>
<extensions>
<speed>1.3</speed>
<temp>0.00</temp>
<bpm>0</bpm>
<rpm>0.00</rpm>
</extensions>
</trkpt>
<trkpt lat="64.043670654" lon="-19.351486206">
<ele>573.125000</ele>
<time>2012-07-21T22:08:29Z</time>
<speed>1.290000</speed>
<extensions>
<speed>1.3</speed>
<temp>0.00</temp>
<bpm>0</bpm>
<rpm>0.00</rpm>
</extensions>
</trkpt>
<trkpt lat="64.043632507" lon="-19.351411819">
<ele>572.593750</ele>
<time>2012-07-21T22:08:34Z</time>
<speed>1.140000</speed>
<extensions>
<speed>1.1</speed>
<temp>0.00</temp>
<bpm>0</bpm>
<rpm>0.00</rpm>
</extensions>
</trkpt>
<trkpt lat="64.043624878" lon="-19.351396561">
<ele>572.843750</ele>
<time>2012-07-21T22:08:39Z</time>
<speed>0.080000</speed>
<extensions>
<speed>0.1</speed>
<temp>0.00</temp>
<bpm>0</bpm>
<rpm>0.00</rpm>
</extensions>
</trkpt>
<trkpt lat="64.043624878" lon="-19.351396561">
<ele>572.812500</ele>
<time>2012-07-21T22:08:44Z</time>
<speed>0.020000</speed>
<extensions>
<speed>0.0</speed>
<temp>0.00</temp>
<bpm>0</bpm>
<rpm>0.00</rpm>
</extensions>
</trkpt>
<trkpt lat="64.043624878" lon="-19.351396561">
<ele>572.828125</ele>
<time>2012-07-21T22:08:49Z</time>
<speed>0.640000</speed>
<extensions>
<speed>0.6</speed>
<temp>0.00</temp>
<bpm>0</bpm>
<rpm>0.00</rpm>
</extensions>
</trkpt>
<trkpt lat="64.043586731" lon="-19.351341248">
<ele>573.375000</ele>
<time>2012-07-21T22:08:54Z</time>
<speed>1.190000</speed>
<extensions>
<speed>1.2</speed>
<temp>0.00</temp>
<bpm>0</bpm>
<rpm>0.00</rpm>
</extensions>
</trkpt>
<trkpt lat="64.043540955" lon="-19.351263046">
<ele>573.515625</ele>
<time>2012-07-21T22:08:59Z</time>
<speed>1.200000</speed>
<extensions>
<speed>1.2</speed>
<temp>0.00</temp>
<bpm>0</bpm>
<rpm>0.00</rpm>
</extensions>
</trkpt>
<trkpt lat="64.043487549" lon="-19.351186752">
<ele>573.937500</ele>
<time>2012-07-21T22:09:04Z</time>
<speed>1.470000</speed>
<extensions>
<speed>1.5</speed>
<temp>0.00</temp>
<bpm>0</bpm>
<rpm>0.00</rpm>
</extensions>
</trkpt>
<trkpt lat="64.043434143" lon="-19.351093292">
<ele>573.843750</ele>
<time>2012-07-21T22:09:09Z</time>
<speed>1.350000</speed>
<extensions>
<speed>1.4</speed>
<temp>0.00</temp>
<bpm>0</bpm>
<rpm>0.00</rpm>
</extensions>
</trkpt>
<trkpt lat="64.043395996" lon="-19.351026535">
<ele>574.234375</ele>
<time>2012-07-21T22:09:14Z</time>
<speed>1.300000</speed>
<extensions>
<speed>1.3</speed>
<temp>0.00</temp>
<bpm>0</bpm>
<rpm>0.00</rpm>
</extensions>
</trkpt>
<trkpt lat="64.043342590" lon="-19.350944519">
<ele>575.187500</ele>
<time>2012-07-21T22:09:19Z</time>
<speed>1.370000</speed>
<extensions>
<speed>1.4</speed>
<temp>0.00</temp>
<bpm>0</bpm>
<rpm>0.00</rpm>
</extensions>
</trkpt>
<trkpt lat="64.043296814" lon="-19.350854874">
<ele>575.890625</ele>
<time>2012-07-21T22:09:24Z</time>
<speed>1.040000</speed>
<extensions>
<speed>1.0</speed>
<temp>0.00</temp>
<bpm>0</bpm>
<rpm>0.00</rpm>
</extensions>
</trkpt>
<trkpt lat="64.043251038" lon="-19.350795746">
<ele>576.343750</ele>
<time>2012-07-21T22:09:29Z</time>
<speed>1.350000</speed>
<extensions>
<speed>1.4</speed>
<temp>0.00</temp>
<bpm>0</bpm>
<rpm>0.00</rpm>
</extensions>
</trkpt>
<trkpt lat="64.043190002" lon="-19.350734711">
<ele>576.421875</ele>
<time>2012-07-21T22:09:34Z</time>
<speed>1.620000</speed>
<extensions>
<speed>1.6</speed>
<temp>0.00</temp>
<bpm>0</bpm>
<rpm>0.00</rpm>
</extensions>
</trkpt>
<trkpt lat="64.043128967" lon="-19.350687027">
<ele>576.531250</ele>
<time>2012-07-21T22:09:39Z</time>
<speed>1.480000</speed>
<extensions>
<speed>1.5</speed>
<temp>0.00</temp>
<bpm>0</bpm>
<rpm>0.00</rpm>
</extensions>
</trkpt>
<trkpt lat="64.043067932" lon="-19.350635529">
<ele>577.484375</ele>
<time>2012-07-21T22:09:44Z</time>
<speed>1.430000</speed>
<extensions>
<speed>1.4</speed>
<temp>0.00</temp>
<bpm>0</bpm>
<rpm>0.00</rpm>
</extensions>
</trkpt>
<trkpt lat="64.043022156" lon="-19.350624084">
<ele>577.921875</ele>
<time>2012-07-21T22:09:49Z</time>
<speed>0.920000</speed>
<extensions>
<speed>0.9</speed>
<temp>0.00</temp>
<bpm>0</bpm>
<rpm>0.00</rpm>
</extensions>
</trkpt>
<trkpt lat="64.042968750" lon="-19.350570679">
<ele>577.968750</ele>
<time>2012-07-21T22:09:54Z</time>
<speed>1.390000</speed>
<extensions>
<speed>1.4</speed>
<temp>0.00</temp>
<bpm>0</bpm>
<rpm>0.00</rpm>
</extensions>
</trkpt>
<trkpt lat="64.042915344" lon="-19.350530624">
<ele>578.656250</ele>
<time>2012-07-21T22:09:59Z</time>
<speed>1.070000</speed>
<extensions>
<speed>1.1</speed>
<temp>0.00</temp>
<bpm>0</bpm>
<rpm>0.00</rpm>
</extensions>
</trkpt>
<trkpt lat="64.042861938" lon="-19.350488663">
<ele>579.781250</ele>
<time>2012-07-21T22:10:04Z</time>
<speed>1.130000</speed>
<extensions>
<speed>1.1</speed>
<temp>0.00</temp>
<bpm>0</bpm>
<rpm>0.00</rpm>
</extensions>
</trkpt>
<trkpt lat="64.042816162" lon="-19.350446701">
<ele>580.109375</ele>
<time>2012-07-21T22:10:09Z</time>
<speed>1.320000</speed>
<extensions>
<speed>1.3</speed>
<temp>0.00</temp>
<bpm>0</bpm>
<rpm>0.00</rpm>
</extensions>
</trkpt>
<trkpt lat="64.042770386" lon="-19.350381851">
<ele>580.625000</ele>
<time>2012-07-21T22:10:14Z</time>
<speed>1.100000</speed>
<extensions>
<speed>1.1</speed>
<temp>0.00</temp>
<bpm>0</bpm>
<rpm>0.00</rpm>
</extensions>
</trkpt>
<trkpt lat="64.042762756" lon="-19.350360870">
<ele>581.562500</ele>
<time>2012-07-21T22:10:19Z</time>
<speed>0.020000</speed>
<extensions>
<speed>0.0</speed>
<temp>0.00</temp>
<bpm>0</bpm>
<rpm>0.00</rpm>
</extensions>
</trkpt>
<trkpt lat="64.042762756" lon="-19.350360870">
<ele>581.484375</ele>
<time>2012-07-21T22:10:24Z</time>
<speed>0.040000</speed>
<extensions>
<speed>0.0</speed>
<temp>0.00</temp>
<bpm>0</bpm>
<rpm>0.00</rpm>
</extensions>
</trkpt>
<trkpt lat="64.042755127" lon="-19.350357056">
<ele>581.890625</ele>
<time>2012-07-21T22:10:29Z</time>
<speed>0.890000</speed>
<extensions>
<speed>0.9</speed>
<temp>0.00</temp>
<bpm>0</bpm>
<rpm>0.00</rpm>
</extensions>
</trkpt>
<trkpt lat="64.042709351" lon="-19.350303650">
<ele>581.890625</ele>
<time>2012-07-21T22:10:34Z</time>
<speed>1.390000</speed>
<extensions>
<speed>1.4</speed>
<temp>0.00</temp>
<bpm>0</bpm>
<rpm>0.00</rpm>
</extensions>
</trkpt>
<trkpt lat="64.042648315" lon="-19.350254059">
<ele>581.703125</ele>
<time>2012-07-21T22:10:39Z</time>
<speed>1.370000</speed>
<extensions>
<speed>1.4</speed>
<temp>0.00</temp>
<bpm>0</bpm>
<rpm>0.00</rpm>
</extensions>
</trkpt>
<trkpt lat="64.042602539" lon="-19.350191116">
<ele>581.234375</ele>
<time>2012-07-21T22:10:44Z</time>
<speed>1.370000</speed>
<extensions>
<speed>1.4</speed>
<temp>0.00</temp>
<bpm>0</bpm>
<rpm>0.00</rpm>
</extensions>
</trkpt>
<trkpt lat="64.042556763" lon="-19.350109100">
<ele>580.140625</ele>
<time>2012-07-21T22:10:49Z</time>
<speed>1.470000</speed>
<extensions>
<speed>1.5</speed>
<temp>0.00</temp>
<bpm>0</bpm>
<rpm>0.00</rpm>
</extensions>
</trkpt>
<trkpt lat="64.042510986" lon="-19.350023270">
<ele>579.343750</ele>
<time>2012-07-21T22:10:54Z</time>
<speed>1.230000</speed>
<extensions>
<speed>1.2</speed>
<temp>0.00</temp>
<bpm>0</bpm>
<rpm>0.00</rpm>
</extensions>
</trkpt>
<trkpt lat="64.042495728" lon="-19.349990845">
<ele>578.953125</ele>
<time>2012-07-21T22:10:59Z</time>
<extensions>
<speed>0.0</speed>
<temp>0.00</temp>
<bpm>0</bpm>
<rpm>0.00</rpm>
</extensions>
</trkpt>
<trkpt lat="64.042488098" lon="-19.349971771">
<ele>578.718750</ele>
<time>2012-07-21T22:11:04Z</time>
<speed>0.010000</speed>
<extensions>
<speed>0.0</speed>
<temp>0.00</temp>
<bpm>0</bpm>
<rpm>0.00</rpm>
</extensions>
</trkpt>
<trkpt lat="64.042465210" lon="-19.349943161">
<ele>578.625000</ele>
<time>2012-07-21T22:11:09Z</time>
<speed>0.870000</speed>
<extensions>
<speed>0.9</speed>
<temp>0.00</temp>
<bpm>0</bpm>
<rpm>0.00</rpm>
</extensions>
</trkpt>
<trkpt lat="64.042434692" lon="-19.349885941">
<ele>579.343750</ele>
<time>2012-07-21T22:11:14Z</time>
<speed>1.120000</speed>
<extensions>
<speed>1.1</speed>
<temp>0.00</temp>
<bpm>0</bpm>
<rpm>0.00</rpm>
</extensions>
</trkpt>
<trkpt lat="64.042396545" lon="-19.349811554">
<ele>579.250000</ele>
<time>2012-07-21T22:11:19Z</time>
<speed>1.110000</speed>
<extensions>
<speed>1.1</speed>
<temp>0.00</temp>
<bpm>0</bpm>
<rpm>0.00</rpm>
</extensions>
</trkpt>
<trkpt lat="64.042366028" lon="-19.349739075">
<ele>579.015625</ele>
<time>2012-07-21T22:11:24Z</time>
<speed>1.110000</speed>
<extensions>
<speed>1.1</speed>
<temp>0.00</temp>
<bpm>0</bpm>
<rpm>0.00</rpm>
</extensions>
</trkpt>
<trkpt lat="64.042312622" lon="-19.349668503">
<ele>579.046875</ele>
<time>2012-07-21T22:11:29Z</time>
<speed>1.480000</speed>
<extensions>
<speed>1.5</speed>
<temp>0.00</temp>
<bpm>0</bpm>
<rpm>0.00</rpm>
</extensions>
</trkpt>
<trkpt lat="64.042266846" lon="-19.349590302">
<ele>579.218750</ele>
<time>2012-07-21T22:11:34Z</time>
<speed>1.410000</speed>
<extensions>
<speed>1.4</speed>
<temp>0.00</temp>
<bpm>0</bpm>
<rpm>0.00</rpm>
</extensions>
</trkpt>
<trkpt lat="64.042221069" lon="-19.349521637">
<ele>579.000000</ele>
<time>2012-07-21T22:11:39Z</time>
<speed>1.190000</speed>
<extensions>
<speed>1.2</speed>
<temp>0.00</temp>
<bpm>0</bpm>
<rpm>0.00</rpm>
</extensions>
</trkpt>
<trkpt lat="64.042175293" lon="-19.349473953">
<ele>579.484375</ele>
<time>2012-07-21T22:11:44Z</time>
<speed>1.270000</speed>
<extensions>
<speed>1.3</speed>
<temp>0.00</temp>
<bpm>0</bpm>
<rpm>0.00</rpm>
</extensions>
</trkpt>
<trkpt lat="64.042129517" lon="-19.349399567">
<ele>580.000000</ele>
<time>2012-07-21T22:11:49Z</time>
<speed>1.320000</speed>
<extensions>
<speed>1.3</speed>
<temp>0.00</temp>
<bpm>0</bpm>
<rpm>0.00</rpm>
</extensions>
</trkpt>
<trkpt lat="64.042091370" lon="-19.349334717">
<ele>580.375000</ele>
<time>2012-07-21T22:11:54Z</time>
<speed>1.060000</speed>
<extensions>
<speed>1.1</speed>
<temp>0.00</temp>
<bpm>0</bpm>
<rpm>0.00</rpm>
</extensions>
</trkpt>
<trkpt lat="64.042068481" lon="-19.349306107">
<ele>581.140625</ele>
<time>2012-07-21T22:11:59Z</time>
<speed>0.010000</speed>
<extensions>
<speed>0.0</speed>
<temp>0.00</temp>
<bpm>0</bpm>
<rpm>0.00</rpm>
</extensions>
</trkpt>
<trkpt lat="64.042060852" lon="-19.349306107">
<ele>581.156250</ele>
<time>2012-07-21T22:12:04Z</time>
<speed>0.740000</speed>
<extensions>
<speed>0.7</speed>
<temp>0.00</temp>
<bpm>0</bpm>
<rpm>0.00</rpm>
</extensions>
</trkpt>
<trkpt lat="64.042022705" lon="-19.349273682">
<ele>581.765625</ele>
<time>2012-07-21T22:12:09Z</time>
<speed>1.340000</speed>
<extensions>
<speed>1.3</speed>
<temp>0.00</temp>
<bpm>0</bpm>
<rpm>0.00</rpm>
</extensions>
</trkpt>
<trkpt lat="64.041984558" lon="-19.349214554">
<ele>581.421875</ele>
<time>2012-07-21T22:12:14Z</time>
<speed>1.210000</speed>
<extensions>
<speed>1.2</speed>
<temp>0.00</temp>
<bpm>0</bpm>
<rpm>0.00</rpm>
</extensions>
</trkpt>
<trkpt lat="64.041931152" lon="-19.349163055">
<ele>582.406250</ele>
<time>2012-07-21T22:12:19Z</time>
<speed>1.200000</speed>
<extensions>
<speed>1.2</speed>
<temp>0.00</temp>
<bpm>0</bpm>
<rpm>0.00</rpm>
</extensions>
</trkpt>
<trkpt lat="64.041885376" lon="-19.349103928">
<ele>582.296875</ele>
<time>2012-07-21T22:12:24Z</time>
<speed>1.420000</speed>
<extensions>
<speed>1.4</speed>
<temp>0.00</temp>
<bpm>0</bpm>
<rpm>0.00</rpm>
</extensions>
</trkpt>
<trkpt lat="64.041847229" lon="-19.349037170">
<ele>582.562500</ele>
<time>2012-07-21T22:12:29Z</time>
<speed>1.380000</speed>
<extensions>
<speed>1.4</speed>
<temp>0.00</temp>
<bpm>0</bpm>
<rpm>0.00</rpm>
</extensions>
</trkpt>
<trkpt lat="64.041801453" lon="-19.348974228">
<ele>582.359375</ele>
<time>2012-07-21T22:12:34Z</time>
<speed>1.070000</speed>
<extensions>
<speed>1.1</speed>
<temp>0.00</temp>
<bpm>0</bpm>
<rpm>0.00</rpm>
</extensions>
</trkpt>
<trkpt lat="64.041748047" lon="-19.348917007">
<ele>582.984375</ele>
<time>2012-07-21T22:12:39Z</time>
<speed>1.460000</speed>
<extensions>
<speed>1.5</speed>
<temp>0.00</temp>
<bpm>0</bpm>
<rpm>0.00</rpm>
</extensions>
</trkpt>
<trkpt lat="64.041702271" lon="-19.348876953">
<ele>583.015625</ele>
<time>2012-07-21T22:12:44Z</time>
<speed>1.380000</speed>
<extensions>
<speed>1.4</speed>
<temp>0.00</temp>
<bpm>0</bpm>
<rpm>0.00</rpm>
</extensions>
</trkpt>
<trkpt lat="64.041648865" lon="-19.348800659">
<ele>583.515625</ele>
<time>2012-07-21T22:12:49Z</time>
<speed>1.460000</speed>
<extensions>
<speed>1.5</speed>
<temp>0.00</temp>
<bpm>0</bpm>
<rpm>0.00</rpm>
</extensions>
</trkpt>
<trkpt lat="64.041587830" lon="-19.348733902">
<ele>584.015625</ele>
<time>2012-07-21T22:12:54Z</time>
<speed>1.540000</speed>
<extensions>
<speed>1.5</speed>
<temp>0.00</temp>
<bpm>0</bpm>
<rpm>0.00</rpm>
</extensions>
</trkpt>
<trkpt lat="64.041534424" lon="-19.348676682">
<ele>584.437500</ele>
<time>2012-07-21T22:12:59Z</time>
<speed>1.250000</speed>
<extensions>
<speed>1.3</speed>
<temp>0.00</temp>
<bpm>0</bpm>
<rpm>0.00</rpm>
</extensions>
</trkpt>
<trkpt lat="64.041488647" lon="-19.348604202">
<ele>584.281250</ele>
<time>2012-07-21T22:13:04Z</time>
<speed>1.420000</speed>
<extensions>
<speed>1.4</speed>
<temp>0.00</temp>
<bpm>0</bpm>
<rpm>0.00</rpm>
</extensions>
</trkpt>
<trkpt lat="64.041435242" lon="-19.348531723">
<ele>584.687500</ele>
<time>2012-07-21T22:13:09Z</time>
<speed>1.340000</speed>
<extensions>
<speed>1.3</speed>
<temp>0.00</temp>
<bpm>0</bpm>
<rpm>0.00</rpm>
</extensions>
</trkpt>
<trkpt lat="64.041381836" lon="-19.348457336">
<ele>585.203125</ele>
<time>2012-07-21T22:13:14Z</time>
<speed>1.170000</speed>
<extensions>
<speed>1.2</speed>
<temp>0.00</temp>
<bpm>0</bpm>
<rpm>0.00</rpm>
</extensions>
</trkpt>
<trkpt lat="64.041366577" lon="-19.348438263">
<ele>586.031250</ele>
<time>2012-07-21T22:13:19Z</time>
<extensions>
<speed>0.0</speed>
<temp>0.00</temp>
<bpm>0</bpm>
<rpm>0.00</rpm>
</extensions>
</trkpt>
<trkpt lat="64.041358948" lon="-19.348434448">
<ele>586.218750</ele>
<time>2012-07-21T22:13:24Z</time>
<speed>0.970000</speed>
<extensions>
<speed>1.0</speed>
<temp>0.00</temp>
<bpm>0</bpm>
<rpm>0.00</rpm>
</extensions>
</trkpt>
<trkpt lat="64.041320801" lon="-19.348379135">
<ele>585.359375</ele>
<time>2012-07-21T22:13:29Z</time>
<speed>0.830000</speed>
<extensions>
<speed>0.8</speed>
<temp>0.00</temp>
<bpm>0</bpm>
<rpm>0.00</rpm>
</extensions>
</trkpt>
<trkpt lat="64.041282654" lon="-19.348320007">
<ele>585.390625</ele>
<time>2012-07-21T22:13:34Z</time>
<speed>1.210000</speed>
<extensions>
<speed>1.2</speed>
<temp>0.00</temp>
<bpm>0</bpm>
<rpm>0.00</rpm>
</extensions>
</trkpt>
<trkpt lat="64.041244507" lon="-19.348257065">
<ele>585.468750</ele>
<time>2012-07-21T22:13:39Z</time>
<speed>1.160000</speed>
<extensions>
<speed>1.2</speed>
<temp>0.00</temp>
<bpm>0</bpm>
<rpm>0.00</rpm>
</extensions>
</trkpt>
<trkpt lat="64.041198730" lon="-19.348186493">
<ele>585.609375</ele>
<time>2012-07-21T22:13:44Z</time>
<speed>1.320000</speed>
<extensions>
<speed>1.3</speed>
<temp>0.00</temp>
<bpm>0</bpm>
<rpm>0.00</rpm>
</extensions>
</trkpt>
<trkpt lat="64.041145325" lon="-19.348121643">
<ele>585.734375</ele>
<time>2012-07-21T22:13:49Z</time>
<speed>1.350000</speed>
<extensions>
<speed>1.4</speed>
<temp>0.00</temp>
<bpm>0</bpm>
<rpm>0.00</rpm>
</extensions>
</trkpt>
<trkpt lat="64.041091919" lon="-19.348072052">
<ele>585.968750</ele>
<time>2012-07-21T22:13:54Z</time>
<speed>1.010000</speed>
<extensions>
<speed>1.0</speed>
<temp>0.00</temp>
<bpm>0</bpm>
<rpm>0.00</rpm>
</extensions>
</trkpt>
<trkpt lat="64.041053772" lon="-19.348009109">
<ele>585.953125</ele>
<time>2012-07-21T22:13:59Z</time>
<speed>1.180000</speed>
<extensions>
<speed>1.2</speed>
<temp>0.00</temp>
<bpm>0</bpm>
<rpm>0.00</rpm>
</extensions>
</trkpt>
<trkpt lat="64.041015625" lon="-19.347951889">
<ele>586.328125</ele>
<time>2012-07-21T22:14:04Z</time>
<speed>1.320000</speed>
<extensions>
<speed>1.3</speed>
<temp>0.00</temp>
<bpm>0</bpm>
<rpm>0.00</rpm>
</extensions>
</trkpt>
<trkpt lat="64.040954590" lon="-19.347900391">
<ele>586.890625</ele>
<time>2012-07-21T22:14:09Z</time>
<speed>0.920000</speed>
<extensions>
<speed>0.9</speed>
<temp>0.00</temp>
<bpm>0</bpm>
<rpm>0.00</rpm>
</extensions>
</trkpt>
<trkpt lat="64.040908813" lon="-19.347829819">
<ele>586.656250</ele>
<time>2012-07-21T22:14:14Z</time>
<speed>1.220000</speed>
<extensions>
<speed>1.2</speed>
<temp>0.00</temp>
<bpm>0</bpm>
<rpm>0.00</rpm>
</extensions>
</trkpt>
<trkpt lat="64.040863037" lon="-19.347768784">
<ele>586.937500</ele>
<time>2012-07-21T22:14:19Z</time>
<speed>1.440000</speed>
<extensions>
<speed>1.4</speed>
<temp>0.00</temp>
<bpm>0</bpm>
<rpm>0.00</rpm>
</extensions>
</trkpt>
<trkpt lat="64.040817261" lon="-19.347688675">
<ele>587.187500</ele>
<time>2012-07-21T22:14:24Z</time>
<speed>1.080000</speed>
<extensions>
<speed>1.1</speed>
<temp>0.00</temp>
<bpm>0</bpm>
<rpm>0.00</rpm>
</extensions>
</trkpt>
<trkpt lat="64.040771484" lon="-19.347627640">
<ele>587.109375</ele>
<time>2012-07-21T22:14:29Z</time>
<speed>1.100000</speed>
<extensions>
<speed>1.1</speed>
<temp>0.00</temp>
<bpm>0</bpm>
<rpm>0.00</rpm>
</extensions>
</trkpt>
<trkpt lat="64.040725708" lon="-19.347568512">
<ele>587.312500</ele>
<time>2012-07-21T22:14:34Z</time>
<speed>1.210000</speed>
<extensions>
<speed>1.2</speed>
<temp>0.00</temp>
<bpm>0</bpm>
<rpm>0.00</rpm>
</extensions>
</trkpt>
<trkpt lat="64.040679932" lon="-19.347509384">
<ele>587.609375</ele>
<time>2012-07-21T22:14:39Z</time>
<speed>1.100000</speed>
<extensions>
<speed>1.1</speed>
<temp>0.00</temp>
<bpm>0</bpm>
<rpm>0.00</rpm>
</extensions>
</trkpt>
<trkpt lat="64.040626526" lon="-19.347450256">
<ele>587.875000</ele>
<time>2012-07-21T22:14:44Z</time>
<speed>1.150000</speed>
<extensions>
<speed>1.1</speed>
<temp>0.00</temp>
<bpm>0</bpm>
<rpm>0.00</rpm>
</extensions>
</trkpt>
<trkpt lat="64.040588379" lon="-19.347366333">
<ele>587.218750</ele>
<time>2012-07-21T22:14:49Z</time>
<speed>1.170000</speed>
<extensions>
<speed>1.2</speed>
<temp>0.00</temp>
<bpm>0</bpm>
<rpm>0.00</rpm>
</extensions>
</trkpt>
<trkpt lat="64.040565491" lon="-19.347332001">
<ele>587.000000</ele>
<time>2012-07-21T22:14:54Z</time>
<speed>0.070000</speed>
<extensions>
<speed>0.1</speed>
<temp>0.00</temp>
<bpm>0</bpm>
<rpm>0.00</rpm>
</extensions>
</trkpt>
<trkpt lat="64.040542603" lon="-19.347312927">
<ele>587.625000</ele>
<time>2012-07-21T22:14:59Z</time>
<speed>1.200000</speed>
<extensions>
<speed>1.2</speed>
<temp>0.00</temp>
<bpm>0</bpm>
<rpm>0.00</rpm>
</extensions>
</trkpt>
<trkpt lat="64.040496826" lon="-19.347229004">
<ele>587.437500</ele>
<time>2012-07-21T22:15:04Z</time>
<speed>1.320000</speed>
<extensions>
<speed>1.3</speed>
<temp>0.00</temp>
<bpm>0</bpm>
<rpm>0.00</rpm>
</extensions>
</trkpt>
<trkpt lat="64.040458679" lon="-19.347175598">
<ele>587.875000</ele>
<time>2012-07-21T22:15:09Z</time>
<speed>1.120000</speed>
<extensions>
<speed>1.1</speed>
<temp>0.00</temp>
<bpm>0</bpm>
<rpm>0.00</rpm>
</extensions>
</trkpt>
<trkpt lat="64.040412903" lon="-19.347097397">
<ele>587.546875</ele>
<time>2012-07-21T22:15:14Z</time>
<speed>1.170000</speed>
<extensions>
<speed>1.2</speed>
<temp>0.00</temp>
<bpm>0</bpm>
<rpm>0.00</rpm>
</extensions>
</trkpt>
<trkpt lat="64.040367126" lon="-19.347026825">
<ele>587.078125</ele>
<time>2012-07-21T22:15:19Z</time>
<speed>1.350000</speed>
<extensions>
<speed>1.4</speed>
<temp>0.00</temp>
<bpm>0</bpm>
<rpm>0.00</rpm>
</extensions>
</trkpt>
<trkpt lat="64.040313721" lon="-19.346950531">
<ele>586.828125</ele>
<time>2012-07-21T22:15:24Z</time>
<speed>1.360000</speed>
<extensions>
<speed>1.4</speed>
<temp>0.00</temp>
<bpm>0</bpm>
<rpm>0.00</rpm>
</extensions>
</trkpt>
<trkpt lat="64.040267944" lon="-19.346878052">
<ele>587.093750</ele>
<time>2012-07-21T22:15:29Z</time>
<speed>1.370000</speed>
<extensions>
<speed>1.4</speed>
<temp>0.00</temp>
<bpm>0</bpm>
<rpm>0.00</rpm>
</extensions>
</trkpt>
<trkpt lat="64.040229797" lon="-19.346796036">
<ele>587.093750</ele>
<time>2012-07-21T22:15:34Z</time>
<speed>1.250000</speed>
<extensions>
<speed>1.3</speed>
<temp>0.00</temp>
<bpm>0</bpm>
<rpm>0.00</rpm>
</extensions>
</trkpt>
<trkpt lat="64.040184021" lon="-19.346729279">
<ele>587.312500</ele>
<time>2012-07-21T22:15:39Z</time>
<speed>1.420000</speed>
<extensions>
<speed>1.4</speed>
<temp>0.00</temp>
<bpm>0</bpm>
<rpm>0.00</rpm>
</extensions>
</trkpt>
<trkpt lat="64.040138245" lon="-19.346637726">
<ele>587.359375</ele>
<time>2012-07-21T22:15:44Z</time>
<speed>1.160000</speed>
<extensions>
<speed>1.2</speed>
<temp>0.00</temp>
<bpm>0</bpm>
<rpm>0.00</rpm>
</extensions>
</trkpt>
<trkpt lat="64.040130615" lon="-19.346580505">
<ele>586.546875</ele>
<time>2012-07-21T22:15:49Z</time>
<speed>0.010000</speed>
<extensions>
<speed>0.0</speed>
<temp>0.00</temp>
<bpm>0</bpm>
<rpm>0.00</rpm>
</extensions>
</trkpt>
<trkpt lat="64.040130615" lon="-19.346591949">
<ele>586.500000</ele>
<time>2012-07-21T22:15:54Z</time>
<speed>0.020000</speed>
<extensions>
<speed>0.0</speed>
<temp>0.00</temp>
<bpm>0</bpm>
<rpm>0.00</rpm>
</extensions>
</trkpt>
<trkpt lat="64.040138245" lon="-19.346582413">
<ele>587.046875</ele>
<time>2012-07-21T22:15:59Z</time>
<speed>0.010000</speed>
<extensions>
<speed>0.0</speed>
<temp>0.00</temp>
<bpm>0</bpm>
<rpm>0.00</rpm>
</extensions>
</trkpt>
<trkpt lat="64.040138245" lon="-19.346582413">
<ele>587.000000</ele>
<time>2012-07-21T22:16:04Z</time>
<speed>0.010000</speed>
<extensions>
<speed>0.0</speed>
<temp>0.00</temp>
<bpm>0</bpm>
<rpm>0.00</rpm>
</extensions>
</trkpt>
<trkpt lat="64.040138245" lon="-19.346580505">
<ele>587.031250</ele>
<time>2012-07-21T22:16:09Z</time>
<speed>0.040000</speed>
<extensions>
<speed>0.0</speed>
<temp>0.00</temp>
<bpm>0</bpm>
<rpm>0.00</rpm>
</extensions>
</trkpt>
<trkpt lat="64.040138245" lon="-19.346580505">
<ele>587.015625</ele>
<time>2012-07-21T22:16:14Z</time>
<speed>0.040000</speed>
<extensions>
<speed>0.0</speed>
<temp>0.00</temp>
<bpm>0</bpm>
<rpm>0.00</rpm>
</extensions>
</trkpt>
<trkpt lat="64.040138245" lon="-19.346582413">
<ele>587.015625</ele>
<time>2012-07-21T22:16:19Z</time>
<extensions>
<speed>0.0</speed>
<temp>0.00</temp>
<bpm>0</bpm>
<rpm>0.00</rpm>
</extensions>
</trkpt>
<trkpt lat="64.040138245" lon="-19.346580505">
<ele>587.031250</ele>
<time>2012-07-21T22:16:24Z</time>
<extensions>
<speed>0.0</speed>
<temp>0.00</temp>
<bpm>0</bpm>
<rpm>0.00</rpm>
</extensions>
</trkpt>
<trkpt lat="64.040138245" lon="-19.346580505">
<ele>587.046875</ele>
<time>2012-07-21T22:16:29Z</time>
<extensions>
<speed>0.0</speed>
<temp>0.00</temp>
<bpm>0</bpm>
<rpm>0.00</rpm>
</extensions>
</trkpt>
<trkpt lat="64.040138245" lon="-19.346580505">
<ele>587.062500</ele>
<time>2012-07-21T22:16:34Z</time>
<extensions>
<speed>0.0</speed>
<temp>0.00</temp>
<bpm>0</bpm>
<rpm>0.00</rpm>
</extensions>
</trkpt>
<trkpt lat="64.040138245" lon="-19.346580505">
<ele>587.078125</ele>
<time>2012-07-21T22:16:39Z</time>
<speed>0.020000</speed>
<extensions>
<speed>0.0</speed>
<temp>0.00</temp>
<bpm>0</bpm>
<rpm>0.00</rpm>
</extensions>
</trkpt>
<trkpt lat="64.040138245" lon="-19.346580505">
<ele>587.078125</ele>
<time>2012-07-21T22:16:44Z</time>
<speed>0.010000</speed>
<extensions>
<speed>0.0</speed>
<temp>0.00</temp>
<bpm>0</bpm>
<rpm>0.00</rpm>
</extensions>
</trkpt>
<trkpt lat="64.040138245" lon="-19.346580505">
<ele>587.078125</ele>
<time>2012-07-21T22:16:49Z</time>
<extensions>
<speed>0.0</speed>
<temp>0.00</temp>
<bpm>0</bpm>
<rpm>0.00</rpm>
</extensions>
</trkpt>
<trkpt lat="64.040138245" lon="-19.346578598">
<ele>587.078125</ele>
<time>2012-07-21T22:16:54Z</time>
<speed>0.010000</speed>
<extensions>
<speed>0.0</speed>
<temp>0.00</temp>
<bpm>0</bpm>
<rpm>0.00</rpm>
</extensions>
</trkpt>
<trkpt lat="64.040138245" lon="-19.346578598">
<ele>587.093750</ele>
<time>2012-07-21T22:16:59Z</time>
<speed>0.010000</speed>
<extensions>
<speed>0.0</speed>
<temp>0.00</temp>
<bpm>0</bpm>
<rpm>0.00</rpm>
</extensions>
</trkpt>
<trkpt lat="64.040138245" lon="-19.346578598">
<ele>587.062500</ele>
<time>2012-07-21T22:17:04Z</time>
<extensions>
<speed>0.0</speed>
<temp>0.00</temp>
<bpm>0</bpm>
<rpm>0.00</rpm>
</extensions>
</trkpt>
<trkpt lat="64.040138245" lon="-19.346578598">
<ele>587.062500</ele>
<time>2012-07-21T22:17:09Z</time>
<speed>0.430000</speed>
<extensions>
<speed>0.4</speed>
<temp>0.00</temp>
<bpm>0</bpm>
<rpm>0.00</rpm>
</extensions>
</trkpt>
<trkpt lat="64.040130615" lon="-19.346557617">
<ele>587.421875</ele>
<time>2012-07-21T22:17:14Z</time>
<speed>1.120000</speed>
<extensions>
<speed>1.1</speed>
<temp>0.00</temp>
<bpm>0</bpm>
<rpm>0.00</rpm>
</extensions>
</trkpt>
<trkpt lat="64.040084839" lon="-19.346460342">
<ele>587.781250</ele>
<time>2012-07-21T22:17:19Z</time>
<speed>1.510000</speed>
<extensions>
<speed>1.5</speed>
<temp>0.00</temp>
<bpm>0</bpm>
<rpm>0.00</rpm>
</extensions>
</trkpt>
<trkpt lat="64.040039063" lon="-19.346361160">
<ele>588.500000</ele>
<time>2012-07-21T22:17:24Z</time>
<speed>1.330000</speed>
<extensions>
<speed>1.3</speed>
<temp>0.00</temp>
<bpm>0</bpm>
<rpm>0.00</rpm>
</extensions>
</trkpt>
<trkpt lat="64.040000916" lon="-19.346281052">
<ele>588.562500</ele>
<time>2012-07-21T22:17:29Z</time>
<speed>1.230000</speed>
<extensions>
<speed>1.2</speed>
<temp>0.00</temp>
<bpm>0</bpm>
<rpm>0.00</rpm>
</extensions>
</trkpt>
<trkpt lat="64.039962769" lon="-19.346187592">
<ele>588.140625</ele>
<time>2012-07-21T22:17:34Z</time>
<speed>1.300000</speed>
<extensions>
<speed>1.3</speed>
<temp>0.00</temp>
<bpm>0</bpm>
<rpm>0.00</rpm>
</extensions>
</trkpt>
<trkpt lat="64.039924622" lon="-19.346086502">
<ele>588.203125</ele>
<time>2012-07-21T22:17:39Z</time>
<speed>1.330000</speed>
<extensions>
<speed>1.3</speed>
<temp>0.00</temp>
<bpm>0</bpm>
<rpm>0.00</rpm>
</extensions>
</trkpt>
<trkpt lat="64.039886475" lon="-19.345983505">
<ele>588.046875</ele>
<time>2012-07-21T22:17:44Z</time>
<speed>1.220000</speed>
<extensions>
<speed>1.2</speed>
<temp>0.00</temp>
<bpm>0</bpm>
<rpm>0.00</rpm>
</extensions>
</trkpt>
<trkpt lat="64.039855957" lon="-19.345882416">
<ele>588.281250</ele>
<time>2012-07-21T22:17:49Z</time>
<speed>1.200000</speed>
<extensions>
<speed>1.2</speed>
<temp>0.00</temp>
<bpm>0</bpm>
<rpm>0.00</rpm>
</extensions>
</trkpt>
<trkpt lat="64.039817810" lon="-19.345817566">
<ele>588.890625</ele>
<time>2012-07-21T22:17:54Z</time>
<speed>1.240000</speed>
<extensions>
<speed>1.2</speed>
<temp>0.00</temp>
<bpm>0</bpm>
<rpm>0.00</rpm>
</extensions>
</trkpt>
<trkpt lat="64.039779663" lon="-19.345691681">
<ele>589.062500</ele>
<time>2012-07-21T22:17:59Z</time>
<speed>1.340000</speed>
<extensions>
<speed>1.3</speed>
<temp>0.00</temp>
<bpm>0</bpm>
<rpm>0.00</rpm>
</extensions>
</trkpt>
<trkpt lat="64.039741516" lon="-19.345609665">
<ele>589.109375</ele>
<time>2012-07-21T22:18:04Z</time>
<speed>1.020000</speed>
<extensions>
<speed>1.0</speed>
<temp>0.00</temp>
<bpm>0</bpm>
<rpm>0.00</rpm>
</extensions>
</trkpt>
<trkpt lat="64.039710999" lon="-19.345533371">
<ele>589.828125</ele>
<time>2012-07-21T22:18:09Z</time>
<speed>1.020000</speed>
<extensions>
<speed>1.0</speed>
<temp>0.00</temp>
<bpm>0</bpm>
<rpm>0.00</rpm>
</extensions>
</trkpt>
<trkpt lat="64.039672852" lon="-19.345439911">
<ele>590.515625</ele>
<time>2012-07-21T22:18:14Z</time>
<speed>1.260000</speed>
<extensions>
<speed>1.3</speed>
<temp>0.00</temp>
<bpm>0</bpm>
<rpm>0.00</rpm>
</extensions>
</trkpt>
<trkpt lat="64.039642334" lon="-19.345367432">
<ele>591.187500</ele>
<time>2012-07-21T22:18:19Z</time>
<speed>0.980000</speed>
<extensions>
<speed>1.0</speed>
<temp>0.00</temp>
<bpm>0</bpm>
<rpm>0.00</rpm>
</extensions>
</trkpt>
<trkpt lat="64.039619446" lon="-19.345294952">
<ele>591.500000</ele>
<time>2012-07-21T22:18:24Z</time>
<speed>1.300000</speed>
<extensions>
<speed>1.3</speed>
<temp>0.00</temp>
<bpm>0</bpm>
<rpm>0.00</rpm>
</extensions>
</trkpt>
<trkpt lat="64.039581299" lon="-19.345197678">
<ele>590.843750</ele>
<time>2012-07-21T22:18:29Z</time>
<speed>1.150000</speed>
<extensions>
<speed>1.1</speed>
<temp>0.00</temp>
<bpm>0</bpm>
<rpm>0.00</rpm>
</extensions>
</trkpt>
<trkpt lat="64.039558411" lon="-19.345121384">
<ele>590.453125</ele>
<time>2012-07-21T22:18:34Z</time>
<speed>1.070000</speed>
<extensions>
<speed>1.1</speed>
<temp>0.00</temp>
<bpm>0</bpm>
<rpm>0.00</rpm>
</extensions>
</trkpt>
<trkpt lat="64.039535522" lon="-19.345056534">
<ele>590.578125</ele>
<time>2012-07-21T22:18:39Z</time>
<speed>0.640000</speed>
<extensions>
<speed>0.6</speed>
<temp>0.00</temp>
<bpm>0</bpm>
<rpm>0.00</rpm>
</extensions>
</trkpt>
<trkpt lat="64.039512634" lon="-19.345010757">
<ele>590.953125</ele>
<time>2012-07-21T22:18:44Z</time>
<speed>0.030000</speed>
<extensions>
<speed>0.0</speed>
<temp>0.00</temp>
<bpm>0</bpm>
<rpm>0.00</rpm>
</extensions>
</trkpt>
<trkpt lat="64.039512634" lon="-19.345008850">
<ele>590.703125</ele>
<time>2012-07-21T22:18:49Z</time>
<speed>0.020000</speed>
<extensions>
<speed>0.0</speed>
<temp>0.00</temp>
<bpm>0</bpm>
<rpm>0.00</rpm>
</extensions>
</trkpt>
<trkpt lat="64.039497375" lon="-19.344963074">
<ele>590.765625</ele>
<time>2012-07-21T22:18:54Z</time>
<speed>1.070000</speed>
<extensions>
<speed>1.1</speed>
<temp>0.00</temp>
<bpm>0</bpm>
<rpm>0.00</rpm>
</extensions>
</trkpt>
<trkpt lat="64.039466858" lon="-19.344852448">
<ele>591.296875</ele>
<time>2012-07-21T22:18:59Z</time>
<speed>1.300000</speed>
<extensions>
<speed>1.3</speed>
<temp>0.00</temp>
<bpm>0</bpm>
<rpm>0.00</rpm>
</extensions>
</trkpt>
<trkpt lat="64.039443970" lon="-19.344760895">
<ele>591.453125</ele>
<time>2012-07-21T22:19:04Z</time>
<speed>0.980000</speed>
<extensions>
<speed>1.0</speed>
<temp>0.00</temp>
<bpm>0</bpm>
<rpm>0.00</rpm>
</extensions>
</trkpt>
<trkpt lat="64.039405823" lon="-19.344688416">
<ele>591.109375</ele>
<time>2012-07-21T22:19:09Z</time>
<speed>0.920000</speed>
<extensions>
<speed>0.9</speed>
<temp>0.00</temp>
<bpm>0</bpm>
<rpm>0.00</rpm>
</extensions>
</trkpt>
<trkpt lat="64.039367676" lon="-19.344575882">
<ele>589.578125</ele>
<time>2012-07-21T22:19:14Z</time>
<speed>1.160000</speed>
<extensions>
<speed>1.2</speed>
<temp>0.00</temp>
<bpm>0</bpm>
<rpm>0.00</rpm>
</extensions>
</trkpt>
<trkpt lat="64.039337158" lon="-19.344463348">
<ele>589.125000</ele>
<time>2012-07-21T22:19:19Z</time>
<speed>1.080000</speed>
<extensions>
<speed>1.1</speed>
<temp>0.00</temp>
<bpm>0</bpm>
<rpm>0.00</rpm>
</extensions>
</trkpt>
<trkpt lat="64.039306641" lon="-19.344343185">
<ele>588.609375</ele>
<time>2012-07-21T22:19:24Z</time>
<speed>1.030000</speed>
<extensions>
<speed>1.0</speed>
<temp>0.00</temp>
<bpm>0</bpm>
<rpm>0.00</rpm>
</extensions>
</trkpt>
<trkpt lat="64.039291382" lon="-19.344226837">
<ele>589.031250</ele>
<time>2012-07-21T22:19:29Z</time>
<speed>1.160000</speed>
<extensions>
<speed>1.2</speed>
<temp>0.00</temp>
<bpm>0</bpm>
<rpm>0.00</rpm>
</extensions>
</trkpt>
<trkpt lat="64.039260864" lon="-19.344167709">
<ele>589.078125</ele>
<time>2012-07-21T22:19:34Z</time>
<speed>1.040000</speed>
<extensions>
<speed>1.0</speed>
<temp>0.00</temp>
<bpm>0</bpm>
<rpm>0.00</rpm>
</extensions>
</trkpt>
<trkpt lat="64.039245605" lon="-19.344081879">
<ele>589.671875</ele>
<time>2012-07-21T22:19:39Z</time>
<speed>0.980000</speed>
<extensions>
<speed>1.0</speed>
<temp>0.00</temp>
<bpm>0</bpm>
<rpm>0.00</rpm>
</extensions>
</trkpt>
<trkpt lat="64.039215088" lon="-19.343982697">
<ele>590.171875</ele>
<time>2012-07-21T22:19:44Z</time>
<speed>1.340000</speed>
<extensions>
<speed>1.3</speed>
<temp>0.00</temp>
<bpm>0</bpm>
<rpm>0.00</rpm>
</extensions>
</trkpt>
<trkpt lat="64.039199829" lon="-19.343879700">
<ele>590.843750</ele>
<time>2012-07-21T22:19:49Z</time>
<speed>0.950000</speed>
<extensions>
<speed>1.0</speed>
<temp>0.00</temp>
<bpm>0</bpm>
<rpm>0.00</rpm>
</extensions>
</trkpt>
<trkpt lat="64.039184570" lon="-19.343816757">
<ele>591.046875</ele>
<time>2012-07-21T22:19:54Z</time>
<speed>0.120000</speed>
<extensions>
<speed>0.1</speed>
<temp>0.00</temp>
<bpm>0</bpm>
<rpm>0.00</rpm>
</extensions>
</trkpt>
<trkpt lat="64.039184570" lon="-19.343824387">
<ele>591.171875</ele>
<time>2012-07-21T22:19:59Z</time>
<extensions>
<speed>0.0</speed>
<temp>0.00</temp>
<bpm>0</bpm>
<rpm>0.00</rpm>
</extensions>
</trkpt>
<trkpt lat="64.039169312" lon="-19.343772888">
<ele>590.718750</ele>
<time>2012-07-21T22:20:04Z</time>
<speed>0.940000</speed>
<extensions>
<speed>0.9</speed>
<temp>0.00</temp>
<bpm>0</bpm>
<rpm>0.00</rpm>
</extensions>
</trkpt>
<trkpt lat="64.039161682" lon="-19.343694687">
<ele>590.031250</ele>
<time>2012-07-21T22:20:09Z</time>
<speed>0.240000</speed>
<extensions>
<speed>0.2</speed>
<temp>0.00</temp>
<bpm>0</bpm>
<rpm>0.00</rpm>
</extensions>
</trkpt>
<trkpt lat="64.039154053" lon="-19.343692780">
<ele>589.750000</ele>
<time>2012-07-21T22:20:14Z</time>
<speed>0.050000</speed>
<extensions>
<speed>0.1</speed>
<temp>0.00</temp>
<bpm>0</bpm>
<rpm>0.00</rpm>
</extensions>
</trkpt>
<trkpt lat="64.039154053" lon="-19.343679428">
<ele>589.843750</ele>
<time>2012-07-21T22:20:19Z</time>
<speed>0.800000</speed>
<extensions>
<speed>0.8</speed>
<temp>0.00</temp>
<bpm>0</bpm>
<rpm>0.00</rpm>
</extensions>
</trkpt>
<trkpt lat="64.039138794" lon="-19.343591690">
<ele>590.203125</ele>
<time>2012-07-21T22:20:24Z</time>
<speed>0.890000</speed>
<extensions>
<speed>0.9</speed>
<temp>0.00</temp>
<bpm>0</bpm>
<rpm>0.00</rpm>
</extensions>
</trkpt>
<trkpt lat="64.039123535" lon="-19.343481064">
<ele>590.625000</ele>
<time>2012-07-21T22:20:29Z</time>
<speed>1.180000</speed>
<extensions>
<speed>1.2</speed>
<temp>0.00</temp>
<bpm>0</bpm>
<rpm>0.00</rpm>
</extensions>
</trkpt>
<trkpt lat="64.039108276" lon="-19.343374252">
<ele>590.328125</ele>
<time>2012-07-21T22:20:34Z</time>
<speed>1.060000</speed>
<extensions>
<speed>1.1</speed>
<temp>0.00</temp>
<bpm>0</bpm>
<rpm>0.00</rpm>
</extensions>
</trkpt>
<trkpt lat="64.039100647" lon="-19.343252182">
<ele>590.796875</ele>
<time>2012-07-21T22:20:39Z</time>
<speed>1.090000</speed>
<extensions>
<speed>1.1</speed>
<temp>0.00</temp>
<bpm>0</bpm>
<rpm>0.00</rpm>
</extensions>
</trkpt>
<trkpt lat="64.039100647" lon="-19.343210220">
<ele>590.984375</ele>
<time>2012-07-21T22:20:44Z</time>
<speed>0.020000</speed>
<extensions>
<speed>0.0</speed>
<temp>0.00</temp>
<bpm>0</bpm>
<rpm>0.00</rpm>
</extensions>
</trkpt>
<trkpt lat="64.039100647" lon="-19.343206406">
<ele>590.968750</ele>
<time>2012-07-21T22:20:49Z</time>
<speed>0.030000</speed>
<extensions>
<speed>0.0</speed>
<temp>0.00</temp>
<bpm>0</bpm>
<rpm>0.00</rpm>
</extensions>
</trkpt>
<trkpt lat="64.039100647" lon="-19.343158722">
<ele>590.718750</ele>
<time>2012-07-21T22:20:54Z</time>
<speed>1.110000</speed>
<extensions>
<speed>1.1</speed>
<temp>0.00</temp>
<bpm>0</bpm>
<rpm>0.00</rpm>
</extensions>
</trkpt>
<trkpt lat="64.039093018" lon="-19.343042374">
<ele>590.593750</ele>
<time>2012-07-21T22:20:59Z</time>
<speed>1.210000</speed>
<extensions>
<speed>1.2</speed>
<temp>0.00</temp>
<bpm>0</bpm>
<rpm>0.00</rpm>
</extensions>
</trkpt>
<trkpt lat="64.039070129" lon="-19.342931747">
<ele>590.187500</ele>
<time>2012-07-21T22:21:04Z</time>
<speed>1.080000</speed>
<extensions>
<speed>1.1</speed>
<temp>0.00</temp>
<bpm>0</bpm>
<rpm>0.00</rpm>
</extensions>
</trkpt>
<trkpt lat="64.039062500" lon="-19.342845917">
<ele>589.750000</ele>
<time>2012-07-21T22:21:09Z</time>
<speed>0.650000</speed>
<extensions>
<speed>0.6</speed>
<temp>0.00</temp>
<bpm>0</bpm>
<rpm>0.00</rpm>
</extensions>
</trkpt>
<trkpt lat="64.039070129" lon="-19.342834473">
<ele>589.656250</ele>
<time>2012-07-21T22:21:14Z</time>
<speed>0.020000</speed>
<extensions>
<speed>0.0</speed>
<temp>0.00</temp>
<bpm>0</bpm>
<rpm>0.00</rpm>
</extensions>
</trkpt>
<trkpt lat="64.039070129" lon="-19.342834473">
<ele>589.687500</ele>
<time>2012-07-21T22:21:19Z</time>
<speed>0.020000</speed>
<extensions>
<speed>0.0</speed>
<temp>0.00</temp>
<bpm>0</bpm>
<rpm>0.00</rpm>
</extensions>
</trkpt>
<trkpt lat="64.039054871" lon="-19.342771530">
<ele>590.031250</ele>
<time>2012-07-21T22:21:24Z</time>
<speed>0.990000</speed>
<extensions>
<speed>1.0</speed>
<temp>0.00</temp>
<bpm>0</bpm>
<rpm>0.00</rpm>
</extensions>
</trkpt>
<trkpt lat="64.039047241" lon="-19.342670441">
<ele>590.359375</ele>
<time>2012-07-21T22:21:29Z</time>
<speed>0.950000</speed>
<extensions>
<speed>1.0</speed>
<temp>0.00</temp>
<bpm>0</bpm>
<rpm>0.00</rpm>
</extensions>
</trkpt>
<trkpt lat="64.039039612" lon="-19.342546463">
<ele>591.437500</ele>
<time>2012-07-21T22:21:34Z</time>
<speed>1.130000</speed>
<extensions>
<speed>1.1</speed>
<temp>0.00</temp>
<bpm>0</bpm>
<rpm>0.00</rpm>
</extensions>
</trkpt>
<trkpt lat="64.039031982" lon="-19.342441559">
<ele>590.906250</ele>
<time>2012-07-21T22:21:39Z</time>
<speed>0.330000</speed>
<extensions>
<speed>0.3</speed>
<temp>0.00</temp>
<bpm>0</bpm>
<rpm>0.00</rpm>
</extensions>
</trkpt>
<trkpt lat="64.039024353" lon="-19.342439651">
<ele>590.953125</ele>
<time>2012-07-21T22:21:44Z</time>
<extensions>
<speed>0.0</speed>
<temp>0.00</temp>
<bpm>0</bpm>
<rpm>0.00</rpm>
</extensions>
</trkpt>
<trkpt lat="64.039024353" lon="-19.342380524">
<ele>590.734375</ele>
<time>2012-07-21T22:21:49Z</time>
<speed>0.960000</speed>
<extensions>
<speed>1.0</speed>
<temp>0.00</temp>
<bpm>0</bpm>
<rpm>0.00</rpm>
</extensions>
</trkpt>
<trkpt lat="64.039016724" lon="-19.342281342">
<ele>591.031250</ele>
<time>2012-07-21T22:21:54Z</time>
<speed>1.150000</speed>
<extensions>
<speed>1.1</speed>
<temp>0.00</temp>
<bpm>0</bpm>
<rpm>0.00</rpm>
</extensions>
</trkpt>
<trkpt lat="64.039024353" lon="-19.342136383">
<ele>590.765625</ele>
<time>2012-07-21T22:21:59Z</time>
<speed>1.150000</speed>
<extensions>
<speed>1.1</speed>
<temp>0.00</temp>
<bpm>0</bpm>
<rpm>0.00</rpm>
</extensions>
</trkpt>
<trkpt lat="64.039024353" lon="-19.342014313">
<ele>590.812500</ele>
<time>2012-07-21T22:22:04Z</time>
<speed>0.840000</speed>
<extensions>
<speed>0.8</speed>
<temp>0.00</temp>
<bpm>0</bpm>
<rpm>0.00</rpm>
</extensions>
</trkpt>
<trkpt lat="64.039024353" lon="-19.341938019">
<ele>591.437500</ele>
<time>2012-07-21T22:22:09Z</time>
<speed>1.020000</speed>
<extensions>
<speed>1.0</speed>
<temp>0.00</temp>
<bpm>0</bpm>
<rpm>0.00</rpm>
</extensions>
</trkpt>
<trkpt lat="64.039009094" lon="-19.341838837">
<ele>591.812500</ele>
<time>2012-07-21T22:22:14Z</time>
<speed>1.110000</speed>
<extensions>
<speed>1.1</speed>
<temp>0.00</temp>
<bpm>0</bpm>
<rpm>0.00</rpm>
</extensions>
</trkpt>
<trkpt lat="64.039009094" lon="-19.341760635">
<ele>592.031250</ele>
<time>2012-07-21T22:22:19Z</time>
<speed>1.040000</speed>
<extensions>
<speed>1.0</speed>
<temp>0.00</temp>
<bpm>0</bpm>
<rpm>0.00</rpm>
</extensions>
</trkpt>
<trkpt lat="64.039001465" lon="-19.341632843">
<ele>591.796875</ele>
<time>2012-07-21T22:22:24Z</time>
<speed>1.110000</speed>
<extensions>
<speed>1.1</speed>
<temp>0.00</temp>
<bpm>0</bpm>
<rpm>0.00</rpm>
</extensions>
</trkpt>
<trkpt lat="64.039009094" lon="-19.341505051">
<ele>593.828125</ele>
<time>2012-07-21T22:22:29Z</time>
<speed>1.470000</speed>
<extensions>
<speed>1.5</speed>
<temp>0.00</temp>
<bpm>0</bpm>
<rpm>0.00</rpm>
</extensions>
</trkpt>
<trkpt lat="64.039009094" lon="-19.341405869">
<ele>593.750000</ele>
<time>2012-07-21T22:22:34Z</time>
<speed>1.190000</speed>
<extensions>
<speed>1.2</speed>
<temp>0.00</temp>
<bpm>0</bpm>
<rpm>0.00</rpm>
</extensions>
</trkpt>
<trkpt lat="64.039009094" lon="-19.341390610">
<ele>593.359375</ele>
<time>2012-07-21T22:22:39Z</time>
<speed>0.120000</speed>
<extensions>
<speed>0.1</speed>
<temp>0.00</temp>
<bpm>0</bpm>
<rpm>0.00</rpm>
</extensions>
</trkpt>
<trkpt lat="64.039009094" lon="-19.341386795">
<ele>593.250000</ele>
<time>2012-07-21T22:22:44Z</time>
<speed>0.360000</speed>
<extensions>
<speed>0.4</speed>
<temp>0.00</temp>
<bpm>0</bpm>
<rpm>0.00</rpm>
</extensions>
</trkpt>
<trkpt lat="64.038993835" lon="-19.341316223">
<ele>593.406250</ele>
<time>2012-07-21T22:22:49Z</time>
<speed>0.710000</speed>
<extensions>
<speed>0.7</speed>
<temp>0.00</temp>
<bpm>0</bpm>
<rpm>0.00</rpm>
</extensions>
</trkpt>
<trkpt lat="64.038970947" lon="-19.341251373">
<ele>593.515625</ele>
<time>2012-07-21T22:22:54Z</time>
<speed>1.050000</speed>
<extensions>
<speed>1.0</speed>
<temp>0.00</temp>
<bpm>0</bpm>
<rpm>0.00</rpm>
</extensions>
</trkpt>
<trkpt lat="64.038970947" lon="-19.341133118">
<ele>594.171875</ele>
<time>2012-07-21T22:22:59Z</time>
<speed>1.180000</speed>
<extensions>
<speed>1.2</speed>
<temp>0.00</temp>
<bpm>0</bpm>
<rpm>0.00</rpm>
</extensions>
</trkpt>
<trkpt lat="64.038970947" lon="-19.340997696">
<ele>593.937500</ele>
<time>2012-07-21T22:23:04Z</time>
<speed>1.110000</speed>
<extensions>
<speed>1.1</speed>
<temp>0.00</temp>
<bpm>0</bpm>
<rpm>0.00</rpm>
</extensions>
</trkpt>
<trkpt lat="64.038963318" lon="-19.340892792">
<ele>593.703125</ele>
<time>2012-07-21T22:23:09Z</time>
<speed>0.070000</speed>
<extensions>
<speed>0.1</speed>
<temp>0.00</temp>
<bpm>0</bpm>
<rpm>0.00</rpm>
</extensions>
</trkpt>
<trkpt lat="64.038970947" lon="-19.340888977">
<ele>593.656250</ele>
<time>2012-07-21T22:23:14Z</time>
<speed>0.070000</speed>
<extensions>
<speed>0.1</speed>
<temp>0.00</temp>
<bpm>0</bpm>
<rpm>0.00</rpm>
</extensions>
</trkpt>
<trkpt lat="64.038970947" lon="-19.340887070">
<ele>593.578125</ele>
<time>2012-07-21T22:23:19Z</time>
<speed>0.060000</speed>
<extensions>
<speed>0.1</speed>
<temp>0.00</temp>
<bpm>0</bpm>
<rpm>0.00</rpm>
</extensions>
</trkpt>
<trkpt lat="64.038970947" lon="-19.340888977">
<ele>593.546875</ele>
<time>2012-07-21T22:23:24Z</time>
<speed>0.030000</speed>
<extensions>
<speed>0.0</speed>
<temp>0.00</temp>
<bpm>0</bpm>
<rpm>0.00</rpm>
</extensions>
</trkpt>
<trkpt lat="64.038970947" lon="-19.340887070">
<ele>593.531250</ele>
<time>2012-07-21T22:23:29Z</time>
<speed>0.090000</speed>
<extensions>
<speed>0.1</speed>
<temp>0.00</temp>
<bpm>0</bpm>
<rpm>0.00</rpm>
</extensions>
</trkpt>
<trkpt lat="64.038970947" lon="-19.340854645">
<ele>593.812500</ele>
<time>2012-07-21T22:23:34Z</time>
<speed>0.900000</speed>
<extensions>
<speed>0.9</speed>
<temp>0.00</temp>
<bpm>0</bpm>
<rpm>0.00</rpm>
</extensions>
</trkpt>
<trkpt lat="64.038963318" lon="-19.340738297">
<ele>594.625000</ele>
<time>2012-07-21T22:23:39Z</time>
<speed>1.360000</speed>
<extensions>
<speed>1.4</speed>
<temp>0.00</temp>
<bpm>0</bpm>
<rpm>0.00</rpm>
</extensions>
</trkpt>
<trkpt lat="64.038963318" lon="-19.340599060">
<ele>594.500000</ele>
<time>2012-07-21T22:23:44Z</time>
<speed>1.290000</speed>
<extensions>
<speed>1.3</speed>
<temp>0.00</temp>
<bpm>0</bpm>
<rpm>0.00</rpm>
</extensions>
</trkpt>
<trkpt lat="64.038963318" lon="-19.340463638">
<ele>594.109375</ele>
<time>2012-07-21T22:23:49Z</time>
<speed>1.380000</speed>
<extensions>
<speed>1.4</speed>
<temp>0.00</temp>
<bpm>0</bpm>
<rpm>0.00</rpm>
</extensions>
</trkpt>
<trkpt lat="64.038963318" lon="-19.340318680">
<ele>594.093750</ele>
<time>2012-07-21T22:23:54Z</time>
<speed>1.190000</speed>
<extensions>
<speed>1.2</speed>
<temp>0.00</temp>
<bpm>0</bpm>
<rpm>0.00</rpm>
</extensions>
</trkpt>
<trkpt lat="64.038955688" lon="-19.340198517">
<ele>594.468750</ele>
<time>2012-07-21T22:23:59Z</time>
<speed>0.910000</speed>
<extensions>
<speed>0.9</speed>
<temp>0.00</temp>
<bpm>0</bpm>
<rpm>0.00</rpm>
</extensions>
</trkpt>
<trkpt lat="64.038955688" lon="-19.340177536">
<ele>594.437500</ele>
<time>2012-07-21T22:24:04Z</time>
<speed>0.810000</speed>
<extensions>
<speed>0.8</speed>
<temp>0.00</temp>
<bpm>0</bpm>
<rpm>0.00</rpm>
</extensions>
</trkpt>
<trkpt lat="64.038955688" lon="-19.340072632">
<ele>594.406250</ele>
<time>2012-07-21T22:24:09Z</time>
<speed>1.090000</speed>
<extensions>
<speed>1.1</speed>
<temp>0.00</temp>
<bpm>0</bpm>
<rpm>0.00</rpm>
</extensions>
</trkpt>
<trkpt lat="64.038955688" lon="-19.339973450">
<ele>595.031250</ele>
<time>2012-07-21T22:24:14Z</time>
<speed>1.110000</speed>
<extensions>
<speed>1.1</speed>
<temp>0.00</temp>
<bpm>0</bpm>
<rpm>0.00</rpm>
</extensions>
</trkpt>
<trkpt lat="64.038948059" lon="-19.339876175">
<ele>595.375000</ele>
<time>2012-07-21T22:24:19Z</time>
<speed>1.120000</speed>
<extensions>
<speed>1.1</speed>
<temp>0.00</temp>
<bpm>0</bpm>
<rpm>0.00</rpm>
</extensions>
</trkpt>
<trkpt lat="64.038940430" lon="-19.339778900">
<ele>595.671875</ele>
<time>2012-07-21T22:24:24Z</time>
<speed>0.310000</speed>
<extensions>
<speed>0.3</speed>
<temp>0.00</temp>
<bpm>0</bpm>
<rpm>0.00</rpm>
</extensions>
</trkpt>
<trkpt lat="64.038940430" lon="-19.339765549">
<ele>595.718750</ele>
<time>2012-07-21T22:24:29Z</time>
<speed>0.190000</speed>
<extensions>
<speed>0.2</speed>
<temp>0.00</temp>
<bpm>0</bpm>
<rpm>0.00</rpm>
</extensions>
</trkpt>
<trkpt lat="64.038932800" lon="-19.339700699">
<ele>595.187500</ele>
<time>2012-07-21T22:24:34Z</time>
<speed>0.700000</speed>
<extensions>
<speed>0.7</speed>
<temp>0.00</temp>
<bpm>0</bpm>
<rpm>0.00</rpm>
</extensions>
</trkpt>
<trkpt lat="64.038932800" lon="-19.339670181">
<ele>595.093750</ele>
<time>2012-07-21T22:24:39Z</time>
<speed>0.120000</speed>
<extensions>
<speed>0.1</speed>
<temp>0.00</temp>
<bpm>0</bpm>
<rpm>0.00</rpm>
</extensions>
</trkpt>
<trkpt lat="64.038925171" lon="-19.339611053">
<ele>594.984375</ele>
<time>2012-07-21T22:24:44Z</time>
<speed>0.890000</speed>
<extensions>
<speed>0.9</speed>
<temp>0.00</temp>
<bpm>0</bpm>
<rpm>0.00</rpm>
</extensions>
</trkpt>
<trkpt lat="64.038925171" lon="-19.339500427">
<ele>594.953125</ele>
<time>2012-07-21T22:24:49Z</time>
<speed>1.220000</speed>
<extensions>
<speed>1.2</speed>
<temp>0.00</temp>
<bpm>0</bpm>
<rpm>0.00</rpm>
</extensions>
</trkpt>
<trkpt lat="64.038917542" lon="-19.339378357">
<ele>594.593750</ele>
<time>2012-07-21T22:24:54Z</time>
<speed>1.010000</speed>
<extensions>
<speed>1.0</speed>
<temp>0.00</temp>
<bpm>0</bpm>
<rpm>0.00</rpm>
</extensions>
</trkpt>
<trkpt lat="64.038925171" lon="-19.339294434">
<ele>594.328125</ele>
<time>2012-07-21T22:24:59Z</time>
<speed>1.080000</speed>
<extensions>
<speed>1.1</speed>
<temp>0.00</temp>
<bpm>0</bpm>
<rpm>0.00</rpm>
</extensions>
</trkpt>
<trkpt lat="64.038925171" lon="-19.339263916">
<ele>594.406250</ele>
<time>2012-07-21T22:25:04Z</time>
<speed>0.070000</speed>
<extensions>
<speed>0.1</speed>
<temp>0.00</temp>
<bpm>0</bpm>
<rpm>0.00</rpm>
</extensions>
</trkpt>
<trkpt lat="64.038925171" lon="-19.339204788">
<ele>594.140625</ele>
<time>2012-07-21T22:25:09Z</time>
<speed>0.800000</speed>
<extensions>
<speed>0.8</speed>
<temp>0.00</temp>
<bpm>0</bpm>
<rpm>0.00</rpm>
</extensions>
</trkpt>
<trkpt lat="64.038917542" lon="-19.339143753">
<ele>593.765625</ele>
<time>2012-07-21T22:25:14Z</time>
<speed>0.850000</speed>
<extensions>
<speed>0.8</speed>
<temp>0.00</temp>
<bpm>0</bpm>
<rpm>0.00</rpm>
</extensions>
</trkpt>
<trkpt lat="64.038909912" lon="-19.339061737">
<ele>593.296875</ele>
<time>2012-07-21T22:25:19Z</time>
<speed>0.780000</speed>
<extensions>
<speed>0.8</speed>
<temp>0.00</temp>
<bpm>0</bpm>
<rpm>0.00</rpm>
</extensions>
</trkpt>
<trkpt lat="64.038909912" lon="-19.338945389">
<ele>593.140625</ele>
<time>2012-07-21T22:25:24Z</time>
<speed>1.170000</speed>
<extensions>
<speed>1.2</speed>
<temp>0.00</temp>
<bpm>0</bpm>
<rpm>0.00</rpm>
</extensions>
</trkpt>
<trkpt lat="64.038902283" lon="-19.338874817">
<ele>592.968750</ele>
<time>2012-07-21T22:25:29Z</time>
<speed>0.060000</speed>
<extensions>
<speed>0.1</speed>
<temp>0.00</temp>
<bpm>0</bpm>
<rpm>0.00</rpm>
</extensions>
</trkpt>
<trkpt lat="64.038902283" lon="-19.338829041">
<ele>593.109375</ele>
<time>2012-07-21T22:25:34Z</time>
<speed>1.060000</speed>
<extensions>
<speed>1.1</speed>
<temp>0.00</temp>
<bpm>0</bpm>
<rpm>0.00</rpm>
</extensions>
</trkpt>
<trkpt lat="64.038902283" lon="-19.338716507">
<ele>592.828125</ele>
<time>2012-07-21T22:25:39Z</time>
<speed>0.750000</speed>
<extensions>
<speed>0.8</speed>
<temp>0.00</temp>
<bpm>0</bpm>
<rpm>0.00</rpm>
</extensions>
</trkpt>
<trkpt lat="64.038909912" lon="-19.338617325">
<ele>592.843750</ele>
<time>2012-07-21T22:25:44Z</time>
<speed>1.000000</speed>
<extensions>
<speed>1.0</speed>
<temp>0.00</temp>
<bpm>0</bpm>
<rpm>0.00</rpm>
</extensions>
</trkpt>
<trkpt lat="64.038902283" lon="-19.338497162">
<ele>592.375000</ele>
<time>2012-07-21T22:25:49Z</time>
<speed>1.120000</speed>
<extensions>
<speed>1.1</speed>
<temp>0.00</temp>
<bpm>0</bpm>
<rpm>0.00</rpm>
</extensions>
</trkpt>
<trkpt lat="64.038902283" lon="-19.338378906">
<ele>592.390625</ele>
<time>2012-07-21T22:25:54Z</time>
<speed>1.260000</speed>
<extensions>
<speed>1.3</speed>
<temp>0.00</temp>
<bpm>0</bpm>
<rpm>0.00</rpm>
</extensions>
</trkpt>
<trkpt lat="64.038894653" lon="-19.338279724">
<ele>592.765625</ele>
<time>2012-07-21T22:25:59Z</time>
<speed>1.170000</speed>
<extensions>
<speed>1.2</speed>
<temp>0.00</temp>
<bpm>0</bpm>
<rpm>0.00</rpm>
</extensions>
</trkpt>
<trkpt lat="64.038894653" lon="-19.338178635">
<ele>593.484375</ele>
<time>2012-07-21T22:26:04Z</time>
<speed>1.070000</speed>
<extensions>
<speed>1.1</speed>
<temp>0.00</temp>
<bpm>0</bpm>
<rpm>0.00</rpm>
</extensions>
</trkpt>
<trkpt lat="64.038894653" lon="-19.338066101">
<ele>593.625000</ele>
<time>2012-07-21T22:26:09Z</time>
<speed>1.070000</speed>
<extensions>
<speed>1.1</speed>
<temp>0.00</temp>
<bpm>0</bpm>
<rpm>0.00</rpm>
</extensions>
</trkpt>
<trkpt lat="64.038887024" lon="-19.337945938">
<ele>593.890625</ele>
<time>2012-07-21T22:26:14Z</time>
<speed>1.170000</speed>
<extensions>
<speed>1.2</speed>
<temp>0.00</temp>
<bpm>0</bpm>
<rpm>0.00</rpm>
</extensions>
</trkpt>
<trkpt lat="64.038887024" lon="-19.337896347">
<ele>594.562500</ele>
<time>2012-07-21T22:26:19Z</time>
<speed>0.010000</speed>
<extensions>
<speed>0.0</speed>
<temp>0.00</temp>
<bpm>0</bpm>
<rpm>0.00</rpm>
</extensions>
</trkpt>
<trkpt lat="64.038887024" lon="-19.337888718">
<ele>594.875000</ele>
<time>2012-07-21T22:26:24Z</time>
<speed>0.780000</speed>
<extensions>
<speed>0.8</speed>
<temp>0.00</temp>
<bpm>0</bpm>
<rpm>0.00</rpm>
</extensions>
</trkpt>
<trkpt lat="64.038879395" lon="-19.337791443">
<ele>594.906250</ele>
<time>2012-07-21T22:26:29Z</time>
<speed>0.950000</speed>
<extensions>
<speed>1.0</speed>
<temp>0.00</temp>
<bpm>0</bpm>
<rpm>0.00</rpm>
</extensions>
</trkpt>
<trkpt lat="64.038871765" lon="-19.337697983">
<ele>595.015625</ele>
<time>2012-07-21T22:26:34Z</time>
<speed>1.030000</speed>
<extensions>
<speed>1.0</speed>
<temp>0.00</temp>
<bpm>0</bpm>
<rpm>0.00</rpm>
</extensions>
</trkpt>
<trkpt lat="64.038864136" lon="-19.337583542">
<ele>595.062500</ele>
<time>2012-07-21T22:26:39Z</time>
<speed>1.080000</speed>
<extensions>
<speed>1.1</speed>
<temp>0.00</temp>
<bpm>0</bpm>
<rpm>0.00</rpm>
</extensions>
</trkpt>
<trkpt lat="64.038871765" lon="-19.337463379">
<ele>595.515625</ele>
<time>2012-07-21T22:26:44Z</time>
<speed>1.000000</speed>
<extensions>
<speed>1.0</speed>
<temp>0.00</temp>
<bpm>0</bpm>
<rpm>0.00</rpm>
</extensions>
</trkpt>
<trkpt lat="64.038871765" lon="-19.337419510">
<ele>595.984375</ele>
<time>2012-07-21T22:26:49Z</time>
<speed>0.700000</speed>
<extensions>
<speed>0.7</speed>
<temp>0.00</temp>
<bpm>0</bpm>
<rpm>0.00</rpm>
</extensions>
</trkpt>
<trkpt lat="64.038871765" lon="-19.337327957">
<ele>596.171875</ele>
<time>2012-07-21T22:26:54Z</time>
<speed>0.950000</speed>
<extensions>
<speed>1.0</speed>
<temp>0.00</temp>
<bpm>0</bpm>
<rpm>0.00</rpm>
</extensions>
</trkpt>
<trkpt lat="64.038864136" lon="-19.337224960">
<ele>596.015625</ele>
<time>2012-07-21T22:26:59Z</time>
<speed>1.210000</speed>
<extensions>
<speed>1.2</speed>
<temp>0.00</temp>
<bpm>0</bpm>
<rpm>0.00</rpm>
</extensions>
</trkpt>
<trkpt lat="64.038864136" lon="-19.337104797">
<ele>596.250000</ele>
<time>2012-07-21T22:27:04Z</time>
<speed>1.130000</speed>
<extensions>
<speed>1.1</speed>
<temp>0.00</temp>
<bpm>0</bpm>
<rpm>0.00</rpm>
</extensions>
</trkpt>
<trkpt lat="64.038856506" lon="-19.337011337">
<ele>596.468750</ele>
<time>2012-07-21T22:27:09Z</time>
<speed>0.240000</speed>
<extensions>
<speed>0.2</speed>
<temp>0.00</temp>
<bpm>0</bpm>
<rpm>0.00</rpm>
</extensions>
</trkpt>
<trkpt lat="64.038856506" lon="-19.337005615">
<ele>596.750000</ele>
<time>2012-07-21T22:27:14Z</time>
<speed>0.010000</speed>
<extensions>
<speed>0.0</speed>
<temp>0.00</temp>
<bpm>0</bpm>
<rpm>0.00</rpm>
</extensions>
</trkpt>
<trkpt lat="64.038856506" lon="-19.337005615">
<ele>596.765625</ele>
<time>2012-07-21T22:27:19Z</time>
<speed>0.030000</speed>
<extensions>
<speed>0.0</speed>
<temp>0.00</temp>
<bpm>0</bpm>
<rpm>0.00</rpm>
</extensions>
</trkpt>
<trkpt lat="64.038856506" lon="-19.337005615">
<ele>596.781250</ele>
<time>2012-07-21T22:27:24Z</time>
<speed>0.030000</speed>
<extensions>
<speed>0.0</speed>
<temp>0.00</temp>
<bpm>0</bpm>
<rpm>0.00</rpm>
</extensions>
</trkpt>
<trkpt lat="64.038856506" lon="-19.337005615">
<ele>596.781250</ele>
<time>2012-07-21T22:27:29Z</time>
<speed>0.010000</speed>
<extensions>
<speed>0.0</speed>
<temp>0.00</temp>
<bpm>0</bpm>
<rpm>0.00</rpm>
</extensions>
</trkpt>
<trkpt lat="64.038856506" lon="-19.336961746">
<ele>596.718750</ele>
<time>2012-07-21T22:27:34Z</time>
<speed>1.050000</speed>
<extensions>
<speed>1.0</speed>
<temp>0.00</temp>
<bpm>0</bpm>
<rpm>0.00</rpm>
</extensions>
</trkpt>
<trkpt lat="64.038856506" lon="-19.336862564">
<ele>596.812500</ele>
<time>2012-07-21T22:27:39Z</time>
<speed>1.170000</speed>
<extensions>
<speed>1.2</speed>
<temp>0.00</temp>
<bpm>0</bpm>
<rpm>0.00</rpm>
</extensions>
</trkpt>
<trkpt lat="64.038864136" lon="-19.336738586">
<ele>597.015625</ele>
<time>2012-07-21T22:27:44Z</time>
<speed>1.090000</speed>
<extensions>
<speed>1.1</speed>
<temp>0.00</temp>
<bpm>0</bpm>
<rpm>0.00</rpm>
</extensions>
</trkpt>
<trkpt lat="64.038864136" lon="-19.336643219">
<ele>597.000000</ele>
<time>2012-07-21T22:27:49Z</time>
<speed>0.750000</speed>
<extensions>
<speed>0.8</speed>
<temp>0.00</temp>
<bpm>0</bpm>
<rpm>0.00</rpm>
</extensions>
</trkpt>
<trkpt lat="64.038856506" lon="-19.336538315">
<ele>597.015625</ele>
<time>2012-07-21T22:27:54Z</time>
<speed>0.950000</speed>
<extensions>
<speed>1.0</speed>
<temp>0.00</temp>
<bpm>0</bpm>
<rpm>0.00</rpm>
</extensions>
</trkpt>
<trkpt lat="64.038856506" lon="-19.336437225">
<ele>597.343750</ele>
<time>2012-07-21T22:27:59Z</time>
<speed>1.100000</speed>
<extensions>
<speed>1.1</speed>
<temp>0.00</temp>
<bpm>0</bpm>
<rpm>0.00</rpm>
</extensions>
</trkpt>
<trkpt lat="64.038841248" lon="-19.336318970">
<ele>597.515625</ele>
<time>2012-07-21T22:28:04Z</time>
<speed>1.200000</speed>
<extensions>
<speed>1.2</speed>
<temp>0.00</temp>
<bpm>0</bpm>
<rpm>0.00</rpm>
</extensions>
</trkpt>
<trkpt lat="64.038841248" lon="-19.336206436">
<ele>597.734375</ele>
<time>2012-07-21T22:28:09Z</time>
<speed>0.900000</speed>
<extensions>
<speed>0.9</speed>
<temp>0.00</temp>
<bpm>0</bpm>
<rpm>0.00</rpm>
</extensions>
</trkpt>
<trkpt lat="64.038841248" lon="-19.336086273">
<ele>598.296875</ele>
<time>2012-07-21T22:28:14Z</time>
<speed>1.040000</speed>
<extensions>
<speed>1.0</speed>
<temp>0.00</temp>
<bpm>0</bpm>
<rpm>0.00</rpm>
</extensions>
</trkpt>
<trkpt lat="64.038833618" lon="-19.335987091">
<ele>598.671875</ele>
<time>2012-07-21T22:28:19Z</time>
<speed>1.150000</speed>
<extensions>
<speed>1.1</speed>
<temp>0.00</temp>
<bpm>0</bpm>
<rpm>0.00</rpm>
</extensions>
</trkpt>
<trkpt lat="64.038833618" lon="-19.335886002">
<ele>598.515625</ele>
<time>2012-07-21T22:28:24Z</time>
<speed>1.150000</speed>
<extensions>
<speed>1.1</speed>
<temp>0.00</temp>
<bpm>0</bpm>
<rpm>0.00</rpm>
</extensions>
</trkpt>
<trkpt lat="64.038833618" lon="-19.335771561">
<ele>599.015625</ele>
<time>2012-07-21T22:28:29Z</time>
<speed>1.170000</speed>
<extensions>
<speed>1.2</speed>
<temp>0.00</temp>
<bpm>0</bpm>
<rpm>0.00</rpm>
</extensions>
</trkpt>
<trkpt lat="64.038833618" lon="-19.335664749">
<ele>598.296875</ele>
<time>2012-07-21T22:28:34Z</time>
<speed>0.890000</speed>
<extensions>
<speed>0.9</speed>
<temp>0.00</temp>
<bpm>0</bpm>
<rpm>0.00</rpm>
</extensions>
</trkpt>
<trkpt lat="64.038833618" lon="-19.335651398">
<ele>597.890625</ele>
<time>2012-07-21T22:28:39Z</time>
<speed>0.040000</speed>
<extensions>
<speed>0.0</speed>
<temp>0.00</temp>
<bpm>0</bpm>
<rpm>0.00</rpm>
</extensions>
</trkpt>
<trkpt lat="64.038833618" lon="-19.335601807">
<ele>597.671875</ele>
<time>2012-07-21T22:28:44Z</time>
<speed>1.070000</speed>
<extensions>
<speed>1.1</speed>
<temp>0.00</temp>
<bpm>0</bpm>
<rpm>0.00</rpm>
</extensions>
</trkpt>
<trkpt lat="64.038833618" lon="-19.335491180">
<ele>597.625000</ele>
<time>2012-07-21T22:28:49Z</time>
<speed>1.110000</speed>
<extensions>
<speed>1.1</speed>
<temp>0.00</temp>
<bpm>0</bpm>
<rpm>0.00</rpm>
</extensions>
</trkpt>
<trkpt lat="64.038818359" lon="-19.335391998">
<ele>597.109375</ele>
<time>2012-07-21T22:28:54Z</time>
<speed>1.140000</speed>
<extensions>
<speed>1.1</speed>
<temp>0.00</temp>
<bpm>0</bpm>
<rpm>0.00</rpm>
</extensions>
</trkpt>
<trkpt lat="64.038818359" lon="-19.335289001">
<ele>596.625000</ele>
<time>2012-07-21T22:28:59Z</time>
<speed>1.150000</speed>
<extensions>
<speed>1.1</speed>
<temp>0.00</temp>
<bpm>0</bpm>
<rpm>0.00</rpm>
</extensions>
</trkpt>
<trkpt lat="64.038818359" lon="-19.335172653">
<ele>596.578125</ele>
<time>2012-07-21T22:29:04Z</time>
<speed>1.140000</speed>
<extensions>
<speed>1.1</speed>
<temp>0.00</temp>
<bpm>0</bpm>
<rpm>0.00</rpm>
</extensions>
</trkpt>
<trkpt lat="64.038818359" lon="-19.335048676">
<ele>596.218750</ele>
<time>2012-07-21T22:29:09Z</time>
<speed>1.070000</speed>
<extensions>
<speed>1.1</speed>
<temp>0.00</temp>
<bpm>0</bpm>
<rpm>0.00</rpm>
</extensions>
</trkpt>
<trkpt lat="64.038818359" lon="-19.334947586">
<ele>596.171875</ele>
<time>2012-07-21T22:29:14Z</time>
<speed>1.140000</speed>
<extensions>
<speed>1.1</speed>
<temp>0.00</temp>
<bpm>0</bpm>
<rpm>0.00</rpm>
</extensions>
</trkpt>
<trkpt lat="64.038803101" lon="-19.334831238">
<ele>596.328125</ele>
<time>2012-07-21T22:29:19Z</time>
<speed>1.180000</speed>
<extensions>
<speed>1.2</speed>
<temp>0.00</temp>
<bpm>0</bpm>
<rpm>0.00</rpm>
</extensions>
</trkpt>
<trkpt lat="64.038803101" lon="-19.334720612">
<ele>596.203125</ele>
<time>2012-07-21T22:29:24Z</time>
<speed>0.850000</speed>
<extensions>
<speed>0.8</speed>
<temp>0.00</temp>
<bpm>0</bpm>
<rpm>0.00</rpm>
</extensions>
</trkpt>
<trkpt lat="64.038810730" lon="-19.334650040">
<ele>596.093750</ele>
<time>2012-07-21T22:29:29Z</time>
<speed>0.790000</speed>
<extensions>
<speed>0.8</speed>
<temp>0.00</temp>
<bpm>0</bpm>
<rpm>0.00</rpm>
</extensions>
</trkpt>
<trkpt lat="64.038795471" lon="-19.334541321">
<ele>596.625000</ele>
<time>2012-07-21T22:29:34Z</time>
<speed>1.070000</speed>
<extensions>
<speed>1.1</speed>
<temp>0.00</temp>
<bpm>0</bpm>
<rpm>0.00</rpm>
</extensions>
</trkpt>
<trkpt lat="64.038795471" lon="-19.334444046">
<ele>596.093750</ele>
<time>2012-07-21T22:29:39Z</time>
<speed>0.900000</speed>
<extensions>
<speed>0.9</speed>
<temp>0.00</temp>
<bpm>0</bpm>
<rpm>0.00</rpm>
</extensions>
</trkpt>
<trkpt lat="64.038803101" lon="-19.334337234">
<ele>596.359375</ele>
<time>2012-07-21T22:29:44Z</time>
<speed>1.220000</speed>
<extensions>
<speed>1.2</speed>
<temp>0.00</temp>
<bpm>0</bpm>
<rpm>0.00</rpm>
</extensions>
</trkpt>
<trkpt lat="64.038810730" lon="-19.334205627">
<ele>596.765625</ele>
<time>2012-07-21T22:29:49Z</time>
<speed>1.120000</speed>
<extensions>
<speed>1.1</speed>
<temp>0.00</temp>
<bpm>0</bpm>
<rpm>0.00</rpm>
</extensions>
</trkpt>
<trkpt lat="64.038810730" lon="-19.334095001">
<ele>597.265625</ele>
<time>2012-07-21T22:29:54Z</time>
<speed>1.210000</speed>
<extensions>
<speed>1.2</speed>
<temp>0.00</temp>
<bpm>0</bpm>
<rpm>0.00</rpm>
</extensions>
</trkpt>
<trkpt lat="64.038818359" lon="-19.333990097">
<ele>597.312500</ele>
<time>2012-07-21T22:29:59Z</time>
<speed>1.160000</speed>
<extensions>
<speed>1.2</speed>
<temp>0.00</temp>
<bpm>0</bpm>
<rpm>0.00</rpm>
</extensions>
</trkpt>
<trkpt lat="64.038833618" lon="-19.333881378">
<ele>597.453125</ele>
<time>2012-07-21T22:30:04Z</time>
<speed>1.120000</speed>
<extensions>
<speed>1.1</speed>
<temp>0.00</temp>
<bpm>0</bpm>
<rpm>0.00</rpm>
</extensions>
</trkpt>
<trkpt lat="64.038841248" lon="-19.333780289">
<ele>597.734375</ele>
<time>2012-07-21T22:30:09Z</time>
<speed>1.120000</speed>
<extensions>
<speed>1.1</speed>
<temp>0.00</temp>
<bpm>0</bpm>
<rpm>0.00</rpm>
</extensions>
</trkpt>
<trkpt lat="64.038848877" lon="-19.333738327">
<ele>597.968750</ele>
<time>2012-07-21T22:30:14Z</time>
<speed>0.010000</speed>
<extensions>
<speed>0.0</speed>
<temp>0.00</temp>
<bpm>0</bpm>
<rpm>0.00</rpm>
</extensions>
</trkpt>
<trkpt lat="64.038856506" lon="-19.333667755">
<ele>597.828125</ele>
<time>2012-07-21T22:30:19Z</time>
<speed>1.160000</speed>
<extensions>
<speed>1.2</speed>
<temp>0.00</temp>
<bpm>0</bpm>
<rpm>0.00</rpm>
</extensions>
</trkpt>
<trkpt lat="64.038864136" lon="-19.333547592">
<ele>597.062500</ele>
<time>2012-07-21T22:30:24Z</time>
<speed>1.160000</speed>
<extensions>
<speed>1.2</speed>
<temp>0.00</temp>
<bpm>0</bpm>
<rpm>0.00</rpm>
</extensions>
</trkpt>
<trkpt lat="64.038871765" lon="-19.333438873">
<ele>596.453125</ele>
<time>2012-07-21T22:30:29Z</time>
<speed>1.090000</speed>
<extensions>
<speed>1.1</speed>
<temp>0.00</temp>
<bpm>0</bpm>
<rpm>0.00</rpm>
</extensions>
</trkpt>
<trkpt lat="64.038879395" lon="-19.333339691">
<ele>596.343750</ele>
<time>2012-07-21T22:30:34Z</time>
<speed>0.840000</speed>
<extensions>
<speed>0.8</speed>
<temp>0.00</temp>
<bpm>0</bpm>
<rpm>0.00</rpm>
</extensions>
</trkpt>
<trkpt lat="64.038894653" lon="-19.333267212">
<ele>595.859375</ele>
<time>2012-07-21T22:30:39Z</time>
<speed>0.940000</speed>
<extensions>
<speed>0.9</speed>
<temp>0.00</temp>
<bpm>0</bpm>
<rpm>0.00</rpm>
</extensions>
</trkpt>
<trkpt lat="64.038894653" lon="-19.333164215">
<ele>594.750000</ele>
<time>2012-07-21T22:30:44Z</time>
<speed>1.150000</speed>
<extensions>
<speed>1.1</speed>
<temp>0.00</temp>
<bpm>0</bpm>
<rpm>0.00</rpm>
</extensions>
</trkpt>
<trkpt lat="64.038902283" lon="-19.333086014">
<ele>594.062500</ele>
<time>2012-07-21T22:30:49Z</time>
<speed>0.670000</speed>
<extensions>
<speed>0.7</speed>
<temp>0.00</temp>
<bpm>0</bpm>
<rpm>0.00</rpm>
</extensions>
</trkpt>
<trkpt lat="64.038909912" lon="-19.332986832">
<ele>594.078125</ele>
<time>2012-07-21T22:30:54Z</time>
<speed>1.160000</speed>
<extensions>
<speed>1.2</speed>
<temp>0.00</temp>
<bpm>0</bpm>
<rpm>0.00</rpm>
</extensions>
</trkpt>
<trkpt lat="64.038925171" lon="-19.332874298">
<ele>593.875000</ele>
<time>2012-07-21T22:30:59Z</time>
<speed>1.150000</speed>
<extensions>
<speed>1.1</speed>
<temp>0.00</temp>
<bpm>0</bpm>
<rpm>0.00</rpm>
</extensions>
</trkpt>
<trkpt lat="64.038948059" lon="-19.332778931">
<ele>592.421875</ele>
<time>2012-07-21T22:31:04Z</time>
<speed>1.230000</speed>
<extensions>
<speed>1.2</speed>
<temp>0.00</temp>
<bpm>0</bpm>
<rpm>0.00</rpm>
</extensions>
</trkpt>
<trkpt lat="64.038963318" lon="-19.332666397">
<ele>591.578125</ele>
<time>2012-07-21T22:31:09Z</time>
<speed>1.180000</speed>
<extensions>
<speed>1.2</speed>
<temp>0.00</temp>
<bpm>0</bpm>
<rpm>0.00</rpm>
</extensions>
</trkpt>
<trkpt lat="64.038978577" lon="-19.332544327">
<ele>591.156250</ele>
<time>2012-07-21T22:31:14Z</time>
<speed>1.150000</speed>
<extensions>
<speed>1.1</speed>
<temp>0.00</temp>
<bpm>0</bpm>
<rpm>0.00</rpm>
</extensions>
</trkpt>
<trkpt lat="64.039001465" lon="-19.332443237">
<ele>590.484375</ele>
<time>2012-07-21T22:31:19Z</time>
<speed>1.260000</speed>
<extensions>
<speed>1.3</speed>
<temp>0.00</temp>
<bpm>0</bpm>
<rpm>0.00</rpm>
</extensions>
</trkpt>
<trkpt lat="64.039016724" lon="-19.332321167">
<ele>590.718750</ele>
<time>2012-07-21T22:31:24Z</time>
<speed>1.100000</speed>
<extensions>
<speed>1.1</speed>
<temp>0.00</temp>
<bpm>0</bpm>
<rpm>0.00</rpm>
</extensions>
</trkpt>
<trkpt lat="64.039047241" lon="-19.332208633">
<ele>590.390625</ele>
<time>2012-07-21T22:31:29Z</time>
<speed>1.090000</speed>
<extensions>
<speed>1.1</speed>
<temp>0.00</temp>
<bpm>0</bpm>
<rpm>0.00</rpm>
</extensions>
</trkpt>
<trkpt lat="64.039077759" lon="-19.332105637">
<ele>589.406250</ele>
<time>2012-07-21T22:31:34Z</time>
<speed>1.120000</speed>
<extensions>
<speed>1.1</speed>
<temp>0.00</temp>
<bpm>0</bpm>
<rpm>0.00</rpm>
</extensions>
</trkpt>
<trkpt lat="64.039093018" lon="-19.331995010">
<ele>589.343750</ele>
<time>2012-07-21T22:31:39Z</time>
<speed>1.100000</speed>
<extensions>
<speed>1.1</speed>
<temp>0.00</temp>
<bpm>0</bpm>
<rpm>0.00</rpm>
</extensions>
</trkpt>
<trkpt lat="64.039123535" lon="-19.331905365">
<ele>588.656250</ele>
<time>2012-07-21T22:31:44Z</time>
<speed>1.270000</speed>
<extensions>
<speed>1.3</speed>
<temp>0.00</temp>
<bpm>0</bpm>
<rpm>0.00</rpm>
</extensions>
</trkpt>
<trkpt lat="64.039146423" lon="-19.331811905">
<ele>588.296875</ele>
<time>2012-07-21T22:31:49Z</time>
<speed>1.340000</speed>
<extensions>
<speed>1.3</speed>
<temp>0.00</temp>
<bpm>0</bpm>
<rpm>0.00</rpm>
</extensions>
</trkpt>
<trkpt lat="64.039161682" lon="-19.331708908">
<ele>587.343750</ele>
<time>2012-07-21T22:31:54Z</time>
<speed>1.410000</speed>
<extensions>
<speed>1.4</speed>
<temp>0.00</temp>
<bpm>0</bpm>
<rpm>0.00</rpm>
</extensions>
</trkpt>
<trkpt lat="64.039199829" lon="-19.331615448">
<ele>586.937500</ele>
<time>2012-07-21T22:31:59Z</time>
<speed>1.280000</speed>
<extensions>
<speed>1.3</speed>
<temp>0.00</temp>
<bpm>0</bpm>
<rpm>0.00</rpm>
</extensions>
</trkpt>
<trkpt lat="64.039222717" lon="-19.331497192">
<ele>586.828125</ele>
<time>2012-07-21T22:32:04Z</time>
<speed>1.560000</speed>
<extensions>
<speed>1.6</speed>
<temp>0.00</temp>
<bpm>0</bpm>
<rpm>0.00</rpm>
</extensions>
</trkpt>
<trkpt lat="64.039268494" lon="-19.331371307">
<ele>587.296875</ele>
<time>2012-07-21T22:32:09Z</time>
<speed>1.410000</speed>
<extensions>
<speed>1.4</speed>
<temp>0.00</temp>
<bpm>0</bpm>
<rpm>0.00</rpm>
</extensions>
</trkpt>
<trkpt lat="64.039283752" lon="-19.331298828">
<ele>587.781250</ele>
<time>2012-07-21T22:32:14Z</time>
<speed>0.020000</speed>
<extensions>
<speed>0.0</speed>
<temp>0.00</temp>
<bpm>0</bpm>
<rpm>0.00</rpm>
</extensions>
</trkpt>
<trkpt lat="64.039283752" lon="-19.331302643">
<ele>587.640625</ele>
<time>2012-07-21T22:32:19Z</time>
<speed>0.010000</speed>
<extensions>
<speed>0.0</speed>
<temp>0.00</temp>
<bpm>0</bpm>
<rpm>0.00</rpm>
</extensions>
</trkpt>
<trkpt lat="64.039299011" lon="-19.331245422">
<ele>587.437500</ele>
<time>2012-07-21T22:32:24Z</time>
<speed>0.860000</speed>
<extensions>
<speed>0.9</speed>
<temp>0.00</temp>
<bpm>0</bpm>
<rpm>0.00</rpm>
</extensions>
</trkpt>
<trkpt lat="64.039314270" lon="-19.331186295">
<ele>587.578125</ele>
<time>2012-07-21T22:32:29Z</time>
<speed>1.080000</speed>
<extensions>
<speed>1.1</speed>
<temp>0.00</temp>
<bpm>0</bpm>
<rpm>0.00</rpm>
</extensions>
</trkpt>
<trkpt lat="64.039344788" lon="-19.331125259">
<ele>587.890625</ele>
<time>2012-07-21T22:32:34Z</time>
<speed>0.550000</speed>
<extensions>
<speed>0.6</speed>
<temp>0.00</temp>
<bpm>0</bpm>
<rpm>0.00</rpm>
</extensions>
</trkpt>
<trkpt lat="64.039360046" lon="-19.331073761">
<ele>587.468750</ele>
<time>2012-07-21T22:32:39Z</time>
<speed>0.070000</speed>
<extensions>
<speed>0.1</speed>
<temp>0.00</temp>
<bpm>0</bpm>
<rpm>0.00</rpm>
</extensions>
</trkpt>
<trkpt lat="64.039360046" lon="-19.331054688">
<ele>587.796875</ele>
<time>2012-07-21T22:32:44Z</time>
<speed>0.010000</speed>
<extensions>
<speed>0.0</speed>
<temp>0.00</temp>
<bpm>0</bpm>
<rpm>0.00</rpm>
</extensions>
</trkpt>
<trkpt lat="64.039360046" lon="-19.331047058">
<ele>587.703125</ele>
<time>2012-07-21T22:32:49Z</time>
<speed>0.620000</speed>
<extensions>
<speed>0.6</speed>
<temp>0.00</temp>
<bpm>0</bpm>
<rpm>0.00</rpm>
</extensions>
</trkpt>
<trkpt lat="64.039390564" lon="-19.330955505">
<ele>587.781250</ele>
<time>2012-07-21T22:32:54Z</time>
<speed>1.270000</speed>
<extensions>
<speed>1.3</speed>
<temp>0.00</temp>
<bpm>0</bpm>
<rpm>0.00</rpm>
</extensions>
</trkpt>
<trkpt lat="64.039428711" lon="-19.330833435">
<ele>587.765625</ele>
<time>2012-07-21T22:32:59Z</time>
<speed>1.490000</speed>
<extensions>
<speed>1.5</speed>
<temp>0.00</temp>
<bpm>0</bpm>
<rpm>0.00</rpm>
</extensions>
</trkpt>
<trkpt lat="64.039474487" lon="-19.330720901">
<ele>587.640625</ele>
<time>2012-07-21T22:33:04Z</time>
<speed>1.450000</speed>
<extensions>
<speed>1.4</speed>
<temp>0.00</temp>
<bpm>0</bpm>
<rpm>0.00</rpm>
</extensions>
</trkpt>
<trkpt lat="64.039520264" lon="-19.330600739">
<ele>587.609375</ele>
<time>2012-07-21T22:33:09Z</time>
<speed>1.440000</speed>
<extensions>
<speed>1.4</speed>
<temp>0.00</temp>
<bpm>0</bpm>
<rpm>0.00</rpm>
</extensions>
</trkpt>
<trkpt lat="64.039573669" lon="-19.330495834">
<ele>587.609375</ele>
<time>2012-07-21T22:33:14Z</time>
<speed>1.530000</speed>
<extensions>
<speed>1.5</speed>
<temp>0.00</temp>
<bpm>0</bpm>
<rpm>0.00</rpm>
</extensions>
</trkpt>
<trkpt lat="64.039634705" lon="-19.330392838">
<ele>587.218750</ele>
<time>2012-07-21T22:33:19Z</time>
<speed>1.440000</speed>
<extensions>
<speed>1.4</speed>
<temp>0.00</temp>
<bpm>0</bpm>
<rpm>0.00</rpm>
</extensions>
</trkpt>
<trkpt lat="64.039680481" lon="-19.330293655">
<ele>587.687500</ele>
<time>2012-07-21T22:33:24Z</time>
<speed>1.540000</speed>
<extensions>
<speed>1.5</speed>
<temp>0.00</temp>
<bpm>0</bpm>
<rpm>0.00</rpm>
</extensions>
</trkpt>
<trkpt lat="64.039741516" lon="-19.330202103">
<ele>588.109375</ele>
<time>2012-07-21T22:33:29Z</time>
<speed>1.530000</speed>
<extensions>
<speed>1.5</speed>
<temp>0.00</temp>
<bpm>0</bpm>
<rpm>0.00</rpm>
</extensions>
</trkpt>
<trkpt lat="64.039794922" lon="-19.330121994">
<ele>588.281250</ele>
<time>2012-07-21T22:33:34Z</time>
<speed>1.430000</speed>
<extensions>
<speed>1.4</speed>
<temp>0.00</temp>
<bpm>0</bpm>
<rpm>0.00</rpm>
</extensions>
</trkpt>
<trkpt lat="64.039855957" lon="-19.330047607">
<ele>588.875000</ele>
<time>2012-07-21T22:33:39Z</time>
<speed>1.370000</speed>
<extensions>
<speed>1.4</speed>
<temp>0.00</temp>
<bpm>0</bpm>
<rpm>0.00</rpm>
</extensions>
</trkpt>
<trkpt lat="64.039909363" lon="-19.329952240">
<ele>588.687500</ele>
<time>2012-07-21T22:33:44Z</time>
<speed>1.390000</speed>
<extensions>
<speed>1.4</speed>
<temp>0.00</temp>
<bpm>0</bpm>
<rpm>0.00</rpm>
</extensions>
</trkpt>
<trkpt lat="64.039947510" lon="-19.329868317">
<ele>589.093750</ele>
<time>2012-07-21T22:33:49Z</time>
<speed>0.640000</speed>
<extensions>
<speed>0.6</speed>
<temp>0.00</temp>
<bpm>0</bpm>
<rpm>0.00</rpm>
</extensions>
</trkpt>
<trkpt lat="64.039947510" lon="-19.329854965">
<ele>589.078125</ele>
<time>2012-07-21T22:33:54Z</time>
<speed>0.010000</speed>
<extensions>
<speed>0.0</speed>
<temp>0.00</temp>
<bpm>0</bpm>
<rpm>0.00</rpm>
</extensions>
</trkpt>
<trkpt lat="64.039962769" lon="-19.329805374">
<ele>588.484375</ele>
<time>2012-07-21T22:33:59Z</time>
<speed>1.130000</speed>
<extensions>
<speed>1.1</speed>
<temp>0.00</temp>
<bpm>0</bpm>
<rpm>0.00</rpm>
</extensions>
</trkpt>
<trkpt lat="64.040000916" lon="-19.329730988">
<ele>588.265625</ele>
<time>2012-07-21T22:34:04Z</time>
<speed>0.810000</speed>
<extensions>
<speed>0.8</speed>
<temp>0.00</temp>
<bpm>0</bpm>
<rpm>0.00</rpm>
</extensions>
</trkpt>
<trkpt lat="64.040008545" lon="-19.329732895">
<ele>588.968750</ele>
<time>2012-07-21T22:34:09Z</time>
<speed>0.010000</speed>
<extensions>
<speed>0.0</speed>
<temp>0.00</temp>
<bpm>0</bpm>
<rpm>0.00</rpm>
</extensions>
</trkpt>
<trkpt lat="64.040023804" lon="-19.329664230">
<ele>588.796875</ele>
<time>2012-07-21T22:34:14Z</time>
<speed>1.320000</speed>
<extensions>
<speed>1.3</speed>
<temp>0.00</temp>
<bpm>0</bpm>
<rpm>0.00</rpm>
</extensions>
</trkpt>
<trkpt lat="64.040061951" lon="-19.329561234">
<ele>589.078125</ele>
<time>2012-07-21T22:34:19Z</time>
<speed>1.020000</speed>
<extensions>
<speed>1.0</speed>
<temp>0.00</temp>
<bpm>0</bpm>
<rpm>0.00</rpm>
</extensions>
</trkpt>
<trkpt lat="64.040084839" lon="-19.329456329">
<ele>589.437500</ele>
<time>2012-07-21T22:34:24Z</time>
<speed>1.220000</speed>
<extensions>
<speed>1.2</speed>
<temp>0.00</temp>
<bpm>0</bpm>
<rpm>0.00</rpm>
</extensions>
</trkpt>
<trkpt lat="64.040115356" lon="-19.329339981">
<ele>589.484375</ele>
<time>2012-07-21T22:34:29Z</time>
<speed>1.400000</speed>
<extensions>
<speed>1.4</speed>
<temp>0.00</temp>
<bpm>0</bpm>
<rpm>0.00</rpm>
</extensions>
</trkpt>
<trkpt lat="64.040184021" lon="-19.329263687">
<ele>589.281250</ele>
<time>2012-07-21T22:34:34Z</time>
<speed>1.410000</speed>
<extensions>
<speed>1.4</speed>
<temp>0.00</temp>
<bpm>0</bpm>
<rpm>0.00</rpm>
</extensions>
</trkpt>
<trkpt lat="64.040229797" lon="-19.329277039">
<ele>588.406250</ele>
<time>2012-07-21T22:34:39Z</time>
<speed>1.480000</speed>
<extensions>
<speed>1.5</speed>
<temp>0.00</temp>
<bpm>0</bpm>
<rpm>0.00</rpm>
</extensions>
</trkpt>
<trkpt lat="64.040283203" lon="-19.329355240">
<ele>588.046875</ele>
<time>2012-07-21T22:34:44Z</time>
<speed>1.740000</speed>
<extensions>
<speed>1.7</speed>
<temp>0.00</temp>
<bpm>0</bpm>
<rpm>0.00</rpm>
</extensions>
</trkpt>
<trkpt lat="64.040306091" lon="-19.329492569">
<ele>587.890625</ele>
<time>2012-07-21T22:34:49Z</time>
<speed>1.580000</speed>
<extensions>
<speed>1.6</speed>
<temp>0.00</temp>
<bpm>0</bpm>
<rpm>0.00</rpm>
</extensions>
</trkpt>
<trkpt lat="64.040351868" lon="-19.329563141">
<ele>587.968750</ele>
<time>2012-07-21T22:34:54Z</time>
<speed>1.130000</speed>
<extensions>
<speed>1.1</speed>
<temp>0.00</temp>
<bpm>0</bpm>
<rpm>0.00</rpm>
</extensions>
</trkpt>
<trkpt lat="64.040397644" lon="-19.329652786">
<ele>588.171875</ele>
<time>2012-07-21T22:34:59Z</time>
<speed>1.510000</speed>
<extensions>
<speed>1.5</speed>
<temp>0.00</temp>
<bpm>0</bpm>
<rpm>0.00</rpm>
</extensions>
</trkpt>
<trkpt lat="64.040451050" lon="-19.329771042">
<ele>588.859375</ele>
<time>2012-07-21T22:35:04Z</time>
<speed>1.470000</speed>
<extensions>
<speed>1.5</speed>
<temp>0.00</temp>
<bpm>0</bpm>
<rpm>0.00</rpm>
</extensions>
</trkpt>
<trkpt lat="64.040489197" lon="-19.329908371">
<ele>588.171875</ele>
<time>2012-07-21T22:35:09Z</time>
<speed>1.440000</speed>
<extensions>
<speed>1.4</speed>
<temp>0.00</temp>
<bpm>0</bpm>
<rpm>0.00</rpm>
</extensions>
</trkpt>
<trkpt lat="64.040519714" lon="-19.329986572">
<ele>587.968750</ele>
<time>2012-07-21T22:35:14Z</time>
<speed>0.120000</speed>
<extensions>
<speed>0.1</speed>
<temp>0.00</temp>
<bpm>0</bpm>
<rpm>0.00</rpm>
</extensions>
</trkpt>
<trkpt lat="64.040519714" lon="-19.329980850">
<ele>587.968750</ele>
<time>2012-07-21T22:35:19Z</time>
<speed>0.020000</speed>
<extensions>
<speed>0.0</speed>
<temp>0.00</temp>
<bpm>0</bpm>
<rpm>0.00</rpm>
</extensions>
</trkpt>
<trkpt lat="64.040542603" lon="-19.330062866">
<ele>587.875000</ele>
<time>2012-07-21T22:35:24Z</time>
<speed>1.530000</speed>
<extensions>
<speed>1.5</speed>
<temp>0.00</temp>
<bpm>0</bpm>
<rpm>0.00</rpm>
</extensions>
</trkpt>
<trkpt lat="64.040550232" lon="-19.330200195">
<ele>587.593750</ele>
<time>2012-07-21T22:35:29Z</time>
<speed>1.360000</speed>
<extensions>
<speed>1.4</speed>
<temp>0.00</temp>
<bpm>0</bpm>
<rpm>0.00</rpm>
</extensions>
</trkpt>
<trkpt lat="64.040573120" lon="-19.330337524">
<ele>587.390625</ele>
<time>2012-07-21T22:35:34Z</time>
<speed>1.210000</speed>
<extensions>
<speed>1.2</speed>
<temp>0.00</temp>
<bpm>0</bpm>
<rpm>0.00</rpm>
</extensions>
</trkpt>
<trkpt lat="64.040580750" lon="-19.330429077">
<ele>587.062500</ele>
<time>2012-07-21T22:35:39Z</time>
<speed>0.050000</speed>
<extensions>
<speed>0.1</speed>
<temp>0.00</temp>
<bpm>0</bpm>
<rpm>0.00</rpm>
</extensions>
</trkpt>
<trkpt lat="64.040573120" lon="-19.330427170">
<ele>586.921875</ele>
<time>2012-07-21T22:35:44Z</time>
<extensions>
<speed>0.0</speed>
<temp>0.00</temp>
<bpm>0</bpm>
<rpm>0.00</rpm>
</extensions>
</trkpt>
<trkpt lat="64.040573120" lon="-19.330436707">
<ele>586.937500</ele>
<time>2012-07-21T22:35:49Z</time>
<speed>0.610000</speed>
<extensions>
<speed>0.6</speed>
<temp>0.00</temp>
<bpm>0</bpm>
<rpm>0.00</rpm>
</extensions>
</trkpt>
<trkpt lat="64.040557861" lon="-19.330541611">
<ele>586.953125</ele>
<time>2012-07-21T22:35:54Z</time>
<speed>1.000000</speed>
<extensions>
<speed>1.0</speed>
<temp>0.00</temp>
<bpm>0</bpm>
<rpm>0.00</rpm>
</extensions>
</trkpt>
<trkpt lat="64.040550232" lon="-19.330566406">
<ele>586.984375</ele>
<time>2012-07-21T22:35:59Z</time>
<speed>0.090000</speed>
<extensions>
<speed>0.1</speed>
<temp>0.00</temp>
<bpm>0</bpm>
<rpm>0.00</rpm>
</extensions>
</trkpt>
<trkpt lat="64.040550232" lon="-19.330575943">
<ele>587.343750</ele>
<time>2012-07-21T22:36:04Z</time>
<speed>0.080000</speed>
<extensions>
<speed>0.1</speed>
<temp>0.00</temp>
<bpm>0</bpm>
<rpm>0.00</rpm>
</extensions>
</trkpt>
<trkpt lat="64.040550232" lon="-19.330581665">
<ele>587.812500</ele>
<time>2012-07-21T22:36:09Z</time>
<speed>0.020000</speed>
<extensions>
<speed>0.0</speed>
<temp>0.00</temp>
<bpm>0</bpm>
<rpm>0.00</rpm>
</extensions>
</trkpt>
<trkpt lat="64.040542603" lon="-19.330583572">
<ele>588.171875</ele>
<time>2012-07-21T22:36:14Z</time>
<speed>0.070000</speed>
<extensions>
<speed>0.1</speed>
<temp>0.00</temp>
<bpm>0</bpm>
<rpm>0.00</rpm>
</extensions>
</trkpt>
<trkpt lat="64.040542603" lon="-19.330585480">
<ele>588.406250</ele>
<time>2012-07-21T22:36:19Z</time>
<speed>0.020000</speed>
<extensions>
<speed>0.0</speed>
<temp>0.00</temp>
<bpm>0</bpm>
<rpm>0.00</rpm>
</extensions>
</trkpt>
<trkpt lat="64.040542603" lon="-19.330585480">
<ele>588.375000</ele>
<time>2012-07-21T22:36:24Z</time>
<speed>0.010000</speed>
<extensions>
<speed>0.0</speed>
<temp>0.00</temp>
<bpm>0</bpm>
<rpm>0.00</rpm>
</extensions>
</trkpt>
<trkpt lat="64.040542603" lon="-19.330585480">
<ele>588.343750</ele>
<time>2012-07-21T22:36:29Z</time>
<extensions>
<speed>0.0</speed>
<temp>0.00</temp>
<bpm>0</bpm>
<rpm>0.00</rpm>
</extensions>
</trkpt>
<trkpt lat="64.040542603" lon="-19.330585480">
<ele>588.328125</ele>
<time>2012-07-21T22:36:34Z</time>
<speed>0.010000</speed>
<extensions>
<speed>0.0</speed>
<temp>0.00</temp>
<bpm>0</bpm>
<rpm>0.00</rpm>
</extensions>
</trkpt>
<trkpt lat="64.040542603" lon="-19.330585480">
<ele>588.296875</ele>
<time>2012-07-21T22:36:39Z</time>
<extensions>
<speed>0.0</speed>
<temp>0.00</temp>
<bpm>0</bpm>
<rpm>0.00</rpm>
</extensions>
</trkpt>
<trkpt lat="64.040542603" lon="-19.330585480">
<ele>588.265625</ele>
<time>2012-07-21T22:36:44Z</time>
<extensions>
<speed>0.0</speed>
<temp>0.00</temp>
<bpm>0</bpm>
<rpm>0.00</rpm>
</extensions>
</trkpt>
<trkpt lat="64.040542603" lon="-19.330585480">
<ele>588.265625</ele>
<time>2012-07-21T22:36:49Z</time>
<speed>0.010000</speed>
<extensions>
<speed>0.0</speed>
<temp>0.00</temp>
<bpm>0</bpm>
<rpm>0.00</rpm>
</extensions>
</trkpt>
<trkpt lat="64.040542603" lon="-19.330585480">
<ele>588.234375</ele>
<time>2012-07-21T22:36:54Z</time>
<speed>0.010000</speed>
<extensions>
<speed>0.0</speed>
<temp>0.00</temp>
<bpm>0</bpm>
<rpm>0.00</rpm>
</extensions>
</trkpt>
<trkpt lat="64.040542603" lon="-19.330585480">
<ele>588.218750</ele>
<time>2012-07-21T22:36:59Z</time>
<extensions>
<speed>0.0</speed>
<temp>0.00</temp>
<bpm>0</bpm>
<rpm>0.00</rpm>
</extensions>
</trkpt>
<trkpt lat="64.040542603" lon="-19.330585480">
<ele>588.203125</ele>
<time>2012-07-21T22:37:04Z</time>
<extensions>
<speed>0.0</speed>
<temp>0.00</temp>
<bpm>0</bpm>
<rpm>0.00</rpm>
</extensions>
</trkpt>
<trkpt lat="64.040542603" lon="-19.330585480">
<ele>588.156250</ele>
<time>2012-07-21T22:37:09Z</time>
<extensions>
<speed>0.0</speed>
<temp>0.00</temp>
<bpm>0</bpm>
<rpm>0.00</rpm>
</extensions>
</trkpt>
<trkpt lat="64.040542603" lon="-19.330585480">
<ele>588.109375</ele>
<time>2012-07-21T22:37:14Z</time>
<extensions>
<speed>0.0</speed>
<temp>0.00</temp>
<bpm>0</bpm>
<rpm>0.00</rpm>
</extensions>
</trkpt>
<trkpt lat="64.040542603" lon="-19.330585480">
<ele>588.078125</ele>
<time>2012-07-21T22:37:19Z</time>
<speed>0.010000</speed>
<extensions>
<speed>0.0</speed>
<temp>0.00</temp>
<bpm>0</bpm>
<rpm>0.00</rpm>
</extensions>
</trkpt>
<trkpt lat="64.040542603" lon="-19.330585480">
<ele>588.031250</ele>
<time>2012-07-21T22:37:24Z</time>
<extensions>
<speed>0.0</speed>
<temp>0.00</temp>
<bpm>0</bpm>
<rpm>0.00</rpm>
</extensions>
</trkpt>
<trkpt lat="64.040542603" lon="-19.330585480">
<ele>588.015625</ele>
<time>2012-07-21T22:37:29Z</time>
<extensions>
<speed>0.0</speed>
<temp>0.00</temp>
<bpm>0</bpm>
<rpm>0.00</rpm>
</extensions>
</trkpt>
<trkpt lat="64.040542603" lon="-19.330585480">
<ele>588.000000</ele>
<time>2012-07-21T22:37:34Z</time>
<extensions>
<speed>0.0</speed>
<temp>0.00</temp>
<bpm>0</bpm>
<rpm>0.00</rpm>
</extensions>
</trkpt>
<trkpt lat="64.040542603" lon="-19.330585480">
<ele>587.968750</ele>
<time>2012-07-21T22:37:39Z</time>
<extensions>
<speed>0.0</speed>
<temp>0.00</temp>
<bpm>0</bpm>
<rpm>0.00</rpm>
</extensions>
</trkpt>
<trkpt lat="64.040542603" lon="-19.330583572">
<ele>587.937500</ele>
<time>2012-07-21T22:37:44Z</time>
<extensions>
<speed>0.0</speed>
<temp>0.00</temp>
<bpm>0</bpm>
<rpm>0.00</rpm>
</extensions>
</trkpt>
<trkpt lat="64.040542603" lon="-19.330583572">
<ele>587.906250</ele>
<time>2012-07-21T22:37:49Z</time>
<extensions>
<speed>0.0</speed>
<temp>0.00</temp>
<bpm>0</bpm>
<rpm>0.00</rpm>
</extensions>
</trkpt>
<trkpt lat="64.040542603" lon="-19.330585480">
<ele>587.875000</ele>
<time>2012-07-21T22:37:54Z</time>
<speed>0.010000</speed>
<extensions>
<speed>0.0</speed>
<temp>0.00</temp>
<bpm>0</bpm>
<rpm>0.00</rpm>
</extensions>
</trkpt>
<trkpt lat="64.040542603" lon="-19.330583572">
<ele>587.843750</ele>
<time>2012-07-21T22:37:59Z</time>
<extensions>
<speed>0.0</speed>
<temp>0.00</temp>
<bpm>0</bpm>
<rpm>0.00</rpm>
</extensions>
</trkpt>
<trkpt lat="64.040542603" lon="-19.330583572">
<ele>587.828125</ele>
<time>2012-07-21T22:38:04Z</time>
<speed>0.010000</speed>
<extensions>
<speed>0.0</speed>
<temp>0.00</temp>
<bpm>0</bpm>
<rpm>0.00</rpm>
</extensions>
</trkpt>
<trkpt lat="64.040542603" lon="-19.330583572">
<ele>587.796875</ele>
<time>2012-07-21T22:38:09Z</time>
<extensions>
<speed>0.0</speed>
<temp>0.00</temp>
<bpm>0</bpm>
<rpm>0.00</rpm>
</extensions>
</trkpt>
<trkpt lat="64.040542603" lon="-19.330583572">
<ele>587.765625</ele>
<time>2012-07-21T22:38:14Z</time>
<speed>0.010000</speed>
<extensions>
<speed>0.0</speed>
<temp>0.00</temp>
<bpm>0</bpm>
<rpm>0.00</rpm>
</extensions>
</trkpt>
<trkpt lat="64.040542603" lon="-19.330583572">
<ele>587.750000</ele>
<time>2012-07-21T22:38:19Z</time>
<extensions>
<speed>0.0</speed>
<temp>0.00</temp>
<bpm>0</bpm>
<rpm>0.00</rpm>
</extensions>
</trkpt>
<trkpt lat="64.040542603" lon="-19.330583572">
<ele>587.734375</ele>
<time>2012-07-21T22:38:24Z</time>
<extensions>
<speed>0.0</speed>
<temp>0.00</temp>
<bpm>0</bpm>
<rpm>0.00</rpm>
</extensions>
</trkpt>
<trkpt lat="64.040542603" lon="-19.330583572">
<ele>587.718750</ele>
<time>2012-07-21T22:38:29Z</time>
<extensions>
<speed>0.0</speed>
<temp>0.00</temp>
<bpm>0</bpm>
<rpm>0.00</rpm>
</extensions>
</trkpt>
<trkpt lat="64.040542603" lon="-19.330583572">
<ele>587.703125</ele>
<time>2012-07-21T22:38:34Z</time>
<extensions>
<speed>0.0</speed>
<temp>0.00</temp>
<bpm>0</bpm>
<rpm>0.00</rpm>
</extensions>
</trkpt>
<trkpt lat="64.040542603" lon="-19.330583572">
<ele>587.687500</ele>
<time>2012-07-21T22:38:39Z</time>
<extensions>
<speed>0.0</speed>
<temp>0.00</temp>
<bpm>0</bpm>
<rpm>0.00</rpm>
</extensions>
</trkpt>
<trkpt lat="64.040542603" lon="-19.330583572">
<ele>587.671875</ele>
<time>2012-07-21T22:38:44Z</time>
<speed>0.010000</speed>
<extensions>
<speed>0.0</speed>
<temp>0.00</temp>
<bpm>0</bpm>
<rpm>0.00</rpm>
</extensions>
</trkpt>
<trkpt lat="64.040542603" lon="-19.330583572">
<ele>587.656250</ele>
<time>2012-07-21T22:38:49Z</time>
<extensions>
<speed>0.0</speed>
<temp>0.00</temp>
<bpm>0</bpm>
<rpm>0.00</rpm>
</extensions>
</trkpt>
<trkpt lat="64.040542603" lon="-19.330583572">
<ele>587.640625</ele>
<time>2012-07-21T22:38:54Z</time>
<speed>0.010000</speed>
<extensions>
<speed>0.0</speed>
<temp>0.00</temp>
<bpm>0</bpm>
<rpm>0.00</rpm>
</extensions>
</trkpt>
<trkpt lat="64.040542603" lon="-19.330583572">
<ele>587.625000</ele>
<time>2012-07-21T22:38:59Z</time>
<speed>0.010000</speed>
<extensions>
<speed>0.0</speed>
<temp>0.00</temp>
<bpm>0</bpm>
<rpm>0.00</rpm>
</extensions>
</trkpt>
<trkpt lat="64.040542603" lon="-19.330583572">
<ele>587.609375</ele>
<time>2012-07-21T22:39:04Z</time>
<speed>0.020000</speed>
<extensions>
<speed>0.0</speed>
<temp>0.00</temp>
<bpm>0</bpm>
<rpm>0.00</rpm>
</extensions>
</trkpt>
<trkpt lat="64.040542603" lon="-19.330583572">
<ele>587.593750</ele>
<time>2012-07-21T22:39:09Z</time>
<speed>0.010000</speed>
<extensions>
<speed>0.0</speed>
<temp>0.00</temp>
<bpm>0</bpm>
<rpm>0.00</rpm>
</extensions>
</trkpt>
<trkpt lat="64.040542603" lon="-19.330583572">
<ele>587.578125</ele>
<time>2012-07-21T22:39:14Z</time>
<extensions>
<speed>0.0</speed>
<temp>0.00</temp>
<bpm>0</bpm>
<rpm>0.00</rpm>
</extensions>
</trkpt>
<trkpt lat="64.040542603" lon="-19.330583572">
<ele>587.578125</ele>
<time>2012-07-21T22:39:19Z</time>
<extensions>
<speed>0.0</speed>
<temp>0.00</temp>
<bpm>0</bpm>
<rpm>0.00</rpm>
</extensions>
</trkpt>
<trkpt lat="64.040542603" lon="-19.330583572">
<ele>587.562500</ele>
<time>2012-07-21T22:39:24Z</time>
<speed>0.010000</speed>
<extensions>
<speed>0.0</speed>
<temp>0.00</temp>
<bpm>0</bpm>
<rpm>0.00</rpm>
</extensions>
</trkpt>
<trkpt lat="64.040542603" lon="-19.330583572">
<ele>587.546875</ele>
<time>2012-07-21T22:39:29Z</time>
<speed>0.010000</speed>
<extensions>
<speed>0.0</speed>
<temp>0.00</temp>
<bpm>0</bpm>
<rpm>0.00</rpm>
</extensions>
</trkpt>
<trkpt lat="64.040542603" lon="-19.330583572">
<ele>587.531250</ele>
<time>2012-07-21T22:39:34Z</time>
<speed>0.010000</speed>
<extensions>
<speed>0.0</speed>
<temp>0.00</temp>
<bpm>0</bpm>
<rpm>0.00</rpm>
</extensions>
</trkpt>
<trkpt lat="64.040542603" lon="-19.330583572">
<ele>587.515625</ele>
<time>2012-07-21T22:39:39Z</time>
<extensions>
<speed>0.0</speed>
<temp>0.00</temp>
<bpm>0</bpm>
<rpm>0.00</rpm>
</extensions>
</trkpt>
<trkpt lat="64.040542603" lon="-19.330583572">
<ele>587.515625</ele>
<time>2012-07-21T22:39:44Z</time>
<extensions>
<speed>0.0</speed>
<temp>0.00</temp>
<bpm>0</bpm>
<rpm>0.00</rpm>
</extensions>
</trkpt>
<trkpt lat="64.040542603" lon="-19.330583572">
<ele>587.500000</ele>
<time>2012-07-21T22:39:49Z</time>
<extensions>
<speed>0.0</speed>
<temp>0.00</temp>
<bpm>0</bpm>
<rpm>0.00</rpm>
</extensions>
</trkpt>
<trkpt lat="64.040542603" lon="-19.330581665">
<ele>587.484375</ele>
<time>2012-07-21T22:39:54Z</time>
<speed>0.020000</speed>
<extensions>
<speed>0.0</speed>
<temp>0.00</temp>
<bpm>0</bpm>
<rpm>0.00</rpm>
</extensions>
</trkpt>
<trkpt lat="64.040542603" lon="-19.330581665">
<ele>587.484375</ele>
<time>2012-07-21T22:39:59Z</time>
<extensions>
<speed>0.0</speed>
<temp>0.00</temp>
<bpm>0</bpm>
<rpm>0.00</rpm>
</extensions>
</trkpt>
<trkpt lat="64.040542603" lon="-19.330581665">
<ele>587.484375</ele>
<time>2012-07-21T22:40:04Z</time>
<speed>0.010000</speed>
<extensions>
<speed>0.0</speed>
<temp>0.00</temp>
<bpm>0</bpm>
<rpm>0.00</rpm>
</extensions>
</trkpt>
<trkpt lat="64.040542603" lon="-19.330581665">
<ele>587.468750</ele>
<time>2012-07-21T22:40:09Z</time>
<extensions>
<speed>0.0</speed>
<temp>0.00</temp>
<bpm>0</bpm>
<rpm>0.00</rpm>
</extensions>
</trkpt>
<trkpt lat="64.040542603" lon="-19.330581665">
<ele>587.453125</ele>
<time>2012-07-21T22:40:14Z</time>
<speed>0.010000</speed>
<extensions>
<speed>0.0</speed>
<temp>0.00</temp>
<bpm>0</bpm>
<rpm>0.00</rpm>
</extensions>
</trkpt>
<trkpt lat="64.040542603" lon="-19.330581665">
<ele>587.437500</ele>
<time>2012-07-21T22:40:19Z</time>
<extensions>
<speed>0.0</speed>
<temp>0.00</temp>
<bpm>0</bpm>
<rpm>0.00</rpm>
</extensions>
</trkpt>
<trkpt lat="64.040542603" lon="-19.330581665">
<ele>587.421875</ele>
<time>2012-07-21T22:40:24Z</time>
<extensions>
<speed>0.0</speed>
<temp>0.00</temp>
<bpm>0</bpm>
<rpm>0.00</rpm>
</extensions>
</trkpt>
<trkpt lat="64.040542603" lon="-19.330581665">
<ele>587.421875</ele>
<time>2012-07-21T22:40:29Z</time>
<speed>0.010000</speed>
<extensions>
<speed>0.0</speed>
<temp>0.00</temp>
<bpm>0</bpm>
<rpm>0.00</rpm>
</extensions>
</trkpt>
<trkpt lat="64.040542603" lon="-19.330581665">
<ele>587.406250</ele>
<time>2012-07-21T22:40:34Z</time>
<extensions>
<speed>0.0</speed>
<temp>0.00</temp>
<bpm>0</bpm>
<rpm>0.00</rpm>
</extensions>
</trkpt>
<trkpt lat="64.040542603" lon="-19.330581665">
<ele>587.406250</ele>
<time>2012-07-21T22:40:39Z</time>
<speed>0.010000</speed>
<extensions>
<speed>0.0</speed>
<temp>0.00</temp>
<bpm>0</bpm>
<rpm>0.00</rpm>
</extensions>
</trkpt>
<trkpt lat="64.040542603" lon="-19.330581665">
<ele>587.390625</ele>
<time>2012-07-21T22:40:44Z</time>
<speed>0.020000</speed>
<extensions>
<speed>0.0</speed>
<temp>0.00</temp>
<bpm>0</bpm>
<rpm>0.00</rpm>
</extensions>
</trkpt>
<trkpt lat="64.040542603" lon="-19.330581665">
<ele>587.390625</ele>
<time>2012-07-21T22:40:49Z</time>
<speed>0.010000</speed>
<extensions>
<speed>0.0</speed>
<temp>0.00</temp>
<bpm>0</bpm>
<rpm>0.00</rpm>
</extensions>
</trkpt>
<trkpt lat="64.040542603" lon="-19.330581665">
<ele>587.390625</ele>
<time>2012-07-21T22:40:54Z</time>
<extensions>
<speed>0.0</speed>
<temp>0.00</temp>
<bpm>0</bpm>
<rpm>0.00</rpm>
</extensions>
</trkpt>
<trkpt lat="64.040542603" lon="-19.330579758">
<ele>587.375000</ele>
<time>2012-07-21T22:40:59Z</time>
<extensions>
<speed>0.0</speed>
<temp>0.00</temp>
<bpm>0</bpm>
<rpm>0.00</rpm>
</extensions>
</trkpt>
<trkpt lat="64.040542603" lon="-19.330579758">
<ele>587.375000</ele>
<time>2012-07-21T22:41:04Z</time>
<speed>0.020000</speed>
<extensions>
<speed>0.0</speed>
<temp>0.00</temp>
<bpm>0</bpm>
<rpm>0.00</rpm>
</extensions>
</trkpt>
<trkpt lat="64.040542603" lon="-19.330581665">
<ele>587.359375</ele>
<time>2012-07-21T22:41:09Z</time>
<speed>0.020000</speed>
<extensions>
<speed>0.0</speed>
<temp>0.00</temp>
<bpm>0</bpm>
<rpm>0.00</rpm>
</extensions>
</trkpt>
<trkpt lat="64.040542603" lon="-19.330579758">
<ele>587.359375</ele>
<time>2012-07-21T22:41:14Z</time>
<speed>0.020000</speed>
<extensions>
<speed>0.0</speed>
<temp>0.00</temp>
<bpm>0</bpm>
<rpm>0.00</rpm>
</extensions>
</trkpt>
<trkpt lat="64.040542603" lon="-19.330579758">
<ele>587.343750</ele>
<time>2012-07-21T22:41:19Z</time>
<extensions>
<speed>0.0</speed>
<temp>0.00</temp>
<bpm>0</bpm>
<rpm>0.00</rpm>
</extensions>
</trkpt>
<trkpt lat="64.040542603" lon="-19.330579758">
<ele>587.328125</ele>
<time>2012-07-21T22:41:24Z</time>
<speed>0.010000</speed>
<extensions>
<speed>0.0</speed>
<temp>0.00</temp>
<bpm>0</bpm>
<rpm>0.00</rpm>
</extensions>
</trkpt>
<trkpt lat="64.040542603" lon="-19.330579758">
<ele>587.343750</ele>
<time>2012-07-21T22:41:29Z</time>
<extensions>
<speed>0.0</speed>
<temp>0.00</temp>
<bpm>0</bpm>
<rpm>0.00</rpm>
</extensions>
</trkpt>
<trkpt lat="64.040542603" lon="-19.330579758">
<ele>587.328125</ele>
<time>2012-07-21T22:41:34Z</time>
<speed>0.030000</speed>
<extensions>
<speed>0.0</speed>
<temp>0.00</temp>
<bpm>0</bpm>
<rpm>0.00</rpm>
</extensions>
</trkpt>
<trkpt lat="64.040542603" lon="-19.330577850">
<ele>587.328125</ele>
<time>2012-07-21T22:41:39Z</time>
<extensions>
<speed>0.0</speed>
<temp>0.00</temp>
<bpm>0</bpm>
<rpm>0.00</rpm>
</extensions>
</trkpt>
<trkpt lat="64.040542603" lon="-19.330577850">
<ele>587.312500</ele>
<time>2012-07-21T22:41:44Z</time>
<extensions>
<speed>0.0</speed>
<temp>0.00</temp>
<bpm>0</bpm>
<rpm>0.00</rpm>
</extensions>
</trkpt>
<trkpt lat="64.040550232" lon="-19.330591202">
<ele>586.921875</ele>
<time>2012-07-21T22:41:49Z</time>
<speed>0.610000</speed>
<extensions>
<speed>0.6</speed>
<temp>0.00</temp>
<bpm>0</bpm>
<rpm>0.00</rpm>
</extensions>
</trkpt>
<trkpt lat="64.040534973" lon="-19.330612183">
<ele>587.390625</ele>
<time>2012-07-21T22:41:54Z</time>
<speed>0.080000</speed>
<extensions>
<speed>0.1</speed>
<temp>0.00</temp>
<bpm>0</bpm>
<rpm>0.00</rpm>
</extensions>
</trkpt>
<trkpt lat="64.040534973" lon="-19.330610275">
<ele>587.234375</ele>
<time>2012-07-21T22:41:59Z</time>
<speed>0.040000</speed>
<extensions>
<speed>0.0</speed>
<temp>0.00</temp>
<bpm>0</bpm>
<rpm>0.00</rpm>
</extensions>
</trkpt>
<trkpt lat="64.040550232" lon="-19.330610275">
<ele>587.640625</ele>
<time>2012-07-21T22:42:04Z</time>
<speed>0.050000</speed>
<extensions>
<speed>0.1</speed>
<temp>0.00</temp>
<bpm>0</bpm>
<rpm>0.00</rpm>
</extensions>
</trkpt>
<trkpt lat="64.040550232" lon="-19.330614090">
<ele>588.281250</ele>
<time>2012-07-21T22:42:09Z</time>
<speed>0.060000</speed>
<extensions>
<speed>0.1</speed>
<temp>0.00</temp>
<bpm>0</bpm>
<rpm>0.00</rpm>
</extensions>
</trkpt>
<trkpt lat="64.040557861" lon="-19.330615997">
<ele>588.921875</ele>
<time>2012-07-21T22:42:14Z</time>
<speed>0.050000</speed>
<extensions>
<speed>0.1</speed>
<temp>0.00</temp>
<bpm>0</bpm>
<rpm>0.00</rpm>
</extensions>
</trkpt>
<trkpt lat="64.040557861" lon="-19.330617905">
<ele>589.359375</ele>
<time>2012-07-21T22:42:19Z</time>
<speed>0.010000</speed>
<extensions>
<speed>0.0</speed>
<temp>0.00</temp>
<bpm>0</bpm>
<rpm>0.00</rpm>
</extensions>
</trkpt>
<trkpt lat="64.040557861" lon="-19.330617905">
<ele>589.359375</ele>
<time>2012-07-21T22:42:24Z</time>
<speed>0.010000</speed>
<extensions>
<speed>0.0</speed>
<temp>0.00</temp>
<bpm>0</bpm>
<rpm>0.00</rpm>
</extensions>
</trkpt>
<trkpt lat="64.040557861" lon="-19.330617905">
<ele>589.359375</ele>
<time>2012-07-21T22:42:29Z</time>
<extensions>
<speed>0.0</speed>
<temp>0.00</temp>
<bpm>0</bpm>
<rpm>0.00</rpm>
</extensions>
</trkpt>
<trkpt lat="64.040557861" lon="-19.330617905">
<ele>589.343750</ele>
<time>2012-07-21T22:42:34Z</time>
<extensions>
<speed>0.0</speed>
<temp>0.00</temp>
<bpm>0</bpm>
<rpm>0.00</rpm>
</extensions>
</trkpt>
<trkpt lat="64.040557861" lon="-19.330617905">
<ele>589.328125</ele>
<time>2012-07-21T22:42:39Z</time>
<speed>0.010000</speed>
<extensions>
<speed>0.0</speed>
<temp>0.00</temp>
<bpm>0</bpm>
<rpm>0.00</rpm>
</extensions>
</trkpt>
<trkpt lat="64.040557861" lon="-19.330619812">
<ele>589.328125</ele>
<time>2012-07-21T22:42:44Z</time>
<extensions>
<speed>0.0</speed>
<temp>0.00</temp>
<bpm>0</bpm>
<rpm>0.00</rpm>
</extensions>
</trkpt>
<trkpt lat="64.040557861" lon="-19.330619812">
<ele>589.312500</ele>
<time>2012-07-21T22:42:49Z</time>
<extensions>
<speed>0.0</speed>
<temp>0.00</temp>
<bpm>0</bpm>
<rpm>0.00</rpm>
</extensions>
</trkpt>
<trkpt lat="64.040557861" lon="-19.330619812">
<ele>589.296875</ele>
<time>2012-07-21T22:42:54Z</time>
<extensions>
<speed>0.0</speed>
<temp>0.00</temp>
<bpm>0</bpm>
<rpm>0.00</rpm>
</extensions>
</trkpt>
<trkpt lat="64.040557861" lon="-19.330619812">
<ele>589.281250</ele>
<time>2012-07-21T22:42:59Z</time>
<extensions>
<speed>0.0</speed>
<temp>0.00</temp>
<bpm>0</bpm>
<rpm>0.00</rpm>
</extensions>
</trkpt>
<trkpt lat="64.040557861" lon="-19.330619812">
<ele>589.265625</ele>
<time>2012-07-21T22:43:04Z</time>
<extensions>
<speed>0.0</speed>
<temp>0.00</temp>
<bpm>0</bpm>
<rpm>0.00</rpm>
</extensions>
</trkpt>
<trkpt lat="64.040557861" lon="-19.330619812">
<ele>589.250000</ele>
<time>2012-07-21T22:43:09Z</time>
<extensions>
<speed>0.0</speed>
<temp>0.00</temp>
<bpm>0</bpm>
<rpm>0.00</rpm>
</extensions>
</trkpt>
<trkpt lat="64.040557861" lon="-19.330619812">
<ele>589.234375</ele>
<time>2012-07-21T22:43:14Z</time>
<extensions>
<speed>0.0</speed>
<temp>0.00</temp>
<bpm>0</bpm>
<rpm>0.00</rpm>
</extensions>
</trkpt>
<trkpt lat="64.040557861" lon="-19.330619812">
<ele>589.234375</ele>
<time>2012-07-21T22:43:19Z</time>
<extensions>
<speed>0.0</speed>
<temp>0.00</temp>
<bpm>0</bpm>
<rpm>0.00</rpm>
</extensions>
</trkpt>
<trkpt lat="64.040557861" lon="-19.330621719">
<ele>589.218750</ele>
<time>2012-07-21T22:43:24Z</time>
<extensions>
<speed>0.0</speed>
<temp>0.00</temp>
<bpm>0</bpm>
<rpm>0.00</rpm>
</extensions>
</trkpt>
<trkpt lat="64.040557861" lon="-19.330621719">
<ele>589.218750</ele>
<time>2012-07-21T22:43:29Z</time>
<extensions>
<speed>0.0</speed>
<temp>0.00</temp>
<bpm>0</bpm>
<rpm>0.00</rpm>
</extensions>
</trkpt>
<trkpt lat="64.040557861" lon="-19.330621719">
<ele>589.218750</ele>
<time>2012-07-21T22:43:34Z</time>
<extensions>
<speed>0.0</speed>
<temp>0.00</temp>
<bpm>0</bpm>
<rpm>0.00</rpm>
</extensions>
</trkpt>
<trkpt lat="64.040557861" lon="-19.330621719">
<ele>589.187500</ele>
<time>2012-07-21T22:43:39Z</time>
<extensions>
<speed>0.0</speed>
<temp>0.00</temp>
<bpm>0</bpm>
<rpm>0.00</rpm>
</extensions>
</trkpt>
<trkpt lat="64.040557861" lon="-19.330621719">
<ele>589.171875</ele>
<time>2012-07-21T22:43:44Z</time>
<extensions>
<speed>0.0</speed>
<temp>0.00</temp>
<bpm>0</bpm>
<rpm>0.00</rpm>
</extensions>
</trkpt>
<trkpt lat="64.040557861" lon="-19.330621719">
<ele>589.171875</ele>
<time>2012-07-21T22:43:49Z</time>
<extensions>
<speed>0.0</speed>
<temp>0.00</temp>
<bpm>0</bpm>
<rpm>0.00</rpm>
</extensions>
</trkpt>
<trkpt lat="64.040557861" lon="-19.330621719">
<ele>589.156250</ele>
<time>2012-07-21T22:43:54Z</time>
<extensions>
<speed>0.0</speed>
<temp>0.00</temp>
<bpm>0</bpm>
<rpm>0.00</rpm>
</extensions>
</trkpt>
<trkpt lat="64.040557861" lon="-19.330621719">
<ele>589.156250</ele>
<time>2012-07-21T22:43:59Z</time>
<extensions>
<speed>0.0</speed>
<temp>0.00</temp>
<bpm>0</bpm>
<rpm>0.00</rpm>
</extensions>
</trkpt>
<trkpt lat="64.040557861" lon="-19.330621719">
<ele>589.140625</ele>
<time>2012-07-21T22:44:04Z</time>
<speed>0.010000</speed>
<extensions>
<speed>0.0</speed>
<temp>0.00</temp>
<bpm>0</bpm>
<rpm>0.00</rpm>
</extensions>
</trkpt>
<trkpt lat="64.040557861" lon="-19.330621719">
<ele>589.125000</ele>
<time>2012-07-21T22:44:09Z</time>
<speed>0.010000</speed>
<extensions>
<speed>0.0</speed>
<temp>0.00</temp>
<bpm>0</bpm>
<rpm>0.00</rpm>
</extensions>
</trkpt>
<trkpt lat="64.040557861" lon="-19.330623627">
<ele>589.109375</ele>
<time>2012-07-21T22:44:14Z</time>
<extensions>
<speed>0.0</speed>
<temp>0.00</temp>
<bpm>0</bpm>
<rpm>0.00</rpm>
</extensions>
</trkpt>
<trkpt lat="64.040557861" lon="-19.330623627">
<ele>589.093750</ele>
<time>2012-07-21T22:44:19Z</time>
<extensions>
<speed>0.0</speed>
<temp>0.00</temp>
<bpm>0</bpm>
<rpm>0.00</rpm>
</extensions>
</trkpt>
<trkpt lat="64.040557861" lon="-19.330623627">
<ele>589.062500</ele>
<time>2012-07-21T22:44:24Z</time>
<extensions>
<speed>0.0</speed>
<temp>0.00</temp>
<bpm>0</bpm>
<rpm>0.00</rpm>
</extensions>
</trkpt>
<trkpt lat="64.040557861" lon="-19.330623627">
<ele>589.046875</ele>
<time>2012-07-21T22:44:29Z</time>
<extensions>
<speed>0.0</speed>
<temp>0.00</temp>
<bpm>0</bpm>
<rpm>0.00</rpm>
</extensions>
</trkpt>
<trkpt lat="64.040557861" lon="-19.330623627">
<ele>589.046875</ele>
<time>2012-07-21T22:44:34Z</time>
<extensions>
<speed>0.0</speed>
<temp>0.00</temp>
<bpm>0</bpm>
<rpm>0.00</rpm>
</extensions>
</trkpt>
<trkpt lat="64.040557861" lon="-19.330623627">
<ele>589.031250</ele>
<time>2012-07-21T22:44:39Z</time>
<extensions>
<speed>0.0</speed>
<temp>0.00</temp>
<bpm>0</bpm>
<rpm>0.00</rpm>
</extensions>
</trkpt>
<trkpt lat="64.040557861" lon="-19.330623627">
<ele>589.000000</ele>
<time>2012-07-21T22:44:44Z</time>
<extensions>
<speed>0.0</speed>
<temp>0.00</temp>
<bpm>0</bpm>
<rpm>0.00</rpm>
</extensions>
</trkpt>
<trkpt lat="64.040557861" lon="-19.330623627">
<ele>589.000000</ele>
<time>2012-07-21T22:44:49Z</time>
<extensions>
<speed>0.0</speed>
<temp>0.00</temp>
<bpm>0</bpm>
<rpm>0.00</rpm>
</extensions>
</trkpt>
<trkpt lat="64.040557861" lon="-19.330623627">
<ele>588.984375</ele>
<time>2012-07-21T22:44:54Z</time>
<speed>0.010000</speed>
<extensions>
<speed>0.0</speed>
<temp>0.00</temp>
<bpm>0</bpm>
<rpm>0.00</rpm>
</extensions>
</trkpt>
<trkpt lat="64.040557861" lon="-19.330623627">
<ele>588.984375</ele>
<time>2012-07-21T22:44:59Z</time>
<speed>0.010000</speed>
<extensions>
<speed>0.0</speed>
<temp>0.00</temp>
<bpm>0</bpm>
<rpm>0.00</rpm>
</extensions>
</trkpt>
<trkpt lat="64.040557861" lon="-19.330623627">
<ele>588.968750</ele>
<time>2012-07-21T22:45:04Z</time>
<extensions>
<speed>0.0</speed>
<temp>0.00</temp>
<bpm>0</bpm>
<rpm>0.00</rpm>
</extensions>
</trkpt>
<trkpt lat="64.040557861" lon="-19.330623627">
<ele>588.953125</ele>
<time>2012-07-21T22:45:09Z</time>
<extensions>
<speed>0.0</speed>
<temp>0.00</temp>
<bpm>0</bpm>
<rpm>0.00</rpm>
</extensions>
</trkpt>
<trkpt lat="64.040557861" lon="-19.330623627">
<ele>588.937500</ele>
<time>2012-07-21T22:45:14Z</time>
<extensions>
<speed>0.0</speed>
<temp>0.00</temp>
<bpm>0</bpm>
<rpm>0.00</rpm>
</extensions>
</trkpt>
<trkpt lat="64.040557861" lon="-19.330623627">
<ele>588.921875</ele>
<time>2012-07-21T22:45:19Z</time>
<extensions>
<speed>0.0</speed>
<temp>0.00</temp>
<bpm>0</bpm>
<rpm>0.00</rpm>
</extensions>
</trkpt>
<trkpt lat="64.040557861" lon="-19.330623627">
<ele>588.906250</ele>
<time>2012-07-21T22:45:24Z</time>
<extensions>
<speed>0.0</speed>
<temp>0.00</temp>
<bpm>0</bpm>
<rpm>0.00</rpm>
</extensions>
</trkpt>
<trkpt lat="64.040557861" lon="-19.330623627">
<ele>588.890625</ele>
<time>2012-07-21T22:45:29Z</time>
<extensions>
<speed>0.0</speed>
<temp>0.00</temp>
<bpm>0</bpm>
<rpm>0.00</rpm>
</extensions>
</trkpt>
<trkpt lat="64.040557861" lon="-19.330623627">
<ele>588.875000</ele>
<time>2012-07-21T22:45:34Z</time>
<extensions>
<speed>0.0</speed>
<temp>0.00</temp>
<bpm>0</bpm>
<rpm>0.00</rpm>
</extensions>
</trkpt>
<trkpt lat="64.040557861" lon="-19.330625534">
<ele>588.859375</ele>
<time>2012-07-21T22:45:39Z</time>
<extensions>
<speed>0.0</speed>
<temp>0.00</temp>
<bpm>0</bpm>
<rpm>0.00</rpm>
</extensions>
</trkpt>
<trkpt lat="64.040557861" lon="-19.330625534">
<ele>588.859375</ele>
<time>2012-07-21T22:45:44Z</time>
<speed>0.010000</speed>
<extensions>
<speed>0.0</speed>
<temp>0.00</temp>
<bpm>0</bpm>
<rpm>0.00</rpm>
</extensions>
</trkpt>
<trkpt lat="64.040557861" lon="-19.330625534">
<ele>588.843750</ele>
<time>2012-07-21T22:45:49Z</time>
<extensions>
<speed>0.0</speed>
<temp>0.00</temp>
<bpm>0</bpm>
<rpm>0.00</rpm>
</extensions>
</trkpt>
<trkpt lat="64.040557861" lon="-19.330625534">
<ele>588.843750</ele>
<time>2012-07-21T22:45:54Z</time>
<extensions>
<speed>0.0</speed>
<temp>0.00</temp>
<bpm>0</bpm>
<rpm>0.00</rpm>
</extensions>
</trkpt>
<trkpt lat="64.040557861" lon="-19.330625534">
<ele>588.812500</ele>
<time>2012-07-21T22:45:59Z</time>
<extensions>
<speed>0.0</speed>
<temp>0.00</temp>
<bpm>0</bpm>
<rpm>0.00</rpm>
</extensions>
</trkpt>
<trkpt lat="64.040557861" lon="-19.330625534">
<ele>588.812500</ele>
<time>2012-07-21T22:46:04Z</time>
<extensions>
<speed>0.0</speed>
<temp>0.00</temp>
<bpm>0</bpm>
<rpm>0.00</rpm>
</extensions>
</trkpt>
<trkpt lat="64.040557861" lon="-19.330625534">
<ele>588.781250</ele>
<time>2012-07-21T22:46:09Z</time>
<extensions>
<speed>0.0</speed>
<temp>0.00</temp>
<bpm>0</bpm>
<rpm>0.00</rpm>
</extensions>
</trkpt>
<trkpt lat="64.040557861" lon="-19.330625534">
<ele>588.765625</ele>
<time>2012-07-21T22:46:14Z</time>
<extensions>
<speed>0.0</speed>
<temp>0.00</temp>
<bpm>0</bpm>
<rpm>0.00</rpm>
</extensions>
</trkpt>
<trkpt lat="64.040557861" lon="-19.330625534">
<ele>588.750000</ele>
<time>2012-07-21T22:46:19Z</time>
<extensions>
<speed>0.0</speed>
<temp>0.00</temp>
<bpm>0</bpm>
<rpm>0.00</rpm>
</extensions>
</trkpt>
<trkpt lat="64.040557861" lon="-19.330625534">
<ele>588.734375</ele>
<time>2012-07-21T22:46:24Z</time>
<extensions>
<speed>0.0</speed>
<temp>0.00</temp>
<bpm>0</bpm>
<rpm>0.00</rpm>
</extensions>
</trkpt>
<trkpt lat="64.040557861" lon="-19.330625534">
<ele>588.734375</ele>
<time>2012-07-21T22:46:29Z</time>
<extensions>
<speed>0.0</speed>
<temp>0.00</temp>
<bpm>0</bpm>
<rpm>0.00</rpm>
</extensions>
</trkpt>
<trkpt lat="64.040557861" lon="-19.330625534">
<ele>588.718750</ele>
<time>2012-07-21T22:46:34Z</time>
<extensions>
<speed>0.0</speed>
<temp>0.00</temp>
<bpm>0</bpm>
<rpm>0.00</rpm>
</extensions>
</trkpt>
<trkpt lat="64.040557861" lon="-19.330625534">
<ele>588.718750</ele>
<time>2012-07-21T22:46:39Z</time>
<extensions>
<speed>0.0</speed>
<temp>0.00</temp>
<bpm>0</bpm>
<rpm>0.00</rpm>
</extensions>
</trkpt>
<trkpt lat="64.040557861" lon="-19.330625534">
<ele>588.718750</ele>
<time>2012-07-21T22:46:44Z</time>
<extensions>
<speed>0.0</speed>
<temp>0.00</temp>
<bpm>0</bpm>
<rpm>0.00</rpm>
</extensions>
</trkpt>
<trkpt lat="64.040557861" lon="-19.330625534">
<ele>588.703125</ele>
<time>2012-07-21T22:46:49Z</time>
<extensions>
<speed>0.0</speed>
<temp>0.00</temp>
<bpm>0</bpm>
<rpm>0.00</rpm>
</extensions>
</trkpt>
<trkpt lat="64.040557861" lon="-19.330625534">
<ele>588.703125</ele>
<time>2012-07-21T22:46:54Z</time>
<extensions>
<speed>0.0</speed>
<temp>0.00</temp>
<bpm>0</bpm>
<rpm>0.00</rpm>
</extensions>
</trkpt>
<trkpt lat="64.040557861" lon="-19.330625534">
<ele>588.687500</ele>
<time>2012-07-21T22:46:59Z</time>
<extensions>
<speed>0.0</speed>
<temp>0.00</temp>
<bpm>0</bpm>
<rpm>0.00</rpm>
</extensions>
</trkpt>
<trkpt lat="64.040565491" lon="-19.330621719">
<ele>589.109375</ele>
<time>2012-07-21T22:47:04Z</time>
<speed>0.050000</speed>
<extensions>
<speed>0.1</speed>
<temp>0.00</temp>
<bpm>0</bpm>
<rpm>0.00</rpm>
</extensions>
</trkpt>
<trkpt lat="64.040557861" lon="-19.330617905">
<ele>589.000000</ele>
<time>2012-07-21T22:47:09Z</time>
<speed>0.040000</speed>
<extensions>
<speed>0.0</speed>
<temp>0.00</temp>
<bpm>0</bpm>
<rpm>0.00</rpm>
</extensions>
</trkpt>
<trkpt lat="64.040557861" lon="-19.330619812">
<ele>589.015625</ele>
<time>2012-07-21T22:47:14Z</time>
<extensions>
<speed>0.0</speed>
<temp>0.00</temp>
<bpm>0</bpm>
<rpm>0.00</rpm>
</extensions>
</trkpt>
<trkpt lat="64.040557861" lon="-19.330619812">
<ele>589.000000</ele>
<time>2012-07-21T22:47:19Z</time>
<speed>0.010000</speed>
<extensions>
<speed>0.0</speed>
<temp>0.00</temp>
<bpm>0</bpm>
<rpm>0.00</rpm>
</extensions>
</trkpt>
<trkpt lat="64.040557861" lon="-19.330621719">
<ele>589.000000</ele>
<time>2012-07-21T22:47:24Z</time>
<speed>0.020000</speed>
<extensions>
<speed>0.0</speed>
<temp>0.00</temp>
<bpm>0</bpm>
<rpm>0.00</rpm>
</extensions>
</trkpt>
<trkpt lat="64.040557861" lon="-19.330627441">
<ele>588.984375</ele>
<time>2012-07-21T22:47:29Z</time>
<speed>0.070000</speed>
<extensions>
<speed>0.1</speed>
<temp>0.00</temp>
<bpm>0</bpm>
<rpm>0.00</rpm>
</extensions>
</trkpt>
<trkpt lat="64.040557861" lon="-19.330629349">
<ele>589.015625</ele>
<time>2012-07-21T22:47:34Z</time>
<speed>0.310000</speed>
<extensions>
<speed>0.3</speed>
<temp>0.00</temp>
<bpm>0</bpm>
<rpm>0.00</rpm>
</extensions>
</trkpt>
<trkpt lat="64.040573120" lon="-19.330566406">
<ele>589.328125</ele>
<time>2012-07-21T22:47:39Z</time>
<extensions>
<speed>0.0</speed>
<temp>0.00</temp>
<bpm>0</bpm>
<rpm>0.00</rpm>
</extensions>
</trkpt>
<trkpt lat="64.040573120" lon="-19.330566406">
<ele>589.312500</ele>
<time>2012-07-21T22:47:44Z</time>
<extensions>
<speed>0.0</speed>
<temp>0.00</temp>
<bpm>0</bpm>
<rpm>0.00</rpm>
</extensions>
</trkpt>
<trkpt lat="64.040573120" lon="-19.330566406">
<ele>589.312500</ele>
<time>2012-07-21T22:47:49Z</time>
<speed>0.010000</speed>
<extensions>
<speed>0.0</speed>
<temp>0.00</temp>
<bpm>0</bpm>
<rpm>0.00</rpm>
</extensions>
</trkpt>
<trkpt lat="64.040573120" lon="-19.330568314">
<ele>589.296875</ele>
<time>2012-07-21T22:47:54Z</time>
<speed>0.010000</speed>
<extensions>
<speed>0.0</speed>
<temp>0.00</temp>
<bpm>0</bpm>
<rpm>0.00</rpm>
</extensions>
</trkpt>
<trkpt lat="64.040573120" lon="-19.330568314">
<ele>589.265625</ele>
<time>2012-07-21T22:47:59Z</time>
<extensions>
<speed>0.0</speed>
<temp>0.00</temp>
<bpm>0</bpm>
<rpm>0.00</rpm>
</extensions>
</trkpt>
<trkpt lat="64.040573120" lon="-19.330568314">
<ele>589.250000</ele>
<time>2012-07-21T22:48:04Z</time>
<speed>0.020000</speed>
<extensions>
<speed>0.0</speed>
<temp>0.00</temp>
<bpm>0</bpm>
<rpm>0.00</rpm>
</extensions>
</trkpt>
<trkpt lat="64.040573120" lon="-19.330568314">
<ele>589.234375</ele>
<time>2012-07-21T22:48:09Z</time>
<speed>0.040000</speed>
<extensions>
<speed>0.0</speed>
<temp>0.00</temp>
<bpm>0</bpm>
<rpm>0.00</rpm>
</extensions>
</trkpt>
<trkpt lat="64.040573120" lon="-19.330568314">
<ele>589.203125</ele>
<time>2012-07-21T22:48:14Z</time>
<speed>0.020000</speed>
<extensions>
<speed>0.0</speed>
<temp>0.00</temp>
<bpm>0</bpm>
<rpm>0.00</rpm>
</extensions>
</trkpt>
<trkpt lat="64.040573120" lon="-19.330570221">
<ele>589.187500</ele>
<time>2012-07-21T22:48:19Z</time>
<extensions>
<speed>0.0</speed>
<temp>0.00</temp>
<bpm>0</bpm>
<rpm>0.00</rpm>
</extensions>
</trkpt>
<trkpt lat="64.040573120" lon="-19.330570221">
<ele>589.187500</ele>
<time>2012-07-21T22:48:24Z</time>
<speed>0.030000</speed>
<extensions>
<speed>0.0</speed>
<temp>0.00</temp>
<bpm>0</bpm>
<rpm>0.00</rpm>
</extensions>
</trkpt>
<trkpt lat="64.040565491" lon="-19.330570221">
<ele>589.109375</ele>
<time>2012-07-21T22:48:29Z</time>
<extensions>
<speed>0.0</speed>
<temp>0.00</temp>
<bpm>0</bpm>
<rpm>0.00</rpm>
</extensions>
</trkpt>
<trkpt lat="64.040565491" lon="-19.330570221">
<ele>589.109375</ele>
<time>2012-07-21T22:48:34Z</time>
<speed>0.030000</speed>
<extensions>
<speed>0.0</speed>
<temp>0.00</temp>
<bpm>0</bpm>
<rpm>0.00</rpm>
</extensions>
</trkpt>
<trkpt lat="64.040565491" lon="-19.330570221">
<ele>589.093750</ele>
<time>2012-07-21T22:48:39Z</time>
<speed>0.070000</speed>
<extensions>
<speed>0.1</speed>
<temp>0.00</temp>
<bpm>0</bpm>
<rpm>0.00</rpm>
</extensions>
</trkpt>
<trkpt lat="64.040565491" lon="-19.330574036">
<ele>589.109375</ele>
<time>2012-07-21T22:48:44Z</time>
<speed>0.020000</speed>
<extensions>
<speed>0.0</speed>
<temp>0.00</temp>
<bpm>0</bpm>
<rpm>0.00</rpm>
</extensions>
</trkpt>
<trkpt lat="64.040565491" lon="-19.330574036">
<ele>589.046875</ele>
<time>2012-07-21T22:48:49Z</time>
<extensions>
<speed>0.0</speed>
<temp>0.00</temp>
<bpm>0</bpm>
<rpm>0.00</rpm>
</extensions>
</trkpt>
<trkpt lat="64.040565491" lon="-19.330572128">
<ele>589.031250</ele>
<time>2012-07-21T22:48:54Z</time>
<speed>0.010000</speed>
<extensions>
<speed>0.0</speed>
<temp>0.00</temp>
<bpm>0</bpm>
<rpm>0.00</rpm>
</extensions>
</trkpt>
<trkpt lat="64.040557861" lon="-19.330572128">
<ele>588.828125</ele>
<time>2012-07-21T22:48:59Z</time>
<speed>0.220000</speed>
<extensions>
<speed>0.2</speed>
<temp>0.00</temp>
<bpm>0</bpm>
<rpm>0.00</rpm>
</extensions>
</trkpt>
<trkpt lat="64.040565491" lon="-19.330593109">
<ele>588.109375</ele>
<time>2012-07-21T22:49:04Z</time>
<speed>0.610000</speed>
<extensions>
<speed>0.6</speed>
<temp>0.00</temp>
<bpm>0</bpm>
<rpm>0.00</rpm>
</extensions>
</trkpt>
<trkpt lat="64.040611267" lon="-19.330600739">
<ele>588.218750</ele>
<time>2012-07-21T22:49:09Z</time>
<speed>0.790000</speed>
<extensions>
<speed>0.8</speed>
<temp>0.00</temp>
<bpm>0</bpm>
<rpm>0.00</rpm>
</extensions>
</trkpt>
<trkpt lat="64.040626526" lon="-19.330553055">
<ele>587.484375</ele>
<time>2012-07-21T22:49:14Z</time>
<speed>0.890000</speed>
<extensions>
<speed>0.9</speed>
<temp>0.00</temp>
<bpm>0</bpm>
<rpm>0.00</rpm>
</extensions>
</trkpt>
<trkpt lat="64.040641785" lon="-19.330507278">
<ele>587.687500</ele>
<time>2012-07-21T22:49:19Z</time>
<speed>0.040000</speed>
<extensions>
<speed>0.0</speed>
<temp>0.00</temp>
<bpm>0</bpm>
<rpm>0.00</rpm>
</extensions>
</trkpt>
<trkpt lat="64.040657043" lon="-19.330461502">
<ele>587.625000</ele>
<time>2012-07-21T22:49:24Z</time>
<speed>1.030000</speed>
<extensions>
<speed>1.0</speed>
<temp>0.00</temp>
<bpm>0</bpm>
<rpm>0.00</rpm>
</extensions>
</trkpt>
<trkpt lat="64.040657043" lon="-19.330419540">
<ele>587.625000</ele>
<time>2012-07-21T22:49:29Z</time>
<speed>0.110000</speed>
<extensions>
<speed>0.1</speed>
<temp>0.00</temp>
<bpm>0</bpm>
<rpm>0.00</rpm>
</extensions>
</trkpt>
<trkpt lat="64.040664673" lon="-19.330430984">
<ele>587.781250</ele>
<time>2012-07-21T22:49:34Z</time>
<speed>0.020000</speed>
<extensions>
<speed>0.0</speed>
<temp>0.00</temp>
<bpm>0</bpm>
<rpm>0.00</rpm>
</extensions>
</trkpt>
<trkpt lat="64.040664673" lon="-19.330429077">
<ele>587.796875</ele>
<time>2012-07-21T22:49:39Z</time>
<speed>0.010000</speed>
<extensions>
<speed>0.0</speed>
<temp>0.00</temp>
<bpm>0</bpm>
<rpm>0.00</rpm>
</extensions>
</trkpt>
<trkpt lat="64.040657043" lon="-19.330425262">
<ele>587.640625</ele>
<time>2012-07-21T22:49:44Z</time>
<speed>0.010000</speed>
<extensions>
<speed>0.0</speed>
<temp>0.00</temp>
<bpm>0</bpm>
<rpm>0.00</rpm>
</extensions>
</trkpt>
<trkpt lat="64.040672302" lon="-19.330360413">
<ele>588.984375</ele>
<time>2012-07-21T22:49:49Z</time>
<speed>1.080000</speed>
<extensions>
<speed>1.1</speed>
<temp>0.00</temp>
<bpm>0</bpm>
<rpm>0.00</rpm>
</extensions>
</trkpt>
<trkpt lat="64.040679932" lon="-19.330335617">
<ele>589.750000</ele>
<time>2012-07-21T22:49:54Z</time>
<extensions>
<speed>0.0</speed>
<temp>0.00</temp>
<bpm>0</bpm>
<rpm>0.00</rpm>
</extensions>
</trkpt>
<trkpt lat="64.040672302" lon="-19.330348969">
<ele>589.625000</ele>
<time>2012-07-21T22:49:59Z</time>
<speed>0.010000</speed>
<extensions>
<speed>0.0</speed>
<temp>0.00</temp>
<bpm>0</bpm>
<rpm>0.00</rpm>
</extensions>
</trkpt>
<trkpt lat="64.040679932" lon="-19.330303192">
<ele>589.984375</ele>
<time>2012-07-21T22:50:04Z</time>
<speed>0.180000</speed>
<extensions>
<speed>0.2</speed>
<temp>0.00</temp>
<bpm>0</bpm>
<rpm>0.00</rpm>
</extensions>
</trkpt>
<trkpt lat="64.040672302" lon="-19.330297470">
<ele>590.718750</ele>
<time>2012-07-21T22:50:09Z</time>
<speed>0.040000</speed>
<extensions>
<speed>0.0</speed>
<temp>0.00</temp>
<bpm>0</bpm>
<rpm>0.00</rpm>
</extensions>
</trkpt>
<trkpt lat="64.040672302" lon="-19.330295563">
<ele>590.765625</ele>
<time>2012-07-21T22:50:14Z</time>
<speed>0.150000</speed>
<extensions>
<speed>0.2</speed>
<temp>0.00</temp>
<bpm>0</bpm>
<rpm>0.00</rpm>
</extensions>
</trkpt>
<trkpt lat="64.040672302" lon="-19.330289841">
<ele>590.718750</ele>
<time>2012-07-21T22:50:19Z</time>
<speed>0.010000</speed>
<extensions>
<speed>0.0</speed>
<temp>0.00</temp>
<bpm>0</bpm>
<rpm>0.00</rpm>
</extensions>
</trkpt>
<trkpt lat="64.040672302" lon="-19.330282211">
<ele>590.562500</ele>
<time>2012-07-21T22:50:24Z</time>
<speed>0.010000</speed>
<extensions>
<speed>0.0</speed>
<temp>0.00</temp>
<bpm>0</bpm>
<rpm>0.00</rpm>
</extensions>
</trkpt>
<trkpt lat="64.040672302" lon="-19.330282211">
<ele>590.562500</ele>
<time>2012-07-21T22:50:29Z</time>
<speed>0.120000</speed>
<extensions>
<speed>0.1</speed>
<temp>0.00</temp>
<bpm>0</bpm>
<rpm>0.00</rpm>
</extensions>
</trkpt>
<trkpt lat="64.040657043" lon="-19.330280304">
<ele>591.359375</ele>
<time>2012-07-21T22:50:34Z</time>
<speed>0.220000</speed>
<extensions>
<speed>0.2</speed>
<temp>0.00</temp>
<bpm>0</bpm>
<rpm>0.00</rpm>
</extensions>
</trkpt>
<trkpt lat="64.040641785" lon="-19.330308914">
<ele>590.906250</ele>
<time>2012-07-21T22:50:39Z</time>
<speed>1.280000</speed>
<extensions>
<speed>1.3</speed>
<temp>0.00</temp>
<bpm>0</bpm>
<rpm>0.00</rpm>
</extensions>
</trkpt>
<trkpt lat="64.040649414" lon="-19.330442429">
<ele>589.328125</ele>
<time>2012-07-21T22:50:44Z</time>
<speed>0.870000</speed>
<extensions>
<speed>0.9</speed>
<temp>0.00</temp>
<bpm>0</bpm>
<rpm>0.00</rpm>
</extensions>
</trkpt>
<trkpt lat="64.040641785" lon="-19.330497742">
<ele>587.265625</ele>
<time>2012-07-21T22:50:49Z</time>
<speed>0.020000</speed>
<extensions>
<speed>0.0</speed>
<temp>0.00</temp>
<bpm>0</bpm>
<rpm>0.00</rpm>
</extensions>
</trkpt>
<trkpt lat="64.040641785" lon="-19.330503464">
<ele>587.203125</ele>
<time>2012-07-21T22:50:54Z</time>
<speed>0.810000</speed>
<extensions>
<speed>0.8</speed>
<temp>0.00</temp>
<bpm>0</bpm>
<rpm>0.00</rpm>
</extensions>
</trkpt>
<trkpt lat="64.040664673" lon="-19.330631256">
<ele>586.453125</ele>
<time>2012-07-21T22:50:59Z</time>
<speed>1.640000</speed>
<extensions>
<speed>1.6</speed>
<temp>0.00</temp>
<bpm>0</bpm>
<rpm>0.00</rpm>
</extensions>
</trkpt>
<trkpt lat="64.040687561" lon="-19.330793381">
<ele>585.703125</ele>
<time>2012-07-21T22:51:04Z</time>
<speed>1.730000</speed>
<extensions>
<speed>1.7</speed>
<temp>0.00</temp>
<bpm>0</bpm>
<rpm>0.00</rpm>
</extensions>
</trkpt>
<trkpt lat="64.040740967" lon="-19.330938339">
<ele>585.890625</ele>
<time>2012-07-21T22:51:09Z</time>
<speed>1.440000</speed>
<extensions>
<speed>1.4</speed>
<temp>0.00</temp>
<bpm>0</bpm>
<rpm>0.00</rpm>
</extensions>
</trkpt>
<trkpt lat="64.040763855" lon="-19.331022263">
<ele>586.359375</ele>
<time>2012-07-21T22:51:14Z</time>
<speed>0.090000</speed>
<extensions>
<speed>0.1</speed>
<temp>0.00</temp>
<bpm>0</bpm>
<rpm>0.00</rpm>
</extensions>
</trkpt>
<trkpt lat="64.040756226" lon="-19.331029892">
<ele>586.562500</ele>
<time>2012-07-21T22:51:19Z</time>
<speed>0.020000</speed>
<extensions>
<speed>0.0</speed>
<temp>0.00</temp>
<bpm>0</bpm>
<rpm>0.00</rpm>
</extensions>
</trkpt>
<trkpt lat="64.040756226" lon="-19.331029892">
<ele>586.593750</ele>
<time>2012-07-21T22:51:24Z</time>
<extensions>
<speed>0.0</speed>
<temp>0.00</temp>
<bpm>0</bpm>
<rpm>0.00</rpm>
</extensions>
</trkpt>
<trkpt lat="64.040756226" lon="-19.331027985">
<ele>586.609375</ele>
<time>2012-07-21T22:51:29Z</time>
<speed>0.160000</speed>
<extensions>
<speed>0.2</speed>
<temp>0.00</temp>
<bpm>0</bpm>
<rpm>0.00</rpm>
</extensions>
</trkpt>
<trkpt lat="64.040771484" lon="-19.331092834">
<ele>586.046875</ele>
<time>2012-07-21T22:51:34Z</time>
<speed>1.210000</speed>
<extensions>
<speed>1.2</speed>
<temp>0.00</temp>
<bpm>0</bpm>
<rpm>0.00</rpm>
</extensions>
</trkpt>
<trkpt lat="64.040817261" lon="-19.331169128">
<ele>586.140625</ele>
<time>2012-07-21T22:51:39Z</time>
<speed>1.130000</speed>
<extensions>
<speed>1.1</speed>
<temp>0.00</temp>
<bpm>0</bpm>
<rpm>0.00</rpm>
</extensions>
</trkpt>
<trkpt lat="64.040847778" lon="-19.331203461">
<ele>586.343750</ele>
<time>2012-07-21T22:51:44Z</time>
<speed>0.400000</speed>
<extensions>
<speed>0.4</speed>
<temp>0.00</temp>
<bpm>0</bpm>
<rpm>0.00</rpm>
</extensions>
</trkpt>
<trkpt lat="64.040840149" lon="-19.331220627">
<ele>587.578125</ele>
<time>2012-07-21T22:51:49Z</time>
<speed>0.640000</speed>
<extensions>
<speed>0.6</speed>
<temp>0.00</temp>
<bpm>0</bpm>
<rpm>0.00</rpm>
</extensions>
</trkpt>
<trkpt lat="64.040855408" lon="-19.331211090">
<ele>588.125000</ele>
<time>2012-07-21T22:51:54Z</time>
<speed>0.630000</speed>
<extensions>
<speed>0.6</speed>
<temp>0.00</temp>
<bpm>0</bpm>
<rpm>0.00</rpm>
</extensions>
</trkpt>
<trkpt lat="64.040878296" lon="-19.331216812">
<ele>589.484375</ele>
<time>2012-07-21T22:51:59Z</time>
<speed>0.430000</speed>
<extensions>
<speed>0.4</speed>
<temp>0.00</temp>
<bpm>0</bpm>
<rpm>0.00</rpm>
</extensions>
</trkpt>
<trkpt lat="64.040870667" lon="-19.331241608">
<ele>590.281250</ele>
<time>2012-07-21T22:52:04Z</time>
<speed>0.010000</speed>
<extensions>
<speed>0.0</speed>
<temp>0.00</temp>
<bpm>0</bpm>
<rpm>0.00</rpm>
</extensions>
</trkpt>
<trkpt lat="64.040870667" lon="-19.331237793">
<ele>590.250000</ele>
<time>2012-07-21T22:52:09Z</time>
<speed>0.010000</speed>
<extensions>
<speed>0.0</speed>
<temp>0.00</temp>
<bpm>0</bpm>
<rpm>0.00</rpm>
</extensions>
</trkpt>
<trkpt lat="64.040870667" lon="-19.331237793">
<ele>590.234375</ele>
<time>2012-07-21T22:52:14Z</time>
<speed>0.010000</speed>
<extensions>
<speed>0.0</speed>
<temp>0.00</temp>
<bpm>0</bpm>
<rpm>0.00</rpm>
</extensions>
</trkpt>
<trkpt lat="64.040870667" lon="-19.331235886">
<ele>590.218750</ele>
<time>2012-07-21T22:52:19Z</time>
<speed>0.010000</speed>
<extensions>
<speed>0.0</speed>
<temp>0.00</temp>
<bpm>0</bpm>
<rpm>0.00</rpm>
</extensions>
</trkpt>
<trkpt lat="64.040870667" lon="-19.331235886">
<ele>590.218750</ele>
<time>2012-07-21T22:52:24Z</time>
<extensions>
<speed>0.0</speed>
<temp>0.00</temp>
<bpm>0</bpm>
<rpm>0.00</rpm>
</extensions>
</trkpt>
<trkpt lat="64.040870667" lon="-19.331235886">
<ele>590.218750</ele>
<time>2012-07-21T22:52:29Z</time>
<speed>0.010000</speed>
<extensions>
<speed>0.0</speed>
<temp>0.00</temp>
<bpm>0</bpm>
<rpm>0.00</rpm>
</extensions>
</trkpt>
<trkpt lat="64.040870667" lon="-19.331237793">
<ele>590.250000</ele>
<time>2012-07-21T22:52:34Z</time>
<speed>0.020000</speed>
<extensions>
<speed>0.0</speed>
<temp>0.00</temp>
<bpm>0</bpm>
<rpm>0.00</rpm>
</extensions>
</trkpt>
<trkpt lat="64.040870667" lon="-19.331235886">
<ele>590.234375</ele>
<time>2012-07-21T22:52:39Z</time>
<speed>0.010000</speed>
<extensions>
<speed>0.0</speed>
<temp>0.00</temp>
<bpm>0</bpm>
<rpm>0.00</rpm>
</extensions>
</trkpt>
<trkpt lat="64.040870667" lon="-19.331235886">
<ele>590.218750</ele>
<time>2012-07-21T22:52:44Z</time>
<extensions>
<speed>0.0</speed>
<temp>0.00</temp>
<bpm>0</bpm>
<rpm>0.00</rpm>
</extensions>
</trkpt>
<trkpt lat="64.040870667" lon="-19.331235886">
<ele>590.203125</ele>
<time>2012-07-21T22:52:49Z</time>
<speed>0.020000</speed>
<extensions>
<speed>0.0</speed>
<temp>0.00</temp>
<bpm>0</bpm>
<rpm>0.00</rpm>
</extensions>
</trkpt>
<trkpt lat="64.040870667" lon="-19.331235886">
<ele>590.187500</ele>
<time>2012-07-21T22:52:54Z</time>
<speed>0.010000</speed>
<extensions>
<speed>0.0</speed>
<temp>0.00</temp>
<bpm>0</bpm>
<rpm>0.00</rpm>
</extensions>
</trkpt>
<trkpt lat="64.040870667" lon="-19.331235886">
<ele>590.187500</ele>
<time>2012-07-21T22:52:59Z</time>
<speed>0.030000</speed>
<extensions>
<speed>0.0</speed>
<temp>0.00</temp>
<bpm>0</bpm>
<rpm>0.00</rpm>
</extensions>
</trkpt>
<trkpt lat="64.040870667" lon="-19.331235886">
<ele>590.171875</ele>
<time>2012-07-21T22:53:04Z</time>
<speed>0.030000</speed>
<extensions>
<speed>0.0</speed>
<temp>0.00</temp>
<bpm>0</bpm>
<rpm>0.00</rpm>
</extensions>
</trkpt>
<trkpt lat="64.040870667" lon="-19.331235886">
<ele>590.156250</ele>
<time>2012-07-21T22:53:09Z</time>
<speed>0.010000</speed>
<extensions>
<speed>0.0</speed>
<temp>0.00</temp>
<bpm>0</bpm>
<rpm>0.00</rpm>
</extensions>
</trkpt>
<trkpt lat="64.040870667" lon="-19.331233978">
<ele>590.156250</ele>
<time>2012-07-21T22:53:14Z</time>
<speed>0.010000</speed>
<extensions>
<speed>0.0</speed>
<temp>0.00</temp>
<bpm>0</bpm>
<rpm>0.00</rpm>
</extensions>
</trkpt>
<trkpt lat="64.040870667" lon="-19.331233978">
<ele>590.140625</ele>
<time>2012-07-21T22:53:19Z</time>
<speed>0.030000</speed>
<extensions>
<speed>0.0</speed>
<temp>0.00</temp>
<bpm>0</bpm>
<rpm>0.00</rpm>
</extensions>
</trkpt>
<trkpt lat="64.040870667" lon="-19.331233978">
<ele>590.140625</ele>
<time>2012-07-21T22:53:24Z</time>
<speed>0.010000</speed>
<extensions>
<speed>0.0</speed>
<temp>0.00</temp>
<bpm>0</bpm>
<rpm>0.00</rpm>
</extensions>
</trkpt>
<trkpt lat="64.040870667" lon="-19.331233978">
<ele>590.140625</ele>
<time>2012-07-21T22:53:29Z</time>
<speed>0.020000</speed>
<extensions>
<speed>0.0</speed>
<temp>0.00</temp>
<bpm>0</bpm>
<rpm>0.00</rpm>
</extensions>
</trkpt>
<trkpt lat="64.040870667" lon="-19.331233978">
<ele>590.125000</ele>
<time>2012-07-21T22:53:34Z</time>
<speed>0.010000</speed>
<extensions>
<speed>0.0</speed>
<temp>0.00</temp>
<bpm>0</bpm>
<rpm>0.00</rpm>
</extensions>
</trkpt>
<trkpt lat="64.040870667" lon="-19.331233978">
<ele>590.109375</ele>
<time>2012-07-21T22:53:39Z</time>
<speed>0.030000</speed>
<extensions>
<speed>0.0</speed>
<temp>0.00</temp>
<bpm>0</bpm>
<rpm>0.00</rpm>
</extensions>
</trkpt>
<trkpt lat="64.040870667" lon="-19.331233978">
<ele>590.109375</ele>
<time>2012-07-21T22:53:44Z</time>
<speed>0.020000</speed>
<extensions>
<speed>0.0</speed>
<temp>0.00</temp>
<bpm>0</bpm>
<rpm>0.00</rpm>
</extensions>
</trkpt>
<trkpt lat="64.040870667" lon="-19.331233978">
<ele>590.093750</ele>
<time>2012-07-21T22:53:49Z</time>
<extensions>
<speed>0.0</speed>
<temp>0.00</temp>
<bpm>0</bpm>
<rpm>0.00</rpm>
</extensions>
</trkpt>
<trkpt lat="64.040870667" lon="-19.331233978">
<ele>590.093750</ele>
<time>2012-07-21T22:53:54Z</time>
<speed>0.020000</speed>
<extensions>
<speed>0.0</speed>
<temp>0.00</temp>
<bpm>0</bpm>
<rpm>0.00</rpm>
</extensions>
</trkpt>
<trkpt lat="64.040870667" lon="-19.331233978">
<ele>590.078125</ele>
<time>2012-07-21T22:53:59Z</time>
<speed>0.020000</speed>
<extensions>
<speed>0.0</speed>
<temp>0.00</temp>
<bpm>0</bpm>
<rpm>0.00</rpm>
</extensions>
</trkpt>
<trkpt lat="64.040870667" lon="-19.331235886">
<ele>589.734375</ele>
<time>2012-07-21T22:54:04Z</time>
<extensions>
<speed>0.0</speed>
<temp>0.00</temp>
<bpm>0</bpm>
<rpm>0.00</rpm>
</extensions>
</trkpt>
<trkpt lat="64.040870667" lon="-19.331235886">
<ele>588.921875</ele>
<time>2012-07-21T22:54:09Z</time>
<speed>0.010000</speed>
<extensions>
<speed>0.0</speed>
<temp>0.00</temp>
<bpm>0</bpm>
<rpm>0.00</rpm>
</extensions>
</trkpt>
<trkpt lat="64.040870667" lon="-19.331239700">
<ele>588.140625</ele>
<time>2012-07-21T22:54:14Z</time>
<extensions>
<speed>0.0</speed>
<temp>0.00</temp>
<bpm>0</bpm>
<rpm>0.00</rpm>
</extensions>
</trkpt>
<trkpt lat="64.040863037" lon="-19.331249237">
<ele>587.578125</ele>
<time>2012-07-21T22:54:19Z</time>
<extensions>
<speed>0.0</speed>
<temp>0.00</temp>
<bpm>0</bpm>
<rpm>0.00</rpm>
</extensions>
</trkpt>
<trkpt lat="64.040855408" lon="-19.331256866">
<ele>587.203125</ele>
<time>2012-07-21T22:54:24Z</time>
<speed>0.020000</speed>
<extensions>
<speed>0.0</speed>
<temp>0.00</temp>
<bpm>0</bpm>
<rpm>0.00</rpm>
</extensions>
</trkpt>
<trkpt lat="64.040863037" lon="-19.331241608">
<ele>586.875000</ele>
<time>2012-07-21T22:54:29Z</time>
<speed>0.030000</speed>
<extensions>
<speed>0.0</speed>
<temp>0.00</temp>
<bpm>0</bpm>
<rpm>0.00</rpm>
</extensions>
</trkpt>
<trkpt lat="64.040863037" lon="-19.331220627">
<ele>587.281250</ele>
<time>2012-07-21T22:54:34Z</time>
<extensions>
<speed>0.0</speed>
<temp>0.00</temp>
<bpm>0</bpm>
<rpm>0.00</rpm>
</extensions>
</trkpt>
<trkpt lat="64.040863037" lon="-19.331212997">
<ele>587.468750</ele>
<time>2012-07-21T22:54:39Z</time>
<speed>0.010000</speed>
<extensions>
<speed>0.0</speed>
<temp>0.00</temp>
<bpm>0</bpm>
<rpm>0.00</rpm>
</extensions>
</trkpt>
<trkpt lat="64.040863037" lon="-19.331207275">
<ele>587.343750</ele>
<time>2012-07-21T22:54:44Z</time>
<speed>0.020000</speed>
<extensions>
<speed>0.0</speed>
<temp>0.00</temp>
<bpm>0</bpm>
<rpm>0.00</rpm>
</extensions>
</trkpt>
<trkpt lat="64.040863037" lon="-19.331209183">
<ele>587.265625</ele>
<time>2012-07-21T22:54:49Z</time>
<speed>0.010000</speed>
<extensions>
<speed>0.0</speed>
<temp>0.00</temp>
<bpm>0</bpm>
<rpm>0.00</rpm>
</extensions>
</trkpt>
<trkpt lat="64.040863037" lon="-19.331207275">
<ele>587.265625</ele>
<time>2012-07-21T22:54:54Z</time>
<speed>0.010000</speed>
<extensions>
<speed>0.0</speed>
<temp>0.00</temp>
<bpm>0</bpm>
<rpm>0.00</rpm>
</extensions>
</trkpt>
<trkpt lat="64.040863037" lon="-19.331207275">
<ele>587.265625</ele>
<time>2012-07-21T22:54:59Z</time>
<extensions>
<speed>0.0</speed>
<temp>0.00</temp>
<bpm>0</bpm>
<rpm>0.00</rpm>
</extensions>
</trkpt>
<trkpt lat="64.040863037" lon="-19.331207275">
<ele>587.265625</ele>
<time>2012-07-21T22:55:04Z</time>
<speed>0.010000</speed>
<extensions>
<speed>0.0</speed>
<temp>0.00</temp>
<bpm>0</bpm>
<rpm>0.00</rpm>
</extensions>
</trkpt>
<trkpt lat="64.040863037" lon="-19.331207275">
<ele>587.281250</ele>
<time>2012-07-21T22:55:09Z</time>
<speed>0.010000</speed>
<extensions>
<speed>0.0</speed>
<temp>0.00</temp>
<bpm>0</bpm>
<rpm>0.00</rpm>
</extensions>
</trkpt>
<trkpt lat="64.040863037" lon="-19.331207275">
<ele>587.281250</ele>
<time>2012-07-21T22:55:14Z</time>
<speed>0.010000</speed>
<extensions>
<speed>0.0</speed>
<temp>0.00</temp>
<bpm>0</bpm>
<rpm>0.00</rpm>
</extensions>
</trkpt>
<trkpt lat="64.040863037" lon="-19.331207275">
<ele>587.296875</ele>
<time>2012-07-21T22:55:19Z</time>
<speed>0.020000</speed>
<extensions>
<speed>0.0</speed>
<temp>0.00</temp>
<bpm>0</bpm>
<rpm>0.00</rpm>
</extensions>
</trkpt>
<trkpt lat="64.040863037" lon="-19.331207275">
<ele>587.296875</ele>
<time>2012-07-21T22:55:24Z</time>
<speed>0.030000</speed>
<extensions>
<speed>0.0</speed>
<temp>0.00</temp>
<bpm>0</bpm>
<rpm>0.00</rpm>
</extensions>
</trkpt>
<trkpt lat="64.040855408" lon="-19.331205368">
<ele>587.281250</ele>
<time>2012-07-21T22:55:29Z</time>
<speed>0.050000</speed>
<extensions>
<speed>0.1</speed>
<temp>0.00</temp>
<bpm>0</bpm>
<rpm>0.00</rpm>
</extensions>
</trkpt>
<trkpt lat="64.040870667" lon="-19.331235886">
<ele>587.109375</ele>
<time>2012-07-21T22:55:34Z</time>
<speed>1.380000</speed>
<extensions>
<speed>1.4</speed>
<temp>0.00</temp>
<bpm>0</bpm>
<rpm>0.00</rpm>
</extensions>
</trkpt>
<trkpt lat="64.040901184" lon="-19.331306458">
<ele>587.203125</ele>
<time>2012-07-21T22:55:39Z</time>
<speed>0.110000</speed>
<extensions>
<speed>0.1</speed>
<temp>0.00</temp>
<bpm>0</bpm>
<rpm>0.00</rpm>
</extensions>
</trkpt>
<trkpt lat="64.040901184" lon="-19.331321716">
<ele>587.234375</ele>
<time>2012-07-21T22:55:44Z</time>
<extensions>
<speed>0.0</speed>
<temp>0.00</temp>
<bpm>0</bpm>
<rpm>0.00</rpm>
</extensions>
</trkpt>
<trkpt lat="64.040901184" lon="-19.331321716">
<ele>587.250000</ele>
<time>2012-07-21T22:55:49Z</time>
<extensions>
<speed>0.0</speed>
<temp>0.00</temp>
<bpm>0</bpm>
<rpm>0.00</rpm>
</extensions>
</trkpt>
<trkpt lat="64.040901184" lon="-19.331321716">
<ele>587.265625</ele>
<time>2012-07-21T22:55:54Z</time>
<speed>0.250000</speed>
<extensions>
<speed>0.2</speed>
<temp>0.00</temp>
<bpm>0</bpm>
<rpm>0.00</rpm>
</extensions>
</trkpt>
<trkpt lat="64.040939331" lon="-19.331390381">
<ele>587.046875</ele>
<time>2012-07-21T22:55:59Z</time>
<speed>1.200000</speed>
<extensions>
<speed>1.2</speed>
<temp>0.00</temp>
<bpm>0</bpm>
<rpm>0.00</rpm>
</extensions>
</trkpt>
<trkpt lat="64.040962219" lon="-19.331388474">
<ele>587.218750</ele>
<time>2012-07-21T22:56:04Z</time>
<speed>0.820000</speed>
<extensions>
<speed>0.8</speed>
<temp>0.00</temp>
<bpm>0</bpm>
<rpm>0.00</rpm>
</extensions>
</trkpt>
<trkpt lat="64.040969849" lon="-19.331380844">
<ele>587.750000</ele>
<time>2012-07-21T22:56:09Z</time>
<speed>0.370000</speed>
<extensions>
<speed>0.4</speed>
<temp>0.00</temp>
<bpm>0</bpm>
<rpm>0.00</rpm>
</extensions>
</trkpt>
<trkpt lat="64.040985107" lon="-19.331352234">
<ele>588.812500</ele>
<time>2012-07-21T22:56:14Z</time>
<speed>0.630000</speed>
<extensions>
<speed>0.6</speed>
<temp>0.00</temp>
<bpm>0</bpm>
<rpm>0.00</rpm>
</extensions>
</trkpt>
<trkpt lat="64.040992737" lon="-19.331283569">
<ele>588.593750</ele>
<time>2012-07-21T22:56:19Z</time>
<speed>0.760000</speed>
<extensions>
<speed>0.8</speed>
<temp>0.00</temp>
<bpm>0</bpm>
<rpm>0.00</rpm>
</extensions>
</trkpt>
<trkpt lat="64.041000366" lon="-19.331188202">
<ele>588.859375</ele>
<time>2012-07-21T22:56:24Z</time>
<speed>0.720000</speed>
<extensions>
<speed>0.7</speed>
<temp>0.00</temp>
<bpm>0</bpm>
<rpm>0.00</rpm>
</extensions>
</trkpt>
<trkpt lat="64.040992737" lon="-19.331085205">
<ele>588.437500</ele>
<time>2012-07-21T22:56:29Z</time>
<speed>0.110000</speed>
<extensions>
<speed>0.1</speed>
<temp>0.00</temp>
<bpm>0</bpm>
<rpm>0.00</rpm>
</extensions>
</trkpt>
<trkpt lat="64.040992737" lon="-19.331092834">
<ele>588.500000</ele>
<time>2012-07-21T22:56:34Z</time>
<speed>0.360000</speed>
<extensions>
<speed>0.4</speed>
<temp>0.00</temp>
<bpm>0</bpm>
<rpm>0.00</rpm>
</extensions>
</trkpt>
<trkpt lat="64.040992737" lon="-19.331024170">
<ele>588.468750</ele>
<time>2012-07-21T22:56:39Z</time>
<speed>0.920000</speed>
<extensions>
<speed>0.9</speed>
<temp>0.00</temp>
<bpm>0</bpm>
<rpm>0.00</rpm>
</extensions>
</trkpt>
<trkpt lat="64.040985107" lon="-19.330944061">
<ele>588.046875</ele>
<time>2012-07-21T22:56:44Z</time>
<speed>0.320000</speed>
<extensions>
<speed>0.3</speed>
<temp>0.00</temp>
<bpm>0</bpm>
<rpm>0.00</rpm>
</extensions>
</trkpt>
<trkpt lat="64.041007996" lon="-19.330831528">
<ele>587.625000</ele>
<time>2012-07-21T22:56:49Z</time>
<speed>0.940000</speed>
<extensions>
<speed>0.9</speed>
<temp>0.00</temp>
<bpm>0</bpm>
<rpm>0.00</rpm>
</extensions>
</trkpt>
<trkpt lat="64.041023254" lon="-19.330778122">
<ele>587.171875</ele>
<time>2012-07-21T22:56:54Z</time>
<speed>0.190000</speed>
<extensions>
<speed>0.2</speed>
<temp>0.00</temp>
<bpm>0</bpm>
<rpm>0.00</rpm>
</extensions>
</trkpt>
<trkpt lat="64.041007996" lon="-19.330743790">
<ele>587.109375</ele>
<time>2012-07-21T22:56:59Z</time>
<speed>0.500000</speed>
<extensions>
<speed>0.5</speed>
<temp>0.00</temp>
<bpm>0</bpm>
<rpm>0.00</rpm>
</extensions>
</trkpt>
<trkpt lat="64.041000366" lon="-19.330673218">
<ele>587.015625</ele>
<time>2012-07-21T22:57:04Z</time>
<speed>0.600000</speed>
<extensions>
<speed>0.6</speed>
<temp>0.00</temp>
<bpm>0</bpm>
<rpm>0.00</rpm>
</extensions>
</trkpt>
<trkpt lat="64.040954590" lon="-19.330623627">
<ele>586.953125</ele>
<time>2012-07-21T22:57:09Z</time>
<speed>1.260000</speed>
<extensions>
<speed>1.3</speed>
<temp>0.00</temp>
<bpm>0</bpm>
<rpm>0.00</rpm>
</extensions>
</trkpt>
<trkpt lat="64.040908813" lon="-19.330581665">
<ele>586.593750</ele>
<time>2012-07-21T22:57:14Z</time>
<speed>1.020000</speed>
<extensions>
<speed>1.0</speed>
<temp>0.00</temp>
<bpm>0</bpm>
<rpm>0.00</rpm>
</extensions>
</trkpt>
<trkpt lat="64.040893555" lon="-19.330514908">
<ele>585.968750</ele>
<time>2012-07-21T22:57:19Z</time>
<speed>0.590000</speed>
<extensions>
<speed>0.6</speed>
<temp>0.00</temp>
<bpm>0</bpm>
<rpm>0.00</rpm>
</extensions>
</trkpt>
<trkpt lat="64.040870667" lon="-19.330507278">
<ele>585.656250</ele>
<time>2012-07-21T22:57:24Z</time>
<speed>0.240000</speed>
<extensions>
<speed>0.2</speed>
<temp>0.00</temp>
<bpm>0</bpm>
<rpm>0.00</rpm>
</extensions>
</trkpt>
<trkpt lat="64.040870667" lon="-19.330472946">
<ele>585.312500</ele>
<time>2012-07-21T22:57:29Z</time>
<speed>0.430000</speed>
<extensions>
<speed>0.4</speed>
<temp>0.00</temp>
<bpm>0</bpm>
<rpm>0.00</rpm>
</extensions>
</trkpt>
<trkpt lat="64.040878296" lon="-19.330455780">
<ele>584.906250</ele>
<time>2012-07-21T22:57:34Z</time>
<speed>0.140000</speed>
<extensions>
<speed>0.1</speed>
<temp>0.00</temp>
<bpm>0</bpm>
<rpm>0.00</rpm>
</extensions>
</trkpt>
<trkpt lat="64.040878296" lon="-19.330442429">
<ele>584.593750</ele>
<time>2012-07-21T22:57:39Z</time>
<speed>0.160000</speed>
<extensions>
<speed>0.2</speed>
<temp>0.00</temp>
<bpm>0</bpm>
<rpm>0.00</rpm>
</extensions>
</trkpt>
<trkpt lat="64.040885925" lon="-19.330408096">
<ele>584.328125</ele>
<time>2012-07-21T22:57:44Z</time>
<speed>0.220000</speed>
<extensions>
<speed>0.2</speed>
<temp>0.00</temp>
<bpm>0</bpm>
<rpm>0.00</rpm>
</extensions>
</trkpt>
<trkpt lat="64.040885925" lon="-19.330316544">
<ele>584.406250</ele>
<time>2012-07-21T22:57:49Z</time>
<speed>1.080000</speed>
<extensions>
<speed>1.1</speed>
<temp>0.00</temp>
<bpm>0</bpm>
<rpm>0.00</rpm>
</extensions>
</trkpt>
<trkpt lat="64.040901184" lon="-19.330240250">
<ele>584.406250</ele>
<time>2012-07-21T22:57:54Z</time>
<speed>0.610000</speed>
<extensions>
<speed>0.6</speed>
<temp>0.00</temp>
<bpm>0</bpm>
<rpm>0.00</rpm>
</extensions>
</trkpt>
<trkpt lat="64.040901184" lon="-19.330200195">
<ele>584.281250</ele>
<time>2012-07-21T22:57:59Z</time>
<speed>0.220000</speed>
<extensions>
<speed>0.2</speed>
<temp>0.00</temp>
<bpm>0</bpm>
<rpm>0.00</rpm>
</extensions>
</trkpt>
<trkpt lat="64.040939331" lon="-19.330202103">
<ele>583.968750</ele>
<time>2012-07-21T22:58:04Z</time>
<speed>0.970000</speed>
<extensions>
<speed>1.0</speed>
<temp>0.00</temp>
<bpm>0</bpm>
<rpm>0.00</rpm>
</extensions>
</trkpt>
<trkpt lat="64.041000366" lon="-19.330268860">
<ele>583.984375</ele>
<time>2012-07-21T22:58:09Z</time>
<speed>1.330000</speed>
<extensions>
<speed>1.3</speed>
<temp>0.00</temp>
<bpm>0</bpm>
<rpm>0.00</rpm>
</extensions>
</trkpt>
<trkpt lat="64.041023254" lon="-19.330154419">
<ele>585.109375</ele>
<time>2012-07-21T22:58:14Z</time>
<speed>0.950000</speed>
<extensions>
<speed>1.0</speed>
<temp>0.00</temp>
<bpm>0</bpm>
<rpm>0.00</rpm>
</extensions>
</trkpt>
<trkpt lat="64.041007996" lon="-19.330070496">
<ele>584.953125</ele>
<time>2012-07-21T22:58:19Z</time>
<speed>0.740000</speed>
<extensions>
<speed>0.7</speed>
<temp>0.00</temp>
<bpm>0</bpm>
<rpm>0.00</rpm>
</extensions>
</trkpt>
<trkpt lat="64.041000366" lon="-19.329969406">
<ele>583.578125</ele>
<time>2012-07-21T22:58:24Z</time>
<speed>0.770000</speed>
<extensions>
<speed>0.8</speed>
<temp>0.00</temp>
<bpm>0</bpm>
<rpm>0.00</rpm>
</extensions>
</trkpt>
<trkpt lat="64.040985107" lon="-19.329875946">
<ele>582.218750</ele>
<time>2012-07-21T22:58:29Z</time>
<speed>0.580000</speed>
<extensions>
<speed>0.6</speed>
<temp>0.00</temp>
<bpm>0</bpm>
<rpm>0.00</rpm>
</extensions>
</trkpt>
<trkpt lat="64.040977478" lon="-19.329772949">
<ele>582.078125</ele>
<time>2012-07-21T22:58:34Z</time>
<speed>0.780000</speed>
<extensions>
<speed>0.8</speed>
<temp>0.00</temp>
<bpm>0</bpm>
<rpm>0.00</rpm>
</extensions>
</trkpt>
<trkpt lat="64.040954590" lon="-19.329730988">
<ele>583.234375</ele>
<time>2012-07-21T22:58:39Z</time>
<speed>0.690000</speed>
<extensions>
<speed>0.7</speed>
<temp>0.00</temp>
<bpm>0</bpm>
<rpm>0.00</rpm>
</extensions>
</trkpt>
<trkpt lat="64.040939331" lon="-19.329664230">
<ele>583.031250</ele>
<time>2012-07-21T22:58:44Z</time>
<speed>0.860000</speed>
<extensions>
<speed>0.9</speed>
<temp>0.00</temp>
<bpm>0</bpm>
<rpm>0.00</rpm>
</extensions>
</trkpt>
<trkpt lat="64.040901184" lon="-19.329584122">
<ele>583.375000</ele>
<time>2012-07-21T22:58:49Z</time>
<speed>1.090000</speed>
<extensions>
<speed>1.1</speed>
<temp>0.00</temp>
<bpm>0</bpm>
<rpm>0.00</rpm>
</extensions>
</trkpt>
<trkpt lat="64.040885925" lon="-19.329492569">
<ele>583.234375</ele>
<time>2012-07-21T22:58:54Z</time>
<speed>0.830000</speed>
<extensions>
<speed>0.8</speed>
<temp>0.00</temp>
<bpm>0</bpm>
<rpm>0.00</rpm>
</extensions>
</trkpt>
<trkpt lat="64.040855408" lon="-19.329423904">
<ele>583.875000</ele>
<time>2012-07-21T22:58:59Z</time>
<speed>1.180000</speed>
<extensions>
<speed>1.2</speed>
<temp>0.00</temp>
<bpm>0</bpm>
<rpm>0.00</rpm>
</extensions>
</trkpt>
<trkpt lat="64.040855408" lon="-19.329320908">
<ele>583.234375</ele>
<time>2012-07-21T22:59:04Z</time>
<speed>0.910000</speed>
<extensions>
<speed>0.9</speed>
<temp>0.00</temp>
<bpm>0</bpm>
<rpm>0.00</rpm>
</extensions>
</trkpt>
<trkpt lat="64.040840149" lon="-19.329244614">
<ele>582.453125</ele>
<time>2012-07-21T22:59:09Z</time>
<speed>0.380000</speed>
<extensions>
<speed>0.4</speed>
<temp>0.00</temp>
<bpm>0</bpm>
<rpm>0.00</rpm>
</extensions>
</trkpt>
<trkpt lat="64.040855408" lon="-19.329160690">
<ele>581.890625</ele>
<time>2012-07-21T22:59:14Z</time>
<speed>1.330000</speed>
<extensions>
<speed>1.3</speed>
<temp>0.00</temp>
<bpm>0</bpm>
<rpm>0.00</rpm>
</extensions>
</trkpt>
<trkpt lat="64.040870667" lon="-19.329078674">
<ele>580.703125</ele>
<time>2012-07-21T22:59:19Z</time>
<speed>0.620000</speed>
<extensions>
<speed>0.6</speed>
<temp>0.00</temp>
<bpm>0</bpm>
<rpm>0.00</rpm>
</extensions>
</trkpt>
<trkpt lat="64.040885925" lon="-19.329042435">
<ele>581.546875</ele>
<time>2012-07-21T22:59:24Z</time>
<speed>0.750000</speed>
<extensions>
<speed>0.8</speed>
<temp>0.00</temp>
<bpm>0</bpm>
<rpm>0.00</rpm>
</extensions>
</trkpt>
<trkpt lat="64.040885925" lon="-19.328977585">
<ele>582.265625</ele>
<time>2012-07-21T22:59:29Z</time>
<speed>0.460000</speed>
<extensions>
<speed>0.5</speed>
<temp>0.00</temp>
<bpm>0</bpm>
<rpm>0.00</rpm>
</extensions>
</trkpt>
<trkpt lat="64.040908813" lon="-19.328945160">
<ele>582.500000</ele>
<time>2012-07-21T22:59:34Z</time>
<speed>0.280000</speed>
<extensions>
<speed>0.3</speed>
<temp>0.00</temp>
<bpm>0</bpm>
<rpm>0.00</rpm>
</extensions>
</trkpt>
<trkpt lat="64.040908813" lon="-19.328948975">
<ele>582.437500</ele>
<time>2012-07-21T22:59:39Z</time>
<speed>0.010000</speed>
<extensions>
<speed>0.0</speed>
<temp>0.00</temp>
<bpm>0</bpm>
<rpm>0.00</rpm>
</extensions>
</trkpt>
<trkpt lat="64.040908813" lon="-19.328956604">
<ele>582.453125</ele>
<time>2012-07-21T22:59:44Z</time>
<speed>0.140000</speed>
<extensions>
<speed>0.1</speed>
<temp>0.00</temp>
<bpm>0</bpm>
<rpm>0.00</rpm>
</extensions>
</trkpt>
<trkpt lat="64.040916443" lon="-19.328964233">
<ele>582.453125</ele>
<time>2012-07-21T22:59:49Z</time>
<speed>0.170000</speed>
<extensions>
<speed>0.2</speed>
<temp>0.00</temp>
<bpm>0</bpm>
<rpm>0.00</rpm>
</extensions>
</trkpt>
<trkpt lat="64.040885925" lon="-19.328905106">
<ele>582.437500</ele>
<time>2012-07-21T22:59:54Z</time>
<speed>1.230000</speed>
<extensions>
<speed>1.2</speed>
<temp>0.00</temp>
<bpm>0</bpm>
<rpm>0.00</rpm>
</extensions>
</trkpt>
<trkpt lat="64.040885925" lon="-19.328792572">
<ele>582.906250</ele>
<time>2012-07-21T22:59:59Z</time>
<speed>1.280000</speed>
<extensions>
<speed>1.3</speed>
<temp>0.00</temp>
<bpm>0</bpm>
<rpm>0.00</rpm>
</extensions>
</trkpt>
<trkpt lat="64.040878296" lon="-19.328653336">
<ele>582.984375</ele>
<time>2012-07-21T23:00:04Z</time>
<speed>0.930000</speed>
<extensions>
<speed>0.9</speed>
<temp>0.00</temp>
<bpm>0</bpm>
<rpm>0.00</rpm>
</extensions>
</trkpt>
<trkpt lat="64.040878296" lon="-19.328546524">
<ele>582.859375</ele>
<time>2012-07-21T23:00:09Z</time>
<speed>0.730000</speed>
<extensions>
<speed>0.7</speed>
<temp>0.00</temp>
<bpm>0</bpm>
<rpm>0.00</rpm>
</extensions>
</trkpt>
<trkpt lat="64.040863037" lon="-19.328523636">
<ele>582.531250</ele>
<time>2012-07-21T23:00:14Z</time>
<speed>0.010000</speed>
<extensions>
<speed>0.0</speed>
<temp>0.00</temp>
<bpm>0</bpm>
<rpm>0.00</rpm>
</extensions>
</trkpt>
<trkpt lat="64.040863037" lon="-19.328525543">
<ele>582.265625</ele>
<time>2012-07-21T23:00:19Z</time>
<speed>0.030000</speed>
<extensions>
<speed>0.0</speed>
<temp>0.00</temp>
<bpm>0</bpm>
<rpm>0.00</rpm>
</extensions>
</trkpt>
<trkpt lat="64.040863037" lon="-19.328521729">
<ele>582.031250</ele>
<time>2012-07-21T23:00:24Z</time>
<speed>0.340000</speed>
<extensions>
<speed>0.3</speed>
<temp>0.00</temp>
<bpm>0</bpm>
<rpm>0.00</rpm>
</extensions>
</trkpt>
<trkpt lat="64.040863037" lon="-19.328483582">
<ele>581.515625</ele>
<time>2012-07-21T23:00:29Z</time>
<speed>0.140000</speed>
<extensions>
<speed>0.1</speed>
<temp>0.00</temp>
<bpm>0</bpm>
<rpm>0.00</rpm>
</extensions>
</trkpt>
<trkpt lat="64.040870667" lon="-19.328456879">
<ele>581.750000</ele>
<time>2012-07-21T23:00:34Z</time>
<speed>0.070000</speed>
<extensions>
<speed>0.1</speed>
<temp>0.00</temp>
<bpm>0</bpm>
<rpm>0.00</rpm>
</extensions>
</trkpt>
<trkpt lat="64.040870667" lon="-19.328441620">
<ele>581.484375</ele>
<time>2012-07-21T23:00:39Z</time>
<speed>0.040000</speed>
<extensions>
<speed>0.0</speed>
<temp>0.00</temp>
<bpm>0</bpm>
<rpm>0.00</rpm>
</extensions>
</trkpt>
<trkpt lat="64.040878296" lon="-19.328437805">
<ele>581.140625</ele>
<time>2012-07-21T23:00:44Z</time>
<speed>0.370000</speed>
<extensions>
<speed>0.4</speed>
<temp>0.00</temp>
<bpm>0</bpm>
<rpm>0.00</rpm>
</extensions>
</trkpt>
<trkpt lat="64.040893555" lon="-19.328413010">
<ele>580.109375</ele>
<time>2012-07-21T23:00:49Z</time>
<speed>0.530000</speed>
<extensions>
<speed>0.5</speed>
<temp>0.00</temp>
<bpm>0</bpm>
<rpm>0.00</rpm>
</extensions>
</trkpt>
<trkpt lat="64.040901184" lon="-19.328390121">
<ele>579.421875</ele>
<time>2012-07-21T23:00:54Z</time>
<speed>0.080000</speed>
<extensions>
<speed>0.1</speed>
<temp>0.00</temp>
<bpm>0</bpm>
<rpm>0.00</rpm>
</extensions>
</trkpt>
<trkpt lat="64.040893555" lon="-19.328393936">
<ele>579.140625</ele>
<time>2012-07-21T23:00:59Z</time>
<speed>0.040000</speed>
<extensions>
<speed>0.0</speed>
<temp>0.00</temp>
<bpm>0</bpm>
<rpm>0.00</rpm>
</extensions>
</trkpt>
<trkpt lat="64.040885925" lon="-19.328371048">
<ele>579.140625</ele>
<time>2012-07-21T23:01:04Z</time>
<speed>0.450000</speed>
<extensions>
<speed>0.5</speed>
<temp>0.00</temp>
<bpm>0</bpm>
<rpm>0.00</rpm>
</extensions>
</trkpt>
<trkpt lat="64.040870667" lon="-19.328311920">
<ele>579.015625</ele>
<time>2012-07-21T23:01:09Z</time>
<speed>0.220000</speed>
<extensions>
<speed>0.2</speed>
<temp>0.00</temp>
<bpm>0</bpm>
<rpm>0.00</rpm>
</extensions>
</trkpt>
<trkpt lat="64.040870667" lon="-19.328277588">
<ele>579.390625</ele>
<time>2012-07-21T23:01:14Z</time>
<speed>0.770000</speed>
<extensions>
<speed>0.8</speed>
<temp>0.00</temp>
<bpm>0</bpm>
<rpm>0.00</rpm>
</extensions>
</trkpt>
<trkpt lat="64.040863037" lon="-19.328260422">
<ele>579.437500</ele>
<time>2012-07-21T23:01:19Z</time>
<speed>0.300000</speed>
<extensions>
<speed>0.3</speed>
<temp>0.00</temp>
<bpm>0</bpm>
<rpm>0.00</rpm>
</extensions>
</trkpt>
<trkpt lat="64.040863037" lon="-19.328256607">
<ele>579.671875</ele>
<time>2012-07-21T23:01:24Z</time>
<speed>0.180000</speed>
<extensions>
<speed>0.2</speed>
<temp>0.00</temp>
<bpm>0</bpm>
<rpm>0.00</rpm>
</extensions>
</trkpt>
<trkpt lat="64.040863037" lon="-19.328250885">
<ele>579.625000</ele>
<time>2012-07-21T23:01:29Z</time>
<speed>0.040000</speed>
<extensions>
<speed>0.0</speed>
<temp>0.00</temp>
<bpm>0</bpm>
<rpm>0.00</rpm>
</extensions>
</trkpt>
<trkpt lat="64.040863037" lon="-19.328250885">
<ele>579.562500</ele>
<time>2012-07-21T23:01:34Z</time>
<speed>0.020000</speed>
<extensions>
<speed>0.0</speed>
<temp>0.00</temp>
<bpm>0</bpm>
<rpm>0.00</rpm>
</extensions>
</trkpt>
<trkpt lat="64.040863037" lon="-19.328250885">
<ele>579.562500</ele>
<time>2012-07-21T23:01:39Z</time>
<speed>0.100000</speed>
<extensions>
<speed>0.1</speed>
<temp>0.00</temp>
<bpm>0</bpm>
<rpm>0.00</rpm>
</extensions>
</trkpt>
<trkpt lat="64.040863037" lon="-19.328247070">
<ele>579.578125</ele>
<time>2012-07-21T23:01:44Z</time>
<speed>0.220000</speed>
<extensions>
<speed>0.2</speed>
<temp>0.00</temp>
<bpm>0</bpm>
<rpm>0.00</rpm>
</extensions>
</trkpt>
<trkpt lat="64.040863037" lon="-19.328193665">
<ele>579.796875</ele>
<time>2012-07-21T23:01:49Z</time>
<speed>0.660000</speed>
<extensions>
<speed>0.7</speed>
<temp>0.00</temp>
<bpm>0</bpm>
<rpm>0.00</rpm>
</extensions>
</trkpt>
<trkpt lat="64.040855408" lon="-19.328121185">
<ele>580.828125</ele>
<time>2012-07-21T23:01:54Z</time>
<speed>0.840000</speed>
<extensions>
<speed>0.8</speed>
<temp>0.00</temp>
<bpm>0</bpm>
<rpm>0.00</rpm>
</extensions>
</trkpt>
<trkpt lat="64.040870667" lon="-19.328058243">
<ele>581.078125</ele>
<time>2012-07-21T23:01:59Z</time>
<speed>0.830000</speed>
<extensions>
<speed>0.8</speed>
<temp>0.00</temp>
<bpm>0</bpm>
<rpm>0.00</rpm>
</extensions>
</trkpt>
<trkpt lat="64.040931702" lon="-19.328006744">
<ele>581.171875</ele>
<time>2012-07-21T23:02:04Z</time>
<speed>1.310000</speed>
<extensions>
<speed>1.3</speed>
<temp>0.00</temp>
<bpm>0</bpm>
<rpm>0.00</rpm>
</extensions>
</trkpt>
<trkpt lat="64.041000366" lon="-19.328022003">
<ele>581.343750</ele>
<time>2012-07-21T23:02:09Z</time>
<speed>0.410000</speed>
<extensions>
<speed>0.4</speed>
<temp>0.00</temp>
<bpm>0</bpm>
<rpm>0.00</rpm>
</extensions>
</trkpt>
<trkpt lat="64.040992737" lon="-19.328035355">
<ele>581.234375</ele>
<time>2012-07-21T23:02:14Z</time>
<speed>0.230000</speed>
<extensions>
<speed>0.2</speed>
<temp>0.00</temp>
<bpm>0</bpm>
<rpm>0.00</rpm>
</extensions>
</trkpt>
<trkpt lat="64.041000366" lon="-19.328041077">
<ele>580.703125</ele>
<time>2012-07-21T23:02:19Z</time>
<speed>0.010000</speed>
<extensions>
<speed>0.0</speed>
<temp>0.00</temp>
<bpm>0</bpm>
<rpm>0.00</rpm>
</extensions>
</trkpt>
<trkpt lat="64.040992737" lon="-19.328046799">
<ele>580.593750</ele>
<time>2012-07-21T23:02:24Z</time>
<speed>0.020000</speed>
<extensions>
<speed>0.0</speed>
<temp>0.00</temp>
<bpm>0</bpm>
<rpm>0.00</rpm>
</extensions>
</trkpt>
<trkpt lat="64.041023254" lon="-19.328025818">
<ele>581.187500</ele>
<time>2012-07-21T23:02:29Z</time>
<speed>0.830000</speed>
<extensions>
<speed>0.8</speed>
<temp>0.00</temp>
<bpm>0</bpm>
<rpm>0.00</rpm>
</extensions>
</trkpt>
<trkpt lat="64.041069031" lon="-19.328031540">
<ele>582.015625</ele>
<time>2012-07-21T23:02:34Z</time>
<speed>0.850000</speed>
<extensions>
<speed>0.8</speed>
<temp>0.00</temp>
<bpm>0</bpm>
<rpm>0.00</rpm>
</extensions>
</trkpt>
<trkpt lat="64.041122437" lon="-19.328073502">
<ele>582.671875</ele>
<time>2012-07-21T23:02:39Z</time>
<speed>1.120000</speed>
<extensions>
<speed>1.1</speed>
<temp>0.00</temp>
<bpm>0</bpm>
<rpm>0.00</rpm>
</extensions>
</trkpt>
<trkpt lat="64.041175842" lon="-19.328105927">
<ele>583.671875</ele>
<time>2012-07-21T23:02:44Z</time>
<speed>0.960000</speed>
<extensions>
<speed>1.0</speed>
<temp>0.00</temp>
<bpm>0</bpm>
<rpm>0.00</rpm>
</extensions>
</trkpt>
<trkpt lat="64.041221619" lon="-19.328134537">
<ele>584.453125</ele>
<time>2012-07-21T23:02:49Z</time>
<speed>1.010000</speed>
<extensions>
<speed>1.0</speed>
<temp>0.00</temp>
<bpm>0</bpm>
<rpm>0.00</rpm>
</extensions>
</trkpt>
<trkpt lat="64.041267395" lon="-19.328090668">
<ele>583.484375</ele>
<time>2012-07-21T23:02:54Z</time>
<speed>1.100000</speed>
<extensions>
<speed>1.1</speed>
<temp>0.00</temp>
<bpm>0</bpm>
<rpm>0.00</rpm>
</extensions>
</trkpt>
<trkpt lat="64.041282654" lon="-19.328079224">
<ele>584.750000</ele>
<time>2012-07-21T23:02:59Z</time>
<speed>0.470000</speed>
<extensions>
<speed>0.5</speed>
<temp>0.00</temp>
<bpm>0</bpm>
<rpm>0.00</rpm>
</extensions>
</trkpt>
<trkpt lat="64.041267395" lon="-19.328092575">
<ele>583.562500</ele>
<time>2012-07-21T23:03:04Z</time>
<speed>0.030000</speed>
<extensions>
<speed>0.0</speed>
<temp>0.00</temp>
<bpm>0</bpm>
<rpm>0.00</rpm>
</extensions>
</trkpt>
<trkpt lat="64.041267395" lon="-19.328092575">
<ele>583.171875</ele>
<time>2012-07-21T23:03:09Z</time>
<extensions>
<speed>0.0</speed>
<temp>0.00</temp>
<bpm>0</bpm>
<rpm>0.00</rpm>
</extensions>
</trkpt>
<trkpt lat="64.041267395" lon="-19.328092575">
<ele>583.203125</ele>
<time>2012-07-21T23:03:14Z</time>
<speed>0.010000</speed>
<extensions>
<speed>0.0</speed>
<temp>0.00</temp>
<bpm>0</bpm>
<rpm>0.00</rpm>
</extensions>
</trkpt>
<trkpt lat="64.041267395" lon="-19.328102112">
<ele>582.984375</ele>
<time>2012-07-21T23:03:19Z</time>
<speed>0.270000</speed>
<extensions>
<speed>0.3</speed>
<temp>0.00</temp>
<bpm>0</bpm>
<rpm>0.00</rpm>
</extensions>
</trkpt>
<trkpt lat="64.041275024" lon="-19.328109741">
<ele>584.000000</ele>
<time>2012-07-21T23:03:24Z</time>
<extensions>
<speed>0.0</speed>
<temp>0.00</temp>
<bpm>0</bpm>
<rpm>0.00</rpm>
</extensions>
</trkpt>
<trkpt lat="64.041275024" lon="-19.328109741">
<ele>584.031250</ele>
<time>2012-07-21T23:03:29Z</time>
<extensions>
<speed>0.0</speed>
<temp>0.00</temp>
<bpm>0</bpm>
<rpm>0.00</rpm>
</extensions>
</trkpt>
<trkpt lat="64.041275024" lon="-19.328109741">
<ele>584.062500</ele>
<time>2012-07-21T23:03:34Z</time>
<extensions>
<speed>0.0</speed>
<temp>0.00</temp>
<bpm>0</bpm>
<rpm>0.00</rpm>
</extensions>
</trkpt>
<trkpt lat="64.041275024" lon="-19.328109741">
<ele>584.093750</ele>
<time>2012-07-21T23:03:39Z</time>
<extensions>
<speed>0.0</speed>
<temp>0.00</temp>
<bpm>0</bpm>
<rpm>0.00</rpm>
</extensions>
</trkpt>
<trkpt lat="64.041275024" lon="-19.328109741">
<ele>584.093750</ele>
<time>2012-07-21T23:03:44Z</time>
<extensions>
<speed>0.0</speed>
<temp>0.00</temp>
<bpm>0</bpm>
<rpm>0.00</rpm>
</extensions>
</trkpt>
<trkpt lat="64.041275024" lon="-19.328109741">
<ele>584.125000</ele>
<time>2012-07-21T23:03:49Z</time>
<extensions>
<speed>0.0</speed>
<temp>0.00</temp>
<bpm>0</bpm>
<rpm>0.00</rpm>
</extensions>
</trkpt>
<trkpt lat="64.041275024" lon="-19.328111649">
<ele>584.140625</ele>
<time>2012-07-21T23:03:54Z</time>
<extensions>
<speed>0.0</speed>
<temp>0.00</temp>
<bpm>0</bpm>
<rpm>0.00</rpm>
</extensions>
</trkpt>
<trkpt lat="64.041275024" lon="-19.328111649">
<ele>584.156250</ele>
<time>2012-07-21T23:03:59Z</time>
<extensions>
<speed>0.0</speed>
<temp>0.00</temp>
<bpm>0</bpm>
<rpm>0.00</rpm>
</extensions>
</trkpt>
<trkpt lat="64.041275024" lon="-19.328109741">
<ele>584.187500</ele>
<time>2012-07-21T23:04:04Z</time>
<extensions>
<speed>0.0</speed>
<temp>0.00</temp>
<bpm>0</bpm>
<rpm>0.00</rpm>
</extensions>
</trkpt>
<trkpt lat="64.041275024" lon="-19.328109741">
<ele>584.187500</ele>
<time>2012-07-21T23:04:09Z</time>
<extensions>
<speed>0.0</speed>
<temp>0.00</temp>
<bpm>0</bpm>
<rpm>0.00</rpm>
</extensions>
</trkpt>
<trkpt lat="64.041275024" lon="-19.328111649">
<ele>584.203125</ele>
<time>2012-07-21T23:04:14Z</time>
<extensions>
<speed>0.0</speed>
<temp>0.00</temp>
<bpm>0</bpm>
<rpm>0.00</rpm>
</extensions>
</trkpt>
<trkpt lat="64.041275024" lon="-19.328111649">
<ele>584.218750</ele>
<time>2012-07-21T23:04:19Z</time>
<extensions>
<speed>0.0</speed>
<temp>0.00</temp>
<bpm>0</bpm>
<rpm>0.00</rpm>
</extensions>
</trkpt>
<trkpt lat="64.041275024" lon="-19.328111649">
<ele>584.250000</ele>
<time>2012-07-21T23:04:24Z</time>
<extensions>
<speed>0.0</speed>
<temp>0.00</temp>
<bpm>0</bpm>
<rpm>0.00</rpm>
</extensions>
</trkpt>
<trkpt lat="64.041275024" lon="-19.328111649">
<ele>584.265625</ele>
<time>2012-07-21T23:04:29Z</time>
<extensions>
<speed>0.0</speed>
<temp>0.00</temp>
<bpm>0</bpm>
<rpm>0.00</rpm>
</extensions>
</trkpt>
<trkpt lat="64.041275024" lon="-19.328111649">
<ele>584.281250</ele>
<time>2012-07-21T23:04:34Z</time>
<extensions>
<speed>0.0</speed>
<temp>0.00</temp>
<bpm>0</bpm>
<rpm>0.00</rpm>
</extensions>
</trkpt>
<trkpt lat="64.041275024" lon="-19.328111649">
<ele>584.296875</ele>
<time>2012-07-21T23:04:39Z</time>
<extensions>
<speed>0.0</speed>
<temp>0.00</temp>
<bpm>0</bpm>
<rpm>0.00</rpm>
</extensions>
</trkpt>
<trkpt lat="64.041275024" lon="-19.328111649">
<ele>584.312500</ele>
<time>2012-07-21T23:04:44Z</time>
<extensions>
<speed>0.0</speed>
<temp>0.00</temp>
<bpm>0</bpm>
<rpm>0.00</rpm>
</extensions>
</trkpt>
<trkpt lat="64.041275024" lon="-19.328111649">
<ele>584.328125</ele>
<time>2012-07-21T23:04:49Z</time>
<extensions>
<speed>0.0</speed>
<temp>0.00</temp>
<bpm>0</bpm>
<rpm>0.00</rpm>
</extensions>
</trkpt>
<trkpt lat="64.041275024" lon="-19.328111649">
<ele>584.343750</ele>
<time>2012-07-21T23:04:54Z</time>
<extensions>
<speed>0.0</speed>
<temp>0.00</temp>
<bpm>0</bpm>
<rpm>0.00</rpm>
</extensions>
</trkpt>
<trkpt lat="64.041275024" lon="-19.328111649">
<ele>584.359375</ele>
<time>2012-07-21T23:04:59Z</time>
<extensions>
<speed>0.0</speed>
<temp>0.00</temp>
<bpm>0</bpm>
<rpm>0.00</rpm>
</extensions>
</trkpt>
<trkpt lat="64.041275024" lon="-19.328111649">
<ele>584.390625</ele>
<time>2012-07-21T23:05:04Z</time>
<extensions>
<speed>0.0</speed>
<temp>0.00</temp>
<bpm>0</bpm>
<rpm>0.00</rpm>
</extensions>
</trkpt>
<trkpt lat="64.041275024" lon="-19.328111649">
<ele>584.406250</ele>
<time>2012-07-21T23:05:09Z</time>
<extensions>
<speed>0.0</speed>
<temp>0.00</temp>
<bpm>0</bpm>
<rpm>0.00</rpm>
</extensions>
</trkpt>
<trkpt lat="64.041275024" lon="-19.328111649">
<ele>584.421875</ele>
<time>2012-07-21T23:05:14Z</time>
<extensions>
<speed>0.0</speed>
<temp>0.00</temp>
<bpm>0</bpm>
<rpm>0.00</rpm>
</extensions>
</trkpt>
<trkpt lat="64.041275024" lon="-19.328111649">
<ele>584.437500</ele>
<time>2012-07-21T23:05:19Z</time>
<extensions>
<speed>0.0</speed>
<temp>0.00</temp>
<bpm>0</bpm>
<rpm>0.00</rpm>
</extensions>
</trkpt>
<trkpt lat="64.041275024" lon="-19.328111649">
<ele>584.468750</ele>
<time>2012-07-21T23:05:24Z</time>
<extensions>
<speed>0.0</speed>
<temp>0.00</temp>
<bpm>0</bpm>
<rpm>0.00</rpm>
</extensions>
</trkpt>
<trkpt lat="64.041275024" lon="-19.328111649">
<ele>584.484375</ele>
<time>2012-07-21T23:05:29Z</time>
<speed>0.010000</speed>
<extensions>
<speed>0.0</speed>
<temp>0.00</temp>
<bpm>0</bpm>
<rpm>0.00</rpm>
</extensions>
</trkpt>
<trkpt lat="64.041275024" lon="-19.328111649">
<ele>584.500000</ele>
<time>2012-07-21T23:05:34Z</time>
<extensions>
<speed>0.0</speed>
<temp>0.00</temp>
<bpm>0</bpm>
<rpm>0.00</rpm>
</extensions>
</trkpt>
<trkpt lat="64.041275024" lon="-19.328111649">
<ele>584.515625</ele>
<time>2012-07-21T23:05:39Z</time>
<extensions>
<speed>0.0</speed>
<temp>0.00</temp>
<bpm>0</bpm>
<rpm>0.00</rpm>
</extensions>
</trkpt>
<trkpt lat="64.041275024" lon="-19.328111649">
<ele>584.531250</ele>
<time>2012-07-21T23:05:44Z</time>
<extensions>
<speed>0.0</speed>
<temp>0.00</temp>
<bpm>0</bpm>
<rpm>0.00</rpm>
</extensions>
</trkpt>
<trkpt lat="64.041275024" lon="-19.328111649">
<ele>584.546875</ele>
<time>2012-07-21T23:05:49Z</time>
<extensions>
<speed>0.0</speed>
<temp>0.00</temp>
<bpm>0</bpm>
<rpm>0.00</rpm>
</extensions>
</trkpt>
<trkpt lat="64.041275024" lon="-19.328111649">
<ele>584.562500</ele>
<time>2012-07-21T23:05:54Z</time>
<extensions>
<speed>0.0</speed>
<temp>0.00</temp>
<bpm>0</bpm>
<rpm>0.00</rpm>
</extensions>
</trkpt>
<trkpt lat="64.041275024" lon="-19.328111649">
<ele>584.578125</ele>
<time>2012-07-21T23:05:59Z</time>
<extensions>
<speed>0.0</speed>
<temp>0.00</temp>
<bpm>0</bpm>
<rpm>0.00</rpm>
</extensions>
</trkpt>
<trkpt lat="64.041275024" lon="-19.328111649">
<ele>584.593750</ele>
<time>2012-07-21T23:06:04Z</time>
<extensions>
<speed>0.0</speed>
<temp>0.00</temp>
<bpm>0</bpm>
<rpm>0.00</rpm>
</extensions>
</trkpt>
<trkpt lat="64.041275024" lon="-19.328111649">
<ele>584.609375</ele>
<time>2012-07-21T23:06:09Z</time>
<extensions>
<speed>0.0</speed>
<temp>0.00</temp>
<bpm>0</bpm>
<rpm>0.00</rpm>
</extensions>
</trkpt>
<trkpt lat="64.041275024" lon="-19.328111649">
<ele>584.625000</ele>
<time>2012-07-21T23:06:14Z</time>
<extensions>
<speed>0.0</speed>
<temp>0.00</temp>
<bpm>0</bpm>
<rpm>0.00</rpm>
</extensions>
</trkpt>
<trkpt lat="64.041275024" lon="-19.328111649">
<ele>584.625000</ele>
<time>2012-07-21T23:06:19Z</time>
<extensions>
<speed>0.0</speed>
<temp>0.00</temp>
<bpm>0</bpm>
<rpm>0.00</rpm>
</extensions>
</trkpt>
<trkpt lat="64.041275024" lon="-19.328111649">
<ele>584.640625</ele>
<time>2012-07-21T23:06:24Z</time>
<extensions>
<speed>0.0</speed>
<temp>0.00</temp>
<bpm>0</bpm>
<rpm>0.00</rpm>
</extensions>
</trkpt>
<trkpt lat="64.041275024" lon="-19.328111649">
<ele>584.656250</ele>
<time>2012-07-21T23:06:29Z</time>
<extensions>
<speed>0.0</speed>
<temp>0.00</temp>
<bpm>0</bpm>
<rpm>0.00</rpm>
</extensions>
</trkpt>
<trkpt lat="64.041275024" lon="-19.328111649">
<ele>584.671875</ele>
<time>2012-07-21T23:06:34Z</time>
<extensions>
<speed>0.0</speed>
<temp>0.00</temp>
<bpm>0</bpm>
<rpm>0.00</rpm>
</extensions>
</trkpt>
<trkpt lat="64.041275024" lon="-19.328111649">
<ele>584.671875</ele>
<time>2012-07-21T23:06:39Z</time>
<extensions>
<speed>0.0</speed>
<temp>0.00</temp>
<bpm>0</bpm>
<rpm>0.00</rpm>
</extensions>
</trkpt>
<trkpt lat="64.041275024" lon="-19.328111649">
<ele>584.687500</ele>
<time>2012-07-21T23:06:44Z</time>
<extensions>
<speed>0.0</speed>
<temp>0.00</temp>
<bpm>0</bpm>
<rpm>0.00</rpm>
</extensions>
</trkpt>
<trkpt lat="64.041275024" lon="-19.328111649">
<ele>584.687500</ele>
<time>2012-07-21T23:06:49Z</time>
<extensions>
<speed>0.0</speed>
<temp>0.00</temp>
<bpm>0</bpm>
<rpm>0.00</rpm>
</extensions>
</trkpt>
<trkpt lat="64.041275024" lon="-19.328111649">
<ele>584.703125</ele>
<time>2012-07-21T23:06:54Z</time>
<extensions>
<speed>0.0</speed>
<temp>0.00</temp>
<bpm>0</bpm>
<rpm>0.00</rpm>
</extensions>
</trkpt>
<trkpt lat="64.041275024" lon="-19.328111649">
<ele>584.718750</ele>
<time>2012-07-21T23:06:59Z</time>
<extensions>
<speed>0.0</speed>
<temp>0.00</temp>
<bpm>0</bpm>
<rpm>0.00</rpm>
</extensions>
</trkpt>
<trkpt lat="64.041275024" lon="-19.328111649">
<ele>584.718750</ele>
<time>2012-07-21T23:07:04Z</time>
<extensions>
<speed>0.0</speed>
<temp>0.00</temp>
<bpm>0</bpm>
<rpm>0.00</rpm>
</extensions>
</trkpt>
<trkpt lat="64.041275024" lon="-19.328111649">
<ele>584.734375</ele>
<time>2012-07-21T23:07:09Z</time>
<extensions>
<speed>0.0</speed>
<temp>0.00</temp>
<bpm>0</bpm>
<rpm>0.00</rpm>
</extensions>
</trkpt>
<trkpt lat="64.041275024" lon="-19.328111649">
<ele>584.734375</ele>
<time>2012-07-21T23:07:14Z</time>
<extensions>
<speed>0.0</speed>
<temp>0.00</temp>
<bpm>0</bpm>
<rpm>0.00</rpm>
</extensions>
</trkpt>
<trkpt lat="64.041275024" lon="-19.328111649">
<ele>584.750000</ele>
<time>2012-07-21T23:07:19Z</time>
<extensions>
<speed>0.0</speed>
<temp>0.00</temp>
<bpm>0</bpm>
<rpm>0.00</rpm>
</extensions>
</trkpt>
<trkpt lat="64.041275024" lon="-19.328111649">
<ele>584.750000</ele>
<time>2012-07-21T23:07:24Z</time>
<extensions>
<speed>0.0</speed>
<temp>0.00</temp>
<bpm>0</bpm>
<rpm>0.00</rpm>
</extensions>
</trkpt>
<trkpt lat="64.041275024" lon="-19.328111649">
<ele>584.765625</ele>
<time>2012-07-21T23:07:29Z</time>
<extensions>
<speed>0.0</speed>
<temp>0.00</temp>
<bpm>0</bpm>
<rpm>0.00</rpm>
</extensions>
</trkpt>
<trkpt lat="64.041275024" lon="-19.328111649">
<ele>584.781250</ele>
<time>2012-07-21T23:07:34Z</time>
<extensions>
<speed>0.0</speed>
<temp>0.00</temp>
<bpm>0</bpm>
<rpm>0.00</rpm>
</extensions>
</trkpt>
<trkpt lat="64.041275024" lon="-19.328113556">
<ele>584.781250</ele>
<time>2012-07-21T23:07:39Z</time>
<extensions>
<speed>0.0</speed>
<temp>0.00</temp>
<bpm>0</bpm>
<rpm>0.00</rpm>
</extensions>
</trkpt>
<trkpt lat="64.041275024" lon="-19.328113556">
<ele>584.796875</ele>
<time>2012-07-21T23:07:44Z</time>
<extensions>
<speed>0.0</speed>
<temp>0.00</temp>
<bpm>0</bpm>
<rpm>0.00</rpm>
</extensions>
</trkpt>
<trkpt lat="64.041275024" lon="-19.328113556">
<ele>584.796875</ele>
<time>2012-07-21T23:07:49Z</time>
<extensions>
<speed>0.0</speed>
<temp>0.00</temp>
<bpm>0</bpm>
<rpm>0.00</rpm>
</extensions>
</trkpt>
<trkpt lat="64.041275024" lon="-19.328113556">
<ele>584.812500</ele>
<time>2012-07-21T23:07:54Z</time>
<extensions>
<speed>0.0</speed>
<temp>0.00</temp>
<bpm>0</bpm>
<rpm>0.00</rpm>
</extensions>
</trkpt>
<trkpt lat="64.041275024" lon="-19.328113556">
<ele>584.828125</ele>
<time>2012-07-21T23:07:59Z</time>
<speed>0.010000</speed>
<extensions>
<speed>0.0</speed>
<temp>0.00</temp>
<bpm>0</bpm>
<rpm>0.00</rpm>
</extensions>
</trkpt>
<trkpt lat="64.041275024" lon="-19.328111649">
<ele>584.828125</ele>
<time>2012-07-21T23:08:04Z</time>
<extensions>
<speed>0.0</speed>
<temp>0.00</temp>
<bpm>0</bpm>
<rpm>0.00</rpm>
</extensions>
</trkpt>
<trkpt lat="64.041275024" lon="-19.328111649">
<ele>584.843750</ele>
<time>2012-07-21T23:08:09Z</time>
<extensions>
<speed>0.0</speed>
<temp>0.00</temp>
<bpm>0</bpm>
<rpm>0.00</rpm>
</extensions>
</trkpt>
<trkpt lat="64.041275024" lon="-19.328111649">
<ele>584.859375</ele>
<time>2012-07-21T23:08:14Z</time>
<extensions>
<speed>0.0</speed>
<temp>0.00</temp>
<bpm>0</bpm>
<rpm>0.00</rpm>
</extensions>
</trkpt>
<trkpt lat="64.041275024" lon="-19.328111649">
<ele>584.875000</ele>
<time>2012-07-21T23:08:19Z</time>
<extensions>
<speed>0.0</speed>
<temp>0.00</temp>
<bpm>0</bpm>
<rpm>0.00</rpm>
</extensions>
</trkpt>
<trkpt lat="64.041275024" lon="-19.328111649">
<ele>584.890625</ele>
<time>2012-07-21T23:08:24Z</time>
<extensions>
<speed>0.0</speed>
<temp>0.00</temp>
<bpm>0</bpm>
<rpm>0.00</rpm>
</extensions>
</trkpt>
<trkpt lat="64.041275024" lon="-19.328111649">
<ele>584.906250</ele>
<time>2012-07-21T23:08:29Z</time>
<extensions>
<speed>0.0</speed>
<temp>0.00</temp>
<bpm>0</bpm>
<rpm>0.00</rpm>
</extensions>
</trkpt>
<trkpt lat="64.041275024" lon="-19.328111649">
<ele>584.921875</ele>
<time>2012-07-21T23:08:34Z</time>
<extensions>
<speed>0.0</speed>
<temp>0.00</temp>
<bpm>0</bpm>
<rpm>0.00</rpm>
</extensions>
</trkpt>
<trkpt lat="64.041275024" lon="-19.328111649">
<ele>584.937500</ele>
<time>2012-07-21T23:08:39Z</time>
<extensions>
<speed>0.0</speed>
<temp>0.00</temp>
<bpm>0</bpm>
<rpm>0.00</rpm>
</extensions>
</trkpt>
<trkpt lat="64.041275024" lon="-19.328111649">
<ele>584.953125</ele>
<time>2012-07-21T23:08:44Z</time>
<extensions>
<speed>0.0</speed>
<temp>0.00</temp>
<bpm>0</bpm>
<rpm>0.00</rpm>
</extensions>
</trkpt>
<trkpt lat="64.041275024" lon="-19.328111649">
<ele>584.984375</ele>
<time>2012-07-21T23:08:49Z</time>
<extensions>
<speed>0.0</speed>
<temp>0.00</temp>
<bpm>0</bpm>
<rpm>0.00</rpm>
</extensions>
</trkpt>
<trkpt lat="64.041275024" lon="-19.328111649">
<ele>585.000000</ele>
<time>2012-07-21T23:08:54Z</time>
<extensions>
<speed>0.0</speed>
<temp>0.00</temp>
<bpm>0</bpm>
<rpm>0.00</rpm>
</extensions>
</trkpt>
<trkpt lat="64.041275024" lon="-19.328111649">
<ele>585.015625</ele>
<time>2012-07-21T23:08:59Z</time>
<speed>0.010000</speed>
<extensions>
<speed>0.0</speed>
<temp>0.00</temp>
<bpm>0</bpm>
<rpm>0.00</rpm>
</extensions>
</trkpt>
<trkpt lat="64.041275024" lon="-19.328111649">
<ele>585.031250</ele>
<time>2012-07-21T23:09:04Z</time>
<extensions>
<speed>0.0</speed>
<temp>0.00</temp>
<bpm>0</bpm>
<rpm>0.00</rpm>
</extensions>
</trkpt>
<trkpt lat="64.041275024" lon="-19.328111649">
<ele>585.046875</ele>
<time>2012-07-21T23:09:09Z</time>
<extensions>
<speed>0.0</speed>
<temp>0.00</temp>
<bpm>0</bpm>
<rpm>0.00</rpm>
</extensions>
</trkpt>
<trkpt lat="64.041275024" lon="-19.328111649">
<ele>585.062500</ele>
<time>2012-07-21T23:09:14Z</time>
<extensions>
<speed>0.0</speed>
<temp>0.00</temp>
<bpm>0</bpm>
<rpm>0.00</rpm>
</extensions>
</trkpt>
<trkpt lat="64.041275024" lon="-19.328111649">
<ele>585.078125</ele>
<time>2012-07-21T23:09:19Z</time>
<extensions>
<speed>0.0</speed>
<temp>0.00</temp>
<bpm>0</bpm>
<rpm>0.00</rpm>
</extensions>
</trkpt>
<trkpt lat="64.041275024" lon="-19.328111649">
<ele>585.093750</ele>
<time>2012-07-21T23:09:24Z</time>
<extensions>
<speed>0.0</speed>
<temp>0.00</temp>
<bpm>0</bpm>
<rpm>0.00</rpm>
</extensions>
</trkpt>
<trkpt lat="64.041275024" lon="-19.328111649">
<ele>585.109375</ele>
<time>2012-07-21T23:09:29Z</time>
<extensions>
<speed>0.0</speed>
<temp>0.00</temp>
<bpm>0</bpm>
<rpm>0.00</rpm>
</extensions>
</trkpt>
<trkpt lat="64.041275024" lon="-19.328113556">
<ele>585.125000</ele>
<time>2012-07-21T23:09:34Z</time>
<extensions>
<speed>0.0</speed>
<temp>0.00</temp>
<bpm>0</bpm>
<rpm>0.00</rpm>
</extensions>
</trkpt>
<trkpt lat="64.041275024" lon="-19.328113556">
<ele>585.140625</ele>
<time>2012-07-21T23:09:39Z</time>
<extensions>
<speed>0.0</speed>
<temp>0.00</temp>
<bpm>0</bpm>
<rpm>0.00</rpm>
</extensions>
</trkpt>
<trkpt lat="64.041275024" lon="-19.328113556">
<ele>585.156250</ele>
<time>2012-07-21T23:09:44Z</time>
<extensions>
<speed>0.0</speed>
<temp>0.00</temp>
<bpm>0</bpm>
<rpm>0.00</rpm>
</extensions>
</trkpt>
<trkpt lat="64.041275024" lon="-19.328113556">
<ele>585.171875</ele>
<time>2012-07-21T23:09:49Z</time>
<extensions>
<speed>0.0</speed>
<temp>0.00</temp>
<bpm>0</bpm>
<rpm>0.00</rpm>
</extensions>
</trkpt>
<trkpt lat="64.041275024" lon="-19.328113556">
<ele>585.187500</ele>
<time>2012-07-21T23:09:54Z</time>
<extensions>
<speed>0.0</speed>
<temp>0.00</temp>
<bpm>0</bpm>
<rpm>0.00</rpm>
</extensions>
</trkpt>
<trkpt lat="64.041275024" lon="-19.328113556">
<ele>585.203125</ele>
<time>2012-07-21T23:09:59Z</time>
<extensions>
<speed>0.0</speed>
<temp>0.00</temp>
<bpm>0</bpm>
<rpm>0.00</rpm>
</extensions>
</trkpt>
<trkpt lat="64.041275024" lon="-19.328113556">
<ele>585.218750</ele>
<time>2012-07-21T23:10:04Z</time>
<extensions>
<speed>0.0</speed>
<temp>0.00</temp>
<bpm>0</bpm>
<rpm>0.00</rpm>
</extensions>
</trkpt>
<trkpt lat="64.041275024" lon="-19.328113556">
<ele>585.218750</ele>
<time>2012-07-21T23:10:09Z</time>
<speed>0.030000</speed>
<extensions>
<speed>0.0</speed>
<temp>0.00</temp>
<bpm>0</bpm>
<rpm>0.00</rpm>
</extensions>
</trkpt>
<trkpt lat="64.041275024" lon="-19.328113556">
<ele>585.234375</ele>
<time>2012-07-21T23:10:14Z</time>
<extensions>
<speed>0.0</speed>
<temp>0.00</temp>
<bpm>0</bpm>
<rpm>0.00</rpm>
</extensions>
</trkpt>
<trkpt lat="64.041275024" lon="-19.328113556">
<ele>585.234375</ele>
<time>2012-07-21T23:10:19Z</time>
<speed>0.010000</speed>
<extensions>
<speed>0.0</speed>
<temp>0.00</temp>
<bpm>0</bpm>
<rpm>0.00</rpm>
</extensions>
</trkpt>
<trkpt lat="64.041275024" lon="-19.328113556">
<ele>585.234375</ele>
<time>2012-07-21T23:10:24Z</time>
<extensions>
<speed>0.0</speed>
<temp>0.00</temp>
<bpm>0</bpm>
<rpm>0.00</rpm>
</extensions>
</trkpt>
<trkpt lat="64.041275024" lon="-19.328113556">
<ele>585.250000</ele>
<time>2012-07-21T23:10:29Z</time>
<extensions>
<speed>0.0</speed>
<temp>0.00</temp>
<bpm>0</bpm>
<rpm>0.00</rpm>
</extensions>
</trkpt>
<trkpt lat="64.041275024" lon="-19.328113556">
<ele>585.250000</ele>
<time>2012-07-21T23:10:34Z</time>
<extensions>
<speed>0.0</speed>
<temp>0.00</temp>
<bpm>0</bpm>
<rpm>0.00</rpm>
</extensions>
</trkpt>
<trkpt lat="64.041275024" lon="-19.328113556">
<ele>585.250000</ele>
<time>2012-07-21T23:10:39Z</time>
<extensions>
<speed>0.0</speed>
<temp>0.00</temp>
<bpm>0</bpm>
<rpm>0.00</rpm>
</extensions>
</trkpt>
<trkpt lat="64.041275024" lon="-19.328113556">
<ele>585.250000</ele>
<time>2012-07-21T23:10:44Z</time>
<speed>0.010000</speed>
<extensions>
<speed>0.0</speed>
<temp>0.00</temp>
<bpm>0</bpm>
<rpm>0.00</rpm>
</extensions>
</trkpt>
<trkpt lat="64.041275024" lon="-19.328113556">
<ele>585.250000</ele>
<time>2012-07-21T23:10:49Z</time>
<speed>0.010000</speed>
<extensions>
<speed>0.0</speed>
<temp>0.00</temp>
<bpm>0</bpm>
<rpm>0.00</rpm>
</extensions>
</trkpt>
<trkpt lat="64.041275024" lon="-19.328113556">
<ele>585.250000</ele>
<time>2012-07-21T23:10:54Z</time>
<extensions>
<speed>0.0</speed>
<temp>0.00</temp>
<bpm>0</bpm>
<rpm>0.00</rpm>
</extensions>
</trkpt>
<trkpt lat="64.041275024" lon="-19.328113556">
<ele>585.250000</ele>
<time>2012-07-21T23:10:59Z</time>
<extensions>
<speed>0.0</speed>
<temp>0.00</temp>
<bpm>0</bpm>
<rpm>0.00</rpm>
</extensions>
</trkpt>
<trkpt lat="64.041275024" lon="-19.328113556">
<ele>585.250000</ele>
<time>2012-07-21T23:11:04Z</time>
<extensions>
<speed>0.0</speed>
<temp>0.00</temp>
<bpm>0</bpm>
<rpm>0.00</rpm>
</extensions>
</trkpt>
<trkpt lat="64.041275024" lon="-19.328113556">
<ele>585.265625</ele>
<time>2012-07-21T23:11:09Z</time>
<speed>0.010000</speed>
<extensions>
<speed>0.0</speed>
<temp>0.00</temp>
<bpm>0</bpm>
<rpm>0.00</rpm>
</extensions>
</trkpt>
<trkpt lat="64.041275024" lon="-19.328115463">
<ele>585.265625</ele>
<time>2012-07-21T23:11:14Z</time>
<speed>0.010000</speed>
<extensions>
<speed>0.0</speed>
<temp>0.00</temp>
<bpm>0</bpm>
<rpm>0.00</rpm>
</extensions>
</trkpt>
<trkpt lat="64.041275024" lon="-19.328115463">
<ele>585.265625</ele>
<time>2012-07-21T23:11:19Z</time>
<extensions>
<speed>0.0</speed>
<temp>0.00</temp>
<bpm>0</bpm>
<rpm>0.00</rpm>
</extensions>
</trkpt>
<trkpt lat="64.041275024" lon="-19.328115463">
<ele>585.281250</ele>
<time>2012-07-21T23:11:24Z</time>
<extensions>
<speed>0.0</speed>
<temp>0.00</temp>
<bpm>0</bpm>
<rpm>0.00</rpm>
</extensions>
</trkpt>
<trkpt lat="64.041275024" lon="-19.328115463">
<ele>585.281250</ele>
<time>2012-07-21T23:11:29Z</time>
<extensions>
<speed>0.0</speed>
<temp>0.00</temp>
<bpm>0</bpm>
<rpm>0.00</rpm>
</extensions>
</trkpt>
<trkpt lat="64.041275024" lon="-19.328115463">
<ele>585.281250</ele>
<time>2012-07-21T23:11:34Z</time>
<speed>0.010000</speed>
<extensions>
<speed>0.0</speed>
<temp>0.00</temp>
<bpm>0</bpm>
<rpm>0.00</rpm>
</extensions>
</trkpt>
<trkpt lat="64.041275024" lon="-19.328115463">
<ele>585.296875</ele>
<time>2012-07-21T23:11:39Z</time>
<extensions>
<speed>0.0</speed>
<temp>0.00</temp>
<bpm>0</bpm>
<rpm>0.00</rpm>
</extensions>
</trkpt>
<trkpt lat="64.041275024" lon="-19.328115463">
<ele>585.296875</ele>
<time>2012-07-21T23:11:44Z</time>
<speed>0.010000</speed>
<extensions>
<speed>0.0</speed>
<temp>0.00</temp>
<bpm>0</bpm>
<rpm>0.00</rpm>
</extensions>
</trkpt>
<trkpt lat="64.041267395" lon="-19.328115463">
<ele>584.921875</ele>
<time>2012-07-21T23:11:49Z</time>
<speed>0.160000</speed>
<extensions>
<speed>0.2</speed>
<temp>0.00</temp>
<bpm>0</bpm>
<rpm>0.00</rpm>
</extensions>
</trkpt>
<trkpt lat="64.041275024" lon="-19.328113556">
<ele>585.031250</ele>
<time>2012-07-21T23:11:54Z</time>
<speed>0.060000</speed>
<extensions>
<speed>0.1</speed>
<temp>0.00</temp>
<bpm>0</bpm>
<rpm>0.00</rpm>
</extensions>
</trkpt>
<trkpt lat="64.041275024" lon="-19.328113556">
<ele>585.062500</ele>
<time>2012-07-21T23:11:59Z</time>
<extensions>
<speed>0.0</speed>
<temp>0.00</temp>
<bpm>0</bpm>
<rpm>0.00</rpm>
</extensions>
</trkpt>
<trkpt lat="64.041275024" lon="-19.328111649">
<ele>585.062500</ele>
<time>2012-07-21T23:12:04Z</time>
<extensions>
<speed>0.0</speed>
<temp>0.00</temp>
<bpm>0</bpm>
<rpm>0.00</rpm>
</extensions>
</trkpt>
<trkpt lat="64.041275024" lon="-19.328111649">
<ele>585.062500</ele>
<time>2012-07-21T23:12:09Z</time>
<speed>0.160000</speed>
<extensions>
<speed>0.2</speed>
<temp>0.00</temp>
<bpm>0</bpm>
<rpm>0.00</rpm>
</extensions>
</trkpt>
<trkpt lat="64.041275024" lon="-19.328111649">
<ele>585.062500</ele>
<time>2012-07-21T23:12:14Z</time>
<speed>0.010000</speed>
<extensions>
<speed>0.0</speed>
<temp>0.00</temp>
<bpm>0</bpm>
<rpm>0.00</rpm>
</extensions>
</trkpt>
<trkpt lat="64.041275024" lon="-19.328111649">
<ele>585.062500</ele>
<time>2012-07-21T23:12:19Z</time>
<extensions>
<speed>0.0</speed>
<temp>0.00</temp>
<bpm>0</bpm>
<rpm>0.00</rpm>
</extensions>
</trkpt>
<trkpt lat="64.041275024" lon="-19.328111649">
<ele>585.078125</ele>
<time>2012-07-21T23:12:24Z</time>
<extensions>
<speed>0.0</speed>
<temp>0.00</temp>
<bpm>0</bpm>
<rpm>0.00</rpm>
</extensions>
</trkpt>
<trkpt lat="64.041275024" lon="-19.328111649">
<ele>585.078125</ele>
<time>2012-07-21T23:12:29Z</time>
<extensions>
<speed>0.0</speed>
<temp>0.00</temp>
<bpm>0</bpm>
<rpm>0.00</rpm>
</extensions>
</trkpt>
<trkpt lat="64.041275024" lon="-19.328111649">
<ele>585.078125</ele>
<time>2012-07-21T23:12:34Z</time>
<extensions>
<speed>0.0</speed>
<temp>0.00</temp>
<bpm>0</bpm>
<rpm>0.00</rpm>
</extensions>
</trkpt>
<trkpt lat="64.041275024" lon="-19.328111649">
<ele>585.078125</ele>
<time>2012-07-21T23:12:39Z</time>
<speed>0.010000</speed>
<extensions>
<speed>0.0</speed>
<temp>0.00</temp>
<bpm>0</bpm>
<rpm>0.00</rpm>
</extensions>
</trkpt>
<trkpt lat="64.041275024" lon="-19.328107834">
<ele>585.281250</ele>
<time>2012-07-21T23:12:44Z</time>
<speed>0.010000</speed>
<extensions>
<speed>0.0</speed>
<temp>0.00</temp>
<bpm>0</bpm>
<rpm>0.00</rpm>
</extensions>
</trkpt>
<trkpt lat="64.041267395" lon="-19.328100204">
<ele>585.281250</ele>
<time>2012-07-21T23:12:49Z</time>
<speed>0.030000</speed>
<extensions>
<speed>0.0</speed>
<temp>0.00</temp>
<bpm>0</bpm>
<rpm>0.00</rpm>
</extensions>
</trkpt>
<trkpt lat="64.041267395" lon="-19.328092575">
<ele>585.375000</ele>
<time>2012-07-21T23:12:54Z</time>
<extensions>
<speed>0.0</speed>
<temp>0.00</temp>
<bpm>0</bpm>
<rpm>0.00</rpm>
</extensions>
</trkpt>
<trkpt lat="64.041259766" lon="-19.328086853">
<ele>585.531250</ele>
<time>2012-07-21T23:12:59Z</time>
<speed>0.010000</speed>
<extensions>
<speed>0.0</speed>
<temp>0.00</temp>
<bpm>0</bpm>
<rpm>0.00</rpm>
</extensions>
</trkpt>
<trkpt lat="64.041267395" lon="-19.328081131">
<ele>585.281250</ele>
<time>2012-07-21T23:13:04Z</time>
<extensions>
<speed>0.0</speed>
<temp>0.00</temp>
<bpm>0</bpm>
<rpm>0.00</rpm>
</extensions>
</trkpt>
<trkpt lat="64.041259766" lon="-19.328081131">
<ele>585.281250</ele>
<time>2012-07-21T23:13:09Z</time>
<extensions>
<speed>0.0</speed>
<temp>0.00</temp>
<bpm>0</bpm>
<rpm>0.00</rpm>
</extensions>
</trkpt>
<trkpt lat="64.041267395" lon="-19.328081131">
<ele>585.437500</ele>
<time>2012-07-21T23:13:14Z</time>
<speed>0.320000</speed>
<extensions>
<speed>0.3</speed>
<temp>0.00</temp>
<bpm>0</bpm>
<rpm>0.00</rpm>
</extensions>
</trkpt>
<trkpt lat="64.041252136" lon="-19.328086853">
<ele>585.531250</ele>
<time>2012-07-21T23:13:19Z</time>
<extensions>
<speed>0.0</speed>
<temp>0.00</temp>
<bpm>0</bpm>
<rpm>0.00</rpm>
</extensions>
</trkpt>
<trkpt lat="64.041252136" lon="-19.328075409">
<ele>585.328125</ele>
<time>2012-07-21T23:13:24Z</time>
<speed>0.010000</speed>
<extensions>
<speed>0.0</speed>
<temp>0.00</temp>
<bpm>0</bpm>
<rpm>0.00</rpm>
</extensions>
</trkpt>
<trkpt lat="64.041252136" lon="-19.328075409">
<ele>585.343750</ele>
<time>2012-07-21T23:13:29Z</time>
<extensions>
<speed>0.0</speed>
<temp>0.00</temp>
<bpm>0</bpm>
<rpm>0.00</rpm>
</extensions>
</trkpt>
<trkpt lat="64.041252136" lon="-19.328075409">
<ele>585.343750</ele>
<time>2012-07-21T23:13:34Z</time>
<extensions>
<speed>0.0</speed>
<temp>0.00</temp>
<bpm>0</bpm>
<rpm>0.00</rpm>
</extensions>
</trkpt>
<trkpt lat="64.041252136" lon="-19.328075409">
<ele>585.343750</ele>
<time>2012-07-21T23:13:39Z</time>
<speed>0.030000</speed>
<extensions>
<speed>0.0</speed>
<temp>0.00</temp>
<bpm>0</bpm>
<rpm>0.00</rpm>
</extensions>
</trkpt>
<trkpt lat="64.041275024" lon="-19.328065872">
<ele>585.500000</ele>
<time>2012-07-21T23:13:44Z</time>
<speed>0.660000</speed>
<extensions>
<speed>0.7</speed>
<temp>0.00</temp>
<bpm>0</bpm>
<rpm>0.00</rpm>
</extensions>
</trkpt>
<trkpt lat="64.041282654" lon="-19.328094482">
<ele>585.515625</ele>
<time>2012-07-21T23:13:49Z</time>
<speed>0.120000</speed>
<extensions>
<speed>0.1</speed>
<temp>0.00</temp>
<bpm>0</bpm>
<rpm>0.00</rpm>
</extensions>
</trkpt>
<trkpt lat="64.041290283" lon="-19.328098297">
<ele>585.625000</ele>
<time>2012-07-21T23:13:54Z</time>
<speed>0.080000</speed>
<extensions>
<speed>0.1</speed>
<temp>0.00</temp>
<bpm>0</bpm>
<rpm>0.00</rpm>
</extensions>
</trkpt>
<trkpt lat="64.041290283" lon="-19.328107834">
<ele>585.718750</ele>
<time>2012-07-21T23:13:59Z</time>
<speed>0.120000</speed>
<extensions>
<speed>0.1</speed>
<temp>0.00</temp>
<bpm>0</bpm>
<rpm>0.00</rpm>
</extensions>
</trkpt>
<trkpt lat="64.041290283" lon="-19.328121185">
<ele>585.828125</ele>
<time>2012-07-21T23:14:04Z</time>
<speed>0.120000</speed>
<extensions>
<speed>0.1</speed>
<temp>0.00</temp>
<bpm>0</bpm>
<rpm>0.00</rpm>
</extensions>
</trkpt>
<trkpt lat="64.041297913" lon="-19.328130722">
<ele>585.953125</ele>
<time>2012-07-21T23:14:09Z</time>
<speed>0.070000</speed>
<extensions>
<speed>0.1</speed>
<temp>0.00</temp>
<bpm>0</bpm>
<rpm>0.00</rpm>
</extensions>
</trkpt>
<trkpt lat="64.041297913" lon="-19.328134537">
<ele>586.093750</ele>
<time>2012-07-21T23:14:14Z</time>
<speed>0.020000</speed>
<extensions>
<speed>0.0</speed>
<temp>0.00</temp>
<bpm>0</bpm>
<rpm>0.00</rpm>
</extensions>
</trkpt>
<trkpt lat="64.041297913" lon="-19.328130722">
<ele>586.234375</ele>
<time>2012-07-21T23:14:19Z</time>
<speed>0.050000</speed>
<extensions>
<speed>0.1</speed>
<temp>0.00</temp>
<bpm>0</bpm>
<rpm>0.00</rpm>
</extensions>
</trkpt>
<trkpt lat="64.041297913" lon="-19.328130722">
<ele>586.296875</ele>
<time>2012-07-21T23:14:24Z</time>
<speed>0.010000</speed>
<extensions>
<speed>0.0</speed>
<temp>0.00</temp>
<bpm>0</bpm>
<rpm>0.00</rpm>
</extensions>
</trkpt>
<trkpt lat="64.041297913" lon="-19.328130722">
<ele>586.312500</ele>
<time>2012-07-21T23:14:29Z</time>
<speed>0.010000</speed>
<extensions>
<speed>0.0</speed>
<temp>0.00</temp>
<bpm>0</bpm>
<rpm>0.00</rpm>
</extensions>
</trkpt>
<trkpt lat="64.041297913" lon="-19.328130722">
<ele>586.312500</ele>
<time>2012-07-21T23:14:34Z</time>
<speed>0.010000</speed>
<extensions>
<speed>0.0</speed>
<temp>0.00</temp>
<bpm>0</bpm>
<rpm>0.00</rpm>
</extensions>
</trkpt>
<trkpt lat="64.041297913" lon="-19.328130722">
<ele>586.312500</ele>
<time>2012-07-21T23:14:39Z</time>
<speed>0.010000</speed>
<extensions>
<speed>0.0</speed>
<temp>0.00</temp>
<bpm>0</bpm>
<rpm>0.00</rpm>
</extensions>
</trkpt>
<trkpt lat="64.041297913" lon="-19.328130722">
<ele>586.312500</ele>
<time>2012-07-21T23:14:44Z</time>
<speed>0.010000</speed>
<extensions>
<speed>0.0</speed>
<temp>0.00</temp>
<bpm>0</bpm>
<rpm>0.00</rpm>
</extensions>
</trkpt>
<trkpt lat="64.041297913" lon="-19.328130722">
<ele>586.328125</ele>
<time>2012-07-21T23:14:49Z</time>
<extensions>
<speed>0.0</speed>
<temp>0.00</temp>
<bpm>0</bpm>
<rpm>0.00</rpm>
</extensions>
</trkpt>
<trkpt lat="64.041297913" lon="-19.328130722">
<ele>586.343750</ele>
<time>2012-07-21T23:14:54Z</time>
<speed>0.010000</speed>
<extensions>
<speed>0.0</speed>
<temp>0.00</temp>
<bpm>0</bpm>
<rpm>0.00</rpm>
</extensions>
</trkpt>
<trkpt lat="64.041297913" lon="-19.328130722">
<ele>586.359375</ele>
<time>2012-07-21T23:14:59Z</time>
<speed>0.010000</speed>
<extensions>
<speed>0.0</speed>
<temp>0.00</temp>
<bpm>0</bpm>
<rpm>0.00</rpm>
</extensions>
</trkpt>
<trkpt lat="64.041297913" lon="-19.328130722">
<ele>586.359375</ele>
<time>2012-07-21T23:15:04Z</time>
<extensions>
<speed>0.0</speed>
<temp>0.00</temp>
<bpm>0</bpm>
<rpm>0.00</rpm>
</extensions>
</trkpt>
<trkpt lat="64.041297913" lon="-19.328132629">
<ele>586.375000</ele>
<time>2012-07-21T23:15:09Z</time>
<extensions>
<speed>0.0</speed>
<temp>0.00</temp>
<bpm>0</bpm>
<rpm>0.00</rpm>
</extensions>
</trkpt>
<trkpt lat="64.041297913" lon="-19.328132629">
<ele>586.390625</ele>
<time>2012-07-21T23:15:14Z</time>
<extensions>
<speed>0.0</speed>
<temp>0.00</temp>
<bpm>0</bpm>
<rpm>0.00</rpm>
</extensions>
</trkpt>
<trkpt lat="64.041297913" lon="-19.328132629">
<ele>586.375000</ele>
<time>2012-07-21T23:15:19Z</time>
<speed>0.070000</speed>
<extensions>
<speed>0.1</speed>
<temp>0.00</temp>
<bpm>0</bpm>
<rpm>0.00</rpm>
</extensions>
</trkpt>
<trkpt lat="64.041328430" lon="-19.328128815">
<ele>586.218750</ele>
<time>2012-07-21T23:15:24Z</time>
<speed>1.560000</speed>
<extensions>
<speed>1.6</speed>
<temp>0.00</temp>
<bpm>0</bpm>
<rpm>0.00</rpm>
</extensions>
</trkpt>
<trkpt lat="64.041351318" lon="-19.328107834">
<ele>586.656250</ele>
<time>2012-07-21T23:15:29Z</time>
<speed>0.080000</speed>
<extensions>
<speed>0.1</speed>
<temp>0.00</temp>
<bpm>0</bpm>
<rpm>0.00</rpm>
</extensions>
</trkpt>
<trkpt lat="64.041351318" lon="-19.328109741">
<ele>586.359375</ele>
<time>2012-07-21T23:15:34Z</time>
<speed>0.020000</speed>
<extensions>
<speed>0.0</speed>
<temp>0.00</temp>
<bpm>0</bpm>
<rpm>0.00</rpm>
</extensions>
</trkpt>
<trkpt lat="64.041351318" lon="-19.328111649">
<ele>586.203125</ele>
<time>2012-07-21T23:15:39Z</time>
<speed>0.250000</speed>
<extensions>
<speed>0.2</speed>
<temp>0.00</temp>
<bpm>0</bpm>
<rpm>0.00</rpm>
</extensions>
</trkpt>
<trkpt lat="64.041358948" lon="-19.328102112">
<ele>586.171875</ele>
<time>2012-07-21T23:15:44Z</time>
<speed>0.140000</speed>
<extensions>
<speed>0.1</speed>
<temp>0.00</temp>
<bpm>0</bpm>
<rpm>0.00</rpm>
</extensions>
</trkpt>
<trkpt lat="64.041374207" lon="-19.328023911">
<ele>587.046875</ele>
<time>2012-07-21T23:15:49Z</time>
<speed>1.090000</speed>
<extensions>
<speed>1.1</speed>
<temp>0.00</temp>
<bpm>0</bpm>
<rpm>0.00</rpm>
</extensions>
</trkpt>
<trkpt lat="64.041397095" lon="-19.327898026">
<ele>587.656250</ele>
<time>2012-07-21T23:15:54Z</time>
<speed>1.280000</speed>
<extensions>
<speed>1.3</speed>
<temp>0.00</temp>
<bpm>0</bpm>
<rpm>0.00</rpm>
</extensions>
</trkpt>
<trkpt lat="64.041435242" lon="-19.327789307">
<ele>587.843750</ele>
<time>2012-07-21T23:15:59Z</time>
<speed>0.190000</speed>
<extensions>
<speed>0.2</speed>
<temp>0.00</temp>
<bpm>0</bpm>
<rpm>0.00</rpm>
</extensions>
</trkpt>
<trkpt lat="64.041442871" lon="-19.327789307">
<ele>587.609375</ele>
<time>2012-07-21T23:16:04Z</time>
<speed>0.050000</speed>
<extensions>
<speed>0.1</speed>
<temp>0.00</temp>
<bpm>0</bpm>
<rpm>0.00</rpm>
</extensions>
</trkpt>
<trkpt lat="64.041442871" lon="-19.327791214">
<ele>587.593750</ele>
<time>2012-07-21T23:16:09Z</time>
<speed>0.020000</speed>
<extensions>
<speed>0.0</speed>
<temp>0.00</temp>
<bpm>0</bpm>
<rpm>0.00</rpm>
</extensions>
</trkpt>
<trkpt lat="64.041442871" lon="-19.327791214">
<ele>587.593750</ele>
<time>2012-07-21T23:16:14Z</time>
<speed>0.020000</speed>
<extensions>
<speed>0.0</speed>
<temp>0.00</temp>
<bpm>0</bpm>
<rpm>0.00</rpm>
</extensions>
</trkpt>
<trkpt lat="64.041442871" lon="-19.327791214">
<ele>587.593750</ele>
<time>2012-07-21T23:16:19Z</time>
<speed>0.020000</speed>
<extensions>
<speed>0.0</speed>
<temp>0.00</temp>
<bpm>0</bpm>
<rpm>0.00</rpm>
</extensions>
</trkpt>
<trkpt lat="64.041442871" lon="-19.327791214">
<ele>587.593750</ele>
<time>2012-07-21T23:16:24Z</time>
<speed>0.020000</speed>
<extensions>
<speed>0.0</speed>
<temp>0.00</temp>
<bpm>0</bpm>
<rpm>0.00</rpm>
</extensions>
</trkpt>
<trkpt lat="64.041442871" lon="-19.327791214">
<ele>587.593750</ele>
<time>2012-07-21T23:16:29Z</time>
<extensions>
<speed>0.0</speed>
<temp>0.00</temp>
<bpm>0</bpm>
<rpm>0.00</rpm>
</extensions>
</trkpt>
<trkpt lat="64.041442871" lon="-19.327791214">
<ele>587.593750</ele>
<time>2012-07-21T23:16:34Z</time>
<speed>0.020000</speed>
<extensions>
<speed>0.0</speed>
<temp>0.00</temp>
<bpm>0</bpm>
<rpm>0.00</rpm>
</extensions>
</trkpt>
<trkpt lat="64.041442871" lon="-19.327791214">
<ele>587.609375</ele>
<time>2012-07-21T23:16:39Z</time>
<extensions>
<speed>0.0</speed>
<temp>0.00</temp>
<bpm>0</bpm>
<rpm>0.00</rpm>
</extensions>
</trkpt>
<trkpt lat="64.041442871" lon="-19.327791214">
<ele>587.609375</ele>
<time>2012-07-21T23:16:44Z</time>
<speed>0.010000</speed>
<extensions>
<speed>0.0</speed>
<temp>0.00</temp>
<bpm>0</bpm>
<rpm>0.00</rpm>
</extensions>
</trkpt>
<trkpt lat="64.041442871" lon="-19.327791214">
<ele>587.593750</ele>
<time>2012-07-21T23:16:49Z</time>
<speed>0.360000</speed>
<extensions>
<speed>0.4</speed>
<temp>0.00</temp>
<bpm>0</bpm>
<rpm>0.00</rpm>
</extensions>
</trkpt>
<trkpt lat="64.041458130" lon="-19.327726364">
<ele>587.203125</ele>
<time>2012-07-21T23:16:54Z</time>
<speed>1.380000</speed>
<extensions>
<speed>1.4</speed>
<temp>0.00</temp>
<bpm>0</bpm>
<rpm>0.00</rpm>
</extensions>
</trkpt>
<trkpt lat="64.041526794" lon="-19.327569962">
<ele>586.593750</ele>
<time>2012-07-21T23:16:59Z</time>
<speed>2.160000</speed>
<extensions>
<speed>2.2</speed>
<temp>0.00</temp>
<bpm>0</bpm>
<rpm>0.00</rpm>
</extensions>
</trkpt>
<trkpt lat="64.041610718" lon="-19.327335358">
<ele>587.046875</ele>
<time>2012-07-21T23:17:04Z</time>
<speed>2.680000</speed>
<extensions>
<speed>2.7</speed>
<temp>0.00</temp>
<bpm>0</bpm>
<rpm>0.00</rpm>
</extensions>
</trkpt>
<trkpt lat="64.041694641" lon="-19.327125549">
<ele>587.453125</ele>
<time>2012-07-21T23:17:09Z</time>
<speed>2.760000</speed>
<extensions>
<speed>2.8</speed>
<temp>0.00</temp>
<bpm>0</bpm>
<rpm>0.00</rpm>
</extensions>
</trkpt>
<trkpt lat="64.041778564" lon="-19.326896667">
<ele>588.109375</ele>
<time>2012-07-21T23:17:14Z</time>
<speed>2.530000</speed>
<extensions>
<speed>2.5</speed>
<temp>0.00</temp>
<bpm>0</bpm>
<rpm>0.00</rpm>
</extensions>
</trkpt>
<trkpt lat="64.041831970" lon="-19.326749802">
<ele>588.859375</ele>
<time>2012-07-21T23:17:19Z</time>
<speed>1.910000</speed>
<extensions>
<speed>1.9</speed>
<temp>0.00</temp>
<bpm>0</bpm>
<rpm>0.00</rpm>
</extensions>
</trkpt>
<trkpt lat="64.041893005" lon="-19.326581955">
<ele>589.906250</ele>
<time>2012-07-21T23:17:24Z</time>
<speed>2.310000</speed>
<extensions>
<speed>2.3</speed>
<temp>0.00</temp>
<bpm>0</bpm>
<rpm>0.00</rpm>
</extensions>
</trkpt>
<trkpt lat="64.041954041" lon="-19.326377869">
<ele>590.437500</ele>
<time>2012-07-21T23:17:29Z</time>
<speed>2.150000</speed>
<extensions>
<speed>2.1</speed>
<temp>0.00</temp>
<bpm>0</bpm>
<rpm>0.00</rpm>
</extensions>
</trkpt>
<trkpt lat="64.041999817" lon="-19.326238632">
<ele>590.828125</ele>
<time>2012-07-21T23:17:34Z</time>
<speed>1.720000</speed>
<extensions>
<speed>1.7</speed>
<temp>0.00</temp>
<bpm>0</bpm>
<rpm>0.00</rpm>
</extensions>
</trkpt>
<trkpt lat="64.042053223" lon="-19.326049805">
<ele>590.937500</ele>
<time>2012-07-21T23:17:39Z</time>
<speed>2.220000</speed>
<extensions>
<speed>2.2</speed>
<temp>0.00</temp>
<bpm>0</bpm>
<rpm>0.00</rpm>
</extensions>
</trkpt>
<trkpt lat="64.042091370" lon="-19.325891495">
<ele>591.468750</ele>
<time>2012-07-21T23:17:44Z</time>
<speed>1.840000</speed>
<extensions>
<speed>1.8</speed>
<temp>0.00</temp>
<bpm>0</bpm>
<rpm>0.00</rpm>
</extensions>
</trkpt>
<trkpt lat="64.042129517" lon="-19.325704575">
<ele>591.968750</ele>
<time>2012-07-21T23:17:49Z</time>
<speed>2.030000</speed>
<extensions>
<speed>2.0</speed>
<temp>0.00</temp>
<bpm>0</bpm>
<rpm>0.00</rpm>
</extensions>
</trkpt>
<trkpt lat="64.042167664" lon="-19.325494766">
<ele>592.609375</ele>
<time>2012-07-21T23:17:54Z</time>
<speed>2.290000</speed>
<extensions>
<speed>2.3</speed>
<temp>0.00</temp>
<bpm>0</bpm>
<rpm>0.00</rpm>
</extensions>
</trkpt>
<trkpt lat="64.042213440" lon="-19.325265884">
<ele>592.781250</ele>
<time>2012-07-21T23:17:59Z</time>
<speed>2.560000</speed>
<extensions>
<speed>2.6</speed>
<temp>0.00</temp>
<bpm>0</bpm>
<rpm>0.00</rpm>
</extensions>
</trkpt>
<trkpt lat="64.042243958" lon="-19.325017929">
<ele>593.015625</ele>
<time>2012-07-21T23:18:04Z</time>
<speed>3.020000</speed>
<extensions>
<speed>3.0</speed>
<temp>0.00</temp>
<bpm>0</bpm>
<rpm>0.00</rpm>
</extensions>
</trkpt>
<trkpt lat="64.042282104" lon="-19.324779510">
<ele>592.062500</ele>
<time>2012-07-21T23:18:09Z</time>
<speed>2.080000</speed>
<extensions>
<speed>2.1</speed>
<temp>0.00</temp>
<bpm>0</bpm>
<rpm>0.00</rpm>
</extensions>
</trkpt>
<trkpt lat="64.042312622" lon="-19.324562073">
<ele>591.562500</ele>
<time>2012-07-21T23:18:14Z</time>
<speed>2.260000</speed>
<extensions>
<speed>2.3</speed>
<temp>0.00</temp>
<bpm>0</bpm>
<rpm>0.00</rpm>
</extensions>
</trkpt>
<trkpt lat="64.042335510" lon="-19.324335098">
<ele>591.781250</ele>
<time>2012-07-21T23:18:19Z</time>
<speed>2.440000</speed>
<extensions>
<speed>2.4</speed>
<temp>0.00</temp>
<bpm>0</bpm>
<rpm>0.00</rpm>
</extensions>
</trkpt>
<trkpt lat="64.042350769" lon="-19.324111938">
<ele>592.812500</ele>
<time>2012-07-21T23:18:24Z</time>
<speed>2.240000</speed>
<extensions>
<speed>2.2</speed>
<temp>0.00</temp>
<bpm>0</bpm>
<rpm>0.00</rpm>
</extensions>
</trkpt>
<trkpt lat="64.042381287" lon="-19.323919296">
<ele>591.906250</ele>
<time>2012-07-21T23:18:29Z</time>
<speed>1.840000</speed>
<extensions>
<speed>1.8</speed>
<temp>0.00</temp>
<bpm>0</bpm>
<rpm>0.00</rpm>
</extensions>
</trkpt>
<trkpt lat="64.042396545" lon="-19.323713303">
<ele>591.859375</ele>
<time>2012-07-21T23:18:34Z</time>
<speed>2.240000</speed>
<extensions>
<speed>2.2</speed>
<temp>0.00</temp>
<bpm>0</bpm>
<rpm>0.00</rpm>
</extensions>
</trkpt>
<trkpt lat="64.042434692" lon="-19.323509216">
<ele>591.156250</ele>
<time>2012-07-21T23:18:39Z</time>
<speed>1.950000</speed>
<extensions>
<speed>1.9</speed>
<temp>0.00</temp>
<bpm>0</bpm>
<rpm>0.00</rpm>
</extensions>
</trkpt>
<trkpt lat="64.042449951" lon="-19.323266983">
<ele>591.390625</ele>
<time>2012-07-21T23:18:44Z</time>
<speed>2.290000</speed>
<extensions>
<speed>2.3</speed>
<temp>0.00</temp>
<bpm>0</bpm>
<rpm>0.00</rpm>
</extensions>
</trkpt>
<trkpt lat="64.042465210" lon="-19.323032379">
<ele>590.406250</ele>
<time>2012-07-21T23:18:49Z</time>
<speed>2.400000</speed>
<extensions>
<speed>2.4</speed>
<temp>0.00</temp>
<bpm>0</bpm>
<rpm>0.00</rpm>
</extensions>
</trkpt>
<trkpt lat="64.042472839" lon="-19.322792053">
<ele>590.578125</ele>
<time>2012-07-21T23:18:54Z</time>
<speed>2.400000</speed>
<extensions>
<speed>2.4</speed>
<temp>0.00</temp>
<bpm>0</bpm>
<rpm>0.00</rpm>
</extensions>
</trkpt>
<trkpt lat="64.042457581" lon="-19.322559357">
<ele>590.609375</ele>
<time>2012-07-21T23:18:59Z</time>
<speed>2.450000</speed>
<extensions>
<speed>2.4</speed>
<temp>0.00</temp>
<bpm>0</bpm>
<rpm>0.00</rpm>
</extensions>
</trkpt>
<trkpt lat="64.042465210" lon="-19.322360992">
<ele>589.062500</ele>
<time>2012-07-21T23:19:04Z</time>
<speed>2.260000</speed>
<extensions>
<speed>2.3</speed>
<temp>0.00</temp>
<bpm>0</bpm>
<rpm>0.00</rpm>
</extensions>
</trkpt>
<trkpt lat="64.042449951" lon="-19.322206497">
<ele>590.421875</ele>
<time>2012-07-21T23:19:09Z</time>
<speed>1.560000</speed>
<extensions>
<speed>1.6</speed>
<temp>0.00</temp>
<bpm>0</bpm>
<rpm>0.00</rpm>
</extensions>
</trkpt>
<trkpt lat="64.042442322" lon="-19.322042465">
<ele>590.984375</ele>
<time>2012-07-21T23:19:14Z</time>
<speed>1.760000</speed>
<extensions>
<speed>1.8</speed>
<temp>0.00</temp>
<bpm>0</bpm>
<rpm>0.00</rpm>
</extensions>
</trkpt>
<trkpt lat="64.042434692" lon="-19.321800232">
<ele>591.156250</ele>
<time>2012-07-21T23:19:19Z</time>
<speed>2.280000</speed>
<extensions>
<speed>2.3</speed>
<temp>0.00</temp>
<bpm>0</bpm>
<rpm>0.00</rpm>
</extensions>
</trkpt>
<trkpt lat="64.042411804" lon="-19.321533203">
<ele>590.968750</ele>
<time>2012-07-21T23:19:24Z</time>
<speed>2.450000</speed>
<extensions>
<speed>2.4</speed>
<temp>0.00</temp>
<bpm>0</bpm>
<rpm>0.00</rpm>
</extensions>
</trkpt>
<trkpt lat="64.042396545" lon="-19.321271896">
<ele>591.343750</ele>
<time>2012-07-21T23:19:29Z</time>
<speed>2.440000</speed>
<extensions>
<speed>2.4</speed>
<temp>0.00</temp>
<bpm>0</bpm>
<rpm>0.00</rpm>
</extensions>
</trkpt>
<trkpt lat="64.042396545" lon="-19.321075439">
<ele>590.421875</ele>
<time>2012-07-21T23:19:34Z</time>
<speed>1.940000</speed>
<extensions>
<speed>1.9</speed>
<temp>0.00</temp>
<bpm>0</bpm>
<rpm>0.00</rpm>
</extensions>
</trkpt>
<trkpt lat="64.042350769" lon="-19.320875168">
<ele>589.953125</ele>
<time>2012-07-21T23:19:39Z</time>
<speed>2.250000</speed>
<extensions>
<speed>2.3</speed>
<temp>0.00</temp>
<bpm>0</bpm>
<rpm>0.00</rpm>
</extensions>
</trkpt>
<trkpt lat="64.042282104" lon="-19.320688248">
<ele>593.234375</ele>
<time>2012-07-21T23:19:44Z</time>
<speed>2.240000</speed>
<extensions>
<speed>2.2</speed>
<temp>0.00</temp>
<bpm>0</bpm>
<rpm>0.00</rpm>
</extensions>
</trkpt>
<trkpt lat="64.042243958" lon="-19.320480347">
<ele>593.375000</ele>
<time>2012-07-21T23:19:49Z</time>
<speed>2.570000</speed>
<extensions>
<speed>2.6</speed>
<temp>0.00</temp>
<bpm>0</bpm>
<rpm>0.00</rpm>
</extensions>
</trkpt>
<trkpt lat="64.042213440" lon="-19.320236206">
<ele>593.968750</ele>
<time>2012-07-21T23:19:54Z</time>
<speed>2.480000</speed>
<extensions>
<speed>2.5</speed>
<temp>0.00</temp>
<bpm>0</bpm>
<rpm>0.00</rpm>
</extensions>
</trkpt>
<trkpt lat="64.042175293" lon="-19.320041656">
<ele>594.796875</ele>
<time>2012-07-21T23:19:59Z</time>
<speed>2.380000</speed>
<extensions>
<speed>2.4</speed>
<temp>0.00</temp>
<bpm>0</bpm>
<rpm>0.00</rpm>
</extensions>
</trkpt>
<trkpt lat="64.042106628" lon="-19.319835663">
<ele>595.921875</ele>
<time>2012-07-21T23:20:04Z</time>
<speed>2.230000</speed>
<extensions>
<speed>2.2</speed>
<temp>0.00</temp>
<bpm>0</bpm>
<rpm>0.00</rpm>
</extensions>
</trkpt>
<trkpt lat="64.042083740" lon="-19.319631577">
<ele>596.937500</ele>
<time>2012-07-21T23:20:09Z</time>
<speed>2.180000</speed>
<extensions>
<speed>2.2</speed>
<temp>0.00</temp>
<bpm>0</bpm>
<rpm>0.00</rpm>
</extensions>
</trkpt>
<trkpt lat="64.042045593" lon="-19.319408417">
<ele>593.375000</ele>
<time>2012-07-21T23:20:14Z</time>
<speed>1.960000</speed>
<extensions>
<speed>2.0</speed>
<temp>0.00</temp>
<bpm>0</bpm>
<rpm>0.00</rpm>
</extensions>
</trkpt>
<trkpt lat="64.042060852" lon="-19.319202423">
<ele>589.812500</ele>
<time>2012-07-21T23:20:19Z</time>
<speed>2.070000</speed>
<extensions>
<speed>2.1</speed>
<temp>0.00</temp>
<bpm>0</bpm>
<rpm>0.00</rpm>
</extensions>
</trkpt>
<trkpt lat="64.042022705" lon="-19.319051743">
<ele>587.328125</ele>
<time>2012-07-21T23:20:24Z</time>
<speed>1.300000</speed>
<extensions>
<speed>1.3</speed>
<temp>0.00</temp>
<bpm>0</bpm>
<rpm>0.00</rpm>
</extensions>
</trkpt>
<trkpt lat="64.042022705" lon="-19.318889618">
<ele>585.062500</ele>
<time>2012-07-21T23:20:29Z</time>
<speed>1.580000</speed>
<extensions>
<speed>1.6</speed>
<temp>0.00</temp>
<bpm>0</bpm>
<rpm>0.00</rpm>
</extensions>
</trkpt>
<trkpt lat="64.041984558" lon="-19.318780899">
<ele>585.859375</ele>
<time>2012-07-21T23:20:34Z</time>
<speed>1.500000</speed>
<extensions>
<speed>1.5</speed>
<temp>0.00</temp>
<bpm>0</bpm>
<rpm>0.00</rpm>
</extensions>
</trkpt>
<trkpt lat="64.041954041" lon="-19.318656921">
<ele>588.593750</ele>
<time>2012-07-21T23:20:39Z</time>
<speed>1.690000</speed>
<extensions>
<speed>1.7</speed>
<temp>0.00</temp>
<bpm>0</bpm>
<rpm>0.00</rpm>
</extensions>
</trkpt>
<trkpt lat="64.041961670" lon="-19.318473816">
<ele>588.625000</ele>
<time>2012-07-21T23:20:44Z</time>
<speed>1.950000</speed>
<extensions>
<speed>1.9</speed>
<temp>0.00</temp>
<bpm>0</bpm>
<rpm>0.00</rpm>
</extensions>
</trkpt>
<trkpt lat="64.041961670" lon="-19.318256378">
<ele>587.328125</ele>
<time>2012-07-21T23:20:49Z</time>
<speed>1.890000</speed>
<extensions>
<speed>1.9</speed>
<temp>0.00</temp>
<bpm>0</bpm>
<rpm>0.00</rpm>
</extensions>
</trkpt>
<trkpt lat="64.041961670" lon="-19.318031311">
<ele>586.656250</ele>
<time>2012-07-21T23:20:54Z</time>
<speed>2.360000</speed>
<extensions>
<speed>2.4</speed>
<temp>0.00</temp>
<bpm>0</bpm>
<rpm>0.00</rpm>
</extensions>
</trkpt>
<trkpt lat="64.041931152" lon="-19.317804337">
<ele>586.125000</ele>
<time>2012-07-21T23:20:59Z</time>
<speed>1.980000</speed>
<extensions>
<speed>2.0</speed>
<temp>0.00</temp>
<bpm>0</bpm>
<rpm>0.00</rpm>
</extensions>
</trkpt>
<trkpt lat="64.041908264" lon="-19.317575455">
<ele>584.703125</ele>
<time>2012-07-21T23:21:04Z</time>
<speed>2.230000</speed>
<extensions>
<speed>2.2</speed>
<temp>0.00</temp>
<bpm>0</bpm>
<rpm>0.00</rpm>
</extensions>
</trkpt>
<trkpt lat="64.041946411" lon="-19.317310333">
<ele>583.625000</ele>
<time>2012-07-21T23:21:09Z</time>
<speed>1.990000</speed>
<extensions>
<speed>2.0</speed>
<temp>0.00</temp>
<bpm>0</bpm>
<rpm>0.00</rpm>
</extensions>
</trkpt>
<trkpt lat="64.041946411" lon="-19.317123413">
<ele>584.093750</ele>
<time>2012-07-21T23:21:14Z</time>
<speed>2.120000</speed>
<extensions>
<speed>2.1</speed>
<temp>0.00</temp>
<bpm>0</bpm>
<rpm>0.00</rpm>
</extensions>
</trkpt>
<trkpt lat="64.041931152" lon="-19.316972733">
<ele>585.859375</ele>
<time>2012-07-21T23:21:19Z</time>
<speed>2.130000</speed>
<extensions>
<speed>2.1</speed>
<temp>0.00</temp>
<bpm>0</bpm>
<rpm>0.00</rpm>
</extensions>
</trkpt>
<trkpt lat="64.041908264" lon="-19.316799164">
<ele>589.468750</ele>
<time>2012-07-21T23:21:24Z</time>
<speed>2.170000</speed>
<extensions>
<speed>2.2</speed>
<temp>0.00</temp>
<bpm>0</bpm>
<rpm>0.00</rpm>
</extensions>
</trkpt>
<trkpt lat="64.041862488" lon="-19.316579819">
<ele>593.000000</ele>
<time>2012-07-21T23:21:29Z</time>
<speed>2.200000</speed>
<extensions>
<speed>2.2</speed>
<temp>0.00</temp>
<bpm>0</bpm>
<rpm>0.00</rpm>
</extensions>
</trkpt>
<trkpt lat="64.041824341" lon="-19.316347122">
<ele>594.640625</ele>
<time>2012-07-21T23:21:34Z</time>
<speed>1.970000</speed>
<extensions>
<speed>2.0</speed>
<temp>0.00</temp>
<bpm>0</bpm>
<rpm>0.00</rpm>
</extensions>
</trkpt>
<trkpt lat="64.041786194" lon="-19.316209793">
<ele>598.734375</ele>
<time>2012-07-21T23:21:39Z</time>
<speed>1.540000</speed>
<extensions>
<speed>1.5</speed>
<temp>0.00</temp>
<bpm>0</bpm>
<rpm>0.00</rpm>
</extensions>
</trkpt>
<trkpt lat="64.041786194" lon="-19.316080093">
<ele>599.859375</ele>
<time>2012-07-21T23:21:44Z</time>
<speed>1.550000</speed>
<extensions>
<speed>1.5</speed>
<temp>0.00</temp>
<bpm>0</bpm>
<rpm>0.00</rpm>
</extensions>
</trkpt>
<trkpt lat="64.041786194" lon="-19.315923691">
<ele>601.125000</ele>
<time>2012-07-21T23:21:49Z</time>
<speed>1.430000</speed>
<extensions>
<speed>1.4</speed>
<temp>0.00</temp>
<bpm>0</bpm>
<rpm>0.00</rpm>
</extensions>
</trkpt>
<trkpt lat="64.041801453" lon="-19.315748215">
<ele>600.937500</ele>
<time>2012-07-21T23:21:54Z</time>
<speed>1.700000</speed>
<extensions>
<speed>1.7</speed>
<temp>0.00</temp>
<bpm>0</bpm>
<rpm>0.00</rpm>
</extensions>
</trkpt>
<trkpt lat="64.041801453" lon="-19.315526962">
<ele>600.281250</ele>
<time>2012-07-21T23:21:59Z</time>
<speed>1.820000</speed>
<extensions>
<speed>1.8</speed>
<temp>0.00</temp>
<bpm>0</bpm>
<rpm>0.00</rpm>
</extensions>
</trkpt>
<trkpt lat="64.041809082" lon="-19.315351486">
<ele>600.093750</ele>
<time>2012-07-21T23:22:04Z</time>
<speed>1.730000</speed>
<extensions>
<speed>1.7</speed>
<temp>0.00</temp>
<bpm>0</bpm>
<rpm>0.00</rpm>
</extensions>
</trkpt>
<trkpt lat="64.041809082" lon="-19.315145493">
<ele>598.703125</ele>
<time>2012-07-21T23:22:09Z</time>
<speed>1.270000</speed>
<extensions>
<speed>1.3</speed>
<temp>0.00</temp>
<bpm>0</bpm>
<rpm>0.00</rpm>
</extensions>
</trkpt>
<trkpt lat="64.041809082" lon="-19.314975739">
<ele>598.796875</ele>
<time>2012-07-21T23:22:14Z</time>
<speed>1.240000</speed>
<extensions>
<speed>1.2</speed>
<temp>0.00</temp>
<bpm>0</bpm>
<rpm>0.00</rpm>
</extensions>
</trkpt>
<trkpt lat="64.041847229" lon="-19.314847946">
<ele>593.531250</ele>
<time>2012-07-21T23:22:19Z</time>
<speed>1.760000</speed>
<extensions>
<speed>1.8</speed>
<temp>0.00</temp>
<bpm>0</bpm>
<rpm>0.00</rpm>
</extensions>
</trkpt>
<trkpt lat="64.041831970" lon="-19.314670563">
<ele>592.671875</ele>
<time>2012-07-21T23:22:24Z</time>
<speed>1.670000</speed>
<extensions>
<speed>1.7</speed>
<temp>0.00</temp>
<bpm>0</bpm>
<rpm>0.00</rpm>
</extensions>
</trkpt>
<trkpt lat="64.041824341" lon="-19.314529419">
<ele>592.156250</ele>
<time>2012-07-21T23:22:29Z</time>
<speed>1.540000</speed>
<extensions>
<speed>1.5</speed>
<temp>0.00</temp>
<bpm>0</bpm>
<rpm>0.00</rpm>
</extensions>
</trkpt>
<trkpt lat="64.041816711" lon="-19.314367294">
<ele>590.593750</ele>
<time>2012-07-21T23:22:34Z</time>
<speed>1.440000</speed>
<extensions>
<speed>1.4</speed>
<temp>0.00</temp>
<bpm>0</bpm>
<rpm>0.00</rpm>
</extensions>
</trkpt>
<trkpt lat="64.041824341" lon="-19.314189911">
<ele>589.546875</ele>
<time>2012-07-21T23:22:39Z</time>
<speed>1.940000</speed>
<extensions>
<speed>1.9</speed>
<temp>0.00</temp>
<bpm>0</bpm>
<rpm>0.00</rpm>
</extensions>
</trkpt>
<trkpt lat="64.041847229" lon="-19.314002991">
<ele>588.390625</ele>
<time>2012-07-21T23:22:44Z</time>
<speed>1.210000</speed>
<extensions>
<speed>1.2</speed>
<temp>0.00</temp>
<bpm>0</bpm>
<rpm>0.00</rpm>
</extensions>
</trkpt>
<trkpt lat="64.041870117" lon="-19.313919067">
<ele>589.250000</ele>
<time>2012-07-21T23:22:49Z</time>
<speed>1.580000</speed>
<extensions>
<speed>1.6</speed>
<temp>0.00</temp>
<bpm>0</bpm>
<rpm>0.00</rpm>
</extensions>
</trkpt>
<trkpt lat="64.041870117" lon="-19.313737869">
<ele>588.500000</ele>
<time>2012-07-21T23:22:54Z</time>
<speed>1.800000</speed>
<extensions>
<speed>1.8</speed>
<temp>0.00</temp>
<bpm>0</bpm>
<rpm>0.00</rpm>
</extensions>
</trkpt>
<trkpt lat="64.041893005" lon="-19.313558578">
<ele>588.406250</ele>
<time>2012-07-21T23:22:59Z</time>
<speed>1.320000</speed>
<extensions>
<speed>1.3</speed>
<temp>0.00</temp>
<bpm>0</bpm>
<rpm>0.00</rpm>
</extensions>
</trkpt>
<trkpt lat="64.041885376" lon="-19.313440323">
<ele>588.640625</ele>
<time>2012-07-21T23:23:04Z</time>
<speed>1.320000</speed>
<extensions>
<speed>1.3</speed>
<temp>0.00</temp>
<bpm>0</bpm>
<rpm>0.00</rpm>
</extensions>
</trkpt>
<trkpt lat="64.041885376" lon="-19.313320160">
<ele>591.343750</ele>
<time>2012-07-21T23:23:09Z</time>
<speed>1.610000</speed>
<extensions>
<speed>1.6</speed>
<temp>0.00</temp>
<bpm>0</bpm>
<rpm>0.00</rpm>
</extensions>
</trkpt>
<trkpt lat="64.041885376" lon="-19.313154221">
<ele>592.312500</ele>
<time>2012-07-21T23:23:14Z</time>
<speed>1.580000</speed>
<extensions>
<speed>1.6</speed>
<temp>0.00</temp>
<bpm>0</bpm>
<rpm>0.00</rpm>
</extensions>
</trkpt>
<trkpt lat="64.041908264" lon="-19.312978745">
<ele>589.687500</ele>
<time>2012-07-21T23:23:19Z</time>
<speed>1.700000</speed>
<extensions>
<speed>1.7</speed>
<temp>0.00</temp>
<bpm>0</bpm>
<rpm>0.00</rpm>
</extensions>
</trkpt>
<trkpt lat="64.041885376" lon="-19.312795639">
<ele>587.703125</ele>
<time>2012-07-21T23:23:24Z</time>
<speed>1.910000</speed>
<extensions>
<speed>1.9</speed>
<temp>0.00</temp>
<bpm>0</bpm>
<rpm>0.00</rpm>
</extensions>
</trkpt>
<trkpt lat="64.041885376" lon="-19.312574387">
<ele>586.406250</ele>
<time>2012-07-21T23:23:29Z</time>
<speed>2.290000</speed>
<extensions>
<speed>2.3</speed>
<temp>0.00</temp>
<bpm>0</bpm>
<rpm>0.00</rpm>
</extensions>
</trkpt>
<trkpt lat="64.041885376" lon="-19.312335968">
<ele>585.734375</ele>
<time>2012-07-21T23:23:34Z</time>
<speed>1.440000</speed>
<extensions>
<speed>1.4</speed>
<temp>0.00</temp>
<bpm>0</bpm>
<rpm>0.00</rpm>
</extensions>
</trkpt>
<trkpt lat="64.041870117" lon="-19.312179565">
<ele>586.109375</ele>
<time>2012-07-21T23:23:39Z</time>
<speed>1.860000</speed>
<extensions>
<speed>1.9</speed>
<temp>0.00</temp>
<bpm>0</bpm>
<rpm>0.00</rpm>
</extensions>
</trkpt>
<trkpt lat="64.041862488" lon="-19.311944962">
<ele>585.265625</ele>
<time>2012-07-21T23:23:44Z</time>
<speed>1.470000</speed>
<extensions>
<speed>1.5</speed>
<temp>0.00</temp>
<bpm>0</bpm>
<rpm>0.00</rpm>
</extensions>
</trkpt>
<trkpt lat="64.041854858" lon="-19.311794281">
<ele>587.484375</ele>
<time>2012-07-21T23:23:49Z</time>
<speed>1.720000</speed>
<extensions>
<speed>1.7</speed>
<temp>0.00</temp>
<bpm>0</bpm>
<rpm>0.00</rpm>
</extensions>
</trkpt>
<trkpt lat="64.041847229" lon="-19.311611176">
<ele>586.921875</ele>
<time>2012-07-21T23:23:54Z</time>
<speed>2.040000</speed>
<extensions>
<speed>2.0</speed>
<temp>0.00</temp>
<bpm>0</bpm>
<rpm>0.00</rpm>
</extensions>
</trkpt>
<trkpt lat="64.041862488" lon="-19.311403275">
<ele>587.390625</ele>
<time>2012-07-21T23:23:59Z</time>
<speed>1.790000</speed>
<extensions>
<speed>1.8</speed>
<temp>0.00</temp>
<bpm>0</bpm>
<rpm>0.00</rpm>
</extensions>
</trkpt>
<trkpt lat="64.041870117" lon="-19.311239243">
<ele>588.312500</ele>
<time>2012-07-21T23:24:04Z</time>
<speed>2.140000</speed>
<extensions>
<speed>2.1</speed>
<temp>0.00</temp>
<bpm>0</bpm>
<rpm>0.00</rpm>
</extensions>
</trkpt>
<trkpt lat="64.041893005" lon="-19.311042786">
<ele>588.843750</ele>
<time>2012-07-21T23:24:09Z</time>
<speed>1.380000</speed>
<extensions>
<speed>1.4</speed>
<temp>0.00</temp>
<bpm>0</bpm>
<rpm>0.00</rpm>
</extensions>
</trkpt>
<trkpt lat="64.041893005" lon="-19.310914993">
<ele>588.843750</ele>
<time>2012-07-21T23:24:14Z</time>
<speed>1.450000</speed>
<extensions>
<speed>1.4</speed>
<temp>0.00</temp>
<bpm>0</bpm>
<rpm>0.00</rpm>
</extensions>
</trkpt>
<trkpt lat="64.041900635" lon="-19.310691833">
<ele>589.171875</ele>
<time>2012-07-21T23:24:19Z</time>
<speed>1.800000</speed>
<extensions>
<speed>1.8</speed>
<temp>0.00</temp>
<bpm>0</bpm>
<rpm>0.00</rpm>
</extensions>
</trkpt>
<trkpt lat="64.041900635" lon="-19.310514450">
<ele>587.953125</ele>
<time>2012-07-21T23:24:24Z</time>
<speed>2.090000</speed>
<extensions>
<speed>2.1</speed>
<temp>0.00</temp>
<bpm>0</bpm>
<rpm>0.00</rpm>
</extensions>
</trkpt>
<trkpt lat="64.041893005" lon="-19.310298920">
<ele>587.812500</ele>
<time>2012-07-21T23:24:29Z</time>
<speed>2.180000</speed>
<extensions>
<speed>2.2</speed>
<temp>0.00</temp>
<bpm>0</bpm>
<rpm>0.00</rpm>
</extensions>
</trkpt>
<trkpt lat="64.041900635" lon="-19.310098648">
<ele>588.828125</ele>
<time>2012-07-21T23:24:34Z</time>
<speed>1.080000</speed>
<extensions>
<speed>1.1</speed>
<temp>0.00</temp>
<bpm>0</bpm>
<rpm>0.00</rpm>
</extensions>
</trkpt>
<trkpt lat="64.041908264" lon="-19.310066223">
<ele>588.796875</ele>
<time>2012-07-21T23:24:39Z</time>
<speed>0.130000</speed>
<extensions>
<speed>0.1</speed>
<temp>0.00</temp>
<bpm>0</bpm>
<rpm>0.00</rpm>
</extensions>
</trkpt>
<trkpt lat="64.041908264" lon="-19.310050964">
<ele>588.859375</ele>
<time>2012-07-21T23:24:44Z</time>
<speed>0.190000</speed>
<extensions>
<speed>0.2</speed>
<temp>0.00</temp>
<bpm>0</bpm>
<rpm>0.00</rpm>
</extensions>
</trkpt>
<trkpt lat="64.041908264" lon="-19.310045242">
<ele>588.921875</ele>
<time>2012-07-21T23:24:49Z</time>
<speed>0.110000</speed>
<extensions>
<speed>0.1</speed>
<temp>0.00</temp>
<bpm>0</bpm>
<rpm>0.00</rpm>
</extensions>
</trkpt>
<trkpt lat="64.041908264" lon="-19.310043335">
<ele>588.937500</ele>
<time>2012-07-21T23:24:54Z</time>
<speed>0.030000</speed>
<extensions>
<speed>0.0</speed>
<temp>0.00</temp>
<bpm>0</bpm>
<rpm>0.00</rpm>
</extensions>
</trkpt>
<trkpt lat="64.041908264" lon="-19.310045242">
<ele>588.953125</ele>
<time>2012-07-21T23:24:59Z</time>
<extensions>
<speed>0.0</speed>
<temp>0.00</temp>
<bpm>0</bpm>
<rpm>0.00</rpm>
</extensions>
</trkpt>
<trkpt lat="64.041908264" lon="-19.310047150">
<ele>588.937500</ele>
<time>2012-07-21T23:25:04Z</time>
<speed>0.030000</speed>
<extensions>
<speed>0.0</speed>
<temp>0.00</temp>
<bpm>0</bpm>
<rpm>0.00</rpm>
</extensions>
</trkpt>
<trkpt lat="64.041900635" lon="-19.310047150">
<ele>588.968750</ele>
<time>2012-07-21T23:25:09Z</time>
<speed>0.050000</speed>
<extensions>
<speed>0.1</speed>
<temp>0.00</temp>
<bpm>0</bpm>
<rpm>0.00</rpm>
</extensions>
</trkpt>
<trkpt lat="64.041908264" lon="-19.309984207">
<ele>588.484375</ele>
<time>2012-07-21T23:25:14Z</time>
<speed>1.300000</speed>
<extensions>
<speed>1.3</speed>
<temp>0.00</temp>
<bpm>0</bpm>
<rpm>0.00</rpm>
</extensions>
</trkpt>
<trkpt lat="64.041923523" lon="-19.309850693">
<ele>589.109375</ele>
<time>2012-07-21T23:25:19Z</time>
<speed>0.820000</speed>
<extensions>
<speed>0.8</speed>
<temp>0.00</temp>
<bpm>0</bpm>
<rpm>0.00</rpm>
</extensions>
</trkpt>
<trkpt lat="64.041946411" lon="-19.309700012">
<ele>588.703125</ele>
<time>2012-07-21T23:25:24Z</time>
<speed>0.630000</speed>
<extensions>
<speed>0.6</speed>
<temp>0.00</temp>
<bpm>0</bpm>
<rpm>0.00</rpm>
</extensions>
</trkpt>
<trkpt lat="64.041938782" lon="-19.309621811">
<ele>589.046875</ele>
<time>2012-07-21T23:25:29Z</time>
<speed>1.880000</speed>
<extensions>
<speed>1.9</speed>
<temp>0.00</temp>
<bpm>0</bpm>
<rpm>0.00</rpm>
</extensions>
</trkpt>
<trkpt lat="64.041976929" lon="-19.309459686">
<ele>589.703125</ele>
<time>2012-07-21T23:25:34Z</time>
<speed>1.680000</speed>
<extensions>
<speed>1.7</speed>
<temp>0.00</temp>
<bpm>0</bpm>
<rpm>0.00</rpm>
</extensions>
</trkpt>
<trkpt lat="64.041999817" lon="-19.309299469">
<ele>590.593750</ele>
<time>2012-07-21T23:25:39Z</time>
<speed>1.500000</speed>
<extensions>
<speed>1.5</speed>
<temp>0.00</temp>
<bpm>0</bpm>
<rpm>0.00</rpm>
</extensions>
</trkpt>
<trkpt lat="64.042007446" lon="-19.309196472">
<ele>591.781250</ele>
<time>2012-07-21T23:25:44Z</time>
<speed>1.160000</speed>
<extensions>
<speed>1.2</speed>
<temp>0.00</temp>
<bpm>0</bpm>
<rpm>0.00</rpm>
</extensions>
</trkpt>
<trkpt lat="64.042030334" lon="-19.309116364">
<ele>593.187500</ele>
<time>2012-07-21T23:25:49Z</time>
<speed>1.180000</speed>
<extensions>
<speed>1.2</speed>
<temp>0.00</temp>
<bpm>0</bpm>
<rpm>0.00</rpm>
</extensions>
</trkpt>
<trkpt lat="64.042060852" lon="-19.308956146">
<ele>592.781250</ele>
<time>2012-07-21T23:25:54Z</time>
<speed>1.530000</speed>
<extensions>
<speed>1.5</speed>
<temp>0.00</temp>
<bpm>0</bpm>
<rpm>0.00</rpm>
</extensions>
</trkpt>
<trkpt lat="64.042091370" lon="-19.308832169">
<ele>591.937500</ele>
<time>2012-07-21T23:25:59Z</time>
<speed>1.230000</speed>
<extensions>
<speed>1.2</speed>
<temp>0.00</temp>
<bpm>0</bpm>
<rpm>0.00</rpm>
</extensions>
</trkpt>
<trkpt lat="64.042121887" lon="-19.308683395">
<ele>591.875000</ele>
<time>2012-07-21T23:26:04Z</time>
<speed>1.660000</speed>
<extensions>
<speed>1.7</speed>
<temp>0.00</temp>
<bpm>0</bpm>
<rpm>0.00</rpm>
</extensions>
</trkpt>
<trkpt lat="64.042160034" lon="-19.308504105">
<ele>591.343750</ele>
<time>2012-07-21T23:26:09Z</time>
<speed>1.800000</speed>
<extensions>
<speed>1.8</speed>
<temp>0.00</temp>
<bpm>0</bpm>
<rpm>0.00</rpm>
</extensions>
</trkpt>
<trkpt lat="64.042198181" lon="-19.308332443">
<ele>591.375000</ele>
<time>2012-07-21T23:26:14Z</time>
<speed>1.630000</speed>
<extensions>
<speed>1.6</speed>
<temp>0.00</temp>
<bpm>0</bpm>
<rpm>0.00</rpm>
</extensions>
</trkpt>
<trkpt lat="64.042243958" lon="-19.308162689">
<ele>590.796875</ele>
<time>2012-07-21T23:26:19Z</time>
<speed>1.970000</speed>
<extensions>
<speed>2.0</speed>
<temp>0.00</temp>
<bpm>0</bpm>
<rpm>0.00</rpm>
</extensions>
</trkpt>
<trkpt lat="64.042274475" lon="-19.307975769">
<ele>590.656250</ele>
<time>2012-07-21T23:26:24Z</time>
<speed>2.320000</speed>
<extensions>
<speed>2.3</speed>
<temp>0.00</temp>
<bpm>0</bpm>
<rpm>0.00</rpm>
</extensions>
</trkpt>
<trkpt lat="64.042312622" lon="-19.307752609">
<ele>590.250000</ele>
<time>2012-07-21T23:26:29Z</time>
<speed>2.440000</speed>
<extensions>
<speed>2.4</speed>
<temp>0.00</temp>
<bpm>0</bpm>
<rpm>0.00</rpm>
</extensions>
</trkpt>
<trkpt lat="64.042366028" lon="-19.307508469">
<ele>587.609375</ele>
<time>2012-07-21T23:26:34Z</time>
<speed>2.020000</speed>
<extensions>
<speed>2.0</speed>
<temp>0.00</temp>
<bpm>0</bpm>
<rpm>0.00</rpm>
</extensions>
</trkpt>
<trkpt lat="64.042388916" lon="-19.307277679">
<ele>588.765625</ele>
<time>2012-07-21T23:26:39Z</time>
<speed>2.390000</speed>
<extensions>
<speed>2.4</speed>
<temp>0.00</temp>
<bpm>0</bpm>
<rpm>0.00</rpm>
</extensions>
</trkpt>
<trkpt lat="64.042411804" lon="-19.307054520">
<ele>587.734375</ele>
<time>2012-07-21T23:26:44Z</time>
<speed>2.190000</speed>
<extensions>
<speed>2.2</speed>
<temp>0.00</temp>
<bpm>0</bpm>
<rpm>0.00</rpm>
</extensions>
</trkpt>
<trkpt lat="64.042457581" lon="-19.306848526">
<ele>589.000000</ele>
<time>2012-07-21T23:26:49Z</time>
<speed>2.110000</speed>
<extensions>
<speed>2.1</speed>
<temp>0.00</temp>
<bpm>0</bpm>
<rpm>0.00</rpm>
</extensions>
</trkpt>
<trkpt lat="64.042495728" lon="-19.306674957">
<ele>589.734375</ele>
<time>2012-07-21T23:26:54Z</time>
<speed>1.940000</speed>
<extensions>
<speed>1.9</speed>
<temp>0.00</temp>
<bpm>0</bpm>
<rpm>0.00</rpm>
</extensions>
</trkpt>
<trkpt lat="64.042549133" lon="-19.306497574">
<ele>589.500000</ele>
<time>2012-07-21T23:26:59Z</time>
<speed>1.990000</speed>
<extensions>
<speed>2.0</speed>
<temp>0.00</temp>
<bpm>0</bpm>
<rpm>0.00</rpm>
</extensions>
</trkpt>
<trkpt lat="64.042594910" lon="-19.306339264">
<ele>590.234375</ele>
<time>2012-07-21T23:27:04Z</time>
<speed>1.260000</speed>
<extensions>
<speed>1.3</speed>
<temp>0.00</temp>
<bpm>0</bpm>
<rpm>0.00</rpm>
</extensions>
</trkpt>
<trkpt lat="64.042648315" lon="-19.306171417">
<ele>591.000000</ele>
<time>2012-07-21T23:27:09Z</time>
<speed>1.950000</speed>
<extensions>
<speed>1.9</speed>
<temp>0.00</temp>
<bpm>0</bpm>
<rpm>0.00</rpm>
</extensions>
</trkpt>
<trkpt lat="64.042694092" lon="-19.306011200">
<ele>591.140625</ele>
<time>2012-07-21T23:27:14Z</time>
<speed>1.910000</speed>
<extensions>
<speed>1.9</speed>
<temp>0.00</temp>
<bpm>0</bpm>
<rpm>0.00</rpm>
</extensions>
</trkpt>
<trkpt lat="64.042739868" lon="-19.305837631">
<ele>591.593750</ele>
<time>2012-07-21T23:27:19Z</time>
<speed>1.800000</speed>
<extensions>
<speed>1.8</speed>
<temp>0.00</temp>
<bpm>0</bpm>
<rpm>0.00</rpm>
</extensions>
</trkpt>
<trkpt lat="64.042785645" lon="-19.305667877">
<ele>591.296875</ele>
<time>2012-07-21T23:27:24Z</time>
<speed>1.670000</speed>
<extensions>
<speed>1.7</speed>
<temp>0.00</temp>
<bpm>0</bpm>
<rpm>0.00</rpm>
</extensions>
</trkpt>
<trkpt lat="64.042808533" lon="-19.305494308">
<ele>590.703125</ele>
<time>2012-07-21T23:27:29Z</time>
<speed>1.890000</speed>
<extensions>
<speed>1.9</speed>
<temp>0.00</temp>
<bpm>0</bpm>
<rpm>0.00</rpm>
</extensions>
</trkpt>
<trkpt lat="64.042846680" lon="-19.305276871">
<ele>590.765625</ele>
<time>2012-07-21T23:27:34Z</time>
<speed>2.120000</speed>
<extensions>
<speed>2.1</speed>
<temp>0.00</temp>
<bpm>0</bpm>
<rpm>0.00</rpm>
</extensions>
</trkpt>
<trkpt lat="64.042900085" lon="-19.305063248">
<ele>590.156250</ele>
<time>2012-07-21T23:27:39Z</time>
<speed>2.860000</speed>
<extensions>
<speed>2.9</speed>
<temp>0.00</temp>
<bpm>0</bpm>
<rpm>0.00</rpm>
</extensions>
</trkpt>
<trkpt lat="64.042984009" lon="-19.304832458">
<ele>590.359375</ele>
<time>2012-07-21T23:27:44Z</time>
<speed>2.770000</speed>
<extensions>
<speed>2.8</speed>
<temp>0.00</temp>
<bpm>0</bpm>
<rpm>0.00</rpm>
</extensions>
</trkpt>
<trkpt lat="64.043052673" lon="-19.304641724">
<ele>590.046875</ele>
<time>2012-07-21T23:27:49Z</time>
<speed>2.730000</speed>
<extensions>
<speed>2.7</speed>
<temp>0.00</temp>
<bpm>0</bpm>
<rpm>0.00</rpm>
</extensions>
</trkpt>
<trkpt lat="64.043128967" lon="-19.304426193">
<ele>589.500000</ele>
<time>2012-07-21T23:27:54Z</time>
<speed>2.740000</speed>
<extensions>
<speed>2.7</speed>
<temp>0.00</temp>
<bpm>0</bpm>
<rpm>0.00</rpm>
</extensions>
</trkpt>
<trkpt lat="64.043197632" lon="-19.304237366">
<ele>588.906250</ele>
<time>2012-07-21T23:27:59Z</time>
<speed>2.930000</speed>
<extensions>
<speed>2.9</speed>
<temp>0.00</temp>
<bpm>0</bpm>
<rpm>0.00</rpm>
</extensions>
</trkpt>
<trkpt lat="64.043273926" lon="-19.304025650">
<ele>588.453125</ele>
<time>2012-07-21T23:28:04Z</time>
<speed>2.610000</speed>
<extensions>
<speed>2.6</speed>
<temp>0.00</temp>
<bpm>0</bpm>
<rpm>0.00</rpm>
</extensions>
</trkpt>
<trkpt lat="64.043395996" lon="-19.303800583">
<ele>588.015625</ele>
<time>2012-07-21T23:28:09Z</time>
<speed>2.820000</speed>
<extensions>
<speed>2.8</speed>
<temp>0.00</temp>
<bpm>0</bpm>
<rpm>0.00</rpm>
</extensions>
</trkpt>
<trkpt lat="64.043479919" lon="-19.303596497">
<ele>589.812500</ele>
<time>2012-07-21T23:28:14Z</time>
<speed>2.650000</speed>
<extensions>
<speed>2.6</speed>
<temp>0.00</temp>
<bpm>0</bpm>
<rpm>0.00</rpm>
</extensions>
</trkpt>
<trkpt lat="64.043556213" lon="-19.303407669">
<ele>590.609375</ele>
<time>2012-07-21T23:28:19Z</time>
<speed>2.520000</speed>
<extensions>
<speed>2.5</speed>
<temp>0.00</temp>
<bpm>0</bpm>
<rpm>0.00</rpm>
</extensions>
</trkpt>
<trkpt lat="64.043640137" lon="-19.303182602">
<ele>592.250000</ele>
<time>2012-07-21T23:28:24Z</time>
<speed>2.550000</speed>
<extensions>
<speed>2.6</speed>
<temp>0.00</temp>
<bpm>0</bpm>
<rpm>0.00</rpm>
</extensions>
</trkpt>
<trkpt lat="64.043716431" lon="-19.302989960">
<ele>592.562500</ele>
<time>2012-07-21T23:28:29Z</time>
<speed>2.710000</speed>
<extensions>
<speed>2.7</speed>
<temp>0.00</temp>
<bpm>0</bpm>
<rpm>0.00</rpm>
</extensions>
</trkpt>
<trkpt lat="64.043792725" lon="-19.302801132">
<ele>589.968750</ele>
<time>2012-07-21T23:28:34Z</time>
<speed>2.390000</speed>
<extensions>
<speed>2.4</speed>
<temp>0.00</temp>
<bpm>0</bpm>
<rpm>0.00</rpm>
</extensions>
</trkpt>
<trkpt lat="64.043876648" lon="-19.302606583">
<ele>589.828125</ele>
<time>2012-07-21T23:28:39Z</time>
<speed>2.860000</speed>
<extensions>
<speed>2.9</speed>
<temp>0.00</temp>
<bpm>0</bpm>
<rpm>0.00</rpm>
</extensions>
</trkpt>
<trkpt lat="64.043975830" lon="-19.302408218">
<ele>590.953125</ele>
<time>2012-07-21T23:28:44Z</time>
<speed>2.940000</speed>
<extensions>
<speed>2.9</speed>
<temp>0.00</temp>
<bpm>0</bpm>
<rpm>0.00</rpm>
</extensions>
</trkpt>
<trkpt lat="64.044082642" lon="-19.302236557">
<ele>590.531250</ele>
<time>2012-07-21T23:28:49Z</time>
<speed>3.010000</speed>
<extensions>
<speed>3.0</speed>
<temp>0.00</temp>
<bpm>0</bpm>
<rpm>0.00</rpm>
</extensions>
</trkpt>
<trkpt lat="64.044189453" lon="-19.302072525">
<ele>590.390625</ele>
<time>2012-07-21T23:28:54Z</time>
<speed>3.200000</speed>
<extensions>
<speed>3.2</speed>
<temp>0.00</temp>
<bpm>0</bpm>
<rpm>0.00</rpm>
</extensions>
</trkpt>
<trkpt lat="64.044296265" lon="-19.301939011">
<ele>589.031250</ele>
<time>2012-07-21T23:28:59Z</time>
<speed>3.020000</speed>
<extensions>
<speed>3.0</speed>
<temp>0.00</temp>
<bpm>0</bpm>
<rpm>0.00</rpm>
</extensions>
</trkpt>
<trkpt lat="64.044410706" lon="-19.301786423">
<ele>588.265625</ele>
<time>2012-07-21T23:29:04Z</time>
<speed>3.110000</speed>
<extensions>
<speed>3.1</speed>
<temp>0.00</temp>
<bpm>0</bpm>
<rpm>0.00</rpm>
</extensions>
</trkpt>
<trkpt lat="64.044540405" lon="-19.301626205">
<ele>588.578125</ele>
<time>2012-07-21T23:29:09Z</time>
<speed>3.370000</speed>
<extensions>
<speed>3.4</speed>
<temp>0.00</temp>
<bpm>0</bpm>
<rpm>0.00</rpm>
</extensions>
</trkpt>
<trkpt lat="64.044662476" lon="-19.301450729">
<ele>588.140625</ele>
<time>2012-07-21T23:29:14Z</time>
<speed>3.340000</speed>
<extensions>
<speed>3.3</speed>
<temp>0.00</temp>
<bpm>0</bpm>
<rpm>0.00</rpm>
</extensions>
</trkpt>
<trkpt lat="64.044792175" lon="-19.301279068">
<ele>586.062500</ele>
<time>2012-07-21T23:29:19Z</time>
<speed>3.460000</speed>
<extensions>
<speed>3.5</speed>
<temp>0.00</temp>
<bpm>0</bpm>
<rpm>0.00</rpm>
</extensions>
</trkpt>
<trkpt lat="64.044921875" lon="-19.301076889">
<ele>586.468750</ele>
<time>2012-07-21T23:29:24Z</time>
<speed>3.470000</speed>
<extensions>
<speed>3.5</speed>
<temp>0.00</temp>
<bpm>0</bpm>
<rpm>0.00</rpm>
</extensions>
</trkpt>
<trkpt lat="64.045059204" lon="-19.300918579">
<ele>587.781250</ele>
<time>2012-07-21T23:29:29Z</time>
<speed>3.630000</speed>
<extensions>
<speed>3.6</speed>
<temp>0.00</temp>
<bpm>0</bpm>
<rpm>0.00</rpm>
</extensions>
</trkpt>
<trkpt lat="64.045227051" lon="-19.300775528">
<ele>588.062500</ele>
<time>2012-07-21T23:29:34Z</time>
<speed>3.980000</speed>
<extensions>
<speed>4.0</speed>
<temp>0.00</temp>
<bpm>0</bpm>
<rpm>0.00</rpm>
</extensions>
</trkpt>
<trkpt lat="64.045402527" lon="-19.300600052">
<ele>588.937500</ele>
<time>2012-07-21T23:29:39Z</time>
<speed>3.750000</speed>
<extensions>
<speed>3.8</speed>
<temp>0.00</temp>
<bpm>0</bpm>
<rpm>0.00</rpm>
</extensions>
</trkpt>
<trkpt lat="64.045547485" lon="-19.300416946">
<ele>588.343750</ele>
<time>2012-07-21T23:29:44Z</time>
<speed>3.700000</speed>
<extensions>
<speed>3.7</speed>
<temp>0.00</temp>
<bpm>0</bpm>
<rpm>0.00</rpm>
</extensions>
</trkpt>
<trkpt lat="64.045692444" lon="-19.300220490">
<ele>587.250000</ele>
<time>2012-07-21T23:29:49Z</time>
<speed>3.650000</speed>
<extensions>
<speed>3.7</speed>
<temp>0.00</temp>
<bpm>0</bpm>
<rpm>0.00</rpm>
</extensions>
</trkpt>
<trkpt lat="64.045845032" lon="-19.300031662">
<ele>587.703125</ele>
<time>2012-07-21T23:29:54Z</time>
<speed>3.660000</speed>
<extensions>
<speed>3.7</speed>
<temp>0.00</temp>
<bpm>0</bpm>
<rpm>0.00</rpm>
</extensions>
</trkpt>
<trkpt lat="64.045989990" lon="-19.299858093">
<ele>588.406250</ele>
<time>2012-07-21T23:29:59Z</time>
<speed>3.860000</speed>
<extensions>
<speed>3.9</speed>
<temp>0.00</temp>
<bpm>0</bpm>
<rpm>0.00</rpm>
</extensions>
</trkpt>
<trkpt lat="64.046142578" lon="-19.299701691">
<ele>589.125000</ele>
<time>2012-07-21T23:30:04Z</time>
<speed>3.440000</speed>
<extensions>
<speed>3.4</speed>
<temp>0.00</temp>
<bpm>0</bpm>
<rpm>0.00</rpm>
</extensions>
</trkpt>
<trkpt lat="64.046295166" lon="-19.299612045">
<ele>590.812500</ele>
<time>2012-07-21T23:30:09Z</time>
<speed>3.470000</speed>
<extensions>
<speed>3.5</speed>
<temp>0.00</temp>
<bpm>0</bpm>
<rpm>0.00</rpm>
</extensions>
</trkpt>
<trkpt lat="64.046447754" lon="-19.299545288">
<ele>590.687500</ele>
<time>2012-07-21T23:30:14Z</time>
<speed>3.710000</speed>
<extensions>
<speed>3.7</speed>
<temp>0.00</temp>
<bpm>0</bpm>
<rpm>0.00</rpm>
</extensions>
</trkpt>
<trkpt lat="64.046615601" lon="-19.299503326">
<ele>591.859375</ele>
<time>2012-07-21T23:30:19Z</time>
<speed>3.710000</speed>
<extensions>
<speed>3.7</speed>
<temp>0.00</temp>
<bpm>0</bpm>
<rpm>0.00</rpm>
</extensions>
</trkpt>
<trkpt lat="64.046806335" lon="-19.299465179">
<ele>592.437500</ele>
<time>2012-07-21T23:30:24Z</time>
<speed>4.090000</speed>
<extensions>
<speed>4.1</speed>
<temp>0.00</temp>
<bpm>0</bpm>
<rpm>0.00</rpm>
</extensions>
</trkpt>
<trkpt lat="64.046981812" lon="-19.299371719">
<ele>594.359375</ele>
<time>2012-07-21T23:30:29Z</time>
<speed>4.120000</speed>
<extensions>
<speed>4.1</speed>
<temp>0.00</temp>
<bpm>0</bpm>
<rpm>0.00</rpm>
</extensions>
</trkpt>
<trkpt lat="64.047134399" lon="-19.299163818">
<ele>596.265625</ele>
<time>2012-07-21T23:30:34Z</time>
<speed>4.060000</speed>
<extensions>
<speed>4.1</speed>
<temp>0.00</temp>
<bpm>0</bpm>
<rpm>0.00</rpm>
</extensions>
</trkpt>
<trkpt lat="64.047286987" lon="-19.298934937">
<ele>595.578125</ele>
<time>2012-07-21T23:30:39Z</time>
<speed>4.200000</speed>
<extensions>
<speed>4.2</speed>
<temp>0.00</temp>
<bpm>0</bpm>
<rpm>0.00</rpm>
</extensions>
</trkpt>
<trkpt lat="64.047439575" lon="-19.298633575">
<ele>592.343750</ele>
<time>2012-07-21T23:30:44Z</time>
<speed>4.640000</speed>
<extensions>
<speed>4.6</speed>
<temp>0.00</temp>
<bpm>0</bpm>
<rpm>0.00</rpm>
</extensions>
</trkpt>
<trkpt lat="64.047569275" lon="-19.298263550">
<ele>589.968750</ele>
<time>2012-07-21T23:30:49Z</time>
<speed>4.590000</speed>
<extensions>
<speed>4.6</speed>
<temp>0.00</temp>
<bpm>0</bpm>
<rpm>0.00</rpm>
</extensions>
</trkpt>
<trkpt lat="64.047676086" lon="-19.297910690">
<ele>587.609375</ele>
<time>2012-07-21T23:30:54Z</time>
<speed>3.940000</speed>
<extensions>
<speed>3.9</speed>
<temp>0.00</temp>
<bpm>0</bpm>
<rpm>0.00</rpm>
</extensions>
</trkpt>
<trkpt lat="64.047767639" lon="-19.297576904">
<ele>587.296875</ele>
<time>2012-07-21T23:30:59Z</time>
<speed>3.370000</speed>
<extensions>
<speed>3.4</speed>
<temp>0.00</temp>
<bpm>0</bpm>
<rpm>0.00</rpm>
</extensions>
</trkpt>
<trkpt lat="64.047851563" lon="-19.297298431">
<ele>586.781250</ele>
<time>2012-07-21T23:31:04Z</time>
<speed>3.230000</speed>
<extensions>
<speed>3.2</speed>
<temp>0.00</temp>
<bpm>0</bpm>
<rpm>0.00</rpm>
</extensions>
</trkpt>
<trkpt lat="64.047927856" lon="-19.297031403">
<ele>586.718750</ele>
<time>2012-07-21T23:31:09Z</time>
<speed>2.970000</speed>
<extensions>
<speed>3.0</speed>
<temp>0.00</temp>
<bpm>0</bpm>
<rpm>0.00</rpm>
</extensions>
</trkpt>
<trkpt lat="64.047996521" lon="-19.296792984">
<ele>586.406250</ele>
<time>2012-07-21T23:31:14Z</time>
<speed>2.420000</speed>
<extensions>
<speed>2.4</speed>
<temp>0.00</temp>
<bpm>0</bpm>
<rpm>0.00</rpm>
</extensions>
</trkpt>
<trkpt lat="64.048049927" lon="-19.296630859">
<ele>586.671875</ele>
<time>2012-07-21T23:31:19Z</time>
<speed>1.320000</speed>
<extensions>
<speed>1.3</speed>
<temp>0.00</temp>
<bpm>0</bpm>
<rpm>0.00</rpm>
</extensions>
</trkpt>
<trkpt lat="64.048088074" lon="-19.296432495">
<ele>587.984375</ele>
<time>2012-07-21T23:31:24Z</time>
<speed>2.240000</speed>
<extensions>
<speed>2.2</speed>
<temp>0.00</temp>
<bpm>0</bpm>
<rpm>0.00</rpm>
</extensions>
</trkpt>
<trkpt lat="64.048133850" lon="-19.296287537">
<ele>587.718750</ele>
<time>2012-07-21T23:31:29Z</time>
<speed>1.920000</speed>
<extensions>
<speed>1.9</speed>
<temp>0.00</temp>
<bpm>0</bpm>
<rpm>0.00</rpm>
</extensions>
</trkpt>
<trkpt lat="64.048179626" lon="-19.296083450">
<ele>588.718750</ele>
<time>2012-07-21T23:31:34Z</time>
<speed>2.120000</speed>
<extensions>
<speed>2.1</speed>
<temp>0.00</temp>
<bpm>0</bpm>
<rpm>0.00</rpm>
</extensions>
</trkpt>
<trkpt lat="64.048217773" lon="-19.295890808">
<ele>589.187500</ele>
<time>2012-07-21T23:31:39Z</time>
<speed>2.030000</speed>
<extensions>
<speed>2.0</speed>
<temp>0.00</temp>
<bpm>0</bpm>
<rpm>0.00</rpm>
</extensions>
</trkpt>
<trkpt lat="64.048263550" lon="-19.295715332">
<ele>589.265625</ele>
<time>2012-07-21T23:31:44Z</time>
<speed>1.920000</speed>
<extensions>
<speed>1.9</speed>
<temp>0.00</temp>
<bpm>0</bpm>
<rpm>0.00</rpm>
</extensions>
</trkpt>
<trkpt lat="64.048309326" lon="-19.295545578">
<ele>588.687500</ele>
<time>2012-07-21T23:31:49Z</time>
<speed>2.180000</speed>
<extensions>
<speed>2.2</speed>
<temp>0.00</temp>
<bpm>0</bpm>
<rpm>0.00</rpm>
</extensions>
</trkpt>
<trkpt lat="64.048355103" lon="-19.295375824">
<ele>590.156250</ele>
<time>2012-07-21T23:31:54Z</time>
<speed>1.840000</speed>
<extensions>
<speed>1.8</speed>
<temp>0.00</temp>
<bpm>0</bpm>
<rpm>0.00</rpm>
</extensions>
</trkpt>
<trkpt lat="64.048400879" lon="-19.295213699">
<ele>590.734375</ele>
<time>2012-07-21T23:31:59Z</time>
<speed>2.240000</speed>
<extensions>
<speed>2.2</speed>
<temp>0.00</temp>
<bpm>0</bpm>
<rpm>0.00</rpm>
</extensions>
</trkpt>
<trkpt lat="64.048446655" lon="-19.294996262">
<ele>592.218750</ele>
<time>2012-07-21T23:32:04Z</time>
<speed>1.940000</speed>
<extensions>
<speed>1.9</speed>
<temp>0.00</temp>
<bpm>0</bpm>
<rpm>0.00</rpm>
</extensions>
</trkpt>
<trkpt lat="64.048500061" lon="-19.294832230">
<ele>591.609375</ele>
<time>2012-07-21T23:32:09Z</time>
<speed>2.270000</speed>
<extensions>
<speed>2.3</speed>
<temp>0.00</temp>
<bpm>0</bpm>
<rpm>0.00</rpm>
</extensions>
</trkpt>
<trkpt lat="64.048545837" lon="-19.294626236">
<ele>591.390625</ele>
<time>2012-07-21T23:32:14Z</time>
<speed>2.140000</speed>
<extensions>
<speed>2.1</speed>
<temp>0.00</temp>
<bpm>0</bpm>
<rpm>0.00</rpm>
</extensions>
</trkpt>
<trkpt lat="64.048606873" lon="-19.294401169">
<ele>592.109375</ele>
<time>2012-07-21T23:32:19Z</time>
<speed>2.430000</speed>
<extensions>
<speed>2.4</speed>
<temp>0.00</temp>
<bpm>0</bpm>
<rpm>0.00</rpm>
</extensions>
</trkpt>
<trkpt lat="64.048660278" lon="-19.294191360">
<ele>593.390625</ele>
<time>2012-07-21T23:32:24Z</time>
<speed>2.440000</speed>
<extensions>
<speed>2.4</speed>
<temp>0.00</temp>
<bpm>0</bpm>
<rpm>0.00</rpm>
</extensions>
</trkpt>
<trkpt lat="64.048736572" lon="-19.293992996">
<ele>593.250000</ele>
<time>2012-07-21T23:32:29Z</time>
<speed>2.560000</speed>
<extensions>
<speed>2.6</speed>
<temp>0.00</temp>
<bpm>0</bpm>
<rpm>0.00</rpm>
</extensions>
</trkpt>
<trkpt lat="64.048828125" lon="-19.293773651">
<ele>593.937500</ele>
<time>2012-07-21T23:32:34Z</time>
<speed>2.720000</speed>
<extensions>
<speed>2.7</speed>
<temp>0.00</temp>
<bpm>0</bpm>
<rpm>0.00</rpm>
</extensions>
</trkpt>
<trkpt lat="64.048919678" lon="-19.293579102">
<ele>594.281250</ele>
<time>2012-07-21T23:32:39Z</time>
<speed>2.810000</speed>
<extensions>
<speed>2.8</speed>
<temp>0.00</temp>
<bpm>0</bpm>
<rpm>0.00</rpm>
</extensions>
</trkpt>
<trkpt lat="64.049003601" lon="-19.293334961">
<ele>594.609375</ele>
<time>2012-07-21T23:32:44Z</time>
<speed>3.030000</speed>
<extensions>
<speed>3.0</speed>
<temp>0.00</temp>
<bpm>0</bpm>
<rpm>0.00</rpm>
</extensions>
</trkpt>
<trkpt lat="64.049095154" lon="-19.293119431">
<ele>594.421875</ele>
<time>2012-07-21T23:32:49Z</time>
<speed>2.820000</speed>
<extensions>
<speed>2.8</speed>
<temp>0.00</temp>
<bpm>0</bpm>
<rpm>0.00</rpm>
</extensions>
</trkpt>
<trkpt lat="64.049194336" lon="-19.292882919">
<ele>594.890625</ele>
<time>2012-07-21T23:32:54Z</time>
<speed>3.190000</speed>
<extensions>
<speed>3.2</speed>
<temp>0.00</temp>
<bpm>0</bpm>
<rpm>0.00</rpm>
</extensions>
</trkpt>
<trkpt lat="64.049293518" lon="-19.292636871">
<ele>594.578125</ele>
<time>2012-07-21T23:32:59Z</time>
<speed>3.360000</speed>
<extensions>
<speed>3.4</speed>
<temp>0.00</temp>
<bpm>0</bpm>
<rpm>0.00</rpm>
</extensions>
</trkpt>
<trkpt lat="64.049415588" lon="-19.292383194">
<ele>594.546875</ele>
<time>2012-07-21T23:33:04Z</time>
<speed>3.600000</speed>
<extensions>
<speed>3.6</speed>
<temp>0.00</temp>
<bpm>0</bpm>
<rpm>0.00</rpm>
</extensions>
</trkpt>
<trkpt lat="64.049530029" lon="-19.292125702">
<ele>594.828125</ele>
<time>2012-07-21T23:33:09Z</time>
<speed>3.050000</speed>
<extensions>
<speed>3.0</speed>
<temp>0.00</temp>
<bpm>0</bpm>
<rpm>0.00</rpm>
</extensions>
</trkpt>
<trkpt lat="64.049636841" lon="-19.291898727">
<ele>595.234375</ele>
<time>2012-07-21T23:33:14Z</time>
<speed>3.410000</speed>
<extensions>
<speed>3.4</speed>
<temp>0.00</temp>
<bpm>0</bpm>
<rpm>0.00</rpm>
</extensions>
</trkpt>
<trkpt lat="64.049736023" lon="-19.291679382">
<ele>595.218750</ele>
<time>2012-07-21T23:33:19Z</time>
<speed>3.040000</speed>
<extensions>
<speed>3.0</speed>
<temp>0.00</temp>
<bpm>0</bpm>
<rpm>0.00</rpm>
</extensions>
</trkpt>
<trkpt lat="64.049842834" lon="-19.291452408">
<ele>595.765625</ele>
<time>2012-07-21T23:33:24Z</time>
<speed>3.100000</speed>
<extensions>
<speed>3.1</speed>
<temp>0.00</temp>
<bpm>0</bpm>
<rpm>0.00</rpm>
</extensions>
</trkpt>
<trkpt lat="64.049957275" lon="-19.291248322">
<ele>595.312500</ele>
<time>2012-07-21T23:33:29Z</time>
<speed>3.420000</speed>
<extensions>
<speed>3.4</speed>
<temp>0.00</temp>
<bpm>0</bpm>
<rpm>0.00</rpm>
</extensions>
</trkpt>
<trkpt lat="64.050064087" lon="-19.291040421">
<ele>594.812500</ele>
<time>2012-07-21T23:33:34Z</time>
<speed>3.310000</speed>
<extensions>
<speed>3.3</speed>
<temp>0.00</temp>
<bpm>0</bpm>
<rpm>0.00</rpm>
</extensions>
</trkpt>
<trkpt lat="64.050170898" lon="-19.290828705">
<ele>596.062500</ele>
<time>2012-07-21T23:33:39Z</time>
<speed>2.990000</speed>
<extensions>
<speed>3.0</speed>
<temp>0.00</temp>
<bpm>0</bpm>
<rpm>0.00</rpm>
</extensions>
</trkpt>
<trkpt lat="64.050285339" lon="-19.290615082">
<ele>596.234375</ele>
<time>2012-07-21T23:33:44Z</time>
<speed>3.250000</speed>
<extensions>
<speed>3.2</speed>
<temp>0.00</temp>
<bpm>0</bpm>
<rpm>0.00</rpm>
</extensions>
</trkpt>
<trkpt lat="64.050376892" lon="-19.290418625">
<ele>595.703125</ele>
<time>2012-07-21T23:33:49Z</time>
<speed>3.150000</speed>
<extensions>
<speed>3.2</speed>
<temp>0.00</temp>
<bpm>0</bpm>
<rpm>0.00</rpm>
</extensions>
</trkpt>
<trkpt lat="64.050491333" lon="-19.290145874">
<ele>594.703125</ele>
<time>2012-07-21T23:33:54Z</time>
<speed>3.860000</speed>
<extensions>
<speed>3.9</speed>
<temp>0.00</temp>
<bpm>0</bpm>
<rpm>0.00</rpm>
</extensions>
</trkpt>
<trkpt lat="64.050613403" lon="-19.289844513">
<ele>593.875000</ele>
<time>2012-07-21T23:33:59Z</time>
<speed>3.810000</speed>
<extensions>
<speed>3.8</speed>
<temp>0.00</temp>
<bpm>0</bpm>
<rpm>0.00</rpm>
</extensions>
</trkpt>
<trkpt lat="64.050727844" lon="-19.289508820">
<ele>593.093750</ele>
<time>2012-07-21T23:34:04Z</time>
<speed>4.330000</speed>
<extensions>
<speed>4.3</speed>
<temp>0.00</temp>
<bpm>0</bpm>
<rpm>0.00</rpm>
</extensions>
</trkpt>
<trkpt lat="64.050842285" lon="-19.289175034">
<ele>592.437500</ele>
<time>2012-07-21T23:34:09Z</time>
<speed>4.000000</speed>
<extensions>
<speed>4.0</speed>
<temp>0.00</temp>
<bpm>0</bpm>
<rpm>0.00</rpm>
</extensions>
</trkpt>
<trkpt lat="64.050949097" lon="-19.288869858">
<ele>591.968750</ele>
<time>2012-07-21T23:34:14Z</time>
<speed>3.690000</speed>
<extensions>
<speed>3.7</speed>
<temp>0.00</temp>
<bpm>0</bpm>
<rpm>0.00</rpm>
</extensions>
</trkpt>
<trkpt lat="64.051048279" lon="-19.288614273">
<ele>591.281250</ele>
<time>2012-07-21T23:34:19Z</time>
<speed>3.340000</speed>
<extensions>
<speed>3.3</speed>
<temp>0.00</temp>
<bpm>0</bpm>
<rpm>0.00</rpm>
</extensions>
</trkpt>
<trkpt lat="64.051147461" lon="-19.288343430">
<ele>590.859375</ele>
<time>2012-07-21T23:34:24Z</time>
<speed>3.440000</speed>
<extensions>
<speed>3.4</speed>
<temp>0.00</temp>
<bpm>0</bpm>
<rpm>0.00</rpm>
</extensions>
</trkpt>
<trkpt lat="64.051246643" lon="-19.288066864">
<ele>591.359375</ele>
<time>2012-07-21T23:34:29Z</time>
<speed>3.230000</speed>
<extensions>
<speed>3.2</speed>
<temp>0.00</temp>
<bpm>0</bpm>
<rpm>0.00</rpm>
</extensions>
</trkpt>
<trkpt lat="64.051338196" lon="-19.287797928">
<ele>591.250000</ele>
<time>2012-07-21T23:34:34Z</time>
<speed>3.230000</speed>
<extensions>
<speed>3.2</speed>
<temp>0.00</temp>
<bpm>0</bpm>
<rpm>0.00</rpm>
</extensions>
</trkpt>
<trkpt lat="64.051429749" lon="-19.287576675">
<ele>591.265625</ele>
<time>2012-07-21T23:34:39Z</time>
<speed>2.760000</speed>
<extensions>
<speed>2.8</speed>
<temp>0.00</temp>
<bpm>0</bpm>
<rpm>0.00</rpm>
</extensions>
</trkpt>
<trkpt lat="64.051483154" lon="-19.287391663">
<ele>591.687500</ele>
<time>2012-07-21T23:34:44Z</time>
<speed>2.400000</speed>
<extensions>
<speed>2.4</speed>
<temp>0.00</temp>
<bpm>0</bpm>
<rpm>0.00</rpm>
</extensions>
</trkpt>
<trkpt lat="64.051551819" lon="-19.287183762">
<ele>591.765625</ele>
<time>2012-07-21T23:34:49Z</time>
<speed>2.650000</speed>
<extensions>
<speed>2.6</speed>
<temp>0.00</temp>
<bpm>0</bpm>
<rpm>0.00</rpm>
</extensions>
</trkpt>
<trkpt lat="64.051635742" lon="-19.287008286">
<ele>591.921875</ele>
<time>2012-07-21T23:34:54Z</time>
<speed>2.520000</speed>
<extensions>
<speed>2.5</speed>
<temp>0.00</temp>
<bpm>0</bpm>
<rpm>0.00</rpm>
</extensions>
</trkpt>
<trkpt lat="64.051719666" lon="-19.286823273">
<ele>592.687500</ele>
<time>2012-07-21T23:34:59Z</time>
<speed>2.470000</speed>
<extensions>
<speed>2.5</speed>
<temp>0.00</temp>
<bpm>0</bpm>
<rpm>0.00</rpm>
</extensions>
</trkpt>
<trkpt lat="64.051780701" lon="-19.286619186">
<ele>592.968750</ele>
<time>2012-07-21T23:35:04Z</time>
<speed>2.260000</speed>
<extensions>
<speed>2.3</speed>
<temp>0.00</temp>
<bpm>0</bpm>
<rpm>0.00</rpm>
</extensions>
</trkpt>
<trkpt lat="64.051849365" lon="-19.286434174">
<ele>593.359375</ele>
<time>2012-07-21T23:35:09Z</time>
<speed>2.400000</speed>
<extensions>
<speed>2.4</speed>
<temp>0.00</temp>
<bpm>0</bpm>
<rpm>0.00</rpm>
</extensions>
</trkpt>
<trkpt lat="64.051902771" lon="-19.286285400">
<ele>593.062500</ele>
<time>2012-07-21T23:35:14Z</time>
<speed>2.230000</speed>
<extensions>
<speed>2.2</speed>
<temp>0.00</temp>
<bpm>0</bpm>
<rpm>0.00</rpm>
</extensions>
</trkpt>
<trkpt lat="64.051963806" lon="-19.286138535">
<ele>592.875000</ele>
<time>2012-07-21T23:35:19Z</time>
<speed>1.780000</speed>
<extensions>
<speed>1.8</speed>
<temp>0.00</temp>
<bpm>0</bpm>
<rpm>0.00</rpm>
</extensions>
</trkpt>
<trkpt lat="64.052009583" lon="-19.285961151">
<ele>592.546875</ele>
<time>2012-07-21T23:35:24Z</time>
<speed>2.200000</speed>
<extensions>
<speed>2.2</speed>
<temp>0.00</temp>
<bpm>0</bpm>
<rpm>0.00</rpm>
</extensions>
</trkpt>
<trkpt lat="64.052062988" lon="-19.285766602">
<ele>592.875000</ele>
<time>2012-07-21T23:35:29Z</time>
<speed>2.380000</speed>
<extensions>
<speed>2.4</speed>
<temp>0.00</temp>
<bpm>0</bpm>
<rpm>0.00</rpm>
</extensions>
</trkpt>
<trkpt lat="64.052124023" lon="-19.285581589">
<ele>592.515625</ele>
<time>2012-07-21T23:35:34Z</time>
<speed>1.970000</speed>
<extensions>
<speed>2.0</speed>
<temp>0.00</temp>
<bpm>0</bpm>
<rpm>0.00</rpm>
</extensions>
</trkpt>
<trkpt lat="64.052192688" lon="-19.285381317">
<ele>593.218750</ele>
<time>2012-07-21T23:35:39Z</time>
<speed>2.300000</speed>
<extensions>
<speed>2.3</speed>
<temp>0.00</temp>
<bpm>0</bpm>
<rpm>0.00</rpm>
</extensions>
</trkpt>
<trkpt lat="64.052246094" lon="-19.285181046">
<ele>592.312500</ele>
<time>2012-07-21T23:35:44Z</time>
<speed>2.610000</speed>
<extensions>
<speed>2.6</speed>
<temp>0.00</temp>
<bpm>0</bpm>
<rpm>0.00</rpm>
</extensions>
</trkpt>
<trkpt lat="64.052307129" lon="-19.284976959">
<ele>591.531250</ele>
<time>2012-07-21T23:35:49Z</time>
<speed>2.890000</speed>
<extensions>
<speed>2.9</speed>
<temp>0.00</temp>
<bpm>0</bpm>
<rpm>0.00</rpm>
</extensions>
</trkpt>
<trkpt lat="64.052368164" lon="-19.284736633">
<ele>591.250000</ele>
<time>2012-07-21T23:35:54Z</time>
<speed>2.490000</speed>
<extensions>
<speed>2.5</speed>
<temp>0.00</temp>
<bpm>0</bpm>
<rpm>0.00</rpm>
</extensions>
</trkpt>
<trkpt lat="64.052421570" lon="-19.284515381">
<ele>590.875000</ele>
<time>2012-07-21T23:35:59Z</time>
<speed>2.240000</speed>
<extensions>
<speed>2.2</speed>
<temp>0.00</temp>
<bpm>0</bpm>
<rpm>0.00</rpm>
</extensions>
</trkpt>
<trkpt lat="64.052482605" lon="-19.284326553">
<ele>591.187500</ele>
<time>2012-07-21T23:36:04Z</time>
<speed>2.340000</speed>
<extensions>
<speed>2.3</speed>
<temp>0.00</temp>
<bpm>0</bpm>
<rpm>0.00</rpm>
</extensions>
</trkpt>
<trkpt lat="64.052536011" lon="-19.284103394">
<ele>591.078125</ele>
<time>2012-07-21T23:36:09Z</time>
<speed>2.720000</speed>
<extensions>
<speed>2.7</speed>
<temp>0.00</temp>
<bpm>0</bpm>
<rpm>0.00</rpm>
</extensions>
</trkpt>
<trkpt lat="64.052604675" lon="-19.283891678">
<ele>590.687500</ele>
<time>2012-07-21T23:36:14Z</time>
<speed>2.500000</speed>
<extensions>
<speed>2.5</speed>
<temp>0.00</temp>
<bpm>0</bpm>
<rpm>0.00</rpm>
</extensions>
</trkpt>
<trkpt lat="64.052658081" lon="-19.283660889">
<ele>590.890625</ele>
<time>2012-07-21T23:36:19Z</time>
<speed>2.490000</speed>
<extensions>
<speed>2.5</speed>
<temp>0.00</temp>
<bpm>0</bpm>
<rpm>0.00</rpm>
</extensions>
</trkpt>
<trkpt lat="64.052719116" lon="-19.283473969">
<ele>590.687500</ele>
<time>2012-07-21T23:36:24Z</time>
<speed>2.320000</speed>
<extensions>
<speed>2.3</speed>
<temp>0.00</temp>
<bpm>0</bpm>
<rpm>0.00</rpm>
</extensions>
</trkpt>
<trkpt lat="64.052764893" lon="-19.283237457">
<ele>590.281250</ele>
<time>2012-07-21T23:36:29Z</time>
<speed>2.440000</speed>
<extensions>
<speed>2.4</speed>
<temp>0.00</temp>
<bpm>0</bpm>
<rpm>0.00</rpm>
</extensions>
</trkpt>
<trkpt lat="64.052818298" lon="-19.283027649">
<ele>589.984375</ele>
<time>2012-07-21T23:36:34Z</time>
<speed>2.470000</speed>
<extensions>
<speed>2.5</speed>
<temp>0.00</temp>
<bpm>0</bpm>
<rpm>0.00</rpm>
</extensions>
</trkpt>
<trkpt lat="64.052871704" lon="-19.282806396">
<ele>589.093750</ele>
<time>2012-07-21T23:36:39Z</time>
<speed>2.380000</speed>
<extensions>
<speed>2.4</speed>
<temp>0.00</temp>
<bpm>0</bpm>
<rpm>0.00</rpm>
</extensions>
</trkpt>
<trkpt lat="64.052932739" lon="-19.282627106">
<ele>588.718750</ele>
<time>2012-07-21T23:36:44Z</time>
<speed>1.650000</speed>
<extensions>
<speed>1.7</speed>
<temp>0.00</temp>
<bpm>0</bpm>
<rpm>0.00</rpm>
</extensions>
</trkpt>
<trkpt lat="64.052986145" lon="-19.282474518">
<ele>588.578125</ele>
<time>2012-07-21T23:36:49Z</time>
<speed>1.770000</speed>
<extensions>
<speed>1.8</speed>
<temp>0.00</temp>
<bpm>0</bpm>
<rpm>0.00</rpm>
</extensions>
</trkpt>
<trkpt lat="64.053016663" lon="-19.282371521">
<ele>589.890625</ele>
<time>2012-07-21T23:36:54Z</time>
<speed>1.140000</speed>
<extensions>
<speed>1.1</speed>
<temp>0.00</temp>
<bpm>0</bpm>
<rpm>0.00</rpm>
</extensions>
</trkpt>
<trkpt lat="64.053054810" lon="-19.282224655">
<ele>590.046875</ele>
<time>2012-07-21T23:36:59Z</time>
<speed>1.990000</speed>
<extensions>
<speed>2.0</speed>
<temp>0.00</temp>
<bpm>0</bpm>
<rpm>0.00</rpm>
</extensions>
</trkpt>
<trkpt lat="64.053092957" lon="-19.282058716">
<ele>589.750000</ele>
<time>2012-07-21T23:37:04Z</time>
<speed>1.880000</speed>
<extensions>
<speed>1.9</speed>
<temp>0.00</temp>
<bpm>0</bpm>
<rpm>0.00</rpm>
</extensions>
</trkpt>
<trkpt lat="64.053138733" lon="-19.281854630">
<ele>589.656250</ele>
<time>2012-07-21T23:37:09Z</time>
<speed>2.370000</speed>
<extensions>
<speed>2.4</speed>
<temp>0.00</temp>
<bpm>0</bpm>
<rpm>0.00</rpm>
</extensions>
</trkpt>
<trkpt lat="64.053192139" lon="-19.281656265">
<ele>588.843750</ele>
<time>2012-07-21T23:37:14Z</time>
<speed>2.490000</speed>
<extensions>
<speed>2.5</speed>
<temp>0.00</temp>
<bpm>0</bpm>
<rpm>0.00</rpm>
</extensions>
</trkpt>
<trkpt lat="64.053253174" lon="-19.281476974">
<ele>587.578125</ele>
<time>2012-07-21T23:37:19Z</time>
<speed>2.490000</speed>
<extensions>
<speed>2.5</speed>
<temp>0.00</temp>
<bpm>0</bpm>
<rpm>0.00</rpm>
</extensions>
</trkpt>
<trkpt lat="64.053314209" lon="-19.281267166">
<ele>586.609375</ele>
<time>2012-07-21T23:37:24Z</time>
<speed>2.200000</speed>
<extensions>
<speed>2.2</speed>
<temp>0.00</temp>
<bpm>0</bpm>
<rpm>0.00</rpm>
</extensions>
</trkpt>
<trkpt lat="64.053359985" lon="-19.281059265">
<ele>586.375000</ele>
<time>2012-07-21T23:37:29Z</time>
<speed>2.150000</speed>
<extensions>
<speed>2.1</speed>
<temp>0.00</temp>
<bpm>0</bpm>
<rpm>0.00</rpm>
</extensions>
</trkpt>
<trkpt lat="64.053428650" lon="-19.280881882">
<ele>584.250000</ele>
<time>2012-07-21T23:37:34Z</time>
<speed>2.150000</speed>
<extensions>
<speed>2.1</speed>
<temp>0.00</temp>
<bpm>0</bpm>
<rpm>0.00</rpm>
</extensions>
</trkpt>
<trkpt lat="64.053474426" lon="-19.280670166">
<ele>584.562500</ele>
<time>2012-07-21T23:37:39Z</time>
<speed>2.320000</speed>
<extensions>
<speed>2.3</speed>
<temp>0.00</temp>
<bpm>0</bpm>
<rpm>0.00</rpm>
</extensions>
</trkpt>
<trkpt lat="64.053535461" lon="-19.280462265">
<ele>585.875000</ele>
<time>2012-07-21T23:37:44Z</time>
<speed>2.210000</speed>
<extensions>
<speed>2.2</speed>
<temp>0.00</temp>
<bpm>0</bpm>
<rpm>0.00</rpm>
</extensions>
</trkpt>
<trkpt lat="64.053581238" lon="-19.280290604">
<ele>586.203125</ele>
<time>2012-07-21T23:37:49Z</time>
<speed>1.990000</speed>
<extensions>
<speed>2.0</speed>
<temp>0.00</temp>
<bpm>0</bpm>
<rpm>0.00</rpm>
</extensions>
</trkpt>
<trkpt lat="64.053627014" lon="-19.280113220">
<ele>586.500000</ele>
<time>2012-07-21T23:37:54Z</time>
<speed>1.850000</speed>
<extensions>
<speed>1.8</speed>
<temp>0.00</temp>
<bpm>0</bpm>
<rpm>0.00</rpm>
</extensions>
</trkpt>
<trkpt lat="64.053672791" lon="-19.279922485">
<ele>587.406250</ele>
<time>2012-07-21T23:37:59Z</time>
<speed>2.400000</speed>
<extensions>
<speed>2.4</speed>
<temp>0.00</temp>
<bpm>0</bpm>
<rpm>0.00</rpm>
</extensions>
</trkpt>
<trkpt lat="64.053726196" lon="-19.279737473">
<ele>587.468750</ele>
<time>2012-07-21T23:38:04Z</time>
<speed>2.000000</speed>
<extensions>
<speed>2.0</speed>
<temp>0.00</temp>
<bpm>0</bpm>
<rpm>0.00</rpm>
</extensions>
</trkpt>
<trkpt lat="64.053787231" lon="-19.279558182">
<ele>586.937500</ele>
<time>2012-07-21T23:38:09Z</time>
<speed>2.320000</speed>
<extensions>
<speed>2.3</speed>
<temp>0.00</temp>
<bpm>0</bpm>
<rpm>0.00</rpm>
</extensions>
</trkpt>
<trkpt lat="64.053840637" lon="-19.279361725">
<ele>586.546875</ele>
<time>2012-07-21T23:38:14Z</time>
<speed>2.170000</speed>
<extensions>
<speed>2.2</speed>
<temp>0.00</temp>
<bpm>0</bpm>
<rpm>0.00</rpm>
</extensions>
</trkpt>
<trkpt lat="64.053863525" lon="-19.279245377">
<ele>586.812500</ele>
<time>2012-07-21T23:38:19Z</time>
<speed>1.020000</speed>
<extensions>
<speed>1.0</speed>
<temp>0.00</temp>
<bpm>0</bpm>
<rpm>0.00</rpm>
</extensions>
</trkpt>
<trkpt lat="64.053901672" lon="-19.279130936">
<ele>586.281250</ele>
<time>2012-07-21T23:38:24Z</time>
<speed>1.640000</speed>
<extensions>
<speed>1.6</speed>
<temp>0.00</temp>
<bpm>0</bpm>
<rpm>0.00</rpm>
</extensions>
</trkpt>
<trkpt lat="64.053939819" lon="-19.278978348">
<ele>585.968750</ele>
<time>2012-07-21T23:38:29Z</time>
<speed>1.810000</speed>
<extensions>
<speed>1.8</speed>
<temp>0.00</temp>
<bpm>0</bpm>
<rpm>0.00</rpm>
</extensions>
</trkpt>
<trkpt lat="64.053977966" lon="-19.278823853">
<ele>586.031250</ele>
<time>2012-07-21T23:38:34Z</time>
<speed>1.500000</speed>
<extensions>
<speed>1.5</speed>
<temp>0.00</temp>
<bpm>0</bpm>
<rpm>0.00</rpm>
</extensions>
</trkpt>
<trkpt lat="64.053985596" lon="-19.278783798">
<ele>586.281250</ele>
<time>2012-07-21T23:38:39Z</time>
<speed>0.040000</speed>
<extensions>
<speed>0.0</speed>
<temp>0.00</temp>
<bpm>0</bpm>
<rpm>0.00</rpm>
</extensions>
</trkpt>
<trkpt lat="64.053985596" lon="-19.278783798">
<ele>586.265625</ele>
<time>2012-07-21T23:38:44Z</time>
<speed>0.020000</speed>
<extensions>
<speed>0.0</speed>
<temp>0.00</temp>
<bpm>0</bpm>
<rpm>0.00</rpm>
</extensions>
</trkpt>
<trkpt lat="64.053993225" lon="-19.278755188">
<ele>586.328125</ele>
<time>2012-07-21T23:38:49Z</time>
<speed>0.500000</speed>
<extensions>
<speed>0.5</speed>
<temp>0.00</temp>
<bpm>0</bpm>
<rpm>0.00</rpm>
</extensions>
</trkpt>
<trkpt lat="64.053993225" lon="-19.278747559">
<ele>584.984375</ele>
<time>2012-07-21T23:38:54Z</time>
<speed>0.050000</speed>
<extensions>
<speed>0.1</speed>
<temp>0.00</temp>
<bpm>0</bpm>
<rpm>0.00</rpm>
</extensions>
</trkpt>
<trkpt lat="64.053993225" lon="-19.278749466">
<ele>584.843750</ele>
<time>2012-07-21T23:38:59Z</time>
<speed>0.070000</speed>
<extensions>
<speed>0.1</speed>
<temp>0.00</temp>
<bpm>0</bpm>
<rpm>0.00</rpm>
</extensions>
</trkpt>
<trkpt lat="64.054000854" lon="-19.278734207">
<ele>584.875000</ele>
<time>2012-07-21T23:39:04Z</time>
<speed>0.840000</speed>
<extensions>
<speed>0.8</speed>
<temp>0.00</temp>
<bpm>0</bpm>
<rpm>0.00</rpm>
</extensions>
</trkpt>
<trkpt lat="64.054023743" lon="-19.278629303">
<ele>585.781250</ele>
<time>2012-07-21T23:39:09Z</time>
<speed>1.110000</speed>
<extensions>
<speed>1.1</speed>
<temp>0.00</temp>
<bpm>0</bpm>
<rpm>0.00</rpm>
</extensions>
</trkpt>
<trkpt lat="64.054054260" lon="-19.278511047">
<ele>584.734375</ele>
<time>2012-07-21T23:39:14Z</time>
<speed>1.260000</speed>
<extensions>
<speed>1.3</speed>
<temp>0.00</temp>
<bpm>0</bpm>
<rpm>0.00</rpm>
</extensions>
</trkpt>
<trkpt lat="64.054084778" lon="-19.278387070">
<ele>585.187500</ele>
<time>2012-07-21T23:39:19Z</time>
<speed>1.090000</speed>
<extensions>
<speed>1.1</speed>
<temp>0.00</temp>
<bpm>0</bpm>
<rpm>0.00</rpm>
</extensions>
</trkpt>
<trkpt lat="64.054115295" lon="-19.278303146">
<ele>586.109375</ele>
<time>2012-07-21T23:39:24Z</time>
<speed>0.960000</speed>
<extensions>
<speed>1.0</speed>
<temp>0.00</temp>
<bpm>0</bpm>
<rpm>0.00</rpm>
</extensions>
</trkpt>
<trkpt lat="64.054138184" lon="-19.278205872">
<ele>586.296875</ele>
<time>2012-07-21T23:39:29Z</time>
<speed>1.230000</speed>
<extensions>
<speed>1.2</speed>
<temp>0.00</temp>
<bpm>0</bpm>
<rpm>0.00</rpm>
</extensions>
</trkpt>
<trkpt lat="64.054168701" lon="-19.278081894">
<ele>585.875000</ele>
<time>2012-07-21T23:39:34Z</time>
<speed>1.340000</speed>
<extensions>
<speed>1.3</speed>
<temp>0.00</temp>
<bpm>0</bpm>
<rpm>0.00</rpm>
</extensions>
</trkpt>
<trkpt lat="64.054183960" lon="-19.277973175">
<ele>586.265625</ele>
<time>2012-07-21T23:39:39Z</time>
<speed>1.230000</speed>
<extensions>
<speed>1.2</speed>
<temp>0.00</temp>
<bpm>0</bpm>
<rpm>0.00</rpm>
</extensions>
</trkpt>
<trkpt lat="64.054214478" lon="-19.277875900">
<ele>586.406250</ele>
<time>2012-07-21T23:39:44Z</time>
<speed>1.400000</speed>
<extensions>
<speed>1.4</speed>
<temp>0.00</temp>
<bpm>0</bpm>
<rpm>0.00</rpm>
</extensions>
</trkpt>
<trkpt lat="64.054237366" lon="-19.277748108">
<ele>584.875000</ele>
<time>2012-07-21T23:39:49Z</time>
<speed>1.240000</speed>
<extensions>
<speed>1.2</speed>
<temp>0.00</temp>
<bpm>0</bpm>
<rpm>0.00</rpm>
</extensions>
</trkpt>
<trkpt lat="64.054267883" lon="-19.277645111">
<ele>585.234375</ele>
<time>2012-07-21T23:39:54Z</time>
<speed>1.220000</speed>
<extensions>
<speed>1.2</speed>
<temp>0.00</temp>
<bpm>0</bpm>
<rpm>0.00</rpm>
</extensions>
</trkpt>
<trkpt lat="64.054290771" lon="-19.277536392">
<ele>585.390625</ele>
<time>2012-07-21T23:39:59Z</time>
<speed>0.890000</speed>
<extensions>
<speed>0.9</speed>
<temp>0.00</temp>
<bpm>0</bpm>
<rpm>0.00</rpm>
</extensions>
</trkpt>
<trkpt lat="64.054298401" lon="-19.277505875">
<ele>584.843750</ele>
<time>2012-07-21T23:40:04Z</time>
<speed>0.700000</speed>
<extensions>
<speed>0.7</speed>
<temp>0.00</temp>
<bpm>0</bpm>
<rpm>0.00</rpm>
</extensions>
</trkpt>
<trkpt lat="64.054321289" lon="-19.277425766">
<ele>585.296875</ele>
<time>2012-07-21T23:40:09Z</time>
<speed>1.030000</speed>
<extensions>
<speed>1.0</speed>
<temp>0.00</temp>
<bpm>0</bpm>
<rpm>0.00</rpm>
</extensions>
</trkpt>
<trkpt lat="64.054351807" lon="-19.277320862">
<ele>585.281250</ele>
<time>2012-07-21T23:40:14Z</time>
<speed>1.330000</speed>
<extensions>
<speed>1.3</speed>
<temp>0.00</temp>
<bpm>0</bpm>
<rpm>0.00</rpm>
</extensions>
</trkpt>
<trkpt lat="64.054382324" lon="-19.277217865">
<ele>585.703125</ele>
<time>2012-07-21T23:40:19Z</time>
<speed>1.210000</speed>
<extensions>
<speed>1.2</speed>
<temp>0.00</temp>
<bpm>0</bpm>
<rpm>0.00</rpm>
</extensions>
</trkpt>
<trkpt lat="64.054405212" lon="-19.277116776">
<ele>585.328125</ele>
<time>2012-07-21T23:40:24Z</time>
<speed>1.120000</speed>
<extensions>
<speed>1.1</speed>
<temp>0.00</temp>
<bpm>0</bpm>
<rpm>0.00</rpm>
</extensions>
</trkpt>
<trkpt lat="64.054435730" lon="-19.277025223">
<ele>585.140625</ele>
<time>2012-07-21T23:40:29Z</time>
<speed>1.080000</speed>
<extensions>
<speed>1.1</speed>
<temp>0.00</temp>
<bpm>0</bpm>
<rpm>0.00</rpm>
</extensions>
</trkpt>
<trkpt lat="64.054450989" lon="-19.276910782">
<ele>585.156250</ele>
<time>2012-07-21T23:40:34Z</time>
<speed>1.260000</speed>
<extensions>
<speed>1.3</speed>
<temp>0.00</temp>
<bpm>0</bpm>
<rpm>0.00</rpm>
</extensions>
</trkpt>
<trkpt lat="64.054473877" lon="-19.276775360">
<ele>585.406250</ele>
<time>2012-07-21T23:40:39Z</time>
<speed>1.310000</speed>
<extensions>
<speed>1.3</speed>
<temp>0.00</temp>
<bpm>0</bpm>
<rpm>0.00</rpm>
</extensions>
</trkpt>
<trkpt lat="64.054512024" lon="-19.276655197">
<ele>585.906250</ele>
<time>2012-07-21T23:40:44Z</time>
<speed>1.270000</speed>
<extensions>
<speed>1.3</speed>
<temp>0.00</temp>
<bpm>0</bpm>
<rpm>0.00</rpm>
</extensions>
</trkpt>
<trkpt lat="64.054542542" lon="-19.276538849">
<ele>586.062500</ele>
<time>2012-07-21T23:40:49Z</time>
<speed>1.430000</speed>
<extensions>
<speed>1.4</speed>
<temp>0.00</temp>
<bpm>0</bpm>
<rpm>0.00</rpm>
</extensions>
</trkpt>
<trkpt lat="64.054565430" lon="-19.276414871">
<ele>586.312500</ele>
<time>2012-07-21T23:40:54Z</time>
<speed>1.410000</speed>
<extensions>
<speed>1.4</speed>
<temp>0.00</temp>
<bpm>0</bpm>
<rpm>0.00</rpm>
</extensions>
</trkpt>
<trkpt lat="64.054595947" lon="-19.276296616">
<ele>587.296875</ele>
<time>2012-07-21T23:40:59Z</time>
<speed>1.240000</speed>
<extensions>
<speed>1.2</speed>
<temp>0.00</temp>
<bpm>0</bpm>
<rpm>0.00</rpm>
</extensions>
</trkpt>
<trkpt lat="64.054618835" lon="-19.276185989">
<ele>588.062500</ele>
<time>2012-07-21T23:41:04Z</time>
<speed>1.160000</speed>
<extensions>
<speed>1.2</speed>
<temp>0.00</temp>
<bpm>0</bpm>
<rpm>0.00</rpm>
</extensions>
</trkpt>
<trkpt lat="64.054649353" lon="-19.276084900">
<ele>589.281250</ele>
<time>2012-07-21T23:41:09Z</time>
<speed>1.230000</speed>
<extensions>
<speed>1.2</speed>
<temp>0.00</temp>
<bpm>0</bpm>
<rpm>0.00</rpm>
</extensions>
</trkpt>
<trkpt lat="64.054679871" lon="-19.275976181">
<ele>589.359375</ele>
<time>2012-07-21T23:41:14Z</time>
<speed>1.340000</speed>
<extensions>
<speed>1.3</speed>
<temp>0.00</temp>
<bpm>0</bpm>
<rpm>0.00</rpm>
</extensions>
</trkpt>
<trkpt lat="64.054702759" lon="-19.275856018">
<ele>590.828125</ele>
<time>2012-07-21T23:41:19Z</time>
<speed>1.270000</speed>
<extensions>
<speed>1.3</speed>
<temp>0.00</temp>
<bpm>0</bpm>
<rpm>0.00</rpm>
</extensions>
</trkpt>
<trkpt lat="64.054733276" lon="-19.275741577">
<ele>591.406250</ele>
<time>2012-07-21T23:41:24Z</time>
<speed>1.420000</speed>
<extensions>
<speed>1.4</speed>
<temp>0.00</temp>
<bpm>0</bpm>
<rpm>0.00</rpm>
</extensions>
</trkpt>
<trkpt lat="64.054763794" lon="-19.275642395">
<ele>591.234375</ele>
<time>2012-07-21T23:41:29Z</time>
<speed>1.380000</speed>
<extensions>
<speed>1.4</speed>
<temp>0.00</temp>
<bpm>0</bpm>
<rpm>0.00</rpm>
</extensions>
</trkpt>
<trkpt lat="64.054794312" lon="-19.275537491">
<ele>591.875000</ele>
<time>2012-07-21T23:41:34Z</time>
<speed>1.250000</speed>
<extensions>
<speed>1.3</speed>
<temp>0.00</temp>
<bpm>0</bpm>
<rpm>0.00</rpm>
</extensions>
</trkpt>
<trkpt lat="64.054824829" lon="-19.275423050">
<ele>592.296875</ele>
<time>2012-07-21T23:41:39Z</time>
<speed>1.200000</speed>
<extensions>
<speed>1.2</speed>
<temp>0.00</temp>
<bpm>0</bpm>
<rpm>0.00</rpm>
</extensions>
</trkpt>
<trkpt lat="64.054847717" lon="-19.275339127">
<ele>593.203125</ele>
<time>2012-07-21T23:41:44Z</time>
<speed>1.180000</speed>
<extensions>
<speed>1.2</speed>
<temp>0.00</temp>
<bpm>0</bpm>
<rpm>0.00</rpm>
</extensions>
</trkpt>
<trkpt lat="64.054878235" lon="-19.275236130">
<ele>593.062500</ele>
<time>2012-07-21T23:41:49Z</time>
<speed>1.220000</speed>
<extensions>
<speed>1.2</speed>
<temp>0.00</temp>
<bpm>0</bpm>
<rpm>0.00</rpm>
</extensions>
</trkpt>
<trkpt lat="64.054908752" lon="-19.275117874">
<ele>593.687500</ele>
<time>2012-07-21T23:41:54Z</time>
<speed>1.340000</speed>
<extensions>
<speed>1.3</speed>
<temp>0.00</temp>
<bpm>0</bpm>
<rpm>0.00</rpm>
</extensions>
</trkpt>
<trkpt lat="64.054924011" lon="-19.274990082">
<ele>594.359375</ele>
<time>2012-07-21T23:41:59Z</time>
<speed>1.190000</speed>
<extensions>
<speed>1.2</speed>
<temp>0.00</temp>
<bpm>0</bpm>
<rpm>0.00</rpm>
</extensions>
</trkpt>
<trkpt lat="64.054954529" lon="-19.274869919">
<ele>594.703125</ele>
<time>2012-07-21T23:42:04Z</time>
<speed>1.090000</speed>
<extensions>
<speed>1.1</speed>
<temp>0.00</temp>
<bpm>0</bpm>
<rpm>0.00</rpm>
</extensions>
</trkpt>
<trkpt lat="64.054977417" lon="-19.274768829">
<ele>593.468750</ele>
<time>2012-07-21T23:42:09Z</time>
<speed>1.220000</speed>
<extensions>
<speed>1.2</speed>
<temp>0.00</temp>
<bpm>0</bpm>
<rpm>0.00</rpm>
</extensions>
</trkpt>
<trkpt lat="64.055000305" lon="-19.274662018">
<ele>593.500000</ele>
<time>2012-07-21T23:42:14Z</time>
<speed>1.180000</speed>
<extensions>
<speed>1.2</speed>
<temp>0.00</temp>
<bpm>0</bpm>
<rpm>0.00</rpm>
</extensions>
</trkpt>
<trkpt lat="64.055023193" lon="-19.274536133">
<ele>592.609375</ele>
<time>2012-07-21T23:42:19Z</time>
<speed>1.290000</speed>
<extensions>
<speed>1.3</speed>
<temp>0.00</temp>
<bpm>0</bpm>
<rpm>0.00</rpm>
</extensions>
</trkpt>
<trkpt lat="64.055038452" lon="-19.274421692">
<ele>592.468750</ele>
<time>2012-07-21T23:42:24Z</time>
<speed>1.170000</speed>
<extensions>
<speed>1.2</speed>
<temp>0.00</temp>
<bpm>0</bpm>
<rpm>0.00</rpm>
</extensions>
</trkpt>
<trkpt lat="64.055046082" lon="-19.274307251">
<ele>592.312500</ele>
<time>2012-07-21T23:42:29Z</time>
<speed>1.290000</speed>
<extensions>
<speed>1.3</speed>
<temp>0.00</temp>
<bpm>0</bpm>
<rpm>0.00</rpm>
</extensions>
</trkpt>
<trkpt lat="64.055061340" lon="-19.274196625">
<ele>592.953125</ele>
<time>2012-07-21T23:42:34Z</time>
<speed>1.350000</speed>
<extensions>
<speed>1.4</speed>
<temp>0.00</temp>
<bpm>0</bpm>
<rpm>0.00</rpm>
</extensions>
</trkpt>
<trkpt lat="64.055084229" lon="-19.274097443">
<ele>593.015625</ele>
<time>2012-07-21T23:42:39Z</time>
<speed>0.940000</speed>
<extensions>
<speed>0.9</speed>
<temp>0.00</temp>
<bpm>0</bpm>
<rpm>0.00</rpm>
</extensions>
</trkpt>
<trkpt lat="64.055099487" lon="-19.273977280">
<ele>594.468750</ele>
<time>2012-07-21T23:42:44Z</time>
<speed>1.320000</speed>
<extensions>
<speed>1.3</speed>
<temp>0.00</temp>
<bpm>0</bpm>
<rpm>0.00</rpm>
</extensions>
</trkpt>
<trkpt lat="64.055114746" lon="-19.273836136">
<ele>594.375000</ele>
<time>2012-07-21T23:42:49Z</time>
<speed>1.270000</speed>
<extensions>
<speed>1.3</speed>
<temp>0.00</temp>
<bpm>0</bpm>
<rpm>0.00</rpm>
</extensions>
</trkpt>
<trkpt lat="64.055122375" lon="-19.273712158">
<ele>594.921875</ele>
<time>2012-07-21T23:42:54Z</time>
<speed>1.260000</speed>
<extensions>
<speed>1.3</speed>
<temp>0.00</temp>
<bpm>0</bpm>
<rpm>0.00</rpm>
</extensions>
</trkpt>
<trkpt lat="64.055137634" lon="-19.273586273">
<ele>595.296875</ele>
<time>2012-07-21T23:42:59Z</time>
<speed>1.360000</speed>
<extensions>
<speed>1.4</speed>
<temp>0.00</temp>
<bpm>0</bpm>
<rpm>0.00</rpm>
</extensions>
</trkpt>
<trkpt lat="64.055152893" lon="-19.273456573">
<ele>595.921875</ele>
<time>2012-07-21T23:43:04Z</time>
<speed>1.310000</speed>
<extensions>
<speed>1.3</speed>
<temp>0.00</temp>
<bpm>0</bpm>
<rpm>0.00</rpm>
</extensions>
</trkpt>
<trkpt lat="64.055152893" lon="-19.273323059">
<ele>595.515625</ele>
<time>2012-07-21T23:43:09Z</time>
<speed>1.140000</speed>
<extensions>
<speed>1.1</speed>
<temp>0.00</temp>
<bpm>0</bpm>
<rpm>0.00</rpm>
</extensions>
</trkpt>
<trkpt lat="64.055152893" lon="-19.273183823">
<ele>595.468750</ele>
<time>2012-07-21T23:43:14Z</time>
<speed>1.290000</speed>
<extensions>
<speed>1.3</speed>
<temp>0.00</temp>
<bpm>0</bpm>
<rpm>0.00</rpm>
</extensions>
</trkpt>
<trkpt lat="64.055175781" lon="-19.273063660">
<ele>596.218750</ele>
<time>2012-07-21T23:43:19Z</time>
<speed>1.270000</speed>
<extensions>
<speed>1.3</speed>
<temp>0.00</temp>
<bpm>0</bpm>
<rpm>0.00</rpm>
</extensions>
</trkpt>
<trkpt lat="64.055191040" lon="-19.272932053">
<ele>596.046875</ele>
<time>2012-07-21T23:43:24Z</time>
<speed>1.350000</speed>
<extensions>
<speed>1.4</speed>
<temp>0.00</temp>
<bpm>0</bpm>
<rpm>0.00</rpm>
</extensions>
</trkpt>
<trkpt lat="64.055198669" lon="-19.272794724">
<ele>595.484375</ele>
<time>2012-07-21T23:43:29Z</time>
<speed>1.340000</speed>
<extensions>
<speed>1.3</speed>
<temp>0.00</temp>
<bpm>0</bpm>
<rpm>0.00</rpm>
</extensions>
</trkpt>
<trkpt lat="64.055206299" lon="-19.272657394">
<ele>595.140625</ele>
<time>2012-07-21T23:43:34Z</time>
<speed>1.390000</speed>
<extensions>
<speed>1.4</speed>
<temp>0.00</temp>
<bpm>0</bpm>
<rpm>0.00</rpm>
</extensions>
</trkpt>
<trkpt lat="64.055206299" lon="-19.272508621">
<ele>595.296875</ele>
<time>2012-07-21T23:43:39Z</time>
<speed>1.400000</speed>
<extensions>
<speed>1.4</speed>
<temp>0.00</temp>
<bpm>0</bpm>
<rpm>0.00</rpm>
</extensions>
</trkpt>
<trkpt lat="64.055221558" lon="-19.272371292">
<ele>595.765625</ele>
<time>2012-07-21T23:43:44Z</time>
<speed>1.470000</speed>
<extensions>
<speed>1.5</speed>
<temp>0.00</temp>
<bpm>0</bpm>
<rpm>0.00</rpm>
</extensions>
</trkpt>
<trkpt lat="64.055236816" lon="-19.272237778">
<ele>596.953125</ele>
<time>2012-07-21T23:43:49Z</time>
<speed>1.220000</speed>
<extensions>
<speed>1.2</speed>
<temp>0.00</temp>
<bpm>0</bpm>
<rpm>0.00</rpm>
</extensions>
</trkpt>
<trkpt lat="64.055252075" lon="-19.272108078">
<ele>597.578125</ele>
<time>2012-07-21T23:43:54Z</time>
<speed>1.400000</speed>
<extensions>
<speed>1.4</speed>
<temp>0.00</temp>
<bpm>0</bpm>
<rpm>0.00</rpm>
</extensions>
</trkpt>
<trkpt lat="64.055252075" lon="-19.271963120">
<ele>598.390625</ele>
<time>2012-07-21T23:43:59Z</time>
<speed>1.460000</speed>
<extensions>
<speed>1.5</speed>
<temp>0.00</temp>
<bpm>0</bpm>
<rpm>0.00</rpm>
</extensions>
</trkpt>
<trkpt lat="64.055267334" lon="-19.271816254">
<ele>599.796875</ele>
<time>2012-07-21T23:44:04Z</time>
<speed>1.430000</speed>
<extensions>
<speed>1.4</speed>
<temp>0.00</temp>
<bpm>0</bpm>
<rpm>0.00</rpm>
</extensions>
</trkpt>
<trkpt lat="64.055267334" lon="-19.271692276">
<ele>600.671875</ele>
<time>2012-07-21T23:44:09Z</time>
<speed>1.350000</speed>
<extensions>
<speed>1.4</speed>
<temp>0.00</temp>
<bpm>0</bpm>
<rpm>0.00</rpm>
</extensions>
</trkpt>
<trkpt lat="64.055274963" lon="-19.271553040">
<ele>600.296875</ele>
<time>2012-07-21T23:44:14Z</time>
<speed>1.370000</speed>
<extensions>
<speed>1.4</speed>
<temp>0.00</temp>
<bpm>0</bpm>
<rpm>0.00</rpm>
</extensions>
</trkpt>
<trkpt lat="64.055282593" lon="-19.271389008">
<ele>600.484375</ele>
<time>2012-07-21T23:44:19Z</time>
<speed>1.430000</speed>
<extensions>
<speed>1.4</speed>
<temp>0.00</temp>
<bpm>0</bpm>
<rpm>0.00</rpm>
</extensions>
</trkpt>
<trkpt lat="64.055290222" lon="-19.271251678">
<ele>600.187500</ele>
<time>2012-07-21T23:44:24Z</time>
<speed>1.340000</speed>
<extensions>
<speed>1.3</speed>
<temp>0.00</temp>
<bpm>0</bpm>
<rpm>0.00</rpm>
</extensions>
</trkpt>
<trkpt lat="64.055297852" lon="-19.271120071">
<ele>600.000000</ele>
<time>2012-07-21T23:44:29Z</time>
<speed>1.290000</speed>
<extensions>
<speed>1.3</speed>
<temp>0.00</temp>
<bpm>0</bpm>
<rpm>0.00</rpm>
</extensions>
</trkpt>
<trkpt lat="64.055305481" lon="-19.270984650">
<ele>600.671875</ele>
<time>2012-07-21T23:44:34Z</time>
<speed>1.360000</speed>
<extensions>
<speed>1.4</speed>
<temp>0.00</temp>
<bpm>0</bpm>
<rpm>0.00</rpm>
</extensions>
</trkpt>
<trkpt lat="64.055320740" lon="-19.270851135">
<ele>601.531250</ele>
<time>2012-07-21T23:44:39Z</time>
<speed>1.420000</speed>
<extensions>
<speed>1.4</speed>
<temp>0.00</temp>
<bpm>0</bpm>
<rpm>0.00</rpm>
</extensions>
</trkpt>
<trkpt lat="64.055320740" lon="-19.270706177">
<ele>601.328125</ele>
<time>2012-07-21T23:44:44Z</time>
<speed>1.490000</speed>
<extensions>
<speed>1.5</speed>
<temp>0.00</temp>
<bpm>0</bpm>
<rpm>0.00</rpm>
</extensions>
</trkpt>
<trkpt lat="64.055328369" lon="-19.270561218">
<ele>601.531250</ele>
<time>2012-07-21T23:44:49Z</time>
<speed>1.400000</speed>
<extensions>
<speed>1.4</speed>
<temp>0.00</temp>
<bpm>0</bpm>
<rpm>0.00</rpm>
</extensions>
</trkpt>
<trkpt lat="64.055328369" lon="-19.270460129">
<ele>601.890625</ele>
<time>2012-07-21T23:44:54Z</time>
<speed>0.320000</speed>
<extensions>
<speed>0.3</speed>
<temp>0.00</temp>
<bpm>0</bpm>
<rpm>0.00</rpm>
</extensions>
</trkpt>
<trkpt lat="64.055335999" lon="-19.270429611">
<ele>602.156250</ele>
<time>2012-07-21T23:44:59Z</time>
<speed>0.690000</speed>
<extensions>
<speed>0.7</speed>
<temp>0.00</temp>
<bpm>0</bpm>
<rpm>0.00</rpm>
</extensions>
</trkpt>
<trkpt lat="64.055343628" lon="-19.270236969">
<ele>601.796875</ele>
<time>2012-07-21T23:45:04Z</time>
<speed>2.170000</speed>
<extensions>
<speed>2.2</speed>
<temp>0.00</temp>
<bpm>0</bpm>
<rpm>0.00</rpm>
</extensions>
</trkpt>
<trkpt lat="64.055358887" lon="-19.270023346">
<ele>601.875000</ele>
<time>2012-07-21T23:45:09Z</time>
<speed>1.710000</speed>
<extensions>
<speed>1.7</speed>
<temp>0.00</temp>
<bpm>0</bpm>
<rpm>0.00</rpm>
</extensions>
</trkpt>
<trkpt lat="64.055374146" lon="-19.269863129">
<ele>602.296875</ele>
<time>2012-07-21T23:45:14Z</time>
<speed>1.510000</speed>
<extensions>
<speed>1.5</speed>
<temp>0.00</temp>
<bpm>0</bpm>
<rpm>0.00</rpm>
</extensions>
</trkpt>
<trkpt lat="64.055381775" lon="-19.269720078">
<ele>602.703125</ele>
<time>2012-07-21T23:45:19Z</time>
<speed>1.670000</speed>
<extensions>
<speed>1.7</speed>
<temp>0.00</temp>
<bpm>0</bpm>
<rpm>0.00</rpm>
</extensions>
</trkpt>
<trkpt lat="64.055381775" lon="-19.269523621">
<ele>602.484375</ele>
<time>2012-07-21T23:45:24Z</time>
<speed>1.930000</speed>
<extensions>
<speed>1.9</speed>
<temp>0.00</temp>
<bpm>0</bpm>
<rpm>0.00</rpm>
</extensions>
</trkpt>
<trkpt lat="64.055389404" lon="-19.269338608">
<ele>602.500000</ele>
<time>2012-07-21T23:45:29Z</time>
<speed>1.740000</speed>
<extensions>
<speed>1.7</speed>
<temp>0.00</temp>
<bpm>0</bpm>
<rpm>0.00</rpm>
</extensions>
</trkpt>
<trkpt lat="64.055389404" lon="-19.269155502">
<ele>602.187500</ele>
<time>2012-07-21T23:45:34Z</time>
<speed>1.840000</speed>
<extensions>
<speed>1.8</speed>
<temp>0.00</temp>
<bpm>0</bpm>
<rpm>0.00</rpm>
</extensions>
</trkpt>
<trkpt lat="64.055389404" lon="-19.268957138">
<ele>601.046875</ele>
<time>2012-07-21T23:45:39Z</time>
<speed>1.880000</speed>
<extensions>
<speed>1.9</speed>
<temp>0.00</temp>
<bpm>0</bpm>
<rpm>0.00</rpm>
</extensions>
</trkpt>
<trkpt lat="64.055397034" lon="-19.268764496">
<ele>602.562500</ele>
<time>2012-07-21T23:45:44Z</time>
<speed>1.920000</speed>
<extensions>
<speed>1.9</speed>
<temp>0.00</temp>
<bpm>0</bpm>
<rpm>0.00</rpm>
</extensions>
</trkpt>
<trkpt lat="64.055404663" lon="-19.268568039">
<ele>602.671875</ele>
<time>2012-07-21T23:45:49Z</time>
<speed>1.980000</speed>
<extensions>
<speed>2.0</speed>
<temp>0.00</temp>
<bpm>0</bpm>
<rpm>0.00</rpm>
</extensions>
</trkpt>
<trkpt lat="64.055397034" lon="-19.268363953">
<ele>602.468750</ele>
<time>2012-07-21T23:45:54Z</time>
<speed>1.920000</speed>
<extensions>
<speed>1.9</speed>
<temp>0.00</temp>
<bpm>0</bpm>
<rpm>0.00</rpm>
</extensions>
</trkpt>
<trkpt lat="64.055397034" lon="-19.268157959">
<ele>603.125000</ele>
<time>2012-07-21T23:45:59Z</time>
<speed>1.990000</speed>
<extensions>
<speed>2.0</speed>
<temp>0.00</temp>
<bpm>0</bpm>
<rpm>0.00</rpm>
</extensions>
</trkpt>
<trkpt lat="64.055404663" lon="-19.267982483">
<ele>602.640625</ele>
<time>2012-07-21T23:46:04Z</time>
<speed>1.880000</speed>
<extensions>
<speed>1.9</speed>
<temp>0.00</temp>
<bpm>0</bpm>
<rpm>0.00</rpm>
</extensions>
</trkpt>
<trkpt lat="64.055412292" lon="-19.267765045">
<ele>602.546875</ele>
<time>2012-07-21T23:46:09Z</time>
<speed>2.130000</speed>
<extensions>
<speed>2.1</speed>
<temp>0.00</temp>
<bpm>0</bpm>
<rpm>0.00</rpm>
</extensions>
</trkpt>
<trkpt lat="64.055412292" lon="-19.267549515">
<ele>603.515625</ele>
<time>2012-07-21T23:46:14Z</time>
<speed>2.100000</speed>
<extensions>
<speed>2.1</speed>
<temp>0.00</temp>
<bpm>0</bpm>
<rpm>0.00</rpm>
</extensions>
</trkpt>
<trkpt lat="64.055412292" lon="-19.267349243">
<ele>605.640625</ele>
<time>2012-07-21T23:46:19Z</time>
<speed>1.960000</speed>
<extensions>
<speed>2.0</speed>
<temp>0.00</temp>
<bpm>0</bpm>
<rpm>0.00</rpm>
</extensions>
</trkpt>
<trkpt lat="64.055419922" lon="-19.267145157">
<ele>605.218750</ele>
<time>2012-07-21T23:46:24Z</time>
<speed>2.020000</speed>
<extensions>
<speed>2.0</speed>
<temp>0.00</temp>
<bpm>0</bpm>
<rpm>0.00</rpm>
</extensions>
</trkpt>
<trkpt lat="64.055427551" lon="-19.266946793">
<ele>605.234375</ele>
<time>2012-07-21T23:46:29Z</time>
<speed>1.860000</speed>
<extensions>
<speed>1.9</speed>
<temp>0.00</temp>
<bpm>0</bpm>
<rpm>0.00</rpm>
</extensions>
</trkpt>
<trkpt lat="64.055442810" lon="-19.266771317">
<ele>606.171875</ele>
<time>2012-07-21T23:46:34Z</time>
<speed>1.880000</speed>
<extensions>
<speed>1.9</speed>
<temp>0.00</temp>
<bpm>0</bpm>
<rpm>0.00</rpm>
</extensions>
</trkpt>
<trkpt lat="64.055450439" lon="-19.266572952">
<ele>605.281250</ele>
<time>2012-07-21T23:46:39Z</time>
<speed>1.790000</speed>
<extensions>
<speed>1.8</speed>
<temp>0.00</temp>
<bpm>0</bpm>
<rpm>0.00</rpm>
</extensions>
</trkpt>
<trkpt lat="64.055442810" lon="-19.266410828">
<ele>605.890625</ele>
<time>2012-07-21T23:46:44Z</time>
<speed>1.520000</speed>
<extensions>
<speed>1.5</speed>
<temp>0.00</temp>
<bpm>0</bpm>
<rpm>0.00</rpm>
</extensions>
</trkpt>
<trkpt lat="64.055442810" lon="-19.266233444">
<ele>606.250000</ele>
<time>2012-07-21T23:46:49Z</time>
<speed>1.650000</speed>
<extensions>
<speed>1.7</speed>
<temp>0.00</temp>
<bpm>0</bpm>
<rpm>0.00</rpm>
</extensions>
</trkpt>
<trkpt lat="64.055450439" lon="-19.266042709">
<ele>605.984375</ele>
<time>2012-07-21T23:46:54Z</time>
<speed>1.990000</speed>
<extensions>
<speed>2.0</speed>
<temp>0.00</temp>
<bpm>0</bpm>
<rpm>0.00</rpm>
</extensions>
</trkpt>
<trkpt lat="64.055450439" lon="-19.265825272">
<ele>605.125000</ele>
<time>2012-07-21T23:46:59Z</time>
<speed>1.840000</speed>
<extensions>
<speed>1.8</speed>
<temp>0.00</temp>
<bpm>0</bpm>
<rpm>0.00</rpm>
</extensions>
</trkpt>
<trkpt lat="64.055450439" lon="-19.265649796">
<ele>605.593750</ele>
<time>2012-07-21T23:47:04Z</time>
<speed>1.950000</speed>
<extensions>
<speed>1.9</speed>
<temp>0.00</temp>
<bpm>0</bpm>
<rpm>0.00</rpm>
</extensions>
</trkpt>
<trkpt lat="64.055458069" lon="-19.265439987">
<ele>604.515625</ele>
<time>2012-07-21T23:47:09Z</time>
<speed>1.800000</speed>
<extensions>
<speed>1.8</speed>
<temp>0.00</temp>
<bpm>0</bpm>
<rpm>0.00</rpm>
</extensions>
</trkpt>
<trkpt lat="64.055473328" lon="-19.265235901">
<ele>603.546875</ele>
<time>2012-07-21T23:47:14Z</time>
<speed>2.020000</speed>
<extensions>
<speed>2.0</speed>
<temp>0.00</temp>
<bpm>0</bpm>
<rpm>0.00</rpm>
</extensions>
</trkpt>
<trkpt lat="64.055488586" lon="-19.265062332">
<ele>604.328125</ele>
<time>2012-07-21T23:47:19Z</time>
<speed>2.050000</speed>
<extensions>
<speed>2.1</speed>
<temp>0.00</temp>
<bpm>0</bpm>
<rpm>0.00</rpm>
</extensions>
</trkpt>
<trkpt lat="64.055511475" lon="-19.264858246">
<ele>604.218750</ele>
<time>2012-07-21T23:47:24Z</time>
<speed>1.820000</speed>
<extensions>
<speed>1.8</speed>
<temp>0.00</temp>
<bpm>0</bpm>
<rpm>0.00</rpm>
</extensions>
</trkpt>
<trkpt lat="64.055526733" lon="-19.264638901">
<ele>603.343750</ele>
<time>2012-07-21T23:47:29Z</time>
<speed>2.000000</speed>
<extensions>
<speed>2.0</speed>
<temp>0.00</temp>
<bpm>0</bpm>
<rpm>0.00</rpm>
</extensions>
</trkpt>
<trkpt lat="64.055549622" lon="-19.264446259">
<ele>602.687500</ele>
<time>2012-07-21T23:47:34Z</time>
<speed>1.870000</speed>
<extensions>
<speed>1.9</speed>
<temp>0.00</temp>
<bpm>0</bpm>
<rpm>0.00</rpm>
</extensions>
</trkpt>
<trkpt lat="64.055587769" lon="-19.264217377">
<ele>600.140625</ele>
<time>2012-07-21T23:47:39Z</time>
<speed>2.280000</speed>
<extensions>
<speed>2.3</speed>
<temp>0.00</temp>
<bpm>0</bpm>
<rpm>0.00</rpm>
</extensions>
</trkpt>
<trkpt lat="64.055641174" lon="-19.264011383">
<ele>597.531250</ele>
<time>2012-07-21T23:47:44Z</time>
<speed>2.650000</speed>
<extensions>
<speed>2.6</speed>
<temp>0.00</temp>
<bpm>0</bpm>
<rpm>0.00</rpm>
</extensions>
</trkpt>
<trkpt lat="64.055709839" lon="-19.263759613">
<ele>597.296875</ele>
<time>2012-07-21T23:47:49Z</time>
<speed>3.100000</speed>
<extensions>
<speed>3.1</speed>
<temp>0.00</temp>
<bpm>0</bpm>
<rpm>0.00</rpm>
</extensions>
</trkpt>
<trkpt lat="64.055778503" lon="-19.263492584">
<ele>596.828125</ele>
<time>2012-07-21T23:47:54Z</time>
<speed>3.190000</speed>
<extensions>
<speed>3.2</speed>
<temp>0.00</temp>
<bpm>0</bpm>
<rpm>0.00</rpm>
</extensions>
</trkpt>
<trkpt lat="64.055854797" lon="-19.263195038">
<ele>596.328125</ele>
<time>2012-07-21T23:47:59Z</time>
<speed>3.810000</speed>
<extensions>
<speed>3.8</speed>
<temp>0.00</temp>
<bpm>0</bpm>
<rpm>0.00</rpm>
</extensions>
</trkpt>
<trkpt lat="64.055946350" lon="-19.262823105">
<ele>594.671875</ele>
<time>2012-07-21T23:48:04Z</time>
<speed>4.450000</speed>
<extensions>
<speed>4.5</speed>
<temp>0.00</temp>
<bpm>0</bpm>
<rpm>0.00</rpm>
</extensions>
</trkpt>
<trkpt lat="64.056030273" lon="-19.262392044">
<ele>592.921875</ele>
<time>2012-07-21T23:48:09Z</time>
<speed>4.440000</speed>
<extensions>
<speed>4.4</speed>
<temp>0.00</temp>
<bpm>0</bpm>
<rpm>0.00</rpm>
</extensions>
</trkpt>
<trkpt lat="64.056098938" lon="-19.261991501">
<ele>593.218750</ele>
<time>2012-07-21T23:48:14Z</time>
<speed>4.020000</speed>
<extensions>
<speed>4.0</speed>
<temp>0.00</temp>
<bpm>0</bpm>
<rpm>0.00</rpm>
</extensions>
</trkpt>
<trkpt lat="64.056159973" lon="-19.261638641">
<ele>594.593750</ele>
<time>2012-07-21T23:48:19Z</time>
<speed>3.310000</speed>
<extensions>
<speed>3.3</speed>
<temp>0.00</temp>
<bpm>0</bpm>
<rpm>0.00</rpm>
</extensions>
</trkpt>
<trkpt lat="64.056213379" lon="-19.261323929">
<ele>594.703125</ele>
<time>2012-07-21T23:48:24Z</time>
<speed>2.990000</speed>
<extensions>
<speed>3.0</speed>
<temp>0.00</temp>
<bpm>0</bpm>
<rpm>0.00</rpm>
</extensions>
</trkpt>
<trkpt lat="64.056259155" lon="-19.261032104">
<ele>592.937500</ele>
<time>2012-07-21T23:48:29Z</time>
<speed>3.060000</speed>
<extensions>
<speed>3.1</speed>
<temp>0.00</temp>
<bpm>0</bpm>
<rpm>0.00</rpm>
</extensions>
</trkpt>
<trkpt lat="64.056304932" lon="-19.260744095">
<ele>591.500000</ele>
<time>2012-07-21T23:48:34Z</time>
<speed>2.750000</speed>
<extensions>
<speed>2.7</speed>
<temp>0.00</temp>
<bpm>0</bpm>
<rpm>0.00</rpm>
</extensions>
</trkpt>
<trkpt lat="64.056343079" lon="-19.260486603">
<ele>592.859375</ele>
<time>2012-07-21T23:48:39Z</time>
<speed>2.810000</speed>
<extensions>
<speed>2.8</speed>
<temp>0.00</temp>
<bpm>0</bpm>
<rpm>0.00</rpm>
</extensions>
</trkpt>
<trkpt lat="64.056381226" lon="-19.260255814">
<ele>592.265625</ele>
<time>2012-07-21T23:48:44Z</time>
<speed>2.370000</speed>
<extensions>
<speed>2.4</speed>
<temp>0.00</temp>
<bpm>0</bpm>
<rpm>0.00</rpm>
</extensions>
</trkpt>
<trkpt lat="64.056427002" lon="-19.260026932">
<ele>592.093750</ele>
<time>2012-07-21T23:48:49Z</time>
<speed>2.580000</speed>
<extensions>
<speed>2.6</speed>
<temp>0.00</temp>
<bpm>0</bpm>
<rpm>0.00</rpm>
</extensions>
</trkpt>
<trkpt lat="64.056465149" lon="-19.259780884">
<ele>591.578125</ele>
<time>2012-07-21T23:48:54Z</time>
<speed>2.210000</speed>
<extensions>
<speed>2.2</speed>
<temp>0.00</temp>
<bpm>0</bpm>
<rpm>0.00</rpm>
</extensions>
</trkpt>
<trkpt lat="64.056495667" lon="-19.259578705">
<ele>591.234375</ele>
<time>2012-07-21T23:48:59Z</time>
<speed>2.300000</speed>
<extensions>
<speed>2.3</speed>
<temp>0.00</temp>
<bpm>0</bpm>
<rpm>0.00</rpm>
</extensions>
</trkpt>
<trkpt lat="64.056518555" lon="-19.259405136">
<ele>590.937500</ele>
<time>2012-07-21T23:49:04Z</time>
<speed>1.770000</speed>
<extensions>
<speed>1.8</speed>
<temp>0.00</temp>
<bpm>0</bpm>
<rpm>0.00</rpm>
</extensions>
</trkpt>
<trkpt lat="64.056556702" lon="-19.259227753">
<ele>590.546875</ele>
<time>2012-07-21T23:49:09Z</time>
<speed>1.640000</speed>
<extensions>
<speed>1.6</speed>
<temp>0.00</temp>
<bpm>0</bpm>
<rpm>0.00</rpm>
</extensions>
</trkpt>
<trkpt lat="64.056571960" lon="-19.259037018">
<ele>590.468750</ele>
<time>2012-07-21T23:49:14Z</time>
<speed>2.130000</speed>
<extensions>
<speed>2.1</speed>
<temp>0.00</temp>
<bpm>0</bpm>
<rpm>0.00</rpm>
</extensions>
</trkpt>
<trkpt lat="64.056610107" lon="-19.258865356">
<ele>590.218750</ele>
<time>2012-07-21T23:49:19Z</time>
<speed>1.660000</speed>
<extensions>
<speed>1.7</speed>
<temp>0.00</temp>
<bpm>0</bpm>
<rpm>0.00</rpm>
</extensions>
</trkpt>
<trkpt lat="64.056625366" lon="-19.258686066">
<ele>590.718750</ele>
<time>2012-07-21T23:49:24Z</time>
<speed>1.930000</speed>
<extensions>
<speed>1.9</speed>
<temp>0.00</temp>
<bpm>0</bpm>
<rpm>0.00</rpm>
</extensions>
</trkpt>
<trkpt lat="64.056648254" lon="-19.258508682">
<ele>591.359375</ele>
<time>2012-07-21T23:49:29Z</time>
<speed>1.670000</speed>
<extensions>
<speed>1.7</speed>
<temp>0.00</temp>
<bpm>0</bpm>
<rpm>0.00</rpm>
</extensions>
</trkpt>
<trkpt lat="64.056671143" lon="-19.258317947">
<ele>591.296875</ele>
<time>2012-07-21T23:49:34Z</time>
<speed>1.630000</speed>
<extensions>
<speed>1.6</speed>
<temp>0.00</temp>
<bpm>0</bpm>
<rpm>0.00</rpm>
</extensions>
</trkpt>
<trkpt lat="64.056686401" lon="-19.258157730">
<ele>590.968750</ele>
<time>2012-07-21T23:49:39Z</time>
<speed>1.840000</speed>
<extensions>
<speed>1.8</speed>
<temp>0.00</temp>
<bpm>0</bpm>
<rpm>0.00</rpm>
</extensions>
</trkpt>
<trkpt lat="64.056709290" lon="-19.258007050">
<ele>590.453125</ele>
<time>2012-07-21T23:49:44Z</time>
<speed>1.520000</speed>
<extensions>
<speed>1.5</speed>
<temp>0.00</temp>
<bpm>0</bpm>
<rpm>0.00</rpm>
</extensions>
</trkpt>
<trkpt lat="64.056732178" lon="-19.257829666">
<ele>589.984375</ele>
<time>2012-07-21T23:49:49Z</time>
<speed>1.580000</speed>
<extensions>
<speed>1.6</speed>
<temp>0.00</temp>
<bpm>0</bpm>
<rpm>0.00</rpm>
</extensions>
</trkpt>
<trkpt lat="64.056747437" lon="-19.257675171">
<ele>589.921875</ele>
<time>2012-07-21T23:49:54Z</time>
<speed>1.550000</speed>
<extensions>
<speed>1.5</speed>
<temp>0.00</temp>
<bpm>0</bpm>
<rpm>0.00</rpm>
</extensions>
</trkpt>
<trkpt lat="64.056785583" lon="-19.257499695">
<ele>590.062500</ele>
<time>2012-07-21T23:49:59Z</time>
<speed>1.830000</speed>
<extensions>
<speed>1.8</speed>
<temp>0.00</temp>
<bpm>0</bpm>
<rpm>0.00</rpm>
</extensions>
</trkpt>
<trkpt lat="64.056800842" lon="-19.257326126">
<ele>590.515625</ele>
<time>2012-07-21T23:50:04Z</time>
<speed>1.380000</speed>
<extensions>
<speed>1.4</speed>
<temp>0.00</temp>
<bpm>0</bpm>
<rpm>0.00</rpm>
</extensions>
</trkpt>
<trkpt lat="64.056823730" lon="-19.257192612">
<ele>590.328125</ele>
<time>2012-07-21T23:50:09Z</time>
<speed>1.720000</speed>
<extensions>
<speed>1.7</speed>
<temp>0.00</temp>
<bpm>0</bpm>
<rpm>0.00</rpm>
</extensions>
</trkpt>
<trkpt lat="64.056838989" lon="-19.257019043">
<ele>590.593750</ele>
<time>2012-07-21T23:50:14Z</time>
<speed>1.630000</speed>
<extensions>
<speed>1.6</speed>
<temp>0.00</temp>
<bpm>0</bpm>
<rpm>0.00</rpm>
</extensions>
</trkpt>
<trkpt lat="64.056854248" lon="-19.256956100">
<ele>590.890625</ele>
<time>2012-07-21T23:50:19Z</time>
<speed>0.080000</speed>
<extensions>
<speed>0.1</speed>
<temp>0.00</temp>
<bpm>0</bpm>
<rpm>0.00</rpm>
</extensions>
</trkpt>
<trkpt lat="64.056854248" lon="-19.256958008">
<ele>590.812500</ele>
<time>2012-07-21T23:50:24Z</time>
<speed>0.030000</speed>
<extensions>
<speed>0.0</speed>
<temp>0.00</temp>
<bpm>0</bpm>
<rpm>0.00</rpm>
</extensions>
</trkpt>
<trkpt lat="64.056861877" lon="-19.256856918">
<ele>592.109375</ele>
<time>2012-07-21T23:50:29Z</time>
<speed>0.990000</speed>
<extensions>
<speed>1.0</speed>
<temp>0.00</temp>
<bpm>0</bpm>
<rpm>0.00</rpm>
</extensions>
</trkpt>
<trkpt lat="64.056877136" lon="-19.256727219">
<ele>592.734375</ele>
<time>2012-07-21T23:50:34Z</time>
<speed>1.900000</speed>
<extensions>
<speed>1.9</speed>
<temp>0.00</temp>
<bpm>0</bpm>
<rpm>0.00</rpm>
</extensions>
</trkpt>
<trkpt lat="64.056900024" lon="-19.256515503">
<ele>593.500000</ele>
<time>2012-07-21T23:50:39Z</time>
<speed>2.290000</speed>
<extensions>
<speed>2.3</speed>
<temp>0.00</temp>
<bpm>0</bpm>
<rpm>0.00</rpm>
</extensions>
</trkpt>
<trkpt lat="64.056922913" lon="-19.256261826">
<ele>593.140625</ele>
<time>2012-07-21T23:50:44Z</time>
<speed>2.500000</speed>
<extensions>
<speed>2.5</speed>
<temp>0.00</temp>
<bpm>0</bpm>
<rpm>0.00</rpm>
</extensions>
</trkpt>
<trkpt lat="64.056953430" lon="-19.256036758">
<ele>593.562500</ele>
<time>2012-07-21T23:50:49Z</time>
<speed>2.760000</speed>
<extensions>
<speed>2.8</speed>
<temp>0.00</temp>
<bpm>0</bpm>
<rpm>0.00</rpm>
</extensions>
</trkpt>
<trkpt lat="64.056991577" lon="-19.255800247">
<ele>594.406250</ele>
<time>2012-07-21T23:50:54Z</time>
<speed>2.450000</speed>
<extensions>
<speed>2.4</speed>
<temp>0.00</temp>
<bpm>0</bpm>
<rpm>0.00</rpm>
</extensions>
</trkpt>
<trkpt lat="64.057006836" lon="-19.255561829">
<ele>594.203125</ele>
<time>2012-07-21T23:50:59Z</time>
<speed>2.350000</speed>
<extensions>
<speed>2.4</speed>
<temp>0.00</temp>
<bpm>0</bpm>
<rpm>0.00</rpm>
</extensions>
</trkpt>
<trkpt lat="64.057029724" lon="-19.255369186">
<ele>593.453125</ele>
<time>2012-07-21T23:51:04Z</time>
<speed>1.340000</speed>
<extensions>
<speed>1.3</speed>
<temp>0.00</temp>
<bpm>0</bpm>
<rpm>0.00</rpm>
</extensions>
</trkpt>
<trkpt lat="64.057044983" lon="-19.255224228">
<ele>594.125000</ele>
<time>2012-07-21T23:51:09Z</time>
<speed>1.470000</speed>
<extensions>
<speed>1.5</speed>
<temp>0.00</temp>
<bpm>0</bpm>
<rpm>0.00</rpm>
</extensions>
</trkpt>
<trkpt lat="64.057075500" lon="-19.255023956">
<ele>594.906250</ele>
<time>2012-07-21T23:51:14Z</time>
<speed>2.230000</speed>
<extensions>
<speed>2.2</speed>
<temp>0.00</temp>
<bpm>0</bpm>
<rpm>0.00</rpm>
</extensions>
</trkpt>
<trkpt lat="64.057106018" lon="-19.254806519">
<ele>595.015625</ele>
<time>2012-07-21T23:51:19Z</time>
<speed>2.290000</speed>
<extensions>
<speed>2.3</speed>
<temp>0.00</temp>
<bpm>0</bpm>
<rpm>0.00</rpm>
</extensions>
</trkpt>
<trkpt lat="64.057128906" lon="-19.254585266">
<ele>594.796875</ele>
<time>2012-07-21T23:51:24Z</time>
<speed>2.390000</speed>
<extensions>
<speed>2.4</speed>
<temp>0.00</temp>
<bpm>0</bpm>
<rpm>0.00</rpm>
</extensions>
</trkpt>
<trkpt lat="64.057159424" lon="-19.254352570">
<ele>594.593750</ele>
<time>2012-07-21T23:51:29Z</time>
<speed>2.450000</speed>
<extensions>
<speed>2.4</speed>
<temp>0.00</temp>
<bpm>0</bpm>
<rpm>0.00</rpm>
</extensions>
</trkpt>
<trkpt lat="64.057182312" lon="-19.254100800">
<ele>594.718750</ele>
<time>2012-07-21T23:51:34Z</time>
<speed>2.800000</speed>
<extensions>
<speed>2.8</speed>
<temp>0.00</temp>
<bpm>0</bpm>
<rpm>0.00</rpm>
</extensions>
</trkpt>
<trkpt lat="64.057205200" lon="-19.253879547">
<ele>594.796875</ele>
<time>2012-07-21T23:51:39Z</time>
<speed>1.760000</speed>
<extensions>
<speed>1.8</speed>
<temp>0.00</temp>
<bpm>0</bpm>
<rpm>0.00</rpm>
</extensions>
</trkpt>
<trkpt lat="64.057228088" lon="-19.253736496">
<ele>593.937500</ele>
<time>2012-07-21T23:51:44Z</time>
<speed>1.840000</speed>
<extensions>
<speed>1.8</speed>
<temp>0.00</temp>
<bpm>0</bpm>
<rpm>0.00</rpm>
</extensions>
</trkpt>
<trkpt lat="64.057243347" lon="-19.253557205">
<ele>594.796875</ele>
<time>2012-07-21T23:51:49Z</time>
<speed>1.760000</speed>
<extensions>
<speed>1.8</speed>
<temp>0.00</temp>
<bpm>0</bpm>
<rpm>0.00</rpm>
</extensions>
</trkpt>
<trkpt lat="64.057273865" lon="-19.253366470">
<ele>594.000000</ele>
<time>2012-07-21T23:51:54Z</time>
<speed>2.230000</speed>
<extensions>
<speed>2.2</speed>
<temp>0.00</temp>
<bpm>0</bpm>
<rpm>0.00</rpm>
</extensions>
</trkpt>
<trkpt lat="64.057296753" lon="-19.253131866">
<ele>594.078125</ele>
<time>2012-07-21T23:51:59Z</time>
<speed>2.100000</speed>
<extensions>
<speed>2.1</speed>
<temp>0.00</temp>
<bpm>0</bpm>
<rpm>0.00</rpm>
</extensions>
</trkpt>
<trkpt lat="64.057319641" lon="-19.252859116">
<ele>593.000000</ele>
<time>2012-07-21T23:52:04Z</time>
<speed>2.730000</speed>
<extensions>
<speed>2.7</speed>
<temp>0.00</temp>
<bpm>0</bpm>
<rpm>0.00</rpm>
</extensions>
</trkpt>
<trkpt lat="64.057342529" lon="-19.252614975">
<ele>591.593750</ele>
<time>2012-07-21T23:52:09Z</time>
<speed>2.310000</speed>
<extensions>
<speed>2.3</speed>
<temp>0.00</temp>
<bpm>0</bpm>
<rpm>0.00</rpm>
</extensions>
</trkpt>
<trkpt lat="64.057357788" lon="-19.252418518">
<ele>592.328125</ele>
<time>2012-07-21T23:52:14Z</time>
<speed>2.140000</speed>
<extensions>
<speed>2.1</speed>
<temp>0.00</temp>
<bpm>0</bpm>
<rpm>0.00</rpm>
</extensions>
</trkpt>
<trkpt lat="64.057388306" lon="-19.252243042">
<ele>592.671875</ele>
<time>2012-07-21T23:52:19Z</time>
<speed>2.120000</speed>
<extensions>
<speed>2.1</speed>
<temp>0.00</temp>
<bpm>0</bpm>
<rpm>0.00</rpm>
</extensions>
</trkpt>
<trkpt lat="64.057411194" lon="-19.252010345">
<ele>592.546875</ele>
<time>2012-07-21T23:52:24Z</time>
<speed>2.390000</speed>
<extensions>
<speed>2.4</speed>
<temp>0.00</temp>
<bpm>0</bpm>
<rpm>0.00</rpm>
</extensions>
</trkpt>
<trkpt lat="64.057434082" lon="-19.251827240">
<ele>592.187500</ele>
<time>2012-07-21T23:52:29Z</time>
<speed>1.460000</speed>
<extensions>
<speed>1.5</speed>
<temp>0.00</temp>
<bpm>0</bpm>
<rpm>0.00</rpm>
</extensions>
</trkpt>
<trkpt lat="64.057449341" lon="-19.251661301">
<ele>592.812500</ele>
<time>2012-07-21T23:52:34Z</time>
<speed>1.930000</speed>
<extensions>
<speed>1.9</speed>
<temp>0.00</temp>
<bpm>0</bpm>
<rpm>0.00</rpm>
</extensions>
</trkpt>
<trkpt lat="64.057441711" lon="-19.251516342">
<ele>592.250000</ele>
<time>2012-07-21T23:52:39Z</time>
<speed>1.480000</speed>
<extensions>
<speed>1.5</speed>
<temp>0.00</temp>
<bpm>0</bpm>
<rpm>0.00</rpm>
</extensions>
</trkpt>
<trkpt lat="64.057449341" lon="-19.251361847">
<ele>591.968750</ele>
<time>2012-07-21T23:52:44Z</time>
<speed>1.440000</speed>
<extensions>
<speed>1.4</speed>
<temp>0.00</temp>
<bpm>0</bpm>
<rpm>0.00</rpm>
</extensions>
</trkpt>
<trkpt lat="64.057456970" lon="-19.251216888">
<ele>592.031250</ele>
<time>2012-07-21T23:52:49Z</time>
<speed>1.560000</speed>
<extensions>
<speed>1.6</speed>
<temp>0.00</temp>
<bpm>0</bpm>
<rpm>0.00</rpm>
</extensions>
</trkpt>
<trkpt lat="64.057464600" lon="-19.251047134">
<ele>591.968750</ele>
<time>2012-07-21T23:52:54Z</time>
<speed>1.680000</speed>
<extensions>
<speed>1.7</speed>
<temp>0.00</temp>
<bpm>0</bpm>
<rpm>0.00</rpm>
</extensions>
</trkpt>
<trkpt lat="64.057472229" lon="-19.250877380">
<ele>592.796875</ele>
<time>2012-07-21T23:52:59Z</time>
<speed>1.850000</speed>
<extensions>
<speed>1.8</speed>
<temp>0.00</temp>
<bpm>0</bpm>
<rpm>0.00</rpm>
</extensions>
</trkpt>
<trkpt lat="64.057479858" lon="-19.250705719">
<ele>594.093750</ele>
<time>2012-07-21T23:53:04Z</time>
<speed>1.580000</speed>
<extensions>
<speed>1.6</speed>
<temp>0.00</temp>
<bpm>0</bpm>
<rpm>0.00</rpm>
</extensions>
</trkpt>
<trkpt lat="64.057487488" lon="-19.250518799">
<ele>594.031250</ele>
<time>2012-07-21T23:53:09Z</time>
<speed>1.970000</speed>
<extensions>
<speed>2.0</speed>
<temp>0.00</temp>
<bpm>0</bpm>
<rpm>0.00</rpm>
</extensions>
</trkpt>
<trkpt lat="64.057502747" lon="-19.250307083">
<ele>594.093750</ele>
<time>2012-07-21T23:53:14Z</time>
<speed>2.020000</speed>
<extensions>
<speed>2.0</speed>
<temp>0.00</temp>
<bpm>0</bpm>
<rpm>0.00</rpm>
</extensions>
</trkpt>
<trkpt lat="64.057510376" lon="-19.250122070">
<ele>594.609375</ele>
<time>2012-07-21T23:53:19Z</time>
<speed>1.890000</speed>
<extensions>
<speed>1.9</speed>
<temp>0.00</temp>
<bpm>0</bpm>
<rpm>0.00</rpm>
</extensions>
</trkpt>
<trkpt lat="64.057510376" lon="-19.249950409">
<ele>594.734375</ele>
<time>2012-07-21T23:53:24Z</time>
<speed>1.780000</speed>
<extensions>
<speed>1.8</speed>
<temp>0.00</temp>
<bpm>0</bpm>
<rpm>0.00</rpm>
</extensions>
</trkpt>
<trkpt lat="64.057510376" lon="-19.249788284">
<ele>596.953125</ele>
<time>2012-07-21T23:53:29Z</time>
<speed>2.070000</speed>
<extensions>
<speed>2.1</speed>
<temp>0.00</temp>
<bpm>0</bpm>
<rpm>0.00</rpm>
</extensions>
</trkpt>
<trkpt lat="64.057510376" lon="-19.249576569">
<ele>598.078125</ele>
<time>2012-07-21T23:53:34Z</time>
<speed>2.160000</speed>
<extensions>
<speed>2.2</speed>
<temp>0.00</temp>
<bpm>0</bpm>
<rpm>0.00</rpm>
</extensions>
</trkpt>
<trkpt lat="64.057518005" lon="-19.249362946">
<ele>598.796875</ele>
<time>2012-07-21T23:53:39Z</time>
<speed>2.310000</speed>
<extensions>
<speed>2.3</speed>
<temp>0.00</temp>
<bpm>0</bpm>
<rpm>0.00</rpm>
</extensions>
</trkpt>
<trkpt lat="64.057525635" lon="-19.249105453">
<ele>598.765625</ele>
<time>2012-07-21T23:53:44Z</time>
<speed>2.430000</speed>
<extensions>
<speed>2.4</speed>
<temp>0.00</temp>
<bpm>0</bpm>
<rpm>0.00</rpm>
</extensions>
</trkpt>
<trkpt lat="64.057533264" lon="-19.248844147">
<ele>597.593750</ele>
<time>2012-07-21T23:53:49Z</time>
<speed>2.590000</speed>
<extensions>
<speed>2.6</speed>
<temp>0.00</temp>
<bpm>0</bpm>
<rpm>0.00</rpm>
</extensions>
</trkpt>
<trkpt lat="64.057540894" lon="-19.248636246">
<ele>596.750000</ele>
<time>2012-07-21T23:53:54Z</time>
<speed>1.690000</speed>
<extensions>
<speed>1.7</speed>
<temp>0.00</temp>
<bpm>0</bpm>
<rpm>0.00</rpm>
</extensions>
</trkpt>
<trkpt lat="64.057556152" lon="-19.248422623">
<ele>596.375000</ele>
<time>2012-07-21T23:53:59Z</time>
<speed>2.560000</speed>
<extensions>
<speed>2.6</speed>
<temp>0.00</temp>
<bpm>0</bpm>
<rpm>0.00</rpm>
</extensions>
</trkpt>
<trkpt lat="64.057563782" lon="-19.248220444">
<ele>596.250000</ele>
<time>2012-07-21T23:54:04Z</time>
<speed>1.020000</speed>
<extensions>
<speed>1.0</speed>
<temp>0.00</temp>
<bpm>0</bpm>
<rpm>0.00</rpm>
</extensions>
</trkpt>
<trkpt lat="64.057594299" lon="-19.248069763">
<ele>595.281250</ele>
<time>2012-07-21T23:54:09Z</time>
<speed>1.290000</speed>
<extensions>
<speed>1.3</speed>
<temp>0.00</temp>
<bpm>0</bpm>
<rpm>0.00</rpm>
</extensions>
</trkpt>
<trkpt lat="64.057594299" lon="-19.247886658">
<ele>595.296875</ele>
<time>2012-07-21T23:54:14Z</time>
<speed>2.110000</speed>
<extensions>
<speed>2.1</speed>
<temp>0.00</temp>
<bpm>0</bpm>
<rpm>0.00</rpm>
</extensions>
</trkpt>
<trkpt lat="64.057594299" lon="-19.247667313">
<ele>595.453125</ele>
<time>2012-07-21T23:54:19Z</time>
<speed>2.410000</speed>
<extensions>
<speed>2.4</speed>
<temp>0.00</temp>
<bpm>0</bpm>
<rpm>0.00</rpm>
</extensions>
</trkpt>
<trkpt lat="64.057571411" lon="-19.247421265">
<ele>596.578125</ele>
<time>2012-07-21T23:54:24Z</time>
<speed>2.450000</speed>
<extensions>
<speed>2.4</speed>
<temp>0.00</temp>
<bpm>0</bpm>
<rpm>0.00</rpm>
</extensions>
</trkpt>
<trkpt lat="64.057518005" lon="-19.247192383">
<ele>593.218750</ele>
<time>2012-07-21T23:54:29Z</time>
<speed>2.290000</speed>
<extensions>
<speed>2.3</speed>
<temp>0.00</temp>
<bpm>0</bpm>
<rpm>0.00</rpm>
</extensions>
</trkpt>
<trkpt lat="64.057479858" lon="-19.246961594">
<ele>590.359375</ele>
<time>2012-07-21T23:54:34Z</time>
<speed>2.800000</speed>
<extensions>
<speed>2.8</speed>
<temp>0.00</temp>
<bpm>0</bpm>
<rpm>0.00</rpm>
</extensions>
</trkpt>
<trkpt lat="64.057464600" lon="-19.246671677">
<ele>591.375000</ele>
<time>2012-07-21T23:54:39Z</time>
<speed>1.940000</speed>
<extensions>
<speed>1.9</speed>
<temp>0.00</temp>
<bpm>0</bpm>
<rpm>0.00</rpm>
</extensions>
</trkpt>
<trkpt lat="64.057456970" lon="-19.246471405">
<ele>592.984375</ele>
<time>2012-07-21T23:54:44Z</time>
<speed>2.010000</speed>
<extensions>
<speed>2.0</speed>
<temp>0.00</temp>
<bpm>0</bpm>
<rpm>0.00</rpm>
</extensions>
</trkpt>
<trkpt lat="64.057411194" lon="-19.246295929">
<ele>591.234375</ele>
<time>2012-07-21T23:54:49Z</time>
<speed>2.330000</speed>
<extensions>
<speed>2.3</speed>
<temp>0.00</temp>
<bpm>0</bpm>
<rpm>0.00</rpm>
</extensions>
</trkpt>
<trkpt lat="64.057373047" lon="-19.246074677">
<ele>590.828125</ele>
<time>2012-07-21T23:54:54Z</time>
<speed>2.430000</speed>
<extensions>
<speed>2.4</speed>
<temp>0.00</temp>
<bpm>0</bpm>
<rpm>0.00</rpm>
</extensions>
</trkpt>
<trkpt lat="64.057350159" lon="-19.245903015">
<ele>591.406250</ele>
<time>2012-07-21T23:54:59Z</time>
<speed>1.650000</speed>
<extensions>
<speed>1.7</speed>
<temp>0.00</temp>
<bpm>0</bpm>
<rpm>0.00</rpm>
</extensions>
</trkpt>
<trkpt lat="64.057327271" lon="-19.245750427">
<ele>590.234375</ele>
<time>2012-07-21T23:55:04Z</time>
<speed>1.690000</speed>
<extensions>
<speed>1.7</speed>
<temp>0.00</temp>
<bpm>0</bpm>
<rpm>0.00</rpm>
</extensions>
</trkpt>
<trkpt lat="64.057289124" lon="-19.245580673">
<ele>588.953125</ele>
<time>2012-07-21T23:55:09Z</time>
<speed>1.640000</speed>
<extensions>
<speed>1.6</speed>
<temp>0.00</temp>
<bpm>0</bpm>
<rpm>0.00</rpm>
</extensions>
</trkpt>
<trkpt lat="64.057243347" lon="-19.245428085">
<ele>588.718750</ele>
<time>2012-07-21T23:55:14Z</time>
<speed>1.550000</speed>
<extensions>
<speed>1.5</speed>
<temp>0.00</temp>
<bpm>0</bpm>
<rpm>0.00</rpm>
</extensions>
</trkpt>
<trkpt lat="64.057182312" lon="-19.245340347">
<ele>588.218750</ele>
<time>2012-07-21T23:55:19Z</time>
<speed>1.720000</speed>
<extensions>
<speed>1.7</speed>
<temp>0.00</temp>
<bpm>0</bpm>
<rpm>0.00</rpm>
</extensions>
</trkpt>
<trkpt lat="64.057121277" lon="-19.245203018">
<ele>587.031250</ele>
<time>2012-07-21T23:55:24Z</time>
<speed>2.080000</speed>
<extensions>
<speed>2.1</speed>
<temp>0.00</temp>
<bpm>0</bpm>
<rpm>0.00</rpm>
</extensions>
</trkpt>
<trkpt lat="64.057044983" lon="-19.245090485">
<ele>586.296875</ele>
<time>2012-07-21T23:55:29Z</time>
<speed>1.860000</speed>
<extensions>
<speed>1.9</speed>
<temp>0.00</temp>
<bpm>0</bpm>
<rpm>0.00</rpm>
</extensions>
</trkpt>
<trkpt lat="64.056976318" lon="-19.244981766">
<ele>585.984375</ele>
<time>2012-07-21T23:55:34Z</time>
<speed>2.140000</speed>
<extensions>
<speed>2.1</speed>
<temp>0.00</temp>
<bpm>0</bpm>
<rpm>0.00</rpm>
</extensions>
</trkpt>
<trkpt lat="64.056907654" lon="-19.244897842">
<ele>585.328125</ele>
<time>2012-07-21T23:55:39Z</time>
<speed>0.850000</speed>
<extensions>
<speed>0.8</speed>
<temp>0.00</temp>
<bpm>0</bpm>
<rpm>0.00</rpm>
</extensions>
</trkpt>
<trkpt lat="64.056861877" lon="-19.244827271">
<ele>584.109375</ele>
<time>2012-07-21T23:55:44Z</time>
<speed>1.550000</speed>
<extensions>
<speed>1.5</speed>
<temp>0.00</temp>
<bpm>0</bpm>
<rpm>0.00</rpm>
</extensions>
</trkpt>
<trkpt lat="64.056816101" lon="-19.244714737">
<ele>582.343750</ele>
<time>2012-07-21T23:55:49Z</time>
<speed>0.510000</speed>
<extensions>
<speed>0.5</speed>
<temp>0.00</temp>
<bpm>0</bpm>
<rpm>0.00</rpm>
</extensions>
</trkpt>
<trkpt lat="64.056816101" lon="-19.244729996">
<ele>582.328125</ele>
<time>2012-07-21T23:55:54Z</time>
<speed>0.010000</speed>
<extensions>
<speed>0.0</speed>
<temp>0.00</temp>
<bpm>0</bpm>
<rpm>0.00</rpm>
</extensions>
</trkpt>
<trkpt lat="64.056816101" lon="-19.244726181">
<ele>582.250000</ele>
<time>2012-07-21T23:55:59Z</time>
<speed>0.040000</speed>
<extensions>
<speed>0.0</speed>
<temp>0.00</temp>
<bpm>0</bpm>
<rpm>0.00</rpm>
</extensions>
</trkpt>
<trkpt lat="64.056816101" lon="-19.244726181">
<ele>582.218750</ele>
<time>2012-07-21T23:56:04Z</time>
<extensions>
<speed>0.0</speed>
<temp>0.00</temp>
<bpm>0</bpm>
<rpm>0.00</rpm>
</extensions>
</trkpt>
<trkpt lat="64.056816101" lon="-19.244726181">
<ele>582.218750</ele>
<time>2012-07-21T23:56:09Z</time>
<extensions>
<speed>0.0</speed>
<temp>0.00</temp>
<bpm>0</bpm>
<rpm>0.00</rpm>
</extensions>
</trkpt>
<trkpt lat="64.056816101" lon="-19.244726181">
<ele>582.203125</ele>
<time>2012-07-21T23:56:14Z</time>
<extensions>
<speed>0.0</speed>
<temp>0.00</temp>
<bpm>0</bpm>
<rpm>0.00</rpm>
</extensions>
</trkpt>
<trkpt lat="64.056816101" lon="-19.244726181">
<ele>582.218750</ele>
<time>2012-07-21T23:56:19Z</time>
<speed>0.010000</speed>
<extensions>
<speed>0.0</speed>
<temp>0.00</temp>
<bpm>0</bpm>
<rpm>0.00</rpm>
</extensions>
</trkpt>
<trkpt lat="64.056816101" lon="-19.244726181">
<ele>582.218750</ele>
<time>2012-07-21T23:56:24Z</time>
<extensions>
<speed>0.0</speed>
<temp>0.00</temp>
<bpm>0</bpm>
<rpm>0.00</rpm>
</extensions>
</trkpt>
<trkpt lat="64.056816101" lon="-19.244726181">
<ele>582.218750</ele>
<time>2012-07-21T23:56:29Z</time>
<extensions>
<speed>0.0</speed>
<temp>0.00</temp>
<bpm>0</bpm>
<rpm>0.00</rpm>
</extensions>
</trkpt>
<trkpt lat="64.056816101" lon="-19.244724274">
<ele>582.250000</ele>
<time>2012-07-21T23:56:34Z</time>
<speed>0.080000</speed>
<extensions>
<speed>0.1</speed>
<temp>0.00</temp>
<bpm>0</bpm>
<rpm>0.00</rpm>
</extensions>
</trkpt>
<trkpt lat="64.056816101" lon="-19.244724274">
<ele>582.296875</ele>
<time>2012-07-21T23:56:39Z</time>
<speed>0.020000</speed>
<extensions>
<speed>0.0</speed>
<temp>0.00</temp>
<bpm>0</bpm>
<rpm>0.00</rpm>
</extensions>
</trkpt>
<trkpt lat="64.056816101" lon="-19.244726181">
<ele>582.328125</ele>
<time>2012-07-21T23:56:44Z</time>
<speed>0.040000</speed>
<extensions>
<speed>0.0</speed>
<temp>0.00</temp>
<bpm>0</bpm>
<rpm>0.00</rpm>
</extensions>
</trkpt>
<trkpt lat="64.056816101" lon="-19.244726181">
<ele>582.359375</ele>
<time>2012-07-21T23:56:49Z</time>
<speed>0.010000</speed>
<extensions>
<speed>0.0</speed>
<temp>0.00</temp>
<bpm>0</bpm>
<rpm>0.00</rpm>
</extensions>
</trkpt>
<trkpt lat="64.056816101" lon="-19.244726181">
<ele>582.343750</ele>
<time>2012-07-21T23:56:54Z</time>
<speed>0.010000</speed>
<extensions>
<speed>0.0</speed>
<temp>0.00</temp>
<bpm>0</bpm>
<rpm>0.00</rpm>
</extensions>
</trkpt>
<trkpt lat="64.056816101" lon="-19.244726181">
<ele>582.359375</ele>
<time>2012-07-21T23:56:59Z</time>
<speed>0.010000</speed>
<extensions>
<speed>0.0</speed>
<temp>0.00</temp>
<bpm>0</bpm>
<rpm>0.00</rpm>
</extensions>
</trkpt>
<trkpt lat="64.056816101" lon="-19.244726181">
<ele>582.328125</ele>
<time>2012-07-21T23:57:04Z</time>
<speed>0.020000</speed>
<extensions>
<speed>0.0</speed>
<temp>0.00</temp>
<bpm>0</bpm>
<rpm>0.00</rpm>
</extensions>
</trkpt>
<trkpt lat="64.056816101" lon="-19.244726181">
<ele>582.328125</ele>
<time>2012-07-21T23:57:09Z</time>
<speed>0.020000</speed>
<extensions>
<speed>0.0</speed>
<temp>0.00</temp>
<bpm>0</bpm>
<rpm>0.00</rpm>
</extensions>
</trkpt>
<trkpt lat="64.056816101" lon="-19.244726181">
<ele>582.281250</ele>
<time>2012-07-21T23:57:14Z</time>
<speed>0.020000</speed>
<extensions>
<speed>0.0</speed>
<temp>0.00</temp>
<bpm>0</bpm>
<rpm>0.00</rpm>
</extensions>
</trkpt>
<trkpt lat="64.056816101" lon="-19.244726181">
<ele>582.296875</ele>
<time>2012-07-21T23:57:19Z</time>
<speed>0.010000</speed>
<extensions>
<speed>0.0</speed>
<temp>0.00</temp>
<bpm>0</bpm>
<rpm>0.00</rpm>
</extensions>
</trkpt>
<trkpt lat="64.056816101" lon="-19.244726181">
<ele>582.328125</ele>
<time>2012-07-21T23:57:24Z</time>
<speed>0.010000</speed>
<extensions>
<speed>0.0</speed>
<temp>0.00</temp>
<bpm>0</bpm>
<rpm>0.00</rpm>
</extensions>
</trkpt>
<trkpt lat="64.056816101" lon="-19.244728088">
<ele>582.359375</ele>
<time>2012-07-21T23:57:29Z</time>
<speed>0.020000</speed>
<extensions>
<speed>0.0</speed>
<temp>0.00</temp>
<bpm>0</bpm>
<rpm>0.00</rpm>
</extensions>
</trkpt>
<trkpt lat="64.056785583" lon="-19.244676590">
<ele>582.500000</ele>
<time>2012-07-21T23:57:34Z</time>
<speed>1.780000</speed>
<extensions>
<speed>1.8</speed>
<temp>0.00</temp>
<bpm>0</bpm>
<rpm>0.00</rpm>
</extensions>
</trkpt>
<trkpt lat="64.056709290" lon="-19.244489670">
<ele>582.890625</ele>
<time>2012-07-21T23:57:39Z</time>
<speed>1.980000</speed>
<extensions>
<speed>2.0</speed>
<temp>0.00</temp>
<bpm>0</bpm>
<rpm>0.00</rpm>
</extensions>
</trkpt>
<trkpt lat="64.056632996" lon="-19.244344711">
<ele>583.453125</ele>
<time>2012-07-21T23:57:44Z</time>
<speed>1.810000</speed>
<extensions>
<speed>1.8</speed>
<temp>0.00</temp>
<bpm>0</bpm>
<rpm>0.00</rpm>
</extensions>
</trkpt>
<trkpt lat="64.056617737" lon="-19.244228363">
<ele>586.640625</ele>
<time>2012-07-21T23:57:49Z</time>
<speed>0.980000</speed>
<extensions>
<speed>1.0</speed>
<temp>0.00</temp>
<bpm>0</bpm>
<rpm>0.00</rpm>
</extensions>
</trkpt>
<trkpt lat="64.056602478" lon="-19.244176865">
<ele>586.828125</ele>
<time>2012-07-21T23:57:54Z</time>
<speed>0.960000</speed>
<extensions>
<speed>1.0</speed>
<temp>0.00</temp>
<bpm>0</bpm>
<rpm>0.00</rpm>
</extensions>
</trkpt>
<trkpt lat="64.056541443" lon="-19.244020462">
<ele>587.265625</ele>
<time>2012-07-21T23:57:59Z</time>
<speed>2.300000</speed>
<extensions>
<speed>2.3</speed>
<temp>0.00</temp>
<bpm>0</bpm>
<rpm>0.00</rpm>
</extensions>
</trkpt>
<trkpt lat="64.056495667" lon="-19.243803024">
<ele>587.890625</ele>
<time>2012-07-21T23:58:04Z</time>
<speed>2.430000</speed>
<extensions>
<speed>2.4</speed>
<temp>0.00</temp>
<bpm>0</bpm>
<rpm>0.00</rpm>
</extensions>
</trkpt>
<trkpt lat="64.056465149" lon="-19.243619919">
<ele>587.156250</ele>
<time>2012-07-21T23:58:09Z</time>
<speed>1.660000</speed>
<extensions>
<speed>1.7</speed>
<temp>0.00</temp>
<bpm>0</bpm>
<rpm>0.00</rpm>
</extensions>
</trkpt>
<trkpt lat="64.056411743" lon="-19.243446350">
<ele>586.671875</ele>
<time>2012-07-21T23:58:14Z</time>
<speed>2.370000</speed>
<extensions>
<speed>2.4</speed>
<temp>0.00</temp>
<bpm>0</bpm>
<rpm>0.00</rpm>
</extensions>
</trkpt>
<trkpt lat="64.056373596" lon="-19.243196487">
<ele>586.890625</ele>
<time>2012-07-21T23:58:19Z</time>
<speed>1.950000</speed>
<extensions>
<speed>1.9</speed>
<temp>0.00</temp>
<bpm>0</bpm>
<rpm>0.00</rpm>
</extensions>
</trkpt>
<trkpt lat="64.056343079" lon="-19.243034363">
<ele>587.562500</ele>
<time>2012-07-21T23:58:24Z</time>
<speed>1.130000</speed>
<extensions>
<speed>1.1</speed>
<temp>0.00</temp>
<bpm>0</bpm>
<rpm>0.00</rpm>
</extensions>
</trkpt>
<trkpt lat="64.056358337" lon="-19.243030548">
<ele>587.625000</ele>
<time>2012-07-21T23:58:29Z</time>
<speed>0.190000</speed>
<extensions>
<speed>0.2</speed>
<temp>0.00</temp>
<bpm>0</bpm>
<rpm>0.00</rpm>
</extensions>
</trkpt>
<trkpt lat="64.056365967" lon="-19.243026733">
<ele>588.531250</ele>
<time>2012-07-21T23:58:34Z</time>
<speed>0.200000</speed>
<extensions>
<speed>0.2</speed>
<temp>0.00</temp>
<bpm>0</bpm>
<rpm>0.00</rpm>
</extensions>
</trkpt>
<trkpt lat="64.056365967" lon="-19.243022919">
<ele>587.328125</ele>
<time>2012-07-21T23:58:39Z</time>
<speed>0.480000</speed>
<extensions>
<speed>0.5</speed>
<temp>0.00</temp>
<bpm>0</bpm>
<rpm>0.00</rpm>
</extensions>
</trkpt>
<trkpt lat="64.056343079" lon="-19.242950439">
<ele>586.921875</ele>
<time>2012-07-21T23:58:44Z</time>
<speed>0.900000</speed>
<extensions>
<speed>0.9</speed>
<temp>0.00</temp>
<bpm>0</bpm>
<rpm>0.00</rpm>
</extensions>
</trkpt>
<trkpt lat="64.056312561" lon="-19.242862701">
<ele>586.515625</ele>
<time>2012-07-21T23:58:49Z</time>
<speed>1.280000</speed>
<extensions>
<speed>1.3</speed>
<temp>0.00</temp>
<bpm>0</bpm>
<rpm>0.00</rpm>
</extensions>
</trkpt>
<trkpt lat="64.056304932" lon="-19.242738724">
<ele>587.453125</ele>
<time>2012-07-21T23:58:54Z</time>
<speed>1.520000</speed>
<extensions>
<speed>1.5</speed>
<temp>0.00</temp>
<bpm>0</bpm>
<rpm>0.00</rpm>
</extensions>
</trkpt>
<trkpt lat="64.056312561" lon="-19.242574692">
<ele>588.281250</ele>
<time>2012-07-21T23:58:59Z</time>
<speed>1.510000</speed>
<extensions>
<speed>1.5</speed>
<temp>0.00</temp>
<bpm>0</bpm>
<rpm>0.00</rpm>
</extensions>
</trkpt>
<trkpt lat="64.056327820" lon="-19.242410660">
<ele>589.218750</ele>
<time>2012-07-21T23:59:04Z</time>
<speed>1.740000</speed>
<extensions>
<speed>1.7</speed>
<temp>0.00</temp>
<bpm>0</bpm>
<rpm>0.00</rpm>
</extensions>
</trkpt>
<trkpt lat="64.056335449" lon="-19.242250443">
<ele>589.843750</ele>
<time>2012-07-21T23:59:09Z</time>
<speed>1.430000</speed>
<extensions>
<speed>1.4</speed>
<temp>0.00</temp>
<bpm>0</bpm>
<rpm>0.00</rpm>
</extensions>
</trkpt>
<trkpt lat="64.056335449" lon="-19.242103577">
<ele>589.062500</ele>
<time>2012-07-21T23:59:14Z</time>
<speed>1.420000</speed>
<extensions>
<speed>1.4</speed>
<temp>0.00</temp>
<bpm>0</bpm>
<rpm>0.00</rpm>
</extensions>
</trkpt>
<trkpt lat="64.056350708" lon="-19.241945267">
<ele>588.937500</ele>
<time>2012-07-21T23:59:19Z</time>
<speed>1.480000</speed>
<extensions>
<speed>1.5</speed>
<temp>0.00</temp>
<bpm>0</bpm>
<rpm>0.00</rpm>
</extensions>
</trkpt>
<trkpt lat="64.056343079" lon="-19.241790771">
<ele>589.328125</ele>
<time>2012-07-21T23:59:24Z</time>
<speed>1.520000</speed>
<extensions>
<speed>1.5</speed>
<temp>0.00</temp>
<bpm>0</bpm>
<rpm>0.00</rpm>
</extensions>
</trkpt>
<trkpt lat="64.056297302" lon="-19.241653442">
<ele>588.437500</ele>
<time>2012-07-21T23:59:29Z</time>
<speed>1.530000</speed>
<extensions>
<speed>1.5</speed>
<temp>0.00</temp>
<bpm>0</bpm>
<rpm>0.00</rpm>
</extensions>
</trkpt>
<trkpt lat="64.056266785" lon="-19.241523743">
<ele>588.437500</ele>
<time>2012-07-21T23:59:34Z</time>
<speed>1.340000</speed>
<extensions>
<speed>1.3</speed>
<temp>0.00</temp>
<bpm>0</bpm>
<rpm>0.00</rpm>
</extensions>
</trkpt>
<trkpt lat="64.056251526" lon="-19.241453171">
<ele>589.156250</ele>
<time>2012-07-21T23:59:39Z</time>
<speed>0.090000</speed>
<extensions>
<speed>0.1</speed>
<temp>0.00</temp>
<bpm>0</bpm>
<rpm>0.00</rpm>
</extensions>
</trkpt>
<trkpt lat="64.056251526" lon="-19.241455078">
<ele>589.156250</ele>
<time>2012-07-21T23:59:44Z</time>
<speed>0.660000</speed>
<extensions>
<speed>0.7</speed>
<temp>0.00</temp>
<bpm>0</bpm>
<rpm>0.00</rpm>
</extensions>
</trkpt>
<trkpt lat="64.056228638" lon="-19.241361618">
<ele>589.921875</ele>
<time>2012-07-21T23:59:49Z</time>
<speed>1.320000</speed>
<extensions>
<speed>1.3</speed>
<temp>0.00</temp>
<bpm>0</bpm>
<rpm>0.00</rpm>
</extensions>
</trkpt>
<trkpt lat="64.056198120" lon="-19.241275787">
<ele>590.125000</ele>
<time>2012-07-21T23:59:54Z</time>
<speed>1.440000</speed>
<extensions>
<speed>1.4</speed>
<temp>0.00</temp>
<bpm>0</bpm>
<rpm>0.00</rpm>
</extensions>
</trkpt>
<trkpt lat="64.056152344" lon="-19.241174698">
<ele>589.625000</ele>
<time>2012-07-21T23:59:59Z</time>
<speed>1.160000</speed>
<extensions>
<speed>1.2</speed>
<temp>0.00</temp>
<bpm>0</bpm>
<rpm>0.00</rpm>
</extensions>
</trkpt>
<trkpt lat="64.056106567" lon="-19.241075516">
<ele>589.921875</ele>
<time>2012-07-22T00:00:04Z</time>
<speed>1.520000</speed>
<extensions>
<speed>1.5</speed>
<temp>0.00</temp>
<bpm>0</bpm>
<rpm>0.00</rpm>
</extensions>
</trkpt>
<trkpt lat="64.056053162" lon="-19.240976334">
<ele>589.953125</ele>
<time>2012-07-22T00:00:09Z</time>
<speed>1.560000</speed>
<extensions>
<speed>1.6</speed>
<temp>0.00</temp>
<bpm>0</bpm>
<rpm>0.00</rpm>
</extensions>
</trkpt>
<trkpt lat="64.056007385" lon="-19.240856171">
<ele>590.140625</ele>
<time>2012-07-22T00:00:14Z</time>
<speed>1.500000</speed>
<extensions>
<speed>1.5</speed>
<temp>0.00</temp>
<bpm>0</bpm>
<rpm>0.00</rpm>
</extensions>
</trkpt>
<trkpt lat="64.056007385" lon="-19.240737915">
<ele>589.343750</ele>
<time>2012-07-22T00:00:19Z</time>
<speed>1.560000</speed>
<extensions>
<speed>1.6</speed>
<temp>0.00</temp>
<bpm>0</bpm>
<rpm>0.00</rpm>
</extensions>
</trkpt>
<trkpt lat="64.056030273" lon="-19.240640640">
<ele>589.031250</ele>
<time>2012-07-22T00:00:24Z</time>
<speed>0.890000</speed>
<extensions>
<speed>0.9</speed>
<temp>0.00</temp>
<bpm>0</bpm>
<rpm>0.00</rpm>
</extensions>
</trkpt>
<trkpt lat="64.056060791" lon="-19.240671158">
<ele>589.265625</ele>
<time>2012-07-22T00:00:29Z</time>
<speed>1.110000</speed>
<extensions>
<speed>1.1</speed>
<temp>0.00</temp>
<bpm>0</bpm>
<rpm>0.00</rpm>
</extensions>
</trkpt>
<trkpt lat="64.056076050" lon="-19.240749359">
<ele>587.640625</ele>
<time>2012-07-22T00:00:34Z</time>
<speed>0.800000</speed>
<extensions>
<speed>0.8</speed>
<temp>0.00</temp>
<bpm>0</bpm>
<rpm>0.00</rpm>
</extensions>
</trkpt>
<trkpt lat="64.056106567" lon="-19.240791321">
<ele>585.843750</ele>
<time>2012-07-22T00:00:39Z</time>
<speed>0.600000</speed>
<extensions>
<speed>0.6</speed>
<temp>0.00</temp>
<bpm>0</bpm>
<rpm>0.00</rpm>
</extensions>
</trkpt>
<trkpt lat="64.056144714" lon="-19.240827560">
<ele>584.203125</ele>
<time>2012-07-22T00:00:44Z</time>
<speed>0.590000</speed>
<extensions>
<speed>0.6</speed>
<temp>0.00</temp>
<bpm>0</bpm>
<rpm>0.00</rpm>
</extensions>
</trkpt>
<trkpt lat="64.056167603" lon="-19.240839005">
<ele>582.468750</ele>
<time>2012-07-22T00:00:49Z</time>
<speed>0.400000</speed>
<extensions>
<speed>0.4</speed>
<temp>0.00</temp>
<bpm>0</bpm>
<rpm>0.00</rpm>
</extensions>
</trkpt>
<trkpt lat="64.056182861" lon="-19.240766525">
<ele>580.781250</ele>
<time>2012-07-22T00:00:54Z</time>
<speed>0.200000</speed>
<extensions>
<speed>0.2</speed>
<temp>0.00</temp>
<bpm>0</bpm>
<rpm>0.00</rpm>
</extensions>
</trkpt>
<trkpt lat="64.056175232" lon="-19.240756989">
<ele>579.093750</ele>
<time>2012-07-22T00:00:59Z</time>
<speed>0.130000</speed>
<extensions>
<speed>0.1</speed>
<temp>0.00</temp>
<bpm>0</bpm>
<rpm>0.00</rpm>
</extensions>
</trkpt>
<trkpt lat="64.056175232" lon="-19.240768433">
<ele>578.265625</ele>
<time>2012-07-22T00:01:04Z</time>
<speed>0.160000</speed>
<extensions>
<speed>0.2</speed>
<temp>0.00</temp>
<bpm>0</bpm>
<rpm>0.00</rpm>
</extensions>
</trkpt>
<trkpt lat="64.056182861" lon="-19.240779877">
<ele>577.687500</ele>
<time>2012-07-22T00:01:09Z</time>
<speed>0.080000</speed>
<extensions>
<speed>0.1</speed>
<temp>0.00</temp>
<bpm>0</bpm>
<rpm>0.00</rpm>
</extensions>
</trkpt>
<trkpt lat="64.056182861" lon="-19.240783691">
<ele>577.390625</ele>
<time>2012-07-22T00:01:14Z</time>
<speed>0.030000</speed>
<extensions>
<speed>0.0</speed>
<temp>0.00</temp>
<bpm>0</bpm>
<rpm>0.00</rpm>
</extensions>
</trkpt>
<trkpt lat="64.056182861" lon="-19.240787506">
<ele>577.234375</ele>
<time>2012-07-22T00:01:19Z</time>
<speed>0.020000</speed>
<extensions>
<speed>0.0</speed>
<temp>0.00</temp>
<bpm>0</bpm>
<rpm>0.00</rpm>
</extensions>
</trkpt>
<trkpt lat="64.056182861" lon="-19.240789413">
<ele>577.156250</ele>
<time>2012-07-22T00:01:24Z</time>
<speed>0.040000</speed>
<extensions>
<speed>0.0</speed>
<temp>0.00</temp>
<bpm>0</bpm>
<rpm>0.00</rpm>
</extensions>
</trkpt>
<trkpt lat="64.056182861" lon="-19.240791321">
<ele>577.093750</ele>
<time>2012-07-22T00:01:29Z</time>
<speed>0.010000</speed>
<extensions>
<speed>0.0</speed>
<temp>0.00</temp>
<bpm>0</bpm>
<rpm>0.00</rpm>
</extensions>
</trkpt>
<trkpt lat="64.056182861" lon="-19.240791321">
<ele>577.078125</ele>
<time>2012-07-22T00:01:34Z</time>
<extensions>
<speed>0.0</speed>
<temp>0.00</temp>
<bpm>0</bpm>
<rpm>0.00</rpm>
</extensions>
</trkpt>
<trkpt lat="64.056182861" lon="-19.240791321">
<ele>577.093750</ele>
<time>2012-07-22T00:01:39Z</time>
<extensions>
<speed>0.0</speed>
<temp>0.00</temp>
<bpm>0</bpm>
<rpm>0.00</rpm>
</extensions>
</trkpt>
<trkpt lat="64.056182861" lon="-19.240791321">
<ele>577.093750</ele>
<time>2012-07-22T00:01:44Z</time>
<speed>0.010000</speed>
<extensions>
<speed>0.0</speed>
<temp>0.00</temp>
<bpm>0</bpm>
<rpm>0.00</rpm>
</extensions>
</trkpt>
<trkpt lat="64.056182861" lon="-19.240791321">
<ele>577.109375</ele>
<time>2012-07-22T00:01:49Z</time>
<speed>0.030000</speed>
<extensions>
<speed>0.0</speed>
<temp>0.00</temp>
<bpm>0</bpm>
<rpm>0.00</rpm>
</extensions>
</trkpt>
<trkpt lat="64.056182861" lon="-19.240793228">
<ele>577.109375</ele>
<time>2012-07-22T00:01:54Z</time>
<speed>0.010000</speed>
<extensions>
<speed>0.0</speed>
<temp>0.00</temp>
<bpm>0</bpm>
<rpm>0.00</rpm>
</extensions>
</trkpt>
<trkpt lat="64.056182861" lon="-19.240793228">
<ele>577.109375</ele>
<time>2012-07-22T00:01:59Z</time>
<speed>0.010000</speed>
<extensions>
<speed>0.0</speed>
<temp>0.00</temp>
<bpm>0</bpm>
<rpm>0.00</rpm>
</extensions>
</trkpt>
<trkpt lat="64.056182861" lon="-19.240793228">
<ele>577.109375</ele>
<time>2012-07-22T00:02:04Z</time>
<extensions>
<speed>0.0</speed>
<temp>0.00</temp>
<bpm>0</bpm>
<rpm>0.00</rpm>
</extensions>
</trkpt>
<trkpt lat="64.056182861" lon="-19.240793228">
<ele>577.093750</ele>
<time>2012-07-22T00:02:09Z</time>
<speed>0.010000</speed>
<extensions>
<speed>0.0</speed>
<temp>0.00</temp>
<bpm>0</bpm>
<rpm>0.00</rpm>
</extensions>
</trkpt>
<trkpt lat="64.056182861" lon="-19.240791321">
<ele>577.109375</ele>
<time>2012-07-22T00:02:14Z</time>
<speed>0.040000</speed>
<extensions>
<speed>0.0</speed>
<temp>0.00</temp>
<bpm>0</bpm>
<rpm>0.00</rpm>
</extensions>
</trkpt>
<trkpt lat="64.056182861" lon="-19.240785599">
<ele>577.140625</ele>
<time>2012-07-22T00:02:19Z</time>
<speed>0.140000</speed>
<extensions>
<speed>0.1</speed>
<temp>0.00</temp>
<bpm>0</bpm>
<rpm>0.00</rpm>
</extensions>
</trkpt>
<trkpt lat="64.056175232" lon="-19.240770340">
<ele>577.187500</ele>
<time>2012-07-22T00:02:24Z</time>
<speed>0.310000</speed>
<extensions>
<speed>0.3</speed>
<temp>0.00</temp>
<bpm>0</bpm>
<rpm>0.00</rpm>
</extensions>
</trkpt>
<trkpt lat="64.056137085" lon="-19.240715027">
<ele>577.859375</ele>
<time>2012-07-22T00:02:29Z</time>
<speed>0.390000</speed>
<extensions>
<speed>0.4</speed>
<temp>0.00</temp>
<bpm>0</bpm>
<rpm>0.00</rpm>
</extensions>
</trkpt>
<trkpt lat="64.056114197" lon="-19.240663528">
<ele>578.796875</ele>
<time>2012-07-22T00:02:34Z</time>
<speed>0.410000</speed>
<extensions>
<speed>0.4</speed>
<temp>0.00</temp>
<bpm>0</bpm>
<rpm>0.00</rpm>
</extensions>
</trkpt>
<trkpt lat="64.056106567" lon="-19.240646362">
<ele>580.343750</ele>
<time>2012-07-22T00:02:39Z</time>
<speed>0.060000</speed>
<extensions>
<speed>0.1</speed>
<temp>0.00</temp>
<bpm>0</bpm>
<rpm>0.00</rpm>
</extensions>
</trkpt>
<trkpt lat="64.056106567" lon="-19.240631104">
<ele>581.343750</ele>
<time>2012-07-22T00:02:44Z</time>
<speed>0.050000</speed>
<extensions>
<speed>0.1</speed>
<temp>0.00</temp>
<bpm>0</bpm>
<rpm>0.00</rpm>
</extensions>
</trkpt>
<trkpt lat="64.056106567" lon="-19.240623474">
<ele>581.687500</ele>
<time>2012-07-22T00:02:49Z</time>
<speed>0.080000</speed>
<extensions>
<speed>0.1</speed>
<temp>0.00</temp>
<bpm>0</bpm>
<rpm>0.00</rpm>
</extensions>
</trkpt>
<trkpt lat="64.056106567" lon="-19.240613937">
<ele>582.140625</ele>
<time>2012-07-22T00:02:54Z</time>
<speed>0.110000</speed>
<extensions>
<speed>0.1</speed>
<temp>0.00</temp>
<bpm>0</bpm>
<rpm>0.00</rpm>
</extensions>
</trkpt>
<trkpt lat="64.056106567" lon="-19.240604401">
<ele>582.640625</ele>
<time>2012-07-22T00:02:59Z</time>
<speed>0.130000</speed>
<extensions>
<speed>0.1</speed>
<temp>0.00</temp>
<bpm>0</bpm>
<rpm>0.00</rpm>
</extensions>
</trkpt>
<trkpt lat="64.056098938" lon="-19.240592957">
<ele>583.187500</ele>
<time>2012-07-22T00:03:04Z</time>
<speed>0.120000</speed>
<extensions>
<speed>0.1</speed>
<temp>0.00</temp>
<bpm>0</bpm>
<rpm>0.00</rpm>
</extensions>
</trkpt>
<trkpt lat="64.056098938" lon="-19.240581512">
<ele>583.765625</ele>
<time>2012-07-22T00:03:09Z</time>
<speed>0.140000</speed>
<extensions>
<speed>0.1</speed>
<temp>0.00</temp>
<bpm>0</bpm>
<rpm>0.00</rpm>
</extensions>
</trkpt>
<trkpt lat="64.056091309" lon="-19.240568161">
<ele>584.421875</ele>
<time>2012-07-22T00:03:14Z</time>
<speed>0.150000</speed>
<extensions>
<speed>0.2</speed>
<temp>0.00</temp>
<bpm>0</bpm>
<rpm>0.00</rpm>
</extensions>
</trkpt>
<trkpt lat="64.056091309" lon="-19.240549088">
<ele>585.171875</ele>
<time>2012-07-22T00:03:19Z</time>
<speed>0.210000</speed>
<extensions>
<speed>0.2</speed>
<temp>0.00</temp>
<bpm>0</bpm>
<rpm>0.00</rpm>
</extensions>
</trkpt>
<trkpt lat="64.056098938" lon="-19.240524292">
<ele>585.968750</ele>
<time>2012-07-22T00:03:24Z</time>
<speed>0.300000</speed>
<extensions>
<speed>0.3</speed>
<temp>0.00</temp>
<bpm>0</bpm>
<rpm>0.00</rpm>
</extensions>
</trkpt>
<trkpt lat="64.056083679" lon="-19.240507126">
<ele>588.109375</ele>
<time>2012-07-22T00:03:29Z</time>
<speed>0.240000</speed>
<extensions>
<speed>0.2</speed>
<temp>0.00</temp>
<bpm>0</bpm>
<rpm>0.00</rpm>
</extensions>
</trkpt>
<trkpt lat="64.056083679" lon="-19.240484238">
<ele>589.015625</ele>
<time>2012-07-22T00:03:34Z</time>
<speed>0.230000</speed>
<extensions>
<speed>0.2</speed>
<temp>0.00</temp>
<bpm>0</bpm>
<rpm>0.00</rpm>
</extensions>
</trkpt>
<trkpt lat="64.056083679" lon="-19.240465164">
<ele>589.937500</ele>
<time>2012-07-22T00:03:39Z</time>
<speed>0.220000</speed>
<extensions>
<speed>0.2</speed>
<temp>0.00</temp>
<bpm>0</bpm>
<rpm>0.00</rpm>
</extensions>
</trkpt>
<trkpt lat="64.056076050" lon="-19.240444183">
<ele>590.859375</ele>
<time>2012-07-22T00:03:44Z</time>
<speed>0.250000</speed>
<extensions>
<speed>0.2</speed>
<temp>0.00</temp>
<bpm>0</bpm>
<rpm>0.00</rpm>
</extensions>
</trkpt>
<trkpt lat="64.056053162" lon="-19.240440369">
<ele>591.781250</ele>
<time>2012-07-22T00:03:49Z</time>
<speed>0.340000</speed>
<extensions>
<speed>0.3</speed>
<temp>0.00</temp>
<bpm>0</bpm>
<rpm>0.00</rpm>
</extensions>
</trkpt>
<trkpt lat="64.056022644" lon="-19.240501404">
<ele>593.125000</ele>
<time>2012-07-22T00:03:54Z</time>
<speed>0.420000</speed>
<extensions>
<speed>0.4</speed>
<temp>0.00</temp>
<bpm>0</bpm>
<rpm>0.00</rpm>
</extensions>
</trkpt>
<trkpt lat="64.056022644" lon="-19.240489960">
<ele>594.562500</ele>
<time>2012-07-22T00:03:59Z</time>
<speed>0.280000</speed>
<extensions>
<speed>0.3</speed>
<temp>0.00</temp>
<bpm>0</bpm>
<rpm>0.00</rpm>
</extensions>
</trkpt>
<trkpt lat="64.056022644" lon="-19.240463257">
<ele>595.625000</ele>
<time>2012-07-22T00:04:04Z</time>
<speed>0.250000</speed>
<extensions>
<speed>0.2</speed>
<temp>0.00</temp>
<bpm>0</bpm>
<rpm>0.00</rpm>
</extensions>
</trkpt>
<trkpt lat="64.056015015" lon="-19.240442276">
<ele>596.421875</ele>
<time>2012-07-22T00:04:09Z</time>
<speed>0.210000</speed>
<extensions>
<speed>0.2</speed>
<temp>0.00</temp>
<bpm>0</bpm>
<rpm>0.00</rpm>
</extensions>
</trkpt>
<trkpt lat="64.056015015" lon="-19.240427017">
<ele>597.187500</ele>
<time>2012-07-22T00:04:14Z</time>
<speed>0.110000</speed>
<extensions>
<speed>0.1</speed>
<temp>0.00</temp>
<bpm>0</bpm>
<rpm>0.00</rpm>
</extensions>
</trkpt>
<trkpt lat="64.056022644" lon="-19.240417480">
<ele>598.000000</ele>
<time>2012-07-22T00:04:19Z</time>
<speed>0.160000</speed>
<extensions>
<speed>0.2</speed>
<temp>0.00</temp>
<bpm>0</bpm>
<rpm>0.00</rpm>
</extensions>
</trkpt>
<trkpt lat="64.056022644" lon="-19.240411758">
<ele>598.765625</ele>
<time>2012-07-22T00:04:24Z</time>
<speed>0.070000</speed>
<extensions>
<speed>0.1</speed>
<temp>0.00</temp>
<bpm>0</bpm>
<rpm>0.00</rpm>
</extensions>
</trkpt>
<trkpt lat="64.056022644" lon="-19.240398407">
<ele>599.515625</ele>
<time>2012-07-22T00:04:29Z</time>
<speed>0.190000</speed>
<extensions>
<speed>0.2</speed>
<temp>0.00</temp>
<bpm>0</bpm>
<rpm>0.00</rpm>
</extensions>
</trkpt>
<trkpt lat="64.056022644" lon="-19.240385056">
<ele>600.250000</ele>
<time>2012-07-22T00:04:34Z</time>
<speed>0.160000</speed>
<extensions>
<speed>0.2</speed>
<temp>0.00</temp>
<bpm>0</bpm>
<rpm>0.00</rpm>
</extensions>
</trkpt>
<trkpt lat="64.056015015" lon="-19.240371704">
<ele>600.937500</ele>
<time>2012-07-22T00:04:39Z</time>
<speed>0.150000</speed>
<extensions>
<speed>0.2</speed>
<temp>0.00</temp>
<bpm>0</bpm>
<rpm>0.00</rpm>
</extensions>
</trkpt>
<trkpt lat="64.056007385" lon="-19.240362167">
<ele>601.625000</ele>
<time>2012-07-22T00:04:44Z</time>
<speed>0.200000</speed>
<extensions>
<speed>0.2</speed>
<temp>0.00</temp>
<bpm>0</bpm>
<rpm>0.00</rpm>
</extensions>
</trkpt>
<trkpt lat="64.055999756" lon="-19.240356445">
<ele>602.312500</ele>
<time>2012-07-22T00:04:49Z</time>
<speed>0.180000</speed>
<extensions>
<speed>0.2</speed>
<temp>0.00</temp>
<bpm>0</bpm>
<rpm>0.00</rpm>
</extensions>
</trkpt>
<trkpt lat="64.055984497" lon="-19.240386963">
<ele>602.421875</ele>
<time>2012-07-22T00:04:54Z</time>
<speed>0.320000</speed>
<extensions>
<speed>0.3</speed>
<temp>0.00</temp>
<bpm>0</bpm>
<rpm>0.00</rpm>
</extensions>
</trkpt>
<trkpt lat="64.055999756" lon="-19.240373611">
<ele>602.750000</ele>
<time>2012-07-22T00:04:59Z</time>
<speed>0.150000</speed>
<extensions>
<speed>0.2</speed>
<temp>0.00</temp>
<bpm>0</bpm>
<rpm>0.00</rpm>
</extensions>
</trkpt>
<trkpt lat="64.055992126" lon="-19.240364075">
<ele>603.406250</ele>
<time>2012-07-22T00:05:04Z</time>
<speed>0.130000</speed>
<extensions>
<speed>0.1</speed>
<temp>0.00</temp>
<bpm>0</bpm>
<rpm>0.00</rpm>
</extensions>
</trkpt>
<trkpt lat="64.055992126" lon="-19.240352631">
<ele>603.984375</ele>
<time>2012-07-22T00:05:09Z</time>
<speed>0.130000</speed>
<extensions>
<speed>0.1</speed>
<temp>0.00</temp>
<bpm>0</bpm>
<rpm>0.00</rpm>
</extensions>
</trkpt>
<trkpt lat="64.055984497" lon="-19.240343094">
<ele>604.484375</ele>
<time>2012-07-22T00:05:14Z</time>
<speed>0.120000</speed>
<extensions>
<speed>0.1</speed>
<temp>0.00</temp>
<bpm>0</bpm>
<rpm>0.00</rpm>
</extensions>
</trkpt>
<trkpt lat="64.055984497" lon="-19.240335464">
<ele>604.890625</ele>
<time>2012-07-22T00:05:19Z</time>
<speed>0.110000</speed>
<extensions>
<speed>0.1</speed>
<temp>0.00</temp>
<bpm>0</bpm>
<rpm>0.00</rpm>
</extensions>
</trkpt>
<trkpt lat="64.055984497" lon="-19.240327835">
<ele>605.265625</ele>
<time>2012-07-22T00:05:24Z</time>
<speed>0.090000</speed>
<extensions>
<speed>0.1</speed>
<temp>0.00</temp>
<bpm>0</bpm>
<rpm>0.00</rpm>
</extensions>
</trkpt>
<trkpt lat="64.055984497" lon="-19.240324020">
<ele>605.468750</ele>
<time>2012-07-22T00:05:29Z</time>
<speed>0.010000</speed>
<extensions>
<speed>0.0</speed>
<temp>0.00</temp>
<bpm>0</bpm>
<rpm>0.00</rpm>
</extensions>
</trkpt>
<trkpt lat="64.055984497" lon="-19.240335464">
<ele>605.609375</ele>
<time>2012-07-22T00:05:34Z</time>
<speed>0.200000</speed>
<extensions>
<speed>0.2</speed>
<temp>0.00</temp>
<bpm>0</bpm>
<rpm>0.00</rpm>
</extensions>
</trkpt>
<trkpt lat="64.055984497" lon="-19.240356445">
<ele>605.781250</ele>
<time>2012-07-22T00:05:39Z</time>
<speed>0.220000</speed>
<extensions>
<speed>0.2</speed>
<temp>0.00</temp>
<bpm>0</bpm>
<rpm>0.00</rpm>
</extensions>
</trkpt>
<trkpt lat="64.055992126" lon="-19.240547180">
<ele>602.375000</ele>
<time>2012-07-22T00:05:44Z</time>
<speed>0.440000</speed>
<extensions>
<speed>0.4</speed>
<temp>0.00</temp>
<bpm>0</bpm>
<rpm>0.00</rpm>
</extensions>
</trkpt>
<trkpt lat="64.056015015" lon="-19.240640640">
<ele>600.750000</ele>
<time>2012-07-22T00:05:49Z</time>
<speed>0.340000</speed>
<extensions>
<speed>0.3</speed>
<temp>0.00</temp>
<bpm>0</bpm>
<rpm>0.00</rpm>
</extensions>
</trkpt>
<trkpt lat="64.056015015" lon="-19.240684509">
<ele>599.343750</ele>
<time>2012-07-22T00:05:54Z</time>
<speed>0.170000</speed>
<extensions>
<speed>0.2</speed>
<temp>0.00</temp>
<bpm>0</bpm>
<rpm>0.00</rpm>
</extensions>
</trkpt>
<trkpt lat="64.056015015" lon="-19.240703583">
<ele>599.140625</ele>
<time>2012-07-22T00:05:59Z</time>
<speed>0.200000</speed>
<extensions>
<speed>0.2</speed>
<temp>0.00</temp>
<bpm>0</bpm>
<rpm>0.00</rpm>
</extensions>
</trkpt>
<trkpt lat="64.056007385" lon="-19.240728378">
<ele>598.781250</ele>
<time>2012-07-22T00:06:04Z</time>
<speed>0.300000</speed>
<extensions>
<speed>0.3</speed>
<temp>0.00</temp>
<bpm>0</bpm>
<rpm>0.00</rpm>
</extensions>
</trkpt>
<trkpt lat="64.056030273" lon="-19.240777969">
<ele>596.687500</ele>
<time>2012-07-22T00:06:09Z</time>
<speed>0.300000</speed>
<extensions>
<speed>0.3</speed>
<temp>0.00</temp>
<bpm>0</bpm>
<rpm>0.00</rpm>
</extensions>
</trkpt>
<trkpt lat="64.056045532" lon="-19.240793228">
<ele>596.015625</ele>
<time>2012-07-22T00:06:14Z</time>
<speed>0.200000</speed>
<extensions>
<speed>0.2</speed>
<temp>0.00</temp>
<bpm>0</bpm>
<rpm>0.00</rpm>
</extensions>
</trkpt>
<trkpt lat="64.056045532" lon="-19.240816116">
<ele>595.500000</ele>
<time>2012-07-22T00:06:19Z</time>
<speed>0.220000</speed>
<extensions>
<speed>0.2</speed>
<temp>0.00</temp>
<bpm>0</bpm>
<rpm>0.00</rpm>
</extensions>
</trkpt>
<trkpt lat="64.056045532" lon="-19.240840912">
<ele>594.953125</ele>
<time>2012-07-22T00:06:24Z</time>
<speed>0.180000</speed>
<extensions>
<speed>0.2</speed>
<temp>0.00</temp>
<bpm>0</bpm>
<rpm>0.00</rpm>
</extensions>
</trkpt>
<trkpt lat="64.056045532" lon="-19.240856171">
<ele>594.359375</ele>
<time>2012-07-22T00:06:29Z</time>
<speed>0.140000</speed>
<extensions>
<speed>0.1</speed>
<temp>0.00</temp>
<bpm>0</bpm>
<rpm>0.00</rpm>
</extensions>
</trkpt>
<trkpt lat="64.056045532" lon="-19.240865707">
<ele>593.734375</ele>
<time>2012-07-22T00:06:34Z</time>
<speed>0.020000</speed>
<extensions>
<speed>0.0</speed>
<temp>0.00</temp>
<bpm>0</bpm>
<rpm>0.00</rpm>
</extensions>
</trkpt>
<trkpt lat="64.056053162" lon="-19.240875244">
<ele>593.125000</ele>
<time>2012-07-22T00:06:39Z</time>
<speed>0.140000</speed>
<extensions>
<speed>0.1</speed>
<temp>0.00</temp>
<bpm>0</bpm>
<rpm>0.00</rpm>
</extensions>
</trkpt>
<trkpt lat="64.056053162" lon="-19.240894318">
<ele>592.375000</ele>
<time>2012-07-22T00:06:44Z</time>
<speed>0.210000</speed>
<extensions>
<speed>0.2</speed>
<temp>0.00</temp>
<bpm>0</bpm>
<rpm>0.00</rpm>
</extensions>
</trkpt>
<trkpt lat="64.056045532" lon="-19.240915298">
<ele>591.546875</ele>
<time>2012-07-22T00:06:49Z</time>
<speed>0.200000</speed>
<extensions>
<speed>0.2</speed>
<temp>0.00</temp>
<bpm>0</bpm>
<rpm>0.00</rpm>
</extensions>
</trkpt>
<trkpt lat="64.056045532" lon="-19.240934372">
<ele>590.703125</ele>
<time>2012-07-22T00:06:54Z</time>
<speed>0.190000</speed>
<extensions>
<speed>0.2</speed>
<temp>0.00</temp>
<bpm>0</bpm>
<rpm>0.00</rpm>
</extensions>
</trkpt>
<trkpt lat="64.056045532" lon="-19.240943909">
<ele>589.812500</ele>
<time>2012-07-22T00:06:59Z</time>
<speed>0.070000</speed>
<extensions>
<speed>0.1</speed>
<temp>0.00</temp>
<bpm>0</bpm>
<rpm>0.00</rpm>
</extensions>
</trkpt>
<trkpt lat="64.056045532" lon="-19.240949631">
<ele>588.796875</ele>
<time>2012-07-22T00:07:04Z</time>
<speed>0.140000</speed>
<extensions>
<speed>0.1</speed>
<temp>0.00</temp>
<bpm>0</bpm>
<rpm>0.00</rpm>
</extensions>
</trkpt>
<trkpt lat="64.056037903" lon="-19.240955353">
<ele>587.765625</ele>
<time>2012-07-22T00:07:09Z</time>
<speed>0.110000</speed>
<extensions>
<speed>0.1</speed>
<temp>0.00</temp>
<bpm>0</bpm>
<rpm>0.00</rpm>
</extensions>
</trkpt>
<trkpt lat="64.056037903" lon="-19.240966797">
<ele>586.781250</ele>
<time>2012-07-22T00:07:14Z</time>
<speed>0.130000</speed>
<extensions>
<speed>0.1</speed>
<temp>0.00</temp>
<bpm>0</bpm>
<rpm>0.00</rpm>
</extensions>
</trkpt>
<trkpt lat="64.056045532" lon="-19.240982056">
<ele>585.843750</ele>
<time>2012-07-22T00:07:19Z</time>
<speed>0.230000</speed>
<extensions>
<speed>0.2</speed>
<temp>0.00</temp>
<bpm>0</bpm>
<rpm>0.00</rpm>
</extensions>
</trkpt>
<trkpt lat="64.056053162" lon="-19.241001129">
<ele>584.890625</ele>
<time>2012-07-22T00:07:24Z</time>
<speed>0.290000</speed>
<extensions>
<speed>0.3</speed>
<temp>0.00</temp>
<bpm>0</bpm>
<rpm>0.00</rpm>
</extensions>
</trkpt>
<trkpt lat="64.056060791" lon="-19.241050720">
<ele>581.562500</ele>
<time>2012-07-22T00:07:29Z</time>
<speed>0.250000</speed>
<extensions>
<speed>0.2</speed>
<temp>0.00</temp>
<bpm>0</bpm>
<rpm>0.00</rpm>
</extensions>
</trkpt>
<trkpt lat="64.056068420" lon="-19.241065979">
<ele>580.359375</ele>
<time>2012-07-22T00:07:34Z</time>
<speed>0.230000</speed>
<extensions>
<speed>0.2</speed>
<temp>0.00</temp>
<bpm>0</bpm>
<rpm>0.00</rpm>
</extensions>
</trkpt>
<trkpt lat="64.056083679" lon="-19.241151810">
<ele>577.687500</ele>
<time>2012-07-22T00:07:39Z</time>
<speed>0.420000</speed>
<extensions>
<speed>0.4</speed>
<temp>0.00</temp>
<bpm>0</bpm>
<rpm>0.00</rpm>
</extensions>
</trkpt>
<trkpt lat="64.056083679" lon="-19.241235733">
<ele>575.265625</ele>
<time>2012-07-22T00:07:44Z</time>
<speed>0.430000</speed>
<extensions>
<speed>0.4</speed>
<temp>0.00</temp>
<bpm>0</bpm>
<rpm>0.00</rpm>
</extensions>
</trkpt>
<trkpt lat="64.056083679" lon="-19.241249084">
<ele>573.765625</ele>
<time>2012-07-22T00:07:49Z</time>
<speed>0.330000</speed>
<extensions>
<speed>0.3</speed>
<temp>0.00</temp>
<bpm>0</bpm>
<rpm>0.00</rpm>
</extensions>
</trkpt>
<trkpt lat="64.056091309" lon="-19.241245270">
<ele>573.062500</ele>
<time>2012-07-22T00:07:54Z</time>
<speed>0.260000</speed>
<extensions>
<speed>0.3</speed>
<temp>0.00</temp>
<bpm>0</bpm>
<rpm>0.00</rpm>
</extensions>
</trkpt>
<trkpt lat="64.056098938" lon="-19.241262436">
<ele>571.796875</ele>
<time>2012-07-22T00:07:59Z</time>
<speed>0.150000</speed>
<extensions>
<speed>0.2</speed>
<temp>0.00</temp>
<bpm>0</bpm>
<rpm>0.00</rpm>
</extensions>
</trkpt>
<trkpt lat="64.056098938" lon="-19.241262436">
<ele>570.609375</ele>
<time>2012-07-22T00:08:04Z</time>
<speed>0.150000</speed>
<extensions>
<speed>0.2</speed>
<temp>0.00</temp>
<bpm>0</bpm>
<rpm>0.00</rpm>
</extensions>
</trkpt>
<trkpt lat="64.056114197" lon="-19.241249084">
<ele>569.687500</ele>
<time>2012-07-22T00:08:09Z</time>
<speed>0.220000</speed>
<extensions>
<speed>0.2</speed>
<temp>0.00</temp>
<bpm>0</bpm>
<rpm>0.00</rpm>
</extensions>
</trkpt>
<trkpt lat="64.056121826" lon="-19.241237640">
<ele>568.984375</ele>
<time>2012-07-22T00:08:14Z</time>
<speed>0.240000</speed>
<extensions>
<speed>0.2</speed>
<temp>0.00</temp>
<bpm>0</bpm>
<rpm>0.00</rpm>
</extensions>
</trkpt>
<trkpt lat="64.056129456" lon="-19.241226196">
<ele>568.609375</ele>
<time>2012-07-22T00:08:19Z</time>
<speed>0.250000</speed>
<extensions>
<speed>0.2</speed>
<temp>0.00</temp>
<bpm>0</bpm>
<rpm>0.00</rpm>
</extensions>
</trkpt>
<trkpt lat="64.056144714" lon="-19.241216660">
<ele>568.515625</ele>
<time>2012-07-22T00:08:24Z</time>
<speed>0.270000</speed>
<extensions>
<speed>0.3</speed>
<temp>0.00</temp>
<bpm>0</bpm>
<rpm>0.00</rpm>
</extensions>
</trkpt>
<trkpt lat="64.056144714" lon="-19.241218567">
<ele>568.640625</ele>
<time>2012-07-22T00:08:29Z</time>
<speed>0.770000</speed>
<extensions>
<speed>0.8</speed>
<temp>0.00</temp>
<bpm>0</bpm>
<rpm>0.00</rpm>
</extensions>
</trkpt>
<trkpt lat="64.056137085" lon="-19.241254807">
<ele>570.281250</ele>
<time>2012-07-22T00:08:34Z</time>
<speed>1.470000</speed>
<extensions>
<speed>1.5</speed>
<temp>0.00</temp>
<bpm>0</bpm>
<rpm>0.00</rpm>
</extensions>
</trkpt>
<trkpt lat="64.056167603" lon="-19.241340637">
<ele>570.796875</ele>
<time>2012-07-22T00:08:39Z</time>
<speed>1.770000</speed>
<extensions>
<speed>1.8</speed>
<temp>0.00</temp>
<bpm>0</bpm>
<rpm>0.00</rpm>
</extensions>
</trkpt>
<trkpt lat="64.056228638" lon="-19.241424561">
<ele>571.046875</ele>
<time>2012-07-22T00:08:44Z</time>
<speed>1.570000</speed>
<extensions>
<speed>1.6</speed>
<temp>0.00</temp>
<bpm>0</bpm>
<rpm>0.00</rpm>
</extensions>
</trkpt>
<trkpt lat="64.056228638" lon="-19.241373062">
<ele>577.031250</ele>
<time>2012-07-22T00:08:49Z</time>
<speed>1.700000</speed>
<extensions>
<speed>1.7</speed>
<temp>0.00</temp>
<bpm>0</bpm>
<rpm>0.00</rpm>
</extensions>
</trkpt>
<trkpt lat="64.056266785" lon="-19.241477966">
<ele>577.593750</ele>
<time>2012-07-22T00:08:54Z</time>
<speed>1.710000</speed>
<extensions>
<speed>1.7</speed>
<temp>0.00</temp>
<bpm>0</bpm>
<rpm>0.00</rpm>
</extensions>
</trkpt>
<trkpt lat="64.056304932" lon="-19.241594315">
<ele>578.312500</ele>
<time>2012-07-22T00:08:59Z</time>
<speed>1.510000</speed>
<extensions>
<speed>1.5</speed>
<temp>0.00</temp>
<bpm>0</bpm>
<rpm>0.00</rpm>
</extensions>
</trkpt>
<trkpt lat="64.056350708" lon="-19.241649628">
<ele>578.984375</ele>
<time>2012-07-22T00:09:04Z</time>
<speed>1.010000</speed>
<extensions>
<speed>1.0</speed>
<temp>0.00</temp>
<bpm>0</bpm>
<rpm>0.00</rpm>
</extensions>
</trkpt>
<trkpt lat="64.056381226" lon="-19.241683960">
<ele>579.500000</ele>
<time>2012-07-22T00:09:09Z</time>
<speed>0.940000</speed>
<extensions>
<speed>0.9</speed>
<temp>0.00</temp>
<bpm>0</bpm>
<rpm>0.00</rpm>
</extensions>
</trkpt>
<trkpt lat="64.056381226" lon="-19.241727829">
<ele>580.343750</ele>
<time>2012-07-22T00:09:14Z</time>
<speed>1.170000</speed>
<extensions>
<speed>1.2</speed>
<temp>0.00</temp>
<bpm>0</bpm>
<rpm>0.00</rpm>
</extensions>
</trkpt>
<trkpt lat="64.056442261" lon="-19.241855621">
<ele>581.046875</ele>
<time>2012-07-22T00:09:19Z</time>
<speed>1.160000</speed>
<extensions>
<speed>1.2</speed>
<temp>0.00</temp>
<bpm>0</bpm>
<rpm>0.00</rpm>
</extensions>
</trkpt>
<trkpt lat="64.056518555" lon="-19.241788864">
<ele>581.921875</ele>
<time>2012-07-22T00:09:24Z</time>
<speed>1.320000</speed>
<extensions>
<speed>1.3</speed>
<temp>0.00</temp>
<bpm>0</bpm>
<rpm>0.00</rpm>
</extensions>
</trkpt>
<trkpt lat="64.056541443" lon="-19.241746902">
<ele>582.343750</ele>
<time>2012-07-22T00:09:29Z</time>
<speed>0.310000</speed>
<extensions>
<speed>0.3</speed>
<temp>0.00</temp>
<bpm>0</bpm>
<rpm>0.00</rpm>
</extensions>
</trkpt>
<trkpt lat="64.056541443" lon="-19.241743088">
<ele>582.515625</ele>
<time>2012-07-22T00:09:34Z</time>
<speed>0.280000</speed>
<extensions>
<speed>0.3</speed>
<temp>0.00</temp>
<bpm>0</bpm>
<rpm>0.00</rpm>
</extensions>
</trkpt>
<trkpt lat="64.056541443" lon="-19.241765976">
<ele>582.515625</ele>
<time>2012-07-22T00:09:39Z</time>
<speed>0.270000</speed>
<extensions>
<speed>0.3</speed>
<temp>0.00</temp>
<bpm>0</bpm>
<rpm>0.00</rpm>
</extensions>
</trkpt>
<trkpt lat="64.056533813" lon="-19.241771698">
<ele>582.437500</ele>
<time>2012-07-22T00:09:44Z</time>
<speed>0.560000</speed>
<extensions>
<speed>0.6</speed>
<temp>0.00</temp>
<bpm>0</bpm>
<rpm>0.00</rpm>
</extensions>
</trkpt>
<trkpt lat="64.056549072" lon="-19.241704941">
<ele>582.453125</ele>
<time>2012-07-22T00:09:49Z</time>
<speed>0.210000</speed>
<extensions>
<speed>0.2</speed>
<temp>0.00</temp>
<bpm>0</bpm>
<rpm>0.00</rpm>
</extensions>
</trkpt>
<trkpt lat="64.056541443" lon="-19.241699219">
<ele>582.187500</ele>
<time>2012-07-22T00:09:54Z</time>
<speed>0.230000</speed>
<extensions>
<speed>0.2</speed>
<temp>0.00</temp>
<bpm>0</bpm>
<rpm>0.00</rpm>
</extensions>
</trkpt>
<trkpt lat="64.056533813" lon="-19.241691589">
<ele>581.968750</ele>
<time>2012-07-22T00:09:59Z</time>
<speed>0.180000</speed>
<extensions>
<speed>0.2</speed>
<temp>0.00</temp>
<bpm>0</bpm>
<rpm>0.00</rpm>
</extensions>
</trkpt>
<trkpt lat="64.056533813" lon="-19.241678238">
<ele>582.093750</ele>
<time>2012-07-22T00:10:04Z</time>
<speed>0.300000</speed>
<extensions>
<speed>0.3</speed>
<temp>0.00</temp>
<bpm>0</bpm>
<rpm>0.00</rpm>
</extensions>
</trkpt>
<trkpt lat="64.056556702" lon="-19.241600037">
<ele>582.890625</ele>
<time>2012-07-22T00:10:09Z</time>
<speed>0.150000</speed>
<extensions>
<speed>0.2</speed>
<temp>0.00</temp>
<bpm>0</bpm>
<rpm>0.00</rpm>
</extensions>
</trkpt>
<trkpt lat="64.056556702" lon="-19.241588593">
<ele>582.843750</ele>
<time>2012-07-22T00:10:14Z</time>
<speed>0.080000</speed>
<extensions>
<speed>0.1</speed>
<temp>0.00</temp>
<bpm>0</bpm>
<rpm>0.00</rpm>
</extensions>
</trkpt>
<trkpt lat="64.056549072" lon="-19.241586685">
<ele>582.812500</ele>
<time>2012-07-22T00:10:19Z</time>
<speed>0.150000</speed>
<extensions>
<speed>0.2</speed>
<temp>0.00</temp>
<bpm>0</bpm>
<rpm>0.00</rpm>
</extensions>
</trkpt>
<trkpt lat="64.056541443" lon="-19.241588593">
<ele>582.796875</ele>
<time>2012-07-22T00:10:24Z</time>
<speed>0.140000</speed>
<extensions>
<speed>0.1</speed>
<temp>0.00</temp>
<bpm>0</bpm>
<rpm>0.00</rpm>
</extensions>
</trkpt>
<trkpt lat="64.056541443" lon="-19.241580963">
<ele>582.796875</ele>
<time>2012-07-22T00:10:29Z</time>
<speed>0.140000</speed>
<extensions>
<speed>0.1</speed>
<temp>0.00</temp>
<bpm>0</bpm>
<rpm>0.00</rpm>
</extensions>
</trkpt>
<trkpt lat="64.056533813" lon="-19.241569519">
<ele>582.796875</ele>
<time>2012-07-22T00:10:34Z</time>
<speed>0.250000</speed>
<extensions>
<speed>0.2</speed>
<temp>0.00</temp>
<bpm>0</bpm>
<rpm>0.00</rpm>
</extensions>
</trkpt>
<trkpt lat="64.056526184" lon="-19.241554260">
<ele>582.906250</ele>
<time>2012-07-22T00:10:39Z</time>
<speed>0.420000</speed>
<extensions>
<speed>0.4</speed>
<temp>0.00</temp>
<bpm>0</bpm>
<rpm>0.00</rpm>
</extensions>
</trkpt>
<trkpt lat="64.056518555" lon="-19.241533279">
<ele>583.140625</ele>
<time>2012-07-22T00:10:44Z</time>
<speed>0.750000</speed>
<extensions>
<speed>0.8</speed>
<temp>0.00</temp>
<bpm>0</bpm>
<rpm>0.00</rpm>
</extensions>
</trkpt>
<trkpt lat="64.056495667" lon="-19.241529465">
<ele>583.093750</ele>
<time>2012-07-22T00:10:49Z</time>
<speed>0.580000</speed>
<extensions>
<speed>0.6</speed>
<temp>0.00</temp>
<bpm>0</bpm>
<rpm>0.00</rpm>
</extensions>
</trkpt>
<trkpt lat="64.056495667" lon="-19.241521835">
<ele>582.953125</ele>
<time>2012-07-22T00:10:54Z</time>
<speed>0.500000</speed>
<extensions>
<speed>0.5</speed>
<temp>0.00</temp>
<bpm>0</bpm>
<rpm>0.00</rpm>
</extensions>
</trkpt>
<trkpt lat="64.056503296" lon="-19.241563797">
<ele>582.906250</ele>
<time>2012-07-22T00:10:59Z</time>
<speed>0.330000</speed>
<extensions>
<speed>0.3</speed>
<temp>0.00</temp>
<bpm>0</bpm>
<rpm>0.00</rpm>
</extensions>
</trkpt>
<trkpt lat="64.056510925" lon="-19.241596222">
<ele>582.843750</ele>
<time>2012-07-22T00:11:04Z</time>
<speed>0.370000</speed>
<extensions>
<speed>0.4</speed>
<temp>0.00</temp>
<bpm>0</bpm>
<rpm>0.00</rpm>
</extensions>
</trkpt>
<trkpt lat="64.056518555" lon="-19.241622925">
<ele>582.625000</ele>
<time>2012-07-22T00:11:09Z</time>
<speed>0.350000</speed>
<extensions>
<speed>0.3</speed>
<temp>0.00</temp>
<bpm>0</bpm>
<rpm>0.00</rpm>
</extensions>
</trkpt>
<trkpt lat="64.056526184" lon="-19.241626740">
<ele>582.656250</ele>
<time>2012-07-22T00:11:14Z</time>
<speed>0.290000</speed>
<extensions>
<speed>0.3</speed>
<temp>0.00</temp>
<bpm>0</bpm>
<rpm>0.00</rpm>
</extensions>
</trkpt>
<trkpt lat="64.056526184" lon="-19.241659164">
<ele>582.796875</ele>
<time>2012-07-22T00:11:19Z</time>
<speed>0.270000</speed>
<extensions>
<speed>0.3</speed>
<temp>0.00</temp>
<bpm>0</bpm>
<rpm>0.00</rpm>
</extensions>
</trkpt>
<trkpt lat="64.056526184" lon="-19.241659164">
<ele>582.812500</ele>
<time>2012-07-22T00:11:24Z</time>
<speed>0.260000</speed>
<extensions>
<speed>0.3</speed>
<temp>0.00</temp>
<bpm>0</bpm>
<rpm>0.00</rpm>
</extensions>
</trkpt>
<trkpt lat="64.056526184" lon="-19.241687775">
<ele>583.453125</ele>
<time>2012-07-22T00:11:29Z</time>
<speed>0.240000</speed>
<extensions>
<speed>0.2</speed>
<temp>0.00</temp>
<bpm>0</bpm>
<rpm>0.00</rpm>
</extensions>
</trkpt>
<trkpt lat="64.056526184" lon="-19.241703033">
<ele>583.718750</ele>
<time>2012-07-22T00:11:34Z</time>
<speed>0.050000</speed>
<extensions>
<speed>0.1</speed>
<temp>0.00</temp>
<bpm>0</bpm>
<rpm>0.00</rpm>
</extensions>
</trkpt>
<trkpt lat="64.056526184" lon="-19.241701126">
<ele>583.656250</ele>
<time>2012-07-22T00:11:39Z</time>
<speed>0.090000</speed>
<extensions>
<speed>0.1</speed>
<temp>0.00</temp>
<bpm>0</bpm>
<rpm>0.00</rpm>
</extensions>
</trkpt>
<trkpt lat="64.056526184" lon="-19.241687775">
<ele>583.625000</ele>
<time>2012-07-22T00:11:44Z</time>
<speed>0.180000</speed>
<extensions>
<speed>0.2</speed>
<temp>0.00</temp>
<bpm>0</bpm>
<rpm>0.00</rpm>
</extensions>
</trkpt>
<trkpt lat="64.056518555" lon="-19.241676331">
<ele>583.562500</ele>
<time>2012-07-22T00:11:49Z</time>
<speed>0.260000</speed>
<extensions>
<speed>0.3</speed>
<temp>0.00</temp>
<bpm>0</bpm>
<rpm>0.00</rpm>
</extensions>
</trkpt>
<trkpt lat="64.056503296" lon="-19.241670609">
<ele>583.515625</ele>
<time>2012-07-22T00:11:54Z</time>
<speed>0.260000</speed>
<extensions>
<speed>0.3</speed>
<temp>0.00</temp>
<bpm>0</bpm>
<rpm>0.00</rpm>
</extensions>
</trkpt>
<trkpt lat="64.056495667" lon="-19.241653442">
<ele>583.453125</ele>
<time>2012-07-22T00:11:59Z</time>
<speed>0.250000</speed>
<extensions>
<speed>0.2</speed>
<temp>0.00</temp>
<bpm>0</bpm>
<rpm>0.00</rpm>
</extensions>
</trkpt>
<trkpt lat="64.056495667" lon="-19.241640091">
<ele>583.421875</ele>
<time>2012-07-22T00:12:04Z</time>
<speed>0.050000</speed>
<extensions>
<speed>0.1</speed>
<temp>0.00</temp>
<bpm>0</bpm>
<rpm>0.00</rpm>
</extensions>
</trkpt>
<trkpt lat="64.056495667" lon="-19.241647720">
<ele>583.406250</ele>
<time>2012-07-22T00:12:09Z</time>
<speed>0.070000</speed>
<extensions>
<speed>0.1</speed>
<temp>0.00</temp>
<bpm>0</bpm>
<rpm>0.00</rpm>
</extensions>
</trkpt>
<trkpt lat="64.056495667" lon="-19.241657257">
<ele>583.406250</ele>
<time>2012-07-22T00:12:14Z</time>
<speed>0.100000</speed>
<extensions>
<speed>0.1</speed>
<temp>0.00</temp>
<bpm>0</bpm>
<rpm>0.00</rpm>
</extensions>
</trkpt>
<trkpt lat="64.056495667" lon="-19.241668701">
<ele>583.421875</ele>
<time>2012-07-22T00:12:19Z</time>
<speed>0.130000</speed>
<extensions>
<speed>0.1</speed>
<temp>0.00</temp>
<bpm>0</bpm>
<rpm>0.00</rpm>
</extensions>
</trkpt>
<trkpt lat="64.056495667" lon="-19.241682053">
<ele>583.437500</ele>
<time>2012-07-22T00:12:24Z</time>
<speed>0.090000</speed>
<extensions>
<speed>0.1</speed>
<temp>0.00</temp>
<bpm>0</bpm>
<rpm>0.00</rpm>
</extensions>
</trkpt>
<trkpt lat="64.056495667" lon="-19.241689682">
<ele>583.453125</ele>
<time>2012-07-22T00:12:29Z</time>
<speed>0.050000</speed>
<extensions>
<speed>0.1</speed>
<temp>0.00</temp>
<bpm>0</bpm>
<rpm>0.00</rpm>
</extensions>
</trkpt>
<trkpt lat="64.056495667" lon="-19.241695404">
<ele>583.468750</ele>
<time>2012-07-22T00:12:34Z</time>
<speed>0.090000</speed>
<extensions>
<speed>0.1</speed>
<temp>0.00</temp>
<bpm>0</bpm>
<rpm>0.00</rpm>
</extensions>
</trkpt>
<trkpt lat="64.056495667" lon="-19.241678238">
<ele>583.484375</ele>
<time>2012-07-22T00:12:39Z</time>
<speed>0.230000</speed>
<extensions>
<speed>0.2</speed>
<temp>0.00</temp>
<bpm>0</bpm>
<rpm>0.00</rpm>
</extensions>
</trkpt>
<trkpt lat="64.056495667" lon="-19.241662979">
<ele>583.468750</ele>
<time>2012-07-22T00:12:44Z</time>
<speed>0.070000</speed>
<extensions>
<speed>0.1</speed>
<temp>0.00</temp>
<bpm>0</bpm>
<rpm>0.00</rpm>
</extensions>
</trkpt>
<trkpt lat="64.056495667" lon="-19.241666794">
<ele>583.500000</ele>
<time>2012-07-22T00:12:49Z</time>
<speed>0.130000</speed>
<extensions>
<speed>0.1</speed>
<temp>0.00</temp>
<bpm>0</bpm>
<rpm>0.00</rpm>
</extensions>
</trkpt>
<trkpt lat="64.056503296" lon="-19.241674423">
<ele>583.546875</ele>
<time>2012-07-22T00:12:54Z</time>
<speed>0.080000</speed>
<extensions>
<speed>0.1</speed>
<temp>0.00</temp>
<bpm>0</bpm>
<rpm>0.00</rpm>
</extensions>
</trkpt>
<trkpt lat="64.056503296" lon="-19.241687775">
<ele>583.578125</ele>
<time>2012-07-22T00:12:59Z</time>
<speed>0.100000</speed>
<extensions>
<speed>0.1</speed>
<temp>0.00</temp>
<bpm>0</bpm>
<rpm>0.00</rpm>
</extensions>
</trkpt>
<trkpt lat="64.056510925" lon="-19.241697311">
<ele>583.625000</ele>
<time>2012-07-22T00:13:04Z</time>
<speed>0.220000</speed>
<extensions>
<speed>0.2</speed>
<temp>0.00</temp>
<bpm>0</bpm>
<rpm>0.00</rpm>
</extensions>
</trkpt>
<trkpt lat="64.056510925" lon="-19.241710663">
<ele>583.687500</ele>
<time>2012-07-22T00:13:09Z</time>
<speed>0.080000</speed>
<extensions>
<speed>0.1</speed>
<temp>0.00</temp>
<bpm>0</bpm>
<rpm>0.00</rpm>
</extensions>
</trkpt>
<trkpt lat="64.056518555" lon="-19.241720200">
<ele>583.750000</ele>
<time>2012-07-22T00:13:14Z</time>
<speed>0.260000</speed>
<extensions>
<speed>0.3</speed>
<temp>0.00</temp>
<bpm>0</bpm>
<rpm>0.00</rpm>
</extensions>
</trkpt>
<trkpt lat="64.056526184" lon="-19.241727829">
<ele>583.875000</ele>
<time>2012-07-22T00:13:19Z</time>
<speed>0.170000</speed>
<extensions>
<speed>0.2</speed>
<temp>0.00</temp>
<bpm>0</bpm>
<rpm>0.00</rpm>
</extensions>
</trkpt>
<trkpt lat="64.056526184" lon="-19.241729736">
<ele>584.078125</ele>
<time>2012-07-22T00:13:24Z</time>
<speed>0.090000</speed>
<extensions>
<speed>0.1</speed>
<temp>0.00</temp>
<bpm>0</bpm>
<rpm>0.00</rpm>
</extensions>
</trkpt>
<trkpt lat="64.056533813" lon="-19.241744995">
<ele>584.218750</ele>
<time>2012-07-22T00:13:29Z</time>
<speed>0.240000</speed>
<extensions>
<speed>0.2</speed>
<temp>0.00</temp>
<bpm>0</bpm>
<rpm>0.00</rpm>
</extensions>
</trkpt>
<trkpt lat="64.056541443" lon="-19.241748810">
<ele>584.312500</ele>
<time>2012-07-22T00:13:34Z</time>
<speed>0.150000</speed>
<extensions>
<speed>0.2</speed>
<temp>0.00</temp>
<bpm>0</bpm>
<rpm>0.00</rpm>
</extensions>
</trkpt>
<trkpt lat="64.056541443" lon="-19.241743088">
<ele>584.359375</ele>
<time>2012-07-22T00:13:39Z</time>
<speed>0.050000</speed>
<extensions>
<speed>0.1</speed>
<temp>0.00</temp>
<bpm>0</bpm>
<rpm>0.00</rpm>
</extensions>
</trkpt>
<trkpt lat="64.056541443" lon="-19.241748810">
<ele>584.421875</ele>
<time>2012-07-22T00:13:44Z</time>
<speed>0.100000</speed>
<extensions>
<speed>0.1</speed>
<temp>0.00</temp>
<bpm>0</bpm>
<rpm>0.00</rpm>
</extensions>
</trkpt>
<trkpt lat="64.056541443" lon="-19.241746902">
<ele>584.453125</ele>
<time>2012-07-22T00:13:49Z</time>
<speed>0.080000</speed>
<extensions>
<speed>0.1</speed>
<temp>0.00</temp>
<bpm>0</bpm>
<rpm>0.00</rpm>
</extensions>
</trkpt>
<trkpt lat="64.056541443" lon="-19.241746902">
<ele>584.484375</ele>
<time>2012-07-22T00:13:54Z</time>
<speed>0.040000</speed>
<extensions>
<speed>0.0</speed>
<temp>0.00</temp>
<bpm>0</bpm>
<rpm>0.00</rpm>
</extensions>
</trkpt>
<trkpt lat="64.056549072" lon="-19.241743088">
<ele>584.500000</ele>
<time>2012-07-22T00:13:59Z</time>
<speed>0.060000</speed>
<extensions>
<speed>0.1</speed>
<temp>0.00</temp>
<bpm>0</bpm>
<rpm>0.00</rpm>
</extensions>
</trkpt>
<trkpt lat="64.056541443" lon="-19.241735458">
<ele>584.500000</ele>
<time>2012-07-22T00:14:04Z</time>
<speed>0.120000</speed>
<extensions>
<speed>0.1</speed>
<temp>0.00</temp>
<bpm>0</bpm>
<rpm>0.00</rpm>
</extensions>
</trkpt>
<trkpt lat="64.056549072" lon="-19.241735458">
<ele>584.515625</ele>
<time>2012-07-22T00:14:09Z</time>
<speed>0.200000</speed>
<extensions>
<speed>0.2</speed>
<temp>0.00</temp>
<bpm>0</bpm>
<rpm>0.00</rpm>
</extensions>
</trkpt>
<trkpt lat="64.056556702" lon="-19.241737366">
<ele>584.609375</ele>
<time>2012-07-22T00:14:14Z</time>
<speed>0.170000</speed>
<extensions>
<speed>0.2</speed>
<temp>0.00</temp>
<bpm>0</bpm>
<rpm>0.00</rpm>
</extensions>
</trkpt>
<trkpt lat="64.056564331" lon="-19.241731644">
<ele>584.781250</ele>
<time>2012-07-22T00:14:19Z</time>
<speed>0.160000</speed>
<extensions>
<speed>0.2</speed>
<temp>0.00</temp>
<bpm>0</bpm>
<rpm>0.00</rpm>
</extensions>
</trkpt>
<trkpt lat="64.056571960" lon="-19.241724014">
<ele>584.890625</ele>
<time>2012-07-22T00:14:24Z</time>
<speed>0.130000</speed>
<extensions>
<speed>0.1</speed>
<temp>0.00</temp>
<bpm>0</bpm>
<rpm>0.00</rpm>
</extensions>
</trkpt>
<trkpt lat="64.056571960" lon="-19.241712570">
<ele>584.968750</ele>
<time>2012-07-22T00:14:29Z</time>
<speed>0.180000</speed>
<extensions>
<speed>0.2</speed>
<temp>0.00</temp>
<bpm>0</bpm>
<rpm>0.00</rpm>
</extensions>
</trkpt>
<trkpt lat="64.056579590" lon="-19.241704941">
<ele>585.031250</ele>
<time>2012-07-22T00:14:34Z</time>
<speed>0.130000</speed>
<extensions>
<speed>0.1</speed>
<temp>0.00</temp>
<bpm>0</bpm>
<rpm>0.00</rpm>
</extensions>
</trkpt>
<trkpt lat="64.056587219" lon="-19.241693497">
<ele>585.078125</ele>
<time>2012-07-22T00:14:39Z</time>
<speed>0.200000</speed>
<extensions>
<speed>0.2</speed>
<temp>0.00</temp>
<bpm>0</bpm>
<rpm>0.00</rpm>
</extensions>
</trkpt>
<trkpt lat="64.056587219" lon="-19.241670609">
<ele>585.109375</ele>
<time>2012-07-22T00:14:44Z</time>
<speed>0.120000</speed>
<extensions>
<speed>0.1</speed>
<temp>0.00</temp>
<bpm>0</bpm>
<rpm>0.00</rpm>
</extensions>
</trkpt>
<trkpt lat="64.056587219" lon="-19.241653442">
<ele>585.093750</ele>
<time>2012-07-22T00:14:49Z</time>
<speed>0.150000</speed>
<extensions>
<speed>0.2</speed>
<temp>0.00</temp>
<bpm>0</bpm>
<rpm>0.00</rpm>
</extensions>
</trkpt>
<trkpt lat="64.056594849" lon="-19.241628647">
<ele>585.078125</ele>
<time>2012-07-22T00:14:54Z</time>
<speed>0.250000</speed>
<extensions>
<speed>0.2</speed>
<temp>0.00</temp>
<bpm>0</bpm>
<rpm>0.00</rpm>
</extensions>
</trkpt>
<trkpt lat="64.056594849" lon="-19.241613388">
<ele>585.046875</ele>
<time>2012-07-22T00:14:59Z</time>
<speed>0.120000</speed>
<extensions>
<speed>0.1</speed>
<temp>0.00</temp>
<bpm>0</bpm>
<rpm>0.00</rpm>
</extensions>
</trkpt>
<trkpt lat="64.056594849" lon="-19.241596222">
<ele>585.031250</ele>
<time>2012-07-22T00:15:04Z</time>
<speed>0.150000</speed>
<extensions>
<speed>0.2</speed>
<temp>0.00</temp>
<bpm>0</bpm>
<rpm>0.00</rpm>
</extensions>
</trkpt>
<trkpt lat="64.056602478" lon="-19.241582870">
<ele>585.015625</ele>
<time>2012-07-22T00:15:09Z</time>
<speed>0.140000</speed>
<extensions>
<speed>0.1</speed>
<temp>0.00</temp>
<bpm>0</bpm>
<rpm>0.00</rpm>
</extensions>
</trkpt>
<trkpt lat="64.056602478" lon="-19.241567612">
<ele>584.968750</ele>
<time>2012-07-22T00:15:14Z</time>
<speed>0.040000</speed>
<extensions>
<speed>0.0</speed>
<temp>0.00</temp>
<bpm>0</bpm>
<rpm>0.00</rpm>
</extensions>
</trkpt>
<trkpt lat="64.056594849" lon="-19.241559982">
<ele>584.937500</ele>
<time>2012-07-22T00:15:19Z</time>
<speed>0.080000</speed>
<extensions>
<speed>0.1</speed>
<temp>0.00</temp>
<bpm>0</bpm>
<rpm>0.00</rpm>
</extensions>
</trkpt>
<trkpt lat="64.056594849" lon="-19.241552353">
<ele>584.890625</ele>
<time>2012-07-22T00:15:24Z</time>
<speed>0.140000</speed>
<extensions>
<speed>0.1</speed>
<temp>0.00</temp>
<bpm>0</bpm>
<rpm>0.00</rpm>
</extensions>
</trkpt>
<trkpt lat="64.056594849" lon="-19.241554260">
<ele>584.859375</ele>
<time>2012-07-22T00:15:29Z</time>
<speed>0.050000</speed>
<extensions>
<speed>0.1</speed>
<temp>0.00</temp>
<bpm>0</bpm>
<rpm>0.00</rpm>
</extensions>
</trkpt>
<trkpt lat="64.056587219" lon="-19.241559982">
<ele>584.828125</ele>
<time>2012-07-22T00:15:34Z</time>
<speed>0.140000</speed>
<extensions>
<speed>0.1</speed>
<temp>0.00</temp>
<bpm>0</bpm>
<rpm>0.00</rpm>
</extensions>
</trkpt>
<trkpt lat="64.056587219" lon="-19.241567612">
<ele>584.781250</ele>
<time>2012-07-22T00:15:39Z</time>
<speed>0.130000</speed>
<extensions>
<speed>0.1</speed>
<temp>0.00</temp>
<bpm>0</bpm>
<rpm>0.00</rpm>
</extensions>
</trkpt>
<trkpt lat="64.056587219" lon="-19.241579056">
<ele>584.734375</ele>
<time>2012-07-22T00:15:44Z</time>
<speed>0.120000</speed>
<extensions>
<speed>0.1</speed>
<temp>0.00</temp>
<bpm>0</bpm>
<rpm>0.00</rpm>
</extensions>
</trkpt>
<trkpt lat="64.056579590" lon="-19.241586685">
<ele>584.718750</ele>
<time>2012-07-22T00:15:49Z</time>
<speed>0.090000</speed>
<extensions>
<speed>0.1</speed>
<temp>0.00</temp>
<bpm>0</bpm>
<rpm>0.00</rpm>
</extensions>
</trkpt>
<trkpt lat="64.056579590" lon="-19.241600037">
<ele>584.703125</ele>
<time>2012-07-22T00:15:54Z</time>
<speed>0.270000</speed>
<extensions>
<speed>0.3</speed>
<temp>0.00</temp>
<bpm>0</bpm>
<rpm>0.00</rpm>
</extensions>
</trkpt>
<trkpt lat="64.056571960" lon="-19.241621017">
<ele>584.687500</ele>
<time>2012-07-22T00:15:59Z</time>
<speed>0.130000</speed>
<extensions>
<speed>0.1</speed>
<temp>0.00</temp>
<bpm>0</bpm>
<rpm>0.00</rpm>
</extensions>
</trkpt>
<trkpt lat="64.056564331" lon="-19.241617203">
<ele>584.656250</ele>
<time>2012-07-22T00:16:04Z</time>
<speed>0.110000</speed>
<extensions>
<speed>0.1</speed>
<temp>0.00</temp>
<bpm>0</bpm>
<rpm>0.00</rpm>
</extensions>
</trkpt>
<trkpt lat="64.056564331" lon="-19.241619110">
<ele>584.609375</ele>
<time>2012-07-22T00:16:09Z</time>
<speed>0.120000</speed>
<extensions>
<speed>0.1</speed>
<temp>0.00</temp>
<bpm>0</bpm>
<rpm>0.00</rpm>
</extensions>
</trkpt>
<trkpt lat="64.056564331" lon="-19.241632462">
<ele>584.578125</ele>
<time>2012-07-22T00:16:14Z</time>
<speed>0.120000</speed>
<extensions>
<speed>0.1</speed>
<temp>0.00</temp>
<bpm>0</bpm>
<rpm>0.00</rpm>
</extensions>
</trkpt>
<trkpt lat="64.056564331" lon="-19.241649628">
<ele>584.562500</ele>
<time>2012-07-22T00:16:19Z</time>
<speed>0.180000</speed>
<extensions>
<speed>0.2</speed>
<temp>0.00</temp>
<bpm>0</bpm>
<rpm>0.00</rpm>
</extensions>
</trkpt>
<trkpt lat="64.056556702" lon="-19.241661072">
<ele>584.546875</ele>
<time>2012-07-22T00:16:24Z</time>
<speed>0.040000</speed>
<extensions>
<speed>0.0</speed>
<temp>0.00</temp>
<bpm>0</bpm>
<rpm>0.00</rpm>
</extensions>
</trkpt>
<trkpt lat="64.056556702" lon="-19.241666794">
<ele>584.531250</ele>
<time>2012-07-22T00:16:29Z</time>
<speed>0.110000</speed>
<extensions>
<speed>0.1</speed>
<temp>0.00</temp>
<bpm>0</bpm>
<rpm>0.00</rpm>
</extensions>
</trkpt>
<trkpt lat="64.056556702" lon="-19.241701126">
<ele>584.515625</ele>
<time>2012-07-22T00:16:34Z</time>
<speed>0.260000</speed>
<extensions>
<speed>0.3</speed>
<temp>0.00</temp>
<bpm>0</bpm>
<rpm>0.00</rpm>
</extensions>
</trkpt>
<trkpt lat="64.056556702" lon="-19.241718292">
<ele>584.515625</ele>
<time>2012-07-22T00:16:39Z</time>
<speed>0.030000</speed>
<extensions>
<speed>0.0</speed>
<temp>0.00</temp>
<bpm>0</bpm>
<rpm>0.00</rpm>
</extensions>
</trkpt>
<trkpt lat="64.056556702" lon="-19.241718292">
<ele>584.515625</ele>
<time>2012-07-22T00:16:44Z</time>
<speed>0.010000</speed>
<extensions>
<speed>0.0</speed>
<temp>0.00</temp>
<bpm>0</bpm>
<rpm>0.00</rpm>
</extensions>
</trkpt>
<trkpt lat="64.056549072" lon="-19.241722107">
<ele>584.500000</ele>
<time>2012-07-22T00:16:49Z</time>
<speed>0.110000</speed>
<extensions>
<speed>0.1</speed>
<temp>0.00</temp>
<bpm>0</bpm>
<rpm>0.00</rpm>
</extensions>
</trkpt>
<trkpt lat="64.056549072" lon="-19.241724014">
<ele>584.484375</ele>
<time>2012-07-22T00:16:54Z</time>
<speed>0.050000</speed>
<extensions>
<speed>0.1</speed>
<temp>0.00</temp>
<bpm>0</bpm>
<rpm>0.00</rpm>
</extensions>
</trkpt>
<trkpt lat="64.056549072" lon="-19.241729736">
<ele>584.484375</ele>
<time>2012-07-22T00:16:59Z</time>
<speed>0.050000</speed>
<extensions>
<speed>0.1</speed>
<temp>0.00</temp>
<bpm>0</bpm>
<rpm>0.00</rpm>
</extensions>
</trkpt>
<trkpt lat="64.056549072" lon="-19.241739273">
<ele>584.500000</ele>
<time>2012-07-22T00:17:04Z</time>
<speed>0.120000</speed>
<extensions>
<speed>0.1</speed>
<temp>0.00</temp>
<bpm>0</bpm>
<rpm>0.00</rpm>
</extensions>
</trkpt>
<trkpt lat="64.056549072" lon="-19.241744995">
<ele>584.515625</ele>
<time>2012-07-22T00:17:09Z</time>
<speed>0.100000</speed>
<extensions>
<speed>0.1</speed>
<temp>0.00</temp>
<bpm>0</bpm>
<rpm>0.00</rpm>
</extensions>
</trkpt>
<trkpt lat="64.056549072" lon="-19.241741180">
<ele>584.515625</ele>
<time>2012-07-22T00:17:14Z</time>
<speed>0.080000</speed>
<extensions>
<speed>0.1</speed>
<temp>0.00</temp>
<bpm>0</bpm>
<rpm>0.00</rpm>
</extensions>
</trkpt>
<trkpt lat="64.056549072" lon="-19.241724014">
<ele>584.515625</ele>
<time>2012-07-22T00:17:19Z</time>
<speed>0.120000</speed>
<extensions>
<speed>0.1</speed>
<temp>0.00</temp>
<bpm>0</bpm>
<rpm>0.00</rpm>
</extensions>
</trkpt>
<trkpt lat="64.056541443" lon="-19.241718292">
<ele>584.515625</ele>
<time>2012-07-22T00:17:24Z</time>
<speed>0.140000</speed>
<extensions>
<speed>0.1</speed>
<temp>0.00</temp>
<bpm>0</bpm>
<rpm>0.00</rpm>
</extensions>
</trkpt>
<trkpt lat="64.056541443" lon="-19.241718292">
<ele>584.468750</ele>
<time>2012-07-22T00:17:29Z</time>
<speed>0.100000</speed>
<extensions>
<speed>0.1</speed>
<temp>0.00</temp>
<bpm>0</bpm>
<rpm>0.00</rpm>
</extensions>
</trkpt>
<trkpt lat="64.056541443" lon="-19.241706848">
<ele>584.453125</ele>
<time>2012-07-22T00:17:34Z</time>
<speed>0.060000</speed>
<extensions>
<speed>0.1</speed>
<temp>0.00</temp>
<bpm>0</bpm>
<rpm>0.00</rpm>
</extensions>
</trkpt>
<trkpt lat="64.056533813" lon="-19.241703033">
<ele>584.421875</ele>
<time>2012-07-22T00:17:39Z</time>
<speed>0.040000</speed>
<extensions>
<speed>0.0</speed>
<temp>0.00</temp>
<bpm>0</bpm>
<rpm>0.00</rpm>
</extensions>
</trkpt>
<trkpt lat="64.056533813" lon="-19.241701126">
<ele>584.390625</ele>
<time>2012-07-22T00:17:44Z</time>
<speed>0.100000</speed>
<extensions>
<speed>0.1</speed>
<temp>0.00</temp>
<bpm>0</bpm>
<rpm>0.00</rpm>
</extensions>
</trkpt>
<trkpt lat="64.056533813" lon="-19.241714478">
<ele>584.359375</ele>
<time>2012-07-22T00:17:49Z</time>
<speed>0.070000</speed>
<extensions>
<speed>0.1</speed>
<temp>0.00</temp>
<bpm>0</bpm>
<rpm>0.00</rpm>
</extensions>
</trkpt>
<trkpt lat="64.056533813" lon="-19.241722107">
<ele>584.343750</ele>
<time>2012-07-22T00:17:54Z</time>
<speed>0.010000</speed>
<extensions>
<speed>0.0</speed>
<temp>0.00</temp>
<bpm>0</bpm>
<rpm>0.00</rpm>
</extensions>
</trkpt>
<trkpt lat="64.056533813" lon="-19.241727829">
<ele>584.328125</ele>
<time>2012-07-22T00:17:59Z</time>
<speed>0.040000</speed>
<extensions>
<speed>0.0</speed>
<temp>0.00</temp>
<bpm>0</bpm>
<rpm>0.00</rpm>
</extensions>
</trkpt>
<trkpt lat="64.056541443" lon="-19.241739273">
<ele>584.328125</ele>
<time>2012-07-22T00:18:04Z</time>
<speed>0.150000</speed>
<extensions>
<speed>0.2</speed>
<temp>0.00</temp>
<bpm>0</bpm>
<rpm>0.00</rpm>
</extensions>
</trkpt>
<trkpt lat="64.056533813" lon="-19.241752625">
<ele>584.328125</ele>
<time>2012-07-22T00:18:09Z</time>
<speed>0.110000</speed>
<extensions>
<speed>0.1</speed>
<temp>0.00</temp>
<bpm>0</bpm>
<rpm>0.00</rpm>
</extensions>
</trkpt>
<trkpt lat="64.056533813" lon="-19.241758347">
<ele>584.312500</ele>
<time>2012-07-22T00:18:14Z</time>
<speed>0.020000</speed>
<extensions>
<speed>0.0</speed>
<temp>0.00</temp>
<bpm>0</bpm>
<rpm>0.00</rpm>
</extensions>
</trkpt>
<trkpt lat="64.056533813" lon="-19.241764069">
<ele>584.312500</ele>
<time>2012-07-22T00:18:19Z</time>
<speed>0.080000</speed>
<extensions>
<speed>0.1</speed>
<temp>0.00</temp>
<bpm>0</bpm>
<rpm>0.00</rpm>
</extensions>
</trkpt>
<trkpt lat="64.056533813" lon="-19.241764069">
<ele>584.312500</ele>
<time>2012-07-22T00:18:24Z</time>
<speed>0.040000</speed>
<extensions>
<speed>0.0</speed>
<temp>0.00</temp>
<bpm>0</bpm>
<rpm>0.00</rpm>
</extensions>
</trkpt>
<trkpt lat="64.056533813" lon="-19.241765976">
<ele>584.312500</ele>
<time>2012-07-22T00:18:29Z</time>
<speed>0.040000</speed>
<extensions>
<speed>0.0</speed>
<temp>0.00</temp>
<bpm>0</bpm>
<rpm>0.00</rpm>
</extensions>
</trkpt>
<trkpt lat="64.056533813" lon="-19.241756439">
<ele>584.328125</ele>
<time>2012-07-22T00:18:34Z</time>
<speed>0.120000</speed>
<extensions>
<speed>0.1</speed>
<temp>0.00</temp>
<bpm>0</bpm>
<rpm>0.00</rpm>
</extensions>
</trkpt>
<trkpt lat="64.056533813" lon="-19.241746902">
<ele>584.312500</ele>
<time>2012-07-22T00:18:39Z</time>
<speed>0.020000</speed>
<extensions>
<speed>0.0</speed>
<temp>0.00</temp>
<bpm>0</bpm>
<rpm>0.00</rpm>
</extensions>
</trkpt>
<trkpt lat="64.056533813" lon="-19.241750717">
<ele>584.312500</ele>
<time>2012-07-22T00:18:44Z</time>
<speed>0.020000</speed>
<extensions>
<speed>0.0</speed>
<temp>0.00</temp>
<bpm>0</bpm>
<rpm>0.00</rpm>
</extensions>
</trkpt>
<trkpt lat="64.056533813" lon="-19.241746902">
<ele>584.312500</ele>
<time>2012-07-22T00:18:49Z</time>
<speed>0.100000</speed>
<extensions>
<speed>0.1</speed>
<temp>0.00</temp>
<bpm>0</bpm>
<rpm>0.00</rpm>
</extensions>
</trkpt>
<trkpt lat="64.056533813" lon="-19.241760254">
<ele>584.296875</ele>
<time>2012-07-22T00:18:54Z</time>
<speed>0.120000</speed>
<extensions>
<speed>0.1</speed>
<temp>0.00</temp>
<bpm>0</bpm>
<rpm>0.00</rpm>
</extensions>
</trkpt>
<trkpt lat="64.056533813" lon="-19.241764069">
<ele>584.312500</ele>
<time>2012-07-22T00:18:59Z</time>
<speed>0.020000</speed>
<extensions>
<speed>0.0</speed>
<temp>0.00</temp>
<bpm>0</bpm>
<rpm>0.00</rpm>
</extensions>
</trkpt>
<trkpt lat="64.056533813" lon="-19.241767883">
<ele>584.312500</ele>
<time>2012-07-22T00:19:04Z</time>
<speed>0.020000</speed>
<extensions>
<speed>0.0</speed>
<temp>0.00</temp>
<bpm>0</bpm>
<rpm>0.00</rpm>
</extensions>
</trkpt>
<trkpt lat="64.056533813" lon="-19.241769791">
<ele>584.312500</ele>
<time>2012-07-22T00:19:09Z</time>
<speed>0.070000</speed>
<extensions>
<speed>0.1</speed>
<temp>0.00</temp>
<bpm>0</bpm>
<rpm>0.00</rpm>
</extensions>
</trkpt>
<trkpt lat="64.056533813" lon="-19.241769791">
<ele>584.296875</ele>
<time>2012-07-22T00:19:14Z</time>
<speed>0.050000</speed>
<extensions>
<speed>0.1</speed>
<temp>0.00</temp>
<bpm>0</bpm>
<rpm>0.00</rpm>
</extensions>
</trkpt>
<trkpt lat="64.056533813" lon="-19.241773605">
<ele>584.265625</ele>
<time>2012-07-22T00:19:19Z</time>
<speed>0.050000</speed>
<extensions>
<speed>0.1</speed>
<temp>0.00</temp>
<bpm>0</bpm>
<rpm>0.00</rpm>
</extensions>
</trkpt>
<trkpt lat="64.056541443" lon="-19.241777420">
<ele>584.265625</ele>
<time>2012-07-22T00:19:24Z</time>
<speed>0.100000</speed>
<extensions>
<speed>0.1</speed>
<temp>0.00</temp>
<bpm>0</bpm>
<rpm>0.00</rpm>
</extensions>
</trkpt>
<trkpt lat="64.056541443" lon="-19.241783142">
<ele>584.265625</ele>
<time>2012-07-22T00:19:29Z</time>
<speed>0.010000</speed>
<extensions>
<speed>0.0</speed>
<temp>0.00</temp>
<bpm>0</bpm>
<rpm>0.00</rpm>
</extensions>
</trkpt>
<trkpt lat="64.056541443" lon="-19.241773605">
<ele>584.265625</ele>
<time>2012-07-22T00:19:34Z</time>
<speed>0.060000</speed>
<extensions>
<speed>0.1</speed>
<temp>0.00</temp>
<bpm>0</bpm>
<rpm>0.00</rpm>
</extensions>
</trkpt>
<trkpt lat="64.056541443" lon="-19.241762161">
<ele>584.265625</ele>
<time>2012-07-22T00:19:39Z</time>
<speed>0.120000</speed>
<extensions>
<speed>0.1</speed>
<temp>0.00</temp>
<bpm>0</bpm>
<rpm>0.00</rpm>
</extensions>
</trkpt>
<trkpt lat="64.056541443" lon="-19.241750717">
<ele>584.250000</ele>
<time>2012-07-22T00:19:44Z</time>
<speed>0.060000</speed>
<extensions>
<speed>0.1</speed>
<temp>0.00</temp>
<bpm>0</bpm>
<rpm>0.00</rpm>
</extensions>
</trkpt>
<trkpt lat="64.056541443" lon="-19.241743088">
<ele>584.250000</ele>
<time>2012-07-22T00:19:49Z</time>
<speed>0.080000</speed>
<extensions>
<speed>0.1</speed>
<temp>0.00</temp>
<bpm>0</bpm>
<rpm>0.00</rpm>
</extensions>
</trkpt>
<trkpt lat="64.056541443" lon="-19.241739273">
<ele>584.234375</ele>
<time>2012-07-22T00:19:54Z</time>
<speed>0.060000</speed>
<extensions>
<speed>0.1</speed>
<temp>0.00</temp>
<bpm>0</bpm>
<rpm>0.00</rpm>
</extensions>
</trkpt>
<trkpt lat="64.056541443" lon="-19.241733551">
<ele>584.234375</ele>
<time>2012-07-22T00:19:59Z</time>
<speed>0.130000</speed>
<extensions>
<speed>0.1</speed>
<temp>0.00</temp>
<bpm>0</bpm>
<rpm>0.00</rpm>
</extensions>
</trkpt>
<trkpt lat="64.056549072" lon="-19.241725922">
<ele>584.250000</ele>
<time>2012-07-22T00:20:04Z</time>
<speed>0.040000</speed>
<extensions>
<speed>0.0</speed>
<temp>0.00</temp>
<bpm>0</bpm>
<rpm>0.00</rpm>
</extensions>
</trkpt>
<trkpt lat="64.056541443" lon="-19.241727829">
<ele>584.265625</ele>
<time>2012-07-22T00:20:09Z</time>
<speed>0.090000</speed>
<extensions>
<speed>0.1</speed>
<temp>0.00</temp>
<bpm>0</bpm>
<rpm>0.00</rpm>
</extensions>
</trkpt>
<trkpt lat="64.056541443" lon="-19.241724014">
<ele>584.265625</ele>
<time>2012-07-22T00:20:14Z</time>
<speed>0.060000</speed>
<extensions>
<speed>0.1</speed>
<temp>0.00</temp>
<bpm>0</bpm>
<rpm>0.00</rpm>
</extensions>
</trkpt>
<trkpt lat="64.056541443" lon="-19.241724014">
<ele>584.281250</ele>
<time>2012-07-22T00:20:19Z</time>
<speed>0.050000</speed>
<extensions>
<speed>0.1</speed>
<temp>0.00</temp>
<bpm>0</bpm>
<rpm>0.00</rpm>
</extensions>
</trkpt>
<trkpt lat="64.056541443" lon="-19.241729736">
<ele>584.265625</ele>
<time>2012-07-22T00:20:24Z</time>
<speed>0.120000</speed>
<extensions>
<speed>0.1</speed>
<temp>0.00</temp>
<bpm>0</bpm>
<rpm>0.00</rpm>
</extensions>
</trkpt>
<trkpt lat="64.056541443" lon="-19.241739273">
<ele>584.265625</ele>
<time>2012-07-22T00:20:29Z</time>
<speed>0.110000</speed>
<extensions>
<speed>0.1</speed>
<temp>0.00</temp>
<bpm>0</bpm>
<rpm>0.00</rpm>
</extensions>
</trkpt>
<trkpt lat="64.056549072" lon="-19.241743088">
<ele>584.390625</ele>
<time>2012-07-22T00:20:34Z</time>
<speed>0.020000</speed>
<extensions>
<speed>0.0</speed>
<temp>0.00</temp>
<bpm>0</bpm>
<rpm>0.00</rpm>
</extensions>
</trkpt>
<trkpt lat="64.056549072" lon="-19.241739273">
<ele>584.562500</ele>
<time>2012-07-22T00:20:39Z</time>
<speed>0.060000</speed>
<extensions>
<speed>0.1</speed>
<temp>0.00</temp>
<bpm>0</bpm>
<rpm>0.00</rpm>
</extensions>
</trkpt>
<trkpt lat="64.056549072" lon="-19.241737366">
<ele>584.718750</ele>
<time>2012-07-22T00:20:44Z</time>
<extensions>
<speed>0.0</speed>
<temp>0.00</temp>
<bpm>0</bpm>
<rpm>0.00</rpm>
</extensions>
</trkpt>
<trkpt lat="64.056549072" lon="-19.241737366">
<ele>584.812500</ele>
<time>2012-07-22T00:20:49Z</time>
<extensions>
<speed>0.0</speed>
<temp>0.00</temp>
<bpm>0</bpm>
<rpm>0.00</rpm>
</extensions>
</trkpt>
<trkpt lat="64.056549072" lon="-19.241737366">
<ele>584.875000</ele>
<time>2012-07-22T00:20:54Z</time>
<speed>0.010000</speed>
<extensions>
<speed>0.0</speed>
<temp>0.00</temp>
<bpm>0</bpm>
<rpm>0.00</rpm>
</extensions>
</trkpt>
<trkpt lat="64.056549072" lon="-19.241735458">
<ele>584.953125</ele>
<time>2012-07-22T00:20:59Z</time>
<speed>0.020000</speed>
<extensions>
<speed>0.0</speed>
<temp>0.00</temp>
<bpm>0</bpm>
<rpm>0.00</rpm>
</extensions>
</trkpt>
<trkpt lat="64.056549072" lon="-19.241733551">
<ele>585.000000</ele>
<time>2012-07-22T00:21:04Z</time>
<speed>0.020000</speed>
<extensions>
<speed>0.0</speed>
<temp>0.00</temp>
<bpm>0</bpm>
<rpm>0.00</rpm>
</extensions>
</trkpt>
<trkpt lat="64.056549072" lon="-19.241733551">
<ele>585.062500</ele>
<time>2012-07-22T00:21:09Z</time>
<speed>0.010000</speed>
<extensions>
<speed>0.0</speed>
<temp>0.00</temp>
<bpm>0</bpm>
<rpm>0.00</rpm>
</extensions>
</trkpt>
<trkpt lat="64.056549072" lon="-19.241733551">
<ele>585.109375</ele>
<time>2012-07-22T00:21:14Z</time>
<speed>0.010000</speed>
<extensions>
<speed>0.0</speed>
<temp>0.00</temp>
<bpm>0</bpm>
<rpm>0.00</rpm>
</extensions>
</trkpt>
<trkpt lat="64.056549072" lon="-19.241731644">
<ele>585.140625</ele>
<time>2012-07-22T00:21:19Z</time>
<speed>0.030000</speed>
<extensions>
<speed>0.0</speed>
<temp>0.00</temp>
<bpm>0</bpm>
<rpm>0.00</rpm>
</extensions>
</trkpt>
<trkpt lat="64.056549072" lon="-19.241731644">
<ele>585.171875</ele>
<time>2012-07-22T00:21:24Z</time>
<speed>0.010000</speed>
<extensions>
<speed>0.0</speed>
<temp>0.00</temp>
<bpm>0</bpm>
<rpm>0.00</rpm>
</extensions>
</trkpt>
<trkpt lat="64.056549072" lon="-19.241731644">
<ele>585.203125</ele>
<time>2012-07-22T00:21:29Z</time>
<speed>0.030000</speed>
<extensions>
<speed>0.0</speed>
<temp>0.00</temp>
<bpm>0</bpm>
<rpm>0.00</rpm>
</extensions>
</trkpt>
<trkpt lat="64.056549072" lon="-19.241731644">
<ele>585.250000</ele>
<time>2012-07-22T00:21:34Z</time>
<speed>0.010000</speed>
<extensions>
<speed>0.0</speed>
<temp>0.00</temp>
<bpm>0</bpm>
<rpm>0.00</rpm>
</extensions>
</trkpt>
<trkpt lat="64.056549072" lon="-19.241731644">
<ele>585.265625</ele>
<time>2012-07-22T00:21:39Z</time>
<extensions>
<speed>0.0</speed>
<temp>0.00</temp>
<bpm>0</bpm>
<rpm>0.00</rpm>
</extensions>
</trkpt>
<trkpt lat="64.056549072" lon="-19.241731644">
<ele>585.296875</ele>
<time>2012-07-22T00:21:44Z</time>
<speed>0.020000</speed>
<extensions>
<speed>0.0</speed>
<temp>0.00</temp>
<bpm>0</bpm>
<rpm>0.00</rpm>
</extensions>
</trkpt>
<trkpt lat="64.056549072" lon="-19.241729736">
<ele>585.328125</ele>
<time>2012-07-22T00:21:49Z</time>
<extensions>
<speed>0.0</speed>
<temp>0.00</temp>
<bpm>0</bpm>
<rpm>0.00</rpm>
</extensions>
</trkpt>
<trkpt lat="64.056549072" lon="-19.241729736">
<ele>585.359375</ele>
<time>2012-07-22T00:21:54Z</time>
<speed>0.010000</speed>
<extensions>
<speed>0.0</speed>
<temp>0.00</temp>
<bpm>0</bpm>
<rpm>0.00</rpm>
</extensions>
</trkpt>
<trkpt lat="64.056549072" lon="-19.241729736">
<ele>585.390625</ele>
<time>2012-07-22T00:21:59Z</time>
<speed>0.010000</speed>
<extensions>
<speed>0.0</speed>
<temp>0.00</temp>
<bpm>0</bpm>
<rpm>0.00</rpm>
</extensions>
</trkpt>
<trkpt lat="64.056549072" lon="-19.241727829">
<ele>585.421875</ele>
<time>2012-07-22T00:22:04Z</time>
<speed>0.010000</speed>
<extensions>
<speed>0.0</speed>
<temp>0.00</temp>
<bpm>0</bpm>
<rpm>0.00</rpm>
</extensions>
</trkpt>
<trkpt lat="64.056549072" lon="-19.241727829">
<ele>585.453125</ele>
<time>2012-07-22T00:22:09Z</time>
<speed>0.020000</speed>
<extensions>
<speed>0.0</speed>
<temp>0.00</temp>
<bpm>0</bpm>
<rpm>0.00</rpm>
</extensions>
</trkpt>
<trkpt lat="64.056549072" lon="-19.241725922">
<ele>585.484375</ele>
<time>2012-07-22T00:22:14Z</time>
<extensions>
<speed>0.0</speed>
<temp>0.00</temp>
<bpm>0</bpm>
<rpm>0.00</rpm>
</extensions>
</trkpt>
<trkpt lat="64.056549072" lon="-19.241725922">
<ele>585.515625</ele>
<time>2012-07-22T00:22:19Z</time>
<extensions>
<speed>0.0</speed>
<temp>0.00</temp>
<bpm>0</bpm>
<rpm>0.00</rpm>
</extensions>
</trkpt>
<trkpt lat="64.056549072" lon="-19.241725922">
<ele>585.531250</ele>
<time>2012-07-22T00:22:24Z</time>
<extensions>
<speed>0.0</speed>
<temp>0.00</temp>
<bpm>0</bpm>
<rpm>0.00</rpm>
</extensions>
</trkpt>
<trkpt lat="64.056549072" lon="-19.241724014">
<ele>585.562500</ele>
<time>2012-07-22T00:22:29Z</time>
<speed>0.010000</speed>
<extensions>
<speed>0.0</speed>
<temp>0.00</temp>
<bpm>0</bpm>
<rpm>0.00</rpm>
</extensions>
</trkpt>
<trkpt lat="64.056549072" lon="-19.241724014">
<ele>585.593750</ele>
<time>2012-07-22T00:22:34Z</time>
<speed>0.010000</speed>
<extensions>
<speed>0.0</speed>
<temp>0.00</temp>
<bpm>0</bpm>
<rpm>0.00</rpm>
</extensions>
</trkpt>
<trkpt lat="64.056549072" lon="-19.241724014">
<ele>585.609375</ele>
<time>2012-07-22T00:22:39Z</time>
<speed>0.010000</speed>
<extensions>
<speed>0.0</speed>
<temp>0.00</temp>
<bpm>0</bpm>
<rpm>0.00</rpm>
</extensions>
</trkpt>
<trkpt lat="64.056549072" lon="-19.241724014">
<ele>585.625000</ele>
<time>2012-07-22T00:22:44Z</time>
<extensions>
<speed>0.0</speed>
<temp>0.00</temp>
<bpm>0</bpm>
<rpm>0.00</rpm>
</extensions>
</trkpt>
<trkpt lat="64.056549072" lon="-19.241722107">
<ele>585.656250</ele>
<time>2012-07-22T00:22:49Z</time>
<speed>0.010000</speed>
<extensions>
<speed>0.0</speed>
<temp>0.00</temp>
<bpm>0</bpm>
<rpm>0.00</rpm>
</extensions>
</trkpt>
<trkpt lat="64.056549072" lon="-19.241722107">
<ele>585.687500</ele>
<time>2012-07-22T00:22:54Z</time>
<extensions>
<speed>0.0</speed>
<temp>0.00</temp>
<bpm>0</bpm>
<rpm>0.00</rpm>
</extensions>
</trkpt>
<trkpt lat="64.056549072" lon="-19.241722107">
<ele>585.718750</ele>
<time>2012-07-22T00:22:59Z</time>
<speed>0.030000</speed>
<extensions>
<speed>0.0</speed>
<temp>0.00</temp>
<bpm>0</bpm>
<rpm>0.00</rpm>
</extensions>
</trkpt>
<trkpt lat="64.056549072" lon="-19.241720200">
<ele>585.750000</ele>
<time>2012-07-22T00:23:04Z</time>
<speed>0.010000</speed>
<extensions>
<speed>0.0</speed>
<temp>0.00</temp>
<bpm>0</bpm>
<rpm>0.00</rpm>
</extensions>
</trkpt>
<trkpt lat="64.056549072" lon="-19.241720200">
<ele>585.781250</ele>
<time>2012-07-22T00:23:09Z</time>
<extensions>
<speed>0.0</speed>
<temp>0.00</temp>
<bpm>0</bpm>
<rpm>0.00</rpm>
</extensions>
</trkpt>
<trkpt lat="64.056549072" lon="-19.241720200">
<ele>585.796875</ele>
<time>2012-07-22T00:23:14Z</time>
<speed>0.010000</speed>
<extensions>
<speed>0.0</speed>
<temp>0.00</temp>
<bpm>0</bpm>
<rpm>0.00</rpm>
</extensions>
</trkpt>
<trkpt lat="64.056549072" lon="-19.241720200">
<ele>585.828125</ele>
<time>2012-07-22T00:23:19Z</time>
<speed>0.010000</speed>
<extensions>
<speed>0.0</speed>
<temp>0.00</temp>
<bpm>0</bpm>
<rpm>0.00</rpm>
</extensions>
</trkpt>
<trkpt lat="64.056556702" lon="-19.241720200">
<ele>585.859375</ele>
<time>2012-07-22T00:23:24Z</time>
<speed>0.020000</speed>
<extensions>
<speed>0.0</speed>
<temp>0.00</temp>
<bpm>0</bpm>
<rpm>0.00</rpm>
</extensions>
</trkpt>
<trkpt lat="64.056556702" lon="-19.241718292">
<ele>585.875000</ele>
<time>2012-07-22T00:23:29Z</time>
<extensions>
<speed>0.0</speed>
<temp>0.00</temp>
<bpm>0</bpm>
<rpm>0.00</rpm>
</extensions>
</trkpt>
<trkpt lat="64.056556702" lon="-19.241718292">
<ele>585.890625</ele>
<time>2012-07-22T00:23:34Z</time>
<extensions>
<speed>0.0</speed>
<temp>0.00</temp>
<bpm>0</bpm>
<rpm>0.00</rpm>
</extensions>
</trkpt>
<trkpt lat="64.056556702" lon="-19.241718292">
<ele>585.921875</ele>
<time>2012-07-22T00:23:39Z</time>
<speed>0.020000</speed>
<extensions>
<speed>0.0</speed>
<temp>0.00</temp>
<bpm>0</bpm>
<rpm>0.00</rpm>
</extensions>
</trkpt>
<trkpt lat="64.056556702" lon="-19.241718292">
<ele>585.937500</ele>
<time>2012-07-22T00:23:44Z</time>
<speed>0.010000</speed>
<extensions>
<speed>0.0</speed>
<temp>0.00</temp>
<bpm>0</bpm>
<rpm>0.00</rpm>
</extensions>
</trkpt>
<trkpt lat="64.056556702" lon="-19.241716385">
<ele>585.953125</ele>
<time>2012-07-22T00:23:49Z</time>
<extensions>
<speed>0.0</speed>
<temp>0.00</temp>
<bpm>0</bpm>
<rpm>0.00</rpm>
</extensions>
</trkpt>
<trkpt lat="64.056556702" lon="-19.241716385">
<ele>585.968750</ele>
<time>2012-07-22T00:23:54Z</time>
<extensions>
<speed>0.0</speed>
<temp>0.00</temp>
<bpm>0</bpm>
<rpm>0.00</rpm>
</extensions>
</trkpt>
<trkpt lat="64.056556702" lon="-19.241716385">
<ele>586.000000</ele>
<time>2012-07-22T00:23:59Z</time>
<speed>0.010000</speed>
<extensions>
<speed>0.0</speed>
<temp>0.00</temp>
<bpm>0</bpm>
<rpm>0.00</rpm>
</extensions>
</trkpt>
<trkpt lat="64.056556702" lon="-19.241714478">
<ele>586.015625</ele>
<time>2012-07-22T00:24:04Z</time>
<speed>0.010000</speed>
<extensions>
<speed>0.0</speed>
<temp>0.00</temp>
<bpm>0</bpm>
<rpm>0.00</rpm>
</extensions>
</trkpt>
<trkpt lat="64.056556702" lon="-19.241714478">
<ele>586.031250</ele>
<time>2012-07-22T00:24:09Z</time>
<extensions>
<speed>0.0</speed>
<temp>0.00</temp>
<bpm>0</bpm>
<rpm>0.00</rpm>
</extensions>
</trkpt>
<trkpt lat="64.056556702" lon="-19.241714478">
<ele>586.046875</ele>
<time>2012-07-22T00:24:14Z</time>
<extensions>
<speed>0.0</speed>
<temp>0.00</temp>
<bpm>0</bpm>
<rpm>0.00</rpm>
</extensions>
</trkpt>
<trkpt lat="64.056556702" lon="-19.241714478">
<ele>586.062500</ele>
<time>2012-07-22T00:24:19Z</time>
<speed>0.040000</speed>
<extensions>
<speed>0.0</speed>
<temp>0.00</temp>
<bpm>0</bpm>
<rpm>0.00</rpm>
</extensions>
</trkpt>
<trkpt lat="64.056556702" lon="-19.241712570">
<ele>586.062500</ele>
<time>2012-07-22T00:24:24Z</time>
<speed>0.130000</speed>
<extensions>
<speed>0.1</speed>
<temp>0.00</temp>
<bpm>0</bpm>
<rpm>0.00</rpm>
</extensions>
</trkpt>
<trkpt lat="64.056549072" lon="-19.241701126">
<ele>586.093750</ele>
<time>2012-07-22T00:24:29Z</time>
<speed>0.140000</speed>
<extensions>
<speed>0.1</speed>
<temp>0.00</temp>
<bpm>0</bpm>
<rpm>0.00</rpm>
</extensions>
</trkpt>
<trkpt lat="64.056549072" lon="-19.241699219">
<ele>586.125000</ele>
<time>2012-07-22T00:24:34Z</time>
<speed>0.020000</speed>
<extensions>
<speed>0.0</speed>
<temp>0.00</temp>
<bpm>0</bpm>
<rpm>0.00</rpm>
</extensions>
</trkpt>
<trkpt lat="64.056549072" lon="-19.241701126">
<ele>586.171875</ele>
<time>2012-07-22T00:24:39Z</time>
<speed>0.130000</speed>
<extensions>
<speed>0.1</speed>
<temp>0.00</temp>
<bpm>0</bpm>
<rpm>0.00</rpm>
</extensions>
</trkpt>
<trkpt lat="64.056533813" lon="-19.241737366">
<ele>586.625000</ele>
<time>2012-07-22T00:24:44Z</time>
<speed>1.480000</speed>
<extensions>
<speed>1.5</speed>
<temp>0.00</temp>
<bpm>0</bpm>
<rpm>0.00</rpm>
</extensions>
</trkpt>
<trkpt lat="64.056503296" lon="-19.241794586">
<ele>587.578125</ele>
<time>2012-07-22T00:24:49Z</time>
<speed>0.510000</speed>
<extensions>
<speed>0.5</speed>
<temp>0.00</temp>
<bpm>0</bpm>
<rpm>0.00</rpm>
</extensions>
</trkpt>
<trkpt lat="64.056465149" lon="-19.241844177">
<ele>587.984375</ele>
<time>2012-07-22T00:24:54Z</time>
<speed>1.530000</speed>
<extensions>
<speed>1.5</speed>
<temp>0.00</temp>
<bpm>0</bpm>
<rpm>0.00</rpm>
</extensions>
</trkpt>
<trkpt lat="64.056404114" lon="-19.241918564">
<ele>588.718750</ele>
<time>2012-07-22T00:24:59Z</time>
<speed>1.320000</speed>
<extensions>
<speed>1.3</speed>
<temp>0.00</temp>
<bpm>0</bpm>
<rpm>0.00</rpm>
</extensions>
</trkpt>
<trkpt lat="64.056411743" lon="-19.242082596">
<ele>588.000000</ele>
<time>2012-07-22T00:25:04Z</time>
<speed>1.500000</speed>
<extensions>
<speed>1.5</speed>
<temp>0.00</temp>
<bpm>0</bpm>
<rpm>0.00</rpm>
</extensions>
</trkpt>
<trkpt lat="64.056457520" lon="-19.242288589">
<ele>586.734375</ele>
<time>2012-07-22T00:25:09Z</time>
<speed>1.910000</speed>
<extensions>
<speed>1.9</speed>
<temp>0.00</temp>
<bpm>0</bpm>
<rpm>0.00</rpm>
</extensions>
</trkpt>
<trkpt lat="64.056472778" lon="-19.242399216">
<ele>587.265625</ele>
<time>2012-07-22T00:25:14Z</time>
<speed>0.070000</speed>
<extensions>
<speed>0.1</speed>
<temp>0.00</temp>
<bpm>0</bpm>
<rpm>0.00</rpm>
</extensions>
</trkpt>
<trkpt lat="64.056480408" lon="-19.242406845">
<ele>588.750000</ele>
<time>2012-07-22T00:25:19Z</time>
<extensions>
<speed>0.0</speed>
<temp>0.00</temp>
<bpm>0</bpm>
<rpm>0.00</rpm>
</extensions>
</trkpt>
<trkpt lat="64.056480408" lon="-19.242406845">
<ele>588.796875</ele>
<time>2012-07-22T00:25:24Z</time>
<extensions>
<speed>0.0</speed>
<temp>0.00</temp>
<bpm>0</bpm>
<rpm>0.00</rpm>
</extensions>
</trkpt>
<trkpt lat="64.056480408" lon="-19.242406845">
<ele>588.828125</ele>
<time>2012-07-22T00:25:29Z</time>
<extensions>
<speed>0.0</speed>
<temp>0.00</temp>
<bpm>0</bpm>
<rpm>0.00</rpm>
</extensions>
</trkpt>
<trkpt lat="64.056480408" lon="-19.242404938">
<ele>588.828125</ele>
<time>2012-07-22T00:25:34Z</time>
<extensions>
<speed>0.0</speed>
<temp>0.00</temp>
<bpm>0</bpm>
<rpm>0.00</rpm>
</extensions>
</trkpt>
<trkpt lat="64.056472778" lon="-19.242370605">
<ele>587.984375</ele>
<time>2012-07-22T00:25:39Z</time>
<speed>1.170000</speed>
<extensions>
<speed>1.2</speed>
<temp>0.00</temp>
<bpm>0</bpm>
<rpm>0.00</rpm>
</extensions>
</trkpt>
<trkpt lat="64.056488037" lon="-19.242307663">
<ele>587.906250</ele>
<time>2012-07-22T00:25:44Z</time>
<speed>0.060000</speed>
<extensions>
<speed>0.1</speed>
<temp>0.00</temp>
<bpm>0</bpm>
<rpm>0.00</rpm>
</extensions>
</trkpt>
<trkpt lat="64.056488037" lon="-19.242286682">
<ele>589.125000</ele>
<time>2012-07-22T00:25:49Z</time>
<speed>0.270000</speed>
<extensions>
<speed>0.3</speed>
<temp>0.00</temp>
<bpm>0</bpm>
<rpm>0.00</rpm>
</extensions>
</trkpt>
<trkpt lat="64.056472778" lon="-19.242301941">
<ele>590.000000</ele>
<time>2012-07-22T00:25:54Z</time>
<speed>0.060000</speed>
<extensions>
<speed>0.1</speed>
<temp>0.00</temp>
<bpm>0</bpm>
<rpm>0.00</rpm>
</extensions>
</trkpt>
<trkpt lat="64.056472778" lon="-19.242298126">
<ele>590.109375</ele>
<time>2012-07-22T00:25:59Z</time>
<speed>0.110000</speed>
<extensions>
<speed>0.1</speed>
<temp>0.00</temp>
<bpm>0</bpm>
<rpm>0.00</rpm>
</extensions>
</trkpt>
<trkpt lat="64.056488037" lon="-19.242359161">
<ele>591.156250</ele>
<time>2012-07-22T00:26:04Z</time>
<speed>1.130000</speed>
<extensions>
<speed>1.1</speed>
<temp>0.00</temp>
<bpm>0</bpm>
<rpm>0.00</rpm>
</extensions>
</trkpt>
<trkpt lat="64.056518555" lon="-19.242422104">
<ele>593.062500</ele>
<time>2012-07-22T00:26:09Z</time>
<speed>0.940000</speed>
<extensions>
<speed>0.9</speed>
<temp>0.00</temp>
<bpm>0</bpm>
<rpm>0.00</rpm>
</extensions>
</trkpt>
<trkpt lat="64.056549072" lon="-19.242527008">
<ele>594.328125</ele>
<time>2012-07-22T00:26:14Z</time>
<speed>1.330000</speed>
<extensions>
<speed>1.3</speed>
<temp>0.00</temp>
<bpm>0</bpm>
<rpm>0.00</rpm>
</extensions>
</trkpt>
<trkpt lat="64.056571960" lon="-19.242603302">
<ele>594.453125</ele>
<time>2012-07-22T00:26:19Z</time>
<speed>0.730000</speed>
<extensions>
<speed>0.7</speed>
<temp>0.00</temp>
<bpm>0</bpm>
<rpm>0.00</rpm>
</extensions>
</trkpt>
<trkpt lat="64.056594849" lon="-19.242673874">
<ele>595.140625</ele>
<time>2012-07-22T00:26:24Z</time>
<speed>1.100000</speed>
<extensions>
<speed>1.1</speed>
<temp>0.00</temp>
<bpm>0</bpm>
<rpm>0.00</rpm>
</extensions>
</trkpt>
<trkpt lat="64.056640625" lon="-19.242763519">
<ele>596.859375</ele>
<time>2012-07-22T00:26:29Z</time>
<speed>1.250000</speed>
<extensions>
<speed>1.3</speed>
<temp>0.00</temp>
<bpm>0</bpm>
<rpm>0.00</rpm>
</extensions>
</trkpt>
<trkpt lat="64.056663513" lon="-19.242811203">
<ele>598.015625</ele>
<time>2012-07-22T00:26:34Z</time>
<speed>0.110000</speed>
<extensions>
<speed>0.1</speed>
<temp>0.00</temp>
<bpm>0</bpm>
<rpm>0.00</rpm>
</extensions>
</trkpt>
<trkpt lat="64.056655884" lon="-19.242809296">
<ele>600.125000</ele>
<time>2012-07-22T00:26:39Z</time>
<speed>0.100000</speed>
<extensions>
<speed>0.1</speed>
<temp>0.00</temp>
<bpm>0</bpm>
<rpm>0.00</rpm>
</extensions>
</trkpt>
<trkpt lat="64.056655884" lon="-19.242809296">
<ele>600.015625</ele>
<time>2012-07-22T00:26:44Z</time>
<speed>0.030000</speed>
<extensions>
<speed>0.0</speed>
<temp>0.00</temp>
<bpm>0</bpm>
<rpm>0.00</rpm>
</extensions>
</trkpt>
<trkpt lat="64.056655884" lon="-19.242807388">
<ele>600.031250</ele>
<time>2012-07-22T00:26:49Z</time>
<speed>0.010000</speed>
<extensions>
<speed>0.0</speed>
<temp>0.00</temp>
<bpm>0</bpm>
<rpm>0.00</rpm>
</extensions>
</trkpt>
<trkpt lat="64.056655884" lon="-19.242807388">
<ele>600.078125</ele>
<time>2012-07-22T00:26:54Z</time>
<speed>0.020000</speed>
<extensions>
<speed>0.0</speed>
<temp>0.00</temp>
<bpm>0</bpm>
<rpm>0.00</rpm>
</extensions>
</trkpt>
<trkpt lat="64.056655884" lon="-19.242803574">
<ele>600.062500</ele>
<time>2012-07-22T00:26:59Z</time>
<speed>0.120000</speed>
<extensions>
<speed>0.1</speed>
<temp>0.00</temp>
<bpm>0</bpm>
<rpm>0.00</rpm>
</extensions>
</trkpt>
<trkpt lat="64.056655884" lon="-19.242797852">
<ele>600.031250</ele>
<time>2012-07-22T00:27:04Z</time>
<speed>0.130000</speed>
<extensions>
<speed>0.1</speed>
<temp>0.00</temp>
<bpm>0</bpm>
<rpm>0.00</rpm>
</extensions>
</trkpt>
<trkpt lat="64.056663513" lon="-19.242858887">
<ele>597.359375</ele>
<time>2012-07-22T00:27:09Z</time>
<speed>0.040000</speed>
<extensions>
<speed>0.0</speed>
<temp>0.00</temp>
<bpm>0</bpm>
<rpm>0.00</rpm>
</extensions>
</trkpt>
<trkpt lat="64.056663513" lon="-19.242868423">
<ele>596.843750</ele>
<time>2012-07-22T00:27:14Z</time>
<speed>0.010000</speed>
<extensions>
<speed>0.0</speed>
<temp>0.00</temp>
<bpm>0</bpm>
<rpm>0.00</rpm>
</extensions>
</trkpt>
<trkpt lat="64.056655884" lon="-19.242868423">
<ele>596.843750</ele>
<time>2012-07-22T00:27:19Z</time>
<speed>0.010000</speed>
<extensions>
<speed>0.0</speed>
<temp>0.00</temp>
<bpm>0</bpm>
<rpm>0.00</rpm>
</extensions>
</trkpt>
<trkpt lat="64.056663513" lon="-19.242868423">
<ele>596.843750</ele>
<time>2012-07-22T00:27:24Z</time>
<speed>0.010000</speed>
<extensions>
<speed>0.0</speed>
<temp>0.00</temp>
<bpm>0</bpm>
<rpm>0.00</rpm>
</extensions>
</trkpt>
<trkpt lat="64.056663513" lon="-19.242866516">
<ele>596.843750</ele>
<time>2012-07-22T00:27:29Z</time>
<speed>0.950000</speed>
<extensions>
<speed>1.0</speed>
<temp>0.00</temp>
<bpm>0</bpm>
<rpm>0.00</rpm>
</extensions>
</trkpt>
<trkpt lat="64.056709290" lon="-19.242935181">
<ele>596.843750</ele>
<time>2012-07-22T00:27:34Z</time>
<speed>1.120000</speed>
<extensions>
<speed>1.1</speed>
<temp>0.00</temp>
<bpm>0</bpm>
<rpm>0.00</rpm>
</extensions>
</trkpt>
<trkpt lat="64.056755066" lon="-19.243047714">
<ele>596.687500</ele>
<time>2012-07-22T00:27:39Z</time>
<speed>1.180000</speed>
<extensions>
<speed>1.2</speed>
<temp>0.00</temp>
<bpm>0</bpm>
<rpm>0.00</rpm>
</extensions>
</trkpt>
<trkpt lat="64.056793213" lon="-19.243169785">
<ele>597.140625</ele>
<time>2012-07-22T00:27:44Z</time>
<speed>1.390000</speed>
<extensions>
<speed>1.4</speed>
<temp>0.00</temp>
<bpm>0</bpm>
<rpm>0.00</rpm>
</extensions>
</trkpt>
<trkpt lat="64.056838989" lon="-19.243267059">
<ele>597.984375</ele>
<time>2012-07-22T00:27:49Z</time>
<speed>1.420000</speed>
<extensions>
<speed>1.4</speed>
<temp>0.00</temp>
<bpm>0</bpm>
<rpm>0.00</rpm>
</extensions>
</trkpt>
<trkpt lat="64.056892395" lon="-19.243392944">
<ele>598.812500</ele>
<time>2012-07-22T00:27:54Z</time>
<speed>1.630000</speed>
<extensions>
<speed>1.6</speed>
<temp>0.00</temp>
<bpm>0</bpm>
<rpm>0.00</rpm>
</extensions>
</trkpt>
<trkpt lat="64.056915283" lon="-19.243524551">
<ele>599.171875</ele>
<time>2012-07-22T00:27:59Z</time>
<speed>1.300000</speed>
<extensions>
<speed>1.3</speed>
<temp>0.00</temp>
<bpm>0</bpm>
<rpm>0.00</rpm>
</extensions>
</trkpt>
<trkpt lat="64.056938171" lon="-19.243623734">
<ele>599.015625</ele>
<time>2012-07-22T00:28:04Z</time>
<speed>1.440000</speed>
<extensions>
<speed>1.4</speed>
<temp>0.00</temp>
<bpm>0</bpm>
<rpm>0.00</rpm>
</extensions>
</trkpt>
<trkpt lat="64.056976318" lon="-19.243719101">
<ele>598.343750</ele>
<time>2012-07-22T00:28:09Z</time>
<speed>1.570000</speed>
<extensions>
<speed>1.6</speed>
<temp>0.00</temp>
<bpm>0</bpm>
<rpm>0.00</rpm>
</extensions>
</trkpt>
<trkpt lat="64.057037354" lon="-19.243824005">
<ele>598.937500</ele>
<time>2012-07-22T00:28:14Z</time>
<speed>1.590000</speed>
<extensions>
<speed>1.6</speed>
<temp>0.00</temp>
<bpm>0</bpm>
<rpm>0.00</rpm>
</extensions>
</trkpt>
<trkpt lat="64.057090759" lon="-19.243865967">
<ele>598.375000</ele>
<time>2012-07-22T00:28:19Z</time>
<speed>1.140000</speed>
<extensions>
<speed>1.1</speed>
<temp>0.00</temp>
<bpm>0</bpm>
<rpm>0.00</rpm>
</extensions>
</trkpt>
<trkpt lat="64.057113647" lon="-19.243896484">
<ele>598.546875</ele>
<time>2012-07-22T00:28:24Z</time>
<speed>0.150000</speed>
<extensions>
<speed>0.2</speed>
<temp>0.00</temp>
<bpm>0</bpm>
<rpm>0.00</rpm>
</extensions>
</trkpt>
<trkpt lat="64.057113647" lon="-19.243898392">
<ele>599.906250</ele>
<time>2012-07-22T00:28:29Z</time>
<speed>0.220000</speed>
<extensions>
<speed>0.2</speed>
<temp>0.00</temp>
<bpm>0</bpm>
<rpm>0.00</rpm>
</extensions>
</trkpt>
<trkpt lat="64.057113647" lon="-19.243915558">
<ele>601.343750</ele>
<time>2012-07-22T00:28:34Z</time>
<speed>0.010000</speed>
<extensions>
<speed>0.0</speed>
<temp>0.00</temp>
<bpm>0</bpm>
<rpm>0.00</rpm>
</extensions>
</trkpt>
<trkpt lat="64.057098389" lon="-19.243911743">
<ele>601.843750</ele>
<time>2012-07-22T00:28:39Z</time>
<speed>0.260000</speed>
<extensions>
<speed>0.3</speed>
<temp>0.00</temp>
<bpm>0</bpm>
<rpm>0.00</rpm>
</extensions>
</trkpt>
<trkpt lat="64.057113647" lon="-19.243919373">
<ele>602.921875</ele>
<time>2012-07-22T00:28:44Z</time>
<speed>0.220000</speed>
<extensions>
<speed>0.2</speed>
<temp>0.00</temp>
<bpm>0</bpm>
<rpm>0.00</rpm>
</extensions>
</trkpt>
<trkpt lat="64.057144165" lon="-19.243869781">
<ele>603.625000</ele>
<time>2012-07-22T00:28:49Z</time>
<speed>1.470000</speed>
<extensions>
<speed>1.5</speed>
<temp>0.00</temp>
<bpm>0</bpm>
<rpm>0.00</rpm>
</extensions>
</trkpt>
<trkpt lat="64.057167053" lon="-19.243858337">
<ele>603.656250</ele>
<time>2012-07-22T00:28:54Z</time>
<speed>0.560000</speed>
<extensions>
<speed>0.6</speed>
<temp>0.00</temp>
<bpm>0</bpm>
<rpm>0.00</rpm>
</extensions>
</trkpt>
<trkpt lat="64.057182312" lon="-19.243877411">
<ele>604.125000</ele>
<time>2012-07-22T00:28:59Z</time>
<speed>0.430000</speed>
<extensions>
<speed>0.4</speed>
<temp>0.00</temp>
<bpm>0</bpm>
<rpm>0.00</rpm>
</extensions>
</trkpt>
<trkpt lat="64.057197571" lon="-19.243883133">
<ele>604.250000</ele>
<time>2012-07-22T00:29:04Z</time>
<speed>0.350000</speed>
<extensions>
<speed>0.3</speed>
<temp>0.00</temp>
<bpm>0</bpm>
<rpm>0.00</rpm>
</extensions>
</trkpt>
<trkpt lat="64.057212830" lon="-19.243875504">
<ele>604.531250</ele>
<time>2012-07-22T00:29:09Z</time>
<speed>0.330000</speed>
<extensions>
<speed>0.3</speed>
<temp>0.00</temp>
<bpm>0</bpm>
<rpm>0.00</rpm>
</extensions>
</trkpt>
<trkpt lat="64.057235718" lon="-19.243854523">
<ele>604.750000</ele>
<time>2012-07-22T00:29:14Z</time>
<speed>0.330000</speed>
<extensions>
<speed>0.3</speed>
<temp>0.00</temp>
<bpm>0</bpm>
<rpm>0.00</rpm>
</extensions>
</trkpt>
<trkpt lat="64.057235718" lon="-19.243854523">
<ele>605.000000</ele>
<time>2012-07-22T00:29:19Z</time>
<speed>0.250000</speed>
<extensions>
<speed>0.2</speed>
<temp>0.00</temp>
<bpm>0</bpm>
<rpm>0.00</rpm>
</extensions>
</trkpt>
<trkpt lat="64.057235718" lon="-19.243848801">
<ele>605.171875</ele>
<time>2012-07-22T00:29:24Z</time>
<speed>0.190000</speed>
<extensions>
<speed>0.2</speed>
<temp>0.00</temp>
<bpm>0</bpm>
<rpm>0.00</rpm>
</extensions>
</trkpt>
<trkpt lat="64.057235718" lon="-19.243852615">
<ele>605.328125</ele>
<time>2012-07-22T00:29:29Z</time>
<speed>0.110000</speed>
<extensions>
<speed>0.1</speed>
<temp>0.00</temp>
<bpm>0</bpm>
<rpm>0.00</rpm>
</extensions>
</trkpt>
<trkpt lat="64.057220459" lon="-19.243862152">
<ele>605.484375</ele>
<time>2012-07-22T00:29:34Z</time>
<speed>0.060000</speed>
<extensions>
<speed>0.1</speed>
<temp>0.00</temp>
<bpm>0</bpm>
<rpm>0.00</rpm>
</extensions>
</trkpt>
<trkpt lat="64.057220459" lon="-19.243867874">
<ele>605.718750</ele>
<time>2012-07-22T00:29:39Z</time>
<speed>0.130000</speed>
<extensions>
<speed>0.1</speed>
<temp>0.00</temp>
<bpm>0</bpm>
<rpm>0.00</rpm>
</extensions>
</trkpt>
<trkpt lat="64.057205200" lon="-19.243875504">
<ele>605.750000</ele>
<time>2012-07-22T00:29:44Z</time>
<speed>0.150000</speed>
<extensions>
<speed>0.2</speed>
<temp>0.00</temp>
<bpm>0</bpm>
<rpm>0.00</rpm>
</extensions>
</trkpt>
<trkpt lat="64.057189941" lon="-19.243890762">
<ele>605.687500</ele>
<time>2012-07-22T00:29:49Z</time>
<speed>0.110000</speed>
<extensions>
<speed>0.1</speed>
<temp>0.00</temp>
<bpm>0</bpm>
<rpm>0.00</rpm>
</extensions>
</trkpt>
<trkpt lat="64.057189941" lon="-19.243898392">
<ele>605.968750</ele>
<time>2012-07-22T00:29:54Z</time>
<speed>0.060000</speed>
<extensions>
<speed>0.1</speed>
<temp>0.00</temp>
<bpm>0</bpm>
<rpm>0.00</rpm>
</extensions>
</trkpt>
<trkpt lat="64.057174683" lon="-19.243936539">
<ele>606.281250</ele>
<time>2012-07-22T00:29:59Z</time>
<speed>0.150000</speed>
<extensions>
<speed>0.2</speed>
<temp>0.00</temp>
<bpm>0</bpm>
<rpm>0.00</rpm>
</extensions>
</trkpt>
<trkpt lat="64.057182312" lon="-19.243955612">
<ele>606.328125</ele>
<time>2012-07-22T00:30:04Z</time>
<speed>0.110000</speed>
<extensions>
<speed>0.1</speed>
<temp>0.00</temp>
<bpm>0</bpm>
<rpm>0.00</rpm>
</extensions>
</trkpt>
<trkpt lat="64.057174683" lon="-19.243957520">
<ele>606.437500</ele>
<time>2012-07-22T00:30:09Z</time>
<speed>0.060000</speed>
<extensions>
<speed>0.1</speed>
<temp>0.00</temp>
<bpm>0</bpm>
<rpm>0.00</rpm>
</extensions>
</trkpt>
<trkpt lat="64.057182312" lon="-19.243927002">
<ele>606.453125</ele>
<time>2012-07-22T00:30:14Z</time>
<speed>0.050000</speed>
<extensions>
<speed>0.1</speed>
<temp>0.00</temp>
<bpm>0</bpm>
<rpm>0.00</rpm>
</extensions>
</trkpt>
<trkpt lat="64.057159424" lon="-19.243919373">
<ele>606.265625</ele>
<time>2012-07-22T00:30:19Z</time>
<speed>0.110000</speed>
<extensions>
<speed>0.1</speed>
<temp>0.00</temp>
<bpm>0</bpm>
<rpm>0.00</rpm>
</extensions>
</trkpt>
<trkpt lat="64.057151794" lon="-19.243934631">
<ele>606.125000</ele>
<time>2012-07-22T00:30:24Z</time>
<speed>0.120000</speed>
<extensions>
<speed>0.1</speed>
<temp>0.00</temp>
<bpm>0</bpm>
<rpm>0.00</rpm>
</extensions>
</trkpt>
<trkpt lat="64.057144165" lon="-19.243961334">
<ele>606.046875</ele>
<time>2012-07-22T00:30:29Z</time>
<speed>0.120000</speed>
<extensions>
<speed>0.1</speed>
<temp>0.00</temp>
<bpm>0</bpm>
<rpm>0.00</rpm>
</extensions>
</trkpt>
<trkpt lat="64.057151794" lon="-19.243944168">
<ele>606.078125</ele>
<time>2012-07-22T00:30:34Z</time>
<speed>0.080000</speed>
<extensions>
<speed>0.1</speed>
<temp>0.00</temp>
<bpm>0</bpm>
<rpm>0.00</rpm>
</extensions>
</trkpt>
<trkpt lat="64.057167053" lon="-19.243883133">
<ele>606.703125</ele>
<time>2012-07-22T00:30:39Z</time>
<speed>0.160000</speed>
<extensions>
<speed>0.2</speed>
<temp>0.00</temp>
<bpm>0</bpm>
<rpm>0.00</rpm>
</extensions>
</trkpt>
<trkpt lat="64.057167053" lon="-19.243864059">
<ele>606.890625</ele>
<time>2012-07-22T00:30:44Z</time>
<speed>0.210000</speed>
<extensions>
<speed>0.2</speed>
<temp>0.00</temp>
<bpm>0</bpm>
<rpm>0.00</rpm>
</extensions>
</trkpt>
<trkpt lat="64.057174683" lon="-19.243843079">
<ele>607.078125</ele>
<time>2012-07-22T00:30:49Z</time>
<speed>0.250000</speed>
<extensions>
<speed>0.2</speed>
<temp>0.00</temp>
<bpm>0</bpm>
<rpm>0.00</rpm>
</extensions>
</trkpt>
<trkpt lat="64.057182312" lon="-19.243824005">
<ele>607.265625</ele>
<time>2012-07-22T00:30:54Z</time>
<speed>0.290000</speed>
<extensions>
<speed>0.3</speed>
<temp>0.00</temp>
<bpm>0</bpm>
<rpm>0.00</rpm>
</extensions>
</trkpt>
<trkpt lat="64.057189941" lon="-19.243810654">
<ele>607.453125</ele>
<time>2012-07-22T00:30:59Z</time>
<speed>0.250000</speed>
<extensions>
<speed>0.2</speed>
<temp>0.00</temp>
<bpm>0</bpm>
<rpm>0.00</rpm>
</extensions>
</trkpt>
<trkpt lat="64.057205200" lon="-19.243801117">
<ele>607.625000</ele>
<time>2012-07-22T00:31:04Z</time>
<speed>0.200000</speed>
<extensions>
<speed>0.2</speed>
<temp>0.00</temp>
<bpm>0</bpm>
<rpm>0.00</rpm>
</extensions>
</trkpt>
<trkpt lat="64.057212830" lon="-19.243785858">
<ele>607.796875</ele>
<time>2012-07-22T00:31:09Z</time>
<speed>0.140000</speed>
<extensions>
<speed>0.1</speed>
<temp>0.00</temp>
<bpm>0</bpm>
<rpm>0.00</rpm>
</extensions>
</trkpt>
<trkpt lat="64.057212830" lon="-19.243782043">
<ele>607.984375</ele>
<time>2012-07-22T00:31:14Z</time>
<speed>0.070000</speed>
<extensions>
<speed>0.1</speed>
<temp>0.00</temp>
<bpm>0</bpm>
<rpm>0.00</rpm>
</extensions>
</trkpt>
<trkpt lat="64.057220459" lon="-19.243782043">
<ele>608.156250</ele>
<time>2012-07-22T00:31:19Z</time>
<speed>0.060000</speed>
<extensions>
<speed>0.1</speed>
<temp>0.00</temp>
<bpm>0</bpm>
<rpm>0.00</rpm>
</extensions>
</trkpt>
<trkpt lat="64.057220459" lon="-19.243787766">
<ele>608.328125</ele>
<time>2012-07-22T00:31:24Z</time>
<speed>0.030000</speed>
<extensions>
<speed>0.0</speed>
<temp>0.00</temp>
<bpm>0</bpm>
<rpm>0.00</rpm>
</extensions>
</trkpt>
<trkpt lat="64.057212830" lon="-19.243789673">
<ele>608.437500</ele>
<time>2012-07-22T00:31:29Z</time>
<speed>0.020000</speed>
<extensions>
<speed>0.0</speed>
<temp>0.00</temp>
<bpm>0</bpm>
<rpm>0.00</rpm>
</extensions>
</trkpt>
<trkpt lat="64.057212830" lon="-19.243789673">
<ele>608.421875</ele>
<time>2012-07-22T00:31:34Z</time>
<speed>0.010000</speed>
<extensions>
<speed>0.0</speed>
<temp>0.00</temp>
<bpm>0</bpm>
<rpm>0.00</rpm>
</extensions>
</trkpt>
<trkpt lat="64.057212830" lon="-19.243789673">
<ele>608.437500</ele>
<time>2012-07-22T00:31:39Z</time>
<speed>0.030000</speed>
<extensions>
<speed>0.0</speed>
<temp>0.00</temp>
<bpm>0</bpm>
<rpm>0.00</rpm>
</extensions>
</trkpt>
<trkpt lat="64.057212830" lon="-19.243791580">
<ele>608.421875</ele>
<time>2012-07-22T00:31:44Z</time>
<speed>0.050000</speed>
<extensions>
<speed>0.1</speed>
<temp>0.00</temp>
<bpm>0</bpm>
<rpm>0.00</rpm>
</extensions>
</trkpt>
<trkpt lat="64.057212830" lon="-19.243793488">
<ele>608.406250</ele>
<time>2012-07-22T00:31:49Z</time>
<extensions>
<speed>0.0</speed>
<temp>0.00</temp>
<bpm>0</bpm>
<rpm>0.00</rpm>
</extensions>
</trkpt>
<trkpt lat="64.057212830" lon="-19.243793488">
<ele>608.406250</ele>
<time>2012-07-22T00:31:54Z</time>
<speed>0.010000</speed>
<extensions>
<speed>0.0</speed>
<temp>0.00</temp>
<bpm>0</bpm>
<rpm>0.00</rpm>
</extensions>
</trkpt>
<trkpt lat="64.057212830" lon="-19.243793488">
<ele>608.390625</ele>
<time>2012-07-22T00:31:59Z</time>
<speed>0.030000</speed>
<extensions>
<speed>0.0</speed>
<temp>0.00</temp>
<bpm>0</bpm>
<rpm>0.00</rpm>
</extensions>
</trkpt>
<trkpt lat="64.057212830" lon="-19.243793488">
<ele>608.343750</ele>
<time>2012-07-22T00:32:04Z</time>
<speed>0.010000</speed>
<extensions>
<speed>0.0</speed>
<temp>0.00</temp>
<bpm>0</bpm>
<rpm>0.00</rpm>
</extensions>
</trkpt>
<trkpt lat="64.057212830" lon="-19.243795395">
<ele>608.343750</ele>
<time>2012-07-22T00:32:09Z</time>
<speed>0.040000</speed>
<extensions>
<speed>0.0</speed>
<temp>0.00</temp>
<bpm>0</bpm>
<rpm>0.00</rpm>
</extensions>
</trkpt>
<trkpt lat="64.057212830" lon="-19.243795395">
<ele>608.343750</ele>
<time>2012-07-22T00:32:14Z</time>
<speed>0.030000</speed>
<extensions>
<speed>0.0</speed>
<temp>0.00</temp>
<bpm>0</bpm>
<rpm>0.00</rpm>
</extensions>
</trkpt>
<trkpt lat="64.057212830" lon="-19.243797302">
<ele>608.312500</ele>
<time>2012-07-22T00:32:19Z</time>
<speed>0.030000</speed>
<extensions>
<speed>0.0</speed>
<temp>0.00</temp>
<bpm>0</bpm>
<rpm>0.00</rpm>
</extensions>
</trkpt>
<trkpt lat="64.057212830" lon="-19.243797302">
<ele>608.265625</ele>
<time>2012-07-22T00:32:24Z</time>
<speed>0.030000</speed>
<extensions>
<speed>0.0</speed>
<temp>0.00</temp>
<bpm>0</bpm>
<rpm>0.00</rpm>
</extensions>
</trkpt>
<trkpt lat="64.057212830" lon="-19.243797302">
<ele>608.187500</ele>
<time>2012-07-22T00:32:29Z</time>
<speed>0.010000</speed>
<extensions>
<speed>0.0</speed>
<temp>0.00</temp>
<bpm>0</bpm>
<rpm>0.00</rpm>
</extensions>
</trkpt>
<trkpt lat="64.057212830" lon="-19.243799210">
<ele>608.156250</ele>
<time>2012-07-22T00:32:34Z</time>
<speed>0.060000</speed>
<extensions>
<speed>0.1</speed>
<temp>0.00</temp>
<bpm>0</bpm>
<rpm>0.00</rpm>
</extensions>
</trkpt>
<trkpt lat="64.057212830" lon="-19.243799210">
<ele>608.109375</ele>
<time>2012-07-22T00:32:39Z</time>
<speed>0.040000</speed>
<extensions>
<speed>0.0</speed>
<temp>0.00</temp>
<bpm>0</bpm>
<rpm>0.00</rpm>
</extensions>
</trkpt>
<trkpt lat="64.057205200" lon="-19.243801117">
<ele>608.078125</ele>
<time>2012-07-22T00:32:44Z</time>
<speed>0.040000</speed>
<extensions>
<speed>0.0</speed>
<temp>0.00</temp>
<bpm>0</bpm>
<rpm>0.00</rpm>
</extensions>
</trkpt>
<trkpt lat="64.057205200" lon="-19.243801117">
<ele>608.046875</ele>
<time>2012-07-22T00:32:49Z</time>
<speed>0.020000</speed>
<extensions>
<speed>0.0</speed>
<temp>0.00</temp>
<bpm>0</bpm>
<rpm>0.00</rpm>
</extensions>
</trkpt>
<trkpt lat="64.057205200" lon="-19.243801117">
<ele>608.015625</ele>
<time>2012-07-22T00:32:54Z</time>
<speed>0.020000</speed>
<extensions>
<speed>0.0</speed>
<temp>0.00</temp>
<bpm>0</bpm>
<rpm>0.00</rpm>
</extensions>
</trkpt>
<trkpt lat="64.057205200" lon="-19.243801117">
<ele>607.984375</ele>
<time>2012-07-22T00:32:59Z</time>
<speed>0.020000</speed>
<extensions>
<speed>0.0</speed>
<temp>0.00</temp>
<bpm>0</bpm>
<rpm>0.00</rpm>
</extensions>
</trkpt>
<trkpt lat="64.057205200" lon="-19.243803024">
<ele>607.968750</ele>
<time>2012-07-22T00:33:04Z</time>
<speed>0.020000</speed>
<extensions>
<speed>0.0</speed>
<temp>0.00</temp>
<bpm>0</bpm>
<rpm>0.00</rpm>
</extensions>
</trkpt>
<trkpt lat="64.057205200" lon="-19.243803024">
<ele>607.937500</ele>
<time>2012-07-22T00:33:09Z</time>
<extensions>
<speed>0.0</speed>
<temp>0.00</temp>
<bpm>0</bpm>
<rpm>0.00</rpm>
</extensions>
</trkpt>
<trkpt lat="64.057205200" lon="-19.243803024">
<ele>607.937500</ele>
<time>2012-07-22T00:33:14Z</time>
<extensions>
<speed>0.0</speed>
<temp>0.00</temp>
<bpm>0</bpm>
<rpm>0.00</rpm>
</extensions>
</trkpt>
<trkpt lat="64.057205200" lon="-19.243803024">
<ele>607.921875</ele>
<time>2012-07-22T00:33:19Z</time>
<extensions>
<speed>0.0</speed>
<temp>0.00</temp>
<bpm>0</bpm>
<rpm>0.00</rpm>
</extensions>
</trkpt>
<trkpt lat="64.057205200" lon="-19.243803024">
<ele>607.921875</ele>
<time>2012-07-22T00:33:24Z</time>
<speed>0.040000</speed>
<extensions>
<speed>0.0</speed>
<temp>0.00</temp>
<bpm>0</bpm>
<rpm>0.00</rpm>
</extensions>
</trkpt>
<trkpt lat="64.057205200" lon="-19.243803024">
<ele>607.921875</ele>
<time>2012-07-22T00:33:29Z</time>
<speed>0.010000</speed>
<extensions>
<speed>0.0</speed>
<temp>0.00</temp>
<bpm>0</bpm>
<rpm>0.00</rpm>
</extensions>
</trkpt>
<trkpt lat="64.057205200" lon="-19.243803024">
<ele>607.906250</ele>
<time>2012-07-22T00:33:34Z</time>
<speed>0.010000</speed>
<extensions>
<speed>0.0</speed>
<temp>0.00</temp>
<bpm>0</bpm>
<rpm>0.00</rpm>
</extensions>
</trkpt>
<trkpt lat="64.057205200" lon="-19.243803024">
<ele>607.875000</ele>
<time>2012-07-22T00:33:39Z</time>
<speed>0.020000</speed>
<extensions>
<speed>0.0</speed>
<temp>0.00</temp>
<bpm>0</bpm>
<rpm>0.00</rpm>
</extensions>
</trkpt>
<trkpt lat="64.057205200" lon="-19.243803024">
<ele>607.859375</ele>
<time>2012-07-22T00:33:44Z</time>
<extensions>
<speed>0.0</speed>
<temp>0.00</temp>
<bpm>0</bpm>
<rpm>0.00</rpm>
</extensions>
</trkpt>
<trkpt lat="64.057205200" lon="-19.243803024">
<ele>607.875000</ele>
<time>2012-07-22T00:33:49Z</time>
<extensions>
<speed>0.0</speed>
<temp>0.00</temp>
<bpm>0</bpm>
<rpm>0.00</rpm>
</extensions>
</trkpt>
<trkpt lat="64.057205200" lon="-19.243803024">
<ele>607.843750</ele>
<time>2012-07-22T00:33:54Z</time>
<speed>0.010000</speed>
<extensions>
<speed>0.0</speed>
<temp>0.00</temp>
<bpm>0</bpm>
<rpm>0.00</rpm>
</extensions>
</trkpt>
<trkpt lat="64.057205200" lon="-19.243803024">
<ele>607.812500</ele>
<time>2012-07-22T00:33:59Z</time>
<speed>0.010000</speed>
<extensions>
<speed>0.0</speed>
<temp>0.00</temp>
<bpm>0</bpm>
<rpm>0.00</rpm>
</extensions>
</trkpt>
<trkpt lat="64.057205200" lon="-19.243803024">
<ele>607.796875</ele>
<time>2012-07-22T00:34:04Z</time>
<speed>0.010000</speed>
<extensions>
<speed>0.0</speed>
<temp>0.00</temp>
<bpm>0</bpm>
<rpm>0.00</rpm>
</extensions>
</trkpt>
<trkpt lat="64.057205200" lon="-19.243803024">
<ele>607.796875</ele>
<time>2012-07-22T00:34:09Z</time>
<extensions>
<speed>0.0</speed>
<temp>0.00</temp>
<bpm>0</bpm>
<rpm>0.00</rpm>
</extensions>
</trkpt>
<trkpt lat="64.057205200" lon="-19.243803024">
<ele>607.796875</ele>
<time>2012-07-22T00:34:14Z</time>
<speed>0.010000</speed>
<extensions>
<speed>0.0</speed>
<temp>0.00</temp>
<bpm>0</bpm>
<rpm>0.00</rpm>
</extensions>
</trkpt>
<trkpt lat="64.057205200" lon="-19.243803024">
<ele>607.781250</ele>
<time>2012-07-22T00:34:19Z</time>
<extensions>
<speed>0.0</speed>
<temp>0.00</temp>
<bpm>0</bpm>
<rpm>0.00</rpm>
</extensions>
</trkpt>
<trkpt lat="64.057205200" lon="-19.243801117">
<ele>607.750000</ele>
<time>2012-07-22T00:34:24Z</time>
<extensions>
<speed>0.0</speed>
<temp>0.00</temp>
<bpm>0</bpm>
<rpm>0.00</rpm>
</extensions>
</trkpt>
<trkpt lat="64.057205200" lon="-19.243801117">
<ele>607.734375</ele>
<time>2012-07-22T00:34:29Z</time>
<extensions>
<speed>0.0</speed>
<temp>0.00</temp>
<bpm>0</bpm>
<rpm>0.00</rpm>
</extensions>
</trkpt>
<trkpt lat="64.057205200" lon="-19.243801117">
<ele>607.734375</ele>
<time>2012-07-22T00:34:34Z</time>
<speed>0.010000</speed>
<extensions>
<speed>0.0</speed>
<temp>0.00</temp>
<bpm>0</bpm>
<rpm>0.00</rpm>
</extensions>
</trkpt>
<trkpt lat="64.057205200" lon="-19.243801117">
<ele>607.734375</ele>
<time>2012-07-22T00:34:39Z</time>
<extensions>
<speed>0.0</speed>
<temp>0.00</temp>
<bpm>0</bpm>
<rpm>0.00</rpm>
</extensions>
</trkpt>
<trkpt lat="64.057205200" lon="-19.243801117">
<ele>607.734375</ele>
<time>2012-07-22T00:34:44Z</time>
<extensions>
<speed>0.0</speed>
<temp>0.00</temp>
<bpm>0</bpm>
<rpm>0.00</rpm>
</extensions>
</trkpt>
<trkpt lat="64.057205200" lon="-19.243801117">
<ele>607.734375</ele>
<time>2012-07-22T00:34:49Z</time>
<extensions>
<speed>0.0</speed>
<temp>0.00</temp>
<bpm>0</bpm>
<rpm>0.00</rpm>
</extensions>
</trkpt>
<trkpt lat="64.057205200" lon="-19.243803024">
<ele>607.750000</ele>
<time>2012-07-22T00:34:54Z</time>
<speed>0.010000</speed>
<extensions>
<speed>0.0</speed>
<temp>0.00</temp>
<bpm>0</bpm>
<rpm>0.00</rpm>
</extensions>
</trkpt>
<trkpt lat="64.057205200" lon="-19.243803024">
<ele>607.734375</ele>
<time>2012-07-22T00:34:59Z</time>
<extensions>
<speed>0.0</speed>
<temp>0.00</temp>
<bpm>0</bpm>
<rpm>0.00</rpm>
</extensions>
</trkpt>
<trkpt lat="64.057205200" lon="-19.243803024">
<ele>607.734375</ele>
<time>2012-07-22T00:35:04Z</time>
<extensions>
<speed>0.0</speed>
<temp>0.00</temp>
<bpm>0</bpm>
<rpm>0.00</rpm>
</extensions>
</trkpt>
<trkpt lat="64.057205200" lon="-19.243803024">
<ele>607.734375</ele>
<time>2012-07-22T00:35:09Z</time>
<speed>0.010000</speed>
<extensions>
<speed>0.0</speed>
<temp>0.00</temp>
<bpm>0</bpm>
<rpm>0.00</rpm>
</extensions>
</trkpt>
<trkpt lat="64.057205200" lon="-19.243804932">
<ele>607.765625</ele>
<time>2012-07-22T00:35:14Z</time>
<speed>0.020000</speed>
<extensions>
<speed>0.0</speed>
<temp>0.00</temp>
<bpm>0</bpm>
<rpm>0.00</rpm>
</extensions>
</trkpt>
<trkpt lat="64.057205200" lon="-19.243804932">
<ele>607.750000</ele>
<time>2012-07-22T00:35:19Z</time>
<speed>0.010000</speed>
<extensions>
<speed>0.0</speed>
<temp>0.00</temp>
<bpm>0</bpm>
<rpm>0.00</rpm>
</extensions>
</trkpt>
<trkpt lat="64.057205200" lon="-19.243804932">
<ele>607.750000</ele>
<time>2012-07-22T00:35:24Z</time>
<speed>0.010000</speed>
<extensions>
<speed>0.0</speed>
<temp>0.00</temp>
<bpm>0</bpm>
<rpm>0.00</rpm>
</extensions>
</trkpt>
<trkpt lat="64.057205200" lon="-19.243804932">
<ele>607.750000</ele>
<time>2012-07-22T00:35:29Z</time>
<extensions>
<speed>0.0</speed>
<temp>0.00</temp>
<bpm>0</bpm>
<rpm>0.00</rpm>
</extensions>
</trkpt>
<trkpt lat="64.057205200" lon="-19.243804932">
<ele>607.750000</ele>
<time>2012-07-22T00:35:34Z</time>
<speed>0.010000</speed>
<extensions>
<speed>0.0</speed>
<temp>0.00</temp>
<bpm>0</bpm>
<rpm>0.00</rpm>
</extensions>
</trkpt>
<trkpt lat="64.057205200" lon="-19.243804932">
<ele>607.750000</ele>
<time>2012-07-22T00:35:39Z</time>
<speed>0.010000</speed>
<extensions>
<speed>0.0</speed>
<temp>0.00</temp>
<bpm>0</bpm>
<rpm>0.00</rpm>
</extensions>
</trkpt>
<trkpt lat="64.057205200" lon="-19.243804932">
<ele>607.765625</ele>
<time>2012-07-22T00:35:44Z</time>
<speed>0.020000</speed>
<extensions>
<speed>0.0</speed>
<temp>0.00</temp>
<bpm>0</bpm>
<rpm>0.00</rpm>
</extensions>
</trkpt>
<trkpt lat="64.057205200" lon="-19.243806839">
<ele>607.781250</ele>
<time>2012-07-22T00:35:49Z</time>
<extensions>
<speed>0.0</speed>
<temp>0.00</temp>
<bpm>0</bpm>
<rpm>0.00</rpm>
</extensions>
</trkpt>
<trkpt lat="64.057205200" lon="-19.243806839">
<ele>607.812500</ele>
<time>2012-07-22T00:35:54Z</time>
<speed>0.020000</speed>
<extensions>
<speed>0.0</speed>
<temp>0.00</temp>
<bpm>0</bpm>
<rpm>0.00</rpm>
</extensions>
</trkpt>
<trkpt lat="64.057205200" lon="-19.243808746">
<ele>607.828125</ele>
<time>2012-07-22T00:35:59Z</time>
<speed>0.010000</speed>
<extensions>
<speed>0.0</speed>
<temp>0.00</temp>
<bpm>0</bpm>
<rpm>0.00</rpm>
</extensions>
</trkpt>
<trkpt lat="64.057205200" lon="-19.243808746">
<ele>607.843750</ele>
<time>2012-07-22T00:36:04Z</time>
<speed>0.010000</speed>
<extensions>
<speed>0.0</speed>
<temp>0.00</temp>
<bpm>0</bpm>
<rpm>0.00</rpm>
</extensions>
</trkpt>
<trkpt lat="64.057205200" lon="-19.243808746">
<ele>607.875000</ele>
<time>2012-07-22T00:36:09Z</time>
<speed>0.020000</speed>
<extensions>
<speed>0.0</speed>
<temp>0.00</temp>
<bpm>0</bpm>
<rpm>0.00</rpm>
</extensions>
</trkpt>
<trkpt lat="64.057205200" lon="-19.243810654">
<ele>607.875000</ele>
<time>2012-07-22T00:36:14Z</time>
<speed>0.010000</speed>
<extensions>
<speed>0.0</speed>
<temp>0.00</temp>
<bpm>0</bpm>
<rpm>0.00</rpm>
</extensions>
</trkpt>
<trkpt lat="64.057197571" lon="-19.243810654">
<ele>607.875000</ele>
<time>2012-07-22T00:36:19Z</time>
<speed>0.030000</speed>
<extensions>
<speed>0.0</speed>
<temp>0.00</temp>
<bpm>0</bpm>
<rpm>0.00</rpm>
</extensions>
</trkpt>
<trkpt lat="64.057197571" lon="-19.243810654">
<ele>607.875000</ele>
<time>2012-07-22T00:36:24Z</time>
<extensions>
<speed>0.0</speed>
<temp>0.00</temp>
<bpm>0</bpm>
<rpm>0.00</rpm>
</extensions>
</trkpt>
<trkpt lat="64.057197571" lon="-19.243810654">
<ele>607.859375</ele>
<time>2012-07-22T00:36:29Z</time>
<extensions>
<speed>0.0</speed>
<temp>0.00</temp>
<bpm>0</bpm>
<rpm>0.00</rpm>
</extensions>
</trkpt>
<trkpt lat="64.057197571" lon="-19.243808746">
<ele>607.812500</ele>
<time>2012-07-22T00:36:34Z</time>
<speed>0.020000</speed>
<extensions>
<speed>0.0</speed>
<temp>0.00</temp>
<bpm>0</bpm>
<rpm>0.00</rpm>
</extensions>
</trkpt>
<trkpt lat="64.057197571" lon="-19.243808746">
<ele>607.781250</ele>
<time>2012-07-22T00:36:39Z</time>
<extensions>
<speed>0.0</speed>
<temp>0.00</temp>
<bpm>0</bpm>
<rpm>0.00</rpm>
</extensions>
</trkpt>
<trkpt lat="64.057197571" lon="-19.243808746">
<ele>607.750000</ele>
<time>2012-07-22T00:36:44Z</time>
<speed>0.020000</speed>
<extensions>
<speed>0.0</speed>
<temp>0.00</temp>
<bpm>0</bpm>
<rpm>0.00</rpm>
</extensions>
</trkpt>
<trkpt lat="64.057197571" lon="-19.243806839">
<ele>607.734375</ele>
<time>2012-07-22T00:36:49Z</time>
<speed>0.010000</speed>
<extensions>
<speed>0.0</speed>
<temp>0.00</temp>
<bpm>0</bpm>
<rpm>0.00</rpm>
</extensions>
</trkpt>
<trkpt lat="64.057197571" lon="-19.243806839">
<ele>607.750000</ele>
<time>2012-07-22T00:36:54Z</time>
<extensions>
<speed>0.0</speed>
<temp>0.00</temp>
<bpm>0</bpm>
<rpm>0.00</rpm>
</extensions>
</trkpt>
<trkpt lat="64.057197571" lon="-19.243806839">
<ele>607.718750</ele>
<time>2012-07-22T00:36:59Z</time>
<speed>0.020000</speed>
<extensions>
<speed>0.0</speed>
<temp>0.00</temp>
<bpm>0</bpm>
<rpm>0.00</rpm>
</extensions>
</trkpt>
<trkpt lat="64.057197571" lon="-19.243804932">
<ele>607.703125</ele>
<time>2012-07-22T00:37:04Z</time>
<speed>0.020000</speed>
<extensions>
<speed>0.0</speed>
<temp>0.00</temp>
<bpm>0</bpm>
<rpm>0.00</rpm>
</extensions>
</trkpt>
<trkpt lat="64.057197571" lon="-19.243804932">
<ele>607.687500</ele>
<time>2012-07-22T00:37:09Z</time>
<extensions>
<speed>0.0</speed>
<temp>0.00</temp>
<bpm>0</bpm>
<rpm>0.00</rpm>
</extensions>
</trkpt>
<trkpt lat="64.057197571" lon="-19.243804932">
<ele>607.671875</ele>
<time>2012-07-22T00:37:14Z</time>
<speed>0.030000</speed>
<extensions>
<speed>0.0</speed>
<temp>0.00</temp>
<bpm>0</bpm>
<rpm>0.00</rpm>
</extensions>
</trkpt>
<trkpt lat="64.057197571" lon="-19.243803024">
<ele>607.625000</ele>
<time>2012-07-22T00:37:19Z</time>
<speed>0.020000</speed>
<extensions>
<speed>0.0</speed>
<temp>0.00</temp>
<bpm>0</bpm>
<rpm>0.00</rpm>
</extensions>
</trkpt>
<trkpt lat="64.057197571" lon="-19.243803024">
<ele>607.593750</ele>
<time>2012-07-22T00:37:24Z</time>
<speed>0.020000</speed>
<extensions>
<speed>0.0</speed>
<temp>0.00</temp>
<bpm>0</bpm>
<rpm>0.00</rpm>
</extensions>
</trkpt>
<trkpt lat="64.057197571" lon="-19.243803024">
<ele>607.546875</ele>
<time>2012-07-22T00:37:29Z</time>
<speed>0.010000</speed>
<extensions>
<speed>0.0</speed>
<temp>0.00</temp>
<bpm>0</bpm>
<rpm>0.00</rpm>
</extensions>
</trkpt>
<trkpt lat="64.057197571" lon="-19.243803024">
<ele>607.531250</ele>
<time>2012-07-22T00:37:34Z</time>
<speed>0.030000</speed>
<extensions>
<speed>0.0</speed>
<temp>0.00</temp>
<bpm>0</bpm>
<rpm>0.00</rpm>
</extensions>
</trkpt>
<trkpt lat="64.057197571" lon="-19.243803024">
<ele>607.484375</ele>
<time>2012-07-22T00:37:39Z</time>
<speed>0.020000</speed>
<extensions>
<speed>0.0</speed>
<temp>0.00</temp>
<bpm>0</bpm>
<rpm>0.00</rpm>
</extensions>
</trkpt>
<trkpt lat="64.057197571" lon="-19.243803024">
<ele>607.437500</ele>
<time>2012-07-22T00:37:44Z</time>
<extensions>
<speed>0.0</speed>
<temp>0.00</temp>
<bpm>0</bpm>
<rpm>0.00</rpm>
</extensions>
</trkpt>
<trkpt lat="64.057197571" lon="-19.243803024">
<ele>607.390625</ele>
<time>2012-07-22T00:37:49Z</time>
<extensions>
<speed>0.0</speed>
<temp>0.00</temp>
<bpm>0</bpm>
<rpm>0.00</rpm>
</extensions>
</trkpt>
<trkpt lat="64.057197571" lon="-19.243803024">
<ele>607.375000</ele>
<time>2012-07-22T00:37:54Z</time>
<extensions>
<speed>0.0</speed>
<temp>0.00</temp>
<bpm>0</bpm>
<rpm>0.00</rpm>
</extensions>
</trkpt>
<trkpt lat="64.057197571" lon="-19.243803024">
<ele>607.312500</ele>
<time>2012-07-22T00:37:59Z</time>
<speed>0.020000</speed>
<extensions>
<speed>0.0</speed>
<temp>0.00</temp>
<bpm>0</bpm>
<rpm>0.00</rpm>
</extensions>
</trkpt>
<trkpt lat="64.057197571" lon="-19.243803024">
<ele>607.281250</ele>
<time>2012-07-22T00:38:04Z</time>
<speed>0.010000</speed>
<extensions>
<speed>0.0</speed>
<temp>0.00</temp>
<bpm>0</bpm>
<rpm>0.00</rpm>
</extensions>
</trkpt>
<trkpt lat="64.057197571" lon="-19.243803024">
<ele>607.234375</ele>
<time>2012-07-22T00:38:09Z</time>
<speed>0.020000</speed>
<extensions>
<speed>0.0</speed>
<temp>0.00</temp>
<bpm>0</bpm>
<rpm>0.00</rpm>
</extensions>
</trkpt>
<trkpt lat="64.057197571" lon="-19.243803024">
<ele>607.187500</ele>
<time>2012-07-22T00:38:14Z</time>
<speed>0.040000</speed>
<extensions>
<speed>0.0</speed>
<temp>0.00</temp>
<bpm>0</bpm>
<rpm>0.00</rpm>
</extensions>
</trkpt>
<trkpt lat="64.057197571" lon="-19.243803024">
<ele>607.187500</ele>
<time>2012-07-22T00:38:19Z</time>
<extensions>
<speed>0.0</speed>
<temp>0.00</temp>
<bpm>0</bpm>
<rpm>0.00</rpm>
</extensions>
</trkpt>
<trkpt lat="64.057197571" lon="-19.243804932">
<ele>607.171875</ele>
<time>2012-07-22T00:38:24Z</time>
<speed>0.050000</speed>
<extensions>
<speed>0.1</speed>
<temp>0.00</temp>
<bpm>0</bpm>
<rpm>0.00</rpm>
</extensions>
</trkpt>
<trkpt lat="64.057197571" lon="-19.243804932">
<ele>607.125000</ele>
<time>2012-07-22T00:38:29Z</time>
<speed>0.020000</speed>
<extensions>
<speed>0.0</speed>
<temp>0.00</temp>
<bpm>0</bpm>
<rpm>0.00</rpm>
</extensions>
</trkpt>
<trkpt lat="64.057197571" lon="-19.243806839">
<ele>607.093750</ele>
<time>2012-07-22T00:38:34Z</time>
<extensions>
<speed>0.0</speed>
<temp>0.00</temp>
<bpm>0</bpm>
<rpm>0.00</rpm>
</extensions>
</trkpt>
<trkpt lat="64.057197571" lon="-19.243806839">
<ele>607.078125</ele>
<time>2012-07-22T00:38:39Z</time>
<speed>0.010000</speed>
<extensions>
<speed>0.0</speed>
<temp>0.00</temp>
<bpm>0</bpm>
<rpm>0.00</rpm>
</extensions>
</trkpt>
<trkpt lat="64.057197571" lon="-19.243806839">
<ele>607.031250</ele>
<time>2012-07-22T00:38:44Z</time>
<speed>0.020000</speed>
<extensions>
<speed>0.0</speed>
<temp>0.00</temp>
<bpm>0</bpm>
<rpm>0.00</rpm>
</extensions>
</trkpt>
<trkpt lat="64.057189941" lon="-19.243814468">
<ele>606.656250</ele>
<time>2012-07-22T00:38:49Z</time>
<speed>0.020000</speed>
<extensions>
<speed>0.0</speed>
<temp>0.00</temp>
<bpm>0</bpm>
<rpm>0.00</rpm>
</extensions>
</trkpt>
<trkpt lat="64.057189941" lon="-19.243841171">
<ele>605.421875</ele>
<time>2012-07-22T00:38:54Z</time>
<speed>0.060000</speed>
<extensions>
<speed>0.1</speed>
<temp>0.00</temp>
<bpm>0</bpm>
<rpm>0.00</rpm>
</extensions>
</trkpt>
<trkpt lat="64.057189941" lon="-19.243831635">
<ele>604.796875</ele>
<time>2012-07-22T00:38:59Z</time>
<speed>0.030000</speed>
<extensions>
<speed>0.0</speed>
<temp>0.00</temp>
<bpm>0</bpm>
<rpm>0.00</rpm>
</extensions>
</trkpt>
<trkpt lat="64.057205200" lon="-19.243814468">
<ele>604.281250</ele>
<time>2012-07-22T00:39:04Z</time>
<speed>0.070000</speed>
<extensions>
<speed>0.1</speed>
<temp>0.00</temp>
<bpm>0</bpm>
<rpm>0.00</rpm>
</extensions>
</trkpt>
<trkpt lat="64.057205200" lon="-19.243818283">
<ele>604.343750</ele>
<time>2012-07-22T00:39:09Z</time>
<speed>0.020000</speed>
<extensions>
<speed>0.0</speed>
<temp>0.00</temp>
<bpm>0</bpm>
<rpm>0.00</rpm>
</extensions>
</trkpt>
<trkpt lat="64.057197571" lon="-19.243824005">
<ele>604.218750</ele>
<time>2012-07-22T00:39:14Z</time>
<speed>0.040000</speed>
<extensions>
<speed>0.0</speed>
<temp>0.00</temp>
<bpm>0</bpm>
<rpm>0.00</rpm>
</extensions>
</trkpt>
<trkpt lat="64.057197571" lon="-19.243831635">
<ele>603.953125</ele>
<time>2012-07-22T00:39:19Z</time>
<speed>0.060000</speed>
<extensions>
<speed>0.1</speed>
<temp>0.00</temp>
<bpm>0</bpm>
<rpm>0.00</rpm>
</extensions>
</trkpt>
<trkpt lat="64.057174683" lon="-19.243837357">
<ele>603.468750</ele>
<time>2012-07-22T00:39:24Z</time>
<speed>0.160000</speed>
<extensions>
<speed>0.2</speed>
<temp>0.00</temp>
<bpm>0</bpm>
<rpm>0.00</rpm>
</extensions>
</trkpt>
<trkpt lat="64.057151794" lon="-19.243835449">
<ele>605.390625</ele>
<time>2012-07-22T00:39:29Z</time>
<speed>0.200000</speed>
<extensions>
<speed>0.2</speed>
<temp>0.00</temp>
<bpm>0</bpm>
<rpm>0.00</rpm>
</extensions>
</trkpt>
<trkpt lat="64.057128906" lon="-19.243822098">
<ele>608.031250</ele>
<time>2012-07-22T00:39:34Z</time>
<speed>0.260000</speed>
<extensions>
<speed>0.3</speed>
<temp>0.00</temp>
<bpm>0</bpm>
<rpm>0.00</rpm>
</extensions>
</trkpt>
<trkpt lat="64.057113647" lon="-19.243812561">
<ele>608.796875</ele>
<time>2012-07-22T00:39:39Z</time>
<speed>0.200000</speed>
<extensions>
<speed>0.2</speed>
<temp>0.00</temp>
<bpm>0</bpm>
<rpm>0.00</rpm>
</extensions>
</trkpt>
<trkpt lat="64.057106018" lon="-19.243761063">
<ele>609.640625</ele>
<time>2012-07-22T00:39:44Z</time>
<speed>0.230000</speed>
<extensions>
<speed>0.2</speed>
<temp>0.00</temp>
<bpm>0</bpm>
<rpm>0.00</rpm>
</extensions>
</trkpt>
<trkpt lat="64.057106018" lon="-19.243757248">
<ele>610.859375</ele>
<time>2012-07-22T00:39:49Z</time>
<speed>0.110000</speed>
<extensions>
<speed>0.1</speed>
<temp>0.00</temp>
<bpm>0</bpm>
<rpm>0.00</rpm>
</extensions>
</trkpt>
<trkpt lat="64.057106018" lon="-19.243772507">
<ele>612.453125</ele>
<time>2012-07-22T00:39:54Z</time>
<speed>0.080000</speed>
<extensions>
<speed>0.1</speed>
<temp>0.00</temp>
<bpm>0</bpm>
<rpm>0.00</rpm>
</extensions>
</trkpt>
<trkpt lat="64.057121277" lon="-19.243759155">
<ele>613.453125</ele>
<time>2012-07-22T00:39:59Z</time>
<speed>0.030000</speed>
<extensions>
<speed>0.0</speed>
<temp>0.00</temp>
<bpm>0</bpm>
<rpm>0.00</rpm>
</extensions>
</trkpt>
<trkpt lat="64.057121277" lon="-19.243734360">
<ele>615.218750</ele>
<time>2012-07-22T00:40:04Z</time>
<speed>0.070000</speed>
<extensions>
<speed>0.1</speed>
<temp>0.00</temp>
<bpm>0</bpm>
<rpm>0.00</rpm>
</extensions>
</trkpt>
<trkpt lat="64.057121277" lon="-19.243726730">
<ele>615.687500</ele>
<time>2012-07-22T00:40:09Z</time>
<speed>0.080000</speed>
<extensions>
<speed>0.1</speed>
<temp>0.00</temp>
<bpm>0</bpm>
<rpm>0.00</rpm>
</extensions>
</trkpt>
<trkpt lat="64.057128906" lon="-19.243719101">
<ele>616.156250</ele>
<time>2012-07-22T00:40:14Z</time>
<speed>0.060000</speed>
<extensions>
<speed>0.1</speed>
<temp>0.00</temp>
<bpm>0</bpm>
<rpm>0.00</rpm>
</extensions>
</trkpt>
<trkpt lat="64.057128906" lon="-19.243717194">
<ele>616.625000</ele>
<time>2012-07-22T00:40:19Z</time>
<speed>0.060000</speed>
<extensions>
<speed>0.1</speed>
<temp>0.00</temp>
<bpm>0</bpm>
<rpm>0.00</rpm>
</extensions>
</trkpt>
<trkpt lat="64.057128906" lon="-19.243715286">
<ele>617.140625</ele>
<time>2012-07-22T00:40:24Z</time>
<speed>0.030000</speed>
<extensions>
<speed>0.0</speed>
<temp>0.00</temp>
<bpm>0</bpm>
<rpm>0.00</rpm>
</extensions>
</trkpt>
<trkpt lat="64.057128906" lon="-19.243715286">
<ele>617.625000</ele>
<time>2012-07-22T00:40:29Z</time>
<speed>0.020000</speed>
<extensions>
<speed>0.0</speed>
<temp>0.00</temp>
<bpm>0</bpm>
<rpm>0.00</rpm>
</extensions>
</trkpt>
<trkpt lat="64.057128906" lon="-19.243717194">
<ele>618.031250</ele>
<time>2012-07-22T00:40:34Z</time>
<speed>0.020000</speed>
<extensions>
<speed>0.0</speed>
<temp>0.00</temp>
<bpm>0</bpm>
<rpm>0.00</rpm>
</extensions>
</trkpt>
<trkpt lat="64.057128906" lon="-19.243721008">
<ele>618.406250</ele>
<time>2012-07-22T00:40:39Z</time>
<speed>0.020000</speed>
<extensions>
<speed>0.0</speed>
<temp>0.00</temp>
<bpm>0</bpm>
<rpm>0.00</rpm>
</extensions>
</trkpt>
<trkpt lat="64.057128906" lon="-19.243721008">
<ele>618.406250</ele>
<time>2012-07-22T00:40:44Z</time>
<speed>0.020000</speed>
<extensions>
<speed>0.0</speed>
<temp>0.00</temp>
<bpm>0</bpm>
<rpm>0.00</rpm>
</extensions>
</trkpt>
<trkpt lat="64.057128906" lon="-19.243721008">
<ele>618.390625</ele>
<time>2012-07-22T00:40:49Z</time>
<speed>0.020000</speed>
<extensions>
<speed>0.0</speed>
<temp>0.00</temp>
<bpm>0</bpm>
<rpm>0.00</rpm>
</extensions>
</trkpt>
<trkpt lat="64.057128906" lon="-19.243721008">
<ele>618.390625</ele>
<time>2012-07-22T00:40:54Z</time>
<speed>0.010000</speed>
<extensions>
<speed>0.0</speed>
<temp>0.00</temp>
<bpm>0</bpm>
<rpm>0.00</rpm>
</extensions>
</trkpt>
<trkpt lat="64.057128906" lon="-19.243721008">
<ele>618.406250</ele>
<time>2012-07-22T00:40:59Z</time>
<speed>0.010000</speed>
<extensions>
<speed>0.0</speed>
<temp>0.00</temp>
<bpm>0</bpm>
<rpm>0.00</rpm>
</extensions>
</trkpt>
<trkpt lat="64.057128906" lon="-19.243721008">
<ele>618.406250</ele>
<time>2012-07-22T00:41:04Z</time>
<extensions>
<speed>0.0</speed>
<temp>0.00</temp>
<bpm>0</bpm>
<rpm>0.00</rpm>
</extensions>
</trkpt>
<trkpt lat="64.057128906" lon="-19.243719101">
<ele>618.406250</ele>
<time>2012-07-22T00:41:09Z</time>
<speed>0.020000</speed>
<extensions>
<speed>0.0</speed>
<temp>0.00</temp>
<bpm>0</bpm>
<rpm>0.00</rpm>
</extensions>
</trkpt>
<trkpt lat="64.057128906" lon="-19.243721008">
<ele>618.406250</ele>
<time>2012-07-22T00:41:14Z</time>
<speed>0.030000</speed>
<extensions>
<speed>0.0</speed>
<temp>0.00</temp>
<bpm>0</bpm>
<rpm>0.00</rpm>
</extensions>
</trkpt>
<trkpt lat="64.057128906" lon="-19.243721008">
<ele>618.437500</ele>
<time>2012-07-22T00:41:19Z</time>
<extensions>
<speed>0.0</speed>
<temp>0.00</temp>
<bpm>0</bpm>
<rpm>0.00</rpm>
</extensions>
</trkpt>
<trkpt lat="64.057128906" lon="-19.243721008">
<ele>618.484375</ele>
<time>2012-07-22T00:41:24Z</time>
<extensions>
<speed>0.0</speed>
<temp>0.00</temp>
<bpm>0</bpm>
<rpm>0.00</rpm>
</extensions>
</trkpt>
<trkpt lat="64.057128906" lon="-19.243722916">
<ele>618.468750</ele>
<time>2012-07-22T00:41:29Z</time>
<speed>0.030000</speed>
<extensions>
<speed>0.0</speed>
<temp>0.00</temp>
<bpm>0</bpm>
<rpm>0.00</rpm>
</extensions>
</trkpt>
<trkpt lat="64.057128906" lon="-19.243722916">
<ele>618.468750</ele>
<time>2012-07-22T00:41:34Z</time>
<speed>0.010000</speed>
<extensions>
<speed>0.0</speed>
<temp>0.00</temp>
<bpm>0</bpm>
<rpm>0.00</rpm>
</extensions>
</trkpt>
<trkpt lat="64.057128906" lon="-19.243722916">
<ele>618.437500</ele>
<time>2012-07-22T00:41:39Z</time>
<speed>0.010000</speed>
<extensions>
<speed>0.0</speed>
<temp>0.00</temp>
<bpm>0</bpm>
<rpm>0.00</rpm>
</extensions>
</trkpt>
<trkpt lat="64.057128906" lon="-19.243724823">
<ele>618.453125</ele>
<time>2012-07-22T00:41:44Z</time>
<speed>0.040000</speed>
<extensions>
<speed>0.0</speed>
<temp>0.00</temp>
<bpm>0</bpm>
<rpm>0.00</rpm>
</extensions>
</trkpt>
<trkpt lat="64.057128906" lon="-19.243724823">
<ele>618.453125</ele>
<time>2012-07-22T00:41:49Z</time>
<speed>0.010000</speed>
<extensions>
<speed>0.0</speed>
<temp>0.00</temp>
<bpm>0</bpm>
<rpm>0.00</rpm>
</extensions>
</trkpt>
<trkpt lat="64.057128906" lon="-19.243724823">
<ele>618.453125</ele>
<time>2012-07-22T00:41:54Z</time>
<speed>0.020000</speed>
<extensions>
<speed>0.0</speed>
<temp>0.00</temp>
<bpm>0</bpm>
<rpm>0.00</rpm>
</extensions>
</trkpt>
<trkpt lat="64.057128906" lon="-19.243726730">
<ele>618.437500</ele>
<time>2012-07-22T00:41:59Z</time>
<extensions>
<speed>0.0</speed>
<temp>0.00</temp>
<bpm>0</bpm>
<rpm>0.00</rpm>
</extensions>
</trkpt>
<trkpt lat="64.057128906" lon="-19.243726730">
<ele>618.421875</ele>
<time>2012-07-22T00:42:04Z</time>
<speed>0.020000</speed>
<extensions>
<speed>0.0</speed>
<temp>0.00</temp>
<bpm>0</bpm>
<rpm>0.00</rpm>
</extensions>
</trkpt>
<trkpt lat="64.057128906" lon="-19.243726730">
<ele>618.406250</ele>
<time>2012-07-22T00:42:09Z</time>
<extensions>
<speed>0.0</speed>
<temp>0.00</temp>
<bpm>0</bpm>
<rpm>0.00</rpm>
</extensions>
</trkpt>
<trkpt lat="64.057128906" lon="-19.243726730">
<ele>618.390625</ele>
<time>2012-07-22T00:42:14Z</time>
<speed>0.020000</speed>
<extensions>
<speed>0.0</speed>
<temp>0.00</temp>
<bpm>0</bpm>
<rpm>0.00</rpm>
</extensions>
</trkpt>
<trkpt lat="64.057128906" lon="-19.243726730">
<ele>618.359375</ele>
<time>2012-07-22T00:42:19Z</time>
<speed>0.010000</speed>
<extensions>
<speed>0.0</speed>
<temp>0.00</temp>
<bpm>0</bpm>
<rpm>0.00</rpm>
</extensions>
</trkpt>
<trkpt lat="64.057128906" lon="-19.243726730">
<ele>618.343750</ele>
<time>2012-07-22T00:42:24Z</time>
<speed>0.020000</speed>
<extensions>
<speed>0.0</speed>
<temp>0.00</temp>
<bpm>0</bpm>
<rpm>0.00</rpm>
</extensions>
</trkpt>
<trkpt lat="64.057128906" lon="-19.243726730">
<ele>618.343750</ele>
<time>2012-07-22T00:42:29Z</time>
<speed>0.010000</speed>
<extensions>
<speed>0.0</speed>
<temp>0.00</temp>
<bpm>0</bpm>
<rpm>0.00</rpm>
</extensions>
</trkpt>
<trkpt lat="64.057128906" lon="-19.243728638">
<ele>618.328125</ele>
<time>2012-07-22T00:42:34Z</time>
<speed>0.010000</speed>
<extensions>
<speed>0.0</speed>
<temp>0.00</temp>
<bpm>0</bpm>
<rpm>0.00</rpm>
</extensions>
</trkpt>
<trkpt lat="64.057128906" lon="-19.243728638">
<ele>618.312500</ele>
<time>2012-07-22T00:42:39Z</time>
<speed>0.010000</speed>
<extensions>
<speed>0.0</speed>
<temp>0.00</temp>
<bpm>0</bpm>
<rpm>0.00</rpm>
</extensions>
</trkpt>
<trkpt lat="64.057128906" lon="-19.243730545">
<ele>618.281250</ele>
<time>2012-07-22T00:42:44Z</time>
<extensions>
<speed>0.0</speed>
<temp>0.00</temp>
<bpm>0</bpm>
<rpm>0.00</rpm>
</extensions>
</trkpt>
<trkpt lat="64.057128906" lon="-19.243730545">
<ele>618.296875</ele>
<time>2012-07-22T00:42:49Z</time>
<speed>0.010000</speed>
<extensions>
<speed>0.0</speed>
<temp>0.00</temp>
<bpm>0</bpm>
<rpm>0.00</rpm>
</extensions>
</trkpt>
<trkpt lat="64.057128906" lon="-19.243730545">
<ele>618.281250</ele>
<time>2012-07-22T00:42:54Z</time>
<speed>0.020000</speed>
<extensions>
<speed>0.0</speed>
<temp>0.00</temp>
<bpm>0</bpm>
<rpm>0.00</rpm>
</extensions>
</trkpt>
<trkpt lat="64.057128906" lon="-19.243732452">
<ele>618.265625</ele>
<time>2012-07-22T00:42:59Z</time>
<speed>0.010000</speed>
<extensions>
<speed>0.0</speed>
<temp>0.00</temp>
<bpm>0</bpm>
<rpm>0.00</rpm>
</extensions>
</trkpt>
<trkpt lat="64.057128906" lon="-19.243730545">
<ele>618.281250</ele>
<time>2012-07-22T00:43:04Z</time>
<speed>0.010000</speed>
<extensions>
<speed>0.0</speed>
<temp>0.00</temp>
<bpm>0</bpm>
<rpm>0.00</rpm>
</extensions>
</trkpt>
<trkpt lat="64.057128906" lon="-19.243732452">
<ele>618.265625</ele>
<time>2012-07-22T00:43:09Z</time>
<speed>0.010000</speed>
<extensions>
<speed>0.0</speed>
<temp>0.00</temp>
<bpm>0</bpm>
<rpm>0.00</rpm>
</extensions>
</trkpt>
<trkpt lat="64.057128906" lon="-19.243732452">
<ele>618.234375</ele>
<time>2012-07-22T00:43:14Z</time>
<extensions>
<speed>0.0</speed>
<temp>0.00</temp>
<bpm>0</bpm>
<rpm>0.00</rpm>
</extensions>
</trkpt>
<trkpt lat="64.057128906" lon="-19.243732452">
<ele>618.234375</ele>
<time>2012-07-22T00:43:19Z</time>
<extensions>
<speed>0.0</speed>
<temp>0.00</temp>
<bpm>0</bpm>
<rpm>0.00</rpm>
</extensions>
</trkpt>
<trkpt lat="64.057128906" lon="-19.243732452">
<ele>618.218750</ele>
<time>2012-07-22T00:43:24Z</time>
<speed>0.010000</speed>
<extensions>
<speed>0.0</speed>
<temp>0.00</temp>
<bpm>0</bpm>
<rpm>0.00</rpm>
</extensions>
</trkpt>
<trkpt lat="64.057128906" lon="-19.243732452">
<ele>618.187500</ele>
<time>2012-07-22T00:43:29Z</time>
<speed>0.030000</speed>
<extensions>
<speed>0.0</speed>
<temp>0.00</temp>
<bpm>0</bpm>
<rpm>0.00</rpm>
</extensions>
</trkpt>
<trkpt lat="64.057128906" lon="-19.243734360">
<ele>618.156250</ele>
<time>2012-07-22T00:43:34Z</time>
<speed>0.020000</speed>
<extensions>
<speed>0.0</speed>
<temp>0.00</temp>
<bpm>0</bpm>
<rpm>0.00</rpm>
</extensions>
</trkpt>
<trkpt lat="64.057128906" lon="-19.243734360">
<ele>618.140625</ele>
<time>2012-07-22T00:43:39Z</time>
<speed>0.030000</speed>
<extensions>
<speed>0.0</speed>
<temp>0.00</temp>
<bpm>0</bpm>
<rpm>0.00</rpm>
</extensions>
</trkpt>
<trkpt lat="64.057128906" lon="-19.243732452">
<ele>618.000000</ele>
<time>2012-07-22T00:43:44Z</time>
<speed>0.030000</speed>
<extensions>
<speed>0.0</speed>
<temp>0.00</temp>
<bpm>0</bpm>
<rpm>0.00</rpm>
</extensions>
</trkpt>
<trkpt lat="64.057128906" lon="-19.243732452">
<ele>617.906250</ele>
<time>2012-07-22T00:43:49Z</time>
<speed>0.030000</speed>
<extensions>
<speed>0.0</speed>
<temp>0.00</temp>
<bpm>0</bpm>
<rpm>0.00</rpm>
</extensions>
</trkpt>
<trkpt lat="64.057128906" lon="-19.243730545">
<ele>617.812500</ele>
<time>2012-07-22T00:43:54Z</time>
<speed>0.030000</speed>
<extensions>
<speed>0.0</speed>
<temp>0.00</temp>
<bpm>0</bpm>
<rpm>0.00</rpm>
</extensions>
</trkpt>
<trkpt lat="64.057128906" lon="-19.243728638">
<ele>617.734375</ele>
<time>2012-07-22T00:43:59Z</time>
<speed>0.040000</speed>
<extensions>
<speed>0.0</speed>
<temp>0.00</temp>
<bpm>0</bpm>
<rpm>0.00</rpm>
</extensions>
</trkpt>
<trkpt lat="64.057128906" lon="-19.243728638">
<ele>617.656250</ele>
<time>2012-07-22T00:44:04Z</time>
<speed>0.030000</speed>
<extensions>
<speed>0.0</speed>
<temp>0.00</temp>
<bpm>0</bpm>
<rpm>0.00</rpm>
</extensions>
</trkpt>
<trkpt lat="64.057128906" lon="-19.243728638">
<ele>617.609375</ele>
<time>2012-07-22T00:44:09Z</time>
<speed>0.020000</speed>
<extensions>
<speed>0.0</speed>
<temp>0.00</temp>
<bpm>0</bpm>
<rpm>0.00</rpm>
</extensions>
</trkpt>
<trkpt lat="64.057128906" lon="-19.243728638">
<ele>617.546875</ele>
<time>2012-07-22T00:44:14Z</time>
<speed>0.050000</speed>
<extensions>
<speed>0.1</speed>
<temp>0.00</temp>
<bpm>0</bpm>
<rpm>0.00</rpm>
</extensions>
</trkpt>
<trkpt lat="64.057128906" lon="-19.243726730">
<ele>617.546875</ele>
<time>2012-07-22T00:44:19Z</time>
<speed>0.030000</speed>
<extensions>
<speed>0.0</speed>
<temp>0.00</temp>
<bpm>0</bpm>
<rpm>0.00</rpm>
</extensions>
</trkpt>
<trkpt lat="64.057136536" lon="-19.243726730">
<ele>617.500000</ele>
<time>2012-07-22T00:44:24Z</time>
<speed>0.030000</speed>
<extensions>
<speed>0.0</speed>
<temp>0.00</temp>
<bpm>0</bpm>
<rpm>0.00</rpm>
</extensions>
</trkpt>
<trkpt lat="64.057136536" lon="-19.243726730">
<ele>617.453125</ele>
<time>2012-07-22T00:44:29Z</time>
<speed>0.030000</speed>
<extensions>
<speed>0.0</speed>
<temp>0.00</temp>
<bpm>0</bpm>
<rpm>0.00</rpm>
</extensions>
</trkpt>
<trkpt lat="64.057136536" lon="-19.243726730">
<ele>617.375000</ele>
<time>2012-07-22T00:44:34Z</time>
<speed>0.030000</speed>
<extensions>
<speed>0.0</speed>
<temp>0.00</temp>
<bpm>0</bpm>
<rpm>0.00</rpm>
</extensions>
</trkpt>
<trkpt lat="64.057136536" lon="-19.243726730">
<ele>617.328125</ele>
<time>2012-07-22T00:44:39Z</time>
<extensions>
<speed>0.0</speed>
<temp>0.00</temp>
<bpm>0</bpm>
<rpm>0.00</rpm>
</extensions>
</trkpt>
<trkpt lat="64.057136536" lon="-19.243726730">
<ele>617.281250</ele>
<time>2012-07-22T00:44:44Z</time>
<speed>0.020000</speed>
<extensions>
<speed>0.0</speed>
<temp>0.00</temp>
<bpm>0</bpm>
<rpm>0.00</rpm>
</extensions>
</trkpt>
<trkpt lat="64.057136536" lon="-19.243726730">
<ele>617.250000</ele>
<time>2012-07-22T00:44:49Z</time>
<speed>0.010000</speed>
<extensions>
<speed>0.0</speed>
<temp>0.00</temp>
<bpm>0</bpm>
<rpm>0.00</rpm>
</extensions>
</trkpt>
<trkpt lat="64.057136536" lon="-19.243726730">
<ele>617.218750</ele>
<time>2012-07-22T00:44:54Z</time>
<speed>0.020000</speed>
<extensions>
<speed>0.0</speed>
<temp>0.00</temp>
<bpm>0</bpm>
<rpm>0.00</rpm>
</extensions>
</trkpt>
<trkpt lat="64.057136536" lon="-19.243726730">
<ele>617.187500</ele>
<time>2012-07-22T00:44:59Z</time>
<speed>0.020000</speed>
<extensions>
<speed>0.0</speed>
<temp>0.00</temp>
<bpm>0</bpm>
<rpm>0.00</rpm>
</extensions>
</trkpt>
<trkpt lat="64.057136536" lon="-19.243728638">
<ele>617.156250</ele>
<time>2012-07-22T00:45:04Z</time>
<speed>0.010000</speed>
<extensions>
<speed>0.0</speed>
<temp>0.00</temp>
<bpm>0</bpm>
<rpm>0.00</rpm>
</extensions>
</trkpt>
<trkpt lat="64.057136536" lon="-19.243728638">
<ele>617.093750</ele>
<time>2012-07-22T00:45:09Z</time>
<speed>0.030000</speed>
<extensions>
<speed>0.0</speed>
<temp>0.00</temp>
<bpm>0</bpm>
<rpm>0.00</rpm>
</extensions>
</trkpt>
<trkpt lat="64.057136536" lon="-19.243728638">
<ele>617.062500</ele>
<time>2012-07-22T00:45:14Z</time>
<speed>0.030000</speed>
<extensions>
<speed>0.0</speed>
<temp>0.00</temp>
<bpm>0</bpm>
<rpm>0.00</rpm>
</extensions>
</trkpt>
<trkpt lat="64.057136536" lon="-19.243728638">
<ele>616.984375</ele>
<time>2012-07-22T00:45:19Z</time>
<speed>0.050000</speed>
<extensions>
<speed>0.1</speed>
<temp>0.00</temp>
<bpm>0</bpm>
<rpm>0.00</rpm>
</extensions>
</trkpt>
<trkpt lat="64.057136536" lon="-19.243728638">
<ele>616.921875</ele>
<time>2012-07-22T00:45:24Z</time>
<speed>0.030000</speed>
<extensions>
<speed>0.0</speed>
<temp>0.00</temp>
<bpm>0</bpm>
<rpm>0.00</rpm>
</extensions>
</trkpt>
<trkpt lat="64.057136536" lon="-19.243728638">
<ele>616.828125</ele>
<time>2012-07-22T00:45:29Z</time>
<speed>0.020000</speed>
<extensions>
<speed>0.0</speed>
<temp>0.00</temp>
<bpm>0</bpm>
<rpm>0.00</rpm>
</extensions>
</trkpt>
<trkpt lat="64.057136536" lon="-19.243728638">
<ele>616.750000</ele>
<time>2012-07-22T00:45:34Z</time>
<speed>0.030000</speed>
<extensions>
<speed>0.0</speed>
<temp>0.00</temp>
<bpm>0</bpm>
<rpm>0.00</rpm>
</extensions>
</trkpt>
<trkpt lat="64.057136536" lon="-19.243728638">
<ele>616.703125</ele>
<time>2012-07-22T00:45:39Z</time>
<extensions>
<speed>0.0</speed>
<temp>0.00</temp>
<bpm>0</bpm>
<rpm>0.00</rpm>
</extensions>
</trkpt>
<trkpt lat="64.057144165" lon="-19.243728638">
<ele>616.640625</ele>
<time>2012-07-22T00:45:44Z</time>
<speed>0.010000</speed>
<extensions>
<speed>0.0</speed>
<temp>0.00</temp>
<bpm>0</bpm>
<rpm>0.00</rpm>
</extensions>
</trkpt>
<trkpt lat="64.057144165" lon="-19.243728638">
<ele>616.578125</ele>
<time>2012-07-22T00:45:49Z</time>
<speed>0.030000</speed>
<extensions>
<speed>0.0</speed>
<temp>0.00</temp>
<bpm>0</bpm>
<rpm>0.00</rpm>
</extensions>
</trkpt>
<trkpt lat="64.057144165" lon="-19.243728638">
<ele>616.515625</ele>
<time>2012-07-22T00:45:54Z</time>
<speed>0.030000</speed>
<extensions>
<speed>0.0</speed>
<temp>0.00</temp>
<bpm>0</bpm>
<rpm>0.00</rpm>
</extensions>
</trkpt>
<trkpt lat="64.057144165" lon="-19.243728638">
<ele>616.437500</ele>
<time>2012-07-22T00:45:59Z</time>
<speed>0.020000</speed>
<extensions>
<speed>0.0</speed>
<temp>0.00</temp>
<bpm>0</bpm>
<rpm>0.00</rpm>
</extensions>
</trkpt>
<trkpt lat="64.057144165" lon="-19.243726730">
<ele>616.390625</ele>
<time>2012-07-22T00:46:04Z</time>
<speed>0.010000</speed>
<extensions>
<speed>0.0</speed>
<temp>0.00</temp>
<bpm>0</bpm>
<rpm>0.00</rpm>
</extensions>
</trkpt>
<trkpt lat="64.057144165" lon="-19.243726730">
<ele>616.328125</ele>
<time>2012-07-22T00:46:09Z</time>
<speed>0.010000</speed>
<extensions>
<speed>0.0</speed>
<temp>0.00</temp>
<bpm>0</bpm>
<rpm>0.00</rpm>
</extensions>
</trkpt>
<trkpt lat="64.057144165" lon="-19.243726730">
<ele>616.296875</ele>
<time>2012-07-22T00:46:14Z</time>
<speed>0.010000</speed>
<extensions>
<speed>0.0</speed>
<temp>0.00</temp>
<bpm>0</bpm>
<rpm>0.00</rpm>
</extensions>
</trkpt>
<trkpt lat="64.057144165" lon="-19.243726730">
<ele>616.250000</ele>
<time>2012-07-22T00:46:19Z</time>
<extensions>
<speed>0.0</speed>
<temp>0.00</temp>
<bpm>0</bpm>
<rpm>0.00</rpm>
</extensions>
</trkpt>
<trkpt lat="64.057144165" lon="-19.243726730">
<ele>616.218750</ele>
<time>2012-07-22T00:46:24Z</time>
<speed>0.030000</speed>
<extensions>
<speed>0.0</speed>
<temp>0.00</temp>
<bpm>0</bpm>
<rpm>0.00</rpm>
</extensions>
</trkpt>
<trkpt lat="64.057144165" lon="-19.243726730">
<ele>616.187500</ele>
<time>2012-07-22T00:46:29Z</time>
<speed>0.030000</speed>
<extensions>
<speed>0.0</speed>
<temp>0.00</temp>
<bpm>0</bpm>
<rpm>0.00</rpm>
</extensions>
</trkpt>
<trkpt lat="64.057144165" lon="-19.243726730">
<ele>616.125000</ele>
<time>2012-07-22T00:46:34Z</time>
<speed>0.010000</speed>
<extensions>
<speed>0.0</speed>
<temp>0.00</temp>
<bpm>0</bpm>
<rpm>0.00</rpm>
</extensions>
</trkpt>
<trkpt lat="64.057144165" lon="-19.243726730">
<ele>616.078125</ele>
<time>2012-07-22T00:46:39Z</time>
<speed>0.020000</speed>
<extensions>
<speed>0.0</speed>
<temp>0.00</temp>
<bpm>0</bpm>
<rpm>0.00</rpm>
</extensions>
</trkpt>
<trkpt lat="64.057144165" lon="-19.243726730">
<ele>616.062500</ele>
<time>2012-07-22T00:46:44Z</time>
<extensions>
<speed>0.0</speed>
<temp>0.00</temp>
<bpm>0</bpm>
<rpm>0.00</rpm>
</extensions>
</trkpt>
<trkpt lat="64.057144165" lon="-19.243726730">
<ele>616.046875</ele>
<time>2012-07-22T00:46:49Z</time>
<speed>0.010000</speed>
<extensions>
<speed>0.0</speed>
<temp>0.00</temp>
<bpm>0</bpm>
<rpm>0.00</rpm>
</extensions>
</trkpt>
<trkpt lat="64.057144165" lon="-19.243728638">
<ele>616.000000</ele>
<time>2012-07-22T00:46:54Z</time>
<speed>0.030000</speed>
<extensions>
<speed>0.0</speed>
<temp>0.00</temp>
<bpm>0</bpm>
<rpm>0.00</rpm>
</extensions>
</trkpt>
<trkpt lat="64.057144165" lon="-19.243732452">
<ele>615.890625</ele>
<time>2012-07-22T00:46:59Z</time>
<speed>0.070000</speed>
<extensions>
<speed>0.1</speed>
<temp>0.00</temp>
<bpm>0</bpm>
<rpm>0.00</rpm>
</extensions>
</trkpt>
<trkpt lat="64.057144165" lon="-19.243736267">
<ele>615.828125</ele>
<time>2012-07-22T00:47:04Z</time>
<speed>0.040000</speed>
<extensions>
<speed>0.0</speed>
<temp>0.00</temp>
<bpm>0</bpm>
<rpm>0.00</rpm>
</extensions>
</trkpt>
<trkpt lat="64.057151794" lon="-19.243738174">
<ele>615.828125</ele>
<time>2012-07-22T00:47:09Z</time>
<speed>0.220000</speed>
<extensions>
<speed>0.2</speed>
<temp>0.00</temp>
<bpm>0</bpm>
<rpm>0.00</rpm>
</extensions>
</trkpt>
<trkpt lat="64.057167053" lon="-19.243741989">
<ele>615.781250</ele>
<time>2012-07-22T00:47:14Z</time>
<speed>0.230000</speed>
<extensions>
<speed>0.2</speed>
<temp>0.00</temp>
<bpm>0</bpm>
<rpm>0.00</rpm>
</extensions>
</trkpt>
<trkpt lat="64.057174683" lon="-19.243745804">
<ele>615.625000</ele>
<time>2012-07-22T00:47:19Z</time>
<speed>0.220000</speed>
<extensions>
<speed>0.2</speed>
<temp>0.00</temp>
<bpm>0</bpm>
<rpm>0.00</rpm>
</extensions>
</trkpt>
<trkpt lat="64.057182312" lon="-19.243743896">
<ele>615.421875</ele>
<time>2012-07-22T00:47:24Z</time>
<speed>0.170000</speed>
<extensions>
<speed>0.2</speed>
<temp>0.00</temp>
<bpm>0</bpm>
<rpm>0.00</rpm>
</extensions>
</trkpt>
<trkpt lat="64.057189941" lon="-19.243732452">
<ele>615.218750</ele>
<time>2012-07-22T00:47:29Z</time>
<speed>0.310000</speed>
<extensions>
<speed>0.3</speed>
<temp>0.00</temp>
<bpm>0</bpm>
<rpm>0.00</rpm>
</extensions>
</trkpt>
<trkpt lat="64.057197571" lon="-19.243627548">
<ele>614.531250</ele>
<time>2012-07-22T00:47:34Z</time>
<speed>0.400000</speed>
<extensions>
<speed>0.4</speed>
<temp>0.00</temp>
<bpm>0</bpm>
<rpm>0.00</rpm>
</extensions>
</trkpt>
</trkseg>
</trk>
</gpx>